<?xml version="1.0" encoding="UTF-8" standalone="no" ?>
<gpx xmlns="http://www.topografix.com/GPX/1/1" xmlns:xsi="http://www.w3.org/2001/XMLSchema-instance" xsi:schemaLocation="http://www.topografix.com/GPX/1/1 http://www.topografix.com/GPX/1/1/gpx.xsd" version="1.1" creator="VisuGPX - https://www.visugpx.com">
  <metadata>
    <name>BRACONS MARATO</name>
    <desc><![CDATA[BRACONS MARATO 43 KM 3000+ ----]]></desc>
  </metadata>
  <trk>
    <name><![CDATA[BRACONS MARATO]]></name>
    <trkseg>
      <trkpt lat="42.10848" lon="2.37625">
        <ele>1122.1</ele>
        <time>2019-01-17T23:48:09Z</time>
      </trkpt>
      <trkpt lat="42.10848" lon="2.3763">
        <ele>1125.9</ele>
        <time>2019-01-17T23:48:12Z</time>
      </trkpt>
      <trkpt lat="42.10848" lon="2.37634">
        <ele>1126.4</ele>
        <time>2019-01-17T23:48:14Z</time>
      </trkpt>
      <trkpt lat="42.10847" lon="2.37638">
        <ele>1129.7</ele>
        <time>2019-01-17T23:48:17Z</time>
      </trkpt>
      <trkpt lat="42.10848" lon="2.37635">
        <ele>1130.2</ele>
        <time>2019-01-17T23:48:18Z</time>
      </trkpt>
      <trkpt lat="42.10848" lon="2.37641">
        <ele>1131.7</ele>
        <time>2019-01-17T23:48:21Z</time>
      </trkpt>
      <trkpt lat="42.10851" lon="2.37643">
        <ele>1135.1</ele>
        <time>2019-01-17T23:48:24Z</time>
      </trkpt>
      <trkpt lat="42.10854" lon="2.37639">
        <ele>1135.9</ele>
        <time>2019-01-17T23:48:28Z</time>
      </trkpt>
      <trkpt lat="42.10858" lon="2.3764">
        <ele>1137.9</ele>
        <time>2019-01-17T23:48:31Z</time>
      </trkpt>
      <trkpt lat="42.10871" lon="2.37636">
        <ele>1140.7</ele>
        <time>2019-01-17T23:48:42Z</time>
      </trkpt>
      <trkpt lat="42.10873" lon="2.37636">
        <ele>1141.3</ele>
        <time>2019-01-17T23:48:43Z</time>
      </trkpt>
      <trkpt lat="42.10885" lon="2.37644">
        <ele>1143.7</ele>
        <time>2019-01-17T23:48:54Z</time>
      </trkpt>
      <trkpt lat="42.10889" lon="2.37644">
        <ele>1144.1</ele>
        <time>2019-01-17T23:48:57Z</time>
      </trkpt>
      <trkpt lat="42.10908" lon="2.37643">
        <ele>1147.6</ele>
        <time>2019-01-17T23:49:12Z</time>
      </trkpt>
      <trkpt lat="42.1091" lon="2.37643">
        <ele>1147.5</ele>
        <time>2019-01-17T23:49:14Z</time>
      </trkpt>
      <trkpt lat="42.10921" lon="2.37636">
        <ele>1150.5</ele>
        <time>2019-01-17T23:49:23Z</time>
      </trkpt>
      <trkpt lat="42.10934" lon="2.37631">
        <ele>1154.7</ele>
        <time>2019-01-17T23:49:34Z</time>
      </trkpt>
      <trkpt lat="42.10943" lon="2.37626">
        <ele>1154.8</ele>
        <time>2019-01-17T23:49:42Z</time>
      </trkpt>
      <trkpt lat="42.1095" lon="2.37624">
        <ele>1155.6</ele>
        <time>2019-01-17T23:49:48Z</time>
      </trkpt>
      <trkpt lat="42.10954" lon="2.37616">
        <ele>1160.9</ele>
        <time>2019-01-17T23:49:53Z</time>
      </trkpt>
      <trkpt lat="42.10958" lon="2.37617">
        <ele>1164.3</ele>
        <time>2019-01-17T23:49:56Z</time>
      </trkpt>
      <trkpt lat="42.10963" lon="2.37623">
        <ele>1166.2</ele>
        <time>2019-01-17T23:50:02Z</time>
      </trkpt>
      <trkpt lat="42.10965" lon="2.37628">
        <ele>1164.4</ele>
        <time>2019-01-17T23:50:05Z</time>
      </trkpt>
      <trkpt lat="42.10972" lon="2.37632">
        <ele>1162.9</ele>
        <time>2019-01-17T23:50:12Z</time>
      </trkpt>
      <trkpt lat="42.10976" lon="2.3763">
        <ele>1162.9</ele>
        <time>2019-01-17T23:50:15Z</time>
      </trkpt>
      <trkpt lat="42.10974" lon="2.37638">
        <ele>1165.4</ele>
        <time>2019-01-17T23:50:20Z</time>
      </trkpt>
      <trkpt lat="42.10971" lon="2.37648">
        <ele>1167.8</ele>
        <time>2019-01-17T23:50:26Z</time>
      </trkpt>
      <trkpt lat="42.10977" lon="2.37647">
        <ele>1168.2</ele>
        <time>2019-01-17T23:50:31Z</time>
      </trkpt>
      <trkpt lat="42.10983" lon="2.37644">
        <ele>1168.7</ele>
        <time>2019-01-17T23:50:37Z</time>
      </trkpt>
      <trkpt lat="42.10986" lon="2.37644">
        <ele>1169.1</ele>
        <time>2019-01-17T23:50:38Z</time>
      </trkpt>
      <trkpt lat="42.10988" lon="2.37642">
        <ele>1172.1</ele>
        <time>2019-01-17T23:50:41Z</time>
      </trkpt>
      <trkpt lat="42.10991" lon="2.37642">
        <ele>1173.9</ele>
        <time>2019-01-17T23:50:43Z</time>
      </trkpt>
      <trkpt lat="42.10995" lon="2.37645">
        <ele>1178.2</ele>
        <time>2019-01-17T23:50:46Z</time>
      </trkpt>
      <trkpt lat="42.10996" lon="2.37647">
        <ele>1179.3</ele>
        <time>2019-01-17T23:50:48Z</time>
      </trkpt>
      <trkpt lat="42.11006" lon="2.37645">
        <ele>1179.2</ele>
        <time>2019-01-17T23:50:56Z</time>
      </trkpt>
      <trkpt lat="42.11013" lon="2.37638">
        <ele>1179.3</ele>
        <time>2019-01-17T23:51:03Z</time>
      </trkpt>
      <trkpt lat="42.11017" lon="2.37636">
        <ele>1182.2</ele>
        <time>2019-01-17T23:51:06Z</time>
      </trkpt>
      <trkpt lat="42.11024" lon="2.37633">
        <ele>1185</ele>
        <time>2019-01-17T23:51:12Z</time>
      </trkpt>
      <trkpt lat="42.11025" lon="2.37628">
        <ele>1185.4</ele>
        <time>2019-01-17T23:51:16Z</time>
      </trkpt>
      <trkpt lat="42.1103" lon="2.37618">
        <ele>1188</ele>
        <time>2019-01-17T23:51:23Z</time>
      </trkpt>
      <trkpt lat="42.11034" lon="2.37612">
        <ele>1188</ele>
        <time>2019-01-17T23:51:28Z</time>
      </trkpt>
      <trkpt lat="42.1104" lon="2.37604">
        <ele>1187.5</ele>
        <time>2019-01-17T23:51:34Z</time>
      </trkpt>
      <trkpt lat="42.11048" lon="2.376">
        <ele>1188</ele>
        <time>2019-01-17T23:51:41Z</time>
      </trkpt>
      <trkpt lat="42.11049" lon="2.37598">
        <ele>1187.4</ele>
        <time>2019-01-17T23:51:42Z</time>
      </trkpt>
      <trkpt lat="42.11057" lon="2.37595">
        <ele>1190.3</ele>
        <time>2019-01-17T23:51:49Z</time>
      </trkpt>
      <trkpt lat="42.11061" lon="2.37592">
        <ele>1194.1</ele>
        <time>2019-01-17T23:51:53Z</time>
      </trkpt>
      <trkpt lat="42.11064" lon="2.37586">
        <ele>1200.4</ele>
        <time>2019-01-17T23:51:57Z</time>
      </trkpt>
      <trkpt lat="42.11073" lon="2.37575">
        <ele>1205.7</ele>
        <time>2019-01-17T23:52:07Z</time>
      </trkpt>
      <trkpt lat="42.11073" lon="2.37574">
        <ele>1206.2</ele>
        <time>2019-01-17T23:52:07Z</time>
      </trkpt>
      <trkpt lat="42.11081" lon="2.37571">
        <ele>1210.1</ele>
        <time>2019-01-17T23:52:14Z</time>
      </trkpt>
      <trkpt lat="42.11085" lon="2.3757">
        <ele>1209.5</ele>
        <time>2019-01-17T23:52:17Z</time>
      </trkpt>
      <trkpt lat="42.11089" lon="2.37568">
        <ele>1209.1</ele>
        <time>2019-01-17T23:52:20Z</time>
      </trkpt>
      <trkpt lat="42.11096" lon="2.37567">
        <ele>1208.1</ele>
        <time>2019-01-17T23:52:26Z</time>
      </trkpt>
      <trkpt lat="42.11101" lon="2.37572">
        <ele>1209.1</ele>
        <time>2019-01-17T23:52:31Z</time>
      </trkpt>
      <trkpt lat="42.11108" lon="2.37574">
        <ele>1210.4</ele>
        <time>2019-01-17T23:52:36Z</time>
      </trkpt>
      <trkpt lat="42.11115" lon="2.37578">
        <ele>1212.8</ele>
        <time>2019-01-17T23:52:43Z</time>
      </trkpt>
      <trkpt lat="42.11126" lon="2.37572">
        <ele>1215.7</ele>
        <time>2019-01-17T23:52:52Z</time>
      </trkpt>
      <trkpt lat="42.1113" lon="2.3757">
        <ele>1217.2</ele>
        <time>2019-01-17T23:52:55Z</time>
      </trkpt>
      <trkpt lat="42.11136" lon="2.37565">
        <ele>1220.5</ele>
        <time>2019-01-17T23:53:01Z</time>
      </trkpt>
      <trkpt lat="42.1115" lon="2.37556">
        <ele>1224.4</ele>
        <time>2019-01-17T23:53:14Z</time>
      </trkpt>
      <trkpt lat="42.11154" lon="2.37556">
        <ele>1224.9</ele>
        <time>2019-01-17T23:53:17Z</time>
      </trkpt>
      <trkpt lat="42.11158" lon="2.37555">
        <ele>1226.9</ele>
        <time>2019-01-17T23:53:20Z</time>
      </trkpt>
      <trkpt lat="42.11165" lon="2.37554">
        <ele>1230.1</ele>
        <time>2019-01-17T23:53:26Z</time>
      </trkpt>
      <trkpt lat="42.11177" lon="2.37535">
        <ele>1236.8</ele>
        <time>2019-01-18T00:48:32Z</time>
      </trkpt>
      <trkpt lat="42.11186" lon="2.37532">
        <ele>1240.3</ele>
        <time>2019-01-18T00:48:39Z</time>
      </trkpt>
      <trkpt lat="42.11193" lon="2.37523">
        <ele>1243.9</ele>
        <time>2019-01-18T00:48:47Z</time>
      </trkpt>
      <trkpt lat="42.11201" lon="2.37517">
        <ele>1242.3</ele>
        <time>2019-01-18T00:48:54Z</time>
      </trkpt>
      <trkpt lat="42.11209" lon="2.3751">
        <ele>1240.5</ele>
        <time>2019-01-18T00:49:02Z</time>
      </trkpt>
      <trkpt lat="42.11213" lon="2.37498">
        <ele>1241.8</ele>
        <time>2019-01-18T00:49:10Z</time>
      </trkpt>
      <trkpt lat="42.11221" lon="2.3749">
        <ele>1243.4</ele>
        <time>2019-01-18T00:49:18Z</time>
      </trkpt>
      <trkpt lat="42.1123" lon="2.37489">
        <ele>1242.3</ele>
        <time>2019-01-18T00:49:25Z</time>
      </trkpt>
      <trkpt lat="42.1124" lon="2.3749">
        <ele>1240.3</ele>
        <time>2019-01-18T00:49:33Z</time>
      </trkpt>
      <trkpt lat="42.11245" lon="2.37479">
        <ele>1245.3</ele>
        <time>2019-01-18T00:49:40Z</time>
      </trkpt>
      <trkpt lat="42.11251" lon="2.37471">
        <ele>1249.2</ele>
        <time>2019-01-18T00:49:48Z</time>
      </trkpt>
      <trkpt lat="42.11258" lon="2.3746">
        <ele>1252.3</ele>
        <time>2019-01-18T00:49:56Z</time>
      </trkpt>
      <trkpt lat="42.11267" lon="2.37455">
        <ele>1253.3</ele>
        <time>2019-01-18T00:50:04Z</time>
      </trkpt>
      <trkpt lat="42.11275" lon="2.37448">
        <ele>1255.5</ele>
        <time>2019-01-18T00:50:11Z</time>
      </trkpt>
      <trkpt lat="42.11282" lon="2.3744">
        <ele>1259.8</ele>
        <time>2019-01-18T00:50:19Z</time>
      </trkpt>
      <trkpt lat="42.11291" lon="2.37438">
        <ele>1261.4</ele>
        <time>2019-01-18T00:50:26Z</time>
      </trkpt>
      <trkpt lat="42.11298" lon="2.3743">
        <ele>1267.9</ele>
        <time>2019-01-18T00:50:33Z</time>
      </trkpt>
      <trkpt lat="42.11307" lon="2.37429">
        <ele>1270.1</ele>
        <time>2019-01-18T00:50:41Z</time>
      </trkpt>
      <trkpt lat="42.11312" lon="2.37419">
        <ele>1280.8</ele>
        <time>2019-01-18T00:50:48Z</time>
      </trkpt>
      <trkpt lat="42.11318" lon="2.37409">
        <ele>1290.4</ele>
        <time>2019-01-18T00:50:55Z</time>
      </trkpt>
      <trkpt lat="42.11316" lon="2.37397">
        <ele>1298.2</ele>
        <time>2019-01-18T00:51:03Z</time>
      </trkpt>
      <trkpt lat="42.11323" lon="2.37391">
        <ele>1306.2</ele>
        <time>2019-01-18T00:51:10Z</time>
      </trkpt>
      <trkpt lat="42.11331" lon="2.37383">
        <ele>1311.8</ele>
        <time>2019-01-18T00:51:18Z</time>
      </trkpt>
      <trkpt lat="42.11338" lon="2.37375">
        <ele>1314</ele>
        <time>2019-01-18T00:51:25Z</time>
      </trkpt>
      <trkpt lat="42.11339" lon="2.37387">
        <ele>1312.1</ele>
        <time>2019-01-18T00:51:32Z</time>
      </trkpt>
      <trkpt lat="42.11348" lon="2.37392">
        <ele>1309.7</ele>
        <time>2019-01-18T00:51:40Z</time>
      </trkpt>
      <trkpt lat="42.11358" lon="2.37392">
        <ele>1309.9</ele>
        <time>2019-01-18T00:51:47Z</time>
      </trkpt>
      <trkpt lat="42.11366" lon="2.37384">
        <ele>1311.3</ele>
        <time>2019-01-18T00:51:56Z</time>
      </trkpt>
      <trkpt lat="42.11376" lon="2.37385">
        <ele>1311.3</ele>
        <time>2019-01-18T00:52:04Z</time>
      </trkpt>
      <trkpt lat="42.11386" lon="2.37383">
        <ele>1311.6</ele>
        <time>2019-01-18T00:52:11Z</time>
      </trkpt>
      <trkpt lat="42.11394" lon="2.37379">
        <ele>1311.7</ele>
        <time>2019-01-18T00:52:18Z</time>
      </trkpt>
      <trkpt lat="42.11404" lon="2.3738">
        <ele>1310.4</ele>
        <time>2019-01-18T00:52:26Z</time>
      </trkpt>
      <trkpt lat="42.11413" lon="2.37383">
        <ele>1308.2</ele>
        <time>2019-01-18T00:52:34Z</time>
      </trkpt>
      <trkpt lat="42.11423" lon="2.37382">
        <ele>1308.6</ele>
        <time>2019-01-18T00:52:42Z</time>
      </trkpt>
      <trkpt lat="42.11433" lon="2.3738">
        <ele>1311</ele>
        <time>2019-01-18T00:52:50Z</time>
      </trkpt>
      <trkpt lat="42.11442" lon="2.37377">
        <ele>1313.1</ele>
        <time>2019-01-18T00:52:57Z</time>
      </trkpt>
      <trkpt lat="42.11449" lon="2.3737">
        <ele>1316.8</ele>
        <time>2019-01-18T00:53:04Z</time>
      </trkpt>
      <trkpt lat="42.11456" lon="2.37361">
        <ele>1321.5</ele>
        <time>2019-01-18T00:53:12Z</time>
      </trkpt>
      <trkpt lat="42.11465" lon="2.37355">
        <ele>1323.4</ele>
        <time>2019-01-18T00:53:20Z</time>
      </trkpt>
      <trkpt lat="42.11474" lon="2.37348">
        <ele>1326.1</ele>
        <time>2019-01-18T00:53:28Z</time>
      </trkpt>
      <trkpt lat="42.11482" lon="2.37342">
        <ele>1330.9</ele>
        <time>2019-01-18T00:53:36Z</time>
      </trkpt>
      <trkpt lat="42.1149" lon="2.37338">
        <ele>1336.6</ele>
        <time>2019-01-18T00:53:43Z</time>
      </trkpt>
      <trkpt lat="42.115" lon="2.37338">
        <ele>1342.2</ele>
        <time>2019-01-18T00:53:51Z</time>
      </trkpt>
      <trkpt lat="42.11504" lon="2.37327">
        <ele>1345.7</ele>
        <time>2019-01-18T00:53:58Z</time>
      </trkpt>
      <trkpt lat="42.11513" lon="2.37327">
        <ele>1353.5</ele>
        <time>2019-01-18T00:54:05Z</time>
      </trkpt>
      <trkpt lat="42.11521" lon="2.37322">
        <ele>1360.8</ele>
        <time>2019-01-18T00:54:13Z</time>
      </trkpt>
      <trkpt lat="42.1153" lon="2.37323">
        <ele>1368.4</ele>
        <time>2019-01-18T00:54:20Z</time>
      </trkpt>
      <trkpt lat="42.11538" lon="2.37328">
        <ele>1374.1</ele>
        <time>2019-01-18T00:54:27Z</time>
      </trkpt>
      <trkpt lat="42.11551" lon="2.37328">
        <ele>1383.7</ele>
        <time>2019-01-18T00:54:38Z</time>
      </trkpt>
      <trkpt lat="42.1156" lon="2.37322">
        <ele>1389.6</ele>
        <time>2019-01-18T00:54:45Z</time>
      </trkpt>
      <trkpt lat="42.11568" lon="2.37316">
        <ele>1394.1</ele>
        <time>2019-01-18T00:54:53Z</time>
      </trkpt>
      <trkpt lat="42.11563" lon="2.37306">
        <ele>1393.1</ele>
        <time>2019-01-18T00:55:00Z</time>
      </trkpt>
      <trkpt lat="42.11572" lon="2.37307">
        <ele>1396.9</ele>
        <time>2019-01-18T00:55:07Z</time>
      </trkpt>
      <trkpt lat="42.11579" lon="2.37316">
        <ele>1398.9</ele>
        <time>2019-01-18T00:55:15Z</time>
      </trkpt>
      <trkpt lat="42.11588" lon="2.3732">
        <ele>1402.3</ele>
        <time>2019-01-18T00:55:22Z</time>
      </trkpt>
      <trkpt lat="42.11597" lon="2.37325">
        <ele>1406.1</ele>
        <time>2019-01-18T00:55:30Z</time>
      </trkpt>
      <trkpt lat="42.11606" lon="2.37328">
        <ele>1410.9</ele>
        <time>2019-01-18T00:55:38Z</time>
      </trkpt>
      <trkpt lat="42.11615" lon="2.37334">
        <ele>1416.2</ele>
        <time>2019-01-18T00:55:46Z</time>
      </trkpt>
      <trkpt lat="42.11623" lon="2.37341">
        <ele>1419.8</ele>
        <time>2019-01-18T00:55:53Z</time>
      </trkpt>
      <trkpt lat="42.11632" lon="2.37346">
        <ele>1426</ele>
        <time>2019-01-18T00:56:01Z</time>
      </trkpt>
      <trkpt lat="42.11637" lon="2.37356">
        <ele>1433.8</ele>
        <time>2019-01-18T00:56:08Z</time>
      </trkpt>
      <trkpt lat="42.11645" lon="2.37363">
        <ele>1439.5</ele>
        <time>2019-01-18T00:56:16Z</time>
      </trkpt>
      <trkpt lat="42.11652" lon="2.3737">
        <ele>1440.9</ele>
        <time>2019-01-18T00:56:23Z</time>
      </trkpt>
      <trkpt lat="42.11655" lon="2.37382">
        <ele>1440.8</ele>
        <time>2019-01-18T00:56:30Z</time>
      </trkpt>
      <trkpt lat="42.11657" lon="2.37393">
        <ele>1438.5</ele>
        <time>2019-01-18T00:56:38Z</time>
      </trkpt>
      <trkpt lat="42.11663" lon="2.37403">
        <ele>1434.8</ele>
        <time>2019-01-18T00:56:45Z</time>
      </trkpt>
      <trkpt lat="42.11665" lon="2.37391">
        <ele>1440.6</ele>
        <time>2019-01-18T00:56:52Z</time>
      </trkpt>
      <trkpt lat="42.1167" lon="2.37401">
        <ele>1436</ele>
        <time>2019-01-18T00:57:00Z</time>
      </trkpt>
      <trkpt lat="42.11679" lon="2.37408">
        <ele>1432.8</ele>
        <time>2019-01-18T00:57:08Z</time>
      </trkpt>
      <trkpt lat="42.11686" lon="2.37416">
        <ele>1429.2</ele>
        <time>2019-01-18T00:57:15Z</time>
      </trkpt>
      <trkpt lat="42.11694" lon="2.37421">
        <ele>1425.9</ele>
        <time>2019-01-18T00:57:22Z</time>
      </trkpt>
      <trkpt lat="42.11704" lon="2.37424">
        <ele>1424.4</ele>
        <time>2019-01-18T00:57:30Z</time>
      </trkpt>
      <trkpt lat="42.11713" lon="2.3743">
        <ele>1422.7</ele>
        <time>2019-01-18T00:57:38Z</time>
      </trkpt>
      <trkpt lat="42.11724" lon="2.37432">
        <ele>1423.2</ele>
        <time>2019-01-18T00:57:47Z</time>
      </trkpt>
      <trkpt lat="42.11733" lon="2.37434">
        <ele>1421</ele>
        <time>2019-01-18T00:57:54Z</time>
      </trkpt>
      <trkpt lat="42.11742" lon="2.37434">
        <ele>1419.1</ele>
        <time>2019-01-18T00:58:02Z</time>
      </trkpt>
      <trkpt lat="42.11748" lon="2.37443">
        <ele>1417.2</ele>
        <time>2019-01-18T00:58:09Z</time>
      </trkpt>
      <trkpt lat="42.11755" lon="2.37452">
        <ele>1409.8</ele>
        <time>2019-01-18T00:58:16Z</time>
      </trkpt>
      <trkpt lat="42.11761" lon="2.37464">
        <ele>1401.1</ele>
        <time>2019-01-18T00:58:25Z</time>
      </trkpt>
      <trkpt lat="42.11768" lon="2.37472">
        <ele>1396.8</ele>
        <time>2019-01-18T00:58:32Z</time>
      </trkpt>
      <trkpt lat="42.11777" lon="2.37478">
        <ele>1394.2</ele>
        <time>2019-01-18T00:58:41Z</time>
      </trkpt>
      <trkpt lat="42.11786" lon="2.37484">
        <ele>1393</ele>
        <time>2019-01-18T00:58:49Z</time>
      </trkpt>
      <trkpt lat="42.11794" lon="2.37493">
        <ele>1393.9</ele>
        <time>2019-01-18T00:58:57Z</time>
      </trkpt>
      <trkpt lat="42.11801" lon="2.37504">
        <ele>1396.9</ele>
        <time>2019-01-18T00:59:05Z</time>
      </trkpt>
      <trkpt lat="42.11806" lon="2.37515">
        <ele>1399.6</ele>
        <time>2019-01-18T00:59:13Z</time>
      </trkpt>
      <trkpt lat="42.11811" lon="2.37527">
        <ele>1400.3</ele>
        <time>2019-01-18T00:59:21Z</time>
      </trkpt>
      <trkpt lat="42.11817" lon="2.37537">
        <ele>1401.4</ele>
        <time>2019-01-18T00:59:29Z</time>
      </trkpt>
      <trkpt lat="42.11826" lon="2.37542">
        <ele>1407.3</ele>
        <time>2019-01-18T00:59:37Z</time>
      </trkpt>
      <trkpt lat="42.11835" lon="2.37543">
        <ele>1413</ele>
        <time>2019-01-18T00:59:44Z</time>
      </trkpt>
      <trkpt lat="42.11845" lon="2.37543">
        <ele>1412.7</ele>
        <time>2019-01-18T00:59:52Z</time>
      </trkpt>
      <trkpt lat="42.11854" lon="2.37542">
        <ele>1412.3</ele>
        <time>2019-01-18T00:59:59Z</time>
      </trkpt>
      <trkpt lat="42.11863" lon="2.37544">
        <ele>1413</ele>
        <time>2019-01-18T01:00:07Z</time>
      </trkpt>
      <trkpt lat="42.11873" lon="2.37542">
        <ele>1414.1</ele>
        <time>2019-01-18T01:00:14Z</time>
      </trkpt>
      <trkpt lat="42.11883" lon="2.37543">
        <ele>1415.8</ele>
        <time>2019-01-18T01:00:23Z</time>
      </trkpt>
      <trkpt lat="42.11893" lon="2.37541">
        <ele>1417.7</ele>
        <time>2019-01-18T01:00:30Z</time>
      </trkpt>
      <trkpt lat="42.11902" lon="2.37543">
        <ele>1421.1</ele>
        <time>2019-01-18T01:00:38Z</time>
      </trkpt>
      <trkpt lat="42.11911" lon="2.37545">
        <ele>1424.1</ele>
        <time>2019-01-18T01:00:45Z</time>
      </trkpt>
      <trkpt lat="42.1192" lon="2.37549">
        <ele>1426.5</ele>
        <time>2019-01-18T01:00:53Z</time>
      </trkpt>
      <trkpt lat="42.11929" lon="2.37554">
        <ele>1428.4</ele>
        <time>2019-01-18T01:01:01Z</time>
      </trkpt>
      <trkpt lat="42.11938" lon="2.37559">
        <ele>1429.1</ele>
        <time>2019-01-18T01:01:08Z</time>
      </trkpt>
      <trkpt lat="42.11943" lon="2.3757">
        <ele>1427.8</ele>
        <time>2019-01-18T01:01:16Z</time>
      </trkpt>
      <trkpt lat="42.11947" lon="2.37581">
        <ele>1426.9</ele>
        <time>2019-01-18T01:01:23Z</time>
      </trkpt>
      <trkpt lat="42.11948" lon="2.37594">
        <ele>1428.3</ele>
        <time>2019-01-18T01:01:31Z</time>
      </trkpt>
      <trkpt lat="42.11948" lon="2.37606">
        <ele>1430.4</ele>
        <time>2019-01-18T01:01:38Z</time>
      </trkpt>
      <trkpt lat="42.11941" lon="2.37615">
        <ele>1427.9</ele>
        <time>2019-01-18T01:01:46Z</time>
      </trkpt>
      <trkpt lat="42.11937" lon="2.37627">
        <ele>1426.7</ele>
        <time>2019-01-18T01:01:54Z</time>
      </trkpt>
      <trkpt lat="42.11933" lon="2.37638">
        <ele>1427.4</ele>
        <time>2019-01-18T01:02:01Z</time>
      </trkpt>
      <trkpt lat="42.11932" lon="2.3765">
        <ele>1429.2</ele>
        <time>2019-01-18T01:02:08Z</time>
      </trkpt>
      <trkpt lat="42.11938" lon="2.37659">
        <ele>1436.2</ele>
        <time>2019-01-18T01:02:16Z</time>
      </trkpt>
      <trkpt lat="42.11947" lon="2.37667">
        <ele>1440.8</ele>
        <time>2019-01-18T01:02:24Z</time>
      </trkpt>
      <trkpt lat="42.11957" lon="2.37672">
        <ele>1435.4</ele>
        <time>2019-01-18T01:02:33Z</time>
      </trkpt>
      <trkpt lat="42.11966" lon="2.37676">
        <ele>1431.6</ele>
        <time>2019-01-18T01:02:40Z</time>
      </trkpt>
      <trkpt lat="42.11975" lon="2.3768">
        <ele>1428.1</ele>
        <time>2019-01-18T01:02:48Z</time>
      </trkpt>
      <trkpt lat="42.11986" lon="2.37678">
        <ele>1424.4</ele>
        <time>2019-01-18T01:02:57Z</time>
      </trkpt>
      <trkpt lat="42.11995" lon="2.37679">
        <ele>1420.7</ele>
        <time>2019-01-18T01:03:04Z</time>
      </trkpt>
      <trkpt lat="42.12005" lon="2.37679">
        <ele>1419.1</ele>
        <time>2019-01-18T01:03:12Z</time>
      </trkpt>
      <trkpt lat="42.12015" lon="2.3768">
        <ele>1419.5</ele>
        <time>2019-01-18T01:03:20Z</time>
      </trkpt>
      <trkpt lat="42.12025" lon="2.3768">
        <ele>1419.8</ele>
        <time>2019-01-18T01:03:28Z</time>
      </trkpt>
      <trkpt lat="42.12035" lon="2.37683">
        <ele>1420.3</ele>
        <time>2019-01-18T01:03:36Z</time>
      </trkpt>
      <trkpt lat="42.12044" lon="2.37687">
        <ele>1421.3</ele>
        <time>2019-01-18T01:03:44Z</time>
      </trkpt>
      <trkpt lat="42.12053" lon="2.37691">
        <ele>1422.7</ele>
        <time>2019-01-18T01:03:51Z</time>
      </trkpt>
      <trkpt lat="42.12062" lon="2.37694">
        <ele>1424.1</ele>
        <time>2019-01-18T01:03:59Z</time>
      </trkpt>
      <trkpt lat="42.12071" lon="2.377">
        <ele>1424.3</ele>
        <time>2019-01-18T01:04:07Z</time>
      </trkpt>
      <trkpt lat="42.12079" lon="2.37706">
        <ele>1426.3</ele>
        <time>2019-01-18T01:04:15Z</time>
      </trkpt>
      <trkpt lat="42.12088" lon="2.37712">
        <ele>1427.4</ele>
        <time>2019-01-18T01:04:23Z</time>
      </trkpt>
      <trkpt lat="42.12098" lon="2.37719">
        <ele>1427.2</ele>
        <time>2019-01-18T01:04:31Z</time>
      </trkpt>
      <trkpt lat="42.12108" lon="2.37727">
        <ele>1426.9</ele>
        <time>2019-01-18T01:04:40Z</time>
      </trkpt>
      <trkpt lat="42.12116" lon="2.37733">
        <ele>1426.9</ele>
        <time>2019-01-18T01:04:48Z</time>
      </trkpt>
      <trkpt lat="42.12124" lon="2.37739">
        <ele>1426.9</ele>
        <time>2019-01-18T01:04:55Z</time>
      </trkpt>
      <trkpt lat="42.12132" lon="2.37746">
        <ele>1426.7</ele>
        <time>2019-01-18T01:05:03Z</time>
      </trkpt>
      <trkpt lat="42.12137" lon="2.37757">
        <ele>1426.6</ele>
        <time>2019-01-18T01:05:11Z</time>
      </trkpt>
      <trkpt lat="42.1214" lon="2.3777">
        <ele>1426.2</ele>
        <time>2019-01-18T01:05:19Z</time>
      </trkpt>
      <trkpt lat="42.12143" lon="2.37781">
        <ele>1425.2</ele>
        <time>2019-01-18T01:05:26Z</time>
      </trkpt>
      <trkpt lat="42.1215" lon="2.3779">
        <ele>1421.7</ele>
        <time>2019-01-18T01:05:34Z</time>
      </trkpt>
      <trkpt lat="42.12153" lon="2.37802">
        <ele>1420</ele>
        <time>2019-01-18T01:05:41Z</time>
      </trkpt>
      <trkpt lat="42.12157" lon="2.37813">
        <ele>1418.1</ele>
        <time>2019-01-18T01:05:48Z</time>
      </trkpt>
      <trkpt lat="42.12162" lon="2.37825">
        <ele>1415.9</ele>
        <time>2019-01-18T01:05:57Z</time>
      </trkpt>
      <trkpt lat="42.12169" lon="2.37835">
        <ele>1413.8</ele>
        <time>2019-01-18T01:06:05Z</time>
      </trkpt>
      <trkpt lat="42.12177" lon="2.37844">
        <ele>1413.5</ele>
        <time>2019-01-18T01:06:13Z</time>
      </trkpt>
      <trkpt lat="42.12186" lon="2.37856">
        <ele>1413.5</ele>
        <time>2019-01-18T01:06:23Z</time>
      </trkpt>
      <trkpt lat="42.12194" lon="2.37863">
        <ele>1413.7</ele>
        <time>2019-01-18T01:06:31Z</time>
      </trkpt>
      <trkpt lat="42.12201" lon="2.37871">
        <ele>1414.3</ele>
        <time>2019-01-18T01:06:38Z</time>
      </trkpt>
      <trkpt lat="42.12209" lon="2.37881">
        <ele>1415</ele>
        <time>2019-01-18T01:06:47Z</time>
      </trkpt>
      <trkpt lat="42.12217" lon="2.3789">
        <ele>1415.3</ele>
        <time>2019-01-18T01:06:55Z</time>
      </trkpt>
      <trkpt lat="42.12226" lon="2.37899">
        <ele>1414.9</ele>
        <time>2019-01-18T01:07:04Z</time>
      </trkpt>
      <trkpt lat="42.12234" lon="2.37906">
        <ele>1414.1</ele>
        <time>2019-01-18T01:07:12Z</time>
      </trkpt>
      <trkpt lat="42.1224" lon="2.37915">
        <ele>1414.1</ele>
        <time>2019-01-18T01:07:19Z</time>
      </trkpt>
      <trkpt lat="42.12247" lon="2.37925">
        <ele>1414.1</ele>
        <time>2019-01-18T01:07:27Z</time>
      </trkpt>
      <trkpt lat="42.12253" lon="2.37934">
        <ele>1415.5</ele>
        <time>2019-01-18T01:07:35Z</time>
      </trkpt>
      <trkpt lat="42.1226" lon="2.37942">
        <ele>1417.1</ele>
        <time>2019-01-18T01:07:42Z</time>
      </trkpt>
      <trkpt lat="42.1227" lon="2.37947">
        <ele>1417.4</ele>
        <time>2019-01-18T01:07:50Z</time>
      </trkpt>
      <trkpt lat="42.1228" lon="2.37949">
        <ele>1418.5</ele>
        <time>2019-01-18T01:07:59Z</time>
      </trkpt>
      <trkpt lat="42.1229" lon="2.37948">
        <ele>1420.3</ele>
        <time>2019-01-18T01:08:06Z</time>
      </trkpt>
      <trkpt lat="42.12299" lon="2.37945">
        <ele>1421.6</ele>
        <time>2019-01-18T01:08:14Z</time>
      </trkpt>
      <trkpt lat="42.12306" lon="2.37938">
        <ele>1421.5</ele>
        <time>2019-01-18T01:08:21Z</time>
      </trkpt>
      <trkpt lat="42.12315" lon="2.3793">
        <ele>1419.6</ele>
        <time>2019-01-18T01:08:29Z</time>
      </trkpt>
      <trkpt lat="42.12324" lon="2.37926">
        <ele>1419.2</ele>
        <time>2019-01-18T01:08:37Z</time>
      </trkpt>
      <trkpt lat="42.12333" lon="2.37927">
        <ele>1419.8</ele>
        <time>2019-01-18T01:08:45Z</time>
      </trkpt>
      <trkpt lat="42.12342" lon="2.37932">
        <ele>1418.4</ele>
        <time>2019-01-18T01:08:52Z</time>
      </trkpt>
      <trkpt lat="42.1235" lon="2.3794">
        <ele>1417.4</ele>
        <time>2019-01-18T01:09:01Z</time>
      </trkpt>
      <trkpt lat="42.12358" lon="2.37949">
        <ele>1416.7</ele>
        <time>2019-01-18T01:09:08Z</time>
      </trkpt>
      <trkpt lat="42.12364" lon="2.37958">
        <ele>1417</ele>
        <time>2019-01-18T01:09:16Z</time>
      </trkpt>
      <trkpt lat="42.12371" lon="2.37966">
        <ele>1417.7</ele>
        <time>2019-01-18T01:09:24Z</time>
      </trkpt>
      <trkpt lat="42.12381" lon="2.37968">
        <ele>1416.9</ele>
        <time>2019-01-18T01:09:31Z</time>
      </trkpt>
      <trkpt lat="42.1239" lon="2.37964">
        <ele>1414.6</ele>
        <time>2019-01-18T01:09:39Z</time>
      </trkpt>
      <trkpt lat="42.12399" lon="2.37963">
        <ele>1413.9</ele>
        <time>2019-01-18T01:09:46Z</time>
      </trkpt>
      <trkpt lat="42.12408" lon="2.37965">
        <ele>1414</ele>
        <time>2019-01-18T01:09:53Z</time>
      </trkpt>
      <trkpt lat="42.12416" lon="2.37967">
        <ele>1414</ele>
        <time>2019-01-18T01:10:00Z</time>
      </trkpt>
      <trkpt lat="42.12426" lon="2.37969">
        <ele>1413.5</ele>
        <time>2019-01-18T01:10:08Z</time>
      </trkpt>
      <trkpt lat="42.12436" lon="2.37968">
        <ele>1412.6</ele>
        <time>2019-01-18T01:10:16Z</time>
      </trkpt>
      <trkpt lat="42.12447" lon="2.37965">
        <ele>1411.3</ele>
        <time>2019-01-18T01:10:25Z</time>
      </trkpt>
      <trkpt lat="42.12457" lon="2.37961">
        <ele>1410.6</ele>
        <time>2019-01-18T01:10:33Z</time>
      </trkpt>
      <trkpt lat="42.12466" lon="2.37955">
        <ele>1409.7</ele>
        <time>2019-01-18T01:10:42Z</time>
      </trkpt>
      <trkpt lat="42.12473" lon="2.37946">
        <ele>1408.5</ele>
        <time>2019-01-18T01:10:49Z</time>
      </trkpt>
      <trkpt lat="42.12479" lon="2.37934">
        <ele>1408.5</ele>
        <time>2019-01-18T01:10:58Z</time>
      </trkpt>
      <trkpt lat="42.12482" lon="2.3792">
        <ele>1407.9</ele>
        <time>2019-01-18T01:11:07Z</time>
      </trkpt>
      <trkpt lat="42.12484" lon="2.37907">
        <ele>1407.5</ele>
        <time>2019-01-18T01:11:15Z</time>
      </trkpt>
      <trkpt lat="42.12485" lon="2.37894">
        <ele>1407</ele>
        <time>2019-01-18T01:11:23Z</time>
      </trkpt>
      <trkpt lat="42.12486" lon="2.37881">
        <ele>1405.8</ele>
        <time>2019-01-18T01:11:30Z</time>
      </trkpt>
      <trkpt lat="42.12489" lon="2.37869">
        <ele>1405.2</ele>
        <time>2019-01-18T01:11:38Z</time>
      </trkpt>
      <trkpt lat="42.12495" lon="2.37857">
        <ele>1404.9</ele>
        <time>2019-01-18T01:11:46Z</time>
      </trkpt>
      <trkpt lat="42.12505" lon="2.3787">
        <ele>1408.4</ele>
        <time>2019-01-18T02:49:55Z</time>
      </trkpt>
      <trkpt lat="42.12503" lon="2.37874">
        <ele>1409.7</ele>
        <time>2019-01-18T02:49:58Z</time>
      </trkpt>
      <trkpt lat="42.12501" lon="2.37879">
        <ele>1410.8</ele>
        <time>2019-01-18T02:50:01Z</time>
      </trkpt>
      <trkpt lat="42.125" lon="2.37883">
        <ele>1411.3</ele>
        <time>2019-01-18T02:50:04Z</time>
      </trkpt>
      <trkpt lat="42.12498" lon="2.37886">
        <ele>1411.7</ele>
        <time>2019-01-18T02:50:06Z</time>
      </trkpt>
      <trkpt lat="42.12497" lon="2.37889">
        <ele>1411.7</ele>
        <time>2019-01-18T02:50:08Z</time>
      </trkpt>
      <trkpt lat="42.12497" lon="2.37894">
        <ele>1411.7</ele>
        <time>2019-01-18T02:50:11Z</time>
      </trkpt>
      <trkpt lat="42.12497" lon="2.37897">
        <ele>1411.3</ele>
        <time>2019-01-18T02:50:12Z</time>
      </trkpt>
      <trkpt lat="42.12498" lon="2.37901">
        <ele>1411</ele>
        <time>2019-01-18T02:50:15Z</time>
      </trkpt>
      <trkpt lat="42.12497" lon="2.37905">
        <ele>1410.7</ele>
        <time>2019-01-18T02:50:17Z</time>
      </trkpt>
      <trkpt lat="42.12496" lon="2.37912">
        <ele>1410.6</ele>
        <time>2019-01-18T02:50:21Z</time>
      </trkpt>
      <trkpt lat="42.12496" lon="2.37915">
        <ele>1411.1</ele>
        <time>2019-01-18T02:50:24Z</time>
      </trkpt>
      <trkpt lat="42.12497" lon="2.3792">
        <ele>1411.8</ele>
        <time>2019-01-18T02:50:27Z</time>
      </trkpt>
      <trkpt lat="42.12496" lon="2.37926">
        <ele>1412.2</ele>
        <time>2019-01-18T02:50:30Z</time>
      </trkpt>
      <trkpt lat="42.12497" lon="2.37932">
        <ele>1412.8</ele>
        <time>2019-01-18T02:50:34Z</time>
      </trkpt>
      <trkpt lat="42.12496" lon="2.37936">
        <ele>1412.8</ele>
        <time>2019-01-18T02:50:36Z</time>
      </trkpt>
      <trkpt lat="42.12495" lon="2.37942">
        <ele>1413.2</ele>
        <time>2019-01-18T02:50:40Z</time>
      </trkpt>
      <trkpt lat="42.12494" lon="2.37947">
        <ele>1413.1</ele>
        <time>2019-01-18T02:50:43Z</time>
      </trkpt>
      <trkpt lat="42.12494" lon="2.37953">
        <ele>1413.9</ele>
        <time>2019-01-18T02:50:46Z</time>
      </trkpt>
      <trkpt lat="42.12494" lon="2.37957">
        <ele>1414.5</ele>
        <time>2019-01-18T02:50:49Z</time>
      </trkpt>
      <trkpt lat="42.12491" lon="2.37957">
        <ele>1413.9</ele>
        <time>2019-01-18T02:50:51Z</time>
      </trkpt>
      <trkpt lat="42.12489" lon="2.37963">
        <ele>1413.9</ele>
        <time>2019-01-18T02:50:55Z</time>
      </trkpt>
      <trkpt lat="42.12489" lon="2.3797">
        <ele>1414.9</ele>
        <time>2019-01-18T02:50:59Z</time>
      </trkpt>
      <trkpt lat="42.12486" lon="2.37972">
        <ele>1415.1</ele>
        <time>2019-01-18T02:51:02Z</time>
      </trkpt>
      <trkpt lat="42.12484" lon="2.37977">
        <ele>1415.8</ele>
        <time>2019-01-18T02:51:06Z</time>
      </trkpt>
      <trkpt lat="42.12482" lon="2.3798">
        <ele>1415.5</ele>
        <time>2019-01-18T02:51:09Z</time>
      </trkpt>
      <trkpt lat="42.12478" lon="2.37987">
        <ele>1416.2</ele>
        <time>2019-01-18T02:51:13Z</time>
      </trkpt>
      <trkpt lat="42.12475" lon="2.37991">
        <ele>1416.8</ele>
        <time>2019-01-18T02:51:17Z</time>
      </trkpt>
      <trkpt lat="42.12473" lon="2.37995">
        <ele>1417.4</ele>
        <time>2019-01-18T02:51:20Z</time>
      </trkpt>
      <trkpt lat="42.12469" lon="2.37998">
        <ele>1417.5</ele>
        <time>2019-01-18T02:51:23Z</time>
      </trkpt>
      <trkpt lat="42.12466" lon="2.38001">
        <ele>1418</ele>
        <time>2019-01-18T02:51:27Z</time>
      </trkpt>
      <trkpt lat="42.12463" lon="2.38004">
        <ele>1418.2</ele>
        <time>2019-01-18T02:51:29Z</time>
      </trkpt>
      <trkpt lat="42.12459" lon="2.38005">
        <ele>1418.4</ele>
        <time>2019-01-18T02:51:32Z</time>
      </trkpt>
      <trkpt lat="42.12456" lon="2.38008">
        <ele>1418.8</ele>
        <time>2019-01-18T02:51:35Z</time>
      </trkpt>
      <trkpt lat="42.12452" lon="2.38011">
        <ele>1419.2</ele>
        <time>2019-01-18T02:51:39Z</time>
      </trkpt>
      <trkpt lat="42.12448" lon="2.38014">
        <ele>1419.3</ele>
        <time>2019-01-18T02:51:43Z</time>
      </trkpt>
      <trkpt lat="42.12446" lon="2.38017">
        <ele>1419.7</ele>
        <time>2019-01-18T02:51:45Z</time>
      </trkpt>
      <trkpt lat="42.12445" lon="2.38018">
        <ele>1420.2</ele>
        <time>2019-01-18T02:51:46Z</time>
      </trkpt>
      <trkpt lat="42.12444" lon="2.38018">
        <ele>1420.4</ele>
        <time>2019-01-18T02:51:47Z</time>
      </trkpt>
      <trkpt lat="42.12443" lon="2.38019">
        <ele>1420.5</ele>
        <time>2019-01-18T02:51:48Z</time>
      </trkpt>
      <trkpt lat="42.12441" lon="2.38021">
        <ele>1420.8</ele>
        <time>2019-01-18T02:51:50Z</time>
      </trkpt>
      <trkpt lat="42.1244" lon="2.38024">
        <ele>1420.6</ele>
        <time>2019-01-18T02:51:52Z</time>
      </trkpt>
      <trkpt lat="42.12439" lon="2.38026">
        <ele>1420.6</ele>
        <time>2019-01-18T02:51:54Z</time>
      </trkpt>
      <trkpt lat="42.12437" lon="2.38027">
        <ele>1420.8</ele>
        <time>2019-01-18T02:51:55Z</time>
      </trkpt>
      <trkpt lat="42.12435" lon="2.38031">
        <ele>1420.6</ele>
        <time>2019-01-18T02:51:58Z</time>
      </trkpt>
      <trkpt lat="42.12434" lon="2.38034">
        <ele>1420.4</ele>
        <time>2019-01-18T02:52:00Z</time>
      </trkpt>
      <trkpt lat="42.12434" lon="2.38034">
        <ele>1420.4</ele>
        <time>2019-01-18T02:52:00Z</time>
      </trkpt>
      <trkpt lat="42.12434" lon="2.38038">
        <ele>1419.9</ele>
        <time>2019-01-18T02:52:02Z</time>
      </trkpt>
      <trkpt lat="42.12433" lon="2.38042">
        <ele>1419.3</ele>
        <time>2019-01-18T02:52:05Z</time>
      </trkpt>
      <trkpt lat="42.12434" lon="2.38046">
        <ele>1418.5</ele>
        <time>2019-01-18T02:52:07Z</time>
      </trkpt>
      <trkpt lat="42.12433" lon="2.3805">
        <ele>1417.9</ele>
        <time>2019-01-18T02:52:10Z</time>
      </trkpt>
      <trkpt lat="42.12433" lon="2.38055">
        <ele>1417.1</ele>
        <time>2019-01-18T02:52:12Z</time>
      </trkpt>
      <trkpt lat="42.12432" lon="2.38057">
        <ele>1417</ele>
        <time>2019-01-18T02:52:14Z</time>
      </trkpt>
      <trkpt lat="42.12431" lon="2.3806">
        <ele>1417.4</ele>
        <time>2019-01-18T02:52:16Z</time>
      </trkpt>
      <trkpt lat="42.12429" lon="2.38062">
        <ele>1417.7</ele>
        <time>2019-01-18T02:52:17Z</time>
      </trkpt>
      <trkpt lat="42.12429" lon="2.38066">
        <ele>1417.5</ele>
        <time>2019-01-18T02:52:20Z</time>
      </trkpt>
      <trkpt lat="42.12427" lon="2.38069">
        <ele>1418</ele>
        <time>2019-01-18T02:52:22Z</time>
      </trkpt>
      <trkpt lat="42.12427" lon="2.38074">
        <ele>1418.3</ele>
        <time>2019-01-18T02:52:25Z</time>
      </trkpt>
      <trkpt lat="42.12428" lon="2.38078">
        <ele>1417.7</ele>
        <time>2019-01-18T02:52:28Z</time>
      </trkpt>
      <trkpt lat="42.12426" lon="2.38081">
        <ele>1418.4</ele>
        <time>2019-01-18T02:52:31Z</time>
      </trkpt>
      <trkpt lat="42.12425" lon="2.38085">
        <ele>1418.6</ele>
        <time>2019-01-18T02:52:33Z</time>
      </trkpt>
      <trkpt lat="42.12426" lon="2.3809">
        <ele>1418.8</ele>
        <time>2019-01-18T02:52:36Z</time>
      </trkpt>
      <trkpt lat="42.12426" lon="2.38096">
        <ele>1419.3</ele>
        <time>2019-01-18T02:52:39Z</time>
      </trkpt>
      <trkpt lat="42.12427" lon="2.381">
        <ele>1419.3</ele>
        <time>2019-01-18T02:52:42Z</time>
      </trkpt>
      <trkpt lat="42.12428" lon="2.38105">
        <ele>1419.9</ele>
        <time>2019-01-18T02:52:45Z</time>
      </trkpt>
      <trkpt lat="42.12429" lon="2.3811">
        <ele>1420.6</ele>
        <time>2019-01-18T02:52:48Z</time>
      </trkpt>
      <trkpt lat="42.1243" lon="2.38116">
        <ele>1420.8</ele>
        <time>2019-01-18T02:52:52Z</time>
      </trkpt>
      <trkpt lat="42.12433" lon="2.3812">
        <ele>1421</ele>
        <time>2019-01-18T02:52:55Z</time>
      </trkpt>
      <trkpt lat="42.12435" lon="2.38125">
        <ele>1420.7</ele>
        <time>2019-01-18T02:52:58Z</time>
      </trkpt>
      <trkpt lat="42.12437" lon="2.38129">
        <ele>1420.8</ele>
        <time>2019-01-18T02:53:01Z</time>
      </trkpt>
      <trkpt lat="42.12439" lon="2.38131">
        <ele>1421.1</ele>
        <time>2019-01-18T02:53:03Z</time>
      </trkpt>
      <trkpt lat="42.12442" lon="2.38133">
        <ele>1421.3</ele>
        <time>2019-01-18T02:53:06Z</time>
      </trkpt>
      <trkpt lat="42.12444" lon="2.38136">
        <ele>1422.1</ele>
        <time>2019-01-18T02:53:08Z</time>
      </trkpt>
      <trkpt lat="42.12446" lon="2.38138">
        <ele>1422.4</ele>
        <time>2019-01-18T02:53:10Z</time>
      </trkpt>
      <trkpt lat="42.12448" lon="2.38141">
        <ele>1422.5</ele>
        <time>2019-01-18T02:53:12Z</time>
      </trkpt>
      <trkpt lat="42.12448" lon="2.38144">
        <ele>1422.8</ele>
        <time>2019-01-18T02:53:14Z</time>
      </trkpt>
      <trkpt lat="42.12449" lon="2.38147">
        <ele>1423</ele>
        <time>2019-01-18T02:53:16Z</time>
      </trkpt>
      <trkpt lat="42.1245" lon="2.38151">
        <ele>1423.1</ele>
        <time>2019-01-18T02:53:18Z</time>
      </trkpt>
      <trkpt lat="42.1245" lon="2.38154">
        <ele>1423.2</ele>
        <time>2019-01-18T02:53:20Z</time>
      </trkpt>
      <trkpt lat="42.12452" lon="2.38158">
        <ele>1422.8</ele>
        <time>2019-01-18T02:53:23Z</time>
      </trkpt>
      <trkpt lat="42.12451" lon="2.38162">
        <ele>1422.8</ele>
        <time>2019-01-18T02:53:26Z</time>
      </trkpt>
      <trkpt lat="42.12452" lon="2.38165">
        <ele>1422.7</ele>
        <time>2019-01-18T02:53:28Z</time>
      </trkpt>
      <trkpt lat="42.12453" lon="2.3817">
        <ele>1422.8</ele>
        <time>2019-01-18T02:53:31Z</time>
      </trkpt>
      <trkpt lat="42.12453" lon="2.38174">
        <ele>1423.1</ele>
        <time>2019-01-18T02:53:33Z</time>
      </trkpt>
      <trkpt lat="42.12454" lon="2.38177">
        <ele>1423.2</ele>
        <time>2019-01-18T02:53:35Z</time>
      </trkpt>
      <trkpt lat="42.12454" lon="2.38183">
        <ele>1423.3</ele>
        <time>2019-01-18T02:53:38Z</time>
      </trkpt>
      <trkpt lat="42.12455" lon="2.38188">
        <ele>1423</ele>
        <time>2019-01-18T02:53:42Z</time>
      </trkpt>
      <trkpt lat="42.12455" lon="2.38193">
        <ele>1423.1</ele>
        <time>2019-01-18T02:53:44Z</time>
      </trkpt>
      <trkpt lat="42.12455" lon="2.38197">
        <ele>1423.2</ele>
        <time>2019-01-18T02:53:47Z</time>
      </trkpt>
      <trkpt lat="42.12455" lon="2.38202">
        <ele>1423.9</ele>
        <time>2019-01-18T02:53:50Z</time>
      </trkpt>
      <trkpt lat="42.12456" lon="2.38209">
        <ele>1423.9</ele>
        <time>2019-01-18T02:53:54Z</time>
      </trkpt>
      <trkpt lat="42.12457" lon="2.38212">
        <ele>1424.6</ele>
        <time>2019-01-18T02:53:56Z</time>
      </trkpt>
      <trkpt lat="42.12458" lon="2.38218">
        <ele>1424.9</ele>
        <time>2019-01-18T02:54:00Z</time>
      </trkpt>
      <trkpt lat="42.12461" lon="2.38223">
        <ele>1424.9</ele>
        <time>2019-01-18T02:54:04Z</time>
      </trkpt>
      <trkpt lat="42.12462" lon="2.38228">
        <ele>1425.2</ele>
        <time>2019-01-18T02:54:07Z</time>
      </trkpt>
      <trkpt lat="42.12463" lon="2.38233">
        <ele>1425.3</ele>
        <time>2019-01-18T02:54:10Z</time>
      </trkpt>
      <trkpt lat="42.12467" lon="2.38237">
        <ele>1425.9</ele>
        <time>2019-01-18T02:54:14Z</time>
      </trkpt>
      <trkpt lat="42.12469" lon="2.38241">
        <ele>1426.5</ele>
        <time>2019-01-18T02:54:17Z</time>
      </trkpt>
      <trkpt lat="42.12473" lon="2.38245">
        <ele>1427.2</ele>
        <time>2019-01-18T02:54:20Z</time>
      </trkpt>
      <trkpt lat="42.12476" lon="2.38248">
        <ele>1427.7</ele>
        <time>2019-01-18T02:54:23Z</time>
      </trkpt>
      <trkpt lat="42.12478" lon="2.38252">
        <ele>1428.3</ele>
        <time>2019-01-18T02:54:26Z</time>
      </trkpt>
      <trkpt lat="42.12482" lon="2.38256">
        <ele>1428.9</ele>
        <time>2019-01-18T02:54:30Z</time>
      </trkpt>
      <trkpt lat="42.12485" lon="2.38259">
        <ele>1429</ele>
        <time>2019-01-18T02:54:33Z</time>
      </trkpt>
      <trkpt lat="42.12489" lon="2.38261">
        <ele>1429</ele>
        <time>2019-01-18T02:54:37Z</time>
      </trkpt>
      <trkpt lat="42.12495" lon="2.38264">
        <ele>1429.5</ele>
        <time>2019-01-18T02:54:41Z</time>
      </trkpt>
      <trkpt lat="42.12497" lon="2.38268">
        <ele>1430.1</ele>
        <time>2019-01-18T02:54:44Z</time>
      </trkpt>
      <trkpt lat="42.125" lon="2.38271">
        <ele>1430.6</ele>
        <time>2019-01-18T02:54:47Z</time>
      </trkpt>
      <trkpt lat="42.12502" lon="2.38274">
        <ele>1431</ele>
        <time>2019-01-18T02:54:50Z</time>
      </trkpt>
      <trkpt lat="42.12506" lon="2.38277">
        <ele>1431.4</ele>
        <time>2019-01-18T02:54:54Z</time>
      </trkpt>
      <trkpt lat="42.12509" lon="2.38279">
        <ele>1431.8</ele>
        <time>2019-01-18T02:54:56Z</time>
      </trkpt>
      <trkpt lat="42.1251" lon="2.38282">
        <ele>1432.1</ele>
        <time>2019-01-18T02:54:58Z</time>
      </trkpt>
      <trkpt lat="42.12513" lon="2.38285">
        <ele>1432.7</ele>
        <time>2019-01-18T02:55:01Z</time>
      </trkpt>
      <trkpt lat="42.12516" lon="2.38286">
        <ele>1432.7</ele>
        <time>2019-01-18T02:55:03Z</time>
      </trkpt>
      <trkpt lat="42.12519" lon="2.38289">
        <ele>1432.6</ele>
        <time>2019-01-18T02:55:06Z</time>
      </trkpt>
      <trkpt lat="42.1252" lon="2.38293">
        <ele>1433.1</ele>
        <time>2019-01-18T02:55:08Z</time>
      </trkpt>
      <trkpt lat="42.12522" lon="2.38296">
        <ele>1433.8</ele>
        <time>2019-01-18T02:55:11Z</time>
      </trkpt>
      <trkpt lat="42.12525" lon="2.383">
        <ele>1434.2</ele>
        <time>2019-01-18T02:55:14Z</time>
      </trkpt>
      <trkpt lat="42.12528" lon="2.38304">
        <ele>1434.1</ele>
        <time>2019-01-18T02:55:17Z</time>
      </trkpt>
      <trkpt lat="42.12527" lon="2.38308">
        <ele>1435.3</ele>
        <time>2019-01-18T02:55:20Z</time>
      </trkpt>
      <trkpt lat="42.12529" lon="2.38311">
        <ele>1435.6</ele>
        <time>2019-01-18T02:55:23Z</time>
      </trkpt>
      <trkpt lat="42.12533" lon="2.38315">
        <ele>1435.7</ele>
        <time>2019-01-18T02:55:26Z</time>
      </trkpt>
      <trkpt lat="42.12535" lon="2.38318">
        <ele>1436</ele>
        <time>2019-01-18T02:55:29Z</time>
      </trkpt>
      <trkpt lat="42.12536" lon="2.3832">
        <ele>1436.7</ele>
        <time>2019-01-18T02:55:30Z</time>
      </trkpt>
      <trkpt lat="42.12538" lon="2.38324">
        <ele>1437.2</ele>
        <time>2019-01-18T02:55:33Z</time>
      </trkpt>
      <trkpt lat="42.12541" lon="2.38327">
        <ele>1436.9</ele>
        <time>2019-01-18T02:55:37Z</time>
      </trkpt>
      <trkpt lat="42.12545" lon="2.38331">
        <ele>1436.3</ele>
        <time>2019-01-18T02:55:40Z</time>
      </trkpt>
      <trkpt lat="42.12548" lon="2.38334">
        <ele>1436.6</ele>
        <time>2019-01-18T02:55:43Z</time>
      </trkpt>
      <trkpt lat="42.1255" lon="2.38338">
        <ele>1436.9</ele>
        <time>2019-01-18T02:55:46Z</time>
      </trkpt>
      <trkpt lat="42.12556" lon="2.38418">
        <ele>1465.1</ele>
        <time>2019-01-18T02:56:34Z</time>
      </trkpt>
      <trkpt lat="42.12553" lon="2.38424">
        <ele>1465.9</ele>
        <time>2019-01-18T02:56:38Z</time>
      </trkpt>
      <trkpt lat="42.1255" lon="2.3843">
        <ele>1466.8</ele>
        <time>2019-01-18T02:56:43Z</time>
      </trkpt>
      <trkpt lat="42.12548" lon="2.38436">
        <ele>1468.1</ele>
        <time>2019-01-18T02:56:47Z</time>
      </trkpt>
      <trkpt lat="42.12545" lon="2.38444">
        <ele>1469.2</ele>
        <time>2019-01-18T02:56:51Z</time>
      </trkpt>
      <trkpt lat="42.12544" lon="2.38451">
        <ele>1470.3</ele>
        <time>2019-01-18T02:56:56Z</time>
      </trkpt>
      <trkpt lat="42.12544" lon="2.38459">
        <ele>1471.4</ele>
        <time>2019-01-18T02:57:00Z</time>
      </trkpt>
      <trkpt lat="42.12547" lon="2.38464">
        <ele>1472.4</ele>
        <time>2019-01-18T02:57:05Z</time>
      </trkpt>
      <trkpt lat="42.12546" lon="2.38472">
        <ele>1473.1</ele>
        <time>2019-01-18T02:57:09Z</time>
      </trkpt>
      <trkpt lat="42.12542" lon="2.38478">
        <ele>1473.5</ele>
        <time>2019-01-18T02:57:14Z</time>
      </trkpt>
      <trkpt lat="42.12539" lon="2.38484">
        <ele>1474.6</ele>
        <time>2019-01-18T02:57:18Z</time>
      </trkpt>
      <trkpt lat="42.12537" lon="2.38491">
        <ele>1475.3</ele>
        <time>2019-01-18T02:57:22Z</time>
      </trkpt>
      <trkpt lat="42.12534" lon="2.38497">
        <ele>1475.4</ele>
        <time>2019-01-18T02:57:27Z</time>
      </trkpt>
      <trkpt lat="42.12534" lon="2.38504">
        <ele>1476</ele>
        <time>2019-01-18T02:57:31Z</time>
      </trkpt>
      <trkpt lat="42.12533" lon="2.3851">
        <ele>1476.3</ele>
        <time>2019-01-18T02:57:35Z</time>
      </trkpt>
      <trkpt lat="42.12532" lon="2.38517">
        <ele>1477.1</ele>
        <time>2019-01-18T02:57:39Z</time>
      </trkpt>
      <trkpt lat="42.12531" lon="2.38523">
        <ele>1477.7</ele>
        <time>2019-01-18T02:57:43Z</time>
      </trkpt>
      <trkpt lat="42.1253" lon="2.3853">
        <ele>1478.6</ele>
        <time>2019-01-18T02:57:47Z</time>
      </trkpt>
      <trkpt lat="42.1253" lon="2.38536">
        <ele>1479.4</ele>
        <time>2019-01-18T02:57:51Z</time>
      </trkpt>
      <trkpt lat="42.1253" lon="2.38544">
        <ele>1479.9</ele>
        <time>2019-01-18T02:57:55Z</time>
      </trkpt>
      <trkpt lat="42.12529" lon="2.38552">
        <ele>1480.6</ele>
        <time>2019-01-18T02:58:00Z</time>
      </trkpt>
      <trkpt lat="42.12531" lon="2.38559">
        <ele>1482.1</ele>
        <time>2019-01-18T02:58:05Z</time>
      </trkpt>
      <trkpt lat="42.1253" lon="2.38567">
        <ele>1484</ele>
        <time>2019-01-18T02:58:09Z</time>
      </trkpt>
      <trkpt lat="42.12531" lon="2.38573">
        <ele>1485.9</ele>
        <time>2019-01-18T02:58:13Z</time>
      </trkpt>
      <trkpt lat="42.12533" lon="2.38579">
        <ele>1487</ele>
        <time>2019-01-18T02:58:17Z</time>
      </trkpt>
      <trkpt lat="42.12535" lon="2.38585">
        <ele>1488.5</ele>
        <time>2019-01-18T02:58:21Z</time>
      </trkpt>
      <trkpt lat="42.1254" lon="2.38589">
        <ele>1489.6</ele>
        <time>2019-01-18T02:58:25Z</time>
      </trkpt>
      <trkpt lat="42.12544" lon="2.38595">
        <ele>1490.9</ele>
        <time>2019-01-18T02:58:30Z</time>
      </trkpt>
      <trkpt lat="42.12546" lon="2.38601">
        <ele>1491.4</ele>
        <time>2019-01-18T02:58:34Z</time>
      </trkpt>
      <trkpt lat="42.12546" lon="2.38607">
        <ele>1491.9</ele>
        <time>2019-01-18T02:58:38Z</time>
      </trkpt>
      <trkpt lat="42.12542" lon="2.38613">
        <ele>1492.8</ele>
        <time>2019-01-18T02:58:42Z</time>
      </trkpt>
      <trkpt lat="42.12538" lon="2.38617">
        <ele>1493.7</ele>
        <time>2019-01-18T02:58:46Z</time>
      </trkpt>
      <trkpt lat="42.12532" lon="2.38618">
        <ele>1494.5</ele>
        <time>2019-01-18T02:58:50Z</time>
      </trkpt>
      <trkpt lat="42.12527" lon="2.38618">
        <ele>1495.3</ele>
        <time>2019-01-18T02:58:55Z</time>
      </trkpt>
      <trkpt lat="42.12522" lon="2.38618">
        <ele>1495.7</ele>
        <time>2019-01-18T02:58:59Z</time>
      </trkpt>
      <trkpt lat="42.12517" lon="2.38616">
        <ele>1496.1</ele>
        <time>2019-01-18T02:59:03Z</time>
      </trkpt>
      <trkpt lat="42.12513" lon="2.38613">
        <ele>1496.8</ele>
        <time>2019-01-18T02:59:07Z</time>
      </trkpt>
      <trkpt lat="42.12509" lon="2.38608">
        <ele>1497.4</ele>
        <time>2019-01-18T02:59:11Z</time>
      </trkpt>
      <trkpt lat="42.12506" lon="2.38604">
        <ele>1498.4</ele>
        <time>2019-01-18T02:59:15Z</time>
      </trkpt>
      <trkpt lat="42.12503" lon="2.38599">
        <ele>1498.7</ele>
        <time>2019-01-18T02:59:19Z</time>
      </trkpt>
      <trkpt lat="42.12501" lon="2.38593">
        <ele>1498.4</ele>
        <time>2019-01-18T02:59:22Z</time>
      </trkpt>
      <trkpt lat="42.12501" lon="2.38586">
        <ele>1498</ele>
        <time>2019-01-18T02:59:26Z</time>
      </trkpt>
      <trkpt lat="42.12499" lon="2.3858">
        <ele>1498.5</ele>
        <time>2019-01-18T02:59:30Z</time>
      </trkpt>
      <trkpt lat="42.12496" lon="2.38574">
        <ele>1499.7</ele>
        <time>2019-01-18T02:59:34Z</time>
      </trkpt>
      <trkpt lat="42.12493" lon="2.3857">
        <ele>1500.3</ele>
        <time>2019-01-18T02:59:38Z</time>
      </trkpt>
      <trkpt lat="42.12489" lon="2.38566">
        <ele>1501.3</ele>
        <time>2019-01-18T02:59:42Z</time>
      </trkpt>
      <trkpt lat="42.12485" lon="2.38561">
        <ele>1502.9</ele>
        <time>2019-01-18T02:59:46Z</time>
      </trkpt>
      <trkpt lat="42.12483" lon="2.38555">
        <ele>1504.3</ele>
        <time>2019-01-18T02:59:50Z</time>
      </trkpt>
      <trkpt lat="42.12478" lon="2.38552">
        <ele>1505.1</ele>
        <time>2019-01-18T02:59:54Z</time>
      </trkpt>
      <trkpt lat="42.12474" lon="2.38555">
        <ele>1505.7</ele>
        <time>2019-01-18T02:59:58Z</time>
      </trkpt>
      <trkpt lat="42.12469" lon="2.38558">
        <ele>1507</ele>
        <time>2019-01-18T03:00:02Z</time>
      </trkpt>
      <trkpt lat="42.12464" lon="2.38561">
        <ele>1508.2</ele>
        <time>2019-01-18T03:00:07Z</time>
      </trkpt>
      <trkpt lat="42.1246" lon="2.38565">
        <ele>1508.7</ele>
        <time>2019-01-18T03:00:11Z</time>
      </trkpt>
      <trkpt lat="42.12455" lon="2.38569">
        <ele>1510.2</ele>
        <time>2019-01-18T03:00:15Z</time>
      </trkpt>
      <trkpt lat="42.12451" lon="2.38572">
        <ele>1512.1</ele>
        <time>2019-01-18T03:00:19Z</time>
      </trkpt>
      <trkpt lat="42.12446" lon="2.38575">
        <ele>1512.7</ele>
        <time>2019-01-18T03:00:23Z</time>
      </trkpt>
      <trkpt lat="42.12441" lon="2.38577">
        <ele>1512.7</ele>
        <time>2019-01-18T03:00:27Z</time>
      </trkpt>
      <trkpt lat="42.12436" lon="2.38578">
        <ele>1512.9</ele>
        <time>2019-01-18T03:00:31Z</time>
      </trkpt>
      <trkpt lat="42.1243" lon="2.3858">
        <ele>1513.7</ele>
        <time>2019-01-18T03:00:36Z</time>
      </trkpt>
      <trkpt lat="42.12436" lon="2.38581">
        <ele>1513.9</ele>
        <time>2019-01-18T03:00:41Z</time>
      </trkpt>
      <trkpt lat="42.12435" lon="2.38575">
        <ele>1514.7</ele>
        <time>2019-01-18T03:00:45Z</time>
      </trkpt>
      <trkpt lat="42.12432" lon="2.38581">
        <ele>1515</ele>
        <time>2019-01-18T03:00:49Z</time>
      </trkpt>
      <trkpt lat="42.12436" lon="2.38577">
        <ele>1514.9</ele>
        <time>2019-01-18T03:00:53Z</time>
      </trkpt>
      <trkpt lat="42.12432" lon="2.38578">
        <ele>1516.2</ele>
        <time>2019-01-18T03:00:56Z</time>
      </trkpt>
      <trkpt lat="42.12427" lon="2.38578">
        <ele>1516.6</ele>
        <time>2019-01-18T03:01:00Z</time>
      </trkpt>
      <trkpt lat="42.12423" lon="2.3858">
        <ele>1516.2</ele>
        <time>2019-01-18T03:01:04Z</time>
      </trkpt>
      <trkpt lat="42.1242" lon="2.38576">
        <ele>1515.6</ele>
        <time>2019-01-18T03:01:07Z</time>
      </trkpt>
      <trkpt lat="42.12422" lon="2.38571">
        <ele>1516.2</ele>
        <time>2019-01-18T03:01:11Z</time>
      </trkpt>
      <trkpt lat="42.12427" lon="2.38571">
        <ele>1516.4</ele>
        <time>2019-01-18T03:01:15Z</time>
      </trkpt>
      <trkpt lat="42.12432" lon="2.38573">
        <ele>1516.2</ele>
        <time>2019-01-18T03:01:19Z</time>
      </trkpt>
      <trkpt lat="42.12436" lon="2.38569">
        <ele>1515.6</ele>
        <time>2019-01-18T03:01:23Z</time>
      </trkpt>
      <trkpt lat="42.1244" lon="2.38566">
        <ele>1514.8</ele>
        <time>2019-01-18T03:01:27Z</time>
      </trkpt>
      <trkpt lat="42.12445" lon="2.38567">
        <ele>1515.4</ele>
        <time>2019-01-18T03:01:31Z</time>
      </trkpt>
      <trkpt lat="42.1245" lon="2.38569">
        <ele>1515.6</ele>
        <time>2019-01-18T03:01:34Z</time>
      </trkpt>
      <trkpt lat="42.12454" lon="2.38569">
        <ele>1515.6</ele>
        <time>2019-01-18T03:01:38Z</time>
      </trkpt>
      <trkpt lat="42.1246" lon="2.3857">
        <ele>1515.7</ele>
        <time>2019-01-18T03:01:42Z</time>
      </trkpt>
      <trkpt lat="42.12464" lon="2.38573">
        <ele>1515.7</ele>
        <time>2019-01-18T03:01:46Z</time>
      </trkpt>
      <trkpt lat="42.12468" lon="2.38576">
        <ele>1515.5</ele>
        <time>2019-01-18T03:01:50Z</time>
      </trkpt>
      <trkpt lat="42.12473" lon="2.38575">
        <ele>1513.8</ele>
        <time>2019-01-18T03:01:54Z</time>
      </trkpt>
      <trkpt lat="42.12477" lon="2.38579">
        <ele>1512.9</ele>
        <time>2019-01-18T03:01:58Z</time>
      </trkpt>
      <trkpt lat="42.1248" lon="2.38584">
        <ele>1511.9</ele>
        <time>2019-01-18T03:02:02Z</time>
      </trkpt>
      <trkpt lat="42.12485" lon="2.38588">
        <ele>1510</ele>
        <time>2019-01-18T03:02:06Z</time>
      </trkpt>
      <trkpt lat="42.12487" lon="2.38594">
        <ele>1507.4</ele>
        <time>2019-01-18T03:02:11Z</time>
      </trkpt>
      <trkpt lat="42.12492" lon="2.38597">
        <ele>1505.8</ele>
        <time>2019-01-18T03:02:15Z</time>
      </trkpt>
      <trkpt lat="42.12496" lon="2.38601">
        <ele>1504.6</ele>
        <time>2019-01-18T03:02:19Z</time>
      </trkpt>
      <trkpt lat="42.125" lon="2.38605">
        <ele>1503.4</ele>
        <time>2019-01-18T03:02:23Z</time>
      </trkpt>
      <trkpt lat="42.12503" lon="2.3861">
        <ele>1502.3</ele>
        <time>2019-01-18T03:02:27Z</time>
      </trkpt>
      <trkpt lat="42.12507" lon="2.38614">
        <ele>1500.8</ele>
        <time>2019-01-18T03:02:30Z</time>
      </trkpt>
      <trkpt lat="42.12512" lon="2.38616">
        <ele>1499.6</ele>
        <time>2019-01-18T03:02:35Z</time>
      </trkpt>
      <trkpt lat="42.12517" lon="2.38617">
        <ele>1498.9</ele>
        <time>2019-01-18T03:02:39Z</time>
      </trkpt>
      <trkpt lat="42.12522" lon="2.38619">
        <ele>1498.3</ele>
        <time>2019-01-18T03:02:43Z</time>
      </trkpt>
      <trkpt lat="42.12528" lon="2.3862">
        <ele>1497.7</ele>
        <time>2019-01-18T03:02:48Z</time>
      </trkpt>
      <trkpt lat="42.12533" lon="2.3862">
        <ele>1496.7</ele>
        <time>2019-01-18T03:02:52Z</time>
      </trkpt>
      <trkpt lat="42.12538" lon="2.38617">
        <ele>1496</ele>
        <time>2019-01-18T03:02:56Z</time>
      </trkpt>
      <trkpt lat="42.12542" lon="2.38615">
        <ele>1495.2</ele>
        <time>2019-01-18T03:03:00Z</time>
      </trkpt>
      <trkpt lat="42.12545" lon="2.3861">
        <ele>1495</ele>
        <time>2019-01-18T03:03:03Z</time>
      </trkpt>
      <trkpt lat="42.12547" lon="2.38604">
        <ele>1494.1</ele>
        <time>2019-01-18T03:03:07Z</time>
      </trkpt>
      <trkpt lat="42.12549" lon="2.38598">
        <ele>1493.4</ele>
        <time>2019-01-18T03:03:11Z</time>
      </trkpt>
      <trkpt lat="42.1255" lon="2.38604">
        <ele>1493.4</ele>
        <time>2019-01-18T03:03:15Z</time>
      </trkpt>
      <trkpt lat="42.1255" lon="2.38611">
        <ele>1493.4</ele>
        <time>2019-01-18T03:03:19Z</time>
      </trkpt>
      <trkpt lat="42.12549" lon="2.38618">
        <ele>1493.5</ele>
        <time>2019-01-18T03:03:23Z</time>
      </trkpt>
      <trkpt lat="42.12549" lon="2.38624">
        <ele>1493.6</ele>
        <time>2019-01-18T03:03:27Z</time>
      </trkpt>
      <trkpt lat="42.12548" lon="2.38631">
        <ele>1494</ele>
        <time>2019-01-18T03:03:31Z</time>
      </trkpt>
      <trkpt lat="42.1255" lon="2.38637">
        <ele>1494.3</ele>
        <time>2019-01-18T03:03:35Z</time>
      </trkpt>
      <trkpt lat="42.12552" lon="2.38644">
        <ele>1494.7</ele>
        <time>2019-01-18T03:03:39Z</time>
      </trkpt>
      <trkpt lat="42.12553" lon="2.3865">
        <ele>1496.1</ele>
        <time>2019-01-18T03:03:43Z</time>
      </trkpt>
      <trkpt lat="42.12554" lon="2.38656">
        <ele>1497.1</ele>
        <time>2019-01-18T03:03:47Z</time>
      </trkpt>
      <trkpt lat="42.12555" lon="2.38663">
        <ele>1498.7</ele>
        <time>2019-01-18T03:03:51Z</time>
      </trkpt>
      <trkpt lat="42.12552" lon="2.38668">
        <ele>1501.6</ele>
        <time>2019-01-18T03:03:54Z</time>
      </trkpt>
      <trkpt lat="42.12553" lon="2.38674">
        <ele>1503</ele>
        <time>2019-01-18T03:03:58Z</time>
      </trkpt>
      <trkpt lat="42.12551" lon="2.3868">
        <ele>1505</ele>
        <time>2019-01-18T03:04:02Z</time>
      </trkpt>
      <trkpt lat="42.1255" lon="2.38686">
        <ele>1506.2</ele>
        <time>2019-01-18T03:04:06Z</time>
      </trkpt>
      <trkpt lat="42.1255" lon="2.38692">
        <ele>1507.1</ele>
        <time>2019-01-18T03:04:09Z</time>
      </trkpt>
      <trkpt lat="42.12549" lon="2.38699">
        <ele>1508.3</ele>
        <time>2019-01-18T03:04:14Z</time>
      </trkpt>
      <trkpt lat="42.12548" lon="2.38705">
        <ele>1509.5</ele>
        <time>2019-01-18T03:04:17Z</time>
      </trkpt>
      <trkpt lat="42.12546" lon="2.38711">
        <ele>1511.6</ele>
        <time>2019-01-18T03:04:21Z</time>
      </trkpt>
      <trkpt lat="42.12544" lon="2.38718">
        <ele>1513.1</ele>
        <time>2019-01-18T03:04:26Z</time>
      </trkpt>
      <trkpt lat="42.12543" lon="2.38724">
        <ele>1515.6</ele>
        <time>2019-01-18T03:04:29Z</time>
      </trkpt>
      <trkpt lat="42.12541" lon="2.3873">
        <ele>1517.6</ele>
        <time>2019-01-18T03:04:33Z</time>
      </trkpt>
      <trkpt lat="42.12538" lon="2.38735">
        <ele>1519.9</ele>
        <time>2019-01-18T03:04:37Z</time>
      </trkpt>
      <trkpt lat="42.12536" lon="2.3874">
        <ele>1522.2</ele>
        <time>2019-01-18T03:04:41Z</time>
      </trkpt>
      <trkpt lat="42.12533" lon="2.38745">
        <ele>1524.1</ele>
        <time>2019-01-18T03:04:44Z</time>
      </trkpt>
      <trkpt lat="42.12529" lon="2.38749">
        <ele>1526.9</ele>
        <time>2019-01-18T03:04:48Z</time>
      </trkpt>
      <trkpt lat="42.12528" lon="2.38756">
        <ele>1529.3</ele>
        <time>2019-01-18T03:04:52Z</time>
      </trkpt>
      <trkpt lat="42.12527" lon="2.38762">
        <ele>1530.8</ele>
        <time>2019-01-18T03:04:56Z</time>
      </trkpt>
      <trkpt lat="42.12525" lon="2.38767">
        <ele>1532.1</ele>
        <time>2019-01-18T03:04:59Z</time>
      </trkpt>
      <trkpt lat="42.12524" lon="2.38774">
        <ele>1534.8</ele>
        <time>2019-01-18T03:05:03Z</time>
      </trkpt>
      <trkpt lat="42.12522" lon="2.3878">
        <ele>1536.5</ele>
        <time>2019-01-18T03:05:07Z</time>
      </trkpt>
      <trkpt lat="42.1252" lon="2.38786">
        <ele>1537.6</ele>
        <time>2019-01-18T03:05:11Z</time>
      </trkpt>
      <trkpt lat="42.12516" lon="2.38789">
        <ele>1537.5</ele>
        <time>2019-01-18T03:05:15Z</time>
      </trkpt>
      <trkpt lat="42.12514" lon="2.38794">
        <ele>1537.4</ele>
        <time>2019-01-18T03:05:18Z</time>
      </trkpt>
      <trkpt lat="42.12519" lon="2.38794">
        <ele>1536.5</ele>
        <time>2019-01-18T03:05:22Z</time>
      </trkpt>
      <trkpt lat="42.12523" lon="2.38793">
        <ele>1536.1</ele>
        <time>2019-01-18T03:05:26Z</time>
      </trkpt>
      <trkpt lat="42.12528" lon="2.38789">
        <ele>1534.9</ele>
        <time>2019-01-18T03:05:30Z</time>
      </trkpt>
      <trkpt lat="42.12533" lon="2.38789">
        <ele>1533.6</ele>
        <time>2019-01-18T03:05:34Z</time>
      </trkpt>
      <trkpt lat="42.12537" lon="2.38791">
        <ele>1532.4</ele>
        <time>2019-01-18T03:05:38Z</time>
      </trkpt>
      <trkpt lat="42.12542" lon="2.38791">
        <ele>1531</ele>
        <time>2019-01-18T03:05:42Z</time>
      </trkpt>
      <trkpt lat="42.12548" lon="2.38792">
        <ele>1529.3</ele>
        <time>2019-01-18T03:05:46Z</time>
      </trkpt>
      <trkpt lat="42.12552" lon="2.38792">
        <ele>1528.1</ele>
        <time>2019-01-18T03:05:50Z</time>
      </trkpt>
      <trkpt lat="42.12556" lon="2.38795">
        <ele>1526.9</ele>
        <time>2019-01-18T03:05:54Z</time>
      </trkpt>
      <trkpt lat="42.12559" lon="2.388">
        <ele>1525.8</ele>
        <time>2019-01-18T03:05:57Z</time>
      </trkpt>
      <trkpt lat="42.12564" lon="2.388">
        <ele>1524.5</ele>
        <time>2019-01-18T03:06:01Z</time>
      </trkpt>
      <trkpt lat="42.12568" lon="2.38802">
        <ele>1522.8</ele>
        <time>2019-01-18T03:06:05Z</time>
      </trkpt>
      <trkpt lat="42.12572" lon="2.38805">
        <ele>1521.5</ele>
        <time>2019-01-18T03:06:08Z</time>
      </trkpt>
      <trkpt lat="42.12577" lon="2.38806">
        <ele>1519.9</ele>
        <time>2019-01-18T03:06:12Z</time>
      </trkpt>
      <trkpt lat="42.12581" lon="2.38802">
        <ele>1518.1</ele>
        <time>2019-01-18T03:06:16Z</time>
      </trkpt>
      <trkpt lat="42.12586" lon="2.38803">
        <ele>1515.7</ele>
        <time>2019-01-18T03:06:20Z</time>
      </trkpt>
      <trkpt lat="42.12591" lon="2.38803">
        <ele>1514.3</ele>
        <time>2019-01-18T03:06:24Z</time>
      </trkpt>
      <trkpt lat="42.12595" lon="2.38804">
        <ele>1512</ele>
        <time>2019-01-18T03:06:27Z</time>
      </trkpt>
      <trkpt lat="42.126" lon="2.38804">
        <ele>1508.8</ele>
        <time>2019-01-18T03:06:31Z</time>
      </trkpt>
      <trkpt lat="42.12604" lon="2.38807">
        <ele>1507.8</ele>
        <time>2019-01-18T03:06:35Z</time>
      </trkpt>
      <trkpt lat="42.12609" lon="2.38808">
        <ele>1507.2</ele>
        <time>2019-01-18T03:06:39Z</time>
      </trkpt>
      <trkpt lat="42.12614" lon="2.38812">
        <ele>1506.8</ele>
        <time>2019-01-18T03:06:43Z</time>
      </trkpt>
      <trkpt lat="42.12616" lon="2.38817">
        <ele>1506.6</ele>
        <time>2019-01-18T03:06:47Z</time>
      </trkpt>
      <trkpt lat="42.12622" lon="2.38817">
        <ele>1506.7</ele>
        <time>2019-01-18T03:06:51Z</time>
      </trkpt>
      <trkpt lat="42.12627" lon="2.38816">
        <ele>1506.9</ele>
        <time>2019-01-18T03:06:56Z</time>
      </trkpt>
      <trkpt lat="42.12632" lon="2.38814">
        <ele>1506.8</ele>
        <time>2019-01-18T03:07:00Z</time>
      </trkpt>
      <trkpt lat="42.12638" lon="2.38814">
        <ele>1506.7</ele>
        <time>2019-01-18T03:07:04Z</time>
      </trkpt>
      <trkpt lat="42.12643" lon="2.38814">
        <ele>1506.5</ele>
        <time>2019-01-18T03:07:08Z</time>
      </trkpt>
      <trkpt lat="42.12648" lon="2.38812">
        <ele>1506.6</ele>
        <time>2019-01-18T03:07:12Z</time>
      </trkpt>
      <trkpt lat="42.12653" lon="2.38815">
        <ele>1506.4</ele>
        <time>2019-01-18T03:07:17Z</time>
      </trkpt>
      <trkpt lat="42.12658" lon="2.38813">
        <ele>1506.3</ele>
        <time>2019-01-18T03:07:22Z</time>
      </trkpt>
      <trkpt lat="42.12664" lon="2.38813">
        <ele>1506.1</ele>
        <time>2019-01-18T03:07:26Z</time>
      </trkpt>
      <trkpt lat="42.12669" lon="2.38814">
        <ele>1506.1</ele>
        <time>2019-01-18T03:07:30Z</time>
      </trkpt>
      <trkpt lat="42.12674" lon="2.38814">
        <ele>1506.2</ele>
        <time>2019-01-18T03:07:34Z</time>
      </trkpt>
      <trkpt lat="42.12679" lon="2.38815">
        <ele>1506</ele>
        <time>2019-01-18T03:07:38Z</time>
      </trkpt>
      <trkpt lat="42.12683" lon="2.38817">
        <ele>1506.4</ele>
        <time>2019-01-18T03:07:42Z</time>
      </trkpt>
      <trkpt lat="42.12689" lon="2.38818">
        <ele>1506.1</ele>
        <time>2019-01-18T03:07:46Z</time>
      </trkpt>
      <trkpt lat="42.12694" lon="2.38818">
        <ele>1505.9</ele>
        <time>2019-01-18T03:07:50Z</time>
      </trkpt>
      <trkpt lat="42.12699" lon="2.38821">
        <ele>1505.9</ele>
        <time>2019-01-18T03:07:55Z</time>
      </trkpt>
      <trkpt lat="42.12704" lon="2.38823">
        <ele>1506.1</ele>
        <time>2019-01-18T03:07:58Z</time>
      </trkpt>
      <trkpt lat="42.12708" lon="2.38825">
        <ele>1505.4</ele>
        <time>2019-01-18T03:08:02Z</time>
      </trkpt>
      <trkpt lat="42.12713" lon="2.38827">
        <ele>1504.6</ele>
        <time>2019-01-18T03:08:06Z</time>
      </trkpt>
      <trkpt lat="42.12717" lon="2.3883">
        <ele>1504.6</ele>
        <time>2019-01-18T03:08:10Z</time>
      </trkpt>
      <trkpt lat="42.12721" lon="2.38831">
        <ele>1504.4</ele>
        <time>2019-01-18T03:08:14Z</time>
      </trkpt>
      <trkpt lat="42.12726" lon="2.38831">
        <ele>1503.7</ele>
        <time>2019-01-18T03:08:17Z</time>
      </trkpt>
      <trkpt lat="42.1273" lon="2.38833">
        <ele>1502.6</ele>
        <time>2019-01-18T03:08:21Z</time>
      </trkpt>
      <trkpt lat="42.12734" lon="2.38835">
        <ele>1502</ele>
        <time>2019-01-18T03:08:24Z</time>
      </trkpt>
      <trkpt lat="42.12739" lon="2.38836">
        <ele>1500.7</ele>
        <time>2019-01-18T03:08:28Z</time>
      </trkpt>
      <trkpt lat="42.12745" lon="2.38838">
        <ele>1500.1</ele>
        <time>2019-01-18T03:08:33Z</time>
      </trkpt>
      <trkpt lat="42.12749" lon="2.38842">
        <ele>1500</ele>
        <time>2019-01-18T03:08:37Z</time>
      </trkpt>
      <trkpt lat="42.12753" lon="2.38846">
        <ele>1499.9</ele>
        <time>2019-01-18T03:08:41Z</time>
      </trkpt>
      <trkpt lat="42.12757" lon="2.38851">
        <ele>1499.8</ele>
        <time>2019-01-18T03:08:46Z</time>
      </trkpt>
      <trkpt lat="42.12761" lon="2.38855">
        <ele>1499.9</ele>
        <time>2019-01-18T03:08:50Z</time>
      </trkpt>
      <trkpt lat="42.12765" lon="2.38859">
        <ele>1499.7</ele>
        <time>2019-01-18T03:08:54Z</time>
      </trkpt>
      <trkpt lat="42.12769" lon="2.38863">
        <ele>1499.6</ele>
        <time>2019-01-18T03:08:58Z</time>
      </trkpt>
      <trkpt lat="42.12773" lon="2.38866">
        <ele>1499.3</ele>
        <time>2019-01-18T03:09:02Z</time>
      </trkpt>
      <trkpt lat="42.12778" lon="2.3887">
        <ele>1499</ele>
        <time>2019-01-18T03:09:06Z</time>
      </trkpt>
      <trkpt lat="42.1278" lon="2.38876">
        <ele>1499.2</ele>
        <time>2019-01-18T03:09:10Z</time>
      </trkpt>
      <trkpt lat="42.12783" lon="2.38881">
        <ele>1499.3</ele>
        <time>2019-01-18T03:09:14Z</time>
      </trkpt>
      <trkpt lat="42.12788" lon="2.38885">
        <ele>1499.2</ele>
        <time>2019-01-18T03:09:18Z</time>
      </trkpt>
      <trkpt lat="42.12791" lon="2.3889">
        <ele>1499.4</ele>
        <time>2019-01-18T03:09:22Z</time>
      </trkpt>
      <trkpt lat="42.12793" lon="2.38896">
        <ele>1499.5</ele>
        <time>2019-01-18T03:09:26Z</time>
      </trkpt>
      <trkpt lat="42.12797" lon="2.38902">
        <ele>1499.7</ele>
        <time>2019-01-18T03:09:31Z</time>
      </trkpt>
      <trkpt lat="42.12799" lon="2.38908">
        <ele>1499.6</ele>
        <time>2019-01-18T03:09:35Z</time>
      </trkpt>
      <trkpt lat="42.12801" lon="2.38914">
        <ele>1499.3</ele>
        <time>2019-01-18T03:09:38Z</time>
      </trkpt>
      <trkpt lat="42.12803" lon="2.3892">
        <ele>1499</ele>
        <time>2019-01-18T03:09:42Z</time>
      </trkpt>
      <trkpt lat="42.12806" lon="2.38926">
        <ele>1498.5</ele>
        <time>2019-01-18T03:09:47Z</time>
      </trkpt>
      <trkpt lat="42.12807" lon="2.38932">
        <ele>1498.2</ele>
        <time>2019-01-18T03:09:51Z</time>
      </trkpt>
      <trkpt lat="42.1281" lon="2.38939">
        <ele>1498.1</ele>
        <time>2019-01-18T03:09:55Z</time>
      </trkpt>
      <trkpt lat="42.12812" lon="2.38945">
        <ele>1497.9</ele>
        <time>2019-01-18T03:09:59Z</time>
      </trkpt>
      <trkpt lat="42.12813" lon="2.38952">
        <ele>1497.3</ele>
        <time>2019-01-18T03:10:04Z</time>
      </trkpt>
      <trkpt lat="42.12818" lon="2.38957">
        <ele>1496.8</ele>
        <time>2019-01-18T03:10:08Z</time>
      </trkpt>
      <trkpt lat="42.12822" lon="2.3896">
        <ele>1496.2</ele>
        <time>2019-01-18T03:10:12Z</time>
      </trkpt>
      <trkpt lat="42.12826" lon="2.38964">
        <ele>1496.3</ele>
        <time>2019-01-18T03:10:16Z</time>
      </trkpt>
      <trkpt lat="42.1283" lon="2.38966">
        <ele>1496.2</ele>
        <time>2019-01-18T03:10:20Z</time>
      </trkpt>
      <trkpt lat="42.12834" lon="2.38971">
        <ele>1496.3</ele>
        <time>2019-01-18T03:10:24Z</time>
      </trkpt>
      <trkpt lat="42.12838" lon="2.38976">
        <ele>1496.4</ele>
        <time>2019-01-18T03:10:28Z</time>
      </trkpt>
      <trkpt lat="42.12842" lon="2.38979">
        <ele>1496</ele>
        <time>2019-01-18T03:10:32Z</time>
      </trkpt>
      <trkpt lat="42.12846" lon="2.38982">
        <ele>1496</ele>
        <time>2019-01-18T03:10:36Z</time>
      </trkpt>
      <trkpt lat="42.1285" lon="2.38987">
        <ele>1496</ele>
        <time>2019-01-18T03:10:40Z</time>
      </trkpt>
      <trkpt lat="42.12854" lon="2.38991">
        <ele>1495.8</ele>
        <time>2019-01-18T03:10:44Z</time>
      </trkpt>
      <trkpt lat="42.12858" lon="2.38993">
        <ele>1495.8</ele>
        <time>2019-01-18T03:10:47Z</time>
      </trkpt>
      <trkpt lat="42.12862" lon="2.38997">
        <ele>1495.6</ele>
        <time>2019-01-18T03:10:51Z</time>
      </trkpt>
      <trkpt lat="42.12867" lon="2.39">
        <ele>1495.5</ele>
        <time>2019-01-18T03:10:55Z</time>
      </trkpt>
      <trkpt lat="42.12871" lon="2.39005">
        <ele>1495.4</ele>
        <time>2019-01-18T03:11:00Z</time>
      </trkpt>
      <trkpt lat="42.12874" lon="2.39009">
        <ele>1495.4</ele>
        <time>2019-01-18T03:11:03Z</time>
      </trkpt>
      <trkpt lat="42.12879" lon="2.39011">
        <ele>1495.5</ele>
        <time>2019-01-18T03:11:08Z</time>
      </trkpt>
      <trkpt lat="42.12885" lon="2.39014">
        <ele>1495.8</ele>
        <time>2019-01-18T03:11:12Z</time>
      </trkpt>
      <trkpt lat="42.12889" lon="2.39017">
        <ele>1495.9</ele>
        <time>2019-01-18T03:11:16Z</time>
      </trkpt>
      <trkpt lat="42.12893" lon="2.39022">
        <ele>1496.3</ele>
        <time>2019-01-18T03:11:21Z</time>
      </trkpt>
      <trkpt lat="42.12895" lon="2.39028">
        <ele>1496.8</ele>
        <time>2019-01-18T03:11:25Z</time>
      </trkpt>
      <trkpt lat="42.12899" lon="2.39035">
        <ele>1497.2</ele>
        <time>2019-01-18T03:11:29Z</time>
      </trkpt>
      <trkpt lat="42.12902" lon="2.39041">
        <ele>1497.4</ele>
        <time>2019-01-18T03:11:34Z</time>
      </trkpt>
      <trkpt lat="42.12905" lon="2.39045">
        <ele>1497.7</ele>
        <time>2019-01-18T03:11:38Z</time>
      </trkpt>
      <trkpt lat="42.12909" lon="2.39049">
        <ele>1497.9</ele>
        <time>2019-01-18T03:11:42Z</time>
      </trkpt>
      <trkpt lat="42.12913" lon="2.39053">
        <ele>1498.3</ele>
        <time>2019-01-18T03:11:45Z</time>
      </trkpt>
      <trkpt lat="42.12916" lon="2.39058">
        <ele>1498.7</ele>
        <time>2019-01-18T03:11:49Z</time>
      </trkpt>
      <trkpt lat="42.1292" lon="2.39064">
        <ele>1499.3</ele>
        <time>2019-01-18T03:11:54Z</time>
      </trkpt>
      <trkpt lat="42.12923" lon="2.39069">
        <ele>1499.7</ele>
        <time>2019-01-18T03:11:58Z</time>
      </trkpt>
      <trkpt lat="42.12926" lon="2.39075">
        <ele>1500.1</ele>
        <time>2019-01-18T03:12:02Z</time>
      </trkpt>
      <trkpt lat="42.12929" lon="2.39079">
        <ele>1500.4</ele>
        <time>2019-01-18T03:12:06Z</time>
      </trkpt>
      <trkpt lat="42.12933" lon="2.39083">
        <ele>1500.5</ele>
        <time>2019-01-18T03:12:10Z</time>
      </trkpt>
      <trkpt lat="42.12936" lon="2.39089">
        <ele>1500.3</ele>
        <time>2019-01-18T03:12:14Z</time>
      </trkpt>
      <trkpt lat="42.12942" lon="2.39093">
        <ele>1500.1</ele>
        <time>2019-01-18T03:12:19Z</time>
      </trkpt>
      <trkpt lat="42.12948" lon="2.39096">
        <ele>1499.2</ele>
        <time>2019-01-18T03:12:24Z</time>
      </trkpt>
      <trkpt lat="42.1295" lon="2.39102">
        <ele>1498.2</ele>
        <time>2019-01-18T03:12:28Z</time>
      </trkpt>
      <trkpt lat="42.12954" lon="2.39107">
        <ele>1497.3</ele>
        <time>2019-01-18T03:12:32Z</time>
      </trkpt>
      <trkpt lat="42.12958" lon="2.3911">
        <ele>1497.3</ele>
        <time>2019-01-18T03:12:36Z</time>
      </trkpt>
      <trkpt lat="42.12962" lon="2.39114">
        <ele>1496.9</ele>
        <time>2019-01-18T03:12:40Z</time>
      </trkpt>
      <trkpt lat="42.12967" lon="2.39118">
        <ele>1496.4</ele>
        <time>2019-01-18T03:12:45Z</time>
      </trkpt>
      <trkpt lat="42.1297" lon="2.39123">
        <ele>1495.9</ele>
        <time>2019-01-18T03:12:48Z</time>
      </trkpt>
      <trkpt lat="42.12975" lon="2.39127">
        <ele>1495.3</ele>
        <time>2019-01-18T03:12:53Z</time>
      </trkpt>
      <trkpt lat="42.12979" lon="2.39131">
        <ele>1495.1</ele>
        <time>2019-01-18T03:12:57Z</time>
      </trkpt>
      <trkpt lat="42.12981" lon="2.39138">
        <ele>1494</ele>
        <time>2019-01-18T03:13:02Z</time>
      </trkpt>
      <trkpt lat="42.12982" lon="2.39144">
        <ele>1493.6</ele>
        <time>2019-01-18T03:13:05Z</time>
      </trkpt>
      <trkpt lat="42.12981" lon="2.3915">
        <ele>1493.2</ele>
        <time>2019-01-18T03:13:09Z</time>
      </trkpt>
      <trkpt lat="42.12981" lon="2.39157">
        <ele>1492.4</ele>
        <time>2019-01-18T03:13:13Z</time>
      </trkpt>
      <trkpt lat="42.1298" lon="2.39163">
        <ele>1491.3</ele>
        <time>2019-01-18T03:13:17Z</time>
      </trkpt>
      <trkpt lat="42.12979" lon="2.39171">
        <ele>1491.6</ele>
        <time>2019-01-18T03:13:22Z</time>
      </trkpt>
      <trkpt lat="42.12978" lon="2.39178">
        <ele>1491.6</ele>
        <time>2019-01-18T03:13:26Z</time>
      </trkpt>
      <trkpt lat="42.12975" lon="2.39184">
        <ele>1491.8</ele>
        <time>2019-01-18T03:13:30Z</time>
      </trkpt>
      <trkpt lat="42.12974" lon="2.39191">
        <ele>1492.3</ele>
        <time>2019-01-18T03:13:34Z</time>
      </trkpt>
      <trkpt lat="42.12971" lon="2.39195">
        <ele>1493.3</ele>
        <time>2019-01-18T03:13:38Z</time>
      </trkpt>
      <trkpt lat="42.12966" lon="2.39199">
        <ele>1494.6</ele>
        <time>2019-01-18T03:13:42Z</time>
      </trkpt>
      <trkpt lat="42.12964" lon="2.39205">
        <ele>1495.8</ele>
        <time>2019-01-18T03:13:46Z</time>
      </trkpt>
      <trkpt lat="42.12961" lon="2.3921">
        <ele>1497.2</ele>
        <time>2019-01-18T03:13:50Z</time>
      </trkpt>
      <trkpt lat="42.12957" lon="2.39215">
        <ele>1499.1</ele>
        <time>2019-01-18T03:13:54Z</time>
      </trkpt>
      <trkpt lat="42.12955" lon="2.39221">
        <ele>1500.3</ele>
        <time>2019-01-18T03:13:58Z</time>
      </trkpt>
      <trkpt lat="42.12953" lon="2.39227">
        <ele>1501.8</ele>
        <time>2019-01-18T03:14:02Z</time>
      </trkpt>
      <trkpt lat="42.12949" lon="2.39231">
        <ele>1502.8</ele>
        <time>2019-01-18T03:14:06Z</time>
      </trkpt>
      <trkpt lat="42.12945" lon="2.39235">
        <ele>1503.9</ele>
        <time>2019-01-18T03:14:10Z</time>
      </trkpt>
      <trkpt lat="42.12941" lon="2.39238">
        <ele>1504.8</ele>
        <time>2019-01-18T03:14:14Z</time>
      </trkpt>
      <trkpt lat="42.12936" lon="2.39241">
        <ele>1506.2</ele>
        <time>2019-01-18T03:14:18Z</time>
      </trkpt>
      <trkpt lat="42.12932" lon="2.39244">
        <ele>1507.3</ele>
        <time>2019-01-18T03:14:22Z</time>
      </trkpt>
      <trkpt lat="42.12928" lon="2.39249">
        <ele>1508.5</ele>
        <time>2019-01-18T03:14:26Z</time>
      </trkpt>
      <trkpt lat="42.12925" lon="2.39254">
        <ele>1509.7</ele>
        <time>2019-01-18T03:14:31Z</time>
      </trkpt>
      <trkpt lat="42.12921" lon="2.39258">
        <ele>1509.6</ele>
        <time>2019-01-18T03:14:34Z</time>
      </trkpt>
      <trkpt lat="42.12923" lon="2.39253">
        <ele>1507.8</ele>
        <time>2019-01-18T03:14:38Z</time>
      </trkpt>
      <trkpt lat="42.12925" lon="2.39247">
        <ele>1506.6</ele>
        <time>2019-01-18T03:14:42Z</time>
      </trkpt>
      <trkpt lat="42.12926" lon="2.39241">
        <ele>1505</ele>
        <time>2019-01-18T03:14:45Z</time>
      </trkpt>
      <trkpt lat="42.12929" lon="2.39236">
        <ele>1504.1</ele>
        <time>2019-01-18T03:14:49Z</time>
      </trkpt>
      <trkpt lat="42.12933" lon="2.39232">
        <ele>1502.6</ele>
        <time>2019-01-18T03:14:53Z</time>
      </trkpt>
      <trkpt lat="42.12937" lon="2.39229">
        <ele>1501.6</ele>
        <time>2019-01-18T03:14:57Z</time>
      </trkpt>
      <trkpt lat="42.1294" lon="2.39225">
        <ele>1500.7</ele>
        <time>2019-01-18T03:15:00Z</time>
      </trkpt>
      <trkpt lat="42.12944" lon="2.39221">
        <ele>1499.5</ele>
        <time>2019-01-18T03:15:04Z</time>
      </trkpt>
      <trkpt lat="42.12946" lon="2.39214">
        <ele>1497.9</ele>
        <time>2019-01-18T03:15:09Z</time>
      </trkpt>
      <trkpt lat="42.12947" lon="2.39208">
        <ele>1496.9</ele>
        <time>2019-01-18T03:15:13Z</time>
      </trkpt>
      <trkpt lat="42.1295" lon="2.39202">
        <ele>1495.2</ele>
        <time>2019-01-18T03:15:17Z</time>
      </trkpt>
      <trkpt lat="42.12954" lon="2.392">
        <ele>1493.6</ele>
        <time>2019-01-18T03:15:21Z</time>
      </trkpt>
      <trkpt lat="42.12957" lon="2.39194">
        <ele>1493.1</ele>
        <time>2019-01-18T03:15:25Z</time>
      </trkpt>
      <trkpt lat="42.1296" lon="2.39188">
        <ele>1491.3</ele>
        <time>2019-01-18T03:15:29Z</time>
      </trkpt>
      <trkpt lat="42.12964" lon="2.39184">
        <ele>1490.7</ele>
        <time>2019-01-18T03:15:33Z</time>
      </trkpt>
      <trkpt lat="42.12966" lon="2.3918">
        <ele>1490.5</ele>
        <time>2019-01-18T03:15:36Z</time>
      </trkpt>
      <trkpt lat="42.1297" lon="2.39175">
        <ele>1490.6</ele>
        <time>2019-01-18T03:15:40Z</time>
      </trkpt>
      <trkpt lat="42.1297" lon="2.39169">
        <ele>1490.6</ele>
        <time>2019-01-18T03:15:44Z</time>
      </trkpt>
      <trkpt lat="42.12969" lon="2.39162">
        <ele>1490.6</ele>
        <time>2019-01-18T03:15:48Z</time>
      </trkpt>
      <trkpt lat="42.12972" lon="2.39156">
        <ele>1491.7</ele>
        <time>2019-01-18T03:15:52Z</time>
      </trkpt>
      <trkpt lat="42.12973" lon="2.3915">
        <ele>1492.7</ele>
        <time>2019-01-18T03:15:56Z</time>
      </trkpt>
      <trkpt lat="42.12974" lon="2.39144">
        <ele>1492.8</ele>
        <time>2019-01-18T03:16:00Z</time>
      </trkpt>
      <trkpt lat="42.12974" lon="2.39138">
        <ele>1492.3</ele>
        <time>2019-01-18T03:16:03Z</time>
      </trkpt>
      <trkpt lat="42.12979" lon="2.39136">
        <ele>1491.8</ele>
        <time>2019-01-18T03:16:07Z</time>
      </trkpt>
      <trkpt lat="42.12983" lon="2.39139">
        <ele>1491</ele>
        <time>2019-01-18T03:16:11Z</time>
      </trkpt>
      <trkpt lat="42.12988" lon="2.39137">
        <ele>1490.1</ele>
        <time>2019-01-18T03:16:15Z</time>
      </trkpt>
      <trkpt lat="42.12991" lon="2.39133">
        <ele>1489.4</ele>
        <time>2019-01-18T03:16:19Z</time>
      </trkpt>
      <trkpt lat="42.12995" lon="2.39129">
        <ele>1488.4</ele>
        <time>2019-01-18T03:16:22Z</time>
      </trkpt>
      <trkpt lat="42.12997" lon="2.39123">
        <ele>1487.7</ele>
        <time>2019-01-18T03:16:27Z</time>
      </trkpt>
      <trkpt lat="42.12999" lon="2.39117">
        <ele>1486.9</ele>
        <time>2019-01-18T03:16:31Z</time>
      </trkpt>
      <trkpt lat="42.13001" lon="2.39111">
        <ele>1486.5</ele>
        <time>2019-01-18T03:16:35Z</time>
      </trkpt>
      <trkpt lat="42.13002" lon="2.39104">
        <ele>1485.4</ele>
        <time>2019-01-18T03:16:38Z</time>
      </trkpt>
      <trkpt lat="42.13004" lon="2.39098">
        <ele>1484.3</ele>
        <time>2019-01-18T03:16:43Z</time>
      </trkpt>
      <trkpt lat="42.13006" lon="2.39092">
        <ele>1483.2</ele>
        <time>2019-01-18T03:16:47Z</time>
      </trkpt>
      <trkpt lat="42.13009" lon="2.39087">
        <ele>1482.3</ele>
        <time>2019-01-18T03:16:50Z</time>
      </trkpt>
      <trkpt lat="42.13011" lon="2.39082">
        <ele>1481.9</ele>
        <time>2019-01-18T03:16:54Z</time>
      </trkpt>
      <trkpt lat="42.13015" lon="2.39077">
        <ele>1481.2</ele>
        <time>2019-01-18T03:16:58Z</time>
      </trkpt>
      <trkpt lat="42.13019" lon="2.39073">
        <ele>1480.5</ele>
        <time>2019-01-18T03:17:02Z</time>
      </trkpt>
      <trkpt lat="42.13024" lon="2.3907">
        <ele>1479.4</ele>
        <time>2019-01-18T03:17:06Z</time>
      </trkpt>
      <trkpt lat="42.13028" lon="2.39068">
        <ele>1478.2</ele>
        <time>2019-01-18T03:17:10Z</time>
      </trkpt>
      <trkpt lat="42.13032" lon="2.39066">
        <ele>1476.7</ele>
        <time>2019-01-18T03:17:14Z</time>
      </trkpt>
      <trkpt lat="42.13035" lon="2.39061">
        <ele>1475.9</ele>
        <time>2019-01-18T03:17:17Z</time>
      </trkpt>
      <trkpt lat="42.1304" lon="2.3906">
        <ele>1474.6</ele>
        <time>2019-01-18T03:17:21Z</time>
      </trkpt>
      <trkpt lat="42.13045" lon="2.3906">
        <ele>1472.7</ele>
        <time>2019-01-18T03:17:25Z</time>
      </trkpt>
      <trkpt lat="42.1305" lon="2.39058">
        <ele>1471.1</ele>
        <time>2019-01-18T03:17:29Z</time>
      </trkpt>
      <trkpt lat="42.13055" lon="2.39057">
        <ele>1469.5</ele>
        <time>2019-01-18T03:17:33Z</time>
      </trkpt>
      <trkpt lat="42.1306" lon="2.39058">
        <ele>1467.8</ele>
        <time>2019-01-18T03:17:37Z</time>
      </trkpt>
      <trkpt lat="42.13065" lon="2.39057">
        <ele>1465.7</ele>
        <time>2019-01-18T03:17:41Z</time>
      </trkpt>
      <trkpt lat="42.13072" lon="2.39057">
        <ele>1464.8</ele>
        <time>2019-01-18T03:17:46Z</time>
      </trkpt>
      <trkpt lat="42.13075" lon="2.39054">
        <ele>1464.2</ele>
        <time>2019-01-18T03:17:50Z</time>
      </trkpt>
      <trkpt lat="42.1308" lon="2.39053">
        <ele>1462.5</ele>
        <time>2019-01-18T03:17:54Z</time>
      </trkpt>
      <trkpt lat="42.13085" lon="2.39054">
        <ele>1461.6</ele>
        <time>2019-01-18T03:17:58Z</time>
      </trkpt>
      <trkpt lat="42.1309" lon="2.39051">
        <ele>1459.9</ele>
        <time>2019-01-18T03:18:03Z</time>
      </trkpt>
      <trkpt lat="42.13096" lon="2.39047">
        <ele>1458.7</ele>
        <time>2019-01-18T03:18:07Z</time>
      </trkpt>
      <trkpt lat="42.13102" lon="2.39049">
        <ele>1456.6</ele>
        <time>2019-01-18T03:18:13Z</time>
      </trkpt>
      <trkpt lat="42.13107" lon="2.39049">
        <ele>1455.5</ele>
        <time>2019-01-18T03:18:16Z</time>
      </trkpt>
      <trkpt lat="42.13111" lon="2.39047">
        <ele>1453.9</ele>
        <time>2019-01-18T03:18:20Z</time>
      </trkpt>
      <trkpt lat="42.13115" lon="2.39044">
        <ele>1452.7</ele>
        <time>2019-01-18T03:18:24Z</time>
      </trkpt>
      <trkpt lat="42.1312" lon="2.39043">
        <ele>1451.2</ele>
        <time>2019-01-18T03:18:28Z</time>
      </trkpt>
      <trkpt lat="42.13125" lon="2.39041">
        <ele>1450</ele>
        <time>2019-01-18T03:18:31Z</time>
      </trkpt>
      <trkpt lat="42.13129" lon="2.39043">
        <ele>1447.7</ele>
        <time>2019-01-18T03:18:35Z</time>
      </trkpt>
      <trkpt lat="42.13134" lon="2.39042">
        <ele>1446.7</ele>
        <time>2019-01-18T03:18:39Z</time>
      </trkpt>
      <trkpt lat="42.13139" lon="2.39045">
        <ele>1445.7</ele>
        <time>2019-01-18T03:18:44Z</time>
      </trkpt>
      <trkpt lat="42.13143" lon="2.39047">
        <ele>1444.3</ele>
        <time>2019-01-18T03:18:47Z</time>
      </trkpt>
      <trkpt lat="42.13148" lon="2.39049">
        <ele>1443.2</ele>
        <time>2019-01-18T03:18:51Z</time>
      </trkpt>
      <trkpt lat="42.13153" lon="2.39052">
        <ele>1441.7</ele>
        <time>2019-01-18T03:18:55Z</time>
      </trkpt>
      <trkpt lat="42.13156" lon="2.39057">
        <ele>1439.4</ele>
        <time>2019-01-18T03:18:59Z</time>
      </trkpt>
      <trkpt lat="42.1316" lon="2.39055">
        <ele>1437.4</ele>
        <time>2019-01-18T03:19:03Z</time>
      </trkpt>
      <trkpt lat="42.13165" lon="2.39054">
        <ele>1436</ele>
        <time>2019-01-18T03:19:06Z</time>
      </trkpt>
      <trkpt lat="42.13169" lon="2.39052">
        <ele>1434.5</ele>
        <time>2019-01-18T03:19:10Z</time>
      </trkpt>
      <trkpt lat="42.13174" lon="2.3905">
        <ele>1432.1</ele>
        <time>2019-01-18T03:19:14Z</time>
      </trkpt>
      <trkpt lat="42.13179" lon="2.3905">
        <ele>1429.8</ele>
        <time>2019-01-18T03:19:18Z</time>
      </trkpt>
      <trkpt lat="42.13177" lon="2.39057">
        <ele>1429.2</ele>
        <time>2019-01-18T03:19:22Z</time>
      </trkpt>
      <trkpt lat="42.13173" lon="2.39061">
        <ele>1428.4</ele>
        <time>2019-01-18T03:19:26Z</time>
      </trkpt>
      <trkpt lat="42.13169" lon="2.39065">
        <ele>1427.7</ele>
        <time>2019-01-18T03:19:30Z</time>
      </trkpt>
      <trkpt lat="42.13165" lon="2.39069">
        <ele>1425.5</ele>
        <time>2019-01-18T03:19:35Z</time>
      </trkpt>
      <trkpt lat="42.13176" lon="2.39062">
        <ele>1412.9</ele>
        <time>2019-01-18T03:19:45Z</time>
      </trkpt>
      <trkpt lat="42.13184" lon="2.39061">
        <ele>1413.3</ele>
        <time>2019-01-18T03:19:51Z</time>
      </trkpt>
      <trkpt lat="42.13188" lon="2.39059">
        <ele>1414.2</ele>
        <time>2019-01-18T03:19:55Z</time>
      </trkpt>
      <trkpt lat="42.13187" lon="2.39054">
        <ele>1414.3</ele>
        <time>2019-01-18T03:19:58Z</time>
      </trkpt>
      <trkpt lat="42.13186" lon="2.3905">
        <ele>1415.2</ele>
        <time>2019-01-18T03:20:00Z</time>
      </trkpt>
      <trkpt lat="42.13185" lon="2.39036">
        <ele>1415.8</ele>
        <time>2019-01-18T03:20:09Z</time>
      </trkpt>
      <trkpt lat="42.13187" lon="2.39032">
        <ele>1413.9</ele>
        <time>2019-01-18T03:20:12Z</time>
      </trkpt>
      <trkpt lat="42.13191" lon="2.39027">
        <ele>1411.8</ele>
        <time>2019-01-18T03:20:16Z</time>
      </trkpt>
      <trkpt lat="42.13193" lon="2.39024">
        <ele>1411</ele>
        <time>2019-01-18T03:20:19Z</time>
      </trkpt>
      <trkpt lat="42.13196" lon="2.39019">
        <ele>1411</ele>
        <time>2019-01-18T03:20:23Z</time>
      </trkpt>
      <trkpt lat="42.13201" lon="2.39016">
        <ele>1410.5</ele>
        <time>2019-01-18T03:20:27Z</time>
      </trkpt>
      <trkpt lat="42.13207" lon="2.39013">
        <ele>1408.1</ele>
        <time>2019-01-18T03:20:32Z</time>
      </trkpt>
      <trkpt lat="42.13211" lon="2.39012">
        <ele>1406.1</ele>
        <time>2019-01-18T03:20:35Z</time>
      </trkpt>
      <trkpt lat="42.13217" lon="2.39012">
        <ele>1403.7</ele>
        <time>2019-01-18T03:20:40Z</time>
      </trkpt>
      <trkpt lat="42.13219" lon="2.39009">
        <ele>1403.2</ele>
        <time>2019-01-18T03:20:42Z</time>
      </trkpt>
      <trkpt lat="42.1322" lon="2.39008">
        <ele>1402.7</ele>
        <time>2019-01-18T03:20:43Z</time>
      </trkpt>
      <trkpt lat="42.13225" lon="2.39008">
        <ele>1402.3</ele>
        <time>2019-01-18T03:20:47Z</time>
      </trkpt>
      <trkpt lat="42.13231" lon="2.39008">
        <ele>1401.3</ele>
        <time>2019-01-18T03:20:52Z</time>
      </trkpt>
      <trkpt lat="42.13235" lon="2.39006">
        <ele>1399.8</ele>
        <time>2019-01-18T03:20:55Z</time>
      </trkpt>
      <trkpt lat="42.13239" lon="2.39006">
        <ele>1398.5</ele>
        <time>2019-01-18T03:20:59Z</time>
      </trkpt>
      <trkpt lat="42.13245" lon="2.39004">
        <ele>1395.6</ele>
        <time>2019-01-18T03:21:03Z</time>
      </trkpt>
      <trkpt lat="42.1325" lon="2.38999">
        <ele>1393.1</ele>
        <time>2019-01-18T03:21:08Z</time>
      </trkpt>
      <trkpt lat="42.13257" lon="2.38999">
        <ele>1391.3</ele>
        <time>2019-01-18T03:21:14Z</time>
      </trkpt>
      <trkpt lat="42.13263" lon="2.38999">
        <ele>1389.7</ele>
        <time>2019-01-18T03:21:19Z</time>
      </trkpt>
      <trkpt lat="42.13266" lon="2.39001">
        <ele>1389.7</ele>
        <time>2019-01-18T03:21:21Z</time>
      </trkpt>
      <trkpt lat="42.13268" lon="2.39">
        <ele>1389.2</ele>
        <time>2019-01-18T03:21:23Z</time>
      </trkpt>
      <trkpt lat="42.1327" lon="2.38997">
        <ele>1388.9</ele>
        <time>2019-01-18T03:21:26Z</time>
      </trkpt>
      <trkpt lat="42.13271" lon="2.38994">
        <ele>1387.8</ele>
        <time>2019-01-18T03:21:28Z</time>
      </trkpt>
      <trkpt lat="42.13273" lon="2.38988">
        <ele>1385.5</ele>
        <time>2019-01-18T03:21:31Z</time>
      </trkpt>
      <trkpt lat="42.13273" lon="2.38984">
        <ele>1385</ele>
        <time>2019-01-18T03:21:34Z</time>
      </trkpt>
      <trkpt lat="42.13273" lon="2.3898">
        <ele>1383.1</ele>
        <time>2019-01-18T03:21:36Z</time>
      </trkpt>
      <trkpt lat="42.13274" lon="2.38976">
        <ele>1382.1</ele>
        <time>2019-01-18T03:21:39Z</time>
      </trkpt>
      <trkpt lat="42.13273" lon="2.38973">
        <ele>1380.2</ele>
        <time>2019-01-18T03:21:40Z</time>
      </trkpt>
      <trkpt lat="42.13274" lon="2.3897">
        <ele>1378.7</ele>
        <time>2019-01-18T03:21:43Z</time>
      </trkpt>
      <trkpt lat="42.13275" lon="2.38967">
        <ele>1377.2</ele>
        <time>2019-01-18T03:21:44Z</time>
      </trkpt>
      <trkpt lat="42.13278" lon="2.38965">
        <ele>1376.3</ele>
        <time>2019-01-18T03:21:47Z</time>
      </trkpt>
      <trkpt lat="42.13282" lon="2.38965">
        <ele>1374.4</ele>
        <time>2019-01-18T03:21:50Z</time>
      </trkpt>
      <trkpt lat="42.13284" lon="2.38963">
        <ele>1371.1</ele>
        <time>2019-01-18T03:21:52Z</time>
      </trkpt>
      <trkpt lat="42.13288" lon="2.38964">
        <ele>1368.7</ele>
        <time>2019-01-18T03:21:56Z</time>
      </trkpt>
      <trkpt lat="42.1329" lon="2.38962">
        <ele>1367.1</ele>
        <time>2019-01-18T03:21:58Z</time>
      </trkpt>
      <trkpt lat="42.13291" lon="2.38961">
        <ele>1366.2</ele>
        <time>2019-01-18T03:21:59Z</time>
      </trkpt>
      <trkpt lat="42.13294" lon="2.38962">
        <ele>1365.2</ele>
        <time>2019-01-18T03:22:01Z</time>
      </trkpt>
      <trkpt lat="42.13296" lon="2.38959">
        <ele>1365.3</ele>
        <time>2019-01-18T03:22:03Z</time>
      </trkpt>
      <trkpt lat="42.13297" lon="2.38957">
        <ele>1365.3</ele>
        <time>2019-01-18T03:22:05Z</time>
      </trkpt>
      <trkpt lat="42.133" lon="2.38956">
        <ele>1363.4</ele>
        <time>2019-01-18T03:22:07Z</time>
      </trkpt>
      <trkpt lat="42.13301" lon="2.38955">
        <ele>1362.3</ele>
        <time>2019-01-18T03:22:08Z</time>
      </trkpt>
      <trkpt lat="42.13303" lon="2.38955">
        <ele>1359.9</ele>
        <time>2019-01-18T03:22:09Z</time>
      </trkpt>
      <trkpt lat="42.13306" lon="2.38958">
        <ele>1359.5</ele>
        <time>2019-01-18T03:22:12Z</time>
      </trkpt>
      <trkpt lat="42.13308" lon="2.38961">
        <ele>1358</ele>
        <time>2019-01-18T03:22:14Z</time>
      </trkpt>
      <trkpt lat="42.1331" lon="2.38964">
        <ele>1357.5</ele>
        <time>2019-01-18T03:22:17Z</time>
      </trkpt>
      <trkpt lat="42.13314" lon="2.38967">
        <ele>1355.1</ele>
        <time>2019-01-18T03:22:21Z</time>
      </trkpt>
      <trkpt lat="42.13317" lon="2.38969">
        <ele>1353.2</ele>
        <time>2019-01-18T03:22:23Z</time>
      </trkpt>
      <trkpt lat="42.13323" lon="2.38976">
        <ele>1351.9</ele>
        <time>2019-01-18T03:22:30Z</time>
      </trkpt>
      <trkpt lat="42.13326" lon="2.38975">
        <ele>1350.8</ele>
        <time>2019-01-18T03:22:33Z</time>
      </trkpt>
      <trkpt lat="42.13331" lon="2.38975">
        <ele>1348.9</ele>
        <time>2019-01-18T03:22:37Z</time>
      </trkpt>
      <trkpt lat="42.13336" lon="2.3898">
        <ele>1348</ele>
        <time>2019-01-18T03:22:41Z</time>
      </trkpt>
      <trkpt lat="42.13342" lon="2.38986">
        <ele>1346.9</ele>
        <time>2019-01-18T03:22:47Z</time>
      </trkpt>
      <trkpt lat="42.13344" lon="2.38988">
        <ele>1347.4</ele>
        <time>2019-01-18T03:22:50Z</time>
      </trkpt>
      <trkpt lat="42.13349" lon="2.38989">
        <ele>1346.5</ele>
        <time>2019-01-18T03:22:53Z</time>
      </trkpt>
      <trkpt lat="42.13356" lon="2.38993">
        <ele>1344.2</ele>
        <time>2019-01-18T03:23:00Z</time>
      </trkpt>
      <trkpt lat="42.1336" lon="2.38994">
        <ele>1342.6</ele>
        <time>2019-01-18T03:23:03Z</time>
      </trkpt>
      <trkpt lat="42.13365" lon="2.38993">
        <ele>1340.8</ele>
        <time>2019-01-18T03:23:07Z</time>
      </trkpt>
      <trkpt lat="42.13371" lon="2.38995">
        <ele>1339.7</ele>
        <time>2019-01-18T03:23:12Z</time>
      </trkpt>
      <trkpt lat="42.13372" lon="2.38995">
        <ele>1338.4</ele>
        <time>2019-01-18T03:23:12Z</time>
      </trkpt>
      <trkpt lat="42.13374" lon="2.38993">
        <ele>1336.4</ele>
        <time>2019-01-18T03:23:15Z</time>
      </trkpt>
      <trkpt lat="42.13376" lon="2.38991">
        <ele>1335.5</ele>
        <time>2019-01-18T03:23:17Z</time>
      </trkpt>
      <trkpt lat="42.1338" lon="2.3899">
        <ele>1335</ele>
        <time>2019-01-18T03:23:20Z</time>
      </trkpt>
      <trkpt lat="42.13384" lon="2.38987">
        <ele>1333</ele>
        <time>2019-01-18T03:23:24Z</time>
      </trkpt>
      <trkpt lat="42.13389" lon="2.38985">
        <ele>1331.6</ele>
        <time>2019-01-18T03:23:28Z</time>
      </trkpt>
      <trkpt lat="42.13392" lon="2.38986">
        <ele>1330.7</ele>
        <time>2019-01-18T03:23:30Z</time>
      </trkpt>
      <trkpt lat="42.13395" lon="2.38988">
        <ele>1329.6</ele>
        <time>2019-01-18T03:23:33Z</time>
      </trkpt>
      <trkpt lat="42.13397" lon="2.38988">
        <ele>1328.8</ele>
        <time>2019-01-18T03:23:34Z</time>
      </trkpt>
      <trkpt lat="42.134" lon="2.38987">
        <ele>1326.8</ele>
        <time>2019-01-18T03:23:37Z</time>
      </trkpt>
      <trkpt lat="42.13403" lon="2.38986">
        <ele>1324.4</ele>
        <time>2019-01-18T03:23:39Z</time>
      </trkpt>
      <trkpt lat="42.13407" lon="2.38985">
        <ele>1323.9</ele>
        <time>2019-01-18T03:23:43Z</time>
      </trkpt>
      <trkpt lat="42.13409" lon="2.38983">
        <ele>1322</ele>
        <time>2019-01-18T03:23:45Z</time>
      </trkpt>
      <trkpt lat="42.13413" lon="2.38981">
        <ele>1321.6</ele>
        <time>2019-01-18T03:23:48Z</time>
      </trkpt>
      <trkpt lat="42.13417" lon="2.38978">
        <ele>1319.1</ele>
        <time>2019-01-18T03:23:52Z</time>
      </trkpt>
      <trkpt lat="42.13419" lon="2.38976">
        <ele>1317.1</ele>
        <time>2019-01-18T03:23:54Z</time>
      </trkpt>
      <trkpt lat="42.1342" lon="2.38973">
        <ele>1315.7</ele>
        <time>2019-01-18T03:23:56Z</time>
      </trkpt>
      <trkpt lat="42.13421" lon="2.3897">
        <ele>1313.9</ele>
        <time>2019-01-18T03:23:58Z</time>
      </trkpt>
      <trkpt lat="42.13422" lon="2.38965">
        <ele>1311.4</ele>
        <time>2019-01-18T03:24:01Z</time>
      </trkpt>
      <trkpt lat="42.13423" lon="2.38959">
        <ele>1309.9</ele>
        <time>2019-01-18T03:24:04Z</time>
      </trkpt>
      <trkpt lat="42.13425" lon="2.38954">
        <ele>1309.1</ele>
        <time>2019-01-18T03:24:08Z</time>
      </trkpt>
      <trkpt lat="42.13426" lon="2.38953">
        <ele>1309.1</ele>
        <time>2019-01-18T03:24:09Z</time>
      </trkpt>
      <trkpt lat="42.13427" lon="2.38952">
        <ele>1309.6</ele>
        <time>2019-01-18T03:24:10Z</time>
      </trkpt>
      <trkpt lat="42.13427" lon="2.38952">
        <ele>1309.1</ele>
        <time>2019-01-18T03:24:10Z</time>
      </trkpt>
      <trkpt lat="42.13427" lon="2.38947">
        <ele>1307.6</ele>
        <time>2019-01-18T03:24:13Z</time>
      </trkpt>
      <trkpt lat="42.13426" lon="2.38946">
        <ele>1307.1</ele>
        <time>2019-01-18T03:24:14Z</time>
      </trkpt>
      <trkpt lat="42.13424" lon="2.38946">
        <ele>1307</ele>
        <time>2019-01-18T03:24:15Z</time>
      </trkpt>
      <trkpt lat="42.13422" lon="2.38947">
        <ele>1306.6</ele>
        <time>2019-01-18T03:24:17Z</time>
      </trkpt>
      <trkpt lat="42.1342" lon="2.38947">
        <ele>1305.7</ele>
        <time>2019-01-18T03:24:19Z</time>
      </trkpt>
      <trkpt lat="42.13418" lon="2.38946">
        <ele>1304.7</ele>
        <time>2019-01-18T03:24:21Z</time>
      </trkpt>
      <trkpt lat="42.13417" lon="2.38943">
        <ele>1302.8</ele>
        <time>2019-01-18T03:24:23Z</time>
      </trkpt>
      <trkpt lat="42.13412" lon="2.38943">
        <ele>1300.3</ele>
        <time>2019-01-18T03:24:27Z</time>
      </trkpt>
      <trkpt lat="42.13408" lon="2.38944">
        <ele>1297.5</ele>
        <time>2019-01-18T03:24:30Z</time>
      </trkpt>
      <trkpt lat="42.13407" lon="2.38942">
        <ele>1296.6</ele>
        <time>2019-01-18T03:24:32Z</time>
      </trkpt>
      <trkpt lat="42.13408" lon="2.38939">
        <ele>1294.1</ele>
        <time>2019-01-18T03:24:34Z</time>
      </trkpt>
      <trkpt lat="42.13407" lon="2.38939">
        <ele>1293.2</ele>
        <time>2019-01-18T03:24:34Z</time>
      </trkpt>
      <trkpt lat="42.1341" lon="2.38935">
        <ele>1292.1</ele>
        <time>2019-01-18T03:24:37Z</time>
      </trkpt>
      <trkpt lat="42.13407" lon="2.38936">
        <ele>1288.8</ele>
        <time>2019-01-18T03:24:40Z</time>
      </trkpt>
      <trkpt lat="42.13406" lon="2.38934">
        <ele>1287.3</ele>
        <time>2019-01-18T03:24:41Z</time>
      </trkpt>
      <trkpt lat="42.13408" lon="2.38926">
        <ele>1286.5</ele>
        <time>2019-01-18T03:24:46Z</time>
      </trkpt>
      <trkpt lat="42.13408" lon="2.38924">
        <ele>1284.5</ele>
        <time>2019-01-18T03:24:48Z</time>
      </trkpt>
      <trkpt lat="42.13403" lon="2.3892">
        <ele>1281.7</ele>
        <time>2019-01-18T03:24:52Z</time>
      </trkpt>
      <trkpt lat="42.134" lon="2.38918">
        <ele>1280.7</ele>
        <time>2019-01-18T03:24:55Z</time>
      </trkpt>
      <trkpt lat="42.13392" lon="2.38912">
        <ele>1277.3</ele>
        <time>2019-01-18T03:25:03Z</time>
      </trkpt>
      <trkpt lat="42.13388" lon="2.38911">
        <ele>1276.9</ele>
        <time>2019-01-18T03:25:06Z</time>
      </trkpt>
      <trkpt lat="42.13387" lon="2.38906">
        <ele>1274.9</ele>
        <time>2019-01-18T03:25:09Z</time>
      </trkpt>
      <trkpt lat="42.13384" lon="2.38902">
        <ele>1273</ele>
        <time>2019-01-18T03:25:12Z</time>
      </trkpt>
      <trkpt lat="42.13385" lon="2.389">
        <ele>1271.6</ele>
        <time>2019-01-18T03:25:13Z</time>
      </trkpt>
      <trkpt lat="42.13384" lon="2.38894">
        <ele>1269.6</ele>
        <time>2019-01-18T03:25:17Z</time>
      </trkpt>
      <trkpt lat="42.13388" lon="2.38894">
        <ele>1268.6</ele>
        <time>2019-01-18T03:25:20Z</time>
      </trkpt>
      <trkpt lat="42.13387" lon="2.38893">
        <ele>1266.3</ele>
        <time>2019-01-18T03:25:21Z</time>
      </trkpt>
      <trkpt lat="42.13388" lon="2.38889">
        <ele>1264.8</ele>
        <time>2019-01-18T03:25:23Z</time>
      </trkpt>
      <trkpt lat="42.13383" lon="2.38886">
        <ele>1261.9</ele>
        <time>2019-01-18T03:25:27Z</time>
      </trkpt>
      <trkpt lat="42.13379" lon="2.38885">
        <ele>1260.4</ele>
        <time>2019-01-18T03:25:31Z</time>
      </trkpt>
      <trkpt lat="42.1338" lon="2.38878">
        <ele>1259.1</ele>
        <time>2019-01-18T03:25:35Z</time>
      </trkpt>
      <trkpt lat="42.13386" lon="2.38879">
        <ele>1257.6</ele>
        <time>2019-01-18T03:25:40Z</time>
      </trkpt>
      <trkpt lat="42.13391" lon="2.38877">
        <ele>1256.1</ele>
        <time>2019-01-18T03:25:44Z</time>
      </trkpt>
      <trkpt lat="42.13389" lon="2.38878">
        <ele>1255.2</ele>
        <time>2019-01-18T03:25:45Z</time>
      </trkpt>
      <trkpt lat="42.13389" lon="2.38876">
        <ele>1254.2</ele>
        <time>2019-01-18T03:25:47Z</time>
      </trkpt>
      <trkpt lat="42.13391" lon="2.38874">
        <ele>1253.2</ele>
        <time>2019-01-18T03:25:48Z</time>
      </trkpt>
      <trkpt lat="42.13398" lon="2.38875">
        <ele>1251.8</ele>
        <time>2019-01-18T03:25:54Z</time>
      </trkpt>
      <trkpt lat="42.13401" lon="2.38875">
        <ele>1251.8</ele>
        <time>2019-01-18T03:25:57Z</time>
      </trkpt>
      <trkpt lat="42.13405" lon="2.38875">
        <ele>1248.4</ele>
        <time>2019-01-18T03:25:59Z</time>
      </trkpt>
      <trkpt lat="42.13405" lon="2.38874">
        <ele>1249</ele>
        <time>2019-01-18T03:26:00Z</time>
      </trkpt>
      <trkpt lat="42.13409" lon="2.3887">
        <ele>1246.1</ele>
        <time>2019-01-18T03:26:04Z</time>
      </trkpt>
      <trkpt lat="42.13415" lon="2.38871">
        <ele>1244.6</ele>
        <time>2019-01-18T03:26:09Z</time>
      </trkpt>
      <trkpt lat="42.13421" lon="2.38873">
        <ele>1242.7</ele>
        <time>2019-01-18T03:26:14Z</time>
      </trkpt>
      <trkpt lat="42.13425" lon="2.38872">
        <ele>1241.8</ele>
        <time>2019-01-18T03:26:17Z</time>
      </trkpt>
      <trkpt lat="42.13429" lon="2.3887">
        <ele>1240.3</ele>
        <time>2019-01-18T03:26:20Z</time>
      </trkpt>
      <trkpt lat="42.13431" lon="2.38868">
        <ele>1239.8</ele>
        <time>2019-01-18T03:26:23Z</time>
      </trkpt>
      <trkpt lat="42.13432" lon="2.38868">
        <ele>1237.8</ele>
        <time>2019-01-18T03:26:24Z</time>
      </trkpt>
      <trkpt lat="42.13437" lon="2.38871">
        <ele>1236.4</ele>
        <time>2019-01-18T03:26:28Z</time>
      </trkpt>
      <trkpt lat="42.13443" lon="2.38872">
        <ele>1234.5</ele>
        <time>2019-01-18T03:26:32Z</time>
      </trkpt>
      <trkpt lat="42.13447" lon="2.38873">
        <ele>1233.1</ele>
        <time>2019-01-18T03:26:35Z</time>
      </trkpt>
      <trkpt lat="42.1345" lon="2.3887">
        <ele>1231.6</ele>
        <time>2019-01-18T03:26:39Z</time>
      </trkpt>
      <trkpt lat="42.13457" lon="2.38872">
        <ele>1230.2</ele>
        <time>2019-01-18T03:26:44Z</time>
      </trkpt>
      <trkpt lat="42.1346" lon="2.38871">
        <ele>1228.8</ele>
        <time>2019-01-18T03:26:47Z</time>
      </trkpt>
      <trkpt lat="42.13464" lon="2.38871">
        <ele>1227.4</ele>
        <time>2019-01-18T03:26:50Z</time>
      </trkpt>
      <trkpt lat="42.13465" lon="2.38872">
        <ele>1225.8</ele>
        <time>2019-01-18T03:26:51Z</time>
      </trkpt>
      <trkpt lat="42.13469" lon="2.38872">
        <ele>1223.4</ele>
        <time>2019-01-18T03:26:54Z</time>
      </trkpt>
      <trkpt lat="42.13473" lon="2.38874">
        <ele>1222.9</ele>
        <time>2019-01-18T03:26:58Z</time>
      </trkpt>
      <trkpt lat="42.13479" lon="2.38877">
        <ele>1221.5</ele>
        <time>2019-01-18T03:27:03Z</time>
      </trkpt>
      <trkpt lat="42.13487" lon="2.38877">
        <ele>1220.1</ele>
        <time>2019-01-18T03:27:09Z</time>
      </trkpt>
      <trkpt lat="42.13493" lon="2.38879">
        <ele>1218.1</ele>
        <time>2019-01-18T03:27:14Z</time>
      </trkpt>
      <trkpt lat="42.135" lon="2.38882">
        <ele>1216.8</ele>
        <time>2019-01-18T03:27:20Z</time>
      </trkpt>
      <trkpt lat="42.13505" lon="2.38885">
        <ele>1215.7</ele>
        <time>2019-01-18T03:27:24Z</time>
      </trkpt>
      <trkpt lat="42.1351" lon="2.38889">
        <ele>1214.8</ele>
        <time>2019-01-18T03:27:29Z</time>
      </trkpt>
      <trkpt lat="42.13515" lon="2.38894">
        <ele>1212.8</ele>
        <time>2019-01-18T03:27:34Z</time>
      </trkpt>
      <trkpt lat="42.13521" lon="2.38894">
        <ele>1210.4</ele>
        <time>2019-01-18T03:27:39Z</time>
      </trkpt>
      <trkpt lat="42.13526" lon="2.38896">
        <ele>1209.6</ele>
        <time>2019-01-18T03:27:44Z</time>
      </trkpt>
      <trkpt lat="42.13533" lon="2.38901">
        <ele>1208.5</ele>
        <time>2019-01-18T03:27:50Z</time>
      </trkpt>
      <trkpt lat="42.13537" lon="2.38903">
        <ele>1207.2</ele>
        <time>2019-01-18T03:27:53Z</time>
      </trkpt>
      <trkpt lat="42.13547" lon="2.38909">
        <ele>1205.1</ele>
        <time>2019-01-18T03:28:02Z</time>
      </trkpt>
      <trkpt lat="42.13553" lon="2.38911">
        <ele>1204.2</ele>
        <time>2019-01-18T03:28:07Z</time>
      </trkpt>
      <trkpt lat="42.13558" lon="2.38913">
        <ele>1201.8</ele>
        <time>2019-01-18T03:28:11Z</time>
      </trkpt>
      <trkpt lat="42.13562" lon="2.38916">
        <ele>1200.9</ele>
        <time>2019-01-18T03:28:15Z</time>
      </trkpt>
      <trkpt lat="42.13573" lon="2.38922">
        <ele>1200</ele>
        <time>2019-01-18T03:28:24Z</time>
      </trkpt>
      <trkpt lat="42.13578" lon="2.38932">
        <ele>1199.9</ele>
        <time>2019-01-18T03:28:31Z</time>
      </trkpt>
      <trkpt lat="42.13583" lon="2.38934">
        <ele>1198.5</ele>
        <time>2019-01-18T03:28:35Z</time>
      </trkpt>
      <trkpt lat="42.13585" lon="2.38942">
        <ele>1198.5</ele>
        <time>2019-01-18T03:28:40Z</time>
      </trkpt>
      <trkpt lat="42.13591" lon="2.38951">
        <ele>1196.5</ele>
        <time>2019-01-18T03:28:48Z</time>
      </trkpt>
      <trkpt lat="42.13597" lon="2.38965">
        <ele>1192.7</ele>
        <time>2019-01-18T03:28:57Z</time>
      </trkpt>
      <trkpt lat="42.136" lon="2.38964">
        <ele>1191.7</ele>
        <time>2019-01-18T03:29:00Z</time>
      </trkpt>
      <trkpt lat="42.13597" lon="2.38961">
        <ele>1192.2</ele>
        <time>2019-01-18T03:29:03Z</time>
      </trkpt>
      <trkpt lat="42.13593" lon="2.38966">
        <ele>1191.2</ele>
        <time>2019-01-18T03:29:07Z</time>
      </trkpt>
      <trkpt lat="42.13592" lon="2.38975">
        <ele>1191.7</ele>
        <time>2019-01-18T03:29:13Z</time>
      </trkpt>
      <trkpt lat="42.13584" lon="2.38983">
        <ele>1192.7</ele>
        <time>2019-01-18T03:29:20Z</time>
      </trkpt>
      <trkpt lat="42.13576" lon="2.38992">
        <ele>1194.1</ele>
        <time>2019-01-18T03:29:29Z</time>
      </trkpt>
      <trkpt lat="42.13571" lon="2.38999">
        <ele>1195.6</ele>
        <time>2019-01-18T03:29:34Z</time>
      </trkpt>
      <trkpt lat="42.13566" lon="2.39006">
        <ele>1196.1</ele>
        <time>2019-01-18T03:29:40Z</time>
      </trkpt>
      <trkpt lat="42.13561" lon="2.39016">
        <ele>1196.5</ele>
        <time>2019-01-18T03:29:47Z</time>
      </trkpt>
      <trkpt lat="42.13557" lon="2.39027">
        <ele>1197.5</ele>
        <time>2019-01-18T03:29:55Z</time>
      </trkpt>
      <trkpt lat="42.13556" lon="2.39039">
        <ele>1198.4</ele>
        <time>2019-01-18T03:30:02Z</time>
      </trkpt>
      <trkpt lat="42.13554" lon="2.39042">
        <ele>1198.5</ele>
        <time>2019-01-18T03:30:04Z</time>
      </trkpt>
      <trkpt lat="42.13552" lon="2.3905">
        <ele>1198.4</ele>
        <time>2019-01-18T03:30:10Z</time>
      </trkpt>
      <trkpt lat="42.13546" lon="2.39059">
        <ele>1197.9</ele>
        <time>2019-01-18T03:30:16Z</time>
      </trkpt>
      <trkpt lat="42.13545" lon="2.39068">
        <ele>1198.4</ele>
        <time>2019-01-18T03:30:22Z</time>
      </trkpt>
      <trkpt lat="42.13542" lon="2.39079">
        <ele>1198.5</ele>
        <time>2019-01-18T03:30:29Z</time>
      </trkpt>
      <trkpt lat="42.1354" lon="2.39089">
        <ele>1198.5</ele>
        <time>2019-01-18T03:30:35Z</time>
      </trkpt>
      <trkpt lat="42.13537" lon="2.39103">
        <ele>1199.4</ele>
        <time>2019-01-18T03:30:43Z</time>
      </trkpt>
      <trkpt lat="42.13534" lon="2.3911">
        <ele>1199.5</ele>
        <time>2019-01-18T03:30:48Z</time>
      </trkpt>
      <trkpt lat="42.13531" lon="2.39119">
        <ele>1200.4</ele>
        <time>2019-01-18T03:30:54Z</time>
      </trkpt>
      <trkpt lat="42.13526" lon="2.39134">
        <ele>1200.4</ele>
        <time>2019-01-18T03:31:03Z</time>
      </trkpt>
      <trkpt lat="42.13522" lon="2.39148">
        <ele>1200.8</ele>
        <time>2019-01-18T03:31:13Z</time>
      </trkpt>
      <trkpt lat="42.13522" lon="2.3915">
        <ele>1200.4</ele>
        <time>2019-01-18T03:31:14Z</time>
      </trkpt>
      <trkpt lat="42.13522" lon="2.39158">
        <ele>1200.8</ele>
        <time>2019-01-18T03:31:18Z</time>
      </trkpt>
      <trkpt lat="42.13519" lon="2.39164">
        <ele>1202.7</ele>
        <time>2019-01-18T03:31:23Z</time>
      </trkpt>
      <trkpt lat="42.13518" lon="2.39168">
        <ele>1204.3</ele>
        <time>2019-01-18T03:31:25Z</time>
      </trkpt>
      <trkpt lat="42.13514" lon="2.39176">
        <ele>1205.2</ele>
        <time>2019-01-18T03:31:31Z</time>
      </trkpt>
      <trkpt lat="42.13507" lon="2.39186">
        <ele>1205.2</ele>
        <time>2019-01-18T03:31:39Z</time>
      </trkpt>
      <trkpt lat="42.13503" lon="2.39194">
        <ele>1206.1</ele>
        <time>2019-01-18T03:31:45Z</time>
      </trkpt>
      <trkpt lat="42.13496" lon="2.392">
        <ele>1207.1</ele>
        <time>2019-01-18T03:31:52Z</time>
      </trkpt>
      <trkpt lat="42.13487" lon="2.39208">
        <ele>1208.5</ele>
        <time>2019-01-18T03:32:00Z</time>
      </trkpt>
      <trkpt lat="42.13481" lon="2.39212">
        <ele>1210.1</ele>
        <time>2019-01-18T03:32:06Z</time>
      </trkpt>
      <trkpt lat="42.13474" lon="2.39217">
        <ele>1210.5</ele>
        <time>2019-01-18T03:32:12Z</time>
      </trkpt>
      <trkpt lat="42.1347" lon="2.39222">
        <ele>1212</ele>
        <time>2019-01-18T03:32:17Z</time>
      </trkpt>
      <trkpt lat="42.13464" lon="2.39227">
        <ele>1211.4</ele>
        <time>2019-01-18T03:32:22Z</time>
      </trkpt>
      <trkpt lat="42.13458" lon="2.39237">
        <ele>1210.9</ele>
        <time>2019-01-18T03:32:30Z</time>
      </trkpt>
      <trkpt lat="42.13445" lon="2.39245">
        <ele>1213.3</ele>
        <time>2019-01-18T03:32:41Z</time>
      </trkpt>
      <trkpt lat="42.13442" lon="2.3925">
        <ele>1212.5</ele>
        <time>2019-01-18T03:32:45Z</time>
      </trkpt>
      <trkpt lat="42.13441" lon="2.39255">
        <ele>1212.9</ele>
        <time>2019-01-18T03:32:48Z</time>
      </trkpt>
      <trkpt lat="42.13442" lon="2.39262">
        <ele>1212</ele>
        <time>2019-01-18T03:32:52Z</time>
      </trkpt>
      <trkpt lat="42.13436" lon="2.3927">
        <ele>1210.9</ele>
        <time>2019-01-18T03:32:59Z</time>
      </trkpt>
      <trkpt lat="42.13426" lon="2.39276">
        <ele>1207.7</ele>
        <time>2019-01-18T03:33:07Z</time>
      </trkpt>
      <trkpt lat="42.13419" lon="2.39284">
        <ele>1205.1</ele>
        <time>2019-01-18T03:33:14Z</time>
      </trkpt>
      <trkpt lat="42.13406" lon="2.39284">
        <ele>1206.7</ele>
        <time>2019-01-18T03:33:25Z</time>
      </trkpt>
      <trkpt lat="42.13393" lon="2.39286">
        <ele>1207.2</ele>
        <time>2019-01-18T03:33:36Z</time>
      </trkpt>
      <trkpt lat="42.13387" lon="2.39287">
        <ele>1208.5</ele>
        <time>2019-01-18T03:33:40Z</time>
      </trkpt>
      <trkpt lat="42.13382" lon="2.39291">
        <ele>1209</ele>
        <time>2019-01-18T03:33:45Z</time>
      </trkpt>
      <trkpt lat="42.13368" lon="2.39295">
        <ele>1209.5</ele>
        <time>2019-01-18T03:33:56Z</time>
      </trkpt>
      <trkpt lat="42.1336" lon="2.39297">
        <ele>1209</ele>
        <time>2019-01-18T03:34:03Z</time>
      </trkpt>
      <trkpt lat="42.13358" lon="2.39303">
        <ele>1209.6</ele>
        <time>2019-01-18T03:34:06Z</time>
      </trkpt>
      <trkpt lat="42.13355" lon="2.39306">
        <ele>1210.9</ele>
        <time>2019-01-18T03:34:09Z</time>
      </trkpt>
      <trkpt lat="42.13352" lon="2.39313">
        <ele>1212</ele>
        <time>2019-01-18T03:34:14Z</time>
      </trkpt>
      <trkpt lat="42.1335" lon="2.39322">
        <ele>1212.9</ele>
        <time>2019-01-18T03:34:20Z</time>
      </trkpt>
      <trkpt lat="42.13348" lon="2.39333">
        <ele>1212.9</ele>
        <time>2019-01-18T03:34:27Z</time>
      </trkpt>
      <trkpt lat="42.13342" lon="2.39338">
        <ele>1214.3</ele>
        <time>2019-01-18T03:34:32Z</time>
      </trkpt>
      <trkpt lat="42.13336" lon="2.39343">
        <ele>1213.8</ele>
        <time>2019-01-18T03:34:38Z</time>
      </trkpt>
      <trkpt lat="42.13332" lon="2.3935">
        <ele>1212.4</ele>
        <time>2019-01-18T03:34:43Z</time>
      </trkpt>
      <trkpt lat="42.13328" lon="2.39353">
        <ele>1212.4</ele>
        <time>2019-01-18T03:34:47Z</time>
      </trkpt>
      <trkpt lat="42.13319" lon="2.39357">
        <ele>1211.4</ele>
        <time>2019-01-18T03:34:54Z</time>
      </trkpt>
      <trkpt lat="42.13312" lon="2.39362">
        <ele>1210.1</ele>
        <time>2019-01-18T03:35:00Z</time>
      </trkpt>
      <trkpt lat="42.13311" lon="2.39363">
        <ele>1210.1</ele>
        <time>2019-01-18T03:35:01Z</time>
      </trkpt>
      <trkpt lat="42.13305" lon="2.39366">
        <ele>1210.5</ele>
        <time>2019-01-18T03:35:07Z</time>
      </trkpt>
      <trkpt lat="42.133" lon="2.3937">
        <ele>1212</ele>
        <time>2019-01-18T03:35:11Z</time>
      </trkpt>
      <trkpt lat="42.13295" lon="2.39372">
        <ele>1212.5</ele>
        <time>2019-01-18T03:35:15Z</time>
      </trkpt>
      <trkpt lat="42.13288" lon="2.39376">
        <ele>1212.9</ele>
        <time>2019-01-18T03:35:21Z</time>
      </trkpt>
      <trkpt lat="42.13282" lon="2.39378">
        <ele>1213.3</ele>
        <time>2019-01-18T03:35:27Z</time>
      </trkpt>
      <trkpt lat="42.13275" lon="2.39379">
        <ele>1214.4</ele>
        <time>2019-01-18T03:35:32Z</time>
      </trkpt>
      <trkpt lat="42.13267" lon="2.39379">
        <ele>1215.2</ele>
        <time>2019-01-18T03:35:39Z</time>
      </trkpt>
      <trkpt lat="42.13263" lon="2.39384">
        <ele>1213.3</ele>
        <time>2019-01-18T03:35:43Z</time>
      </trkpt>
      <trkpt lat="42.13265" lon="2.39386">
        <ele>1212</ele>
        <time>2019-01-18T03:35:45Z</time>
      </trkpt>
      <trkpt lat="42.13267" lon="2.39393">
        <ele>1210.9</ele>
        <time>2019-01-18T03:35:50Z</time>
      </trkpt>
      <trkpt lat="42.13264" lon="2.39396">
        <ele>1207.7</ele>
        <time>2019-01-18T03:35:53Z</time>
      </trkpt>
      <trkpt lat="42.13259" lon="2.39397">
        <ele>1207.7</ele>
        <time>2019-01-18T03:35:57Z</time>
      </trkpt>
      <trkpt lat="42.13251" lon="2.39401">
        <ele>1204.3</ele>
        <time>2019-01-18T03:36:03Z</time>
      </trkpt>
      <trkpt lat="42.13248" lon="2.39403">
        <ele>1202.7</ele>
        <time>2019-01-18T03:36:07Z</time>
      </trkpt>
      <trkpt lat="42.13242" lon="2.39401">
        <ele>1202.7</ele>
        <time>2019-01-18T03:36:11Z</time>
      </trkpt>
      <trkpt lat="42.13236" lon="2.394">
        <ele>1201.9</ele>
        <time>2019-01-18T03:36:16Z</time>
      </trkpt>
      <trkpt lat="42.1323" lon="2.394">
        <ele>1201.3</ele>
        <time>2019-01-18T03:36:21Z</time>
      </trkpt>
      <trkpt lat="42.13223" lon="2.39399">
        <ele>1199.4</ele>
        <time>2019-01-18T03:36:26Z</time>
      </trkpt>
      <trkpt lat="42.13215" lon="2.39409">
        <ele>1196</ele>
        <time>2019-01-18T03:36:35Z</time>
      </trkpt>
      <trkpt lat="42.13212" lon="2.3941">
        <ele>1195.2</ele>
        <time>2019-01-18T03:36:38Z</time>
      </trkpt>
      <trkpt lat="42.1321" lon="2.39415">
        <ele>1194.7</ele>
        <time>2019-01-18T03:36:41Z</time>
      </trkpt>
      <trkpt lat="42.13207" lon="2.39424">
        <ele>1195.2</ele>
        <time>2019-01-18T03:36:47Z</time>
      </trkpt>
      <trkpt lat="42.13198" lon="2.39424">
        <ele>1196.1</ele>
        <time>2019-01-18T03:36:54Z</time>
      </trkpt>
      <trkpt lat="42.13194" lon="2.39432">
        <ele>1195.6</ele>
        <time>2019-01-18T03:36:59Z</time>
      </trkpt>
      <trkpt lat="42.13188" lon="2.39439">
        <ele>1195.1</ele>
        <time>2019-01-18T03:37:06Z</time>
      </trkpt>
      <trkpt lat="42.13192" lon="2.3945">
        <ele>1191.8</ele>
        <time>2019-01-18T03:37:13Z</time>
      </trkpt>
      <trkpt lat="42.13195" lon="2.39456">
        <ele>1191.3</ele>
        <time>2019-01-18T03:37:17Z</time>
      </trkpt>
      <trkpt lat="42.13197" lon="2.39461">
        <ele>1187.5</ele>
        <time>2019-01-18T03:37:21Z</time>
      </trkpt>
      <trkpt lat="42.13201" lon="2.39462">
        <ele>1186.9</ele>
        <time>2019-01-18T03:37:24Z</time>
      </trkpt>
      <trkpt lat="42.13202" lon="2.39462">
        <ele>1185.9</ele>
        <time>2019-01-18T03:37:25Z</time>
      </trkpt>
      <trkpt lat="42.13204" lon="2.39471">
        <ele>1183.1</ele>
        <time>2019-01-18T03:37:31Z</time>
      </trkpt>
      <trkpt lat="42.13206" lon="2.39468">
        <ele>1179.7</ele>
        <time>2019-01-18T03:37:33Z</time>
      </trkpt>
      <trkpt lat="42.13209" lon="2.39469">
        <ele>1179.3</ele>
        <time>2019-01-18T03:37:36Z</time>
      </trkpt>
      <trkpt lat="42.13213" lon="2.39469">
        <ele>1177.4</ele>
        <time>2019-01-18T03:37:39Z</time>
      </trkpt>
      <trkpt lat="42.13221" lon="2.39465">
        <ele>1174.4</ele>
        <time>2019-01-18T03:37:46Z</time>
      </trkpt>
      <trkpt lat="42.13224" lon="2.39466">
        <ele>1171.1</ele>
        <time>2019-01-18T03:37:48Z</time>
      </trkpt>
      <trkpt lat="42.13216" lon="2.39474">
        <ele>1167.7</ele>
        <time>2019-01-18T03:37:56Z</time>
      </trkpt>
      <trkpt lat="42.13221" lon="2.39478">
        <ele>1164.9</ele>
        <time>2019-01-18T03:38:00Z</time>
      </trkpt>
      <trkpt lat="42.13215" lon="2.3948">
        <ele>1211.3</ele>
        <time>2019-01-18T03:38:05Z</time>
      </trkpt>
      <trkpt lat="42.13218" lon="2.39476">
        <ele>1211</ele>
        <time>2019-01-18T03:38:08Z</time>
      </trkpt>
      <trkpt lat="42.13221" lon="2.39479">
        <ele>1212.9</ele>
        <time>2019-01-18T03:38:11Z</time>
      </trkpt>
      <trkpt lat="42.13223" lon="2.3948">
        <ele>1213.7</ele>
        <time>2019-01-18T03:38:13Z</time>
      </trkpt>
      <trkpt lat="42.13225" lon="2.39481">
        <ele>1214.2</ele>
        <time>2019-01-18T03:38:14Z</time>
      </trkpt>
      <trkpt lat="42.13231" lon="2.39488">
        <ele>1218.4</ele>
        <time>2019-01-18T03:38:21Z</time>
      </trkpt>
      <trkpt lat="42.13233" lon="2.39488">
        <ele>1218.9</ele>
        <time>2019-01-18T03:38:22Z</time>
      </trkpt>
      <trkpt lat="42.13234" lon="2.39486">
        <ele>1218.7</ele>
        <time>2019-01-18T03:38:24Z</time>
      </trkpt>
      <trkpt lat="42.13235" lon="2.39483">
        <ele>1217.3</ele>
        <time>2019-01-18T03:38:26Z</time>
      </trkpt>
      <trkpt lat="42.13236" lon="2.39483">
        <ele>1218.2</ele>
        <time>2019-01-18T03:38:27Z</time>
      </trkpt>
      <trkpt lat="42.13236" lon="2.39488">
        <ele>1219.7</ele>
        <time>2019-01-18T03:38:30Z</time>
      </trkpt>
      <trkpt lat="42.13235" lon="2.39486">
        <ele>1219</ele>
        <time>2019-01-18T03:38:31Z</time>
      </trkpt>
      <trkpt lat="42.13236" lon="2.39483">
        <ele>1218.3</ele>
        <time>2019-01-18T03:38:33Z</time>
      </trkpt>
      <trkpt lat="42.13239" lon="2.39478">
        <ele>1216.7</ele>
        <time>2019-01-18T03:38:37Z</time>
      </trkpt>
      <trkpt lat="42.1324" lon="2.39475">
        <ele>1215.2</ele>
        <time>2019-01-18T03:38:39Z</time>
      </trkpt>
      <trkpt lat="42.13241" lon="2.39475">
        <ele>1216.2</ele>
        <time>2019-01-18T03:38:40Z</time>
      </trkpt>
      <trkpt lat="42.13241" lon="2.39475">
        <ele>1216.1</ele>
        <time>2019-01-18T03:38:40Z</time>
      </trkpt>
      <trkpt lat="42.13247" lon="2.39478">
        <ele>1218.6</ele>
        <time>2019-01-18T03:38:45Z</time>
      </trkpt>
      <trkpt lat="42.1325" lon="2.39481">
        <ele>1220.6</ele>
        <time>2019-01-18T03:38:48Z</time>
      </trkpt>
      <trkpt lat="42.13254" lon="2.39484">
        <ele>1214.3</ele>
        <time>2019-01-18T03:38:52Z</time>
      </trkpt>
      <trkpt lat="42.13257" lon="2.39487">
        <ele>1211.1</ele>
        <time>2019-01-18T03:38:54Z</time>
      </trkpt>
      <trkpt lat="42.13258" lon="2.39491">
        <ele>1208.8</ele>
        <time>2019-01-18T03:38:57Z</time>
      </trkpt>
      <trkpt lat="42.13254" lon="2.39486">
        <ele>1215</ele>
        <time>2019-01-18T03:39:01Z</time>
      </trkpt>
      <trkpt lat="42.13252" lon="2.39481">
        <ele>1216.3</ele>
        <time>2019-01-18T03:39:04Z</time>
      </trkpt>
      <trkpt lat="42.13257" lon="2.39486">
        <ele>1210.5</ele>
        <time>2019-01-18T03:39:09Z</time>
      </trkpt>
      <trkpt lat="42.1326" lon="2.39491">
        <ele>1205.6</ele>
        <time>2019-01-18T03:39:13Z</time>
      </trkpt>
      <trkpt lat="42.13264" lon="2.39493">
        <ele>1197.9</ele>
        <time>2019-01-18T03:39:16Z</time>
      </trkpt>
      <trkpt lat="42.13265" lon="2.39495">
        <ele>1195.6</ele>
        <time>2019-01-18T03:39:18Z</time>
      </trkpt>
      <trkpt lat="42.13271" lon="2.39505">
        <ele>1186.6</ele>
        <time>2019-01-18T03:39:25Z</time>
      </trkpt>
      <trkpt lat="42.13274" lon="2.39506">
        <ele>1179.1</ele>
        <time>2019-01-18T03:39:28Z</time>
      </trkpt>
      <trkpt lat="42.13277" lon="2.39503">
        <ele>1172.4</ele>
        <time>2019-01-18T03:39:31Z</time>
      </trkpt>
      <trkpt lat="42.13273" lon="2.39497">
        <ele>1180.5</ele>
        <time>2019-01-18T03:39:36Z</time>
      </trkpt>
      <trkpt lat="42.1327" lon="2.39496">
        <ele>1186.4</ele>
        <time>2019-01-18T03:39:39Z</time>
      </trkpt>
      <trkpt lat="42.13267" lon="2.39493">
        <ele>1190.4</ele>
        <time>2019-01-18T03:39:41Z</time>
      </trkpt>
      <trkpt lat="42.13262" lon="2.39489">
        <ele>1199.7</ele>
        <time>2019-01-18T03:39:46Z</time>
      </trkpt>
      <trkpt lat="42.13262" lon="2.39485">
        <ele>1198.8</ele>
        <time>2019-01-18T03:39:49Z</time>
      </trkpt>
      <trkpt lat="42.13263" lon="2.39484">
        <ele>1197.1</ele>
        <time>2019-01-18T03:39:50Z</time>
      </trkpt>
      <trkpt lat="42.13264" lon="2.39486">
        <ele>1195.5</ele>
        <time>2019-01-18T03:39:51Z</time>
      </trkpt>
      <trkpt lat="42.13265" lon="2.39489">
        <ele>1194.5</ele>
        <time>2019-01-18T03:39:53Z</time>
      </trkpt>
      <trkpt lat="42.13266" lon="2.39491">
        <ele>1193.3</ele>
        <time>2019-01-18T03:39:54Z</time>
      </trkpt>
      <trkpt lat="42.1327" lon="2.39491">
        <ele>1184.9</ele>
        <time>2019-01-18T03:39:57Z</time>
      </trkpt>
      <trkpt lat="42.13271" lon="2.39493">
        <ele>1183</ele>
        <time>2019-01-18T03:39:59Z</time>
      </trkpt>
      <trkpt lat="42.13276" lon="2.39492">
        <ele>1172</ele>
        <time>2019-01-18T03:40:03Z</time>
      </trkpt>
      <trkpt lat="42.13286" lon="2.39499">
        <ele>1153.1</ele>
        <time>2019-01-18T03:40:12Z</time>
      </trkpt>
      <trkpt lat="42.13288" lon="2.39503">
        <ele>1148.7</ele>
        <time>2019-01-18T03:40:15Z</time>
      </trkpt>
      <trkpt lat="42.1329" lon="2.39504">
        <ele>1145.2</ele>
        <time>2019-01-18T03:40:17Z</time>
      </trkpt>
      <trkpt lat="42.1329" lon="2.39502">
        <ele>1144.6</ele>
        <time>2019-01-18T03:40:19Z</time>
      </trkpt>
      <trkpt lat="42.13291" lon="2.39502">
        <ele>1141.8</ele>
        <time>2019-01-18T03:40:20Z</time>
      </trkpt>
      <trkpt lat="42.13292" lon="2.39503">
        <ele>1140.4</ele>
        <time>2019-01-18T03:40:21Z</time>
      </trkpt>
      <trkpt lat="42.13291" lon="2.395">
        <ele>1142.7</ele>
        <time>2019-01-18T03:40:23Z</time>
      </trkpt>
      <trkpt lat="42.13288" lon="2.39496">
        <ele>1147.3</ele>
        <time>2019-01-18T03:40:26Z</time>
      </trkpt>
      <trkpt lat="42.13284" lon="2.39489">
        <ele>1156.7</ele>
        <time>2019-01-18T03:40:31Z</time>
      </trkpt>
      <trkpt lat="42.13279" lon="2.39483">
        <ele>1164.4</ele>
        <time>2019-01-18T03:40:36Z</time>
      </trkpt>
      <trkpt lat="42.13278" lon="2.39476">
        <ele>1164.2</ele>
        <time>2019-01-18T03:40:41Z</time>
      </trkpt>
      <trkpt lat="42.1328" lon="2.39467">
        <ele>1161</ele>
        <time>2019-01-18T03:40:46Z</time>
      </trkpt>
      <trkpt lat="42.13282" lon="2.39473">
        <ele>1158.3</ele>
        <time>2019-01-18T03:40:49Z</time>
      </trkpt>
      <trkpt lat="42.13281" lon="2.39478">
        <ele>1159</ele>
        <time>2019-01-18T03:40:52Z</time>
      </trkpt>
      <trkpt lat="42.13281" lon="2.39476">
        <ele>1159.8</ele>
        <time>2019-01-18T03:40:54Z</time>
      </trkpt>
      <trkpt lat="42.13279" lon="2.39474">
        <ele>1163.2</ele>
        <time>2019-01-18T03:40:56Z</time>
      </trkpt>
      <trkpt lat="42.1328" lon="2.39471">
        <ele>1161</ele>
        <time>2019-01-18T03:40:58Z</time>
      </trkpt>
      <trkpt lat="42.13283" lon="2.3947">
        <ele>1154.8</ele>
        <time>2019-01-18T03:41:00Z</time>
      </trkpt>
      <trkpt lat="42.13286" lon="2.39472">
        <ele>1150.2</ele>
        <time>2019-01-18T03:41:03Z</time>
      </trkpt>
      <trkpt lat="42.13287" lon="2.39474">
        <ele>1147.5</ele>
        <time>2019-01-18T03:41:04Z</time>
      </trkpt>
      <trkpt lat="42.13288" lon="2.39476">
        <ele>1146.3</ele>
        <time>2019-01-18T03:41:06Z</time>
      </trkpt>
      <trkpt lat="42.13291" lon="2.39478">
        <ele>1141</ele>
        <time>2019-01-18T03:41:08Z</time>
      </trkpt>
      <trkpt lat="42.13291" lon="2.39476">
        <ele>1140.2</ele>
        <time>2019-01-18T03:41:09Z</time>
      </trkpt>
      <trkpt lat="42.13291" lon="2.39476">
        <ele>1140.3</ele>
        <time>2019-01-18T03:41:09Z</time>
      </trkpt>
      <trkpt lat="42.13295" lon="2.39476">
        <ele>1132.3</ele>
        <time>2019-01-18T03:41:12Z</time>
      </trkpt>
      <trkpt lat="42.13296" lon="2.39474">
        <ele>1130.6</ele>
        <time>2019-01-18T03:41:14Z</time>
      </trkpt>
      <trkpt lat="42.13301" lon="2.39472">
        <ele>1121.7</ele>
        <time>2019-01-18T03:41:18Z</time>
      </trkpt>
      <trkpt lat="42.13303" lon="2.39472">
        <ele>1119.2</ele>
        <time>2019-01-18T03:41:19Z</time>
      </trkpt>
      <trkpt lat="42.13304" lon="2.39471">
        <ele>1116.2</ele>
        <time>2019-01-18T03:41:21Z</time>
      </trkpt>
      <trkpt lat="42.13307" lon="2.39472">
        <ele>1110.2</ele>
        <time>2019-01-18T03:41:23Z</time>
      </trkpt>
      <trkpt lat="42.13309" lon="2.3947">
        <ele>1108.7</ele>
        <time>2019-01-18T03:41:25Z</time>
      </trkpt>
      <trkpt lat="42.13307" lon="2.39486">
        <ele>1109.3</ele>
        <time>2019-01-18T03:41:34Z</time>
      </trkpt>
      <trkpt lat="42.13304" lon="2.39481">
        <ele>1115.3</ele>
        <time>2019-01-18T03:41:37Z</time>
      </trkpt>
      <trkpt lat="42.13303" lon="2.39475">
        <ele>1118.9</ele>
        <time>2019-01-18T03:41:41Z</time>
      </trkpt>
      <trkpt lat="42.13301" lon="2.3947">
        <ele>1121.7</ele>
        <time>2019-01-18T03:41:44Z</time>
      </trkpt>
      <trkpt lat="42.13303" lon="2.39468">
        <ele>1118.5</ele>
        <time>2019-01-18T03:41:46Z</time>
      </trkpt>
      <trkpt lat="42.13305" lon="2.39468">
        <ele>1115.5</ele>
        <time>2019-01-18T03:41:48Z</time>
      </trkpt>
      <trkpt lat="42.13308" lon="2.39465">
        <ele>1111.3</ele>
        <time>2019-01-18T03:41:50Z</time>
      </trkpt>
      <trkpt lat="42.13309" lon="2.39466">
        <ele>1109</ele>
        <time>2019-01-18T03:41:51Z</time>
      </trkpt>
      <trkpt lat="42.13317" lon="2.39473">
        <ele>1092</ele>
        <time>2019-01-18T03:41:59Z</time>
      </trkpt>
      <trkpt lat="42.13323" lon="2.39483">
        <ele>1078.1</ele>
        <time>2019-01-18T03:42:07Z</time>
      </trkpt>
      <trkpt lat="42.13327" lon="2.39492">
        <ele>1067</ele>
        <time>2019-01-18T03:42:13Z</time>
      </trkpt>
      <trkpt lat="42.13327" lon="2.39493">
        <ele>1065.9</ele>
        <time>2019-01-18T03:42:14Z</time>
      </trkpt>
      <trkpt lat="42.13328" lon="2.39495">
        <ele>1062.7</ele>
        <time>2019-01-18T03:42:15Z</time>
      </trkpt>
      <trkpt lat="42.13332" lon="2.39499">
        <ele>1052.7</ele>
        <time>2019-01-18T03:42:19Z</time>
      </trkpt>
      <trkpt lat="42.13335" lon="2.39503">
        <ele>1052.8</ele>
        <time>2019-01-18T03:42:22Z</time>
      </trkpt>
      <trkpt lat="42.13335" lon="2.39506">
        <ele>1055.8</ele>
        <time>2019-01-18T03:42:24Z</time>
      </trkpt>
      <trkpt lat="42.13336" lon="2.39507">
        <ele>1056.8</ele>
        <time>2019-01-18T03:42:25Z</time>
      </trkpt>
      <trkpt lat="42.13334" lon="2.39507">
        <ele>1057.5</ele>
        <time>2019-01-18T03:42:27Z</time>
      </trkpt>
      <trkpt lat="42.13328" lon="2.39504">
        <ele>1065.8</ele>
        <time>2019-01-18T03:42:32Z</time>
      </trkpt>
      <trkpt lat="42.13329" lon="2.39503">
        <ele>1062.2</ele>
        <time>2019-01-18T03:42:33Z</time>
      </trkpt>
      <trkpt lat="42.13332" lon="2.39504">
        <ele>1056.8</ele>
        <time>2019-01-18T03:42:36Z</time>
      </trkpt>
      <trkpt lat="42.13336" lon="2.39504">
        <ele>1052.1</ele>
        <time>2019-01-18T03:42:38Z</time>
      </trkpt>
      <trkpt lat="42.13336" lon="2.39507">
        <ele>1056.8</ele>
        <time>2019-01-18T03:42:41Z</time>
      </trkpt>
      <trkpt lat="42.13336" lon="2.39507">
        <ele>1056.8</ele>
        <time>2019-01-18T03:42:41Z</time>
      </trkpt>
      <trkpt lat="42.13338" lon="2.39505">
        <ele>1052.7</ele>
        <time>2019-01-18T03:42:43Z</time>
      </trkpt>
      <trkpt lat="42.13338" lon="2.39505">
        <ele>1052.7</ele>
        <time>2019-01-18T03:42:43Z</time>
      </trkpt>
      <trkpt lat="42.13339" lon="2.39499">
        <ele>1048.3</ele>
        <time>2019-01-18T03:42:46Z</time>
      </trkpt>
      <trkpt lat="42.13341" lon="2.395">
        <ele>1047.6</ele>
        <time>2019-01-18T03:42:48Z</time>
      </trkpt>
      <trkpt lat="42.13343" lon="2.39498">
        <ele>1047.5</ele>
        <time>2019-01-18T03:42:50Z</time>
      </trkpt>
      <trkpt lat="42.13345" lon="2.39502">
        <ele>1047.1</ele>
        <time>2019-01-18T03:42:52Z</time>
      </trkpt>
      <trkpt lat="42.13352" lon="2.39511">
        <ele>1053.6</ele>
        <time>2019-01-18T03:43:00Z</time>
      </trkpt>
      <trkpt lat="42.13355" lon="2.3951">
        <ele>1051</ele>
        <time>2019-01-18T03:43:02Z</time>
      </trkpt>
      <trkpt lat="42.13356" lon="2.3951">
        <ele>1051.6</ele>
        <time>2019-01-18T03:43:04Z</time>
      </trkpt>
      <trkpt lat="42.13351" lon="2.39503">
        <ele>1046.1</ele>
        <time>2019-01-18T03:43:10Z</time>
      </trkpt>
      <trkpt lat="42.13349" lon="2.395">
        <ele>1044.2</ele>
        <time>2019-01-18T03:43:12Z</time>
      </trkpt>
      <trkpt lat="42.13353" lon="2.395">
        <ele>1042.5</ele>
        <time>2019-01-18T03:43:15Z</time>
      </trkpt>
      <trkpt lat="42.13353" lon="2.39493">
        <ele>1045.2</ele>
        <time>2019-01-18T03:43:19Z</time>
      </trkpt>
      <trkpt lat="42.13349" lon="2.39487">
        <ele>1049.7</ele>
        <time>2019-01-18T03:43:24Z</time>
      </trkpt>
      <trkpt lat="42.13349" lon="2.39485">
        <ele>1050.2</ele>
        <time>2019-01-18T03:43:25Z</time>
      </trkpt>
      <trkpt lat="42.13344" lon="2.39483">
        <ele>1053.6</ele>
        <time>2019-01-18T03:43:29Z</time>
      </trkpt>
      <trkpt lat="42.13347" lon="2.39487">
        <ele>1050</ele>
        <time>2019-01-18T03:43:33Z</time>
      </trkpt>
      <trkpt lat="42.13346" lon="2.39488">
        <ele>1049.9</ele>
        <time>2019-01-18T03:43:34Z</time>
      </trkpt>
      <trkpt lat="42.13347" lon="2.39489">
        <ele>1049.6</ele>
        <time>2019-01-18T03:43:35Z</time>
      </trkpt>
      <trkpt lat="42.13351" lon="2.39491">
        <ele>1046.9</ele>
        <time>2019-01-18T03:43:38Z</time>
      </trkpt>
      <trkpt lat="42.13353" lon="2.39489">
        <ele>1046.3</ele>
        <time>2019-01-18T03:43:40Z</time>
      </trkpt>
      <trkpt lat="42.13356" lon="2.39489">
        <ele>1045.3</ele>
        <time>2019-01-18T03:43:43Z</time>
      </trkpt>
      <trkpt lat="42.13358" lon="2.39486">
        <ele>1045.4</ele>
        <time>2019-01-18T03:43:45Z</time>
      </trkpt>
      <trkpt lat="42.1336" lon="2.39486">
        <ele>1044.4</ele>
        <time>2019-01-18T03:43:47Z</time>
      </trkpt>
      <trkpt lat="42.1336" lon="2.39484">
        <ele>1045</ele>
        <time>2019-01-18T03:43:47Z</time>
      </trkpt>
      <trkpt lat="42.13353" lon="2.39475">
        <ele>1051.7</ele>
        <time>2019-01-18T03:43:56Z</time>
      </trkpt>
      <trkpt lat="42.13352" lon="2.39472">
        <ele>1053.6</ele>
        <time>2019-01-18T03:43:58Z</time>
      </trkpt>
      <trkpt lat="42.13354" lon="2.39471">
        <ele>1053</ele>
        <time>2019-01-18T03:43:59Z</time>
      </trkpt>
      <trkpt lat="42.13359" lon="2.39474">
        <ele>1049.3</ele>
        <time>2019-01-18T03:44:04Z</time>
      </trkpt>
      <trkpt lat="42.13364" lon="2.39475">
        <ele>1046.6</ele>
        <time>2019-01-18T03:44:08Z</time>
      </trkpt>
      <trkpt lat="42.13359" lon="2.39466">
        <ele>1052</ele>
        <time>2019-01-18T03:44:15Z</time>
      </trkpt>
      <trkpt lat="42.13359" lon="2.3946">
        <ele>1053.9</ele>
        <time>2019-01-18T03:44:18Z</time>
      </trkpt>
      <trkpt lat="42.13361" lon="2.39456">
        <ele>1054.1</ele>
        <time>2019-01-18T03:44:21Z</time>
      </trkpt>
      <trkpt lat="42.13365" lon="2.39467">
        <ele>1048.5</ele>
        <time>2019-01-18T03:44:28Z</time>
      </trkpt>
      <trkpt lat="42.1337" lon="2.39474">
        <ele>1043.4</ele>
        <time>2019-01-18T03:44:34Z</time>
      </trkpt>
      <trkpt lat="42.13376" lon="2.39481">
        <ele>1038.9</ele>
        <time>2019-01-18T03:44:40Z</time>
      </trkpt>
      <trkpt lat="42.13379" lon="2.39481">
        <ele>1037.5</ele>
        <time>2019-01-18T03:44:43Z</time>
      </trkpt>
      <trkpt lat="42.13384" lon="2.39486">
        <ele>1033.8</ele>
        <time>2019-01-18T03:44:48Z</time>
      </trkpt>
      <trkpt lat="42.13392" lon="2.39489">
        <ele>1030</ele>
        <time>2019-01-18T03:44:54Z</time>
      </trkpt>
      <trkpt lat="42.13399" lon="2.39498">
        <ele>1025.3</ele>
        <time>2019-01-18T03:45:02Z</time>
      </trkpt>
      <trkpt lat="42.13403" lon="2.395">
        <ele>1023.2</ele>
        <time>2019-01-18T03:45:06Z</time>
      </trkpt>
      <trkpt lat="42.1341" lon="2.39506">
        <ele>1022.7</ele>
        <time>2019-01-18T03:45:12Z</time>
      </trkpt>
      <trkpt lat="42.13415" lon="2.39501">
        <ele>1019.3</ele>
        <time>2019-01-18T03:45:17Z</time>
      </trkpt>
      <trkpt lat="42.13418" lon="2.39503">
        <ele>1018.3</ele>
        <time>2019-01-18T03:45:20Z</time>
      </trkpt>
      <trkpt lat="42.13423" lon="2.39502">
        <ele>1015.1</ele>
        <time>2019-01-18T03:45:23Z</time>
      </trkpt>
      <trkpt lat="42.13437" lon="2.39503">
        <ele>1007.6</ele>
        <time>2019-01-18T03:45:35Z</time>
      </trkpt>
      <trkpt lat="42.13438" lon="2.39517">
        <ele>1012.2</ele>
        <time>2019-01-18T03:45:43Z</time>
      </trkpt>
      <trkpt lat="42.13446" lon="2.39526">
        <ele>1070.1</ele>
        <time>2019-01-18T03:45:52Z</time>
      </trkpt>
      <trkpt lat="42.1345" lon="2.3953">
        <ele>1069.1</ele>
        <time>2019-01-18T03:45:56Z</time>
      </trkpt>
      <trkpt lat="42.13457" lon="2.39533">
        <ele>1068</ele>
        <time>2019-01-18T03:46:02Z</time>
      </trkpt>
      <trkpt lat="42.13465" lon="2.3954">
        <ele>1067.1</ele>
        <time>2019-01-18T03:46:09Z</time>
      </trkpt>
      <trkpt lat="42.13473" lon="2.39548">
        <ele>1067.1</ele>
        <time>2019-01-18T03:46:17Z</time>
      </trkpt>
      <trkpt lat="42.13477" lon="2.39552">
        <ele>1066</ele>
        <time>2019-01-18T03:46:21Z</time>
      </trkpt>
      <trkpt lat="42.13482" lon="2.39551">
        <ele>1065.1</ele>
        <time>2019-01-18T03:46:25Z</time>
      </trkpt>
      <trkpt lat="42.1349" lon="2.39553">
        <ele>1065.1</ele>
        <time>2019-01-18T03:46:32Z</time>
      </trkpt>
      <trkpt lat="42.135" lon="2.3956">
        <ele>1065</ele>
        <time>2019-01-18T03:46:40Z</time>
      </trkpt>
      <trkpt lat="42.13527" lon="2.39617">
        <ele>1046</ele>
        <time>2019-01-18T03:47:20Z</time>
      </trkpt>
      <trkpt lat="42.13543" lon="2.39622">
        <ele>1045.2</ele>
        <time>2019-01-18T03:47:34Z</time>
      </trkpt>
      <trkpt lat="42.13571" lon="2.39633">
        <ele>1044</ele>
        <time>2019-01-18T03:47:57Z</time>
      </trkpt>
      <trkpt lat="42.13579" lon="2.39633">
        <ele>1042.1</ele>
        <time>2019-01-18T03:48:03Z</time>
      </trkpt>
      <trkpt lat="42.13583" lon="2.39635">
        <ele>1041</ele>
        <time>2019-01-18T03:48:07Z</time>
      </trkpt>
      <trkpt lat="42.13587" lon="2.39639">
        <ele>1036.9</ele>
        <time>2019-01-18T03:48:11Z</time>
      </trkpt>
      <trkpt lat="42.13598" lon="2.39647">
        <ele>1035.8</ele>
        <time>2019-01-18T03:48:21Z</time>
      </trkpt>
      <trkpt lat="42.13603" lon="2.39649">
        <ele>1035.4</ele>
        <time>2019-01-18T03:48:25Z</time>
      </trkpt>
      <trkpt lat="42.13608" lon="2.39652">
        <ele>1034.9</ele>
        <time>2019-01-18T03:48:29Z</time>
      </trkpt>
      <trkpt lat="42.13612" lon="2.39654">
        <ele>1033.9</ele>
        <time>2019-01-18T03:48:33Z</time>
      </trkpt>
      <trkpt lat="42.13609" lon="2.39659">
        <ele>1032.7</ele>
        <time>2019-01-18T03:48:36Z</time>
      </trkpt>
      <trkpt lat="42.13605" lon="2.39665">
        <ele>1030.3</ele>
        <time>2019-01-18T03:48:41Z</time>
      </trkpt>
      <trkpt lat="42.13606" lon="2.39673">
        <ele>1028.6</ele>
        <time>2019-01-18T03:48:46Z</time>
      </trkpt>
      <trkpt lat="42.13602" lon="2.39676">
        <ele>1027.5</ele>
        <time>2019-01-18T03:48:49Z</time>
      </trkpt>
      <trkpt lat="42.13606" lon="2.39682">
        <ele>1026.6</ele>
        <time>2019-01-18T03:48:54Z</time>
      </trkpt>
      <trkpt lat="42.13609" lon="2.39687">
        <ele>1025.8</ele>
        <time>2019-01-18T03:48:58Z</time>
      </trkpt>
      <trkpt lat="42.13612" lon="2.39692">
        <ele>1023.1</ele>
        <time>2019-01-18T03:49:02Z</time>
      </trkpt>
      <trkpt lat="42.13616" lon="2.39698">
        <ele>1021.1</ele>
        <time>2019-01-18T03:49:06Z</time>
      </trkpt>
      <trkpt lat="42.13619" lon="2.39703">
        <ele>1020.5</ele>
        <time>2019-01-18T03:49:10Z</time>
      </trkpt>
      <trkpt lat="42.13622" lon="2.39708">
        <ele>1018</ele>
        <time>2019-01-18T03:49:14Z</time>
      </trkpt>
      <trkpt lat="42.1362" lon="2.39715">
        <ele>1016.6</ele>
        <time>2019-01-18T03:49:18Z</time>
      </trkpt>
      <trkpt lat="42.1362" lon="2.39721">
        <ele>1015.5</ele>
        <time>2019-01-18T03:49:22Z</time>
      </trkpt>
      <trkpt lat="42.13618" lon="2.39716">
        <ele>1014.8</ele>
        <time>2019-01-18T03:49:25Z</time>
      </trkpt>
      <trkpt lat="42.13622" lon="2.39717">
        <ele>1012.9</ele>
        <time>2019-01-18T03:49:29Z</time>
      </trkpt>
      <trkpt lat="42.13627" lon="2.39717">
        <ele>1011</ele>
        <time>2019-01-18T03:49:33Z</time>
      </trkpt>
      <trkpt lat="42.13631" lon="2.39722">
        <ele>1008.8</ele>
        <time>2019-01-18T03:49:38Z</time>
      </trkpt>
      <trkpt lat="42.13631" lon="2.39729">
        <ele>1005.2</ele>
        <time>2019-01-18T03:49:42Z</time>
      </trkpt>
      <trkpt lat="42.13635" lon="2.39726">
        <ele>1004.2</ele>
        <time>2019-01-18T03:49:46Z</time>
      </trkpt>
      <trkpt lat="42.13641" lon="2.39723">
        <ele>1002.9</ele>
        <time>2019-01-18T03:49:50Z</time>
      </trkpt>
      <trkpt lat="42.13645" lon="2.39724">
        <ele>998.4</ele>
        <time>2019-01-18T03:49:54Z</time>
      </trkpt>
      <trkpt lat="42.13649" lon="2.3972">
        <ele>995.1</ele>
        <time>2019-01-18T03:49:58Z</time>
      </trkpt>
      <trkpt lat="42.13651" lon="2.39726">
        <ele>994</ele>
        <time>2019-01-18T03:50:01Z</time>
      </trkpt>
      <trkpt lat="42.13652" lon="2.39732">
        <ele>993</ele>
        <time>2019-01-18T03:50:05Z</time>
      </trkpt>
      <trkpt lat="42.13653" lon="2.39738">
        <ele>992.4</ele>
        <time>2019-01-18T03:50:09Z</time>
      </trkpt>
      <trkpt lat="42.1365" lon="2.39743">
        <ele>991.7</ele>
        <time>2019-01-18T03:50:13Z</time>
      </trkpt>
      <trkpt lat="42.13651" lon="2.39749">
        <ele>989.9</ele>
        <time>2019-01-18T03:50:17Z</time>
      </trkpt>
      <trkpt lat="42.13652" lon="2.39756">
        <ele>988.1</ele>
        <time>2019-01-18T03:50:21Z</time>
      </trkpt>
      <trkpt lat="42.13657" lon="2.39753">
        <ele>985.7</ele>
        <time>2019-01-18T03:50:25Z</time>
      </trkpt>
      <trkpt lat="42.1366" lon="2.39749">
        <ele>984.1</ele>
        <time>2019-01-18T03:50:28Z</time>
      </trkpt>
      <trkpt lat="42.13665" lon="2.39742">
        <ele>982.3</ele>
        <time>2019-01-18T03:50:34Z</time>
      </trkpt>
      <trkpt lat="42.13669" lon="2.39739">
        <ele>980.5</ele>
        <time>2019-01-18T03:50:38Z</time>
      </trkpt>
      <trkpt lat="42.13673" lon="2.39736">
        <ele>979.5</ele>
        <time>2019-01-18T03:50:42Z</time>
      </trkpt>
      <trkpt lat="42.13677" lon="2.39733">
        <ele>978.5</ele>
        <time>2019-01-18T03:50:45Z</time>
      </trkpt>
      <trkpt lat="42.13681" lon="2.39727">
        <ele>977.2</ele>
        <time>2019-01-18T03:50:50Z</time>
      </trkpt>
      <trkpt lat="42.13683" lon="2.39721">
        <ele>976.5</ele>
        <time>2019-01-18T03:50:54Z</time>
      </trkpt>
      <trkpt lat="42.13688" lon="2.3972">
        <ele>975.9</ele>
        <time>2019-01-18T03:50:58Z</time>
      </trkpt>
      <trkpt lat="42.13688" lon="2.39713">
        <ele>975.1</ele>
        <time>2019-01-18T03:51:02Z</time>
      </trkpt>
      <trkpt lat="42.1369" lon="2.39708">
        <ele>974.9</ele>
        <time>2019-01-18T03:51:06Z</time>
      </trkpt>
      <trkpt lat="42.13691" lon="2.39702">
        <ele>975.3</ele>
        <time>2019-01-18T03:51:09Z</time>
      </trkpt>
      <trkpt lat="42.13688" lon="2.39697">
        <ele>975.7</ele>
        <time>2019-01-18T03:51:13Z</time>
      </trkpt>
      <trkpt lat="42.13689" lon="2.39689">
        <ele>975.6</ele>
        <time>2019-01-18T03:51:18Z</time>
      </trkpt>
      <trkpt lat="42.13692" lon="2.39683">
        <ele>975.6</ele>
        <time>2019-01-18T03:51:22Z</time>
      </trkpt>
      <trkpt lat="42.13691" lon="2.39677">
        <ele>975.6</ele>
        <time>2019-01-18T03:51:26Z</time>
      </trkpt>
      <trkpt lat="42.13694" lon="2.39681">
        <ele>975.1</ele>
        <time>2019-01-18T03:51:29Z</time>
      </trkpt>
      <trkpt lat="42.13696" lon="2.39689">
        <ele>975.6</ele>
        <time>2019-01-18T03:51:34Z</time>
      </trkpt>
      <trkpt lat="42.13693" lon="2.39694">
        <ele>975.3</ele>
        <time>2019-01-18T03:51:38Z</time>
      </trkpt>
      <trkpt lat="42.13688" lon="2.39697">
        <ele>974.5</ele>
        <time>2019-01-18T03:51:42Z</time>
      </trkpt>
      <trkpt lat="42.13684" lon="2.39693">
        <ele>974.5</ele>
        <time>2019-01-18T03:51:46Z</time>
      </trkpt>
      <trkpt lat="42.13689" lon="2.39693">
        <ele>973.9</ele>
        <time>2019-01-18T03:51:50Z</time>
      </trkpt>
      <trkpt lat="42.13694" lon="2.39695">
        <ele>973.7</ele>
        <time>2019-01-18T03:51:54Z</time>
      </trkpt>
      <trkpt lat="42.13696" lon="2.39701">
        <ele>970.2</ele>
        <time>2019-01-18T03:51:58Z</time>
      </trkpt>
      <trkpt lat="42.137" lon="2.39704">
        <ele>969.9</ele>
        <time>2019-01-18T03:52:01Z</time>
      </trkpt>
      <trkpt lat="42.13696" lon="2.39705">
        <ele>968</ele>
        <time>2019-01-18T03:52:05Z</time>
      </trkpt>
      <trkpt lat="42.13693" lon="2.397">
        <ele>967.6</ele>
        <time>2019-01-18T03:52:09Z</time>
      </trkpt>
      <trkpt lat="42.13688" lon="2.39696">
        <ele>966.7</ele>
        <time>2019-01-18T03:52:13Z</time>
      </trkpt>
      <trkpt lat="42.13684" lon="2.39693">
        <ele>965.5</ele>
        <time>2019-01-18T03:52:17Z</time>
      </trkpt>
      <trkpt lat="42.13679" lon="2.39694">
        <ele>965</ele>
        <time>2019-01-18T03:52:21Z</time>
      </trkpt>
      <trkpt lat="42.13675" lon="2.39695">
        <ele>964.3</ele>
        <time>2019-01-18T03:52:25Z</time>
      </trkpt>
      <trkpt lat="42.13673" lon="2.39702">
        <ele>963.1</ele>
        <time>2019-01-18T03:52:29Z</time>
      </trkpt>
      <trkpt lat="42.13668" lon="2.39704">
        <ele>963.1</ele>
        <time>2019-01-18T03:52:34Z</time>
      </trkpt>
      <trkpt lat="42.13668" lon="2.3971">
        <ele>962.4</ele>
        <time>2019-01-18T03:52:37Z</time>
      </trkpt>
      <trkpt lat="42.13678" lon="2.39723">
        <ele>960.8</ele>
        <time>2019-01-18T03:52:49Z</time>
      </trkpt>
      <trkpt lat="42.13681" lon="2.39729">
        <ele>959</ele>
        <time>2019-01-18T03:52:53Z</time>
      </trkpt>
      <trkpt lat="42.13682" lon="2.39736">
        <ele>956.4</ele>
        <time>2019-01-18T03:52:57Z</time>
      </trkpt>
      <trkpt lat="42.13689" lon="2.39733">
        <ele>953.7</ele>
        <time>2019-01-18T03:53:03Z</time>
      </trkpt>
      <trkpt lat="42.13694" lon="2.39731">
        <ele>951.7</ele>
        <time>2019-01-18T03:53:07Z</time>
      </trkpt>
      <trkpt lat="42.13698" lon="2.3973">
        <ele>950.4</ele>
        <time>2019-01-18T03:53:10Z</time>
      </trkpt>
      <trkpt lat="42.13704" lon="2.3973">
        <ele>949.2</ele>
        <time>2019-01-18T03:53:15Z</time>
      </trkpt>
      <trkpt lat="42.13708" lon="2.39733">
        <ele>947.1</ele>
        <time>2019-01-18T03:53:19Z</time>
      </trkpt>
      <trkpt lat="42.13711" lon="2.39742">
        <ele>946.3</ele>
        <time>2019-01-18T03:53:25Z</time>
      </trkpt>
      <trkpt lat="42.13717" lon="2.39745">
        <ele>944.8</ele>
        <time>2019-01-18T03:53:30Z</time>
      </trkpt>
      <trkpt lat="42.13721" lon="2.39749">
        <ele>943.4</ele>
        <time>2019-01-18T03:53:34Z</time>
      </trkpt>
      <trkpt lat="42.13726" lon="2.39753">
        <ele>942.9</ele>
        <time>2019-01-18T03:53:39Z</time>
      </trkpt>
      <trkpt lat="42.13731" lon="2.39752">
        <ele>941.7</ele>
        <time>2019-01-18T03:53:42Z</time>
      </trkpt>
      <trkpt lat="42.1374" lon="2.3975">
        <ele>940.8</ele>
        <time>2019-01-18T03:53:50Z</time>
      </trkpt>
      <trkpt lat="42.13732" lon="2.39744">
        <ele>940.3</ele>
        <time>2019-01-18T03:53:58Z</time>
      </trkpt>
      <trkpt lat="42.13726" lon="2.39747">
        <ele>937</ele>
        <time>2019-01-18T03:54:02Z</time>
      </trkpt>
      <trkpt lat="42.13716" lon="2.39743">
        <ele>932.3</ele>
        <time>2019-01-18T03:54:11Z</time>
      </trkpt>
      <trkpt lat="42.13716" lon="2.3975">
        <ele>931</ele>
        <time>2019-01-18T03:54:15Z</time>
      </trkpt>
      <trkpt lat="42.13721" lon="2.39755">
        <ele>930.1</ele>
        <time>2019-01-18T03:54:20Z</time>
      </trkpt>
      <trkpt lat="42.13727" lon="2.39755">
        <ele>929</ele>
        <time>2019-01-18T03:54:25Z</time>
      </trkpt>
      <trkpt lat="42.13732" lon="2.39759">
        <ele>928.1</ele>
        <time>2019-01-18T03:54:29Z</time>
      </trkpt>
      <trkpt lat="42.13736" lon="2.39763">
        <ele>926.7</ele>
        <time>2019-01-18T03:54:33Z</time>
      </trkpt>
      <trkpt lat="42.13742" lon="2.39762">
        <ele>925.7</ele>
        <time>2019-01-18T03:54:38Z</time>
      </trkpt>
      <trkpt lat="42.13744" lon="2.39756">
        <ele>923.8</ele>
        <time>2019-01-18T03:54:42Z</time>
      </trkpt>
      <trkpt lat="42.13754" lon="2.39758">
        <ele>923.2</ele>
        <time>2019-01-18T03:54:50Z</time>
      </trkpt>
      <trkpt lat="42.13751" lon="2.39754">
        <ele>922.2</ele>
        <time>2019-01-18T03:54:54Z</time>
      </trkpt>
      <trkpt lat="42.13748" lon="2.39748">
        <ele>920.5</ele>
        <time>2019-01-18T03:54:58Z</time>
      </trkpt>
      <trkpt lat="42.13752" lon="2.39751">
        <ele>919.5</ele>
        <time>2019-01-18T03:55:02Z</time>
      </trkpt>
      <trkpt lat="42.13753" lon="2.39744">
        <ele>918.5</ele>
        <time>2019-01-18T03:55:06Z</time>
      </trkpt>
      <trkpt lat="42.13753" lon="2.39737">
        <ele>917.1</ele>
        <time>2019-01-18T03:55:10Z</time>
      </trkpt>
      <trkpt lat="42.13752" lon="2.39731">
        <ele>917</ele>
        <time>2019-01-18T03:55:14Z</time>
      </trkpt>
      <trkpt lat="42.13756" lon="2.39728">
        <ele>915.5</ele>
        <time>2019-01-18T03:55:18Z</time>
      </trkpt>
      <trkpt lat="42.1376" lon="2.39733">
        <ele>912</ele>
        <time>2019-01-18T03:55:22Z</time>
      </trkpt>
      <trkpt lat="42.13764" lon="2.39732">
        <ele>911</ele>
        <time>2019-01-18T03:55:26Z</time>
      </trkpt>
      <trkpt lat="42.13772" lon="2.39733">
        <ele>910.2</ele>
        <time>2019-01-18T03:55:32Z</time>
      </trkpt>
      <trkpt lat="42.1378" lon="2.39735">
        <ele>909.1</ele>
        <time>2019-01-18T03:55:39Z</time>
      </trkpt>
      <trkpt lat="42.13785" lon="2.39738">
        <ele>906.5</ele>
        <time>2019-01-18T03:55:43Z</time>
      </trkpt>
      <trkpt lat="42.13779" lon="2.39735">
        <ele>904.8</ele>
        <time>2019-01-18T03:55:48Z</time>
      </trkpt>
      <trkpt lat="42.13785" lon="2.39735">
        <ele>904.2</ele>
        <time>2019-01-18T03:55:53Z</time>
      </trkpt>
      <trkpt lat="42.1379" lon="2.39731">
        <ele>903.4</ele>
        <time>2019-01-18T03:55:58Z</time>
      </trkpt>
      <trkpt lat="42.13795" lon="2.39728">
        <ele>901.8</ele>
        <time>2019-01-18T03:56:02Z</time>
      </trkpt>
      <trkpt lat="42.13799" lon="2.39727">
        <ele>899.8</ele>
        <time>2019-01-18T03:56:06Z</time>
      </trkpt>
      <trkpt lat="42.13801" lon="2.39733">
        <ele>898.5</ele>
        <time>2019-01-18T03:56:10Z</time>
      </trkpt>
      <trkpt lat="42.13807" lon="2.39731">
        <ele>897.3</ele>
        <time>2019-01-18T03:56:14Z</time>
      </trkpt>
      <trkpt lat="42.13813" lon="2.39735">
        <ele>896.1</ele>
        <time>2019-01-18T03:56:20Z</time>
      </trkpt>
      <trkpt lat="42.13816" lon="2.3974">
        <ele>894.3</ele>
        <time>2019-01-18T03:56:23Z</time>
      </trkpt>
      <trkpt lat="42.13813" lon="2.39732">
        <ele>892.6</ele>
        <time>2019-01-18T03:56:29Z</time>
      </trkpt>
      <trkpt lat="42.13815" lon="2.39727">
        <ele>890.1</ele>
        <time>2019-01-18T03:56:32Z</time>
      </trkpt>
      <trkpt lat="42.13822" lon="2.39729">
        <ele>889.3</ele>
        <time>2019-01-18T03:56:38Z</time>
      </trkpt>
      <trkpt lat="42.13826" lon="2.39726">
        <ele>888.2</ele>
        <time>2019-01-18T03:56:41Z</time>
      </trkpt>
      <trkpt lat="42.13831" lon="2.39722">
        <ele>887.6</ele>
        <time>2019-01-18T03:56:46Z</time>
      </trkpt>
      <trkpt lat="42.13833" lon="2.39717">
        <ele>886.2</ele>
        <time>2019-01-18T03:56:50Z</time>
      </trkpt>
      <trkpt lat="42.13837" lon="2.39713">
        <ele>885.7</ele>
        <time>2019-01-18T03:56:54Z</time>
      </trkpt>
      <trkpt lat="42.13841" lon="2.39709">
        <ele>884.8</ele>
        <time>2019-01-18T03:56:58Z</time>
      </trkpt>
      <trkpt lat="42.13845" lon="2.39704">
        <ele>884.2</ele>
        <time>2019-01-18T03:57:01Z</time>
      </trkpt>
      <trkpt lat="42.13846" lon="2.39698">
        <ele>882.5</ele>
        <time>2019-01-18T03:57:05Z</time>
      </trkpt>
      <trkpt lat="42.13845" lon="2.39691">
        <ele>879</ele>
        <time>2019-01-18T03:57:09Z</time>
      </trkpt>
      <trkpt lat="42.13846" lon="2.39697">
        <ele>878.4</ele>
        <time>2019-01-18T03:57:13Z</time>
      </trkpt>
      <trkpt lat="42.13846" lon="2.39708">
        <ele>876.5</ele>
        <time>2019-01-18T03:57:19Z</time>
      </trkpt>
      <trkpt lat="42.13849" lon="2.39716">
        <ele>875.2</ele>
        <time>2019-01-18T03:57:24Z</time>
      </trkpt>
      <trkpt lat="42.13852" lon="2.39723">
        <ele>873.9</ele>
        <time>2019-01-18T03:57:29Z</time>
      </trkpt>
      <trkpt lat="42.13855" lon="2.39727">
        <ele>869.9</ele>
        <time>2019-01-18T03:57:33Z</time>
      </trkpt>
      <trkpt lat="42.1386" lon="2.39725">
        <ele>868</ele>
        <time>2019-01-18T03:57:37Z</time>
      </trkpt>
      <trkpt lat="42.13868" lon="2.39726">
        <ele>868</ele>
        <time>2019-01-18T03:57:43Z</time>
      </trkpt>
      <trkpt lat="42.13873" lon="2.39727">
        <ele>863.6</ele>
        <time>2019-01-18T03:57:47Z</time>
      </trkpt>
      <trkpt lat="42.13876" lon="2.39731">
        <ele>862.7</ele>
        <time>2019-01-18T03:57:51Z</time>
      </trkpt>
      <trkpt lat="42.13879" lon="2.39737">
        <ele>861.7</ele>
        <time>2019-01-18T03:57:55Z</time>
      </trkpt>
      <trkpt lat="42.13883" lon="2.39742">
        <ele>860.3</ele>
        <time>2019-01-18T03:57:59Z</time>
      </trkpt>
      <trkpt lat="42.13888" lon="2.39744">
        <ele>859</ele>
        <time>2019-01-18T03:58:03Z</time>
      </trkpt>
      <trkpt lat="42.13892" lon="2.39748">
        <ele>851.1</ele>
        <time>2019-01-18T03:58:08Z</time>
      </trkpt>
      <trkpt lat="42.13893" lon="2.39756">
        <ele>848.1</ele>
        <time>2019-01-18T03:58:12Z</time>
      </trkpt>
      <trkpt lat="42.13898" lon="2.39751">
        <ele>844.6</ele>
        <time>2019-01-18T03:58:16Z</time>
      </trkpt>
      <trkpt lat="42.13902" lon="2.39748">
        <ele>843.3</ele>
        <time>2019-01-18T03:58:21Z</time>
      </trkpt>
      <trkpt lat="42.13907" lon="2.39745">
        <ele>842.6</ele>
        <time>2019-01-18T03:58:25Z</time>
      </trkpt>
      <trkpt lat="42.13911" lon="2.39739">
        <ele>841.3</ele>
        <time>2019-01-18T03:58:29Z</time>
      </trkpt>
      <trkpt lat="42.13915" lon="2.39743">
        <ele>840.9</ele>
        <time>2019-01-18T03:58:33Z</time>
      </trkpt>
      <trkpt lat="42.13919" lon="2.39746">
        <ele>839.5</ele>
        <time>2019-01-18T03:58:37Z</time>
      </trkpt>
      <trkpt lat="42.13913" lon="2.39744">
        <ele>838.8</ele>
        <time>2019-01-18T03:58:42Z</time>
      </trkpt>
      <trkpt lat="42.13909" lon="2.39748">
        <ele>838</ele>
        <time>2019-01-18T03:58:46Z</time>
      </trkpt>
      <trkpt lat="42.13911" lon="2.39756">
        <ele>837.1</ele>
        <time>2019-01-18T03:58:51Z</time>
      </trkpt>
      <trkpt lat="42.13916" lon="2.39758">
        <ele>837.6</ele>
        <time>2019-01-18T03:58:55Z</time>
      </trkpt>
      <trkpt lat="42.13921" lon="2.39762">
        <ele>835.7</ele>
        <time>2019-01-18T03:58:59Z</time>
      </trkpt>
      <trkpt lat="42.13925" lon="2.39766">
        <ele>835.4</ele>
        <time>2019-01-18T03:59:03Z</time>
      </trkpt>
      <trkpt lat="42.13926" lon="2.39773">
        <ele>834.3</ele>
        <time>2019-01-18T03:59:07Z</time>
      </trkpt>
      <trkpt lat="42.13922" lon="2.39778">
        <ele>830.5</ele>
        <time>2019-01-18T03:59:11Z</time>
      </trkpt>
      <trkpt lat="42.13928" lon="2.39775">
        <ele>829.8</ele>
        <time>2019-01-18T03:59:16Z</time>
      </trkpt>
      <trkpt lat="42.13932" lon="2.39773">
        <ele>829.5</ele>
        <time>2019-01-18T03:59:19Z</time>
      </trkpt>
      <trkpt lat="42.13935" lon="2.39768">
        <ele>828.9</ele>
        <time>2019-01-18T03:59:23Z</time>
      </trkpt>
      <trkpt lat="42.13939" lon="2.39764">
        <ele>828.6</ele>
        <time>2019-01-18T03:59:27Z</time>
      </trkpt>
      <trkpt lat="42.13942" lon="2.39759">
        <ele>827.5</ele>
        <time>2019-01-18T03:59:31Z</time>
      </trkpt>
      <trkpt lat="42.13947" lon="2.39758">
        <ele>825.7</ele>
        <time>2019-01-18T03:59:35Z</time>
      </trkpt>
      <trkpt lat="42.1395" lon="2.39753">
        <ele>823.1</ele>
        <time>2019-01-18T03:59:38Z</time>
      </trkpt>
      <trkpt lat="42.13954" lon="2.39748">
        <ele>820</ele>
        <time>2019-01-18T03:59:43Z</time>
      </trkpt>
      <trkpt lat="42.13958" lon="2.39744">
        <ele>819</ele>
        <time>2019-01-18T03:59:47Z</time>
      </trkpt>
      <trkpt lat="42.13962" lon="2.39742">
        <ele>818.1</ele>
        <time>2019-01-18T03:59:50Z</time>
      </trkpt>
      <trkpt lat="42.13965" lon="2.39734">
        <ele>814.1</ele>
        <time>2019-01-18T03:59:56Z</time>
      </trkpt>
      <trkpt lat="42.13975" lon="2.39739">
        <ele>812.1</ele>
        <time>2019-01-18T04:00:04Z</time>
      </trkpt>
      <trkpt lat="42.13982" lon="2.39744">
        <ele>811</ele>
        <time>2019-01-18T04:00:10Z</time>
      </trkpt>
      <trkpt lat="42.13986" lon="2.39748">
        <ele>810</ele>
        <time>2019-01-18T04:00:15Z</time>
      </trkpt>
      <trkpt lat="42.13994" lon="2.39751">
        <ele>808</ele>
        <time>2019-01-18T04:00:21Z</time>
      </trkpt>
      <trkpt lat="42.13997" lon="2.39756">
        <ele>804</ele>
        <time>2019-01-18T04:00:25Z</time>
      </trkpt>
      <trkpt lat="42.14004" lon="2.39754">
        <ele>802.1</ele>
        <time>2019-01-18T04:00:31Z</time>
      </trkpt>
      <trkpt lat="42.13999" lon="2.39756">
        <ele>801</ele>
        <time>2019-01-18T04:00:35Z</time>
      </trkpt>
      <trkpt lat="42.13987" lon="2.3976">
        <ele>800</ele>
        <time>2019-01-18T04:00:45Z</time>
      </trkpt>
      <trkpt lat="42.13976" lon="2.39767">
        <ele>797.1</ele>
        <time>2019-01-18T04:00:55Z</time>
      </trkpt>
      <trkpt lat="42.13982" lon="2.39767">
        <ele>795</ele>
        <time>2019-01-18T04:01:00Z</time>
      </trkpt>
      <trkpt lat="42.13987" lon="2.39762">
        <ele>793.1</ele>
        <time>2019-01-18T04:01:04Z</time>
      </trkpt>
      <trkpt lat="42.13992" lon="2.39763">
        <ele>793.1</ele>
        <time>2019-01-18T04:01:09Z</time>
      </trkpt>
      <trkpt lat="42.13998" lon="2.39762">
        <ele>791.1</ele>
        <time>2019-01-18T04:01:13Z</time>
      </trkpt>
      <trkpt lat="42.14005" lon="2.39758">
        <ele>789</ele>
        <time>2019-01-18T04:01:19Z</time>
      </trkpt>
      <trkpt lat="42.14009" lon="2.39761">
        <ele>785</ele>
        <time>2019-01-18T04:01:23Z</time>
      </trkpt>
      <trkpt lat="42.14014" lon="2.39761">
        <ele>783.1</ele>
        <time>2019-01-18T04:01:27Z</time>
      </trkpt>
      <trkpt lat="42.14022" lon="2.39761">
        <ele>782</ele>
        <time>2019-01-18T04:01:33Z</time>
      </trkpt>
      <trkpt lat="42.14027" lon="2.39761">
        <ele>781</ele>
        <time>2019-01-18T04:01:38Z</time>
      </trkpt>
      <trkpt lat="42.14037" lon="2.39762">
        <ele>778</ele>
        <time>2019-01-18T04:01:46Z</time>
      </trkpt>
      <trkpt lat="42.14045" lon="2.39761">
        <ele>776.1</ele>
        <time>2019-01-18T04:01:52Z</time>
      </trkpt>
      <trkpt lat="42.1405" lon="2.3976">
        <ele>774.1</ele>
        <time>2019-01-18T04:01:56Z</time>
      </trkpt>
      <trkpt lat="42.14052" lon="2.39752">
        <ele>772</ele>
        <time>2019-01-18T04:02:01Z</time>
      </trkpt>
      <trkpt lat="42.14051" lon="2.3976">
        <ele>767</ele>
        <time>2019-01-18T04:02:05Z</time>
      </trkpt>
      <trkpt lat="42.14056" lon="2.39762">
        <ele>766</ele>
        <time>2019-01-18T04:02:09Z</time>
      </trkpt>
      <trkpt lat="42.14064" lon="2.39765">
        <ele>765</ele>
        <time>2019-01-18T04:02:16Z</time>
      </trkpt>
      <trkpt lat="42.14074" lon="2.3977">
        <ele>763</ele>
        <time>2019-01-18T04:02:25Z</time>
      </trkpt>
      <trkpt lat="42.14081" lon="2.39772">
        <ele>761</ele>
        <time>2019-01-18T04:02:30Z</time>
      </trkpt>
      <trkpt lat="42.14076" lon="2.39776">
        <ele>760.1</ele>
        <time>2019-01-18T04:02:35Z</time>
      </trkpt>
      <trkpt lat="42.1407" lon="2.39768">
        <ele>758.1</ele>
        <time>2019-01-18T04:02:41Z</time>
      </trkpt>
      <trkpt lat="42.14075" lon="2.39766">
        <ele>756.1</ele>
        <time>2019-01-18T04:02:45Z</time>
      </trkpt>
      <trkpt lat="42.14083" lon="2.39765">
        <ele>754</ele>
        <time>2019-01-18T04:02:52Z</time>
      </trkpt>
      <trkpt lat="42.14083" lon="2.39758">
        <ele>751</ele>
        <time>2019-01-18T04:02:56Z</time>
      </trkpt>
      <trkpt lat="42.14075" lon="2.39749">
        <ele>750</ele>
        <time>2019-01-18T04:03:05Z</time>
      </trkpt>
      <trkpt lat="42.1408" lon="2.39741">
        <ele>748.1</ele>
        <time>2019-01-18T04:03:11Z</time>
      </trkpt>
      <trkpt lat="42.14085" lon="2.39737">
        <ele>747.1</ele>
        <time>2019-01-18T04:03:15Z</time>
      </trkpt>
      <trkpt lat="42.14097" lon="2.39735">
        <ele>746.1</ele>
        <time>2019-01-18T04:03:25Z</time>
      </trkpt>
      <trkpt lat="42.14112" lon="2.3975">
        <ele>745.1</ele>
        <time>2019-01-18T04:03:40Z</time>
      </trkpt>
      <trkpt lat="42.14123" lon="2.39758">
        <ele>744</ele>
        <time>2019-01-18T04:03:50Z</time>
      </trkpt>
      <trkpt lat="42.14117" lon="2.39754">
        <ele>742</ele>
        <time>2019-01-18T04:03:55Z</time>
      </trkpt>
      <trkpt lat="42.14123" lon="2.39745">
        <ele>740.1</ele>
        <time>2019-01-18T04:04:02Z</time>
      </trkpt>
      <trkpt lat="42.14127" lon="2.39741">
        <ele>739.1</ele>
        <time>2019-01-18T04:04:06Z</time>
      </trkpt>
      <trkpt lat="42.14131" lon="2.39732">
        <ele>736.1</ele>
        <time>2019-01-18T04:04:12Z</time>
      </trkpt>
      <trkpt lat="42.14141" lon="2.39729">
        <ele>735.1</ele>
        <time>2019-01-18T04:04:21Z</time>
      </trkpt>
      <trkpt lat="42.14148" lon="2.39725">
        <ele>734.1</ele>
        <time>2019-01-18T04:04:27Z</time>
      </trkpt>
      <trkpt lat="42.14153" lon="2.39717">
        <ele>732</ele>
        <time>2019-01-18T04:04:33Z</time>
      </trkpt>
      <trkpt lat="42.14162" lon="2.39722">
        <ele>731.1</ele>
        <time>2019-01-18T04:04:40Z</time>
      </trkpt>
      <trkpt lat="42.14166" lon="2.39721">
        <ele>728.1</ele>
        <time>2019-01-18T04:04:44Z</time>
      </trkpt>
      <trkpt lat="42.14161" lon="2.39718">
        <ele>724</ele>
        <time>2019-01-18T04:04:48Z</time>
      </trkpt>
      <trkpt lat="42.14169" lon="2.3972">
        <ele>723</ele>
        <time>2019-01-18T04:04:55Z</time>
      </trkpt>
      <trkpt lat="42.14181" lon="2.39717">
        <ele>721</ele>
        <time>2019-01-18T04:05:04Z</time>
      </trkpt>
      <trkpt lat="42.14186" lon="2.39712">
        <ele>719</ele>
        <time>2019-01-18T04:05:10Z</time>
      </trkpt>
      <trkpt lat="42.1419" lon="2.39709">
        <ele>718.1</ele>
        <time>2019-01-18T04:05:13Z</time>
      </trkpt>
      <trkpt lat="42.14198" lon="2.3971">
        <ele>717.1</ele>
        <time>2019-01-18T04:05:19Z</time>
      </trkpt>
      <trkpt lat="42.14204" lon="2.39711">
        <ele>716.1</ele>
        <time>2019-01-18T04:05:24Z</time>
      </trkpt>
      <trkpt lat="42.1421" lon="2.39718">
        <ele>714.1</ele>
        <time>2019-01-18T04:05:30Z</time>
      </trkpt>
      <trkpt lat="42.1421" lon="2.39726">
        <ele>712.1</ele>
        <time>2019-01-18T04:05:35Z</time>
      </trkpt>
      <trkpt lat="42.14215" lon="2.39725">
        <ele>710.1</ele>
        <time>2019-01-18T04:05:39Z</time>
      </trkpt>
      <trkpt lat="42.14221" lon="2.39728">
        <ele>709.1</ele>
        <time>2019-01-18T04:05:44Z</time>
      </trkpt>
      <trkpt lat="42.14226" lon="2.39731">
        <ele>708.1</ele>
        <time>2019-01-18T04:05:49Z</time>
      </trkpt>
      <trkpt lat="42.14232" lon="2.39733">
        <ele>707</ele>
        <time>2019-01-18T04:05:54Z</time>
      </trkpt>
      <trkpt lat="42.14238" lon="2.39736">
        <ele>707</ele>
        <time>2019-01-18T04:05:58Z</time>
      </trkpt>
      <trkpt lat="42.14242" lon="2.39738">
        <ele>705</ele>
        <time>2019-01-18T04:06:02Z</time>
      </trkpt>
      <trkpt lat="42.14245" lon="2.39744">
        <ele>704</ele>
        <time>2019-01-18T04:06:06Z</time>
      </trkpt>
      <trkpt lat="42.14249" lon="2.39746">
        <ele>701.1</ele>
        <time>2019-01-18T04:06:10Z</time>
      </trkpt>
      <trkpt lat="42.14251" lon="2.3974">
        <ele>696.1</ele>
        <time>2019-01-18T04:06:14Z</time>
      </trkpt>
      <trkpt lat="42.14255" lon="2.39744">
        <ele>696</ele>
        <time>2019-01-18T04:06:18Z</time>
      </trkpt>
      <trkpt lat="42.1426" lon="2.39745">
        <ele>695.1</ele>
        <time>2019-01-18T04:06:22Z</time>
      </trkpt>
      <trkpt lat="42.14265" lon="2.39748">
        <ele>695.1</ele>
        <time>2019-01-18T04:06:27Z</time>
      </trkpt>
      <trkpt lat="42.14269" lon="2.39753">
        <ele>692.1</ele>
        <time>2019-01-18T04:06:31Z</time>
      </trkpt>
      <trkpt lat="42.14263" lon="2.39756">
        <ele>690.1</ele>
        <time>2019-01-18T04:06:36Z</time>
      </trkpt>
      <trkpt lat="42.14273" lon="2.39761">
        <ele>690.1</ele>
        <time>2019-01-18T04:06:45Z</time>
      </trkpt>
      <trkpt lat="42.14279" lon="2.39764">
        <ele>687</ele>
        <time>2019-01-18T04:06:50Z</time>
      </trkpt>
      <trkpt lat="42.14284" lon="2.39766">
        <ele>686.1</ele>
        <time>2019-01-18T04:06:54Z</time>
      </trkpt>
      <trkpt lat="42.14295" lon="2.39759">
        <ele>685</ele>
        <time>2019-01-18T04:07:04Z</time>
      </trkpt>
      <trkpt lat="42.14301" lon="2.39757">
        <ele>685</ele>
        <time>2019-01-18T04:07:09Z</time>
      </trkpt>
      <trkpt lat="42.14307" lon="2.39759">
        <ele>685.1</ele>
        <time>2019-01-18T04:07:14Z</time>
      </trkpt>
      <trkpt lat="42.14312" lon="2.3976">
        <ele>684.1</ele>
        <time>2019-01-18T04:07:18Z</time>
      </trkpt>
      <trkpt lat="42.14321" lon="2.39757">
        <ele>683.1</ele>
        <time>2019-01-18T04:07:25Z</time>
      </trkpt>
      <trkpt lat="42.1433" lon="2.39757">
        <ele>670.1</ele>
        <time>2019-01-18T04:07:32Z</time>
      </trkpt>
      <trkpt lat="42.14463" lon="2.3991">
        <ele>661</ele>
        <time>2019-01-18T04:09:52Z</time>
      </trkpt>
      <trkpt lat="42.14459" lon="2.39861">
        <ele>658.1</ele>
        <time>2019-01-18T04:10:21Z</time>
      </trkpt>
      <trkpt lat="42.14443" lon="2.39814">
        <ele>656.1</ele>
        <time>2019-01-18T04:10:52Z</time>
      </trkpt>
      <trkpt lat="42.14459" lon="2.39794">
        <ele>654.1</ele>
        <time>2019-01-18T04:11:09Z</time>
      </trkpt>
      <trkpt lat="42.14456" lon="2.39774">
        <ele>653</ele>
        <time>2019-01-18T04:11:21Z</time>
      </trkpt>
      <trkpt lat="42.14448" lon="2.39769">
        <ele>652.1</ele>
        <time>2019-01-18T04:11:28Z</time>
      </trkpt>
      <trkpt lat="42.14439" lon="2.39765">
        <ele>652</ele>
        <time>2019-01-18T04:11:36Z</time>
      </trkpt>
      <trkpt lat="42.14434" lon="2.39759">
        <ele>652</ele>
        <time>2019-01-18T04:11:41Z</time>
      </trkpt>
      <trkpt lat="42.14428" lon="2.39749">
        <ele>651</ele>
        <time>2019-01-18T04:11:48Z</time>
      </trkpt>
      <trkpt lat="42.14443" lon="2.39723">
        <ele>648.1</ele>
        <time>2019-01-18T04:12:08Z</time>
      </trkpt>
      <trkpt lat="42.14447" lon="2.39688">
        <ele>644</ele>
        <time>2019-01-18T04:12:29Z</time>
      </trkpt>
      <trkpt lat="42.14468" lon="2.39634">
        <ele>644.1</ele>
        <time>2019-01-18T04:13:05Z</time>
      </trkpt>
      <trkpt lat="42.14475" lon="2.39631">
        <ele>644.1</ele>
        <time>2019-01-18T04:13:11Z</time>
      </trkpt>
      <trkpt lat="42.1448" lon="2.39629">
        <ele>644.1</ele>
        <time>2019-01-18T04:13:15Z</time>
      </trkpt>
      <trkpt lat="42.1449" lon="2.39624">
        <ele>644</ele>
        <time>2019-01-18T04:13:24Z</time>
      </trkpt>
      <trkpt lat="42.14495" lon="2.39618">
        <ele>644.1</ele>
        <time>2019-01-18T04:13:29Z</time>
      </trkpt>
      <trkpt lat="42.14501" lon="2.39614">
        <ele>644.1</ele>
        <time>2019-01-18T04:13:34Z</time>
      </trkpt>
      <trkpt lat="42.14504" lon="2.3961">
        <ele>644.1</ele>
        <time>2019-01-18T04:13:38Z</time>
      </trkpt>
      <trkpt lat="42.14509" lon="2.39605">
        <ele>644</ele>
        <time>2019-01-18T04:13:43Z</time>
      </trkpt>
      <trkpt lat="42.1451" lon="2.39597">
        <ele>644</ele>
        <time>2019-01-18T04:13:47Z</time>
      </trkpt>
      <trkpt lat="42.14516" lon="2.39599">
        <ele>643.1</ele>
        <time>2019-01-18T04:13:52Z</time>
      </trkpt>
      <trkpt lat="42.1452" lon="2.39589">
        <ele>643.1</ele>
        <time>2019-01-18T04:13:59Z</time>
      </trkpt>
      <trkpt lat="42.14525" lon="2.39582">
        <ele>642</ele>
        <time>2019-01-18T04:14:04Z</time>
      </trkpt>
      <trkpt lat="42.1453" lon="2.39573">
        <ele>641</ele>
        <time>2019-01-18T04:14:11Z</time>
      </trkpt>
      <trkpt lat="42.14539" lon="2.39556">
        <ele>641</ele>
        <time>2019-01-18T04:14:23Z</time>
      </trkpt>
      <trkpt lat="42.14541" lon="2.39546">
        <ele>641</ele>
        <time>2019-01-18T04:14:29Z</time>
      </trkpt>
      <trkpt lat="42.1454" lon="2.39533">
        <ele>640.1</ele>
        <time>2019-01-18T04:14:37Z</time>
      </trkpt>
      <trkpt lat="42.14544" lon="2.39525">
        <ele>640.1</ele>
        <time>2019-01-18T04:14:43Z</time>
      </trkpt>
      <trkpt lat="42.14547" lon="2.39514">
        <ele>641</ele>
        <time>2019-01-18T04:14:50Z</time>
      </trkpt>
      <trkpt lat="42.14559" lon="2.39499">
        <ele>640.1</ele>
        <time>2019-01-18T04:15:03Z</time>
      </trkpt>
      <trkpt lat="42.14537" lon="2.39507">
        <ele>640</ele>
        <time>2019-01-18T04:15:22Z</time>
      </trkpt>
      <trkpt lat="42.14528" lon="2.39517">
        <ele>640</ele>
        <time>2019-01-18T04:15:31Z</time>
      </trkpt>
      <trkpt lat="42.14533" lon="2.39514">
        <ele>632</ele>
        <time>2019-01-18T04:15:35Z</time>
      </trkpt>
      <trkpt lat="42.14533" lon="2.39514">
        <ele>633</ele>
        <time>2019-01-18T04:15:35Z</time>
      </trkpt>
      <trkpt lat="42.14534" lon="2.39504">
        <ele>638.7</ele>
        <time>2019-01-18T04:15:41Z</time>
      </trkpt>
      <trkpt lat="42.14533" lon="2.39503">
        <ele>639.2</ele>
        <time>2019-01-18T04:15:42Z</time>
      </trkpt>
      <trkpt lat="42.14534" lon="2.39497">
        <ele>640</ele>
        <time>2019-01-18T04:15:46Z</time>
      </trkpt>
      <trkpt lat="42.14534" lon="2.39491">
        <ele>640.1</ele>
        <time>2019-01-18T04:15:49Z</time>
      </trkpt>
      <trkpt lat="42.14532" lon="2.39484">
        <ele>640.4</ele>
        <time>2019-01-18T04:15:54Z</time>
      </trkpt>
      <trkpt lat="42.14529" lon="2.39478">
        <ele>640.9</ele>
        <time>2019-01-18T04:15:58Z</time>
      </trkpt>
      <trkpt lat="42.14527" lon="2.39471">
        <ele>641.6</ele>
        <time>2019-01-18T04:16:02Z</time>
      </trkpt>
      <trkpt lat="42.14526" lon="2.39464">
        <ele>642</ele>
        <time>2019-01-18T04:16:06Z</time>
      </trkpt>
      <trkpt lat="42.14523" lon="2.39457">
        <ele>642.6</ele>
        <time>2019-01-18T04:16:11Z</time>
      </trkpt>
      <trkpt lat="42.14521" lon="2.39452">
        <ele>643</ele>
        <time>2019-01-18T04:16:15Z</time>
      </trkpt>
      <trkpt lat="42.14519" lon="2.39444">
        <ele>643.6</ele>
        <time>2019-01-18T04:16:20Z</time>
      </trkpt>
      <trkpt lat="42.14516" lon="2.39439">
        <ele>644</ele>
        <time>2019-01-18T04:16:23Z</time>
      </trkpt>
      <trkpt lat="42.14513" lon="2.39433">
        <ele>644.6</ele>
        <time>2019-01-18T04:16:27Z</time>
      </trkpt>
      <trkpt lat="42.14511" lon="2.39427">
        <ele>645.2</ele>
        <time>2019-01-18T04:16:31Z</time>
      </trkpt>
      <trkpt lat="42.14508" lon="2.39421">
        <ele>645.9</ele>
        <time>2019-01-18T04:16:36Z</time>
      </trkpt>
      <trkpt lat="42.14505" lon="2.39416">
        <ele>646.3</ele>
        <time>2019-01-18T04:16:40Z</time>
      </trkpt>
      <trkpt lat="42.145" lon="2.39413">
        <ele>646.6</ele>
        <time>2019-01-18T04:16:44Z</time>
      </trkpt>
      <trkpt lat="42.14495" lon="2.39412">
        <ele>646.6</ele>
        <time>2019-01-18T04:16:48Z</time>
      </trkpt>
      <trkpt lat="42.1449" lon="2.39411">
        <ele>646.8</ele>
        <time>2019-01-18T04:16:51Z</time>
      </trkpt>
      <trkpt lat="42.14486" lon="2.39414">
        <ele>647.6</ele>
        <time>2019-01-18T04:16:55Z</time>
      </trkpt>
      <trkpt lat="42.14481" lon="2.39411">
        <ele>647.9</ele>
        <time>2019-01-18T04:16:59Z</time>
      </trkpt>
      <trkpt lat="42.14477" lon="2.39408">
        <ele>648.6</ele>
        <time>2019-01-18T04:17:03Z</time>
      </trkpt>
      <trkpt lat="42.14472" lon="2.39404">
        <ele>649.1</ele>
        <time>2019-01-18T04:17:08Z</time>
      </trkpt>
      <trkpt lat="42.14469" lon="2.39398">
        <ele>649.7</ele>
        <time>2019-01-18T04:17:12Z</time>
      </trkpt>
      <trkpt lat="42.14464" lon="2.39396">
        <ele>650.5</ele>
        <time>2019-01-18T04:17:16Z</time>
      </trkpt>
      <trkpt lat="42.1446" lon="2.39393">
        <ele>651.3</ele>
        <time>2019-01-18T04:17:20Z</time>
      </trkpt>
      <trkpt lat="42.14454" lon="2.39391">
        <ele>651.7</ele>
        <time>2019-01-18T04:17:25Z</time>
      </trkpt>
      <trkpt lat="42.14449" lon="2.39389">
        <ele>652.4</ele>
        <time>2019-01-18T04:17:29Z</time>
      </trkpt>
      <trkpt lat="42.14444" lon="2.39385">
        <ele>653.1</ele>
        <time>2019-01-18T04:17:34Z</time>
      </trkpt>
      <trkpt lat="42.14441" lon="2.39381">
        <ele>653.5</ele>
        <time>2019-01-18T04:17:37Z</time>
      </trkpt>
      <trkpt lat="42.14437" lon="2.39377">
        <ele>654.2</ele>
        <time>2019-01-18T04:17:41Z</time>
      </trkpt>
      <trkpt lat="42.14433" lon="2.39374">
        <ele>655</ele>
        <time>2019-01-18T04:17:45Z</time>
      </trkpt>
      <trkpt lat="42.1443" lon="2.39367">
        <ele>655.9</ele>
        <time>2019-01-18T04:17:49Z</time>
      </trkpt>
      <trkpt lat="42.14431" lon="2.39361">
        <ele>656.2</ele>
        <time>2019-01-18T04:17:53Z</time>
      </trkpt>
      <trkpt lat="42.14431" lon="2.39355">
        <ele>656.5</ele>
        <time>2019-01-18T04:17:57Z</time>
      </trkpt>
      <trkpt lat="42.14431" lon="2.39347">
        <ele>657.1</ele>
        <time>2019-01-18T04:18:01Z</time>
      </trkpt>
      <trkpt lat="42.14431" lon="2.39341">
        <ele>657.8</ele>
        <time>2019-01-18T04:18:05Z</time>
      </trkpt>
      <trkpt lat="42.14433" lon="2.39334">
        <ele>658.6</ele>
        <time>2019-01-18T04:18:10Z</time>
      </trkpt>
      <trkpt lat="42.14436" lon="2.39328">
        <ele>659</ele>
        <time>2019-01-18T04:18:14Z</time>
      </trkpt>
      <trkpt lat="42.1444" lon="2.39323">
        <ele>659.9</ele>
        <time>2019-01-18T04:18:18Z</time>
      </trkpt>
      <trkpt lat="42.14443" lon="2.39319">
        <ele>660.8</ele>
        <time>2019-01-18T04:18:22Z</time>
      </trkpt>
      <trkpt lat="42.14447" lon="2.39314">
        <ele>661.4</ele>
        <time>2019-01-18T04:18:26Z</time>
      </trkpt>
      <trkpt lat="42.14449" lon="2.39308">
        <ele>661.9</ele>
        <time>2019-01-18T04:18:30Z</time>
      </trkpt>
      <trkpt lat="42.14451" lon="2.39301">
        <ele>662.5</ele>
        <time>2019-01-18T04:18:34Z</time>
      </trkpt>
      <trkpt lat="42.14452" lon="2.39295">
        <ele>662.8</ele>
        <time>2019-01-18T04:18:38Z</time>
      </trkpt>
      <trkpt lat="42.14452" lon="2.39288">
        <ele>663.3</ele>
        <time>2019-01-18T04:18:42Z</time>
      </trkpt>
      <trkpt lat="42.14453" lon="2.3928">
        <ele>663.8</ele>
        <time>2019-01-18T04:18:47Z</time>
      </trkpt>
      <trkpt lat="42.14455" lon="2.39273">
        <ele>664</ele>
        <time>2019-01-18T04:18:51Z</time>
      </trkpt>
      <trkpt lat="42.14454" lon="2.39266">
        <ele>664.3</ele>
        <time>2019-01-18T04:18:55Z</time>
      </trkpt>
      <trkpt lat="42.14453" lon="2.3926">
        <ele>664.1</ele>
        <time>2019-01-18T04:18:59Z</time>
      </trkpt>
      <trkpt lat="42.14451" lon="2.39253">
        <ele>665.3</ele>
        <time>2019-01-18T04:19:04Z</time>
      </trkpt>
      <trkpt lat="42.14451" lon="2.39247">
        <ele>665.8</ele>
        <time>2019-01-18T04:19:07Z</time>
      </trkpt>
      <trkpt lat="42.14453" lon="2.39239">
        <ele>666.3</ele>
        <time>2019-01-18T04:19:12Z</time>
      </trkpt>
      <trkpt lat="42.1445" lon="2.39233">
        <ele>667.3</ele>
        <time>2019-01-18T04:19:16Z</time>
      </trkpt>
      <trkpt lat="42.14449" lon="2.39227">
        <ele>667.5</ele>
        <time>2019-01-18T04:19:20Z</time>
      </trkpt>
      <trkpt lat="42.14449" lon="2.39219">
        <ele>668.2</ele>
        <time>2019-01-18T04:19:25Z</time>
      </trkpt>
      <trkpt lat="42.1445" lon="2.39212">
        <ele>668.9</ele>
        <time>2019-01-18T04:19:29Z</time>
      </trkpt>
      <trkpt lat="42.1445" lon="2.39206">
        <ele>669.7</ele>
        <time>2019-01-18T04:19:32Z</time>
      </trkpt>
      <trkpt lat="42.14452" lon="2.39199">
        <ele>670.4</ele>
        <time>2019-01-18T04:19:37Z</time>
      </trkpt>
      <trkpt lat="42.14452" lon="2.39193">
        <ele>671.1</ele>
        <time>2019-01-18T04:19:41Z</time>
      </trkpt>
      <trkpt lat="42.14452" lon="2.39187">
        <ele>671.5</ele>
        <time>2019-01-18T04:19:44Z</time>
      </trkpt>
      <trkpt lat="42.14455" lon="2.39179">
        <ele>671.7</ele>
        <time>2019-01-18T04:19:49Z</time>
      </trkpt>
      <trkpt lat="42.14456" lon="2.39171">
        <ele>672.2</ele>
        <time>2019-01-18T04:19:54Z</time>
      </trkpt>
      <trkpt lat="42.14457" lon="2.39165">
        <ele>673.2</ele>
        <time>2019-01-18T04:19:58Z</time>
      </trkpt>
      <trkpt lat="42.14456" lon="2.39157">
        <ele>674</ele>
        <time>2019-01-18T04:20:02Z</time>
      </trkpt>
      <trkpt lat="42.14458" lon="2.3915">
        <ele>675</ele>
        <time>2019-01-18T04:20:07Z</time>
      </trkpt>
      <trkpt lat="42.14459" lon="2.39144">
        <ele>675.5</ele>
        <time>2019-01-18T04:20:10Z</time>
      </trkpt>
      <trkpt lat="42.14461" lon="2.39138">
        <ele>676.4</ele>
        <time>2019-01-18T04:20:14Z</time>
      </trkpt>
      <trkpt lat="42.14462" lon="2.39131">
        <ele>676.1</ele>
        <time>2019-01-18T04:20:19Z</time>
      </trkpt>
      <trkpt lat="42.14458" lon="2.39125">
        <ele>677.8</ele>
        <time>2019-01-18T04:20:23Z</time>
      </trkpt>
      <trkpt lat="42.1446" lon="2.39118">
        <ele>678.4</ele>
        <time>2019-01-18T04:20:28Z</time>
      </trkpt>
      <trkpt lat="42.14462" lon="2.39111">
        <ele>678.8</ele>
        <time>2019-01-18T04:20:32Z</time>
      </trkpt>
      <trkpt lat="42.14464" lon="2.39104">
        <ele>679.4</ele>
        <time>2019-01-18T04:20:36Z</time>
      </trkpt>
      <trkpt lat="42.14468" lon="2.39099">
        <ele>679.9</ele>
        <time>2019-01-18T04:20:41Z</time>
      </trkpt>
      <trkpt lat="42.14472" lon="2.39094">
        <ele>680.4</ele>
        <time>2019-01-18T04:20:45Z</time>
      </trkpt>
      <trkpt lat="42.14473" lon="2.39088">
        <ele>680.9</ele>
        <time>2019-01-18T04:20:49Z</time>
      </trkpt>
      <trkpt lat="42.14474" lon="2.39081">
        <ele>681.6</ele>
        <time>2019-01-18T04:20:53Z</time>
      </trkpt>
      <trkpt lat="42.14476" lon="2.39074">
        <ele>682.1</ele>
        <time>2019-01-18T04:20:57Z</time>
      </trkpt>
      <trkpt lat="42.14478" lon="2.39068">
        <ele>681.7</ele>
        <time>2019-01-18T04:21:01Z</time>
      </trkpt>
      <trkpt lat="42.14478" lon="2.39062">
        <ele>682.8</ele>
        <time>2019-01-18T04:21:05Z</time>
      </trkpt>
      <trkpt lat="42.14479" lon="2.39057">
        <ele>683.3</ele>
        <time>2019-01-18T04:21:08Z</time>
      </trkpt>
      <trkpt lat="42.14479" lon="2.39049">
        <ele>683.8</ele>
        <time>2019-01-18T04:21:13Z</time>
      </trkpt>
      <trkpt lat="42.14481" lon="2.39043">
        <ele>684.3</ele>
        <time>2019-01-18T04:21:17Z</time>
      </trkpt>
      <trkpt lat="42.14483" lon="2.39037">
        <ele>684.9</ele>
        <time>2019-01-18T04:21:21Z</time>
      </trkpt>
      <trkpt lat="42.14485" lon="2.3903">
        <ele>685.5</ele>
        <time>2019-01-18T04:21:25Z</time>
      </trkpt>
      <trkpt lat="42.14486" lon="2.39023">
        <ele>685.7</ele>
        <time>2019-01-18T04:21:29Z</time>
      </trkpt>
      <trkpt lat="42.14486" lon="2.39016">
        <ele>686.2</ele>
        <time>2019-01-18T04:21:34Z</time>
      </trkpt>
      <trkpt lat="42.14488" lon="2.3901">
        <ele>686.3</ele>
        <time>2019-01-18T04:21:38Z</time>
      </trkpt>
      <trkpt lat="42.14491" lon="2.39003">
        <ele>685.7</ele>
        <time>2019-01-18T04:21:42Z</time>
      </trkpt>
      <trkpt lat="42.14491" lon="2.38995">
        <ele>685.7</ele>
        <time>2019-01-18T04:21:47Z</time>
      </trkpt>
      <trkpt lat="42.14494" lon="2.38988">
        <ele>685.6</ele>
        <time>2019-01-18T04:21:52Z</time>
      </trkpt>
      <trkpt lat="42.14495" lon="2.38982">
        <ele>685.6</ele>
        <time>2019-01-18T04:21:55Z</time>
      </trkpt>
      <trkpt lat="42.14498" lon="2.38975">
        <ele>685.9</ele>
        <time>2019-01-18T04:22:00Z</time>
      </trkpt>
      <trkpt lat="42.14499" lon="2.38969">
        <ele>686</ele>
        <time>2019-01-18T04:22:04Z</time>
      </trkpt>
      <trkpt lat="42.145" lon="2.38961">
        <ele>686.4</ele>
        <time>2019-01-18T04:22:08Z</time>
      </trkpt>
      <trkpt lat="42.14499" lon="2.38954">
        <ele>686.9</ele>
        <time>2019-01-18T04:22:13Z</time>
      </trkpt>
      <trkpt lat="42.14502" lon="2.38948">
        <ele>687</ele>
        <time>2019-01-18T04:22:17Z</time>
      </trkpt>
      <trkpt lat="42.14503" lon="2.3894">
        <ele>687.2</ele>
        <time>2019-01-18T04:22:21Z</time>
      </trkpt>
      <trkpt lat="42.14505" lon="2.38933">
        <ele>687.4</ele>
        <time>2019-01-18T04:22:26Z</time>
      </trkpt>
      <trkpt lat="42.14507" lon="2.38927">
        <ele>687.7</ele>
        <time>2019-01-18T04:22:30Z</time>
      </trkpt>
      <trkpt lat="42.14508" lon="2.38919">
        <ele>688</ele>
        <time>2019-01-18T04:22:35Z</time>
      </trkpt>
      <trkpt lat="42.14509" lon="2.38911">
        <ele>688.3</ele>
        <time>2019-01-18T04:22:39Z</time>
      </trkpt>
      <trkpt lat="42.14509" lon="2.38905">
        <ele>688.4</ele>
        <time>2019-01-18T04:22:43Z</time>
      </trkpt>
      <trkpt lat="42.14512" lon="2.38897">
        <ele>688.8</ele>
        <time>2019-01-18T04:22:48Z</time>
      </trkpt>
      <trkpt lat="42.14513" lon="2.38888">
        <ele>689.5</ele>
        <time>2019-01-18T04:22:54Z</time>
      </trkpt>
      <trkpt lat="42.14514" lon="2.38882">
        <ele>690</ele>
        <time>2019-01-18T04:22:58Z</time>
      </trkpt>
      <trkpt lat="42.14518" lon="2.38876">
        <ele>690.8</ele>
        <time>2019-01-18T04:23:02Z</time>
      </trkpt>
      <trkpt lat="42.14518" lon="2.3887">
        <ele>691.2</ele>
        <time>2019-01-18T04:23:06Z</time>
      </trkpt>
      <trkpt lat="42.14517" lon="2.38863">
        <ele>691.3</ele>
        <time>2019-01-18T04:23:10Z</time>
      </trkpt>
      <trkpt lat="42.14518" lon="2.38857">
        <ele>691.4</ele>
        <time>2019-01-18T04:23:14Z</time>
      </trkpt>
      <trkpt lat="42.14521" lon="2.38851">
        <ele>691.3</ele>
        <time>2019-01-18T04:23:18Z</time>
      </trkpt>
      <trkpt lat="42.14525" lon="2.38846">
        <ele>691.3</ele>
        <time>2019-01-18T04:23:22Z</time>
      </trkpt>
      <trkpt lat="42.14526" lon="2.38838">
        <ele>691</ele>
        <time>2019-01-18T04:23:27Z</time>
      </trkpt>
      <trkpt lat="42.14523" lon="2.38831">
        <ele>691.1</ele>
        <time>2019-01-18T04:23:32Z</time>
      </trkpt>
      <trkpt lat="42.14522" lon="2.38825">
        <ele>691.2</ele>
        <time>2019-01-18T04:23:35Z</time>
      </trkpt>
      <trkpt lat="42.1452" lon="2.38819">
        <ele>691.3</ele>
        <time>2019-01-18T04:23:39Z</time>
      </trkpt>
      <trkpt lat="42.14516" lon="2.38814">
        <ele>691.4</ele>
        <time>2019-01-18T04:23:44Z</time>
      </trkpt>
      <trkpt lat="42.14513" lon="2.38809">
        <ele>691.7</ele>
        <time>2019-01-18T04:23:47Z</time>
      </trkpt>
      <trkpt lat="42.14511" lon="2.38803">
        <ele>691.7</ele>
        <time>2019-01-18T04:23:52Z</time>
      </trkpt>
      <trkpt lat="42.14509" lon="2.38796">
        <ele>691.9</ele>
        <time>2019-01-18T04:23:56Z</time>
      </trkpt>
      <trkpt lat="42.14504" lon="2.38793">
        <ele>692.1</ele>
        <time>2019-01-18T04:24:01Z</time>
      </trkpt>
      <trkpt lat="42.14499" lon="2.38787">
        <ele>692</ele>
        <time>2019-01-18T04:24:06Z</time>
      </trkpt>
      <trkpt lat="42.14495" lon="2.38782">
        <ele>691.5</ele>
        <time>2019-01-18T04:24:10Z</time>
      </trkpt>
      <trkpt lat="42.14491" lon="2.38779">
        <ele>690.9</ele>
        <time>2019-01-18T04:24:14Z</time>
      </trkpt>
      <trkpt lat="42.14486" lon="2.38775">
        <ele>690.7</ele>
        <time>2019-01-18T04:24:19Z</time>
      </trkpt>
      <trkpt lat="42.14481" lon="2.3877">
        <ele>690.3</ele>
        <time>2019-01-18T04:24:23Z</time>
      </trkpt>
      <trkpt lat="42.14476" lon="2.38767">
        <ele>690</ele>
        <time>2019-01-18T04:24:28Z</time>
      </trkpt>
      <trkpt lat="42.14473" lon="2.38761">
        <ele>690</ele>
        <time>2019-01-18T04:24:32Z</time>
      </trkpt>
      <trkpt lat="42.14467" lon="2.38755">
        <ele>690</ele>
        <time>2019-01-18T04:24:38Z</time>
      </trkpt>
      <trkpt lat="42.1446" lon="2.3875">
        <ele>690.1</ele>
        <time>2019-01-18T04:24:45Z</time>
      </trkpt>
      <trkpt lat="42.14455" lon="2.38744">
        <ele>689.1</ele>
        <time>2019-01-18T04:24:50Z</time>
      </trkpt>
      <trkpt lat="42.14451" lon="2.3874">
        <ele>689.1</ele>
        <time>2019-01-18T04:24:54Z</time>
      </trkpt>
      <trkpt lat="42.14447" lon="2.38735">
        <ele>689</ele>
        <time>2019-01-18T04:24:59Z</time>
      </trkpt>
      <trkpt lat="42.14445" lon="2.38729">
        <ele>690.1</ele>
        <time>2019-01-18T04:25:03Z</time>
      </trkpt>
      <trkpt lat="42.14446" lon="2.38718">
        <ele>690.1</ele>
        <time>2019-01-18T04:25:09Z</time>
      </trkpt>
      <trkpt lat="42.14444" lon="2.3871">
        <ele>690</ele>
        <time>2019-01-18T04:25:14Z</time>
      </trkpt>
      <trkpt lat="42.1444" lon="2.38705">
        <ele>690</ele>
        <time>2019-01-18T04:25:18Z</time>
      </trkpt>
      <trkpt lat="42.14439" lon="2.38698">
        <ele>690</ele>
        <time>2019-01-18T04:25:23Z</time>
      </trkpt>
      <trkpt lat="42.14438" lon="2.3869">
        <ele>691</ele>
        <time>2019-01-18T04:25:28Z</time>
      </trkpt>
      <trkpt lat="42.14439" lon="2.38679">
        <ele>691</ele>
        <time>2019-01-18T04:25:34Z</time>
      </trkpt>
      <trkpt lat="42.14443" lon="2.3867">
        <ele>691.1</ele>
        <time>2019-01-18T04:25:40Z</time>
      </trkpt>
      <trkpt lat="42.14445" lon="2.3866">
        <ele>691.1</ele>
        <time>2019-01-18T04:25:47Z</time>
      </trkpt>
      <trkpt lat="42.14446" lon="2.38651">
        <ele>691.1</ele>
        <time>2019-01-18T04:25:52Z</time>
      </trkpt>
      <trkpt lat="42.14445" lon="2.38644">
        <ele>692</ele>
        <time>2019-01-18T04:25:56Z</time>
      </trkpt>
      <trkpt lat="42.14442" lon="2.38635">
        <ele>692.1</ele>
        <time>2019-01-18T04:26:02Z</time>
      </trkpt>
      <trkpt lat="42.14437" lon="2.38625">
        <ele>692</ele>
        <time>2019-01-18T04:26:09Z</time>
      </trkpt>
      <trkpt lat="42.14437" lon="2.38617">
        <ele>692</ele>
        <time>2019-01-18T04:26:14Z</time>
      </trkpt>
      <trkpt lat="42.14435" lon="2.3861">
        <ele>692</ele>
        <time>2019-01-18T04:26:18Z</time>
      </trkpt>
      <trkpt lat="42.14434" lon="2.38604">
        <ele>693.2</ele>
        <time>2019-01-18T04:26:22Z</time>
      </trkpt>
      <trkpt lat="42.14436" lon="2.38592">
        <ele>693.2</ele>
        <time>2019-01-18T04:26:30Z</time>
      </trkpt>
      <trkpt lat="42.14434" lon="2.38586">
        <ele>693</ele>
        <time>2019-01-18T04:26:33Z</time>
      </trkpt>
      <trkpt lat="42.14436" lon="2.38577">
        <ele>694</ele>
        <time>2019-01-18T04:26:39Z</time>
      </trkpt>
      <trkpt lat="42.14438" lon="2.38561">
        <ele>696</ele>
        <time>2019-01-18T04:26:48Z</time>
      </trkpt>
      <trkpt lat="42.14442" lon="2.38555">
        <ele>696.5</ele>
        <time>2019-01-18T04:26:53Z</time>
      </trkpt>
      <trkpt lat="42.14442" lon="2.38548">
        <ele>697.2</ele>
        <time>2019-01-18T04:26:58Z</time>
      </trkpt>
      <trkpt lat="42.14443" lon="2.38542">
        <ele>698.3</ele>
        <time>2019-01-18T04:27:01Z</time>
      </trkpt>
      <trkpt lat="42.14444" lon="2.38535">
        <ele>699.3</ele>
        <time>2019-01-18T04:27:06Z</time>
      </trkpt>
      <trkpt lat="42.14447" lon="2.38529">
        <ele>700.2</ele>
        <time>2019-01-18T04:27:10Z</time>
      </trkpt>
      <trkpt lat="42.14443" lon="2.38525">
        <ele>700.4</ele>
        <time>2019-01-18T04:27:14Z</time>
      </trkpt>
      <trkpt lat="42.14443" lon="2.38517">
        <ele>701.4</ele>
        <time>2019-01-18T04:27:18Z</time>
      </trkpt>
      <trkpt lat="42.14445" lon="2.3851">
        <ele>702.7</ele>
        <time>2019-01-18T04:27:23Z</time>
      </trkpt>
      <trkpt lat="42.14443" lon="2.38504">
        <ele>703.6</ele>
        <time>2019-01-18T04:27:27Z</time>
      </trkpt>
      <trkpt lat="42.14442" lon="2.38497">
        <ele>704.1</ele>
        <time>2019-01-18T04:27:31Z</time>
      </trkpt>
      <trkpt lat="42.14441" lon="2.38491">
        <ele>704.4</ele>
        <time>2019-01-18T04:27:35Z</time>
      </trkpt>
      <trkpt lat="42.1444" lon="2.38482">
        <ele>704.9</ele>
        <time>2019-01-18T04:27:40Z</time>
      </trkpt>
      <trkpt lat="42.14443" lon="2.38477">
        <ele>705.4</ele>
        <time>2019-01-18T04:27:44Z</time>
      </trkpt>
      <trkpt lat="42.14445" lon="2.3847">
        <ele>706.5</ele>
        <time>2019-01-18T04:27:48Z</time>
      </trkpt>
      <trkpt lat="42.14449" lon="2.38463">
        <ele>707.3</ele>
        <time>2019-01-18T04:27:54Z</time>
      </trkpt>
      <trkpt lat="42.1445" lon="2.38454">
        <ele>707.8</ele>
        <time>2019-01-18T04:27:59Z</time>
      </trkpt>
      <trkpt lat="42.14448" lon="2.38448">
        <ele>708.6</ele>
        <time>2019-01-18T04:28:03Z</time>
      </trkpt>
      <trkpt lat="42.14444" lon="2.38443">
        <ele>709.8</ele>
        <time>2019-01-18T04:28:07Z</time>
      </trkpt>
      <trkpt lat="42.14439" lon="2.3844">
        <ele>710.7</ele>
        <time>2019-01-18T04:28:11Z</time>
      </trkpt>
      <trkpt lat="42.14435" lon="2.38436">
        <ele>712.2</ele>
        <time>2019-01-18T04:28:15Z</time>
      </trkpt>
      <trkpt lat="42.1443" lon="2.38435">
        <ele>712.9</ele>
        <time>2019-01-18T04:28:19Z</time>
      </trkpt>
      <trkpt lat="42.14424" lon="2.38432">
        <ele>713.9</ele>
        <time>2019-01-18T04:28:24Z</time>
      </trkpt>
      <trkpt lat="42.14418" lon="2.38433">
        <ele>714.8</ele>
        <time>2019-01-18T04:28:29Z</time>
      </trkpt>
      <trkpt lat="42.14414" lon="2.38435">
        <ele>715.6</ele>
        <time>2019-01-18T04:28:33Z</time>
      </trkpt>
      <trkpt lat="42.1441" lon="2.38436">
        <ele>716.5</ele>
        <time>2019-01-18T04:28:36Z</time>
      </trkpt>
      <trkpt lat="42.14405" lon="2.38438">
        <ele>717.2</ele>
        <time>2019-01-18T04:28:41Z</time>
      </trkpt>
      <trkpt lat="42.144" lon="2.38438">
        <ele>718</ele>
        <time>2019-01-18T04:28:44Z</time>
      </trkpt>
      <trkpt lat="42.14395" lon="2.38437">
        <ele>718.7</ele>
        <time>2019-01-18T04:28:49Z</time>
      </trkpt>
      <trkpt lat="42.14389" lon="2.38436">
        <ele>718.1</ele>
        <time>2019-01-18T04:28:53Z</time>
      </trkpt>
      <trkpt lat="42.14378" lon="2.38435">
        <ele>721.4</ele>
        <time>2019-01-18T04:29:02Z</time>
      </trkpt>
      <trkpt lat="42.14372" lon="2.38434">
        <ele>721.9</ele>
        <time>2019-01-18T04:29:07Z</time>
      </trkpt>
      <trkpt lat="42.14364" lon="2.38434">
        <ele>722.1</ele>
        <time>2019-01-18T04:29:14Z</time>
      </trkpt>
      <trkpt lat="42.14359" lon="2.38432">
        <ele>721</ele>
        <time>2019-01-18T04:29:17Z</time>
      </trkpt>
      <trkpt lat="42.14352" lon="2.3843">
        <ele>722</ele>
        <time>2019-01-18T04:29:23Z</time>
      </trkpt>
      <trkpt lat="42.14347" lon="2.3843">
        <ele>722</ele>
        <time>2019-01-18T04:29:27Z</time>
      </trkpt>
      <trkpt lat="42.1434" lon="2.38428">
        <ele>725</ele>
        <time>2019-01-18T04:29:33Z</time>
      </trkpt>
      <trkpt lat="42.14336" lon="2.38427">
        <ele>726.1</ele>
        <time>2019-01-18T04:29:37Z</time>
      </trkpt>
      <trkpt lat="42.14332" lon="2.38422">
        <ele>729.1</ele>
        <time>2019-01-18T04:29:41Z</time>
      </trkpt>
      <trkpt lat="42.1433" lon="2.38415">
        <ele>730.1</ele>
        <time>2019-01-18T04:29:45Z</time>
      </trkpt>
      <trkpt lat="42.14326" lon="2.38412">
        <ele>732</ele>
        <time>2019-01-18T04:29:48Z</time>
      </trkpt>
      <trkpt lat="42.14324" lon="2.38406">
        <ele>733</ele>
        <time>2019-01-18T04:29:53Z</time>
      </trkpt>
      <trkpt lat="42.14321" lon="2.38396">
        <ele>731.1</ele>
        <time>2019-01-18T04:29:59Z</time>
      </trkpt>
      <trkpt lat="42.14322" lon="2.38385">
        <ele>730.1</ele>
        <time>2019-01-18T04:30:06Z</time>
      </trkpt>
      <trkpt lat="42.14324" lon="2.38377">
        <ele>729</ele>
        <time>2019-01-18T04:30:11Z</time>
      </trkpt>
      <trkpt lat="42.14324" lon="2.38367">
        <ele>727</ele>
        <time>2019-01-18T04:30:16Z</time>
      </trkpt>
      <trkpt lat="42.14315" lon="2.38367">
        <ele>727</ele>
        <time>2019-01-18T04:30:24Z</time>
      </trkpt>
      <trkpt lat="42.14316" lon="2.38359">
        <ele>726</ele>
        <time>2019-01-18T04:30:28Z</time>
      </trkpt>
      <trkpt lat="42.14314" lon="2.38353">
        <ele>726</ele>
        <time>2019-01-18T04:30:32Z</time>
      </trkpt>
      <trkpt lat="42.14314" lon="2.38347">
        <ele>726.7</ele>
        <time>2019-01-18T04:30:36Z</time>
      </trkpt>
      <trkpt lat="42.1431" lon="2.38342">
        <ele>728.3</ele>
        <time>2019-01-18T04:30:40Z</time>
      </trkpt>
      <trkpt lat="42.14312" lon="2.38334">
        <ele>729.1</ele>
        <time>2019-01-18T04:30:45Z</time>
      </trkpt>
      <trkpt lat="42.14323" lon="2.38314">
        <ele>729.1</ele>
        <time>2019-01-18T04:31:00Z</time>
      </trkpt>
      <trkpt lat="42.1432" lon="2.38198">
        <ele>747.1</ele>
        <time>2019-01-18T04:32:09Z</time>
      </trkpt>
      <trkpt lat="42.14313" lon="2.38199">
        <ele>749.1</ele>
        <time>2019-01-18T04:32:14Z</time>
      </trkpt>
      <trkpt lat="42.14308" lon="2.38201">
        <ele>751</ele>
        <time>2019-01-18T04:32:19Z</time>
      </trkpt>
      <trkpt lat="42.14303" lon="2.38202">
        <ele>752</ele>
        <time>2019-01-18T04:32:23Z</time>
      </trkpt>
      <trkpt lat="42.14295" lon="2.38205">
        <ele>753</ele>
        <time>2019-01-18T04:32:30Z</time>
      </trkpt>
      <trkpt lat="42.14289" lon="2.38205">
        <ele>754</ele>
        <time>2019-01-18T04:32:34Z</time>
      </trkpt>
      <trkpt lat="42.14282" lon="2.38205">
        <ele>755</ele>
        <time>2019-01-18T04:32:39Z</time>
      </trkpt>
      <trkpt lat="42.14277" lon="2.38202">
        <ele>756</ele>
        <time>2019-01-18T04:32:44Z</time>
      </trkpt>
      <trkpt lat="42.14274" lon="2.38196">
        <ele>757.1</ele>
        <time>2019-01-18T04:32:48Z</time>
      </trkpt>
      <trkpt lat="42.14267" lon="2.3819">
        <ele>760.1</ele>
        <time>2019-01-18T04:32:55Z</time>
      </trkpt>
      <trkpt lat="42.14261" lon="2.38189">
        <ele>761.1</ele>
        <time>2019-01-18T04:32:59Z</time>
      </trkpt>
      <trkpt lat="42.14257" lon="2.38184">
        <ele>765.1</ele>
        <time>2019-01-18T04:33:04Z</time>
      </trkpt>
      <trkpt lat="42.14251" lon="2.38182">
        <ele>767.6</ele>
        <time>2019-01-18T04:33:09Z</time>
      </trkpt>
      <trkpt lat="42.14246" lon="2.3818">
        <ele>768.8</ele>
        <time>2019-01-18T04:33:13Z</time>
      </trkpt>
      <trkpt lat="42.1424" lon="2.3818">
        <ele>769.5</ele>
        <time>2019-01-18T04:33:18Z</time>
      </trkpt>
      <trkpt lat="42.14233" lon="2.38182">
        <ele>770.2</ele>
        <time>2019-01-18T04:33:23Z</time>
      </trkpt>
      <trkpt lat="42.14229" lon="2.3818">
        <ele>770.8</ele>
        <time>2019-01-18T04:33:27Z</time>
      </trkpt>
      <trkpt lat="42.14223" lon="2.38179">
        <ele>771.7</ele>
        <time>2019-01-18T04:33:32Z</time>
      </trkpt>
      <trkpt lat="42.14219" lon="2.38176">
        <ele>772.8</ele>
        <time>2019-01-18T04:33:36Z</time>
      </trkpt>
      <trkpt lat="42.14213" lon="2.38176">
        <ele>773</ele>
        <time>2019-01-18T04:33:41Z</time>
      </trkpt>
      <trkpt lat="42.14207" lon="2.38176">
        <ele>773.2</ele>
        <time>2019-01-18T04:33:45Z</time>
      </trkpt>
      <trkpt lat="42.14203" lon="2.38173">
        <ele>773.5</ele>
        <time>2019-01-18T04:33:49Z</time>
      </trkpt>
      <trkpt lat="42.14201" lon="2.38167">
        <ele>773.3</ele>
        <time>2019-01-18T04:33:53Z</time>
      </trkpt>
      <trkpt lat="42.14203" lon="2.3816">
        <ele>773.2</ele>
        <time>2019-01-18T04:33:57Z</time>
      </trkpt>
      <trkpt lat="42.14202" lon="2.38153">
        <ele>773</ele>
        <time>2019-01-18T04:34:01Z</time>
      </trkpt>
      <trkpt lat="42.14208" lon="2.38143">
        <ele>773.1</ele>
        <time>2019-01-18T04:34:08Z</time>
      </trkpt>
      <trkpt lat="42.14212" lon="2.38137">
        <ele>774</ele>
        <time>2019-01-18T04:34:13Z</time>
      </trkpt>
      <trkpt lat="42.14214" lon="2.38132">
        <ele>774.5</ele>
        <time>2019-01-18T04:34:17Z</time>
      </trkpt>
      <trkpt lat="42.14215" lon="2.38125">
        <ele>775</ele>
        <time>2019-01-18T04:34:21Z</time>
      </trkpt>
      <trkpt lat="42.14218" lon="2.38119">
        <ele>775</ele>
        <time>2019-01-18T04:34:26Z</time>
      </trkpt>
      <trkpt lat="42.14221" lon="2.38113">
        <ele>776.8</ele>
        <time>2019-01-18T04:34:30Z</time>
      </trkpt>
      <trkpt lat="42.14221" lon="2.38106">
        <ele>778.2</ele>
        <time>2019-01-18T04:34:34Z</time>
      </trkpt>
      <trkpt lat="42.14224" lon="2.381">
        <ele>778</ele>
        <time>2019-01-18T04:34:38Z</time>
      </trkpt>
      <trkpt lat="42.14232" lon="2.38087">
        <ele>780</ele>
        <time>2019-01-18T04:34:48Z</time>
      </trkpt>
      <trkpt lat="42.14223" lon="2.38088">
        <ele>783</ele>
        <time>2019-01-18T04:34:55Z</time>
      </trkpt>
      <trkpt lat="42.14216" lon="2.38091">
        <ele>785</ele>
        <time>2019-01-18T04:35:01Z</time>
      </trkpt>
      <trkpt lat="42.14206" lon="2.38093">
        <ele>787.1</ele>
        <time>2019-01-18T04:35:09Z</time>
      </trkpt>
      <trkpt lat="42.14198" lon="2.38097">
        <ele>788.1</ele>
        <time>2019-01-18T04:35:16Z</time>
      </trkpt>
      <trkpt lat="42.14193" lon="2.38098">
        <ele>790.1</ele>
        <time>2019-01-18T04:35:20Z</time>
      </trkpt>
      <trkpt lat="42.14185" lon="2.38096">
        <ele>793.2</ele>
        <time>2019-01-18T04:35:26Z</time>
      </trkpt>
      <trkpt lat="42.14187" lon="2.38089">
        <ele>795.1</ele>
        <time>2019-01-18T04:35:31Z</time>
      </trkpt>
      <trkpt lat="42.14189" lon="2.38084">
        <ele>795.5</ele>
        <time>2019-01-18T04:35:34Z</time>
      </trkpt>
      <trkpt lat="42.1419" lon="2.38077">
        <ele>796.1</ele>
        <time>2019-01-18T04:35:38Z</time>
      </trkpt>
      <trkpt lat="42.14192" lon="2.38069">
        <ele>796.8</ele>
        <time>2019-01-18T04:35:43Z</time>
      </trkpt>
      <trkpt lat="42.14195" lon="2.38064">
        <ele>797.2</ele>
        <time>2019-01-18T04:35:47Z</time>
      </trkpt>
      <trkpt lat="42.14194" lon="2.38056">
        <ele>799</ele>
        <time>2019-01-18T04:35:52Z</time>
      </trkpt>
      <trkpt lat="42.14189" lon="2.38054">
        <ele>801.9</ele>
        <time>2019-01-18T04:35:56Z</time>
      </trkpt>
      <trkpt lat="42.14194" lon="2.38046">
        <ele>802</ele>
        <time>2019-01-18T04:36:02Z</time>
      </trkpt>
      <trkpt lat="42.14196" lon="2.38032">
        <ele>803</ele>
        <time>2019-01-18T04:36:11Z</time>
      </trkpt>
      <trkpt lat="42.14185" lon="2.38016">
        <ele>806</ele>
        <time>2019-01-18T04:36:23Z</time>
      </trkpt>
      <trkpt lat="42.14185" lon="2.38018">
        <ele>805.1</ele>
        <time>2019-01-18T04:36:24Z</time>
      </trkpt>
      <trkpt lat="42.1418" lon="2.3802">
        <ele>801.9</ele>
        <time>2019-01-18T04:36:28Z</time>
      </trkpt>
      <trkpt lat="42.14178" lon="2.3802">
        <ele>800.9</ele>
        <time>2019-01-18T04:36:30Z</time>
      </trkpt>
      <trkpt lat="42.14176" lon="2.38017">
        <ele>800.8</ele>
        <time>2019-01-18T04:36:33Z</time>
      </trkpt>
      <trkpt lat="42.14182" lon="2.38007">
        <ele>807.1</ele>
        <time>2019-01-18T04:36:41Z</time>
      </trkpt>
      <trkpt lat="42.14194" lon="2.37987">
        <ele>821.4</ele>
        <time>2019-01-18T04:36:56Z</time>
      </trkpt>
      <trkpt lat="42.14204" lon="2.37979">
        <ele>831.8</ele>
        <time>2019-01-18T04:37:05Z</time>
      </trkpt>
      <trkpt lat="42.14206" lon="2.37972">
        <ele>836.4</ele>
        <time>2019-01-18T04:37:09Z</time>
      </trkpt>
      <trkpt lat="42.14207" lon="2.37968">
        <ele>839.6</ele>
        <time>2019-01-18T04:37:12Z</time>
      </trkpt>
      <trkpt lat="42.14209" lon="2.37961">
        <ele>844.1</ele>
        <time>2019-01-18T04:37:16Z</time>
      </trkpt>
      <trkpt lat="42.1421" lon="2.37957">
        <ele>847.4</ele>
        <time>2019-01-18T04:37:19Z</time>
      </trkpt>
      <trkpt lat="42.14209" lon="2.37948">
        <ele>852</ele>
        <time>2019-01-18T04:37:25Z</time>
      </trkpt>
      <trkpt lat="42.1421" lon="2.37946">
        <ele>853.7</ele>
        <time>2019-01-18T04:37:26Z</time>
      </trkpt>
      <trkpt lat="42.14208" lon="2.37942">
        <ele>855</ele>
        <time>2019-01-18T04:37:29Z</time>
      </trkpt>
      <trkpt lat="42.14207" lon="2.37942">
        <ele>854.3</ele>
        <time>2019-01-18T04:37:29Z</time>
      </trkpt>
      <trkpt lat="42.14204" lon="2.37939">
        <ele>853.3</ele>
        <time>2019-01-18T04:37:32Z</time>
      </trkpt>
      <trkpt lat="42.142" lon="2.37939">
        <ele>850.5</ele>
        <time>2019-01-18T04:37:35Z</time>
      </trkpt>
      <trkpt lat="42.14196" lon="2.37939">
        <ele>847.8</ele>
        <time>2019-01-18T04:37:39Z</time>
      </trkpt>
      <trkpt lat="42.14192" lon="2.37942">
        <ele>843.4</ele>
        <time>2019-01-18T04:37:42Z</time>
      </trkpt>
      <trkpt lat="42.14189" lon="2.37946">
        <ele>838.9</ele>
        <time>2019-01-18T04:37:46Z</time>
      </trkpt>
      <trkpt lat="42.14189" lon="2.37943">
        <ele>840.3</ele>
        <time>2019-01-18T04:37:47Z</time>
      </trkpt>
      <trkpt lat="42.14188" lon="2.37939">
        <ele>842.1</ele>
        <time>2019-01-18T04:37:50Z</time>
      </trkpt>
      <trkpt lat="42.14187" lon="2.37934">
        <ele>843.9</ele>
        <time>2019-01-18T04:37:53Z</time>
      </trkpt>
      <trkpt lat="42.14186" lon="2.37929">
        <ele>845.3</ele>
        <time>2019-01-18T04:37:56Z</time>
      </trkpt>
      <trkpt lat="42.14186" lon="2.37924">
        <ele>847.7</ele>
        <time>2019-01-18T04:37:59Z</time>
      </trkpt>
      <trkpt lat="42.14186" lon="2.37922">
        <ele>848.6</ele>
        <time>2019-01-18T04:38:00Z</time>
      </trkpt>
      <trkpt lat="42.14186" lon="2.37918">
        <ele>851.2</ele>
        <time>2019-01-18T04:38:03Z</time>
      </trkpt>
      <trkpt lat="42.14185" lon="2.37912">
        <ele>853</ele>
        <time>2019-01-18T04:38:06Z</time>
      </trkpt>
      <trkpt lat="42.14187" lon="2.37903">
        <ele>859.6</ele>
        <time>2019-01-18T04:38:12Z</time>
      </trkpt>
      <trkpt lat="42.14185" lon="2.37902">
        <ele>857.8</ele>
        <time>2019-01-18T04:38:13Z</time>
      </trkpt>
      <trkpt lat="42.14186" lon="2.37896">
        <ele>862.7</ele>
        <time>2019-01-18T04:38:17Z</time>
      </trkpt>
      <trkpt lat="42.14183" lon="2.3789">
        <ele>863.1</ele>
        <time>2019-01-18T04:38:21Z</time>
      </trkpt>
      <trkpt lat="42.14186" lon="2.37874">
        <ele>874.8</ele>
        <time>2019-01-18T04:38:31Z</time>
      </trkpt>
      <trkpt lat="42.14194" lon="2.37858">
        <ele>893.2</ele>
        <time>2019-01-18T04:38:43Z</time>
      </trkpt>
      <trkpt lat="42.14198" lon="2.37853">
        <ele>901.7</ele>
        <time>2019-01-18T04:38:47Z</time>
      </trkpt>
      <trkpt lat="42.14197" lon="2.37847">
        <ele>905</ele>
        <time>2019-01-18T04:38:51Z</time>
      </trkpt>
      <trkpt lat="42.14203" lon="2.37836">
        <ele>920.8</ele>
        <time>2019-01-18T04:38:59Z</time>
      </trkpt>
      <trkpt lat="42.14207" lon="2.37831">
        <ele>928.8</ele>
        <time>2019-01-18T04:39:04Z</time>
      </trkpt>
      <trkpt lat="42.14209" lon="2.37827">
        <ele>932.9</ele>
        <time>2019-01-18T04:39:06Z</time>
      </trkpt>
      <trkpt lat="42.14204" lon="2.37827">
        <ele>925.6</ele>
        <time>2019-01-18T04:39:10Z</time>
      </trkpt>
      <trkpt lat="42.14202" lon="2.37825">
        <ele>923.6</ele>
        <time>2019-01-18T04:39:13Z</time>
      </trkpt>
      <trkpt lat="42.14201" lon="2.37823">
        <ele>923.9</ele>
        <time>2019-01-18T04:39:14Z</time>
      </trkpt>
      <trkpt lat="42.142" lon="2.37821">
        <ele>923.3</ele>
        <time>2019-01-18T04:39:15Z</time>
      </trkpt>
      <trkpt lat="42.142" lon="2.3782">
        <ele>923.4</ele>
        <time>2019-01-18T04:39:16Z</time>
      </trkpt>
      <trkpt lat="42.14199" lon="2.37819">
        <ele>923.1</ele>
        <time>2019-01-18T04:39:17Z</time>
      </trkpt>
      <trkpt lat="42.14196" lon="2.37819">
        <ele>919.2</ele>
        <time>2019-01-18T04:39:19Z</time>
      </trkpt>
      <trkpt lat="42.14195" lon="2.37818">
        <ele>918.8</ele>
        <time>2019-01-18T04:39:20Z</time>
      </trkpt>
      <trkpt lat="42.14195" lon="2.37816">
        <ele>919</ele>
        <time>2019-01-18T04:39:21Z</time>
      </trkpt>
      <trkpt lat="42.14193" lon="2.37817">
        <ele>915.4</ele>
        <time>2019-01-18T04:39:23Z</time>
      </trkpt>
      <trkpt lat="42.14186" lon="2.37821">
        <ele>903.6</ele>
        <time>2019-01-18T04:39:29Z</time>
      </trkpt>
      <trkpt lat="42.14185" lon="2.3782">
        <ele>903.1</ele>
        <time>2019-01-18T04:39:30Z</time>
      </trkpt>
      <trkpt lat="42.14184" lon="2.37822">
        <ele>901.1</ele>
        <time>2019-01-18T04:39:31Z</time>
      </trkpt>
      <trkpt lat="42.14183" lon="2.37821">
        <ele>900.2</ele>
        <time>2019-01-18T04:39:31Z</time>
      </trkpt>
      <trkpt lat="42.14183" lon="2.3782">
        <ele>900.4</ele>
        <time>2019-01-18T04:39:32Z</time>
      </trkpt>
      <trkpt lat="42.14184" lon="2.3782">
        <ele>902.1</ele>
        <time>2019-01-18T04:39:33Z</time>
      </trkpt>
      <trkpt lat="42.14185" lon="2.37818">
        <ele>904.2</ele>
        <time>2019-01-18T04:39:34Z</time>
      </trkpt>
      <trkpt lat="42.14185" lon="2.37817">
        <ele>905.3</ele>
        <time>2019-01-18T04:39:35Z</time>
      </trkpt>
      <trkpt lat="42.14187" lon="2.37816">
        <ele>907.6</ele>
        <time>2019-01-18T04:39:36Z</time>
      </trkpt>
      <trkpt lat="42.14187" lon="2.37814">
        <ele>909.3</ele>
        <time>2019-01-18T04:39:37Z</time>
      </trkpt>
      <trkpt lat="42.14187" lon="2.37813">
        <ele>909.1</ele>
        <time>2019-01-18T04:39:38Z</time>
      </trkpt>
      <trkpt lat="42.14187" lon="2.37811">
        <ele>910.5</ele>
        <time>2019-01-18T04:39:39Z</time>
      </trkpt>
      <trkpt lat="42.14187" lon="2.37807">
        <ele>913.1</ele>
        <time>2019-01-18T04:39:41Z</time>
      </trkpt>
      <trkpt lat="42.14189" lon="2.37802">
        <ele>918</ele>
        <time>2019-01-18T04:39:44Z</time>
      </trkpt>
      <trkpt lat="42.1419" lon="2.37801">
        <ele>919.4</ele>
        <time>2019-01-18T04:39:45Z</time>
      </trkpt>
      <trkpt lat="42.14191" lon="2.37794">
        <ele>924.8</ele>
        <time>2019-01-18T04:39:50Z</time>
      </trkpt>
      <trkpt lat="42.14195" lon="2.3779">
        <ele>931.6</ele>
        <time>2019-01-18T04:39:54Z</time>
      </trkpt>
      <trkpt lat="42.14195" lon="2.37783">
        <ele>935.3</ele>
        <time>2019-01-18T04:39:58Z</time>
      </trkpt>
      <trkpt lat="42.14189" lon="2.37783">
        <ele>927.5</ele>
        <time>2019-01-18T04:40:03Z</time>
      </trkpt>
      <trkpt lat="42.1419" lon="2.37782">
        <ele>929.4</ele>
        <time>2019-01-18T04:40:04Z</time>
      </trkpt>
      <trkpt lat="42.14188" lon="2.37782">
        <ele>927.8</ele>
        <time>2019-01-18T04:40:05Z</time>
      </trkpt>
      <trkpt lat="42.14185" lon="2.37773">
        <ele>928.6</ele>
        <time>2019-01-18T04:40:11Z</time>
      </trkpt>
      <trkpt lat="42.14182" lon="2.37769">
        <ele>926.3</ele>
        <time>2019-01-18T04:40:15Z</time>
      </trkpt>
      <trkpt lat="42.14178" lon="2.37768">
        <ele>922.7</ele>
        <time>2019-01-18T04:40:17Z</time>
      </trkpt>
      <trkpt lat="42.14178" lon="2.37763">
        <ele>925.2</ele>
        <time>2019-01-18T04:40:20Z</time>
      </trkpt>
      <trkpt lat="42.14175" lon="2.37759">
        <ele>924</ele>
        <time>2019-01-18T04:40:23Z</time>
      </trkpt>
      <trkpt lat="42.14173" lon="2.37753">
        <ele>925.3</ele>
        <time>2019-01-18T04:40:27Z</time>
      </trkpt>
      <trkpt lat="42.14173" lon="2.37747">
        <ele>929.9</ele>
        <time>2019-01-18T04:40:31Z</time>
      </trkpt>
      <trkpt lat="42.14173" lon="2.37747">
        <ele>930</ele>
        <time>2019-01-18T04:40:31Z</time>
      </trkpt>
      <trkpt lat="42.14173" lon="2.37747">
        <ele>929.9</ele>
        <time>2019-01-18T04:40:31Z</time>
      </trkpt>
      <trkpt lat="42.14174" lon="2.37747">
        <ele>930.6</ele>
        <time>2019-01-18T04:40:31Z</time>
      </trkpt>
      <trkpt lat="42.14174" lon="2.37748">
        <ele>929.6</ele>
        <time>2019-01-18T04:40:32Z</time>
      </trkpt>
      <trkpt lat="42.14176" lon="2.37747">
        <ele>931.3</ele>
        <time>2019-01-18T04:40:33Z</time>
      </trkpt>
      <trkpt lat="42.14177" lon="2.37749">
        <ele>932.4</ele>
        <time>2019-01-18T04:40:35Z</time>
      </trkpt>
      <trkpt lat="42.14179" lon="2.37749">
        <ele>934.7</ele>
        <time>2019-01-18T04:40:37Z</time>
      </trkpt>
      <trkpt lat="42.14183" lon="2.37751">
        <ele>936.9</ele>
        <time>2019-01-18T04:40:40Z</time>
      </trkpt>
      <trkpt lat="42.14184" lon="2.37751">
        <ele>938.1</ele>
        <time>2019-01-18T04:40:41Z</time>
      </trkpt>
      <trkpt lat="42.14185" lon="2.3775">
        <ele>940.9</ele>
        <time>2019-01-18T04:40:42Z</time>
      </trkpt>
      <trkpt lat="42.14185" lon="2.37747">
        <ele>942.8</ele>
        <time>2019-01-18T04:40:44Z</time>
      </trkpt>
      <trkpt lat="42.14184" lon="2.37745">
        <ele>943.1</ele>
        <time>2019-01-18T04:40:45Z</time>
      </trkpt>
      <trkpt lat="42.14183" lon="2.37741">
        <ele>945.5</ele>
        <time>2019-01-18T04:40:48Z</time>
      </trkpt>
      <trkpt lat="42.14185" lon="2.37735">
        <ele>952.3</ele>
        <time>2019-01-18T04:40:51Z</time>
      </trkpt>
      <trkpt lat="42.14185" lon="2.37738">
        <ele>950.7</ele>
        <time>2019-01-18T04:40:53Z</time>
      </trkpt>
      <trkpt lat="42.14187" lon="2.37739">
        <ele>950.1</ele>
        <time>2019-01-18T04:40:55Z</time>
      </trkpt>
      <trkpt lat="42.14187" lon="2.37742">
        <ele>949.4</ele>
        <time>2019-01-18T04:40:56Z</time>
      </trkpt>
      <trkpt lat="42.14188" lon="2.37741">
        <ele>950.4</ele>
        <time>2019-01-18T04:40:57Z</time>
      </trkpt>
      <trkpt lat="42.1419" lon="2.37742">
        <ele>950.9</ele>
        <time>2019-01-18T04:40:58Z</time>
      </trkpt>
      <trkpt lat="42.14192" lon="2.37746">
        <ele>951.3</ele>
        <time>2019-01-18T04:41:01Z</time>
      </trkpt>
      <trkpt lat="42.14198" lon="2.37747">
        <ele>956.9</ele>
        <time>2019-01-18T04:41:05Z</time>
      </trkpt>
      <trkpt lat="42.14198" lon="2.37746">
        <ele>958.4</ele>
        <time>2019-01-18T04:41:06Z</time>
      </trkpt>
      <trkpt lat="42.142" lon="2.37749">
        <ele>958.1</ele>
        <time>2019-01-18T04:41:09Z</time>
      </trkpt>
      <trkpt lat="42.14202" lon="2.37749">
        <ele>959.5</ele>
        <time>2019-01-18T04:41:10Z</time>
      </trkpt>
      <trkpt lat="42.14202" lon="2.37752">
        <ele>958.2</ele>
        <time>2019-01-18T04:41:11Z</time>
      </trkpt>
      <trkpt lat="42.14204" lon="2.37752">
        <ele>960.8</ele>
        <time>2019-01-18T04:41:13Z</time>
      </trkpt>
      <trkpt lat="42.14204" lon="2.37754">
        <ele>959.6</ele>
        <time>2019-01-18T04:41:14Z</time>
      </trkpt>
      <trkpt lat="42.14204" lon="2.37756">
        <ele>959.4</ele>
        <time>2019-01-18T04:41:15Z</time>
      </trkpt>
      <trkpt lat="42.14203" lon="2.3776">
        <ele>955.9</ele>
        <time>2019-01-18T04:41:18Z</time>
      </trkpt>
      <trkpt lat="42.14203" lon="2.37762">
        <ele>955.1</ele>
        <time>2019-01-18T04:41:19Z</time>
      </trkpt>
      <trkpt lat="42.14202" lon="2.37766">
        <ele>952.6</ele>
        <time>2019-01-18T04:41:21Z</time>
      </trkpt>
      <trkpt lat="42.14203" lon="2.37766">
        <ele>953.3</ele>
        <time>2019-01-18T04:41:22Z</time>
      </trkpt>
      <trkpt lat="42.14202" lon="2.37768">
        <ele>951.2</ele>
        <time>2019-01-18T04:41:24Z</time>
      </trkpt>
      <trkpt lat="42.14203" lon="2.37768">
        <ele>952</ele>
        <time>2019-01-18T04:41:25Z</time>
      </trkpt>
      <trkpt lat="42.14207" lon="2.37767">
        <ele>956.9</ele>
        <time>2019-01-18T04:41:27Z</time>
      </trkpt>
      <trkpt lat="42.1421" lon="2.37763">
        <ele>963.9</ele>
        <time>2019-01-18T04:41:32Z</time>
      </trkpt>
      <trkpt lat="42.14211" lon="2.3776">
        <ele>965.9</ele>
        <time>2019-01-18T04:41:33Z</time>
      </trkpt>
      <trkpt lat="42.14216" lon="2.37751">
        <ele>975</ele>
        <time>2019-01-18T04:41:40Z</time>
      </trkpt>
      <trkpt lat="42.14219" lon="2.37748">
        <ele>980</ele>
        <time>2019-01-18T04:41:43Z</time>
      </trkpt>
      <trkpt lat="42.1422" lon="2.37743">
        <ele>983.5</ele>
        <time>2019-01-18T04:41:46Z</time>
      </trkpt>
      <trkpt lat="42.14221" lon="2.37741">
        <ele>984.8</ele>
        <time>2019-01-18T04:41:47Z</time>
      </trkpt>
      <trkpt lat="42.14225" lon="2.37734">
        <ele>992.1</ele>
        <time>2019-01-18T04:41:52Z</time>
      </trkpt>
      <trkpt lat="42.14219" lon="2.37734">
        <ele>986.7</ele>
        <time>2019-01-18T04:41:57Z</time>
      </trkpt>
      <trkpt lat="42.14211" lon="2.37733">
        <ele>979.5</ele>
        <time>2019-01-18T04:42:03Z</time>
      </trkpt>
      <trkpt lat="42.14207" lon="2.37729">
        <ele>977.5</ele>
        <time>2019-01-18T04:42:07Z</time>
      </trkpt>
      <trkpt lat="42.14204" lon="2.37728">
        <ele>976</ele>
        <time>2019-01-18T04:42:10Z</time>
      </trkpt>
      <trkpt lat="42.14202" lon="2.37725">
        <ele>974.3</ele>
        <time>2019-01-18T04:42:12Z</time>
      </trkpt>
      <trkpt lat="42.14202" lon="2.37723">
        <ele>976</ele>
        <time>2019-01-18T04:42:14Z</time>
      </trkpt>
      <trkpt lat="42.142" lon="2.37721">
        <ele>976</ele>
        <time>2019-01-18T04:42:16Z</time>
      </trkpt>
      <trkpt lat="42.14199" lon="2.3772">
        <ele>976.3</ele>
        <time>2019-01-18T04:42:17Z</time>
      </trkpt>
      <trkpt lat="42.14197" lon="2.37715">
        <ele>977.3</ele>
        <time>2019-01-18T04:42:20Z</time>
      </trkpt>
      <trkpt lat="42.14195" lon="2.37712">
        <ele>977.1</ele>
        <time>2019-01-18T04:42:22Z</time>
      </trkpt>
      <trkpt lat="42.14193" lon="2.37711">
        <ele>976.8</ele>
        <time>2019-01-18T04:42:23Z</time>
      </trkpt>
      <trkpt lat="42.14194" lon="2.37711">
        <ele>977.8</ele>
        <time>2019-01-18T04:42:24Z</time>
      </trkpt>
      <trkpt lat="42.14194" lon="2.37709">
        <ele>979.9</ele>
        <time>2019-01-18T04:42:26Z</time>
      </trkpt>
      <trkpt lat="42.14192" lon="2.37711">
        <ele>976.3</ele>
        <time>2019-01-18T04:42:28Z</time>
      </trkpt>
      <trkpt lat="42.14186" lon="2.37715">
        <ele>968.8</ele>
        <time>2019-01-18T04:42:34Z</time>
      </trkpt>
      <trkpt lat="42.14184" lon="2.37716">
        <ele>965.7</ele>
        <time>2019-01-18T04:42:35Z</time>
      </trkpt>
      <trkpt lat="42.14181" lon="2.37722">
        <ele>959</ele>
        <time>2019-01-18T04:42:40Z</time>
      </trkpt>
      <trkpt lat="42.14178" lon="2.37724">
        <ele>954</ele>
        <time>2019-01-18T04:42:42Z</time>
      </trkpt>
      <trkpt lat="42.14178" lon="2.37726">
        <ele>951.9</ele>
        <time>2019-01-18T04:42:44Z</time>
      </trkpt>
      <trkpt lat="42.14179" lon="2.37727">
        <ele>952.4</ele>
        <time>2019-01-18T04:42:44Z</time>
      </trkpt>
      <trkpt lat="42.1418" lon="2.37725">
        <ele>955.7</ele>
        <time>2019-01-18T04:42:46Z</time>
      </trkpt>
      <trkpt lat="42.14182" lon="2.37717">
        <ele>963.8</ele>
        <time>2019-01-18T04:42:51Z</time>
      </trkpt>
      <trkpt lat="42.14185" lon="2.37716">
        <ele>967.7</ele>
        <time>2019-01-18T04:42:54Z</time>
      </trkpt>
      <trkpt lat="42.14184" lon="2.37714">
        <ele>968.1</ele>
        <time>2019-01-18T04:42:55Z</time>
      </trkpt>
      <trkpt lat="42.14185" lon="2.37713">
        <ele>969.4</ele>
        <time>2019-01-18T04:42:56Z</time>
      </trkpt>
      <trkpt lat="42.14184" lon="2.37712">
        <ele>969.4</ele>
        <time>2019-01-18T04:42:57Z</time>
      </trkpt>
      <trkpt lat="42.14183" lon="2.3771">
        <ele>969.9</ele>
        <time>2019-01-18T04:42:58Z</time>
      </trkpt>
      <trkpt lat="42.14186" lon="2.37715">
        <ele>968.9</ele>
        <time>2019-01-18T04:43:01Z</time>
      </trkpt>
      <trkpt lat="42.1419" lon="2.37711">
        <ele>974.4</ele>
        <time>2019-01-18T04:43:05Z</time>
      </trkpt>
      <trkpt lat="42.14191" lon="2.37707">
        <ele>978.5</ele>
        <time>2019-01-18T04:43:08Z</time>
      </trkpt>
      <trkpt lat="42.14197" lon="2.37704">
        <ele>985.3</ele>
        <time>2019-01-18T04:43:14Z</time>
      </trkpt>
      <trkpt lat="42.142" lon="2.37706">
        <ele>986.1</ele>
        <time>2019-01-18T04:43:17Z</time>
      </trkpt>
      <trkpt lat="42.14203" lon="2.37695">
        <ele>994.4</ele>
        <time>2019-01-18T04:43:24Z</time>
      </trkpt>
      <trkpt lat="42.14203" lon="2.37692">
        <ele>996.7</ele>
        <time>2019-01-18T04:43:25Z</time>
      </trkpt>
      <trkpt lat="42.14202" lon="2.37692">
        <ele>996.2</ele>
        <time>2019-01-18T04:43:26Z</time>
      </trkpt>
      <trkpt lat="42.14198" lon="2.37694">
        <ele>992.6</ele>
        <time>2019-01-18T04:43:30Z</time>
      </trkpt>
      <trkpt lat="42.14195" lon="2.37692">
        <ele>992.1</ele>
        <time>2019-01-18T04:43:32Z</time>
      </trkpt>
      <trkpt lat="42.14196" lon="2.37694">
        <ele>990.8</ele>
        <time>2019-01-18T04:43:34Z</time>
      </trkpt>
      <trkpt lat="42.14206" lon="2.37707">
        <ele>989</ele>
        <time>2019-01-18T04:43:44Z</time>
      </trkpt>
      <trkpt lat="42.14205" lon="2.37709">
        <ele>987.9</ele>
        <time>2019-01-18T04:43:46Z</time>
      </trkpt>
      <trkpt lat="42.14206" lon="2.3771">
        <ele>987.5</ele>
        <time>2019-01-18T04:43:47Z</time>
      </trkpt>
      <trkpt lat="42.14207" lon="2.37703">
        <ele>992.3</ele>
        <time>2019-01-18T04:43:51Z</time>
      </trkpt>
      <trkpt lat="42.14206" lon="2.37704">
        <ele>991.7</ele>
        <time>2019-01-18T04:43:52Z</time>
      </trkpt>
      <trkpt lat="42.14205" lon="2.37704">
        <ele>991</ele>
        <time>2019-01-18T04:43:53Z</time>
      </trkpt>
      <trkpt lat="42.14205" lon="2.37701">
        <ele>992.7</ele>
        <time>2019-01-18T04:43:54Z</time>
      </trkpt>
      <trkpt lat="42.14205" lon="2.377">
        <ele>993.5</ele>
        <time>2019-01-18T04:43:55Z</time>
      </trkpt>
      <trkpt lat="42.14204" lon="2.377">
        <ele>992.8</ele>
        <time>2019-01-18T04:43:55Z</time>
      </trkpt>
      <trkpt lat="42.14205" lon="2.37697">
        <ele>995</ele>
        <time>2019-01-18T04:43:58Z</time>
      </trkpt>
      <trkpt lat="42.14204" lon="2.37695">
        <ele>996</ele>
        <time>2019-01-18T04:43:59Z</time>
      </trkpt>
      <trkpt lat="42.14205" lon="2.37695">
        <ele>996.5</ele>
        <time>2019-01-18T04:44:00Z</time>
      </trkpt>
      <trkpt lat="42.14206" lon="2.37696">
        <ele>996.5</ele>
        <time>2019-01-18T04:44:01Z</time>
      </trkpt>
      <trkpt lat="42.14207" lon="2.37698">
        <ele>996.2</ele>
        <time>2019-01-18T04:44:02Z</time>
      </trkpt>
      <trkpt lat="42.14209" lon="2.37701">
        <ele>994.9</ele>
        <time>2019-01-18T04:44:04Z</time>
      </trkpt>
      <trkpt lat="42.1421" lon="2.37705">
        <ele>993.4</ele>
        <time>2019-01-18T04:44:07Z</time>
      </trkpt>
      <trkpt lat="42.14211" lon="2.37707">
        <ele>993.2</ele>
        <time>2019-01-18T04:44:09Z</time>
      </trkpt>
      <trkpt lat="42.14213" lon="2.37705">
        <ele>995.9</ele>
        <time>2019-01-18T04:44:11Z</time>
      </trkpt>
      <trkpt lat="42.14214" lon="2.37706">
        <ele>996.7</ele>
        <time>2019-01-18T04:44:12Z</time>
      </trkpt>
      <trkpt lat="42.14215" lon="2.37706">
        <ele>996.6</ele>
        <time>2019-01-18T04:44:12Z</time>
      </trkpt>
      <trkpt lat="42.14217" lon="2.37702">
        <ele>999.9</ele>
        <time>2019-01-18T04:44:16Z</time>
      </trkpt>
      <trkpt lat="42.14217" lon="2.377">
        <ele>1001.7</ele>
        <time>2019-01-18T04:44:17Z</time>
      </trkpt>
      <trkpt lat="42.14217" lon="2.37698">
        <ele>1002.8</ele>
        <time>2019-01-18T04:44:18Z</time>
      </trkpt>
      <trkpt lat="42.14218" lon="2.37699">
        <ele>1002.3</ele>
        <time>2019-01-18T04:44:19Z</time>
      </trkpt>
      <trkpt lat="42.14221" lon="2.37695">
        <ele>1006.1</ele>
        <time>2019-01-18T04:44:22Z</time>
      </trkpt>
      <trkpt lat="42.14222" lon="2.37692">
        <ele>1008.1</ele>
        <time>2019-01-18T04:44:24Z</time>
      </trkpt>
      <trkpt lat="42.14221" lon="2.37689">
        <ele>1009</ele>
        <time>2019-01-18T04:44:26Z</time>
      </trkpt>
      <trkpt lat="42.14223" lon="2.37689">
        <ele>1009.8</ele>
        <time>2019-01-18T04:44:27Z</time>
      </trkpt>
      <trkpt lat="42.14223" lon="2.37687">
        <ele>1011.3</ele>
        <time>2019-01-18T04:44:28Z</time>
      </trkpt>
      <trkpt lat="42.14223" lon="2.37682">
        <ele>1013.6</ele>
        <time>2019-01-18T04:44:31Z</time>
      </trkpt>
      <trkpt lat="42.14221" lon="2.37683">
        <ele>1012</ele>
        <time>2019-01-18T04:44:33Z</time>
      </trkpt>
      <trkpt lat="42.1422" lon="2.37683">
        <ele>1011.3</ele>
        <time>2019-01-18T04:44:34Z</time>
      </trkpt>
      <trkpt lat="42.1422" lon="2.37682">
        <ele>1011.8</ele>
        <time>2019-01-18T04:44:35Z</time>
      </trkpt>
      <trkpt lat="42.14213" lon="2.37684">
        <ele>1007</ele>
        <time>2019-01-18T04:44:40Z</time>
      </trkpt>
      <trkpt lat="42.1421" lon="2.37687">
        <ele>1003.9</ele>
        <time>2019-01-18T04:44:44Z</time>
      </trkpt>
      <trkpt lat="42.14207" lon="2.37687">
        <ele>1002.4</ele>
        <time>2019-01-18T04:44:46Z</time>
      </trkpt>
      <trkpt lat="42.14206" lon="2.37686">
        <ele>1002.6</ele>
        <time>2019-01-18T04:44:47Z</time>
      </trkpt>
      <trkpt lat="42.14203" lon="2.37684">
        <ele>1001.8</ele>
        <time>2019-01-18T04:44:50Z</time>
      </trkpt>
      <trkpt lat="42.14203" lon="2.37681">
        <ele>1003</ele>
        <time>2019-01-18T04:44:51Z</time>
      </trkpt>
      <trkpt lat="42.14202" lon="2.37677">
        <ele>1005.1</ele>
        <time>2019-01-18T04:44:54Z</time>
      </trkpt>
      <trkpt lat="42.14202" lon="2.37673">
        <ele>1008.3</ele>
        <time>2019-01-18T04:44:56Z</time>
      </trkpt>
      <trkpt lat="42.14198" lon="2.37663">
        <ele>1011.1</ele>
        <time>2019-01-18T04:45:03Z</time>
      </trkpt>
      <trkpt lat="42.14194" lon="2.37663">
        <ele>1009.7</ele>
        <time>2019-01-18T04:45:06Z</time>
      </trkpt>
      <trkpt lat="42.1419" lon="2.37657">
        <ele>1010.3</ele>
        <time>2019-01-18T04:45:11Z</time>
      </trkpt>
      <trkpt lat="42.14189" lon="2.37656">
        <ele>1010.3</ele>
        <time>2019-01-18T04:45:12Z</time>
      </trkpt>
      <trkpt lat="42.14187" lon="2.3765">
        <ele>1011.1</ele>
        <time>2019-01-18T04:45:16Z</time>
      </trkpt>
      <trkpt lat="42.14187" lon="2.37648">
        <ele>1011.5</ele>
        <time>2019-01-18T04:45:17Z</time>
      </trkpt>
      <trkpt lat="42.14188" lon="2.37645">
        <ele>1013</ele>
        <time>2019-01-18T04:45:19Z</time>
      </trkpt>
      <trkpt lat="42.14188" lon="2.3764">
        <ele>1014.6</ele>
        <time>2019-01-18T04:45:22Z</time>
      </trkpt>
      <trkpt lat="42.14187" lon="2.37637">
        <ele>1015</ele>
        <time>2019-01-18T04:45:24Z</time>
      </trkpt>
      <trkpt lat="42.14185" lon="2.37637">
        <ele>1014.4</ele>
        <time>2019-01-18T04:45:25Z</time>
      </trkpt>
      <trkpt lat="42.14177" lon="2.37639">
        <ele>1011.4</ele>
        <time>2019-01-18T04:45:32Z</time>
      </trkpt>
      <trkpt lat="42.14175" lon="2.37638">
        <ele>1010.8</ele>
        <time>2019-01-18T04:45:33Z</time>
      </trkpt>
      <trkpt lat="42.14172" lon="2.37638">
        <ele>1010</ele>
        <time>2019-01-18T04:45:36Z</time>
      </trkpt>
      <trkpt lat="42.1417" lon="2.37635">
        <ele>1010.7</ele>
        <time>2019-01-18T04:45:38Z</time>
      </trkpt>
      <trkpt lat="42.14168" lon="2.37633">
        <ele>1010.6</ele>
        <time>2019-01-18T04:45:40Z</time>
      </trkpt>
      <trkpt lat="42.14165" lon="2.37634">
        <ele>1009.2</ele>
        <time>2019-01-18T04:45:42Z</time>
      </trkpt>
      <trkpt lat="42.14163" lon="2.37636">
        <ele>1007.1</ele>
        <time>2019-01-18T04:45:44Z</time>
      </trkpt>
      <trkpt lat="42.14162" lon="2.37633">
        <ele>1008.1</ele>
        <time>2019-01-18T04:45:46Z</time>
      </trkpt>
      <trkpt lat="42.14163" lon="2.37631">
        <ele>1009.3</ele>
        <time>2019-01-18T04:45:48Z</time>
      </trkpt>
      <trkpt lat="42.14163" lon="2.37623">
        <ele>1012.6</ele>
        <time>2019-01-18T04:45:52Z</time>
      </trkpt>
      <trkpt lat="42.14167" lon="2.37616">
        <ele>1016.5</ele>
        <time>2019-01-18T04:45:57Z</time>
      </trkpt>
      <trkpt lat="42.14171" lon="2.37614">
        <ele>1018.3</ele>
        <time>2019-01-18T04:46:01Z</time>
      </trkpt>
      <trkpt lat="42.14166" lon="2.37624">
        <ele>1013.2</ele>
        <time>2019-01-18T04:46:08Z</time>
      </trkpt>
      <trkpt lat="42.14157" lon="2.37638">
        <ele>1003.1</ele>
        <time>2019-01-18T04:46:19Z</time>
      </trkpt>
      <trkpt lat="42.14151" lon="2.37629">
        <ele>1004.2</ele>
        <time>2019-01-18T04:46:26Z</time>
      </trkpt>
      <trkpt lat="42.14145" lon="2.37625">
        <ele>1004</ele>
        <time>2019-01-18T04:46:32Z</time>
      </trkpt>
      <trkpt lat="42.14133" lon="2.37613">
        <ele>1005.3</ele>
        <time>2019-01-18T04:46:43Z</time>
      </trkpt>
      <trkpt lat="42.14154" lon="2.37584">
        <ele>1025.2</ele>
        <time>2019-01-18T04:47:07Z</time>
      </trkpt>
      <trkpt lat="42.14157" lon="2.37583">
        <ele>1025.8</ele>
        <time>2019-01-18T04:47:09Z</time>
      </trkpt>
      <trkpt lat="42.1417" lon="2.37585">
        <ele>1028.2</ele>
        <time>2019-01-18T04:47:20Z</time>
      </trkpt>
      <trkpt lat="42.14173" lon="2.37585">
        <ele>1028.5</ele>
        <time>2019-01-18T04:47:22Z</time>
      </trkpt>
      <trkpt lat="42.14177" lon="2.37588">
        <ele>1028.4</ele>
        <time>2019-01-18T04:47:26Z</time>
      </trkpt>
      <trkpt lat="42.14176" lon="2.37595">
        <ele>1025.7</ele>
        <time>2019-01-18T04:47:31Z</time>
      </trkpt>
      <trkpt lat="42.1418" lon="2.37599">
        <ele>1025</ele>
        <time>2019-01-18T04:47:34Z</time>
      </trkpt>
      <trkpt lat="42.14176" lon="2.3761">
        <ele>1020.8</ele>
        <time>2019-01-18T04:47:42Z</time>
      </trkpt>
      <trkpt lat="42.14176" lon="2.37615">
        <ele>1019.1</ele>
        <time>2019-01-18T04:47:45Z</time>
      </trkpt>
      <trkpt lat="42.14174" lon="2.37619">
        <ele>1017.3</ele>
        <time>2019-01-18T04:47:47Z</time>
      </trkpt>
      <trkpt lat="42.14174" lon="2.37621">
        <ele>1017</ele>
        <time>2019-01-18T04:47:48Z</time>
      </trkpt>
      <trkpt lat="42.14173" lon="2.37631">
        <ele>1012.9</ele>
        <time>2019-01-18T04:47:55Z</time>
      </trkpt>
      <trkpt lat="42.14173" lon="2.37634">
        <ele>1012.1</ele>
        <time>2019-01-18T04:47:56Z</time>
      </trkpt>
      <trkpt lat="42.14171" lon="2.37638">
        <ele>1009.9</ele>
        <time>2019-01-18T04:47:59Z</time>
      </trkpt>
      <trkpt lat="42.14161" lon="2.37654">
        <ele>999.1</ele>
        <time>2019-01-18T04:48:12Z</time>
      </trkpt>
      <trkpt lat="42.14173" lon="2.37666">
        <ele>1000.8</ele>
        <time>2019-01-18T04:48:24Z</time>
      </trkpt>
      <trkpt lat="42.14178" lon="2.37636">
        <ele>1012.8</ele>
        <time>2019-01-18T04:48:42Z</time>
      </trkpt>
      <trkpt lat="42.14175" lon="2.37634">
        <ele>1012.4</ele>
        <time>2019-01-18T04:48:44Z</time>
      </trkpt>
      <trkpt lat="42.14175" lon="2.37632">
        <ele>1013</ele>
        <time>2019-01-18T04:48:45Z</time>
      </trkpt>
      <trkpt lat="42.14171" lon="2.37632">
        <ele>1011.8</ele>
        <time>2019-01-18T04:48:49Z</time>
      </trkpt>
      <trkpt lat="42.14171" lon="2.37631">
        <ele>1012.2</ele>
        <time>2019-01-18T04:48:49Z</time>
      </trkpt>
      <trkpt lat="42.14172" lon="2.37631">
        <ele>1012.6</ele>
        <time>2019-01-18T04:48:50Z</time>
      </trkpt>
      <trkpt lat="42.14176" lon="2.37629">
        <ele>1014.6</ele>
        <time>2019-01-18T04:48:54Z</time>
      </trkpt>
      <trkpt lat="42.14177" lon="2.37629">
        <ele>1014.7</ele>
        <time>2019-01-18T04:48:55Z</time>
      </trkpt>
      <trkpt lat="42.14179" lon="2.37629">
        <ele>1015</ele>
        <time>2019-01-18T04:48:56Z</time>
      </trkpt>
      <trkpt lat="42.1418" lon="2.3763">
        <ele>1015.5</ele>
        <time>2019-01-18T04:48:57Z</time>
      </trkpt>
      <trkpt lat="42.14184" lon="2.37633">
        <ele>1015.3</ele>
        <time>2019-01-18T04:49:01Z</time>
      </trkpt>
      <trkpt lat="42.14186" lon="2.37635">
        <ele>1015.5</ele>
        <time>2019-01-18T04:49:03Z</time>
      </trkpt>
      <trkpt lat="42.14188" lon="2.3764">
        <ele>1014.5</ele>
        <time>2019-01-18T04:49:06Z</time>
      </trkpt>
      <trkpt lat="42.14189" lon="2.37642">
        <ele>1014</ele>
        <time>2019-01-18T04:49:08Z</time>
      </trkpt>
      <trkpt lat="42.14189" lon="2.37645">
        <ele>1013.3</ele>
        <time>2019-01-18T04:49:10Z</time>
      </trkpt>
      <trkpt lat="42.1419" lon="2.37651">
        <ele>1011.9</ele>
        <time>2019-01-18T04:49:13Z</time>
      </trkpt>
      <trkpt lat="42.14191" lon="2.37656">
        <ele>1010.5</ele>
        <time>2019-01-18T04:49:17Z</time>
      </trkpt>
      <trkpt lat="42.1419" lon="2.37658">
        <ele>1009.8</ele>
        <time>2019-01-18T04:49:18Z</time>
      </trkpt>
      <trkpt lat="42.14192" lon="2.37659">
        <ele>1010</ele>
        <time>2019-01-18T04:49:19Z</time>
      </trkpt>
      <trkpt lat="42.14193" lon="2.37661">
        <ele>1010.3</ele>
        <time>2019-01-18T04:49:21Z</time>
      </trkpt>
      <trkpt lat="42.14195" lon="2.37662">
        <ele>1010.3</ele>
        <time>2019-01-18T04:49:22Z</time>
      </trkpt>
      <trkpt lat="42.14199" lon="2.37667">
        <ele>1010.3</ele>
        <time>2019-01-18T04:49:27Z</time>
      </trkpt>
      <trkpt lat="42.14199" lon="2.3767">
        <ele>1008.6</ele>
        <time>2019-01-18T04:49:28Z</time>
      </trkpt>
      <trkpt lat="42.14205" lon="2.37683">
        <ele>1003.1</ele>
        <time>2019-01-18T04:49:37Z</time>
      </trkpt>
      <trkpt lat="42.14208" lon="2.3769">
        <ele>1000.7</ele>
        <time>2019-01-18T04:49:43Z</time>
      </trkpt>
      <trkpt lat="42.14211" lon="2.37687">
        <ele>1004.3</ele>
        <time>2019-01-18T04:49:46Z</time>
      </trkpt>
      <trkpt lat="42.14217" lon="2.37688">
        <ele>1007</ele>
        <time>2019-01-18T04:49:50Z</time>
      </trkpt>
      <trkpt lat="42.14218" lon="2.37683">
        <ele>1010.2</ele>
        <time>2019-01-18T04:49:54Z</time>
      </trkpt>
      <trkpt lat="42.14217" lon="2.37681">
        <ele>1010.9</ele>
        <time>2019-01-18T04:49:55Z</time>
      </trkpt>
      <trkpt lat="42.14221" lon="2.37677">
        <ele>1014.3</ele>
        <time>2019-01-18T04:49:59Z</time>
      </trkpt>
      <trkpt lat="42.14223" lon="2.3768">
        <ele>1014</ele>
        <time>2019-01-18T04:50:01Z</time>
      </trkpt>
      <trkpt lat="42.1422" lon="2.37679">
        <ele>1013</ele>
        <time>2019-01-18T04:50:04Z</time>
      </trkpt>
      <trkpt lat="42.14213" lon="2.37688">
        <ele>1005.2</ele>
        <time>2019-01-18T04:50:11Z</time>
      </trkpt>
      <trkpt lat="42.14212" lon="2.37685">
        <ele>1006.4</ele>
        <time>2019-01-18T04:50:13Z</time>
      </trkpt>
      <trkpt lat="42.14213" lon="2.37681">
        <ele>1008.4</ele>
        <time>2019-01-18T04:50:16Z</time>
      </trkpt>
      <trkpt lat="42.14218" lon="2.37681">
        <ele>1011.4</ele>
        <time>2019-01-18T04:50:19Z</time>
      </trkpt>
      <trkpt lat="42.14219" lon="2.37679">
        <ele>1012.4</ele>
        <time>2019-01-18T04:50:21Z</time>
      </trkpt>
      <trkpt lat="42.1422" lon="2.37677">
        <ele>1014.5</ele>
        <time>2019-01-18T04:50:23Z</time>
      </trkpt>
      <trkpt lat="42.14222" lon="2.37676">
        <ele>1015.3</ele>
        <time>2019-01-18T04:50:24Z</time>
      </trkpt>
      <trkpt lat="42.14225" lon="2.37672">
        <ele>1018.9</ele>
        <time>2019-01-18T04:50:28Z</time>
      </trkpt>
      <trkpt lat="42.14226" lon="2.37674">
        <ele>1018.2</ele>
        <time>2019-01-18T04:50:29Z</time>
      </trkpt>
      <trkpt lat="42.14224" lon="2.37678">
        <ele>1015.7</ele>
        <time>2019-01-18T04:50:32Z</time>
      </trkpt>
      <trkpt lat="42.14227" lon="2.37674">
        <ele>1018.8</ele>
        <time>2019-01-18T04:50:35Z</time>
      </trkpt>
      <trkpt lat="42.14228" lon="2.37672">
        <ele>1019.6</ele>
        <time>2019-01-18T04:50:36Z</time>
      </trkpt>
      <trkpt lat="42.14227" lon="2.37674">
        <ele>1018.9</ele>
        <time>2019-01-18T04:50:38Z</time>
      </trkpt>
      <trkpt lat="42.14227" lon="2.37673">
        <ele>1019.3</ele>
        <time>2019-01-18T04:50:38Z</time>
      </trkpt>
      <trkpt lat="42.14228" lon="2.37674">
        <ele>1018.9</ele>
        <time>2019-01-18T04:50:39Z</time>
      </trkpt>
      <trkpt lat="42.1423" lon="2.37676">
        <ele>1018.9</ele>
        <time>2019-01-18T04:50:41Z</time>
      </trkpt>
      <trkpt lat="42.14232" lon="2.37676">
        <ele>1020</ele>
        <time>2019-01-18T04:50:43Z</time>
      </trkpt>
      <trkpt lat="42.14236" lon="2.37685">
        <ele>1019</ele>
        <time>2019-01-18T04:50:49Z</time>
      </trkpt>
      <trkpt lat="42.14234" lon="2.37687">
        <ele>1017.5</ele>
        <time>2019-01-18T04:50:51Z</time>
      </trkpt>
      <trkpt lat="42.14233" lon="2.37686">
        <ele>1017.4</ele>
        <time>2019-01-18T04:50:52Z</time>
      </trkpt>
      <trkpt lat="42.14233" lon="2.37684">
        <ele>1017.7</ele>
        <time>2019-01-18T04:50:53Z</time>
      </trkpt>
      <trkpt lat="42.14232" lon="2.37684">
        <ele>1017.3</ele>
        <time>2019-01-18T04:50:54Z</time>
      </trkpt>
      <trkpt lat="42.14235" lon="2.37689">
        <ele>1016.8</ele>
        <time>2019-01-18T04:50:57Z</time>
      </trkpt>
      <trkpt lat="42.14236" lon="2.37693">
        <ele>1016.6</ele>
        <time>2019-01-18T04:50:59Z</time>
      </trkpt>
      <trkpt lat="42.14236" lon="2.37694">
        <ele>1015.9</ele>
        <time>2019-01-18T04:51:00Z</time>
      </trkpt>
      <trkpt lat="42.14236" lon="2.37695">
        <ele>1015.7</ele>
        <time>2019-01-18T04:51:01Z</time>
      </trkpt>
      <trkpt lat="42.14236" lon="2.37691">
        <ele>1017.1</ele>
        <time>2019-01-18T04:51:03Z</time>
      </trkpt>
      <trkpt lat="42.14238" lon="2.37686">
        <ele>1020</ele>
        <time>2019-01-18T04:51:07Z</time>
      </trkpt>
      <trkpt lat="42.1424" lon="2.37685">
        <ele>1021.3</ele>
        <time>2019-01-18T04:51:09Z</time>
      </trkpt>
      <trkpt lat="42.1424" lon="2.37685">
        <ele>1021.1</ele>
        <time>2019-01-18T04:51:09Z</time>
      </trkpt>
      <trkpt lat="42.1424" lon="2.37684">
        <ele>1021.2</ele>
        <time>2019-01-18T04:51:10Z</time>
      </trkpt>
      <trkpt lat="42.14238" lon="2.37683">
        <ele>1021</ele>
        <time>2019-01-18T04:51:11Z</time>
      </trkpt>
      <trkpt lat="42.14239" lon="2.37679">
        <ele>1022.2</ele>
        <time>2019-01-18T04:51:13Z</time>
      </trkpt>
      <trkpt lat="42.14238" lon="2.37679">
        <ele>1022.1</ele>
        <time>2019-01-18T04:51:13Z</time>
      </trkpt>
      <trkpt lat="42.14238" lon="2.3768">
        <ele>1021.6</ele>
        <time>2019-01-18T04:51:14Z</time>
      </trkpt>
      <trkpt lat="42.14238" lon="2.37677">
        <ele>1022.1</ele>
        <time>2019-01-18T04:51:16Z</time>
      </trkpt>
      <trkpt lat="42.14235" lon="2.37677">
        <ele>1021.4</ele>
        <time>2019-01-18T04:51:17Z</time>
      </trkpt>
      <trkpt lat="42.14236" lon="2.37676">
        <ele>1021.7</ele>
        <time>2019-01-18T04:51:18Z</time>
      </trkpt>
      <trkpt lat="42.14236" lon="2.37676">
        <ele>1021.9</ele>
        <time>2019-01-18T04:51:18Z</time>
      </trkpt>
      <trkpt lat="42.14236" lon="2.37676">
        <ele>1022</ele>
        <time>2019-01-18T04:51:18Z</time>
      </trkpt>
      <trkpt lat="42.14237" lon="2.37676">
        <ele>1022.1</ele>
        <time>2019-01-18T04:51:19Z</time>
      </trkpt>
      <trkpt lat="42.14237" lon="2.37678">
        <ele>1021.9</ele>
        <time>2019-01-18T04:51:20Z</time>
      </trkpt>
      <trkpt lat="42.14239" lon="2.37677">
        <ele>1022.9</ele>
        <time>2019-01-18T04:51:21Z</time>
      </trkpt>
      <trkpt lat="42.14246" lon="2.37681">
        <ele>1025.5</ele>
        <time>2019-01-18T04:51:27Z</time>
      </trkpt>
      <trkpt lat="42.14253" lon="2.37684">
        <ele>1027.6</ele>
        <time>2019-01-18T04:51:33Z</time>
      </trkpt>
      <trkpt lat="42.1425" lon="2.37692">
        <ele>1025.3</ele>
        <time>2019-01-18T04:51:38Z</time>
      </trkpt>
      <trkpt lat="42.14255" lon="2.3769">
        <ele>1027.3</ele>
        <time>2019-01-18T04:51:43Z</time>
      </trkpt>
      <trkpt lat="42.14261" lon="2.37684">
        <ele>1030.3</ele>
        <time>2019-01-18T04:51:49Z</time>
      </trkpt>
      <trkpt lat="42.14266" lon="2.3768">
        <ele>1032.5</ele>
        <time>2019-01-18T04:51:53Z</time>
      </trkpt>
      <trkpt lat="42.14269" lon="2.37681">
        <ele>1033.2</ele>
        <time>2019-01-18T04:51:55Z</time>
      </trkpt>
      <trkpt lat="42.14266" lon="2.37688">
        <ele>1031.1</ele>
        <time>2019-01-18T04:52:00Z</time>
      </trkpt>
      <trkpt lat="42.14258" lon="2.37694">
        <ele>1027.5</ele>
        <time>2019-01-18T04:52:07Z</time>
      </trkpt>
      <trkpt lat="42.14257" lon="2.37696">
        <ele>1026.8</ele>
        <time>2019-01-18T04:52:09Z</time>
      </trkpt>
      <trkpt lat="42.14258" lon="2.37698">
        <ele>1026.9</ele>
        <time>2019-01-18T04:52:11Z</time>
      </trkpt>
      <trkpt lat="42.14261" lon="2.37695">
        <ele>1028.3</ele>
        <time>2019-01-18T04:52:13Z</time>
      </trkpt>
      <trkpt lat="42.14263" lon="2.37696">
        <ele>1028.9</ele>
        <time>2019-01-18T04:52:15Z</time>
      </trkpt>
      <trkpt lat="42.14262" lon="2.37695">
        <ele>1028.6</ele>
        <time>2019-01-18T04:52:16Z</time>
      </trkpt>
      <trkpt lat="42.14257" lon="2.37701">
        <ele>1026</ele>
        <time>2019-01-18T04:52:21Z</time>
      </trkpt>
      <trkpt lat="42.14256" lon="2.37702">
        <ele>1025.2</ele>
        <time>2019-01-18T04:52:23Z</time>
      </trkpt>
      <trkpt lat="42.14255" lon="2.37704">
        <ele>1024.5</ele>
        <time>2019-01-18T04:52:24Z</time>
      </trkpt>
      <trkpt lat="42.14257" lon="2.37706">
        <ele>1025.1</ele>
        <time>2019-01-18T04:52:26Z</time>
      </trkpt>
      <trkpt lat="42.14261" lon="2.37706">
        <ele>1026.1</ele>
        <time>2019-01-18T04:52:29Z</time>
      </trkpt>
      <trkpt lat="42.1426" lon="2.37708">
        <ele>1025.7</ele>
        <time>2019-01-18T04:52:30Z</time>
      </trkpt>
      <trkpt lat="42.1426" lon="2.37708">
        <ele>1025.6</ele>
        <time>2019-01-18T04:52:30Z</time>
      </trkpt>
      <trkpt lat="42.1426" lon="2.3771">
        <ele>1025.3</ele>
        <time>2019-01-18T04:52:31Z</time>
      </trkpt>
      <trkpt lat="42.14262" lon="2.37714">
        <ele>1025.3</ele>
        <time>2019-01-18T04:52:34Z</time>
      </trkpt>
      <trkpt lat="42.14261" lon="2.37715">
        <ele>1024.8</ele>
        <time>2019-01-18T04:52:35Z</time>
      </trkpt>
      <trkpt lat="42.14263" lon="2.37726">
        <ele>1023.7</ele>
        <time>2019-01-18T04:52:41Z</time>
      </trkpt>
      <trkpt lat="42.14266" lon="2.37726">
        <ele>1024.8</ele>
        <time>2019-01-18T04:52:43Z</time>
      </trkpt>
      <trkpt lat="42.14267" lon="2.37729">
        <ele>1024.8</ele>
        <time>2019-01-18T04:52:45Z</time>
      </trkpt>
      <trkpt lat="42.14268" lon="2.37732">
        <ele>1024.2</ele>
        <time>2019-01-18T04:52:47Z</time>
      </trkpt>
      <trkpt lat="42.1427" lon="2.37741">
        <ele>1024</ele>
        <time>2019-01-18T04:52:52Z</time>
      </trkpt>
      <trkpt lat="42.14271" lon="2.37742">
        <ele>1024</ele>
        <time>2019-01-18T04:52:53Z</time>
      </trkpt>
      <trkpt lat="42.14276" lon="2.37742">
        <ele>1026.2</ele>
        <time>2019-01-18T04:52:58Z</time>
      </trkpt>
      <trkpt lat="42.14278" lon="2.3774">
        <ele>1027.2</ele>
        <time>2019-01-18T04:53:00Z</time>
      </trkpt>
      <trkpt lat="42.14279" lon="2.3774">
        <ele>1027.7</ele>
        <time>2019-01-18T04:53:01Z</time>
      </trkpt>
      <trkpt lat="42.1428" lon="2.37741">
        <ele>1027.5</ele>
        <time>2019-01-18T04:53:01Z</time>
      </trkpt>
      <trkpt lat="42.14282" lon="2.37744">
        <ele>1028.2</ele>
        <time>2019-01-18T04:53:04Z</time>
      </trkpt>
      <trkpt lat="42.14285" lon="2.37747">
        <ele>1028.8</ele>
        <time>2019-01-18T04:53:07Z</time>
      </trkpt>
      <trkpt lat="42.14286" lon="2.3775">
        <ele>1028.7</ele>
        <time>2019-01-18T04:53:09Z</time>
      </trkpt>
      <trkpt lat="42.14289" lon="2.37747">
        <ele>1030.4</ele>
        <time>2019-01-18T04:53:12Z</time>
      </trkpt>
      <trkpt lat="42.14296" lon="2.37747">
        <ele>1033.2</ele>
        <time>2019-01-18T04:53:18Z</time>
      </trkpt>
      <trkpt lat="42.14299" lon="2.37746">
        <ele>1034.8</ele>
        <time>2019-01-18T04:53:20Z</time>
      </trkpt>
      <trkpt lat="42.143" lon="2.37747">
        <ele>1035.2</ele>
        <time>2019-01-18T04:53:22Z</time>
      </trkpt>
      <trkpt lat="42.14301" lon="2.37747">
        <ele>1035.5</ele>
        <time>2019-01-18T04:53:22Z</time>
      </trkpt>
      <trkpt lat="42.14302" lon="2.37748">
        <ele>1035.4</ele>
        <time>2019-01-18T04:53:23Z</time>
      </trkpt>
      <trkpt lat="42.14301" lon="2.3775">
        <ele>1035</ele>
        <time>2019-01-18T04:53:24Z</time>
      </trkpt>
      <trkpt lat="42.14302" lon="2.37751">
        <ele>1035.1</ele>
        <time>2019-01-18T04:53:25Z</time>
      </trkpt>
      <trkpt lat="42.14304" lon="2.37757">
        <ele>1035.3</ele>
        <time>2019-01-18T04:53:29Z</time>
      </trkpt>
      <trkpt lat="42.14305" lon="2.37763">
        <ele>1035.3</ele>
        <time>2019-01-18T04:53:33Z</time>
      </trkpt>
      <trkpt lat="42.14309" lon="2.37764">
        <ele>1036.6</ele>
        <time>2019-01-18T04:53:36Z</time>
      </trkpt>
      <trkpt lat="42.14309" lon="2.37772">
        <ele>1035.6</ele>
        <time>2019-01-18T04:53:41Z</time>
      </trkpt>
      <trkpt lat="42.14307" lon="2.37777">
        <ele>1034.7</ele>
        <time>2019-01-18T04:53:44Z</time>
      </trkpt>
      <trkpt lat="42.14307" lon="2.37778">
        <ele>1034.1</ele>
        <time>2019-01-18T04:53:44Z</time>
      </trkpt>
      <trkpt lat="42.14307" lon="2.37782">
        <ele>1033.6</ele>
        <time>2019-01-18T04:53:47Z</time>
      </trkpt>
      <trkpt lat="42.143" lon="2.37792">
        <ele>1028.8</ele>
        <time>2019-01-18T04:53:55Z</time>
      </trkpt>
      <trkpt lat="42.143" lon="2.37795">
        <ele>1028.2</ele>
        <time>2019-01-18T04:53:56Z</time>
      </trkpt>
      <trkpt lat="42.14303" lon="2.37796">
        <ele>1029.7</ele>
        <time>2019-01-18T04:53:59Z</time>
      </trkpt>
      <trkpt lat="42.14306" lon="2.37798">
        <ele>1031.2</ele>
        <time>2019-01-18T04:54:01Z</time>
      </trkpt>
      <trkpt lat="42.14307" lon="2.37796">
        <ele>1031.9</ele>
        <time>2019-01-18T04:54:03Z</time>
      </trkpt>
      <trkpt lat="42.14307" lon="2.37796">
        <ele>1032.2</ele>
        <time>2019-01-18T04:54:03Z</time>
      </trkpt>
      <trkpt lat="42.1431" lon="2.37793">
        <ele>1034.5</ele>
        <time>2019-01-18T04:54:06Z</time>
      </trkpt>
      <trkpt lat="42.14311" lon="2.37791">
        <ele>1034.7</ele>
        <time>2019-01-18T04:54:07Z</time>
      </trkpt>
      <trkpt lat="42.14313" lon="2.37794">
        <ele>1035.6</ele>
        <time>2019-01-18T04:54:09Z</time>
      </trkpt>
      <trkpt lat="42.14317" lon="2.37797">
        <ele>1037.7</ele>
        <time>2019-01-18T04:54:14Z</time>
      </trkpt>
      <trkpt lat="42.14321" lon="2.37788">
        <ele>1040.3</ele>
        <time>2019-01-18T04:54:20Z</time>
      </trkpt>
      <trkpt lat="42.14322" lon="2.37785">
        <ele>1041.3</ele>
        <time>2019-01-18T04:54:22Z</time>
      </trkpt>
      <trkpt lat="42.14324" lon="2.37784">
        <ele>1042.5</ele>
        <time>2019-01-18T04:54:23Z</time>
      </trkpt>
      <trkpt lat="42.14325" lon="2.37783">
        <ele>1043.1</ele>
        <time>2019-01-18T04:54:25Z</time>
      </trkpt>
      <trkpt lat="42.14326" lon="2.37781">
        <ele>1043.6</ele>
        <time>2019-01-18T04:54:26Z</time>
      </trkpt>
      <trkpt lat="42.14328" lon="2.37779">
        <ele>1044.7</ele>
        <time>2019-01-18T04:54:28Z</time>
      </trkpt>
      <trkpt lat="42.14332" lon="2.37772">
        <ele>1046.9</ele>
        <time>2019-01-18T04:54:33Z</time>
      </trkpt>
      <trkpt lat="42.14336" lon="2.37763">
        <ele>1048.5</ele>
        <time>2019-01-18T04:54:39Z</time>
      </trkpt>
      <trkpt lat="42.14338" lon="2.37762">
        <ele>1049</ele>
        <time>2019-01-18T04:54:41Z</time>
      </trkpt>
      <trkpt lat="42.14341" lon="2.37759">
        <ele>1049.8</ele>
        <time>2019-01-18T04:54:44Z</time>
      </trkpt>
      <trkpt lat="42.14343" lon="2.37756">
        <ele>1050.5</ele>
        <time>2019-01-18T04:54:47Z</time>
      </trkpt>
      <trkpt lat="42.14346" lon="2.37756">
        <ele>1051.2</ele>
        <time>2019-01-18T04:54:49Z</time>
      </trkpt>
      <trkpt lat="42.14347" lon="2.37755">
        <ele>1051.6</ele>
        <time>2019-01-18T04:54:50Z</time>
      </trkpt>
      <trkpt lat="42.1435" lon="2.37754">
        <ele>1052.4</ele>
        <time>2019-01-18T04:54:52Z</time>
      </trkpt>
      <trkpt lat="42.14357" lon="2.37756">
        <ele>1054.3</ele>
        <time>2019-01-18T04:54:58Z</time>
      </trkpt>
      <trkpt lat="42.14359" lon="2.37763">
        <ele>1054.3</ele>
        <time>2019-01-18T04:55:02Z</time>
      </trkpt>
      <trkpt lat="42.14362" lon="2.37763">
        <ele>1055.4</ele>
        <time>2019-01-18T04:55:05Z</time>
      </trkpt>
      <trkpt lat="42.14362" lon="2.37763">
        <ele>1055.3</ele>
        <time>2019-01-18T04:55:05Z</time>
      </trkpt>
      <trkpt lat="42.14364" lon="2.3776">
        <ele>1055.9</ele>
        <time>2019-01-18T04:55:08Z</time>
      </trkpt>
      <trkpt lat="42.14368" lon="2.37764">
        <ele>1057</ele>
        <time>2019-01-18T04:55:12Z</time>
      </trkpt>
      <trkpt lat="42.14371" lon="2.37765">
        <ele>1057.5</ele>
        <time>2019-01-18T04:55:14Z</time>
      </trkpt>
      <trkpt lat="42.14371" lon="2.37767">
        <ele>1057.6</ele>
        <time>2019-01-18T04:55:15Z</time>
      </trkpt>
      <trkpt lat="42.14372" lon="2.37756">
        <ele>1045</ele>
        <time>2019-01-18T04:55:21Z</time>
      </trkpt>
      <trkpt lat="42.14379" lon="2.37749">
        <ele>1047.1</ele>
        <time>2019-01-18T04:55:28Z</time>
      </trkpt>
      <trkpt lat="42.14371" lon="2.37749">
        <ele>1048</ele>
        <time>2019-01-18T04:55:35Z</time>
      </trkpt>
      <trkpt lat="42.14358" lon="2.37744">
        <ele>1051.1</ele>
        <time>2019-01-18T04:55:45Z</time>
      </trkpt>
      <trkpt lat="42.14364" lon="2.37739">
        <ele>1053.1</ele>
        <time>2019-01-18T04:55:51Z</time>
      </trkpt>
      <trkpt lat="42.14369" lon="2.37737">
        <ele>1054.1</ele>
        <time>2019-01-18T04:55:55Z</time>
      </trkpt>
      <trkpt lat="42.14363" lon="2.3773">
        <ele>1055.5</ele>
        <time>2019-01-18T04:56:02Z</time>
      </trkpt>
      <trkpt lat="42.1436" lon="2.37724">
        <ele>1055</ele>
        <time>2019-01-18T04:56:06Z</time>
      </trkpt>
      <trkpt lat="42.14358" lon="2.37717">
        <ele>1054.7</ele>
        <time>2019-01-18T04:56:10Z</time>
      </trkpt>
      <trkpt lat="42.14355" lon="2.37712">
        <ele>1054.1</ele>
        <time>2019-01-18T04:56:14Z</time>
      </trkpt>
      <trkpt lat="42.1435" lon="2.3771">
        <ele>1052.9</ele>
        <time>2019-01-18T04:56:18Z</time>
      </trkpt>
      <trkpt lat="42.14346" lon="2.37709">
        <ele>1051.9</ele>
        <time>2019-01-18T04:56:22Z</time>
      </trkpt>
      <trkpt lat="42.14341" lon="2.37708">
        <ele>1050.7</ele>
        <time>2019-01-18T04:56:26Z</time>
      </trkpt>
      <trkpt lat="42.14337" lon="2.37704">
        <ele>1049.7</ele>
        <time>2019-01-18T04:56:30Z</time>
      </trkpt>
      <trkpt lat="42.14332" lon="2.377">
        <ele>1048.4</ele>
        <time>2019-01-18T04:56:34Z</time>
      </trkpt>
      <trkpt lat="42.14327" lon="2.37698">
        <ele>1047.9</ele>
        <time>2019-01-18T04:56:38Z</time>
      </trkpt>
      <trkpt lat="42.14324" lon="2.37692">
        <ele>1047.4</ele>
        <time>2019-01-18T04:56:43Z</time>
      </trkpt>
      <trkpt lat="42.14322" lon="2.37686">
        <ele>1045.6</ele>
        <time>2019-01-18T04:56:47Z</time>
      </trkpt>
      <trkpt lat="42.14319" lon="2.37679">
        <ele>1045.5</ele>
        <time>2019-01-18T04:56:52Z</time>
      </trkpt>
      <trkpt lat="42.14318" lon="2.37672">
        <ele>1044.9</ele>
        <time>2019-01-18T04:56:56Z</time>
      </trkpt>
      <trkpt lat="42.14315" lon="2.37668">
        <ele>1044.7</ele>
        <time>2019-01-18T04:56:59Z</time>
      </trkpt>
      <trkpt lat="42.14311" lon="2.37663">
        <ele>1044.3</ele>
        <time>2019-01-18T04:57:04Z</time>
      </trkpt>
      <trkpt lat="42.14306" lon="2.37659">
        <ele>1044.1</ele>
        <time>2019-01-18T04:57:08Z</time>
      </trkpt>
      <trkpt lat="42.14302" lon="2.37654">
        <ele>1043.5</ele>
        <time>2019-01-18T04:57:13Z</time>
      </trkpt>
      <trkpt lat="42.14297" lon="2.3765">
        <ele>1042.8</ele>
        <time>2019-01-18T04:57:17Z</time>
      </trkpt>
      <trkpt lat="42.14292" lon="2.37648">
        <ele>1042.7</ele>
        <time>2019-01-18T04:57:21Z</time>
      </trkpt>
      <trkpt lat="42.14288" lon="2.37645">
        <ele>1042.3</ele>
        <time>2019-01-18T04:57:25Z</time>
      </trkpt>
      <trkpt lat="42.14283" lon="2.3764">
        <ele>1042</ele>
        <time>2019-01-18T04:57:30Z</time>
      </trkpt>
      <trkpt lat="42.14276" lon="2.37634">
        <ele>1041.7</ele>
        <time>2019-01-18T04:57:36Z</time>
      </trkpt>
      <trkpt lat="42.14269" lon="2.3763">
        <ele>1041.5</ele>
        <time>2019-01-18T04:57:42Z</time>
      </trkpt>
      <trkpt lat="42.14265" lon="2.37627">
        <ele>1041.4</ele>
        <time>2019-01-18T04:57:46Z</time>
      </trkpt>
      <trkpt lat="42.1426" lon="2.37624">
        <ele>1041.3</ele>
        <time>2019-01-18T04:57:51Z</time>
      </trkpt>
      <trkpt lat="42.14255" lon="2.3762">
        <ele>1041.1</ele>
        <time>2019-01-18T04:57:55Z</time>
      </trkpt>
      <trkpt lat="42.14251" lon="2.37617">
        <ele>1041</ele>
        <time>2019-01-18T04:57:59Z</time>
      </trkpt>
      <trkpt lat="42.14248" lon="2.37611">
        <ele>1040.9</ele>
        <time>2019-01-18T04:58:03Z</time>
      </trkpt>
      <trkpt lat="42.14245" lon="2.37606">
        <ele>1041</ele>
        <time>2019-01-18T04:58:07Z</time>
      </trkpt>
      <trkpt lat="42.14244" lon="2.37599">
        <ele>1041.4</ele>
        <time>2019-01-18T04:58:12Z</time>
      </trkpt>
      <trkpt lat="42.14247" lon="2.37592">
        <ele>1041.8</ele>
        <time>2019-01-18T04:58:16Z</time>
      </trkpt>
      <trkpt lat="42.14253" lon="2.37594">
        <ele>1041.4</ele>
        <time>2019-01-18T04:58:22Z</time>
      </trkpt>
      <trkpt lat="42.14252" lon="2.37587">
        <ele>1041</ele>
        <time>2019-01-18T04:58:26Z</time>
      </trkpt>
      <trkpt lat="42.14247" lon="2.37586">
        <ele>1040.6</ele>
        <time>2019-01-18T04:58:29Z</time>
      </trkpt>
      <trkpt lat="42.14242" lon="2.37584">
        <ele>1040.2</ele>
        <time>2019-01-18T04:58:33Z</time>
      </trkpt>
      <trkpt lat="42.14237" lon="2.37584">
        <ele>1039.9</ele>
        <time>2019-01-18T04:58:38Z</time>
      </trkpt>
      <trkpt lat="42.14232" lon="2.37584">
        <ele>1039.2</ele>
        <time>2019-01-18T04:58:41Z</time>
      </trkpt>
      <trkpt lat="42.14227" lon="2.37581">
        <ele>1039</ele>
        <time>2019-01-18T04:58:46Z</time>
      </trkpt>
      <trkpt lat="42.14219" lon="2.3758">
        <ele>1038.7</ele>
        <time>2019-01-18T04:58:53Z</time>
      </trkpt>
      <trkpt lat="42.14212" lon="2.37581">
        <ele>1037.1</ele>
        <time>2019-01-18T04:58:58Z</time>
      </trkpt>
      <trkpt lat="42.14227" lon="2.37589">
        <ele>1035.3</ele>
        <time>2019-01-18T04:59:11Z</time>
      </trkpt>
      <trkpt lat="42.14218" lon="2.37588">
        <ele>1034</ele>
        <time>2019-01-18T04:59:18Z</time>
      </trkpt>
      <trkpt lat="42.14209" lon="2.37585">
        <ele>1034.4</ele>
        <time>2019-01-18T04:59:26Z</time>
      </trkpt>
      <trkpt lat="42.14202" lon="2.37583">
        <ele>1033.1</ele>
        <time>2019-01-18T04:59:32Z</time>
      </trkpt>
      <trkpt lat="42.14194" lon="2.37581">
        <ele>1033.5</ele>
        <time>2019-01-18T04:59:38Z</time>
      </trkpt>
      <trkpt lat="42.14189" lon="2.37579">
        <ele>1033.1</ele>
        <time>2019-01-18T04:59:42Z</time>
      </trkpt>
      <trkpt lat="42.14183" lon="2.37577">
        <ele>1031.2</ele>
        <time>2019-01-18T04:59:47Z</time>
      </trkpt>
      <trkpt lat="42.1418" lon="2.37573">
        <ele>1029.1</ele>
        <time>2019-01-18T04:59:51Z</time>
      </trkpt>
      <trkpt lat="42.14175" lon="2.37567">
        <ele>1029</ele>
        <time>2019-01-18T04:59:56Z</time>
      </trkpt>
      <trkpt lat="42.14172" lon="2.3756">
        <ele>1028.2</ele>
        <time>2019-01-18T05:00:00Z</time>
      </trkpt>
      <trkpt lat="42.14169" lon="2.37554">
        <ele>1027.5</ele>
        <time>2019-01-18T05:00:05Z</time>
      </trkpt>
      <trkpt lat="42.14167" lon="2.37547">
        <ele>1026.8</ele>
        <time>2019-01-18T05:00:09Z</time>
      </trkpt>
      <trkpt lat="42.14162" lon="2.37543">
        <ele>1026.6</ele>
        <time>2019-01-18T05:00:14Z</time>
      </trkpt>
      <trkpt lat="42.14152" lon="2.37538">
        <ele>1026.6</ele>
        <time>2019-01-18T05:00:23Z</time>
      </trkpt>
      <trkpt lat="42.14148" lon="2.37534">
        <ele>1026.4</ele>
        <time>2019-01-18T05:00:27Z</time>
      </trkpt>
      <trkpt lat="42.14143" lon="2.37532">
        <ele>1025.8</ele>
        <time>2019-01-18T05:00:31Z</time>
      </trkpt>
      <trkpt lat="42.14135" lon="2.37527">
        <ele>1025.2</ele>
        <time>2019-01-18T05:00:37Z</time>
      </trkpt>
      <trkpt lat="42.14131" lon="2.37529">
        <ele>1024.2</ele>
        <time>2019-01-18T05:00:41Z</time>
      </trkpt>
      <trkpt lat="42.14125" lon="2.3753">
        <ele>1024.3</ele>
        <time>2019-01-18T05:00:46Z</time>
      </trkpt>
      <trkpt lat="42.14122" lon="2.37534">
        <ele>1026</ele>
        <time>2019-01-18T05:00:49Z</time>
      </trkpt>
      <trkpt lat="42.14117" lon="2.37533">
        <ele>1026.3</ele>
        <time>2019-01-18T05:00:53Z</time>
      </trkpt>
      <trkpt lat="42.14111" lon="2.37533">
        <ele>1027</ele>
        <time>2019-01-18T05:00:58Z</time>
      </trkpt>
      <trkpt lat="42.14081" lon="2.37526">
        <ele>1029.3</ele>
        <time>2019-01-18T05:01:22Z</time>
      </trkpt>
      <trkpt lat="42.14074" lon="2.37527">
        <ele>1029.6</ele>
        <time>2019-01-18T05:01:28Z</time>
      </trkpt>
      <trkpt lat="42.14067" lon="2.37525">
        <ele>1030</ele>
        <time>2019-01-18T05:01:34Z</time>
      </trkpt>
      <trkpt lat="42.14083" lon="2.37534">
        <ele>1030</ele>
        <time>2019-01-18T05:01:48Z</time>
      </trkpt>
      <trkpt lat="42.14089" lon="2.37535">
        <ele>1030.8</ele>
        <time>2019-01-18T05:01:53Z</time>
      </trkpt>
      <trkpt lat="42.14083" lon="2.37539">
        <ele>1030.4</ele>
        <time>2019-01-18T05:01:58Z</time>
      </trkpt>
      <trkpt lat="42.14078" lon="2.37539">
        <ele>1030.1</ele>
        <time>2019-01-18T05:02:03Z</time>
      </trkpt>
      <trkpt lat="42.14072" lon="2.37541">
        <ele>1029.9</ele>
        <time>2019-01-18T05:02:07Z</time>
      </trkpt>
      <trkpt lat="42.14066" lon="2.3754">
        <ele>1029.1</ele>
        <time>2019-01-18T05:02:12Z</time>
      </trkpt>
      <trkpt lat="42.14061" lon="2.37541">
        <ele>1029.4</ele>
        <time>2019-01-18T05:02:16Z</time>
      </trkpt>
      <trkpt lat="42.14055" lon="2.37542">
        <ele>1029.2</ele>
        <time>2019-01-18T05:02:21Z</time>
      </trkpt>
      <trkpt lat="42.14051" lon="2.37547">
        <ele>1028.1</ele>
        <time>2019-01-18T05:02:25Z</time>
      </trkpt>
      <trkpt lat="42.14046" lon="2.37549">
        <ele>1027.6</ele>
        <time>2019-01-18T05:02:30Z</time>
      </trkpt>
      <trkpt lat="42.14044" lon="2.37557">
        <ele>1027.1</ele>
        <time>2019-01-18T05:02:35Z</time>
      </trkpt>
      <trkpt lat="42.14042" lon="2.37564">
        <ele>1025.7</ele>
        <time>2019-01-18T05:02:39Z</time>
      </trkpt>
      <trkpt lat="42.14037" lon="2.3757">
        <ele>1025</ele>
        <time>2019-01-18T05:02:44Z</time>
      </trkpt>
      <trkpt lat="42.14042" lon="2.37572">
        <ele>1025.7</ele>
        <time>2019-01-18T05:02:48Z</time>
      </trkpt>
      <trkpt lat="42.14052" lon="2.37582">
        <ele>1026.3</ele>
        <time>2019-01-18T05:02:58Z</time>
      </trkpt>
      <trkpt lat="42.14055" lon="2.37578">
        <ele>1026.3</ele>
        <time>2019-01-18T05:03:01Z</time>
      </trkpt>
      <trkpt lat="42.14063" lon="2.37577">
        <ele>1027</ele>
        <time>2019-01-18T05:03:08Z</time>
      </trkpt>
      <trkpt lat="42.14062" lon="2.37587">
        <ele>1027.6</ele>
        <time>2019-01-18T05:03:14Z</time>
      </trkpt>
      <trkpt lat="42.14057" lon="2.37589">
        <ele>1028</ele>
        <time>2019-01-18T05:03:18Z</time>
      </trkpt>
      <trkpt lat="42.14062" lon="2.37593">
        <ele>1028.1</ele>
        <time>2019-01-18T05:03:23Z</time>
      </trkpt>
      <trkpt lat="42.14067" lon="2.37597">
        <ele>1028.6</ele>
        <time>2019-01-18T05:03:28Z</time>
      </trkpt>
      <trkpt lat="42.14072" lon="2.37598">
        <ele>1028.3</ele>
        <time>2019-01-18T05:03:32Z</time>
      </trkpt>
      <trkpt lat="42.14076" lon="2.37596">
        <ele>1028</ele>
        <time>2019-01-18T05:03:36Z</time>
      </trkpt>
      <trkpt lat="42.1408" lon="2.37588">
        <ele>1026</ele>
        <time>2019-01-18T05:03:41Z</time>
      </trkpt>
      <trkpt lat="42.14079" lon="2.37581">
        <ele>1026.4</ele>
        <time>2019-01-18T05:03:45Z</time>
      </trkpt>
      <trkpt lat="42.14075" lon="2.37576">
        <ele>1026.3</ele>
        <time>2019-01-18T05:03:49Z</time>
      </trkpt>
      <trkpt lat="42.14071" lon="2.37579">
        <ele>1026.6</ele>
        <time>2019-01-18T05:03:53Z</time>
      </trkpt>
      <trkpt lat="42.14069" lon="2.37588">
        <ele>1026.1</ele>
        <time>2019-01-18T05:03:58Z</time>
      </trkpt>
      <trkpt lat="42.14077" lon="2.376">
        <ele>1026.1</ele>
        <time>2019-01-18T05:04:08Z</time>
      </trkpt>
      <trkpt lat="42.14077" lon="2.37607">
        <ele>1027.4</ele>
        <time>2019-01-18T05:04:12Z</time>
      </trkpt>
      <trkpt lat="42.14072" lon="2.37609">
        <ele>1030.2</ele>
        <time>2019-01-18T05:04:16Z</time>
      </trkpt>
      <trkpt lat="42.14069" lon="2.37614">
        <ele>1031.4</ele>
        <time>2019-01-18T05:04:20Z</time>
      </trkpt>
      <trkpt lat="42.14064" lon="2.37615">
        <ele>1032.6</ele>
        <time>2019-01-18T05:04:24Z</time>
      </trkpt>
      <trkpt lat="42.14059" lon="2.37616">
        <ele>1033.7</ele>
        <time>2019-01-18T05:04:28Z</time>
      </trkpt>
      <trkpt lat="42.14053" lon="2.37615">
        <ele>1035.1</ele>
        <time>2019-01-18T05:04:33Z</time>
      </trkpt>
      <trkpt lat="42.14048" lon="2.3762">
        <ele>1035.7</ele>
        <time>2019-01-18T05:04:38Z</time>
      </trkpt>
      <trkpt lat="42.14044" lon="2.37623">
        <ele>1036.5</ele>
        <time>2019-01-18T05:04:41Z</time>
      </trkpt>
      <trkpt lat="42.14041" lon="2.37627">
        <ele>1037.4</ele>
        <time>2019-01-18T05:04:45Z</time>
      </trkpt>
      <trkpt lat="42.14035" lon="2.37628">
        <ele>1038.3</ele>
        <time>2019-01-18T05:04:49Z</time>
      </trkpt>
      <trkpt lat="42.1403" lon="2.37629">
        <ele>1039.6</ele>
        <time>2019-01-18T05:04:54Z</time>
      </trkpt>
      <trkpt lat="42.14026" lon="2.37635">
        <ele>1040.5</ele>
        <time>2019-01-18T05:04:58Z</time>
      </trkpt>
      <trkpt lat="42.14025" lon="2.37641">
        <ele>1042.1</ele>
        <time>2019-01-18T05:05:02Z</time>
      </trkpt>
      <trkpt lat="42.14021" lon="2.37643">
        <ele>1043.9</ele>
        <time>2019-01-18T05:05:06Z</time>
      </trkpt>
      <trkpt lat="42.14017" lon="2.37647">
        <ele>1045.2</ele>
        <time>2019-01-18T05:05:10Z</time>
      </trkpt>
      <trkpt lat="42.14018" lon="2.37653">
        <ele>1045.8</ele>
        <time>2019-01-18T05:05:13Z</time>
      </trkpt>
      <trkpt lat="42.14013" lon="2.37654">
        <ele>1046.7</ele>
        <time>2019-01-18T05:05:18Z</time>
      </trkpt>
      <trkpt lat="42.14008" lon="2.37655">
        <ele>1047.4</ele>
        <time>2019-01-18T05:05:22Z</time>
      </trkpt>
      <trkpt lat="42.14003" lon="2.37655">
        <ele>1048.1</ele>
        <time>2019-01-18T05:05:26Z</time>
      </trkpt>
      <trkpt lat="42.13998" lon="2.37653">
        <ele>1048.2</ele>
        <time>2019-01-18T05:05:30Z</time>
      </trkpt>
      <trkpt lat="42.14002" lon="2.37656">
        <ele>1047.9</ele>
        <time>2019-01-18T05:05:34Z</time>
      </trkpt>
      <trkpt lat="42.14004" lon="2.37662">
        <ele>1048</ele>
        <time>2019-01-18T05:05:38Z</time>
      </trkpt>
      <trkpt lat="42.14001" lon="2.37668">
        <ele>1048.3</ele>
        <time>2019-01-18T05:05:41Z</time>
      </trkpt>
      <trkpt lat="42.14004" lon="2.37673">
        <ele>1048.5</ele>
        <time>2019-01-18T05:05:45Z</time>
      </trkpt>
      <trkpt lat="42.14001" lon="2.37677">
        <ele>1048.5</ele>
        <time>2019-01-18T05:05:49Z</time>
      </trkpt>
      <trkpt lat="42.14002" lon="2.37683">
        <ele>1049</ele>
        <time>2019-01-18T05:05:53Z</time>
      </trkpt>
      <trkpt lat="42.14" lon="2.37689">
        <ele>1049.7</ele>
        <time>2019-01-18T05:05:56Z</time>
      </trkpt>
      <trkpt lat="42.13996" lon="2.37695">
        <ele>1050</ele>
        <time>2019-01-18T05:06:01Z</time>
      </trkpt>
      <trkpt lat="42.13995" lon="2.37702">
        <ele>1050.1</ele>
        <time>2019-01-18T05:06:05Z</time>
      </trkpt>
      <trkpt lat="42.13995" lon="2.37709">
        <ele>1050.7</ele>
        <time>2019-01-18T05:06:09Z</time>
      </trkpt>
      <trkpt lat="42.13994" lon="2.37715">
        <ele>1050.8</ele>
        <time>2019-01-18T05:06:13Z</time>
      </trkpt>
      <trkpt lat="42.13989" lon="2.3772">
        <ele>1051</ele>
        <time>2019-01-18T05:06:18Z</time>
      </trkpt>
      <trkpt lat="42.13984" lon="2.37725">
        <ele>1051.1</ele>
        <time>2019-01-18T05:06:23Z</time>
      </trkpt>
      <trkpt lat="42.13984" lon="2.37733">
        <ele>1051.5</ele>
        <time>2019-01-18T05:06:28Z</time>
      </trkpt>
      <trkpt lat="42.13981" lon="2.37737">
        <ele>1051.6</ele>
        <time>2019-01-18T05:06:31Z</time>
      </trkpt>
      <trkpt lat="42.13977" lon="2.37743">
        <ele>1052.1</ele>
        <time>2019-01-18T05:06:36Z</time>
      </trkpt>
      <trkpt lat="42.13973" lon="2.37748">
        <ele>1052.2</ele>
        <time>2019-01-18T05:06:40Z</time>
      </trkpt>
      <trkpt lat="42.1397" lon="2.37754">
        <ele>1052.4</ele>
        <time>2019-01-18T05:06:44Z</time>
      </trkpt>
      <trkpt lat="42.13968" lon="2.3776">
        <ele>1052.4</ele>
        <time>2019-01-18T05:06:48Z</time>
      </trkpt>
      <trkpt lat="42.13969" lon="2.37767">
        <ele>1052</ele>
        <time>2019-01-18T05:06:52Z</time>
      </trkpt>
      <trkpt lat="42.1397" lon="2.37775">
        <ele>1053.3</ele>
        <time>2019-01-18T05:06:57Z</time>
      </trkpt>
      <trkpt lat="42.13972" lon="2.37781">
        <ele>1053.7</ele>
        <time>2019-01-18T05:07:01Z</time>
      </trkpt>
      <trkpt lat="42.13972" lon="2.37788">
        <ele>1054.1</ele>
        <time>2019-01-18T05:07:06Z</time>
      </trkpt>
      <trkpt lat="42.13975" lon="2.37796">
        <ele>1054.2</ele>
        <time>2019-01-18T05:07:11Z</time>
      </trkpt>
      <trkpt lat="42.13974" lon="2.37802">
        <ele>1054.5</ele>
        <time>2019-01-18T05:07:15Z</time>
      </trkpt>
      <trkpt lat="42.13971" lon="2.37808">
        <ele>1054.6</ele>
        <time>2019-01-18T05:07:19Z</time>
      </trkpt>
      <trkpt lat="42.13968" lon="2.37814">
        <ele>1054.8</ele>
        <time>2019-01-18T05:07:23Z</time>
      </trkpt>
      <trkpt lat="42.13963" lon="2.37818">
        <ele>1054.9</ele>
        <time>2019-01-18T05:07:28Z</time>
      </trkpt>
      <trkpt lat="42.13961" lon="2.37826">
        <ele>1055.3</ele>
        <time>2019-01-18T05:07:33Z</time>
      </trkpt>
      <trkpt lat="42.13957" lon="2.37829">
        <ele>1055.3</ele>
        <time>2019-01-18T05:07:36Z</time>
      </trkpt>
      <trkpt lat="42.13951" lon="2.37828">
        <ele>1055.5</ele>
        <time>2019-01-18T05:07:42Z</time>
      </trkpt>
      <trkpt lat="42.1395" lon="2.37836">
        <ele>1056.3</ele>
        <time>2019-01-18T05:07:46Z</time>
      </trkpt>
      <trkpt lat="42.13946" lon="2.37839">
        <ele>1056.7</ele>
        <time>2019-01-18T05:07:50Z</time>
      </trkpt>
      <trkpt lat="42.13947" lon="2.37845">
        <ele>1056.9</ele>
        <time>2019-01-18T05:07:54Z</time>
      </trkpt>
      <trkpt lat="42.13946" lon="2.37852">
        <ele>1057.2</ele>
        <time>2019-01-18T05:07:58Z</time>
      </trkpt>
      <trkpt lat="42.13948" lon="2.37858">
        <ele>1057.3</ele>
        <time>2019-01-18T05:08:02Z</time>
      </trkpt>
      <trkpt lat="42.13946" lon="2.37866">
        <ele>1057.5</ele>
        <time>2019-01-18T05:08:07Z</time>
      </trkpt>
      <trkpt lat="42.1395" lon="2.37873">
        <ele>1057.5</ele>
        <time>2019-01-18T05:08:12Z</time>
      </trkpt>
      <trkpt lat="42.13947" lon="2.37879">
        <ele>1057.8</ele>
        <time>2019-01-18T05:08:16Z</time>
      </trkpt>
      <trkpt lat="42.13944" lon="2.37885">
        <ele>1057.9</ele>
        <time>2019-01-18T05:08:21Z</time>
      </trkpt>
      <trkpt lat="42.13939" lon="2.37888">
        <ele>1057.9</ele>
        <time>2019-01-18T05:08:25Z</time>
      </trkpt>
      <trkpt lat="42.13935" lon="2.37892">
        <ele>1057.7</ele>
        <time>2019-01-18T05:08:29Z</time>
      </trkpt>
      <trkpt lat="42.13931" lon="2.37896">
        <ele>1057.2</ele>
        <time>2019-01-18T05:08:33Z</time>
      </trkpt>
      <trkpt lat="42.13925" lon="2.37899">
        <ele>1056.9</ele>
        <time>2019-01-18T05:08:38Z</time>
      </trkpt>
      <trkpt lat="42.13921" lon="2.37901">
        <ele>1056.6</ele>
        <time>2019-01-18T05:08:41Z</time>
      </trkpt>
      <trkpt lat="42.13917" lon="2.37906">
        <ele>1056.3</ele>
        <time>2019-01-18T05:08:46Z</time>
      </trkpt>
      <trkpt lat="42.13913" lon="2.3791">
        <ele>1056.4</ele>
        <time>2019-01-18T05:08:49Z</time>
      </trkpt>
      <trkpt lat="42.13911" lon="2.37915">
        <ele>1056.4</ele>
        <time>2019-01-18T05:08:53Z</time>
      </trkpt>
      <trkpt lat="42.13905" lon="2.37917">
        <ele>1056.3</ele>
        <time>2019-01-18T05:08:58Z</time>
      </trkpt>
      <trkpt lat="42.139" lon="2.3792">
        <ele>1056.1</ele>
        <time>2019-01-18T05:09:02Z</time>
      </trkpt>
      <trkpt lat="42.13894" lon="2.37925">
        <ele>1055.9</ele>
        <time>2019-01-18T05:09:08Z</time>
      </trkpt>
      <trkpt lat="42.13893" lon="2.37931">
        <ele>1055.9</ele>
        <time>2019-01-18T05:09:12Z</time>
      </trkpt>
      <trkpt lat="42.13888" lon="2.37933">
        <ele>1056.1</ele>
        <time>2019-01-18T05:09:16Z</time>
      </trkpt>
      <trkpt lat="42.13883" lon="2.37936">
        <ele>1056.2</ele>
        <time>2019-01-18T05:09:20Z</time>
      </trkpt>
      <trkpt lat="42.13879" lon="2.3794">
        <ele>1055.8</ele>
        <time>2019-01-18T05:09:24Z</time>
      </trkpt>
      <trkpt lat="42.13876" lon="2.37945">
        <ele>1056</ele>
        <time>2019-01-18T05:09:28Z</time>
      </trkpt>
      <trkpt lat="42.13871" lon="2.37948">
        <ele>1055.6</ele>
        <time>2019-01-18T05:09:32Z</time>
      </trkpt>
      <trkpt lat="42.13867" lon="2.37952">
        <ele>1055.5</ele>
        <time>2019-01-18T05:09:36Z</time>
      </trkpt>
      <trkpt lat="42.13863" lon="2.37957">
        <ele>1055.2</ele>
        <time>2019-01-18T05:09:41Z</time>
      </trkpt>
      <trkpt lat="42.13859" lon="2.37959">
        <ele>1055.2</ele>
        <time>2019-01-18T05:09:44Z</time>
      </trkpt>
      <trkpt lat="42.13854" lon="2.37961">
        <ele>1054.9</ele>
        <time>2019-01-18T05:09:49Z</time>
      </trkpt>
      <trkpt lat="42.1385" lon="2.37965">
        <ele>1054.9</ele>
        <time>2019-01-18T05:09:52Z</time>
      </trkpt>
      <trkpt lat="42.13844" lon="2.37966">
        <ele>1055</ele>
        <time>2019-01-18T05:09:57Z</time>
      </trkpt>
      <trkpt lat="42.13839" lon="2.3797">
        <ele>1054.9</ele>
        <time>2019-01-18T05:10:02Z</time>
      </trkpt>
      <trkpt lat="42.13835" lon="2.37973">
        <ele>1055</ele>
        <time>2019-01-18T05:10:06Z</time>
      </trkpt>
      <trkpt lat="42.1383" lon="2.37978">
        <ele>1055.2</ele>
        <time>2019-01-18T05:10:10Z</time>
      </trkpt>
      <trkpt lat="42.13829" lon="2.37984">
        <ele>1054.8</ele>
        <time>2019-01-18T05:10:14Z</time>
      </trkpt>
      <trkpt lat="42.13832" lon="2.37989">
        <ele>1054.9</ele>
        <time>2019-01-18T05:10:18Z</time>
      </trkpt>
      <trkpt lat="42.13836" lon="2.37994">
        <ele>1054.9</ele>
        <time>2019-01-18T05:10:23Z</time>
      </trkpt>
      <trkpt lat="42.13842" lon="2.38">
        <ele>1054.9</ele>
        <time>2019-01-18T05:10:28Z</time>
      </trkpt>
      <trkpt lat="42.13837" lon="2.38003">
        <ele>1054.9</ele>
        <time>2019-01-18T05:10:32Z</time>
      </trkpt>
      <trkpt lat="42.13833" lon="2.38008">
        <ele>1054.9</ele>
        <time>2019-01-18T05:10:37Z</time>
      </trkpt>
      <trkpt lat="42.13828" lon="2.38011">
        <ele>1054.9</ele>
        <time>2019-01-18T05:10:41Z</time>
      </trkpt>
      <trkpt lat="42.13823" lon="2.38011">
        <ele>1055.2</ele>
        <time>2019-01-18T05:10:45Z</time>
      </trkpt>
      <trkpt lat="42.13818" lon="2.38013">
        <ele>1055.4</ele>
        <time>2019-01-18T05:10:49Z</time>
      </trkpt>
      <trkpt lat="42.13813" lon="2.38012">
        <ele>1055.5</ele>
        <time>2019-01-18T05:10:54Z</time>
      </trkpt>
      <trkpt lat="42.13809" lon="2.38018">
        <ele>1056.2</ele>
        <time>2019-01-18T05:10:58Z</time>
      </trkpt>
      <trkpt lat="42.13804" lon="2.38023">
        <ele>1056.4</ele>
        <time>2019-01-18T05:11:03Z</time>
      </trkpt>
      <trkpt lat="42.138" lon="2.38028">
        <ele>1056.8</ele>
        <time>2019-01-18T05:11:08Z</time>
      </trkpt>
      <trkpt lat="42.13796" lon="2.38033">
        <ele>1056.6</ele>
        <time>2019-01-18T05:11:12Z</time>
      </trkpt>
      <trkpt lat="42.1379" lon="2.38034">
        <ele>1057.1</ele>
        <time>2019-01-18T05:11:17Z</time>
      </trkpt>
      <trkpt lat="42.13791" lon="2.3804">
        <ele>1057.2</ele>
        <time>2019-01-18T05:11:20Z</time>
      </trkpt>
      <trkpt lat="42.13788" lon="2.38046">
        <ele>1057.2</ele>
        <time>2019-01-18T05:11:25Z</time>
      </trkpt>
      <trkpt lat="42.13783" lon="2.38046">
        <ele>1057</ele>
        <time>2019-01-18T05:11:29Z</time>
      </trkpt>
      <trkpt lat="42.13778" lon="2.38047">
        <ele>1057.5</ele>
        <time>2019-01-18T05:11:33Z</time>
      </trkpt>
      <trkpt lat="42.13772" lon="2.38047">
        <ele>1058.1</ele>
        <time>2019-01-18T05:11:37Z</time>
      </trkpt>
      <trkpt lat="42.13768" lon="2.38048">
        <ele>1058.6</ele>
        <time>2019-01-18T05:11:41Z</time>
      </trkpt>
      <trkpt lat="42.13763" lon="2.38049">
        <ele>1058.8</ele>
        <time>2019-01-18T05:11:44Z</time>
      </trkpt>
      <trkpt lat="42.13759" lon="2.38051">
        <ele>1059</ele>
        <time>2019-01-18T05:11:48Z</time>
      </trkpt>
      <trkpt lat="42.13755" lon="2.38052">
        <ele>1059.1</ele>
        <time>2019-01-18T05:11:52Z</time>
      </trkpt>
      <trkpt lat="42.13749" lon="2.38052">
        <ele>1059</ele>
        <time>2019-01-18T05:11:56Z</time>
      </trkpt>
      <trkpt lat="42.13741" lon="2.38058">
        <ele>1059.4</ele>
        <time>2019-01-18T05:12:04Z</time>
      </trkpt>
      <trkpt lat="42.13736" lon="2.3806">
        <ele>1059.3</ele>
        <time>2019-01-18T05:12:08Z</time>
      </trkpt>
      <trkpt lat="42.13729" lon="2.38058">
        <ele>1059.6</ele>
        <time>2019-01-18T05:12:14Z</time>
      </trkpt>
      <trkpt lat="42.13724" lon="2.38058">
        <ele>1059.6</ele>
        <time>2019-01-18T05:12:17Z</time>
      </trkpt>
      <trkpt lat="42.13719" lon="2.38057">
        <ele>1059.7</ele>
        <time>2019-01-18T05:12:22Z</time>
      </trkpt>
      <trkpt lat="42.13713" lon="2.3806">
        <ele>1059.8</ele>
        <time>2019-01-18T05:12:26Z</time>
      </trkpt>
      <trkpt lat="42.13708" lon="2.38062">
        <ele>1060</ele>
        <time>2019-01-18T05:12:31Z</time>
      </trkpt>
      <trkpt lat="42.13703" lon="2.38061">
        <ele>1059.9</ele>
        <time>2019-01-18T05:12:35Z</time>
      </trkpt>
      <trkpt lat="42.13697" lon="2.38062">
        <ele>1060.1</ele>
        <time>2019-01-18T05:12:40Z</time>
      </trkpt>
      <trkpt lat="42.1369" lon="2.3806">
        <ele>1060.2</ele>
        <time>2019-01-18T05:12:45Z</time>
      </trkpt>
      <trkpt lat="42.13685" lon="2.3806">
        <ele>1060.3</ele>
        <time>2019-01-18T05:12:50Z</time>
      </trkpt>
      <trkpt lat="42.1368" lon="2.38061">
        <ele>1060.4</ele>
        <time>2019-01-18T05:12:53Z</time>
      </trkpt>
      <trkpt lat="42.13674" lon="2.38061">
        <ele>1060.9</ele>
        <time>2019-01-18T05:12:58Z</time>
      </trkpt>
      <trkpt lat="42.13669" lon="2.3806">
        <ele>1061.1</ele>
        <time>2019-01-18T05:13:02Z</time>
      </trkpt>
      <trkpt lat="42.13663" lon="2.3806">
        <ele>1061.2</ele>
        <time>2019-01-18T05:13:07Z</time>
      </trkpt>
      <trkpt lat="42.13659" lon="2.38063">
        <ele>1061.4</ele>
        <time>2019-01-18T05:13:11Z</time>
      </trkpt>
      <trkpt lat="42.13653" lon="2.38068">
        <ele>1061.7</ele>
        <time>2019-01-18T05:13:16Z</time>
      </trkpt>
      <trkpt lat="42.13647" lon="2.3807">
        <ele>1061.9</ele>
        <time>2019-01-18T05:13:21Z</time>
      </trkpt>
      <trkpt lat="42.13642" lon="2.38071">
        <ele>1061.9</ele>
        <time>2019-01-18T05:13:25Z</time>
      </trkpt>
      <trkpt lat="42.13637" lon="2.38073">
        <ele>1062</ele>
        <time>2019-01-18T05:13:29Z</time>
      </trkpt>
      <trkpt lat="42.1363" lon="2.38072">
        <ele>1062.1</ele>
        <time>2019-01-18T05:13:36Z</time>
      </trkpt>
      <trkpt lat="42.13619" lon="2.38071">
        <ele>1062.4</ele>
        <time>2019-01-18T05:13:44Z</time>
      </trkpt>
      <trkpt lat="42.13627" lon="2.38071">
        <ele>1062.7</ele>
        <time>2019-01-18T05:13:51Z</time>
      </trkpt>
      <trkpt lat="42.13634" lon="2.38073">
        <ele>1062.6</ele>
        <time>2019-01-18T05:13:57Z</time>
      </trkpt>
      <trkpt lat="42.13639" lon="2.38073">
        <ele>1062.7</ele>
        <time>2019-01-18T05:14:01Z</time>
      </trkpt>
      <trkpt lat="42.13632" lon="2.38079">
        <ele>1062.1</ele>
        <time>2019-01-18T05:14:07Z</time>
      </trkpt>
      <trkpt lat="42.13654" lon="2.38088">
        <ele>1062.7</ele>
        <time>2019-01-18T05:14:25Z</time>
      </trkpt>
      <trkpt lat="42.13659" lon="2.38086">
        <ele>1062</ele>
        <time>2019-01-18T05:14:30Z</time>
      </trkpt>
      <trkpt lat="42.13655" lon="2.38084">
        <ele>1062</ele>
        <time>2019-01-18T05:14:34Z</time>
      </trkpt>
      <trkpt lat="42.13646" lon="2.38084">
        <ele>1062</ele>
        <time>2019-01-18T05:14:41Z</time>
      </trkpt>
      <trkpt lat="42.13639" lon="2.38088">
        <ele>1062.1</ele>
        <time>2019-01-18T05:14:47Z</time>
      </trkpt>
      <trkpt lat="42.13631" lon="2.3809">
        <ele>1062.1</ele>
        <time>2019-01-18T05:14:53Z</time>
      </trkpt>
      <trkpt lat="42.13623" lon="2.38091">
        <ele>1062.1</ele>
        <time>2019-01-18T05:15:00Z</time>
      </trkpt>
      <trkpt lat="42.13614" lon="2.38091">
        <ele>1062.1</ele>
        <time>2019-01-18T05:15:07Z</time>
      </trkpt>
      <trkpt lat="42.13605" lon="2.38093">
        <ele>1062.1</ele>
        <time>2019-01-18T05:15:15Z</time>
      </trkpt>
      <trkpt lat="42.13593" lon="2.38094">
        <ele>1062.1</ele>
        <time>2019-01-18T05:15:24Z</time>
      </trkpt>
      <trkpt lat="42.13588" lon="2.38089">
        <ele>1062</ele>
        <time>2019-01-18T05:15:29Z</time>
      </trkpt>
      <trkpt lat="42.13583" lon="2.38088">
        <ele>1062.1</ele>
        <time>2019-01-18T05:15:33Z</time>
      </trkpt>
      <trkpt lat="42.13579" lon="2.38087">
        <ele>1062.1</ele>
        <time>2019-01-18T05:15:36Z</time>
      </trkpt>
      <trkpt lat="42.13571" lon="2.38084">
        <ele>1063</ele>
        <time>2019-01-18T05:15:43Z</time>
      </trkpt>
      <trkpt lat="42.13577" lon="2.3808">
        <ele>1063</ele>
        <time>2019-01-18T05:15:48Z</time>
      </trkpt>
      <trkpt lat="42.13587" lon="2.38072">
        <ele>1063</ele>
        <time>2019-01-18T05:15:58Z</time>
      </trkpt>
      <trkpt lat="42.13596" lon="2.38073">
        <ele>1063.1</ele>
        <time>2019-01-18T05:16:05Z</time>
      </trkpt>
      <trkpt lat="42.13593" lon="2.38077">
        <ele>1063</ele>
        <time>2019-01-18T05:16:09Z</time>
      </trkpt>
      <trkpt lat="42.13583" lon="2.38081">
        <ele>1063.1</ele>
        <time>2019-01-18T05:16:17Z</time>
      </trkpt>
      <trkpt lat="42.13562" lon="2.38106">
        <ele>1062.1</ele>
        <time>2019-01-18T05:16:39Z</time>
      </trkpt>
      <trkpt lat="42.13573" lon="2.38121">
        <ele>1062.1</ele>
        <time>2019-01-18T05:16:51Z</time>
      </trkpt>
      <trkpt lat="42.1358" lon="2.38123">
        <ele>1062</ele>
        <time>2019-01-18T05:16:57Z</time>
      </trkpt>
      <trkpt lat="42.13598" lon="2.38125">
        <ele>1063</ele>
        <time>2019-01-18T05:17:12Z</time>
      </trkpt>
      <trkpt lat="42.13604" lon="2.3813">
        <ele>1063.1</ele>
        <time>2019-01-18T05:17:17Z</time>
      </trkpt>
      <trkpt lat="42.13606" lon="2.38138">
        <ele>1063</ele>
        <time>2019-01-18T05:17:22Z</time>
      </trkpt>
      <trkpt lat="42.13607" lon="2.38151">
        <ele>1064</ele>
        <time>2019-01-18T05:17:30Z</time>
      </trkpt>
      <trkpt lat="42.13609" lon="2.3816">
        <ele>1064</ele>
        <time>2019-01-18T05:17:35Z</time>
      </trkpt>
      <trkpt lat="42.13613" lon="2.38176">
        <ele>1065</ele>
        <time>2019-01-18T05:17:45Z</time>
      </trkpt>
      <trkpt lat="42.13618" lon="2.38181">
        <ele>1065.1</ele>
        <time>2019-01-18T05:17:51Z</time>
      </trkpt>
      <trkpt lat="42.13629" lon="2.38186">
        <ele>1065.1</ele>
        <time>2019-01-18T05:18:00Z</time>
      </trkpt>
      <trkpt lat="42.13643" lon="2.38191">
        <ele>1065</ele>
        <time>2019-01-18T05:18:12Z</time>
      </trkpt>
      <trkpt lat="42.13654" lon="2.38195">
        <ele>1065.1</ele>
        <time>2019-01-18T05:18:21Z</time>
      </trkpt>
      <trkpt lat="42.13664" lon="2.38202">
        <ele>1066.1</ele>
        <time>2019-01-18T05:18:30Z</time>
      </trkpt>
      <trkpt lat="42.13674" lon="2.38204">
        <ele>1066.3</ele>
        <time>2019-01-18T05:18:38Z</time>
      </trkpt>
      <trkpt lat="42.1368" lon="2.38208">
        <ele>1066.5</ele>
        <time>2019-01-18T05:18:43Z</time>
      </trkpt>
      <trkpt lat="42.13685" lon="2.38209">
        <ele>1066.5</ele>
        <time>2019-01-18T05:18:47Z</time>
      </trkpt>
      <trkpt lat="42.1369" lon="2.38208">
        <ele>1066.8</ele>
        <time>2019-01-18T05:18:51Z</time>
      </trkpt>
      <trkpt lat="42.13696" lon="2.38207">
        <ele>1066.8</ele>
        <time>2019-01-18T05:18:57Z</time>
      </trkpt>
      <trkpt lat="42.13701" lon="2.38208">
        <ele>1066.9</ele>
        <time>2019-01-18T05:19:00Z</time>
      </trkpt>
      <trkpt lat="42.13704" lon="2.38214">
        <ele>1067</ele>
        <time>2019-01-18T05:19:05Z</time>
      </trkpt>
      <trkpt lat="42.13709" lon="2.38216">
        <ele>1067.1</ele>
        <time>2019-01-18T05:19:09Z</time>
      </trkpt>
      <trkpt lat="42.13712" lon="2.38221">
        <ele>1067.2</ele>
        <time>2019-01-18T05:19:13Z</time>
      </trkpt>
      <trkpt lat="42.13716" lon="2.38227">
        <ele>1067.7</ele>
        <time>2019-01-18T05:19:17Z</time>
      </trkpt>
      <trkpt lat="42.13721" lon="2.38229">
        <ele>1067.9</ele>
        <time>2019-01-18T05:19:21Z</time>
      </trkpt>
      <trkpt lat="42.13726" lon="2.38232">
        <ele>1068.2</ele>
        <time>2019-01-18T05:19:26Z</time>
      </trkpt>
      <trkpt lat="42.13731" lon="2.38234">
        <ele>1068.4</ele>
        <time>2019-01-18T05:19:30Z</time>
      </trkpt>
      <trkpt lat="42.13743" lon="2.38231">
        <ele>1068</ele>
        <time>2019-01-18T05:19:40Z</time>
      </trkpt>
      <trkpt lat="42.13748" lon="2.38233">
        <ele>1068.1</ele>
        <time>2019-01-18T05:19:44Z</time>
      </trkpt>
      <trkpt lat="42.13752" lon="2.3824">
        <ele>1068.8</ele>
        <time>2019-01-18T05:19:50Z</time>
      </trkpt>
      <trkpt lat="42.13755" lon="2.38244">
        <ele>1069.4</ele>
        <time>2019-01-18T05:19:53Z</time>
      </trkpt>
      <trkpt lat="42.13761" lon="2.38246">
        <ele>1070.2</ele>
        <time>2019-01-18T05:19:58Z</time>
      </trkpt>
      <trkpt lat="42.13767" lon="2.38249">
        <ele>1070.1</ele>
        <time>2019-01-18T05:20:03Z</time>
      </trkpt>
      <trkpt lat="42.1377" lon="2.38254">
        <ele>1071.6</ele>
        <time>2019-01-18T05:20:07Z</time>
      </trkpt>
      <trkpt lat="42.13775" lon="2.38257">
        <ele>1072</ele>
        <time>2019-01-18T05:20:11Z</time>
      </trkpt>
      <trkpt lat="42.13779" lon="2.38261">
        <ele>1072.6</ele>
        <time>2019-01-18T05:20:15Z</time>
      </trkpt>
      <trkpt lat="42.13784" lon="2.38264">
        <ele>1073</ele>
        <time>2019-01-18T05:20:20Z</time>
      </trkpt>
      <trkpt lat="42.13789" lon="2.38266">
        <ele>1073.6</ele>
        <time>2019-01-18T05:20:24Z</time>
      </trkpt>
      <trkpt lat="42.13794" lon="2.38266">
        <ele>1073.9</ele>
        <time>2019-01-18T05:20:28Z</time>
      </trkpt>
      <trkpt lat="42.13798" lon="2.38271">
        <ele>1074.6</ele>
        <time>2019-01-18T05:20:32Z</time>
      </trkpt>
      <trkpt lat="42.13803" lon="2.38274">
        <ele>1075.1</ele>
        <time>2019-01-18T05:20:36Z</time>
      </trkpt>
      <trkpt lat="42.13807" lon="2.38277">
        <ele>1075.4</ele>
        <time>2019-01-18T05:20:40Z</time>
      </trkpt>
      <trkpt lat="42.13812" lon="2.38281">
        <ele>1075.7</ele>
        <time>2019-01-18T05:20:45Z</time>
      </trkpt>
      <trkpt lat="42.13814" lon="2.38287">
        <ele>1077</ele>
        <time>2019-01-18T05:20:48Z</time>
      </trkpt>
      <trkpt lat="42.13815" lon="2.38293">
        <ele>1078</ele>
        <time>2019-01-18T05:20:52Z</time>
      </trkpt>
      <trkpt lat="42.13816" lon="2.38299">
        <ele>1079.6</ele>
        <time>2019-01-18T05:20:56Z</time>
      </trkpt>
      <trkpt lat="42.13812" lon="2.38303">
        <ele>1080.5</ele>
        <time>2019-01-18T05:21:00Z</time>
      </trkpt>
      <trkpt lat="42.13809" lon="2.38307">
        <ele>1081</ele>
        <time>2019-01-18T05:21:04Z</time>
      </trkpt>
      <trkpt lat="42.13804" lon="2.3831">
        <ele>1081.8</ele>
        <time>2019-01-18T05:21:08Z</time>
      </trkpt>
      <trkpt lat="42.13799" lon="2.38312">
        <ele>1082.7</ele>
        <time>2019-01-18T05:21:12Z</time>
      </trkpt>
      <trkpt lat="42.13795" lon="2.38317">
        <ele>1083.7</ele>
        <time>2019-01-18T05:21:16Z</time>
      </trkpt>
      <trkpt lat="42.13791" lon="2.38321">
        <ele>1084.9</ele>
        <time>2019-01-18T05:21:20Z</time>
      </trkpt>
      <trkpt lat="42.13786" lon="2.38325">
        <ele>1085.4</ele>
        <time>2019-01-18T05:21:25Z</time>
      </trkpt>
      <trkpt lat="42.13782" lon="2.38329">
        <ele>1086.2</ele>
        <time>2019-01-18T05:21:29Z</time>
      </trkpt>
      <trkpt lat="42.13777" lon="2.38332">
        <ele>1086.8</ele>
        <time>2019-01-18T05:21:33Z</time>
      </trkpt>
      <trkpt lat="42.13772" lon="2.38335">
        <ele>1087.8</ele>
        <time>2019-01-18T05:21:37Z</time>
      </trkpt>
      <trkpt lat="42.13767" lon="2.38339">
        <ele>1089</ele>
        <time>2019-01-18T05:21:43Z</time>
      </trkpt>
      <trkpt lat="42.13763" lon="2.38344">
        <ele>1090.2</ele>
        <time>2019-01-18T05:21:47Z</time>
      </trkpt>
      <trkpt lat="42.13758" lon="2.38345">
        <ele>1090.7</ele>
        <time>2019-01-18T05:21:51Z</time>
      </trkpt>
      <trkpt lat="42.13754" lon="2.38349">
        <ele>1091.3</ele>
        <time>2019-01-18T05:21:55Z</time>
      </trkpt>
      <trkpt lat="42.13749" lon="2.38353">
        <ele>1091.8</ele>
        <time>2019-01-18T05:21:59Z</time>
      </trkpt>
      <trkpt lat="42.13745" lon="2.38358">
        <ele>1092.5</ele>
        <time>2019-01-18T05:22:03Z</time>
      </trkpt>
      <trkpt lat="42.13742" lon="2.38364">
        <ele>1092.8</ele>
        <time>2019-01-18T05:22:07Z</time>
      </trkpt>
      <trkpt lat="42.1374" lon="2.38369">
        <ele>1093.4</ele>
        <time>2019-01-18T05:22:11Z</time>
      </trkpt>
      <trkpt lat="42.13736" lon="2.38372">
        <ele>1093.7</ele>
        <time>2019-01-18T05:22:15Z</time>
      </trkpt>
      <trkpt lat="42.13731" lon="2.38376">
        <ele>1094.5</ele>
        <time>2019-01-18T05:22:19Z</time>
      </trkpt>
      <trkpt lat="42.13726" lon="2.3838">
        <ele>1095</ele>
        <time>2019-01-18T05:22:24Z</time>
      </trkpt>
      <trkpt lat="42.13723" lon="2.38384">
        <ele>1096.4</ele>
        <time>2019-01-18T05:22:28Z</time>
      </trkpt>
      <trkpt lat="42.13718" lon="2.38388">
        <ele>1098.5</ele>
        <time>2019-01-18T05:22:32Z</time>
      </trkpt>
      <trkpt lat="42.13713" lon="2.38388">
        <ele>1099.4</ele>
        <time>2019-01-18T05:22:36Z</time>
      </trkpt>
      <trkpt lat="42.13707" lon="2.38387">
        <ele>1099.9</ele>
        <time>2019-01-18T05:22:41Z</time>
      </trkpt>
      <trkpt lat="42.13702" lon="2.38386">
        <ele>1100.5</ele>
        <time>2019-01-18T05:22:45Z</time>
      </trkpt>
      <trkpt lat="42.13697" lon="2.38385">
        <ele>1101.2</ele>
        <time>2019-01-18T05:22:49Z</time>
      </trkpt>
      <trkpt lat="42.13693" lon="2.38384">
        <ele>1102.6</ele>
        <time>2019-01-18T05:22:53Z</time>
      </trkpt>
      <trkpt lat="42.13688" lon="2.38386">
        <ele>1103.1</ele>
        <time>2019-01-18T05:22:56Z</time>
      </trkpt>
      <trkpt lat="42.13683" lon="2.38388">
        <ele>1103.4</ele>
        <time>2019-01-18T05:23:00Z</time>
      </trkpt>
      <trkpt lat="42.13678" lon="2.3839">
        <ele>1103.8</ele>
        <time>2019-01-18T05:23:05Z</time>
      </trkpt>
      <trkpt lat="42.13673" lon="2.38391">
        <ele>1104.2</ele>
        <time>2019-01-18T05:23:08Z</time>
      </trkpt>
      <trkpt lat="42.13669" lon="2.38392">
        <ele>1104.4</ele>
        <time>2019-01-18T05:23:12Z</time>
      </trkpt>
      <trkpt lat="42.13663" lon="2.38393">
        <ele>1104.8</ele>
        <time>2019-01-18T05:23:17Z</time>
      </trkpt>
      <trkpt lat="42.13657" lon="2.38394">
        <ele>1105.5</ele>
        <time>2019-01-18T05:23:21Z</time>
      </trkpt>
      <trkpt lat="42.13653" lon="2.38394">
        <ele>1105.9</ele>
        <time>2019-01-18T05:23:25Z</time>
      </trkpt>
      <trkpt lat="42.13648" lon="2.38394">
        <ele>1106.4</ele>
        <time>2019-01-18T05:23:29Z</time>
      </trkpt>
      <trkpt lat="42.13643" lon="2.38392">
        <ele>1106.9</ele>
        <time>2019-01-18T05:23:33Z</time>
      </trkpt>
      <trkpt lat="42.13638" lon="2.3839">
        <ele>1107.4</ele>
        <time>2019-01-18T05:23:37Z</time>
      </trkpt>
      <trkpt lat="42.13632" lon="2.38388">
        <ele>1108</ele>
        <time>2019-01-18T05:23:42Z</time>
      </trkpt>
      <trkpt lat="42.13626" lon="2.38386">
        <ele>1108.6</ele>
        <time>2019-01-18T05:23:47Z</time>
      </trkpt>
      <trkpt lat="42.1362" lon="2.38385">
        <ele>1108.9</ele>
        <time>2019-01-18T05:23:52Z</time>
      </trkpt>
      <trkpt lat="42.13615" lon="2.38383">
        <ele>1109.2</ele>
        <time>2019-01-18T05:23:56Z</time>
      </trkpt>
      <trkpt lat="42.1361" lon="2.38379">
        <ele>1110.2</ele>
        <time>2019-01-18T05:24:01Z</time>
      </trkpt>
      <trkpt lat="42.13606" lon="2.38375">
        <ele>1111.3</ele>
        <time>2019-01-18T05:24:05Z</time>
      </trkpt>
      <trkpt lat="42.13599" lon="2.38373">
        <ele>1113.4</ele>
        <time>2019-01-18T05:24:11Z</time>
      </trkpt>
      <trkpt lat="42.13593" lon="2.38371">
        <ele>1114.3</ele>
        <time>2019-01-18T05:24:15Z</time>
      </trkpt>
      <trkpt lat="42.13588" lon="2.38369">
        <ele>1116.4</ele>
        <time>2019-01-18T05:24:20Z</time>
      </trkpt>
      <trkpt lat="42.13583" lon="2.38369">
        <ele>1117.4</ele>
        <time>2019-01-18T05:24:24Z</time>
      </trkpt>
      <trkpt lat="42.13577" lon="2.3837">
        <ele>1117.8</ele>
        <time>2019-01-18T05:24:29Z</time>
      </trkpt>
      <trkpt lat="42.13572" lon="2.38368">
        <ele>1118.7</ele>
        <time>2019-01-18T05:24:33Z</time>
      </trkpt>
      <trkpt lat="42.13566" lon="2.38364">
        <ele>1120.7</ele>
        <time>2019-01-18T05:24:38Z</time>
      </trkpt>
      <trkpt lat="42.13561" lon="2.38363">
        <ele>1121.5</ele>
        <time>2019-01-18T05:24:42Z</time>
      </trkpt>
      <trkpt lat="42.13555" lon="2.38362">
        <ele>1122.6</ele>
        <time>2019-01-18T05:24:47Z</time>
      </trkpt>
      <trkpt lat="42.13548" lon="2.38357">
        <ele>1124.1</ele>
        <time>2019-01-18T05:24:53Z</time>
      </trkpt>
      <trkpt lat="42.13544" lon="2.38356">
        <ele>1125.7</ele>
        <time>2019-01-18T05:24:57Z</time>
      </trkpt>
      <trkpt lat="42.13539" lon="2.38353">
        <ele>1128</ele>
        <time>2019-01-18T05:25:01Z</time>
      </trkpt>
      <trkpt lat="42.13534" lon="2.38352">
        <ele>1129.8</ele>
        <time>2019-01-18T05:25:05Z</time>
      </trkpt>
      <trkpt lat="42.13529" lon="2.38352">
        <ele>1131.4</ele>
        <time>2019-01-18T05:25:09Z</time>
      </trkpt>
      <trkpt lat="42.13523" lon="2.38351">
        <ele>1132.3</ele>
        <time>2019-01-18T05:25:14Z</time>
      </trkpt>
      <trkpt lat="42.13518" lon="2.38353">
        <ele>1133.3</ele>
        <time>2019-01-18T05:25:18Z</time>
      </trkpt>
      <trkpt lat="42.13514" lon="2.38352">
        <ele>1137.3</ele>
        <time>2019-01-18T05:25:21Z</time>
      </trkpt>
      <trkpt lat="42.13509" lon="2.38351">
        <ele>1138.5</ele>
        <time>2019-01-18T05:25:25Z</time>
      </trkpt>
      <trkpt lat="42.13505" lon="2.38348">
        <ele>1141.1</ele>
        <time>2019-01-18T05:25:29Z</time>
      </trkpt>
      <trkpt lat="42.135" lon="2.3835">
        <ele>1142.3</ele>
        <time>2019-01-18T05:25:33Z</time>
      </trkpt>
      <trkpt lat="42.13495" lon="2.38349">
        <ele>1143.8</ele>
        <time>2019-01-18T05:25:37Z</time>
      </trkpt>
      <trkpt lat="42.1349" lon="2.38347">
        <ele>1145.6</ele>
        <time>2019-01-18T05:25:41Z</time>
      </trkpt>
      <trkpt lat="42.13485" lon="2.38345">
        <ele>1147.2</ele>
        <time>2019-01-18T05:25:45Z</time>
      </trkpt>
      <trkpt lat="42.1348" lon="2.38344">
        <ele>1149.5</ele>
        <time>2019-01-18T05:25:49Z</time>
      </trkpt>
      <trkpt lat="42.13476" lon="2.38342">
        <ele>1151.4</ele>
        <time>2019-01-18T05:25:53Z</time>
      </trkpt>
      <trkpt lat="42.13472" lon="2.38338">
        <ele>1160</ele>
        <time>2019-01-18T05:25:57Z</time>
      </trkpt>
      <trkpt lat="42.13466" lon="2.38338">
        <ele>1161.1</ele>
        <time>2019-01-18T05:26:01Z</time>
      </trkpt>
      <trkpt lat="42.13462" lon="2.38337">
        <ele>1161.1</ele>
        <time>2019-01-18T05:26:05Z</time>
      </trkpt>
      <trkpt lat="42.13452" lon="2.38339">
        <ele>1163.1</ele>
        <time>2019-01-18T05:26:13Z</time>
      </trkpt>
      <trkpt lat="42.13445" lon="2.38341">
        <ele>1165.1</ele>
        <time>2019-01-18T05:26:19Z</time>
      </trkpt>
      <trkpt lat="42.1344" lon="2.38345">
        <ele>1166.1</ele>
        <time>2019-01-18T05:26:24Z</time>
      </trkpt>
      <trkpt lat="42.13435" lon="2.38347">
        <ele>1168</ele>
        <time>2019-01-18T05:26:28Z</time>
      </trkpt>
      <trkpt lat="42.1343" lon="2.38349">
        <ele>1169.1</ele>
        <time>2019-01-18T05:26:32Z</time>
      </trkpt>
      <trkpt lat="42.13423" lon="2.38351">
        <ele>1170.1</ele>
        <time>2019-01-18T05:26:37Z</time>
      </trkpt>
      <trkpt lat="42.13416" lon="2.38351">
        <ele>1172.1</ele>
        <time>2019-01-18T05:26:43Z</time>
      </trkpt>
      <trkpt lat="42.13411" lon="2.38351">
        <ele>1176</ele>
        <time>2019-01-18T05:26:47Z</time>
      </trkpt>
      <trkpt lat="42.13401" lon="2.38352">
        <ele>1178</ele>
        <time>2019-01-18T05:26:55Z</time>
      </trkpt>
      <trkpt lat="42.13397" lon="2.38352">
        <ele>1179</ele>
        <time>2019-01-18T05:26:59Z</time>
      </trkpt>
      <trkpt lat="42.13392" lon="2.38346">
        <ele>1184</ele>
        <time>2019-01-18T05:27:04Z</time>
      </trkpt>
      <trkpt lat="42.13383" lon="2.38342">
        <ele>1189</ele>
        <time>2019-01-18T05:27:11Z</time>
      </trkpt>
      <trkpt lat="42.13379" lon="2.38339">
        <ele>1190.1</ele>
        <time>2019-01-18T05:27:15Z</time>
      </trkpt>
      <trkpt lat="42.13372" lon="2.38335">
        <ele>1190</ele>
        <time>2019-01-18T05:27:21Z</time>
      </trkpt>
      <trkpt lat="42.13368" lon="2.38333">
        <ele>1194</ele>
        <time>2019-01-18T05:27:25Z</time>
      </trkpt>
      <trkpt lat="42.13362" lon="2.38335">
        <ele>1199</ele>
        <time>2019-01-18T05:27:29Z</time>
      </trkpt>
      <trkpt lat="42.13367" lon="2.38334">
        <ele>1200</ele>
        <time>2019-01-18T05:27:33Z</time>
      </trkpt>
      <trkpt lat="42.13362" lon="2.38328">
        <ele>1206</ele>
        <time>2019-01-18T05:27:38Z</time>
      </trkpt>
      <trkpt lat="42.13357" lon="2.38325">
        <ele>1212.1</ele>
        <time>2019-01-18T05:27:42Z</time>
      </trkpt>
      <trkpt lat="42.13352" lon="2.38326">
        <ele>1212</ele>
        <time>2019-01-18T05:27:46Z</time>
      </trkpt>
      <trkpt lat="42.13346" lon="2.38328">
        <ele>1212</ele>
        <time>2019-01-18T05:27:51Z</time>
      </trkpt>
      <trkpt lat="42.13341" lon="2.38328">
        <ele>1211.1</ele>
        <time>2019-01-18T05:27:55Z</time>
      </trkpt>
      <trkpt lat="42.13337" lon="2.38332">
        <ele>1219</ele>
        <time>2019-01-18T05:28:00Z</time>
      </trkpt>
      <trkpt lat="42.13332" lon="2.38331">
        <ele>1220.1</ele>
        <time>2019-01-18T05:28:04Z</time>
      </trkpt>
      <trkpt lat="42.13326" lon="2.38332">
        <ele>1221.1</ele>
        <time>2019-01-18T05:28:08Z</time>
      </trkpt>
      <trkpt lat="42.13321" lon="2.38332">
        <ele>1223.1</ele>
        <time>2019-01-18T05:28:13Z</time>
      </trkpt>
      <trkpt lat="42.13315" lon="2.38332">
        <ele>1226.1</ele>
        <time>2019-01-18T05:28:17Z</time>
      </trkpt>
      <trkpt lat="42.1331" lon="2.38331">
        <ele>1228</ele>
        <time>2019-01-18T05:28:21Z</time>
      </trkpt>
      <trkpt lat="42.13306" lon="2.38338">
        <ele>1233.1</ele>
        <time>2019-01-18T05:28:26Z</time>
      </trkpt>
      <trkpt lat="42.13302" lon="2.38342">
        <ele>1237.5</ele>
        <time>2019-01-18T05:28:30Z</time>
      </trkpt>
      <trkpt lat="42.13306" lon="2.38337">
        <ele>1237</ele>
        <time>2019-01-18T05:28:34Z</time>
      </trkpt>
      <trkpt lat="42.1331" lon="2.38331">
        <ele>1239</ele>
        <time>2019-01-18T05:28:39Z</time>
      </trkpt>
      <trkpt lat="42.1331" lon="2.38324">
        <ele>1243.5</ele>
        <time>2019-01-18T05:28:43Z</time>
      </trkpt>
      <trkpt lat="42.13304" lon="2.38324">
        <ele>1244.6</ele>
        <time>2019-01-18T05:28:48Z</time>
      </trkpt>
      <trkpt lat="42.133" lon="2.38322">
        <ele>1245.1</ele>
        <time>2019-01-18T05:28:52Z</time>
      </trkpt>
      <trkpt lat="42.13294" lon="2.38321">
        <ele>1250</ele>
        <time>2019-01-18T05:28:57Z</time>
      </trkpt>
      <trkpt lat="42.13299" lon="2.38322">
        <ele>1252.5</ele>
        <time>2019-01-18T05:29:01Z</time>
      </trkpt>
      <trkpt lat="42.13293" lon="2.38323">
        <ele>1254.6</ele>
        <time>2019-01-18T05:29:05Z</time>
      </trkpt>
      <trkpt lat="42.13286" lon="2.38321">
        <ele>1258.7</ele>
        <time>2019-01-18T05:29:11Z</time>
      </trkpt>
      <trkpt lat="42.1328" lon="2.38322">
        <ele>1261.8</ele>
        <time>2019-01-18T05:29:16Z</time>
      </trkpt>
      <trkpt lat="42.13273" lon="2.3832">
        <ele>1264.6</ele>
        <time>2019-01-18T05:29:22Z</time>
      </trkpt>
      <trkpt lat="42.13268" lon="2.3832">
        <ele>1266.5</ele>
        <time>2019-01-18T05:29:25Z</time>
      </trkpt>
      <trkpt lat="42.13262" lon="2.38319">
        <ele>1268.2</ele>
        <time>2019-01-18T05:29:30Z</time>
      </trkpt>
      <trkpt lat="42.13256" lon="2.3832">
        <ele>1270.3</ele>
        <time>2019-01-18T05:29:36Z</time>
      </trkpt>
      <trkpt lat="42.1325" lon="2.38322">
        <ele>1273.7</ele>
        <time>2019-01-18T05:29:40Z</time>
      </trkpt>
      <trkpt lat="42.13246" lon="2.38325">
        <ele>1276</ele>
        <time>2019-01-18T05:29:44Z</time>
      </trkpt>
      <trkpt lat="42.13241" lon="2.38327">
        <ele>1283</ele>
        <time>2019-01-18T05:29:48Z</time>
      </trkpt>
      <trkpt lat="42.13237" lon="2.38327">
        <ele>1284.2</ele>
        <time>2019-01-18T05:29:52Z</time>
      </trkpt>
      <trkpt lat="42.13229" lon="2.38328">
        <ele>1285.4</ele>
        <time>2019-01-18T05:29:58Z</time>
      </trkpt>
      <trkpt lat="42.13224" lon="2.38326">
        <ele>1286.6</ele>
        <time>2019-01-18T05:30:02Z</time>
      </trkpt>
      <trkpt lat="42.13219" lon="2.38326">
        <ele>1287.8</ele>
        <time>2019-01-18T05:30:06Z</time>
      </trkpt>
      <trkpt lat="42.13215" lon="2.38323">
        <ele>1290.6</ele>
        <time>2019-01-18T05:30:10Z</time>
      </trkpt>
      <trkpt lat="42.1321" lon="2.38322">
        <ele>1293.3</ele>
        <time>2019-01-18T05:30:14Z</time>
      </trkpt>
      <trkpt lat="42.13205" lon="2.38322">
        <ele>1294.2</ele>
        <time>2019-01-18T05:30:18Z</time>
      </trkpt>
      <trkpt lat="42.132" lon="2.38324">
        <ele>1296.1</ele>
        <time>2019-01-18T05:30:22Z</time>
      </trkpt>
      <trkpt lat="42.13195" lon="2.38325">
        <ele>1298.9</ele>
        <time>2019-01-18T05:30:26Z</time>
      </trkpt>
      <trkpt lat="42.1319" lon="2.38324">
        <ele>1302.4</ele>
        <time>2019-01-18T05:30:30Z</time>
      </trkpt>
      <trkpt lat="42.13185" lon="2.38324">
        <ele>1305</ele>
        <time>2019-01-18T05:30:34Z</time>
      </trkpt>
      <trkpt lat="42.1318" lon="2.38327">
        <ele>1305.9</ele>
        <time>2019-01-18T05:30:39Z</time>
      </trkpt>
      <trkpt lat="42.13185" lon="2.38322">
        <ele>1306.6</ele>
        <time>2019-01-18T05:30:44Z</time>
      </trkpt>
      <trkpt lat="42.1318" lon="2.38321">
        <ele>1307.3</ele>
        <time>2019-01-18T05:30:48Z</time>
      </trkpt>
      <trkpt lat="42.13176" lon="2.38317">
        <ele>1311.4</ele>
        <time>2019-01-18T05:30:52Z</time>
      </trkpt>
      <trkpt lat="42.13172" lon="2.38313">
        <ele>1315.3</ele>
        <time>2019-01-18T05:30:56Z</time>
      </trkpt>
      <trkpt lat="42.13166" lon="2.38314">
        <ele>1320.4</ele>
        <time>2019-01-18T05:31:01Z</time>
      </trkpt>
      <trkpt lat="42.13161" lon="2.38313">
        <ele>1320</ele>
        <time>2019-01-18T05:31:04Z</time>
      </trkpt>
      <trkpt lat="42.13163" lon="2.38319">
        <ele>1320.3</ele>
        <time>2019-01-18T05:31:09Z</time>
      </trkpt>
      <trkpt lat="42.1316" lon="2.38324">
        <ele>1321.1</ele>
        <time>2019-01-18T05:31:12Z</time>
      </trkpt>
      <trkpt lat="42.13155" lon="2.38323">
        <ele>1323.4</ele>
        <time>2019-01-18T05:31:16Z</time>
      </trkpt>
      <trkpt lat="42.13158" lon="2.38318">
        <ele>1324</ele>
        <time>2019-01-18T05:31:20Z</time>
      </trkpt>
      <trkpt lat="42.13153" lon="2.38315">
        <ele>1325.4</ele>
        <time>2019-01-18T05:31:25Z</time>
      </trkpt>
      <trkpt lat="42.13149" lon="2.38311">
        <ele>1327.9</ele>
        <time>2019-01-18T05:31:28Z</time>
      </trkpt>
      <trkpt lat="42.13145" lon="2.38315">
        <ele>1329</ele>
        <time>2019-01-18T05:31:32Z</time>
      </trkpt>
      <trkpt lat="42.13141" lon="2.38315">
        <ele>1330.3</ele>
        <time>2019-01-18T05:31:36Z</time>
      </trkpt>
      <trkpt lat="42.13136" lon="2.38314">
        <ele>1330.7</ele>
        <time>2019-01-18T05:31:40Z</time>
      </trkpt>
      <trkpt lat="42.13131" lon="2.38315">
        <ele>1331.3</ele>
        <time>2019-01-18T05:31:44Z</time>
      </trkpt>
      <trkpt lat="42.13126" lon="2.38319">
        <ele>1332</ele>
        <time>2019-01-18T05:31:48Z</time>
      </trkpt>
      <trkpt lat="42.13121" lon="2.38319">
        <ele>1332.9</ele>
        <time>2019-01-18T05:31:53Z</time>
      </trkpt>
      <trkpt lat="42.13116" lon="2.3832">
        <ele>1333.6</ele>
        <time>2019-01-18T05:31:56Z</time>
      </trkpt>
      <trkpt lat="42.13111" lon="2.38323">
        <ele>1334.4</ele>
        <time>2019-01-18T05:32:01Z</time>
      </trkpt>
      <trkpt lat="42.13105" lon="2.38325">
        <ele>1334.5</ele>
        <time>2019-01-18T05:32:05Z</time>
      </trkpt>
      <trkpt lat="42.131" lon="2.38325">
        <ele>1334.6</ele>
        <time>2019-01-18T05:32:09Z</time>
      </trkpt>
      <trkpt lat="42.13095" lon="2.38326">
        <ele>1334.7</ele>
        <time>2019-01-18T05:32:14Z</time>
      </trkpt>
      <trkpt lat="42.1309" lon="2.38327">
        <ele>1335.5</ele>
        <time>2019-01-18T05:32:18Z</time>
      </trkpt>
      <trkpt lat="42.13083" lon="2.38329">
        <ele>1336.2</ele>
        <time>2019-01-18T05:32:23Z</time>
      </trkpt>
      <trkpt lat="42.13079" lon="2.38331">
        <ele>1336.5</ele>
        <time>2019-01-18T05:32:27Z</time>
      </trkpt>
      <trkpt lat="42.13072" lon="2.38327">
        <ele>1337.8</ele>
        <time>2019-01-18T05:32:33Z</time>
      </trkpt>
      <trkpt lat="42.13075" lon="2.38321">
        <ele>1338.1</ele>
        <time>2019-01-18T05:32:37Z</time>
      </trkpt>
      <trkpt lat="42.1307" lon="2.38318">
        <ele>1341.4</ele>
        <time>2019-01-18T05:32:41Z</time>
      </trkpt>
      <trkpt lat="42.13066" lon="2.38315">
        <ele>1342.4</ele>
        <time>2019-01-18T05:32:45Z</time>
      </trkpt>
      <trkpt lat="42.1306" lon="2.38317">
        <ele>1343</ele>
        <time>2019-01-18T05:32:49Z</time>
      </trkpt>
      <trkpt lat="42.13056" lon="2.38318">
        <ele>1344.1</ele>
        <time>2019-01-18T05:32:53Z</time>
      </trkpt>
      <trkpt lat="42.13051" lon="2.38317">
        <ele>1345</ele>
        <time>2019-01-18T05:32:57Z</time>
      </trkpt>
      <trkpt lat="42.13046" lon="2.38316">
        <ele>1346.2</ele>
        <time>2019-01-18T05:33:01Z</time>
      </trkpt>
      <trkpt lat="42.13041" lon="2.38316">
        <ele>1348</ele>
        <time>2019-01-18T05:33:05Z</time>
      </trkpt>
      <trkpt lat="42.13036" lon="2.38318">
        <ele>1349.2</ele>
        <time>2019-01-18T05:33:09Z</time>
      </trkpt>
      <trkpt lat="42.13031" lon="2.38322">
        <ele>1353.3</ele>
        <time>2019-01-18T05:33:14Z</time>
      </trkpt>
      <trkpt lat="42.13025" lon="2.38325">
        <ele>1355.3</ele>
        <time>2019-01-18T05:33:19Z</time>
      </trkpt>
      <trkpt lat="42.13021" lon="2.38329">
        <ele>1357.4</ele>
        <time>2019-01-18T05:33:23Z</time>
      </trkpt>
      <trkpt lat="42.13016" lon="2.38335">
        <ele>1360</ele>
        <time>2019-01-18T05:33:28Z</time>
      </trkpt>
      <trkpt lat="42.13014" lon="2.3834">
        <ele>1360.8</ele>
        <time>2019-01-18T05:33:32Z</time>
      </trkpt>
      <trkpt lat="42.13011" lon="2.38346">
        <ele>1363.4</ele>
        <time>2019-01-18T05:33:36Z</time>
      </trkpt>
      <trkpt lat="42.13009" lon="2.38353">
        <ele>1365.6</ele>
        <time>2019-01-18T05:33:40Z</time>
      </trkpt>
      <trkpt lat="42.13008" lon="2.38359">
        <ele>1367.5</ele>
        <time>2019-01-18T05:33:44Z</time>
      </trkpt>
      <trkpt lat="42.12994" lon="2.38339">
        <ele>1324.1</ele>
        <time>2019-01-18T06:50:42Z</time>
      </trkpt>
      <trkpt lat="42.1299" lon="2.3834">
        <ele>1324.2</ele>
        <time>2019-01-18T06:50:45Z</time>
      </trkpt>
      <trkpt lat="42.12984" lon="2.38343">
        <ele>1324.3</ele>
        <time>2019-01-18T06:50:50Z</time>
      </trkpt>
      <trkpt lat="42.1298" lon="2.38346">
        <ele>1324.7</ele>
        <time>2019-01-18T06:50:54Z</time>
      </trkpt>
      <trkpt lat="42.12975" lon="2.3835">
        <ele>1325.5</ele>
        <time>2019-01-18T06:50:58Z</time>
      </trkpt>
      <trkpt lat="42.12972" lon="2.38354">
        <ele>1326.2</ele>
        <time>2019-01-18T06:51:02Z</time>
      </trkpt>
      <trkpt lat="42.12969" lon="2.3836">
        <ele>1326.4</ele>
        <time>2019-01-18T06:51:06Z</time>
      </trkpt>
      <trkpt lat="42.12964" lon="2.38364">
        <ele>1327</ele>
        <time>2019-01-18T06:51:11Z</time>
      </trkpt>
      <trkpt lat="42.12959" lon="2.3837">
        <ele>1328.2</ele>
        <time>2019-01-18T06:51:16Z</time>
      </trkpt>
      <trkpt lat="42.12955" lon="2.38374">
        <ele>1328.8</ele>
        <time>2019-01-18T06:51:20Z</time>
      </trkpt>
      <trkpt lat="42.1295" lon="2.38378">
        <ele>1329.2</ele>
        <time>2019-01-18T06:51:25Z</time>
      </trkpt>
      <trkpt lat="42.12945" lon="2.38382">
        <ele>1329.7</ele>
        <time>2019-01-18T06:51:30Z</time>
      </trkpt>
      <trkpt lat="42.12941" lon="2.38385">
        <ele>1330.1</ele>
        <time>2019-01-18T06:51:33Z</time>
      </trkpt>
      <trkpt lat="42.12938" lon="2.38391">
        <ele>1330.4</ele>
        <time>2019-01-18T06:51:38Z</time>
      </trkpt>
      <trkpt lat="42.12933" lon="2.3839">
        <ele>1329.7</ele>
        <time>2019-01-18T06:51:41Z</time>
      </trkpt>
      <trkpt lat="42.12929" lon="2.38392">
        <ele>1329.8</ele>
        <time>2019-01-18T06:51:45Z</time>
      </trkpt>
      <trkpt lat="42.12924" lon="2.38392">
        <ele>1329.9</ele>
        <time>2019-01-18T06:51:49Z</time>
      </trkpt>
      <trkpt lat="42.12918" lon="2.38392">
        <ele>1330.1</ele>
        <time>2019-01-18T06:51:54Z</time>
      </trkpt>
      <trkpt lat="42.12913" lon="2.38389">
        <ele>1330.4</ele>
        <time>2019-01-18T06:51:58Z</time>
      </trkpt>
      <trkpt lat="42.12907" lon="2.38387">
        <ele>1329.9</ele>
        <time>2019-01-18T06:52:03Z</time>
      </trkpt>
      <trkpt lat="42.12902" lon="2.3839">
        <ele>1329.9</ele>
        <time>2019-01-18T06:52:07Z</time>
      </trkpt>
      <trkpt lat="42.12896" lon="2.3839">
        <ele>1330.4</ele>
        <time>2019-01-18T06:52:12Z</time>
      </trkpt>
      <trkpt lat="42.12891" lon="2.38395">
        <ele>1330.9</ele>
        <time>2019-01-18T06:52:17Z</time>
      </trkpt>
      <trkpt lat="42.12887" lon="2.384">
        <ele>1331</ele>
        <time>2019-01-18T06:52:21Z</time>
      </trkpt>
      <trkpt lat="42.12884" lon="2.38405">
        <ele>1331.1</ele>
        <time>2019-01-18T06:52:26Z</time>
      </trkpt>
      <trkpt lat="42.12882" lon="2.38411">
        <ele>1329.9</ele>
        <time>2019-01-18T06:52:30Z</time>
      </trkpt>
      <trkpt lat="42.12885" lon="2.38406">
        <ele>1331.8</ele>
        <time>2019-01-18T06:52:34Z</time>
      </trkpt>
      <trkpt lat="42.12881" lon="2.384">
        <ele>1332.6</ele>
        <time>2019-01-18T06:52:39Z</time>
      </trkpt>
      <trkpt lat="42.12877" lon="2.38395">
        <ele>1333.9</ele>
        <time>2019-01-18T06:52:43Z</time>
      </trkpt>
      <trkpt lat="42.12873" lon="2.3839">
        <ele>1335</ele>
        <time>2019-01-18T06:52:47Z</time>
      </trkpt>
      <trkpt lat="42.1287" lon="2.38384">
        <ele>1336.9</ele>
        <time>2019-01-18T06:52:52Z</time>
      </trkpt>
      <trkpt lat="42.12867" lon="2.38377">
        <ele>1338.3</ele>
        <time>2019-01-18T06:52:56Z</time>
      </trkpt>
      <trkpt lat="42.12863" lon="2.38372">
        <ele>1339.4</ele>
        <time>2019-01-18T06:53:01Z</time>
      </trkpt>
      <trkpt lat="42.1286" lon="2.38367">
        <ele>1340.4</ele>
        <time>2019-01-18T06:53:04Z</time>
      </trkpt>
      <trkpt lat="42.12856" lon="2.38361">
        <ele>1341.2</ele>
        <time>2019-01-18T06:53:09Z</time>
      </trkpt>
      <trkpt lat="42.12852" lon="2.38356">
        <ele>1342.1</ele>
        <time>2019-01-18T06:53:14Z</time>
      </trkpt>
      <trkpt lat="42.12848" lon="2.38351">
        <ele>1342.5</ele>
        <time>2019-01-18T06:53:18Z</time>
      </trkpt>
      <trkpt lat="42.12845" lon="2.38347">
        <ele>1342.7</ele>
        <time>2019-01-18T06:53:22Z</time>
      </trkpt>
      <trkpt lat="42.1284" lon="2.38342">
        <ele>1343.3</ele>
        <time>2019-01-18T06:53:27Z</time>
      </trkpt>
      <trkpt lat="42.12835" lon="2.38338">
        <ele>1343.7</ele>
        <time>2019-01-18T06:53:31Z</time>
      </trkpt>
      <trkpt lat="42.12832" lon="2.38332">
        <ele>1344.1</ele>
        <time>2019-01-18T06:53:35Z</time>
      </trkpt>
      <trkpt lat="42.12835" lon="2.38326">
        <ele>1345</ele>
        <time>2019-01-18T06:53:40Z</time>
      </trkpt>
      <trkpt lat="42.12836" lon="2.3832">
        <ele>1345.9</ele>
        <time>2019-01-18T06:53:43Z</time>
      </trkpt>
      <trkpt lat="42.12839" lon="2.38316">
        <ele>1347.4</ele>
        <time>2019-01-18T06:53:47Z</time>
      </trkpt>
      <trkpt lat="42.12842" lon="2.38311">
        <ele>1348.2</ele>
        <time>2019-01-18T06:53:51Z</time>
      </trkpt>
      <trkpt lat="42.12844" lon="2.38304">
        <ele>1348.7</ele>
        <time>2019-01-18T06:53:55Z</time>
      </trkpt>
      <trkpt lat="42.12847" lon="2.38299">
        <ele>1348.8</ele>
        <time>2019-01-18T06:53:59Z</time>
      </trkpt>
      <trkpt lat="42.12849" lon="2.38292">
        <ele>1349.7</ele>
        <time>2019-01-18T06:54:03Z</time>
      </trkpt>
      <trkpt lat="42.12846" lon="2.38286">
        <ele>1351.2</ele>
        <time>2019-01-18T06:54:08Z</time>
      </trkpt>
      <trkpt lat="42.12842" lon="2.38281">
        <ele>1350.4</ele>
        <time>2019-01-18T06:54:12Z</time>
      </trkpt>
      <trkpt lat="42.12837" lon="2.3828">
        <ele>1349.2</ele>
        <time>2019-01-18T06:54:16Z</time>
      </trkpt>
      <trkpt lat="42.12835" lon="2.38275">
        <ele>1348.2</ele>
        <time>2019-01-18T06:54:20Z</time>
      </trkpt>
      <trkpt lat="42.12831" lon="2.38268">
        <ele>1347.1</ele>
        <time>2019-01-18T06:54:25Z</time>
      </trkpt>
      <trkpt lat="42.12827" lon="2.38262">
        <ele>1346.5</ele>
        <time>2019-01-18T06:54:30Z</time>
      </trkpt>
      <trkpt lat="42.12824" lon="2.38256">
        <ele>1346</ele>
        <time>2019-01-18T06:54:34Z</time>
      </trkpt>
      <trkpt lat="42.12819" lon="2.38254">
        <ele>1345.6</ele>
        <time>2019-01-18T06:54:38Z</time>
      </trkpt>
      <trkpt lat="42.12815" lon="2.38252">
        <ele>1345.7</ele>
        <time>2019-01-18T06:54:42Z</time>
      </trkpt>
      <trkpt lat="42.12812" lon="2.38246">
        <ele>1345.8</ele>
        <time>2019-01-18T06:54:46Z</time>
      </trkpt>
      <trkpt lat="42.12807" lon="2.38244">
        <ele>1346</ele>
        <time>2019-01-18T06:54:50Z</time>
      </trkpt>
      <trkpt lat="42.12802" lon="2.3824">
        <ele>1346.6</ele>
        <time>2019-01-18T06:54:55Z</time>
      </trkpt>
      <trkpt lat="42.12798" lon="2.38235">
        <ele>1346.8</ele>
        <time>2019-01-18T06:54:59Z</time>
      </trkpt>
      <trkpt lat="42.12794" lon="2.38231">
        <ele>1347.1</ele>
        <time>2019-01-18T06:55:03Z</time>
      </trkpt>
      <trkpt lat="42.12789" lon="2.38228">
        <ele>1347.7</ele>
        <time>2019-01-18T06:55:08Z</time>
      </trkpt>
      <trkpt lat="42.12784" lon="2.38227">
        <ele>1348.6</ele>
        <time>2019-01-18T06:55:11Z</time>
      </trkpt>
      <trkpt lat="42.12779" lon="2.38226">
        <ele>1349.4</ele>
        <time>2019-01-18T06:55:15Z</time>
      </trkpt>
      <trkpt lat="42.12774" lon="2.38225">
        <ele>1350.5</ele>
        <time>2019-01-18T06:55:19Z</time>
      </trkpt>
      <trkpt lat="42.1277" lon="2.38224">
        <ele>1352.2</ele>
        <time>2019-01-18T06:55:23Z</time>
      </trkpt>
      <trkpt lat="42.12765" lon="2.38224">
        <ele>1353.8</ele>
        <time>2019-01-18T06:55:27Z</time>
      </trkpt>
      <trkpt lat="42.1276" lon="2.38222">
        <ele>1354.3</ele>
        <time>2019-01-18T06:55:31Z</time>
      </trkpt>
      <trkpt lat="42.12754" lon="2.38219">
        <ele>1354.9</ele>
        <time>2019-01-18T06:55:36Z</time>
      </trkpt>
      <trkpt lat="42.1275" lon="2.38215">
        <ele>1355.6</ele>
        <time>2019-01-18T06:55:40Z</time>
      </trkpt>
      <trkpt lat="42.12745" lon="2.3821">
        <ele>1355.5</ele>
        <time>2019-01-18T06:55:45Z</time>
      </trkpt>
      <trkpt lat="42.1274" lon="2.3821">
        <ele>1355</ele>
        <time>2019-01-18T06:55:49Z</time>
      </trkpt>
      <trkpt lat="42.12735" lon="2.38209">
        <ele>1355.1</ele>
        <time>2019-01-18T06:55:53Z</time>
      </trkpt>
      <trkpt lat="42.12732" lon="2.38203">
        <ele>1354</ele>
        <time>2019-01-18T06:55:57Z</time>
      </trkpt>
      <trkpt lat="42.12734" lon="2.3821">
        <ele>1354.4</ele>
        <time>2019-01-18T06:56:01Z</time>
      </trkpt>
      <trkpt lat="42.12737" lon="2.38214">
        <ele>1354.7</ele>
        <time>2019-01-18T06:56:05Z</time>
      </trkpt>
      <trkpt lat="42.12742" lon="2.38212">
        <ele>1353.7</ele>
        <time>2019-01-18T06:56:09Z</time>
      </trkpt>
      <trkpt lat="42.12747" lon="2.38213">
        <ele>1354.8</ele>
        <time>2019-01-18T06:56:14Z</time>
      </trkpt>
      <trkpt lat="42.12751" lon="2.38219">
        <ele>1355.3</ele>
        <time>2019-01-18T06:56:18Z</time>
      </trkpt>
      <trkpt lat="42.12756" lon="2.38221">
        <ele>1355.4</ele>
        <time>2019-01-18T06:56:22Z</time>
      </trkpt>
      <trkpt lat="42.12759" lon="2.38215">
        <ele>1355.8</ele>
        <time>2019-01-18T06:56:26Z</time>
      </trkpt>
      <trkpt lat="42.12755" lon="2.38217">
        <ele>1355.5</ele>
        <time>2019-01-18T06:56:30Z</time>
      </trkpt>
      <trkpt lat="42.1275" lon="2.38219">
        <ele>1355.7</ele>
        <time>2019-01-18T06:56:34Z</time>
      </trkpt>
      <trkpt lat="42.12746" lon="2.38219">
        <ele>1355.4</ele>
        <time>2019-01-18T06:56:38Z</time>
      </trkpt>
      <trkpt lat="42.1274" lon="2.3822">
        <ele>1354.9</ele>
        <time>2019-01-18T06:56:42Z</time>
      </trkpt>
      <trkpt lat="42.12735" lon="2.38219">
        <ele>1354.9</ele>
        <time>2019-01-18T06:56:46Z</time>
      </trkpt>
      <trkpt lat="42.1273" lon="2.3822">
        <ele>1355.2</ele>
        <time>2019-01-18T06:56:50Z</time>
      </trkpt>
      <trkpt lat="42.12725" lon="2.38214">
        <ele>1355.4</ele>
        <time>2019-01-18T06:56:55Z</time>
      </trkpt>
      <trkpt lat="42.12721" lon="2.38212">
        <ele>1354.9</ele>
        <time>2019-01-18T06:56:59Z</time>
      </trkpt>
      <trkpt lat="42.12717" lon="2.38207">
        <ele>1354</ele>
        <time>2019-01-18T06:57:03Z</time>
      </trkpt>
      <trkpt lat="42.12714" lon="2.38202">
        <ele>1352.8</ele>
        <time>2019-01-18T06:57:07Z</time>
      </trkpt>
      <trkpt lat="42.1271" lon="2.38197">
        <ele>1352.3</ele>
        <time>2019-01-18T06:57:12Z</time>
      </trkpt>
      <trkpt lat="42.12707" lon="2.3819">
        <ele>1351.7</ele>
        <time>2019-01-18T06:57:17Z</time>
      </trkpt>
      <trkpt lat="42.12704" lon="2.38184">
        <ele>1351.2</ele>
        <time>2019-01-18T06:57:21Z</time>
      </trkpt>
      <trkpt lat="42.12702" lon="2.38177">
        <ele>1350.6</ele>
        <time>2019-01-18T06:57:25Z</time>
      </trkpt>
      <trkpt lat="42.12703" lon="2.3817">
        <ele>1348.9</ele>
        <time>2019-01-18T06:57:29Z</time>
      </trkpt>
      <trkpt lat="42.12703" lon="2.38164">
        <ele>1348.1</ele>
        <time>2019-01-18T06:57:33Z</time>
      </trkpt>
      <trkpt lat="42.12703" lon="2.38157">
        <ele>1347.7</ele>
        <time>2019-01-18T06:57:37Z</time>
      </trkpt>
      <trkpt lat="42.12704" lon="2.3815">
        <ele>1347.3</ele>
        <time>2019-01-18T06:57:41Z</time>
      </trkpt>
      <trkpt lat="42.12705" lon="2.38144">
        <ele>1347</ele>
        <time>2019-01-18T06:57:45Z</time>
      </trkpt>
      <trkpt lat="42.12708" lon="2.38139">
        <ele>1347</ele>
        <time>2019-01-18T06:57:49Z</time>
      </trkpt>
      <trkpt lat="42.12709" lon="2.3813">
        <ele>1346.7</ele>
        <time>2019-01-18T06:57:54Z</time>
      </trkpt>
      <trkpt lat="42.12711" lon="2.38124">
        <ele>1346.4</ele>
        <time>2019-01-18T06:57:58Z</time>
      </trkpt>
      <trkpt lat="42.12713" lon="2.38118">
        <ele>1346.2</ele>
        <time>2019-01-18T06:58:02Z</time>
      </trkpt>
      <trkpt lat="42.12716" lon="2.38113">
        <ele>1345.2</ele>
        <time>2019-01-18T06:58:05Z</time>
      </trkpt>
      <trkpt lat="42.12718" lon="2.38108">
        <ele>1344.8</ele>
        <time>2019-01-18T06:58:09Z</time>
      </trkpt>
      <trkpt lat="42.12722" lon="2.38102">
        <ele>1344.1</ele>
        <time>2019-01-18T06:58:14Z</time>
      </trkpt>
      <trkpt lat="42.12724" lon="2.38096">
        <ele>1343.8</ele>
        <time>2019-01-18T06:58:18Z</time>
      </trkpt>
      <trkpt lat="42.12726" lon="2.3809">
        <ele>1343.7</ele>
        <time>2019-01-18T06:58:22Z</time>
      </trkpt>
      <trkpt lat="42.12728" lon="2.38083">
        <ele>1343.5</ele>
        <time>2019-01-18T06:58:26Z</time>
      </trkpt>
      <trkpt lat="42.12726" lon="2.38076">
        <ele>1343.4</ele>
        <time>2019-01-18T06:58:31Z</time>
      </trkpt>
      <trkpt lat="42.12722" lon="2.38068">
        <ele>1343.4</ele>
        <time>2019-01-18T06:58:36Z</time>
      </trkpt>
      <trkpt lat="42.1272" lon="2.38062">
        <ele>1343.3</ele>
        <time>2019-01-18T06:58:40Z</time>
      </trkpt>
      <trkpt lat="42.12719" lon="2.38055">
        <ele>1342.9</ele>
        <time>2019-01-18T06:58:44Z</time>
      </trkpt>
      <trkpt lat="42.12718" lon="2.38049">
        <ele>1342.3</ele>
        <time>2019-01-18T06:58:48Z</time>
      </trkpt>
      <trkpt lat="42.12716" lon="2.38041">
        <ele>1341.1</ele>
        <time>2019-01-18T06:58:53Z</time>
      </trkpt>
      <trkpt lat="42.12716" lon="2.38035">
        <ele>1340.2</ele>
        <time>2019-01-18T06:58:57Z</time>
      </trkpt>
      <trkpt lat="42.12714" lon="2.38028">
        <ele>1339.5</ele>
        <time>2019-01-18T06:59:01Z</time>
      </trkpt>
      <trkpt lat="42.12711" lon="2.38022">
        <ele>1338.5</ele>
        <time>2019-01-18T06:59:05Z</time>
      </trkpt>
      <trkpt lat="42.12706" lon="2.38019">
        <ele>1337.6</ele>
        <time>2019-01-18T06:59:09Z</time>
      </trkpt>
      <trkpt lat="42.12702" lon="2.38015">
        <ele>1337.2</ele>
        <time>2019-01-18T06:59:14Z</time>
      </trkpt>
      <trkpt lat="42.12698" lon="2.38011">
        <ele>1336.7</ele>
        <time>2019-01-18T06:59:17Z</time>
      </trkpt>
      <trkpt lat="42.12693" lon="2.3801">
        <ele>1336.4</ele>
        <time>2019-01-18T06:59:21Z</time>
      </trkpt>
      <trkpt lat="42.12688" lon="2.3801">
        <ele>1335.9</ele>
        <time>2019-01-18T06:59:26Z</time>
      </trkpt>
      <trkpt lat="42.12683" lon="2.38005">
        <ele>1335.5</ele>
        <time>2019-01-18T06:59:30Z</time>
      </trkpt>
      <trkpt lat="42.12679" lon="2.38001">
        <ele>1335</ele>
        <time>2019-01-18T06:59:35Z</time>
      </trkpt>
      <trkpt lat="42.12674" lon="2.37999">
        <ele>1335</ele>
        <time>2019-01-18T06:59:38Z</time>
      </trkpt>
      <trkpt lat="42.1267" lon="2.37995">
        <ele>1334.7</ele>
        <time>2019-01-18T06:59:43Z</time>
      </trkpt>
      <trkpt lat="42.12665" lon="2.37992">
        <ele>1334.4</ele>
        <time>2019-01-18T06:59:47Z</time>
      </trkpt>
      <trkpt lat="42.12659" lon="2.37992">
        <ele>1334</ele>
        <time>2019-01-18T06:59:52Z</time>
      </trkpt>
      <trkpt lat="42.12655" lon="2.37988">
        <ele>1333.6</ele>
        <time>2019-01-18T06:59:55Z</time>
      </trkpt>
      <trkpt lat="42.12651" lon="2.37984">
        <ele>1333.5</ele>
        <time>2019-01-18T06:59:59Z</time>
      </trkpt>
      <trkpt lat="42.12647" lon="2.37981">
        <ele>1333.2</ele>
        <time>2019-01-18T07:00:04Z</time>
      </trkpt>
      <trkpt lat="42.12643" lon="2.37977">
        <ele>1332.7</ele>
        <time>2019-01-18T07:00:07Z</time>
      </trkpt>
      <trkpt lat="42.12645" lon="2.37971">
        <ele>1333</ele>
        <time>2019-01-18T07:00:11Z</time>
      </trkpt>
      <trkpt lat="42.12649" lon="2.37965">
        <ele>1332.9</ele>
        <time>2019-01-18T07:00:16Z</time>
      </trkpt>
      <trkpt lat="42.12652" lon="2.37957">
        <ele>1331.7</ele>
        <time>2019-01-18T07:00:21Z</time>
      </trkpt>
      <trkpt lat="42.12656" lon="2.37952">
        <ele>1331.3</ele>
        <time>2019-01-18T07:00:26Z</time>
      </trkpt>
      <trkpt lat="42.1266" lon="2.37948">
        <ele>1331</ele>
        <time>2019-01-18T07:00:30Z</time>
      </trkpt>
      <trkpt lat="42.12664" lon="2.37944">
        <ele>1330.7</ele>
        <time>2019-01-18T07:00:34Z</time>
      </trkpt>
      <trkpt lat="42.12667" lon="2.37938">
        <ele>1330.3</ele>
        <time>2019-01-18T07:00:38Z</time>
      </trkpt>
      <trkpt lat="42.12671" lon="2.37935">
        <ele>1329.8</ele>
        <time>2019-01-18T07:00:41Z</time>
      </trkpt>
      <trkpt lat="42.12675" lon="2.37933">
        <ele>1329.6</ele>
        <time>2019-01-18T07:00:45Z</time>
      </trkpt>
      <trkpt lat="42.12679" lon="2.37928">
        <ele>1329.9</ele>
        <time>2019-01-18T07:00:49Z</time>
      </trkpt>
      <trkpt lat="42.12684" lon="2.37921">
        <ele>1328.6</ele>
        <time>2019-01-18T07:00:55Z</time>
      </trkpt>
      <trkpt lat="42.12688" lon="2.37916">
        <ele>1328.3</ele>
        <time>2019-01-18T07:00:59Z</time>
      </trkpt>
      <trkpt lat="42.12691" lon="2.37911">
        <ele>1328</ele>
        <time>2019-01-18T07:01:03Z</time>
      </trkpt>
      <trkpt lat="42.12694" lon="2.37905">
        <ele>1327.3</ele>
        <time>2019-01-18T07:01:08Z</time>
      </trkpt>
      <trkpt lat="42.12698" lon="2.37898">
        <ele>1326.9</ele>
        <time>2019-01-18T07:01:12Z</time>
      </trkpt>
      <trkpt lat="42.12699" lon="2.37891">
        <ele>1326.1</ele>
        <time>2019-01-18T07:01:17Z</time>
      </trkpt>
      <trkpt lat="42.12701" lon="2.37885">
        <ele>1325.4</ele>
        <time>2019-01-18T07:01:21Z</time>
      </trkpt>
      <trkpt lat="42.12706" lon="2.37882">
        <ele>1324.9</ele>
        <time>2019-01-18T07:01:24Z</time>
      </trkpt>
      <trkpt lat="42.12709" lon="2.37877">
        <ele>1324.3</ele>
        <time>2019-01-18T07:01:29Z</time>
      </trkpt>
      <trkpt lat="42.12713" lon="2.3787">
        <ele>1323.5</ele>
        <time>2019-01-18T07:01:34Z</time>
      </trkpt>
      <trkpt lat="42.12716" lon="2.37865">
        <ele>1322.9</ele>
        <time>2019-01-18T07:01:38Z</time>
      </trkpt>
      <trkpt lat="42.1272" lon="2.37861">
        <ele>1322.4</ele>
        <time>2019-01-18T07:01:42Z</time>
      </trkpt>
      <trkpt lat="42.12721" lon="2.37854">
        <ele>1320.9</ele>
        <time>2019-01-18T07:01:46Z</time>
      </trkpt>
      <trkpt lat="42.12726" lon="2.37851">
        <ele>1319.9</ele>
        <time>2019-01-18T07:01:50Z</time>
      </trkpt>
      <trkpt lat="42.12732" lon="2.37851">
        <ele>1319</ele>
        <time>2019-01-18T07:01:54Z</time>
      </trkpt>
      <trkpt lat="42.12733" lon="2.37845">
        <ele>1318.2</ele>
        <time>2019-01-18T07:01:58Z</time>
      </trkpt>
      <trkpt lat="42.12734" lon="2.37838">
        <ele>1317.3</ele>
        <time>2019-01-18T07:02:02Z</time>
      </trkpt>
      <trkpt lat="42.12736" lon="2.37832">
        <ele>1316.6</ele>
        <time>2019-01-18T07:02:06Z</time>
      </trkpt>
      <trkpt lat="42.12741" lon="2.37829">
        <ele>1316</ele>
        <time>2019-01-18T07:02:11Z</time>
      </trkpt>
      <trkpt lat="42.12747" lon="2.37829">
        <ele>1315.5</ele>
        <time>2019-01-18T07:02:15Z</time>
      </trkpt>
      <trkpt lat="42.12752" lon="2.37829">
        <ele>1315</ele>
        <time>2019-01-18T07:02:19Z</time>
      </trkpt>
      <trkpt lat="42.12756" lon="2.37829">
        <ele>1314.8</ele>
        <time>2019-01-18T07:02:23Z</time>
      </trkpt>
      <trkpt lat="42.12763" lon="2.37828">
        <ele>1314.6</ele>
        <time>2019-01-18T07:02:28Z</time>
      </trkpt>
      <trkpt lat="42.12768" lon="2.37828">
        <ele>1314.5</ele>
        <time>2019-01-18T07:02:32Z</time>
      </trkpt>
      <trkpt lat="42.12774" lon="2.37826">
        <ele>1314.4</ele>
        <time>2019-01-18T07:02:37Z</time>
      </trkpt>
      <trkpt lat="42.12778" lon="2.37823">
        <ele>1313.9</ele>
        <time>2019-01-18T07:02:41Z</time>
      </trkpt>
      <trkpt lat="42.12784" lon="2.3782">
        <ele>1313.3</ele>
        <time>2019-01-18T07:02:46Z</time>
      </trkpt>
      <trkpt lat="42.12788" lon="2.37818">
        <ele>1312.5</ele>
        <time>2019-01-18T07:02:49Z</time>
      </trkpt>
      <trkpt lat="42.12792" lon="2.37816">
        <ele>1311.8</ele>
        <time>2019-01-18T07:02:53Z</time>
      </trkpt>
      <trkpt lat="42.12797" lon="2.37816">
        <ele>1311.3</ele>
        <time>2019-01-18T07:02:57Z</time>
      </trkpt>
      <trkpt lat="42.12802" lon="2.37814">
        <ele>1309.7</ele>
        <time>2019-01-18T07:03:01Z</time>
      </trkpt>
      <trkpt lat="42.12808" lon="2.37811">
        <ele>1308.9</ele>
        <time>2019-01-18T07:03:06Z</time>
      </trkpt>
      <trkpt lat="42.12813" lon="2.37811">
        <ele>1308.2</ele>
        <time>2019-01-18T07:03:10Z</time>
      </trkpt>
      <trkpt lat="42.12818" lon="2.37807">
        <ele>1307.7</ele>
        <time>2019-01-18T07:03:15Z</time>
      </trkpt>
      <trkpt lat="42.12823" lon="2.37803">
        <ele>1307.4</ele>
        <time>2019-01-18T07:03:19Z</time>
      </trkpt>
      <trkpt lat="42.12828" lon="2.37799">
        <ele>1307.2</ele>
        <time>2019-01-18T07:03:24Z</time>
      </trkpt>
      <trkpt lat="42.12832" lon="2.37793">
        <ele>1306</ele>
        <time>2019-01-18T07:03:29Z</time>
      </trkpt>
      <trkpt lat="42.12837" lon="2.37791">
        <ele>1305.4</ele>
        <time>2019-01-18T07:03:33Z</time>
      </trkpt>
      <trkpt lat="42.12842" lon="2.37788">
        <ele>1304.8</ele>
        <time>2019-01-18T07:03:37Z</time>
      </trkpt>
      <trkpt lat="42.12846" lon="2.37784">
        <ele>1303.9</ele>
        <time>2019-01-18T07:03:41Z</time>
      </trkpt>
      <trkpt lat="42.1285" lon="2.3778">
        <ele>1303.6</ele>
        <time>2019-01-18T07:03:46Z</time>
      </trkpt>
      <trkpt lat="42.12854" lon="2.37775">
        <ele>1303.2</ele>
        <time>2019-01-18T07:03:50Z</time>
      </trkpt>
      <trkpt lat="42.12856" lon="2.37768">
        <ele>1301.7</ele>
        <time>2019-01-18T07:03:55Z</time>
      </trkpt>
      <trkpt lat="42.12853" lon="2.37773">
        <ele>1302.3</ele>
        <time>2019-01-18T07:03:59Z</time>
      </trkpt>
      <trkpt lat="42.12856" lon="2.3777">
        <ele>1302.1</ele>
        <time>2019-01-18T07:04:03Z</time>
      </trkpt>
      <trkpt lat="42.12862" lon="2.37765">
        <ele>1301.4</ele>
        <time>2019-01-18T07:04:08Z</time>
      </trkpt>
      <trkpt lat="42.12866" lon="2.37761">
        <ele>1300.9</ele>
        <time>2019-01-18T07:04:12Z</time>
      </trkpt>
      <trkpt lat="42.1287" lon="2.37761">
        <ele>1300.3</ele>
        <time>2019-01-18T07:04:16Z</time>
      </trkpt>
      <trkpt lat="42.12875" lon="2.3776">
        <ele>1299.9</ele>
        <time>2019-01-18T07:04:20Z</time>
      </trkpt>
      <trkpt lat="42.1288" lon="2.37757">
        <ele>1299.8</ele>
        <time>2019-01-18T07:04:24Z</time>
      </trkpt>
      <trkpt lat="42.12887" lon="2.37754">
        <ele>1299.4</ele>
        <time>2019-01-18T07:04:30Z</time>
      </trkpt>
      <trkpt lat="42.12892" lon="2.37753">
        <ele>1298.9</ele>
        <time>2019-01-18T07:04:34Z</time>
      </trkpt>
      <trkpt lat="42.12896" lon="2.37753">
        <ele>1298.6</ele>
        <time>2019-01-18T07:04:37Z</time>
      </trkpt>
      <trkpt lat="42.12901" lon="2.37751">
        <ele>1298.3</ele>
        <time>2019-01-18T07:04:42Z</time>
      </trkpt>
      <trkpt lat="42.12907" lon="2.37751">
        <ele>1297.9</ele>
        <time>2019-01-18T07:04:46Z</time>
      </trkpt>
      <trkpt lat="42.12912" lon="2.37747">
        <ele>1297.1</ele>
        <time>2019-01-18T07:04:50Z</time>
      </trkpt>
      <trkpt lat="42.12916" lon="2.37746">
        <ele>1295.7</ele>
        <time>2019-01-18T07:04:54Z</time>
      </trkpt>
      <trkpt lat="42.1292" lon="2.37743">
        <ele>1294.6</ele>
        <time>2019-01-18T07:04:58Z</time>
      </trkpt>
      <trkpt lat="42.1292" lon="2.37737">
        <ele>1294.7</ele>
        <time>2019-01-18T07:05:02Z</time>
      </trkpt>
      <trkpt lat="42.12923" lon="2.37731">
        <ele>1294.9</ele>
        <time>2019-01-18T07:05:06Z</time>
      </trkpt>
      <trkpt lat="42.12925" lon="2.37725">
        <ele>1293.8</ele>
        <time>2019-01-18T07:05:10Z</time>
      </trkpt>
      <trkpt lat="42.12926" lon="2.37718">
        <ele>1293.8</ele>
        <time>2019-01-18T07:05:13Z</time>
      </trkpt>
      <trkpt lat="42.12928" lon="2.37712">
        <ele>1293.5</ele>
        <time>2019-01-18T07:05:18Z</time>
      </trkpt>
      <trkpt lat="42.12931" lon="2.37708">
        <ele>1293.1</ele>
        <time>2019-01-18T07:05:21Z</time>
      </trkpt>
      <trkpt lat="42.12935" lon="2.37702">
        <ele>1292.8</ele>
        <time>2019-01-18T07:05:26Z</time>
      </trkpt>
      <trkpt lat="42.12937" lon="2.37696">
        <ele>1292.6</ele>
        <time>2019-01-18T07:05:30Z</time>
      </trkpt>
      <trkpt lat="42.12942" lon="2.3769">
        <ele>1292.1</ele>
        <time>2019-01-18T07:05:34Z</time>
      </trkpt>
      <trkpt lat="42.12945" lon="2.37686">
        <ele>1291.8</ele>
        <time>2019-01-18T07:05:38Z</time>
      </trkpt>
      <trkpt lat="42.1295" lon="2.37683">
        <ele>1291.3</ele>
        <time>2019-01-18T07:05:42Z</time>
      </trkpt>
      <trkpt lat="42.12952" lon="2.37675">
        <ele>1290.6</ele>
        <time>2019-01-18T07:05:47Z</time>
      </trkpt>
      <trkpt lat="42.12956" lon="2.37671">
        <ele>1290</ele>
        <time>2019-01-18T07:05:51Z</time>
      </trkpt>
      <trkpt lat="42.12959" lon="2.37665">
        <ele>1289.2</ele>
        <time>2019-01-18T07:05:56Z</time>
      </trkpt>
      <trkpt lat="42.12959" lon="2.37659">
        <ele>1288.3</ele>
        <time>2019-01-18T07:05:59Z</time>
      </trkpt>
      <trkpt lat="42.12963" lon="2.37654">
        <ele>1287.7</ele>
        <time>2019-01-18T07:06:04Z</time>
      </trkpt>
      <trkpt lat="42.12968" lon="2.37651">
        <ele>1287.4</ele>
        <time>2019-01-18T07:06:08Z</time>
      </trkpt>
      <trkpt lat="42.12973" lon="2.37648">
        <ele>1287.5</ele>
        <time>2019-01-18T07:06:13Z</time>
      </trkpt>
      <trkpt lat="42.12978" lon="2.37647">
        <ele>1287.3</ele>
        <time>2019-01-18T07:06:17Z</time>
      </trkpt>
      <trkpt lat="42.12983" lon="2.37649">
        <ele>1287.4</ele>
        <time>2019-01-18T07:06:21Z</time>
      </trkpt>
      <trkpt lat="42.12988" lon="2.37648">
        <ele>1287.3</ele>
        <time>2019-01-18T07:06:25Z</time>
      </trkpt>
      <trkpt lat="42.12993" lon="2.3765">
        <ele>1287.3</ele>
        <time>2019-01-18T07:06:29Z</time>
      </trkpt>
      <trkpt lat="42.12998" lon="2.37652">
        <ele>1287.4</ele>
        <time>2019-01-18T07:06:33Z</time>
      </trkpt>
      <trkpt lat="42.13003" lon="2.37654">
        <ele>1287.3</ele>
        <time>2019-01-18T07:06:37Z</time>
      </trkpt>
      <trkpt lat="42.13007" lon="2.37656">
        <ele>1287.5</ele>
        <time>2019-01-18T07:06:41Z</time>
      </trkpt>
      <trkpt lat="42.13013" lon="2.37657">
        <ele>1287.7</ele>
        <time>2019-01-18T07:06:45Z</time>
      </trkpt>
      <trkpt lat="42.13019" lon="2.3766">
        <ele>1287.9</ele>
        <time>2019-01-18T07:06:51Z</time>
      </trkpt>
      <trkpt lat="42.13023" lon="2.37663">
        <ele>1288.1</ele>
        <time>2019-01-18T07:06:55Z</time>
      </trkpt>
      <trkpt lat="42.13029" lon="2.37665">
        <ele>1288.2</ele>
        <time>2019-01-18T07:07:00Z</time>
      </trkpt>
      <trkpt lat="42.13037" lon="2.37667">
        <ele>1288.3</ele>
        <time>2019-01-18T07:07:06Z</time>
      </trkpt>
      <trkpt lat="42.13043" lon="2.37667">
        <ele>1288.3</ele>
        <time>2019-01-18T07:07:11Z</time>
      </trkpt>
      <trkpt lat="42.13048" lon="2.37666">
        <ele>1288.1</ele>
        <time>2019-01-18T07:07:15Z</time>
      </trkpt>
      <trkpt lat="42.13052" lon="2.37664">
        <ele>1287.9</ele>
        <time>2019-01-18T07:07:18Z</time>
      </trkpt>
      <trkpt lat="42.13057" lon="2.37664">
        <ele>1287.8</ele>
        <time>2019-01-18T07:07:22Z</time>
      </trkpt>
      <trkpt lat="42.13064" lon="2.37661">
        <ele>1287.8</ele>
        <time>2019-01-18T07:07:28Z</time>
      </trkpt>
      <trkpt lat="42.13068" lon="2.37659">
        <ele>1287.6</ele>
        <time>2019-01-18T07:07:32Z</time>
      </trkpt>
      <trkpt lat="42.13074" lon="2.37658">
        <ele>1287.5</ele>
        <time>2019-01-18T07:07:36Z</time>
      </trkpt>
      <trkpt lat="42.13079" lon="2.37654">
        <ele>1287.4</ele>
        <time>2019-01-18T07:07:41Z</time>
      </trkpt>
      <trkpt lat="42.13083" lon="2.37648">
        <ele>1287.1</ele>
        <time>2019-01-18T07:07:46Z</time>
      </trkpt>
      <trkpt lat="42.13085" lon="2.37641">
        <ele>1286.8</ele>
        <time>2019-01-18T07:07:50Z</time>
      </trkpt>
      <trkpt lat="42.13089" lon="2.37633">
        <ele>1286.3</ele>
        <time>2019-01-18T07:07:56Z</time>
      </trkpt>
      <trkpt lat="42.13093" lon="2.37629">
        <ele>1286.1</ele>
        <time>2019-01-18T07:08:00Z</time>
      </trkpt>
      <trkpt lat="42.13098" lon="2.37624">
        <ele>1286.2</ele>
        <time>2019-01-18T07:08:05Z</time>
      </trkpt>
      <trkpt lat="42.13101" lon="2.3762">
        <ele>1286.4</ele>
        <time>2019-01-18T07:08:09Z</time>
      </trkpt>
      <trkpt lat="42.13106" lon="2.37615">
        <ele>1287</ele>
        <time>2019-01-18T07:08:13Z</time>
      </trkpt>
      <trkpt lat="42.1311" lon="2.3761">
        <ele>1287</ele>
        <time>2019-01-18T07:08:18Z</time>
      </trkpt>
      <trkpt lat="42.13115" lon="2.37606">
        <ele>1286.9</ele>
        <time>2019-01-18T07:08:23Z</time>
      </trkpt>
      <trkpt lat="42.13119" lon="2.37601">
        <ele>1286.7</ele>
        <time>2019-01-18T07:08:27Z</time>
      </trkpt>
      <trkpt lat="42.13124" lon="2.37602">
        <ele>1286.6</ele>
        <time>2019-01-18T07:08:30Z</time>
      </trkpt>
      <trkpt lat="42.13128" lon="2.37604">
        <ele>1286.7</ele>
        <time>2019-01-18T07:08:34Z</time>
      </trkpt>
      <trkpt lat="42.13133" lon="2.37602">
        <ele>1287</ele>
        <time>2019-01-18T07:08:38Z</time>
      </trkpt>
      <trkpt lat="42.13137" lon="2.37603">
        <ele>1286.6</ele>
        <time>2019-01-18T07:08:42Z</time>
      </trkpt>
      <trkpt lat="42.13143" lon="2.37605">
        <ele>1286.7</ele>
        <time>2019-01-18T07:08:46Z</time>
      </trkpt>
      <trkpt lat="42.13147" lon="2.37605">
        <ele>1286.8</ele>
        <time>2019-01-18T07:08:50Z</time>
      </trkpt>
      <trkpt lat="42.13153" lon="2.37606">
        <ele>1287.1</ele>
        <time>2019-01-18T07:08:54Z</time>
      </trkpt>
      <trkpt lat="42.13159" lon="2.37606">
        <ele>1287.1</ele>
        <time>2019-01-18T07:08:59Z</time>
      </trkpt>
      <trkpt lat="42.13164" lon="2.37607">
        <ele>1286.9</ele>
        <time>2019-01-18T07:09:04Z</time>
      </trkpt>
      <trkpt lat="42.13169" lon="2.37608">
        <ele>1286.7</ele>
        <time>2019-01-18T07:09:07Z</time>
      </trkpt>
      <trkpt lat="42.13175" lon="2.3761">
        <ele>1286.3</ele>
        <time>2019-01-18T07:09:12Z</time>
      </trkpt>
      <trkpt lat="42.1318" lon="2.37609">
        <ele>1286</ele>
        <time>2019-01-18T07:09:16Z</time>
      </trkpt>
      <trkpt lat="42.13185" lon="2.37607">
        <ele>1285.5</ele>
        <time>2019-01-18T07:09:20Z</time>
      </trkpt>
      <trkpt lat="42.1319" lon="2.37603">
        <ele>1285.4</ele>
        <time>2019-01-18T07:09:25Z</time>
      </trkpt>
      <trkpt lat="42.13195" lon="2.37601">
        <ele>1285.4</ele>
        <time>2019-01-18T07:09:29Z</time>
      </trkpt>
      <trkpt lat="42.132" lon="2.37599">
        <ele>1284.5</ele>
        <time>2019-01-18T07:09:33Z</time>
      </trkpt>
      <trkpt lat="42.13204" lon="2.37596">
        <ele>1284.6</ele>
        <time>2019-01-18T07:09:37Z</time>
      </trkpt>
      <trkpt lat="42.13209" lon="2.37593">
        <ele>1284.6</ele>
        <time>2019-01-18T07:09:41Z</time>
      </trkpt>
      <trkpt lat="42.13212" lon="2.37587">
        <ele>1283.6</ele>
        <time>2019-01-18T07:09:46Z</time>
      </trkpt>
      <trkpt lat="42.13215" lon="2.3758">
        <ele>1283.4</ele>
        <time>2019-01-18T07:09:50Z</time>
      </trkpt>
      <trkpt lat="42.13217" lon="2.37574">
        <ele>1283.3</ele>
        <time>2019-01-18T07:09:54Z</time>
      </trkpt>
      <trkpt lat="42.1322" lon="2.37567">
        <ele>1283.1</ele>
        <time>2019-01-18T07:09:59Z</time>
      </trkpt>
      <trkpt lat="42.1322" lon="2.37561">
        <ele>1282.3</ele>
        <time>2019-01-18T07:10:03Z</time>
      </trkpt>
      <trkpt lat="42.13219" lon="2.37553">
        <ele>1281.7</ele>
        <time>2019-01-18T07:10:07Z</time>
      </trkpt>
      <trkpt lat="42.13219" lon="2.37546">
        <ele>1281.5</ele>
        <time>2019-01-18T07:10:12Z</time>
      </trkpt>
      <trkpt lat="42.13216" lon="2.3754">
        <ele>1281.2</ele>
        <time>2019-01-18T07:10:16Z</time>
      </trkpt>
      <trkpt lat="42.13212" lon="2.37535">
        <ele>1281.1</ele>
        <time>2019-01-18T07:10:20Z</time>
      </trkpt>
      <trkpt lat="42.13208" lon="2.37531">
        <ele>1281</ele>
        <time>2019-01-18T07:10:24Z</time>
      </trkpt>
      <trkpt lat="42.13204" lon="2.37527">
        <ele>1280.9</ele>
        <time>2019-01-18T07:10:28Z</time>
      </trkpt>
      <trkpt lat="42.13201" lon="2.37523">
        <ele>1280.7</ele>
        <time>2019-01-18T07:10:31Z</time>
      </trkpt>
      <trkpt lat="42.13198" lon="2.37517">
        <ele>1280.5</ele>
        <time>2019-01-18T07:10:36Z</time>
      </trkpt>
      <trkpt lat="42.13195" lon="2.37511">
        <ele>1280.3</ele>
        <time>2019-01-18T07:10:40Z</time>
      </trkpt>
      <trkpt lat="42.13193" lon="2.37505">
        <ele>1280.5</ele>
        <time>2019-01-18T07:10:44Z</time>
      </trkpt>
      <trkpt lat="42.13189" lon="2.37498">
        <ele>1280.8</ele>
        <time>2019-01-18T07:10:49Z</time>
      </trkpt>
      <trkpt lat="42.13185" lon="2.37495">
        <ele>1281</ele>
        <time>2019-01-18T07:10:53Z</time>
      </trkpt>
      <trkpt lat="42.1318" lon="2.3749">
        <ele>1281.5</ele>
        <time>2019-01-18T07:10:58Z</time>
      </trkpt>
      <trkpt lat="42.13176" lon="2.37486">
        <ele>1281.6</ele>
        <time>2019-01-18T07:11:02Z</time>
      </trkpt>
      <trkpt lat="42.13171" lon="2.37483">
        <ele>1281.8</ele>
        <time>2019-01-18T07:11:06Z</time>
      </trkpt>
      <trkpt lat="42.13166" lon="2.37479">
        <ele>1282.2</ele>
        <time>2019-01-18T07:11:10Z</time>
      </trkpt>
      <trkpt lat="42.13162" lon="2.37477">
        <ele>1282.5</ele>
        <time>2019-01-18T07:11:14Z</time>
      </trkpt>
      <trkpt lat="42.13157" lon="2.37477">
        <ele>1282.7</ele>
        <time>2019-01-18T07:11:18Z</time>
      </trkpt>
      <trkpt lat="42.13152" lon="2.37477">
        <ele>1282.8</ele>
        <time>2019-01-18T07:11:23Z</time>
      </trkpt>
      <trkpt lat="42.13146" lon="2.37477">
        <ele>1283.2</ele>
        <time>2019-01-18T07:11:27Z</time>
      </trkpt>
      <trkpt lat="42.1314" lon="2.37476">
        <ele>1283.6</ele>
        <time>2019-01-18T07:11:32Z</time>
      </trkpt>
      <trkpt lat="42.13134" lon="2.37475">
        <ele>1284.1</ele>
        <time>2019-01-18T07:11:37Z</time>
      </trkpt>
      <trkpt lat="42.13129" lon="2.37476">
        <ele>1284.9</ele>
        <time>2019-01-18T07:11:41Z</time>
      </trkpt>
      <trkpt lat="42.13124" lon="2.37475">
        <ele>1285.1</ele>
        <time>2019-01-18T07:11:45Z</time>
      </trkpt>
      <trkpt lat="42.13119" lon="2.37473">
        <ele>1284.9</ele>
        <time>2019-01-18T07:11:49Z</time>
      </trkpt>
      <trkpt lat="42.13114" lon="2.3747">
        <ele>1285</ele>
        <time>2019-01-18T07:11:53Z</time>
      </trkpt>
      <trkpt lat="42.13108" lon="2.37468">
        <ele>1284.9</ele>
        <time>2019-01-18T07:11:59Z</time>
      </trkpt>
      <trkpt lat="42.13103" lon="2.37467">
        <ele>1284.8</ele>
        <time>2019-01-18T07:12:03Z</time>
      </trkpt>
      <trkpt lat="42.13096" lon="2.37466">
        <ele>1284.9</ele>
        <time>2019-01-18T07:12:08Z</time>
      </trkpt>
      <trkpt lat="42.13091" lon="2.37465">
        <ele>1285.1</ele>
        <time>2019-01-18T07:12:12Z</time>
      </trkpt>
      <trkpt lat="42.13086" lon="2.37462">
        <ele>1285.4</ele>
        <time>2019-01-18T07:12:17Z</time>
      </trkpt>
      <trkpt lat="42.13082" lon="2.37458">
        <ele>1285.2</ele>
        <time>2019-01-18T07:12:20Z</time>
      </trkpt>
      <trkpt lat="42.13085" lon="2.37452">
        <ele>1285.2</ele>
        <time>2019-01-18T07:12:25Z</time>
      </trkpt>
      <trkpt lat="42.13087" lon="2.37446">
        <ele>1284.9</ele>
        <time>2019-01-18T07:12:29Z</time>
      </trkpt>
      <trkpt lat="42.1309" lon="2.37439">
        <ele>1284.5</ele>
        <time>2019-01-18T07:12:33Z</time>
      </trkpt>
      <trkpt lat="42.13095" lon="2.37432">
        <ele>1283.5</ele>
        <time>2019-01-18T07:12:39Z</time>
      </trkpt>
      <trkpt lat="42.13098" lon="2.37427">
        <ele>1282.6</ele>
        <time>2019-01-18T07:12:43Z</time>
      </trkpt>
      <trkpt lat="42.13101" lon="2.37423">
        <ele>1281.8</ele>
        <time>2019-01-18T07:12:47Z</time>
      </trkpt>
      <trkpt lat="42.13104" lon="2.37417">
        <ele>1281.2</ele>
        <time>2019-01-18T07:12:51Z</time>
      </trkpt>
      <trkpt lat="42.13108" lon="2.37414">
        <ele>1280.4</ele>
        <time>2019-01-18T07:12:55Z</time>
      </trkpt>
      <trkpt lat="42.13113" lon="2.37411">
        <ele>1279.9</ele>
        <time>2019-01-18T07:12:59Z</time>
      </trkpt>
      <trkpt lat="42.13117" lon="2.37407">
        <ele>1279.6</ele>
        <time>2019-01-18T07:13:03Z</time>
      </trkpt>
      <trkpt lat="42.13119" lon="2.374">
        <ele>1279.2</ele>
        <time>2019-01-18T07:13:07Z</time>
      </trkpt>
      <trkpt lat="42.1312" lon="2.37393">
        <ele>1278.8</ele>
        <time>2019-01-18T07:13:12Z</time>
      </trkpt>
      <trkpt lat="42.1312" lon="2.37386">
        <ele>1278.9</ele>
        <time>2019-01-18T07:13:16Z</time>
      </trkpt>
      <trkpt lat="42.13121" lon="2.37379">
        <ele>1278.8</ele>
        <time>2019-01-18T07:13:20Z</time>
      </trkpt>
      <trkpt lat="42.13122" lon="2.37371">
        <ele>1278.5</ele>
        <time>2019-01-18T07:13:25Z</time>
      </trkpt>
      <trkpt lat="42.13124" lon="2.37365">
        <ele>1278.3</ele>
        <time>2019-01-18T07:13:28Z</time>
      </trkpt>
      <trkpt lat="42.13126" lon="2.37358">
        <ele>1277.9</ele>
        <time>2019-01-18T07:13:33Z</time>
      </trkpt>
      <trkpt lat="42.13127" lon="2.3735">
        <ele>1277.5</ele>
        <time>2019-01-18T07:13:38Z</time>
      </trkpt>
      <trkpt lat="42.13125" lon="2.37344">
        <ele>1276.8</ele>
        <time>2019-01-18T07:13:42Z</time>
      </trkpt>
      <trkpt lat="42.13122" lon="2.37337">
        <ele>1276</ele>
        <time>2019-01-18T07:13:46Z</time>
      </trkpt>
      <trkpt lat="42.1312" lon="2.37331">
        <ele>1275.4</ele>
        <time>2019-01-18T07:13:50Z</time>
      </trkpt>
      <trkpt lat="42.13116" lon="2.37325">
        <ele>1274.9</ele>
        <time>2019-01-18T07:13:55Z</time>
      </trkpt>
      <trkpt lat="42.13114" lon="2.37319">
        <ele>1274.4</ele>
        <time>2019-01-18T07:13:59Z</time>
      </trkpt>
      <trkpt lat="42.1311" lon="2.37314">
        <ele>1274</ele>
        <time>2019-01-18T07:14:03Z</time>
      </trkpt>
      <trkpt lat="42.13107" lon="2.37307">
        <ele>1273.1</ele>
        <time>2019-01-18T07:14:08Z</time>
      </trkpt>
      <trkpt lat="42.13104" lon="2.37302">
        <ele>1272.8</ele>
        <time>2019-01-18T07:14:12Z</time>
      </trkpt>
      <trkpt lat="42.13101" lon="2.37295">
        <ele>1272.6</ele>
        <time>2019-01-18T07:14:16Z</time>
      </trkpt>
      <trkpt lat="42.13097" lon="2.37292">
        <ele>1272</ele>
        <time>2019-01-18T07:14:20Z</time>
      </trkpt>
      <trkpt lat="42.13093" lon="2.37287">
        <ele>1271.2</ele>
        <time>2019-01-18T07:14:24Z</time>
      </trkpt>
      <trkpt lat="42.13092" lon="2.37279">
        <ele>1271</ele>
        <time>2019-01-18T07:14:29Z</time>
      </trkpt>
      <trkpt lat="42.13092" lon="2.37272">
        <ele>1270.5</ele>
        <time>2019-01-18T07:14:33Z</time>
      </trkpt>
      <trkpt lat="42.1309" lon="2.37265">
        <ele>1269.6</ele>
        <time>2019-01-18T07:14:38Z</time>
      </trkpt>
      <trkpt lat="42.13089" lon="2.37259">
        <ele>1269.2</ele>
        <time>2019-01-18T07:14:42Z</time>
      </trkpt>
      <trkpt lat="42.13086" lon="2.37253">
        <ele>1268.7</ele>
        <time>2019-01-18T07:14:46Z</time>
      </trkpt>
      <trkpt lat="42.13086" lon="2.37246">
        <ele>1268.2</ele>
        <time>2019-01-18T07:14:50Z</time>
      </trkpt>
      <trkpt lat="42.13086" lon="2.37239">
        <ele>1267.6</ele>
        <time>2019-01-18T07:14:54Z</time>
      </trkpt>
      <trkpt lat="42.13085" lon="2.37231">
        <ele>1266.9</ele>
        <time>2019-01-18T07:14:59Z</time>
      </trkpt>
      <trkpt lat="42.13085" lon="2.37223">
        <ele>1266.5</ele>
        <time>2019-01-18T07:15:03Z</time>
      </trkpt>
      <trkpt lat="42.13085" lon="2.37217">
        <ele>1266</ele>
        <time>2019-01-18T07:15:07Z</time>
      </trkpt>
      <trkpt lat="42.13085" lon="2.3721">
        <ele>1265.8</ele>
        <time>2019-01-18T07:15:11Z</time>
      </trkpt>
      <trkpt lat="42.13087" lon="2.37202">
        <ele>1265.5</ele>
        <time>2019-01-18T07:15:16Z</time>
      </trkpt>
      <trkpt lat="42.13091" lon="2.37206">
        <ele>1265.5</ele>
        <time>2019-01-18T07:15:20Z</time>
      </trkpt>
      <trkpt lat="42.13094" lon="2.37211">
        <ele>1266</ele>
        <time>2019-01-18T07:15:24Z</time>
      </trkpt>
      <trkpt lat="42.13099" lon="2.37213">
        <ele>1266.1</ele>
        <time>2019-01-18T07:15:28Z</time>
      </trkpt>
      <trkpt lat="42.13105" lon="2.37212">
        <ele>1266.3</ele>
        <time>2019-01-18T07:15:33Z</time>
      </trkpt>
      <trkpt lat="42.1311" lon="2.37213">
        <ele>1266.8</ele>
        <time>2019-01-18T07:15:37Z</time>
      </trkpt>
      <trkpt lat="42.13114" lon="2.37212">
        <ele>1267.2</ele>
        <time>2019-01-18T07:15:41Z</time>
      </trkpt>
      <trkpt lat="42.13121" lon="2.37212">
        <ele>1267.3</ele>
        <time>2019-01-18T07:15:46Z</time>
      </trkpt>
      <trkpt lat="42.13126" lon="2.37212">
        <ele>1267.5</ele>
        <time>2019-01-18T07:15:50Z</time>
      </trkpt>
      <trkpt lat="42.13131" lon="2.37215">
        <ele>1267.7</ele>
        <time>2019-01-18T07:15:54Z</time>
      </trkpt>
      <trkpt lat="42.13136" lon="2.37219">
        <ele>1267.6</ele>
        <time>2019-01-18T07:15:59Z</time>
      </trkpt>
      <trkpt lat="42.13142" lon="2.37218">
        <ele>1267.6</ele>
        <time>2019-01-18T07:16:04Z</time>
      </trkpt>
      <trkpt lat="42.13148" lon="2.37216">
        <ele>1267.4</ele>
        <time>2019-01-18T07:16:08Z</time>
      </trkpt>
      <trkpt lat="42.13152" lon="2.37218">
        <ele>1267.6</ele>
        <time>2019-01-18T07:16:12Z</time>
      </trkpt>
      <trkpt lat="42.13157" lon="2.3722">
        <ele>1267.7</ele>
        <time>2019-01-18T07:16:16Z</time>
      </trkpt>
      <trkpt lat="42.13162" lon="2.37221">
        <ele>1267.6</ele>
        <time>2019-01-18T07:16:20Z</time>
      </trkpt>
      <trkpt lat="42.13166" lon="2.37219">
        <ele>1267.7</ele>
        <time>2019-01-18T07:16:24Z</time>
      </trkpt>
      <trkpt lat="42.1317" lon="2.37221">
        <ele>1268.2</ele>
        <time>2019-01-18T07:16:27Z</time>
      </trkpt>
      <trkpt lat="42.13176" lon="2.3722">
        <ele>1268.6</ele>
        <time>2019-01-18T07:16:31Z</time>
      </trkpt>
      <trkpt lat="42.13181" lon="2.37219">
        <ele>1268.8</ele>
        <time>2019-01-18T07:16:36Z</time>
      </trkpt>
      <trkpt lat="42.13187" lon="2.37219">
        <ele>1268.6</ele>
        <time>2019-01-18T07:16:41Z</time>
      </trkpt>
      <trkpt lat="42.13192" lon="2.37219">
        <ele>1268.4</ele>
        <time>2019-01-18T07:16:45Z</time>
      </trkpt>
      <trkpt lat="42.13197" lon="2.37217">
        <ele>1268.3</ele>
        <time>2019-01-18T07:16:49Z</time>
      </trkpt>
      <trkpt lat="42.13202" lon="2.37214">
        <ele>1268.2</ele>
        <time>2019-01-18T07:16:53Z</time>
      </trkpt>
      <trkpt lat="42.13208" lon="2.37214">
        <ele>1268.2</ele>
        <time>2019-01-18T07:16:58Z</time>
      </trkpt>
      <trkpt lat="42.13213" lon="2.37214">
        <ele>1268.5</ele>
        <time>2019-01-18T07:17:02Z</time>
      </trkpt>
      <trkpt lat="42.13219" lon="2.37214">
        <ele>1268.6</ele>
        <time>2019-01-18T07:17:07Z</time>
      </trkpt>
      <trkpt lat="42.13223" lon="2.37213">
        <ele>1268.9</ele>
        <time>2019-01-18T07:17:10Z</time>
      </trkpt>
      <trkpt lat="42.13228" lon="2.37214">
        <ele>1269.4</ele>
        <time>2019-01-18T07:17:14Z</time>
      </trkpt>
      <trkpt lat="42.13234" lon="2.37218">
        <ele>1270.2</ele>
        <time>2019-01-18T07:17:19Z</time>
      </trkpt>
      <trkpt lat="42.13239" lon="2.3722">
        <ele>1270.7</ele>
        <time>2019-01-18T07:17:24Z</time>
      </trkpt>
      <trkpt lat="42.13245" lon="2.37223">
        <ele>1271.6</ele>
        <time>2019-01-18T07:17:29Z</time>
      </trkpt>
      <trkpt lat="42.1325" lon="2.37226">
        <ele>1272</ele>
        <time>2019-01-18T07:17:33Z</time>
      </trkpt>
      <trkpt lat="42.13253" lon="2.3723">
        <ele>1272.2</ele>
        <time>2019-01-18T07:17:37Z</time>
      </trkpt>
      <trkpt lat="42.13258" lon="2.37233">
        <ele>1271.9</ele>
        <time>2019-01-18T07:17:41Z</time>
      </trkpt>
      <trkpt lat="42.13264" lon="2.37233">
        <ele>1271.9</ele>
        <time>2019-01-18T07:17:45Z</time>
      </trkpt>
      <trkpt lat="42.13269" lon="2.37233">
        <ele>1271.9</ele>
        <time>2019-01-18T07:17:50Z</time>
      </trkpt>
      <trkpt lat="42.13274" lon="2.37233">
        <ele>1271.9</ele>
        <time>2019-01-18T07:17:54Z</time>
      </trkpt>
      <trkpt lat="42.13279" lon="2.37232">
        <ele>1272.1</ele>
        <time>2019-01-18T07:17:57Z</time>
      </trkpt>
      <trkpt lat="42.13285" lon="2.3723">
        <ele>1272.2</ele>
        <time>2019-01-18T07:18:02Z</time>
      </trkpt>
      <trkpt lat="42.1329" lon="2.37228">
        <ele>1272.7</ele>
        <time>2019-01-18T07:18:07Z</time>
      </trkpt>
      <trkpt lat="42.13296" lon="2.37227">
        <ele>1273.1</ele>
        <time>2019-01-18T07:18:11Z</time>
      </trkpt>
      <trkpt lat="42.13301" lon="2.37224">
        <ele>1273.4</ele>
        <time>2019-01-18T07:18:16Z</time>
      </trkpt>
      <trkpt lat="42.13307" lon="2.37222">
        <ele>1273.6</ele>
        <time>2019-01-18T07:18:20Z</time>
      </trkpt>
      <trkpt lat="42.13311" lon="2.37217">
        <ele>1273.5</ele>
        <time>2019-01-18T07:18:25Z</time>
      </trkpt>
      <trkpt lat="42.13316" lon="2.37215">
        <ele>1273.1</ele>
        <time>2019-01-18T07:18:29Z</time>
      </trkpt>
      <trkpt lat="42.1332" lon="2.37214">
        <ele>1273</ele>
        <time>2019-01-18T07:18:32Z</time>
      </trkpt>
      <trkpt lat="42.13325" lon="2.37213">
        <ele>1272.9</ele>
        <time>2019-01-18T07:18:36Z</time>
      </trkpt>
      <trkpt lat="42.1333" lon="2.37208">
        <ele>1273</ele>
        <time>2019-01-18T07:18:41Z</time>
      </trkpt>
      <trkpt lat="42.13334" lon="2.37202">
        <ele>1272.9</ele>
        <time>2019-01-18T07:18:46Z</time>
      </trkpt>
      <trkpt lat="42.13339" lon="2.37199">
        <ele>1272.6</ele>
        <time>2019-01-18T07:18:51Z</time>
      </trkpt>
      <trkpt lat="42.13343" lon="2.37196">
        <ele>1272.3</ele>
        <time>2019-01-18T07:18:54Z</time>
      </trkpt>
      <trkpt lat="42.13348" lon="2.37194">
        <ele>1272.2</ele>
        <time>2019-01-18T07:18:58Z</time>
      </trkpt>
      <trkpt lat="42.13353" lon="2.37192">
        <ele>1272.3</ele>
        <time>2019-01-18T07:19:03Z</time>
      </trkpt>
      <trkpt lat="42.13358" lon="2.3719">
        <ele>1272.3</ele>
        <time>2019-01-18T07:19:07Z</time>
      </trkpt>
      <trkpt lat="42.13362" lon="2.37186">
        <ele>1272</ele>
        <time>2019-01-18T07:19:11Z</time>
      </trkpt>
      <trkpt lat="42.13363" lon="2.37179">
        <ele>1271.7</ele>
        <time>2019-01-18T07:19:14Z</time>
      </trkpt>
      <trkpt lat="42.13365" lon="2.37174">
        <ele>1271.4</ele>
        <time>2019-01-18T07:19:18Z</time>
      </trkpt>
      <trkpt lat="42.13363" lon="2.37168">
        <ele>1271.1</ele>
        <time>2019-01-18T07:19:22Z</time>
      </trkpt>
      <trkpt lat="42.13361" lon="2.37162">
        <ele>1271.2</ele>
        <time>2019-01-18T07:19:26Z</time>
      </trkpt>
      <trkpt lat="42.13358" lon="2.37157">
        <ele>1271</ele>
        <time>2019-01-18T07:19:30Z</time>
      </trkpt>
      <trkpt lat="42.13354" lon="2.37153">
        <ele>1270.8</ele>
        <time>2019-01-18T07:19:34Z</time>
      </trkpt>
      <trkpt lat="42.13349" lon="2.37149">
        <ele>1270.4</ele>
        <time>2019-01-18T07:19:38Z</time>
      </trkpt>
      <trkpt lat="42.13346" lon="2.37146">
        <ele>1270.1</ele>
        <time>2019-01-18T07:19:42Z</time>
      </trkpt>
      <trkpt lat="42.1334" lon="2.37143">
        <ele>1269.7</ele>
        <time>2019-01-18T07:19:46Z</time>
      </trkpt>
      <trkpt lat="42.13334" lon="2.37138">
        <ele>1269.3</ele>
        <time>2019-01-18T07:19:52Z</time>
      </trkpt>
      <trkpt lat="42.1333" lon="2.37134">
        <ele>1268.9</ele>
        <time>2019-01-18T07:19:56Z</time>
      </trkpt>
      <trkpt lat="42.13326" lon="2.3713">
        <ele>1268.3</ele>
        <time>2019-01-18T07:20:00Z</time>
      </trkpt>
      <trkpt lat="42.13321" lon="2.37128">
        <ele>1267.8</ele>
        <time>2019-01-18T07:20:04Z</time>
      </trkpt>
      <trkpt lat="42.13316" lon="2.37124">
        <ele>1267.4</ele>
        <time>2019-01-18T07:20:09Z</time>
      </trkpt>
      <trkpt lat="42.13312" lon="2.3712">
        <ele>1267.1</ele>
        <time>2019-01-18T07:20:13Z</time>
      </trkpt>
      <trkpt lat="42.13308" lon="2.37116">
        <ele>1266.8</ele>
        <time>2019-01-18T07:20:17Z</time>
      </trkpt>
      <trkpt lat="42.13303" lon="2.37113">
        <ele>1266.5</ele>
        <time>2019-01-18T07:20:21Z</time>
      </trkpt>
      <trkpt lat="42.13297" lon="2.37113">
        <ele>1266.1</ele>
        <time>2019-01-18T07:20:26Z</time>
      </trkpt>
      <trkpt lat="42.13291" lon="2.37113">
        <ele>1265.3</ele>
        <time>2019-01-18T07:20:31Z</time>
      </trkpt>
      <trkpt lat="42.13287" lon="2.37108">
        <ele>1264.6</ele>
        <time>2019-01-18T07:20:35Z</time>
      </trkpt>
      <trkpt lat="42.13283" lon="2.37104">
        <ele>1264</ele>
        <time>2019-01-18T07:20:39Z</time>
      </trkpt>
      <trkpt lat="42.13279" lon="2.371">
        <ele>1263.7</ele>
        <time>2019-01-18T07:20:43Z</time>
      </trkpt>
      <trkpt lat="42.13275" lon="2.37094">
        <ele>1263.3</ele>
        <time>2019-01-18T07:20:48Z</time>
      </trkpt>
      <trkpt lat="42.1327" lon="2.37088">
        <ele>1262.9</ele>
        <time>2019-01-18T07:20:53Z</time>
      </trkpt>
      <trkpt lat="42.13265" lon="2.37089">
        <ele>1262.7</ele>
        <time>2019-01-18T07:20:57Z</time>
      </trkpt>
      <trkpt lat="42.1326" lon="2.37087">
        <ele>1262.7</ele>
        <time>2019-01-18T07:21:02Z</time>
      </trkpt>
      <trkpt lat="42.13254" lon="2.37086">
        <ele>1262.5</ele>
        <time>2019-01-18T07:21:06Z</time>
      </trkpt>
      <trkpt lat="42.13251" lon="2.37082">
        <ele>1262.4</ele>
        <time>2019-01-18T07:21:10Z</time>
      </trkpt>
      <trkpt lat="42.13246" lon="2.37078">
        <ele>1262.1</ele>
        <time>2019-01-18T07:21:14Z</time>
      </trkpt>
      <trkpt lat="42.13242" lon="2.37076">
        <ele>1261.7</ele>
        <time>2019-01-18T07:21:18Z</time>
      </trkpt>
      <trkpt lat="42.13238" lon="2.37073">
        <ele>1261.3</ele>
        <time>2019-01-18T07:21:22Z</time>
      </trkpt>
      <trkpt lat="42.13233" lon="2.37069">
        <ele>1260.4</ele>
        <time>2019-01-18T07:21:26Z</time>
      </trkpt>
      <trkpt lat="42.13228" lon="2.37067">
        <ele>1259.4</ele>
        <time>2019-01-18T07:21:30Z</time>
      </trkpt>
      <trkpt lat="42.13223" lon="2.37065">
        <ele>1258.3</ele>
        <time>2019-01-18T07:21:35Z</time>
      </trkpt>
      <trkpt lat="42.13218" lon="2.37063">
        <ele>1257.3</ele>
        <time>2019-01-18T07:21:39Z</time>
      </trkpt>
      <trkpt lat="42.13213" lon="2.3706">
        <ele>1256.7</ele>
        <time>2019-01-18T07:21:43Z</time>
      </trkpt>
      <trkpt lat="42.13208" lon="2.37057">
        <ele>1256.7</ele>
        <time>2019-01-18T07:21:47Z</time>
      </trkpt>
      <trkpt lat="42.13205" lon="2.37052">
        <ele>1256.2</ele>
        <time>2019-01-18T07:21:51Z</time>
      </trkpt>
      <trkpt lat="42.13204" lon="2.37046">
        <ele>1255.7</ele>
        <time>2019-01-18T07:21:55Z</time>
      </trkpt>
      <trkpt lat="42.13201" lon="2.3704">
        <ele>1254.5</ele>
        <time>2019-01-18T07:21:59Z</time>
      </trkpt>
      <trkpt lat="42.13202" lon="2.37032">
        <ele>1254.4</ele>
        <time>2019-01-18T07:22:03Z</time>
      </trkpt>
      <trkpt lat="42.13204" lon="2.37027">
        <ele>1254.6</ele>
        <time>2019-01-18T07:22:07Z</time>
      </trkpt>
      <trkpt lat="42.13204" lon="2.3702">
        <ele>1254.6</ele>
        <time>2019-01-18T07:22:11Z</time>
      </trkpt>
      <trkpt lat="42.13207" lon="2.37015">
        <ele>1254.4</ele>
        <time>2019-01-18T07:22:15Z</time>
      </trkpt>
      <trkpt lat="42.13211" lon="2.37009">
        <ele>1254.2</ele>
        <time>2019-01-18T07:22:19Z</time>
      </trkpt>
      <trkpt lat="42.13216" lon="2.37009">
        <ele>1254.1</ele>
        <time>2019-01-18T07:22:23Z</time>
      </trkpt>
      <trkpt lat="42.13221" lon="2.37005">
        <ele>1253.7</ele>
        <time>2019-01-18T07:22:28Z</time>
      </trkpt>
      <trkpt lat="42.13226" lon="2.37004">
        <ele>1252.3</ele>
        <time>2019-01-18T07:22:32Z</time>
      </trkpt>
      <trkpt lat="42.1323" lon="2.36999">
        <ele>1251.8</ele>
        <time>2019-01-18T07:22:36Z</time>
      </trkpt>
      <trkpt lat="42.13235" lon="2.37002">
        <ele>1250.5</ele>
        <time>2019-01-18T07:22:41Z</time>
      </trkpt>
      <trkpt lat="42.13239" lon="2.37001">
        <ele>1250.3</ele>
        <time>2019-01-18T07:22:44Z</time>
      </trkpt>
      <trkpt lat="42.13243" lon="2.36998">
        <ele>1250.3</ele>
        <time>2019-01-18T07:22:48Z</time>
      </trkpt>
      <trkpt lat="42.13249" lon="2.36998">
        <ele>1248</ele>
        <time>2019-01-18T07:22:53Z</time>
      </trkpt>
      <trkpt lat="42.13253" lon="2.36997">
        <ele>1246.3</ele>
        <time>2019-01-18T07:22:56Z</time>
      </trkpt>
      <trkpt lat="42.13258" lon="2.36995">
        <ele>1245.4</ele>
        <time>2019-01-18T07:23:00Z</time>
      </trkpt>
      <trkpt lat="42.13263" lon="2.36995">
        <ele>1244.3</ele>
        <time>2019-01-18T07:23:04Z</time>
      </trkpt>
      <trkpt lat="42.13266" lon="2.36992">
        <ele>1243.9</ele>
        <time>2019-01-18T07:23:07Z</time>
      </trkpt>
      <trkpt lat="42.13271" lon="2.36994">
        <ele>1242.4</ele>
        <time>2019-01-18T07:23:12Z</time>
      </trkpt>
      <trkpt lat="42.13277" lon="2.36995">
        <ele>1240.8</ele>
        <time>2019-01-18T07:23:16Z</time>
      </trkpt>
      <trkpt lat="42.13282" lon="2.36993">
        <ele>1240.3</ele>
        <time>2019-01-18T07:23:20Z</time>
      </trkpt>
      <trkpt lat="42.13285" lon="2.36988">
        <ele>1239.8</ele>
        <time>2019-01-18T07:23:24Z</time>
      </trkpt>
      <trkpt lat="42.13288" lon="2.36984">
        <ele>1238.8</ele>
        <time>2019-01-18T07:23:28Z</time>
      </trkpt>
      <trkpt lat="42.13294" lon="2.36982">
        <ele>1237.7</ele>
        <time>2019-01-18T07:23:33Z</time>
      </trkpt>
      <trkpt lat="42.133" lon="2.36979">
        <ele>1236.3</ele>
        <time>2019-01-18T07:23:38Z</time>
      </trkpt>
      <trkpt lat="42.13306" lon="2.36977">
        <ele>1235.9</ele>
        <time>2019-01-18T07:23:42Z</time>
      </trkpt>
      <trkpt lat="42.1331" lon="2.36973">
        <ele>1235.7</ele>
        <time>2019-01-18T07:23:47Z</time>
      </trkpt>
      <trkpt lat="42.13314" lon="2.3697">
        <ele>1235.2</ele>
        <time>2019-01-18T07:23:50Z</time>
      </trkpt>
      <trkpt lat="42.13319" lon="2.3697">
        <ele>1234</ele>
        <time>2019-01-18T07:23:54Z</time>
      </trkpt>
      <trkpt lat="42.13325" lon="2.36971">
        <ele>1233.1</ele>
        <time>2019-01-18T07:23:59Z</time>
      </trkpt>
      <trkpt lat="42.13329" lon="2.36973">
        <ele>1232.3</ele>
        <time>2019-01-18T07:24:03Z</time>
      </trkpt>
      <trkpt lat="42.13335" lon="2.36974">
        <ele>1231.5</ele>
        <time>2019-01-18T07:24:07Z</time>
      </trkpt>
      <trkpt lat="42.1334" lon="2.36973">
        <ele>1230.8</ele>
        <time>2019-01-18T07:24:11Z</time>
      </trkpt>
      <trkpt lat="42.13345" lon="2.36972">
        <ele>1230.1</ele>
        <time>2019-01-18T07:24:15Z</time>
      </trkpt>
      <trkpt lat="42.13349" lon="2.36971">
        <ele>1230</ele>
        <time>2019-01-18T07:24:19Z</time>
      </trkpt>
      <trkpt lat="42.13355" lon="2.36968">
        <ele>1229.4</ele>
        <time>2019-01-18T07:24:23Z</time>
      </trkpt>
      <trkpt lat="42.1336" lon="2.36966">
        <ele>1228.8</ele>
        <time>2019-01-18T07:24:28Z</time>
      </trkpt>
      <trkpt lat="42.13365" lon="2.36965">
        <ele>1228</ele>
        <time>2019-01-18T07:24:32Z</time>
      </trkpt>
      <trkpt lat="42.1337" lon="2.36965">
        <ele>1227.1</ele>
        <time>2019-01-18T07:24:36Z</time>
      </trkpt>
      <trkpt lat="42.13374" lon="2.36967">
        <ele>1226.6</ele>
        <time>2019-01-18T07:24:40Z</time>
      </trkpt>
      <trkpt lat="42.13379" lon="2.36967">
        <ele>1225.6</ele>
        <time>2019-01-18T07:24:44Z</time>
      </trkpt>
      <trkpt lat="42.13385" lon="2.36966">
        <ele>1224.9</ele>
        <time>2019-01-18T07:24:48Z</time>
      </trkpt>
      <trkpt lat="42.1339" lon="2.36968">
        <ele>1224</ele>
        <time>2019-01-18T07:24:53Z</time>
      </trkpt>
      <trkpt lat="42.13395" lon="2.36968">
        <ele>1223.1</ele>
        <time>2019-01-18T07:24:56Z</time>
      </trkpt>
      <trkpt lat="42.13401" lon="2.36966">
        <ele>1222.9</ele>
        <time>2019-01-18T07:25:01Z</time>
      </trkpt>
      <trkpt lat="42.13405" lon="2.36963">
        <ele>1222.7</ele>
        <time>2019-01-18T07:25:05Z</time>
      </trkpt>
      <trkpt lat="42.1341" lon="2.36965">
        <ele>1221.6</ele>
        <time>2019-01-18T07:25:09Z</time>
      </trkpt>
      <trkpt lat="42.13415" lon="2.36964">
        <ele>1221.5</ele>
        <time>2019-01-18T07:25:13Z</time>
      </trkpt>
      <trkpt lat="42.13421" lon="2.36963">
        <ele>1221.1</ele>
        <time>2019-01-18T07:25:18Z</time>
      </trkpt>
      <trkpt lat="42.13427" lon="2.36962">
        <ele>1220.6</ele>
        <time>2019-01-18T07:25:23Z</time>
      </trkpt>
      <trkpt lat="42.13432" lon="2.36961">
        <ele>1219.7</ele>
        <time>2019-01-18T07:25:27Z</time>
      </trkpt>
      <trkpt lat="42.13437" lon="2.36959">
        <ele>1218.6</ele>
        <time>2019-01-18T07:25:31Z</time>
      </trkpt>
      <trkpt lat="42.13441" lon="2.36956">
        <ele>1217.3</ele>
        <time>2019-01-18T07:25:35Z</time>
      </trkpt>
      <trkpt lat="42.13444" lon="2.3695">
        <ele>1216.8</ele>
        <time>2019-01-18T07:25:39Z</time>
      </trkpt>
      <trkpt lat="42.13449" lon="2.36947">
        <ele>1216.4</ele>
        <time>2019-01-18T07:25:43Z</time>
      </trkpt>
      <trkpt lat="42.13453" lon="2.36942">
        <ele>1216.4</ele>
        <time>2019-01-18T07:25:47Z</time>
      </trkpt>
      <trkpt lat="42.13456" lon="2.36935">
        <ele>1216.9</ele>
        <time>2019-01-18T07:25:52Z</time>
      </trkpt>
      <trkpt lat="42.13457" lon="2.36929">
        <ele>1217.3</ele>
        <time>2019-01-18T07:25:56Z</time>
      </trkpt>
      <trkpt lat="42.13458" lon="2.36923">
        <ele>1217.7</ele>
        <time>2019-01-18T07:26:00Z</time>
      </trkpt>
      <trkpt lat="42.1346" lon="2.36917">
        <ele>1218</ele>
        <time>2019-01-18T07:26:03Z</time>
      </trkpt>
      <trkpt lat="42.13463" lon="2.3691">
        <ele>1218.1</ele>
        <time>2019-01-18T07:26:08Z</time>
      </trkpt>
      <trkpt lat="42.13462" lon="2.36903">
        <ele>1218.7</ele>
        <time>2019-01-18T07:26:13Z</time>
      </trkpt>
      <trkpt lat="42.13461" lon="2.36897">
        <ele>1218.8</ele>
        <time>2019-01-18T07:26:16Z</time>
      </trkpt>
      <trkpt lat="42.1346" lon="2.36889">
        <ele>1219</ele>
        <time>2019-01-18T07:26:21Z</time>
      </trkpt>
      <trkpt lat="42.1346" lon="2.36883">
        <ele>1218.9</ele>
        <time>2019-01-18T07:26:25Z</time>
      </trkpt>
      <trkpt lat="42.13458" lon="2.36876">
        <ele>1219.1</ele>
        <time>2019-01-18T07:26:29Z</time>
      </trkpt>
      <trkpt lat="42.13456" lon="2.3687">
        <ele>1219.2</ele>
        <time>2019-01-18T07:26:33Z</time>
      </trkpt>
      <trkpt lat="42.13455" lon="2.36862">
        <ele>1219.8</ele>
        <time>2019-01-18T07:26:37Z</time>
      </trkpt>
      <trkpt lat="42.13453" lon="2.36856">
        <ele>1220.3</ele>
        <time>2019-01-18T07:26:41Z</time>
      </trkpt>
      <trkpt lat="42.13452" lon="2.3685">
        <ele>1220.1</ele>
        <time>2019-01-18T07:26:45Z</time>
      </trkpt>
      <trkpt lat="42.13449" lon="2.36843">
        <ele>1219.3</ele>
        <time>2019-01-18T07:26:50Z</time>
      </trkpt>
      <trkpt lat="42.13448" lon="2.36836">
        <ele>1219.1</ele>
        <time>2019-01-18T07:26:54Z</time>
      </trkpt>
      <trkpt lat="42.13446" lon="2.3683">
        <ele>1218.8</ele>
        <time>2019-01-18T07:26:58Z</time>
      </trkpt>
      <trkpt lat="42.13443" lon="2.36823">
        <ele>1218.6</ele>
        <time>2019-01-18T07:27:03Z</time>
      </trkpt>
      <trkpt lat="42.13441" lon="2.36817">
        <ele>1218.8</ele>
        <time>2019-01-18T07:27:07Z</time>
      </trkpt>
      <trkpt lat="42.13439" lon="2.36811">
        <ele>1219.2</ele>
        <time>2019-01-18T07:27:11Z</time>
      </trkpt>
      <trkpt lat="42.13437" lon="2.36804">
        <ele>1219.1</ele>
        <time>2019-01-18T07:27:15Z</time>
      </trkpt>
      <trkpt lat="42.13435" lon="2.36797">
        <ele>1219.2</ele>
        <time>2019-01-18T07:27:20Z</time>
      </trkpt>
      <trkpt lat="42.13433" lon="2.36791">
        <ele>1219.4</ele>
        <time>2019-01-18T07:27:23Z</time>
      </trkpt>
      <trkpt lat="42.13432" lon="2.36785">
        <ele>1219.2</ele>
        <time>2019-01-18T07:27:27Z</time>
      </trkpt>
      <trkpt lat="42.13431" lon="2.36777">
        <ele>1219.4</ele>
        <time>2019-01-18T07:27:32Z</time>
      </trkpt>
      <trkpt lat="42.13436" lon="2.36754">
        <ele>1221.4</ele>
        <time>2019-01-18T08:51:18Z</time>
      </trkpt>
      <trkpt lat="42.13434" lon="2.3676">
        <ele>1221.2</ele>
        <time>2019-01-18T08:51:21Z</time>
      </trkpt>
      <trkpt lat="42.13435" lon="2.36767">
        <ele>1221.6</ele>
        <time>2019-01-18T08:51:25Z</time>
      </trkpt>
      <trkpt lat="42.13436" lon="2.36773">
        <ele>1221.7</ele>
        <time>2019-01-18T08:51:29Z</time>
      </trkpt>
      <trkpt lat="42.13434" lon="2.3678">
        <ele>1222.4</ele>
        <time>2019-01-18T08:51:34Z</time>
      </trkpt>
      <trkpt lat="42.13431" lon="2.36787">
        <ele>1222.8</ele>
        <time>2019-01-18T08:51:38Z</time>
      </trkpt>
      <trkpt lat="42.13429" lon="2.36794">
        <ele>1223.2</ele>
        <time>2019-01-18T08:51:42Z</time>
      </trkpt>
      <trkpt lat="42.13428" lon="2.368">
        <ele>1223.2</ele>
        <time>2019-01-18T08:51:46Z</time>
      </trkpt>
      <trkpt lat="42.13428" lon="2.36808">
        <ele>1223.5</ele>
        <time>2019-01-18T08:51:51Z</time>
      </trkpt>
      <trkpt lat="42.13427" lon="2.36815">
        <ele>1224.2</ele>
        <time>2019-01-18T08:51:55Z</time>
      </trkpt>
      <trkpt lat="42.13425" lon="2.36822">
        <ele>1225.4</ele>
        <time>2019-01-18T08:52:00Z</time>
      </trkpt>
      <trkpt lat="42.13421" lon="2.36828">
        <ele>1226.5</ele>
        <time>2019-01-18T08:52:04Z</time>
      </trkpt>
      <trkpt lat="42.13418" lon="2.36835">
        <ele>1228.7</ele>
        <time>2019-01-18T08:52:09Z</time>
      </trkpt>
      <trkpt lat="42.13414" lon="2.36838">
        <ele>1233.6</ele>
        <time>2019-01-18T08:52:13Z</time>
      </trkpt>
      <trkpt lat="42.13408" lon="2.3684">
        <ele>1235.4</ele>
        <time>2019-01-18T08:52:18Z</time>
      </trkpt>
      <trkpt lat="42.13404" lon="2.36842">
        <ele>1236.4</ele>
        <time>2019-01-18T08:52:22Z</time>
      </trkpt>
      <trkpt lat="42.13402" lon="2.36848">
        <ele>1237.1</ele>
        <time>2019-01-18T08:52:25Z</time>
      </trkpt>
      <trkpt lat="42.13397" lon="2.36851">
        <ele>1237.4</ele>
        <time>2019-01-18T08:52:29Z</time>
      </trkpt>
      <trkpt lat="42.13393" lon="2.36853">
        <ele>1237.3</ele>
        <time>2019-01-18T08:52:33Z</time>
      </trkpt>
      <trkpt lat="42.13386" lon="2.36854">
        <ele>1237.1</ele>
        <time>2019-01-18T08:52:38Z</time>
      </trkpt>
      <trkpt lat="42.1338" lon="2.36855">
        <ele>1236.8</ele>
        <time>2019-01-18T08:52:43Z</time>
      </trkpt>
      <trkpt lat="42.13376" lon="2.36857">
        <ele>1237</ele>
        <time>2019-01-18T08:52:47Z</time>
      </trkpt>
      <trkpt lat="42.13371" lon="2.36853">
        <ele>1238.4</ele>
        <time>2019-01-18T08:52:51Z</time>
      </trkpt>
      <trkpt lat="42.13367" lon="2.3685">
        <ele>1239</ele>
        <time>2019-01-18T08:52:55Z</time>
      </trkpt>
      <trkpt lat="42.13363" lon="2.36847">
        <ele>1240.1</ele>
        <time>2019-01-18T08:52:59Z</time>
      </trkpt>
      <trkpt lat="42.13359" lon="2.36842">
        <ele>1241.5</ele>
        <time>2019-01-18T08:53:03Z</time>
      </trkpt>
      <trkpt lat="42.13357" lon="2.36833">
        <ele>1243.1</ele>
        <time>2019-01-18T08:53:08Z</time>
      </trkpt>
      <trkpt lat="42.13355" lon="2.36826">
        <ele>1244.5</ele>
        <time>2019-01-18T08:53:13Z</time>
      </trkpt>
      <trkpt lat="42.13356" lon="2.36819">
        <ele>1245.9</ele>
        <time>2019-01-18T08:53:17Z</time>
      </trkpt>
      <trkpt lat="42.13356" lon="2.36813">
        <ele>1246.1</ele>
        <time>2019-01-18T08:53:21Z</time>
      </trkpt>
      <trkpt lat="42.13359" lon="2.36808">
        <ele>1246</ele>
        <time>2019-01-18T08:53:25Z</time>
      </trkpt>
      <trkpt lat="42.13361" lon="2.368">
        <ele>1245.7</ele>
        <time>2019-01-18T08:53:30Z</time>
      </trkpt>
      <trkpt lat="42.13357" lon="2.36794">
        <ele>1246.1</ele>
        <time>2019-01-18T08:53:35Z</time>
      </trkpt>
      <trkpt lat="42.13362" lon="2.36799">
        <ele>1246.5</ele>
        <time>2019-01-18T08:53:39Z</time>
      </trkpt>
      <trkpt lat="42.1336" lon="2.36805">
        <ele>1246.6</ele>
        <time>2019-01-18T08:53:43Z</time>
      </trkpt>
      <trkpt lat="42.13355" lon="2.3681">
        <ele>1246.6</ele>
        <time>2019-01-18T08:53:48Z</time>
      </trkpt>
      <trkpt lat="42.1335" lon="2.36814">
        <ele>1246.8</ele>
        <time>2019-01-18T08:53:53Z</time>
      </trkpt>
      <trkpt lat="42.13346" lon="2.36817">
        <ele>1246.8</ele>
        <time>2019-01-18T08:53:56Z</time>
      </trkpt>
      <trkpt lat="42.13343" lon="2.36822">
        <ele>1247</ele>
        <time>2019-01-18T08:54:01Z</time>
      </trkpt>
      <trkpt lat="42.13337" lon="2.36827">
        <ele>1247.1</ele>
        <time>2019-01-18T08:54:06Z</time>
      </trkpt>
      <trkpt lat="42.13335" lon="2.36832">
        <ele>1247.2</ele>
        <time>2019-01-18T08:54:09Z</time>
      </trkpt>
      <trkpt lat="42.13332" lon="2.36838">
        <ele>1247.5</ele>
        <time>2019-01-18T08:54:14Z</time>
      </trkpt>
      <trkpt lat="42.13328" lon="2.36842">
        <ele>1247.6</ele>
        <time>2019-01-18T08:54:17Z</time>
      </trkpt>
      <trkpt lat="42.13326" lon="2.36849">
        <ele>1247.8</ele>
        <time>2019-01-18T08:54:22Z</time>
      </trkpt>
      <trkpt lat="42.13323" lon="2.36854">
        <ele>1247.8</ele>
        <time>2019-01-18T08:54:26Z</time>
      </trkpt>
      <trkpt lat="42.13318" lon="2.36856">
        <ele>1248.1</ele>
        <time>2019-01-18T08:54:30Z</time>
      </trkpt>
      <trkpt lat="42.13314" lon="2.36863">
        <ele>1248.8</ele>
        <time>2019-01-18T08:54:35Z</time>
      </trkpt>
      <trkpt lat="42.13316" lon="2.3687">
        <ele>1249.1</ele>
        <time>2019-01-18T08:54:39Z</time>
      </trkpt>
      <trkpt lat="42.13315" lon="2.36877">
        <ele>1249.4</ele>
        <time>2019-01-18T08:54:43Z</time>
      </trkpt>
      <trkpt lat="42.13312" lon="2.36883">
        <ele>1250.6</ele>
        <time>2019-01-18T08:54:48Z</time>
      </trkpt>
      <trkpt lat="42.13307" lon="2.36885">
        <ele>1252</ele>
        <time>2019-01-18T08:54:52Z</time>
      </trkpt>
      <trkpt lat="42.13301" lon="2.36883">
        <ele>1253</ele>
        <time>2019-01-18T08:54:57Z</time>
      </trkpt>
      <trkpt lat="42.13296" lon="2.3688">
        <ele>1255.1</ele>
        <time>2019-01-18T08:55:01Z</time>
      </trkpt>
      <trkpt lat="42.13291" lon="2.36877">
        <ele>1256</ele>
        <time>2019-01-18T08:55:06Z</time>
      </trkpt>
      <trkpt lat="42.13286" lon="2.36875">
        <ele>1256.8</ele>
        <time>2019-01-18T08:55:10Z</time>
      </trkpt>
      <trkpt lat="42.1328" lon="2.36875">
        <ele>1258.2</ele>
        <time>2019-01-18T08:55:15Z</time>
      </trkpt>
      <trkpt lat="42.13275" lon="2.36878">
        <ele>1259.5</ele>
        <time>2019-01-18T08:55:19Z</time>
      </trkpt>
      <trkpt lat="42.13271" lon="2.36876">
        <ele>1261.9</ele>
        <time>2019-01-18T08:55:23Z</time>
      </trkpt>
      <trkpt lat="42.13266" lon="2.36874">
        <ele>1264</ele>
        <time>2019-01-18T08:55:27Z</time>
      </trkpt>
      <trkpt lat="42.13262" lon="2.36873">
        <ele>1265.5</ele>
        <time>2019-01-18T08:55:30Z</time>
      </trkpt>
      <trkpt lat="42.13257" lon="2.36869">
        <ele>1267.6</ele>
        <time>2019-01-18T08:55:35Z</time>
      </trkpt>
      <trkpt lat="42.13253" lon="2.36866">
        <ele>1270</ele>
        <time>2019-01-18T08:55:38Z</time>
      </trkpt>
      <trkpt lat="42.13248" lon="2.36862">
        <ele>1271.2</ele>
        <time>2019-01-18T08:55:43Z</time>
      </trkpt>
      <trkpt lat="42.13245" lon="2.36858">
        <ele>1271.7</ele>
        <time>2019-01-18T08:55:46Z</time>
      </trkpt>
      <trkpt lat="42.13244" lon="2.36851">
        <ele>1270.7</ele>
        <time>2019-01-18T08:55:50Z</time>
      </trkpt>
      <trkpt lat="42.13249" lon="2.36851">
        <ele>1270.4</ele>
        <time>2019-01-18T08:55:54Z</time>
      </trkpt>
      <trkpt lat="42.1325" lon="2.36857">
        <ele>1270.5</ele>
        <time>2019-01-18T08:55:58Z</time>
      </trkpt>
      <trkpt lat="42.13247" lon="2.36865">
        <ele>1270.5</ele>
        <time>2019-01-18T08:56:03Z</time>
      </trkpt>
      <trkpt lat="42.13243" lon="2.36868">
        <ele>1272.5</ele>
        <time>2019-01-18T08:56:07Z</time>
      </trkpt>
      <trkpt lat="42.13238" lon="2.36869">
        <ele>1274.1</ele>
        <time>2019-01-18T08:56:11Z</time>
      </trkpt>
      <trkpt lat="42.13233" lon="2.36871">
        <ele>1275.3</ele>
        <time>2019-01-18T08:56:15Z</time>
      </trkpt>
      <trkpt lat="42.13228" lon="2.3687">
        <ele>1277.4</ele>
        <time>2019-01-18T08:56:20Z</time>
      </trkpt>
      <trkpt lat="42.13222" lon="2.36872">
        <ele>1279.6</ele>
        <time>2019-01-18T08:56:24Z</time>
      </trkpt>
      <trkpt lat="42.13217" lon="2.3687">
        <ele>1281.6</ele>
        <time>2019-01-18T08:56:28Z</time>
      </trkpt>
      <trkpt lat="42.13213" lon="2.36866">
        <ele>1283.1</ele>
        <time>2019-01-18T08:56:32Z</time>
      </trkpt>
      <trkpt lat="42.13209" lon="2.36862">
        <ele>1283.7</ele>
        <time>2019-01-18T08:56:36Z</time>
      </trkpt>
      <trkpt lat="42.13206" lon="2.36857">
        <ele>1285</ele>
        <time>2019-01-18T08:56:40Z</time>
      </trkpt>
      <trkpt lat="42.13205" lon="2.3685">
        <ele>1286</ele>
        <time>2019-01-18T08:56:45Z</time>
      </trkpt>
      <trkpt lat="42.13208" lon="2.36844">
        <ele>1286</ele>
        <time>2019-01-18T08:56:49Z</time>
      </trkpt>
      <trkpt lat="42.13208" lon="2.3685">
        <ele>1285.8</ele>
        <time>2019-01-18T08:56:53Z</time>
      </trkpt>
      <trkpt lat="42.13207" lon="2.36856">
        <ele>1285.9</ele>
        <time>2019-01-18T08:56:56Z</time>
      </trkpt>
      <trkpt lat="42.13208" lon="2.36862">
        <ele>1286.1</ele>
        <time>2019-01-18T08:57:00Z</time>
      </trkpt>
      <trkpt lat="42.13209" lon="2.3687">
        <ele>1286.2</ele>
        <time>2019-01-18T08:57:05Z</time>
      </trkpt>
      <trkpt lat="42.13207" lon="2.36877">
        <ele>1286.5</ele>
        <time>2019-01-18T08:57:09Z</time>
      </trkpt>
      <trkpt lat="42.13205" lon="2.36883">
        <ele>1286.4</ele>
        <time>2019-01-18T08:57:13Z</time>
      </trkpt>
      <trkpt lat="42.13201" lon="2.36889">
        <ele>1286.4</ele>
        <time>2019-01-18T08:57:18Z</time>
      </trkpt>
      <trkpt lat="42.13197" lon="2.36894">
        <ele>1286.6</ele>
        <time>2019-01-18T08:57:22Z</time>
      </trkpt>
      <trkpt lat="42.13193" lon="2.36899">
        <ele>1286.9</ele>
        <time>2019-01-18T08:57:27Z</time>
      </trkpt>
      <trkpt lat="42.13188" lon="2.36904">
        <ele>1287.1</ele>
        <time>2019-01-18T08:57:32Z</time>
      </trkpt>
      <trkpt lat="42.13182" lon="2.36903">
        <ele>1287.1</ele>
        <time>2019-01-18T08:57:36Z</time>
      </trkpt>
      <trkpt lat="42.13177" lon="2.36907">
        <ele>1287.1</ele>
        <time>2019-01-18T08:57:41Z</time>
      </trkpt>
      <trkpt lat="42.13173" lon="2.36913">
        <ele>1287.3</ele>
        <time>2019-01-18T08:57:46Z</time>
      </trkpt>
      <trkpt lat="42.13166" lon="2.36917">
        <ele>1287.9</ele>
        <time>2019-01-18T08:57:52Z</time>
      </trkpt>
      <trkpt lat="42.13162" lon="2.36917">
        <ele>1288.3</ele>
        <time>2019-01-18T08:57:55Z</time>
      </trkpt>
      <trkpt lat="42.13159" lon="2.36923">
        <ele>1288.7</ele>
        <time>2019-01-18T08:57:59Z</time>
      </trkpt>
      <trkpt lat="42.13157" lon="2.36929">
        <ele>1288.8</ele>
        <time>2019-01-18T08:58:03Z</time>
      </trkpt>
      <trkpt lat="42.13155" lon="2.36935">
        <ele>1288.8</ele>
        <time>2019-01-18T08:58:07Z</time>
      </trkpt>
      <trkpt lat="42.13152" lon="2.3694">
        <ele>1288.9</ele>
        <time>2019-01-18T08:58:11Z</time>
      </trkpt>
      <trkpt lat="42.13149" lon="2.36945">
        <ele>1289.3</ele>
        <time>2019-01-18T08:58:15Z</time>
      </trkpt>
      <trkpt lat="42.13146" lon="2.36951">
        <ele>1289.2</ele>
        <time>2019-01-18T08:58:19Z</time>
      </trkpt>
      <trkpt lat="42.13143" lon="2.36955">
        <ele>1289.1</ele>
        <time>2019-01-18T08:58:23Z</time>
      </trkpt>
      <trkpt lat="42.13138" lon="2.36962">
        <ele>1289.9</ele>
        <time>2019-01-18T08:58:28Z</time>
      </trkpt>
      <trkpt lat="42.13134" lon="2.36964">
        <ele>1290</ele>
        <time>2019-01-18T08:58:32Z</time>
      </trkpt>
      <trkpt lat="42.1313" lon="2.36967">
        <ele>1290.5</ele>
        <time>2019-01-18T08:58:35Z</time>
      </trkpt>
      <trkpt lat="42.13127" lon="2.36973">
        <ele>1291.5</ele>
        <time>2019-01-18T08:58:40Z</time>
      </trkpt>
      <trkpt lat="42.13123" lon="2.36978">
        <ele>1292.5</ele>
        <time>2019-01-18T08:58:44Z</time>
      </trkpt>
      <trkpt lat="42.13123" lon="2.36985">
        <ele>1293.3</ele>
        <time>2019-01-18T08:58:48Z</time>
      </trkpt>
      <trkpt lat="42.13123" lon="2.36991">
        <ele>1293.5</ele>
        <time>2019-01-18T08:58:51Z</time>
      </trkpt>
      <trkpt lat="42.1312" lon="2.36999">
        <ele>1293.6</ele>
        <time>2019-01-18T08:58:57Z</time>
      </trkpt>
      <trkpt lat="42.13117" lon="2.37005">
        <ele>1293.8</ele>
        <time>2019-01-18T08:59:01Z</time>
      </trkpt>
      <trkpt lat="42.13113" lon="2.37009">
        <ele>1293.7</ele>
        <time>2019-01-18T08:59:05Z</time>
      </trkpt>
      <trkpt lat="42.1311" lon="2.37014">
        <ele>1293.7</ele>
        <time>2019-01-18T08:59:09Z</time>
      </trkpt>
      <trkpt lat="42.13105" lon="2.37017">
        <ele>1294</ele>
        <time>2019-01-18T08:59:13Z</time>
      </trkpt>
      <trkpt lat="42.131" lon="2.3702">
        <ele>1294</ele>
        <time>2019-01-18T08:59:18Z</time>
      </trkpt>
      <trkpt lat="42.13095" lon="2.3702">
        <ele>1293.4</ele>
        <time>2019-01-18T08:59:22Z</time>
      </trkpt>
      <trkpt lat="42.1309" lon="2.37023">
        <ele>1293.7</ele>
        <time>2019-01-18T08:59:26Z</time>
      </trkpt>
      <trkpt lat="42.13086" lon="2.37026">
        <ele>1293.5</ele>
        <time>2019-01-18T08:59:30Z</time>
      </trkpt>
      <trkpt lat="42.13084" lon="2.37033">
        <ele>1295</ele>
        <time>2019-01-18T08:59:34Z</time>
      </trkpt>
      <trkpt lat="42.13081" lon="2.37039">
        <ele>1295.7</ele>
        <time>2019-01-18T08:59:38Z</time>
      </trkpt>
      <trkpt lat="42.13079" lon="2.37044">
        <ele>1297.6</ele>
        <time>2019-01-18T08:59:42Z</time>
      </trkpt>
      <trkpt lat="42.13077" lon="2.37051">
        <ele>1300.6</ele>
        <time>2019-01-18T08:59:46Z</time>
      </trkpt>
      <trkpt lat="42.13079" lon="2.37057">
        <ele>1302.9</ele>
        <time>2019-01-18T08:59:50Z</time>
      </trkpt>
      <trkpt lat="42.13081" lon="2.37064">
        <ele>1304.2</ele>
        <time>2019-01-18T08:59:55Z</time>
      </trkpt>
      <trkpt lat="42.13082" lon="2.37071">
        <ele>1305</ele>
        <time>2019-01-18T08:59:59Z</time>
      </trkpt>
      <trkpt lat="42.13084" lon="2.37078">
        <ele>1306.3</ele>
        <time>2019-01-18T09:00:03Z</time>
      </trkpt>
      <trkpt lat="42.13085" lon="2.37085">
        <ele>1307.2</ele>
        <time>2019-01-18T09:00:07Z</time>
      </trkpt>
      <trkpt lat="42.13081" lon="2.37089">
        <ele>1307.4</ele>
        <time>2019-01-18T09:00:11Z</time>
      </trkpt>
      <trkpt lat="42.13076" lon="2.37089">
        <ele>1307.9</ele>
        <time>2019-01-18T09:00:15Z</time>
      </trkpt>
      <trkpt lat="42.13071" lon="2.37088">
        <ele>1308.5</ele>
        <time>2019-01-18T09:00:19Z</time>
      </trkpt>
      <trkpt lat="42.13067" lon="2.37086">
        <ele>1308.9</ele>
        <time>2019-01-18T09:00:23Z</time>
      </trkpt>
      <trkpt lat="42.13061" lon="2.37084">
        <ele>1309.5</ele>
        <time>2019-01-18T09:00:28Z</time>
      </trkpt>
      <trkpt lat="42.13057" lon="2.37081">
        <ele>1309.7</ele>
        <time>2019-01-18T09:00:32Z</time>
      </trkpt>
      <trkpt lat="42.13052" lon="2.37078">
        <ele>1310.1</ele>
        <time>2019-01-18T09:00:36Z</time>
      </trkpt>
      <trkpt lat="42.13049" lon="2.37073">
        <ele>1310.7</ele>
        <time>2019-01-18T09:00:40Z</time>
      </trkpt>
      <trkpt lat="42.13045" lon="2.37067">
        <ele>1312</ele>
        <time>2019-01-18T09:00:44Z</time>
      </trkpt>
      <trkpt lat="42.13045" lon="2.37061">
        <ele>1312.4</ele>
        <time>2019-01-18T09:00:48Z</time>
      </trkpt>
      <trkpt lat="42.13043" lon="2.37053">
        <ele>1312.5</ele>
        <time>2019-01-18T09:00:53Z</time>
      </trkpt>
      <trkpt lat="42.13039" lon="2.37049">
        <ele>1311.8</ele>
        <time>2019-01-18T09:00:57Z</time>
      </trkpt>
      <trkpt lat="42.13035" lon="2.37045">
        <ele>1311.5</ele>
        <time>2019-01-18T09:01:01Z</time>
      </trkpt>
      <trkpt lat="42.13031" lon="2.37041">
        <ele>1311.5</ele>
        <time>2019-01-18T09:01:05Z</time>
      </trkpt>
      <trkpt lat="42.13027" lon="2.37036">
        <ele>1311.5</ele>
        <time>2019-01-18T09:01:09Z</time>
      </trkpt>
      <trkpt lat="42.1302" lon="2.37033">
        <ele>1311.7</ele>
        <time>2019-01-18T09:01:15Z</time>
      </trkpt>
      <trkpt lat="42.13018" lon="2.37028">
        <ele>1311.5</ele>
        <time>2019-01-18T09:01:18Z</time>
      </trkpt>
      <trkpt lat="42.13013" lon="2.37025">
        <ele>1311</ele>
        <time>2019-01-18T09:01:22Z</time>
      </trkpt>
      <trkpt lat="42.13007" lon="2.37022">
        <ele>1310.9</ele>
        <time>2019-01-18T09:01:28Z</time>
      </trkpt>
      <trkpt lat="42.13002" lon="2.37023">
        <ele>1310.8</ele>
        <time>2019-01-18T09:01:32Z</time>
      </trkpt>
      <trkpt lat="42.12996" lon="2.37025">
        <ele>1310.6</ele>
        <time>2019-01-18T09:01:37Z</time>
      </trkpt>
      <trkpt lat="42.12992" lon="2.37029">
        <ele>1310.9</ele>
        <time>2019-01-18T09:01:41Z</time>
      </trkpt>
      <trkpt lat="42.12988" lon="2.37033">
        <ele>1311.6</ele>
        <time>2019-01-18T09:01:45Z</time>
      </trkpt>
      <trkpt lat="42.12984" lon="2.37037">
        <ele>1311.4</ele>
        <time>2019-01-18T09:01:49Z</time>
      </trkpt>
      <trkpt lat="42.1298" lon="2.37037">
        <ele>1311.7</ele>
        <time>2019-01-18T09:01:52Z</time>
      </trkpt>
      <trkpt lat="42.12976" lon="2.3704">
        <ele>1312.7</ele>
        <time>2019-01-18T09:01:56Z</time>
      </trkpt>
      <trkpt lat="42.12971" lon="2.3704">
        <ele>1314.2</ele>
        <time>2019-01-18T09:02:00Z</time>
      </trkpt>
      <trkpt lat="42.12969" lon="2.37047">
        <ele>1314.4</ele>
        <time>2019-01-18T09:02:04Z</time>
      </trkpt>
      <trkpt lat="42.12966" lon="2.37052">
        <ele>1314.1</ele>
        <time>2019-01-18T09:02:08Z</time>
      </trkpt>
      <trkpt lat="42.12963" lon="2.37056">
        <ele>1315.4</ele>
        <time>2019-01-18T09:02:12Z</time>
      </trkpt>
      <trkpt lat="42.12959" lon="2.3706">
        <ele>1317.6</ele>
        <time>2019-01-18T09:02:15Z</time>
      </trkpt>
      <trkpt lat="42.12954" lon="2.37062">
        <ele>1318.2</ele>
        <time>2019-01-18T09:02:19Z</time>
      </trkpt>
      <trkpt lat="42.12951" lon="2.37067">
        <ele>1319.6</ele>
        <time>2019-01-18T09:02:23Z</time>
      </trkpt>
      <trkpt lat="42.12947" lon="2.37071">
        <ele>1320.4</ele>
        <time>2019-01-18T09:02:27Z</time>
      </trkpt>
      <trkpt lat="42.12944" lon="2.37077">
        <ele>1320.8</ele>
        <time>2019-01-18T09:02:31Z</time>
      </trkpt>
      <trkpt lat="42.12942" lon="2.37083">
        <ele>1321.7</ele>
        <time>2019-01-18T09:02:35Z</time>
      </trkpt>
      <trkpt lat="42.12939" lon="2.37088">
        <ele>1321.9</ele>
        <time>2019-01-18T09:02:39Z</time>
      </trkpt>
      <trkpt lat="42.12936" lon="2.37094">
        <ele>1322.1</ele>
        <time>2019-01-18T09:02:43Z</time>
      </trkpt>
      <trkpt lat="42.1293" lon="2.37098">
        <ele>1321.9</ele>
        <time>2019-01-18T09:02:48Z</time>
      </trkpt>
      <trkpt lat="42.12926" lon="2.37103">
        <ele>1322</ele>
        <time>2019-01-18T09:02:53Z</time>
      </trkpt>
      <trkpt lat="42.12922" lon="2.37108">
        <ele>1322.9</ele>
        <time>2019-01-18T09:02:57Z</time>
      </trkpt>
      <trkpt lat="42.12918" lon="2.37113">
        <ele>1323</ele>
        <time>2019-01-18T09:03:02Z</time>
      </trkpt>
      <trkpt lat="42.12915" lon="2.37119">
        <ele>1323.3</ele>
        <time>2019-01-18T09:03:06Z</time>
      </trkpt>
      <trkpt lat="42.12911" lon="2.37123">
        <ele>1323.3</ele>
        <time>2019-01-18T09:03:10Z</time>
      </trkpt>
      <trkpt lat="42.12909" lon="2.37129">
        <ele>1323.6</ele>
        <time>2019-01-18T09:03:14Z</time>
      </trkpt>
      <trkpt lat="42.12909" lon="2.37136">
        <ele>1325</ele>
        <time>2019-01-18T09:03:18Z</time>
      </trkpt>
      <trkpt lat="42.12903" lon="2.37139">
        <ele>1326.3</ele>
        <time>2019-01-18T09:03:23Z</time>
      </trkpt>
      <trkpt lat="42.12899" lon="2.37147">
        <ele>1326.9</ele>
        <time>2019-01-18T09:03:29Z</time>
      </trkpt>
      <trkpt lat="42.12894" lon="2.37154">
        <ele>1327.8</ele>
        <time>2019-01-18T09:03:35Z</time>
      </trkpt>
      <trkpt lat="42.1289" lon="2.3716">
        <ele>1328.5</ele>
        <time>2019-01-18T09:03:39Z</time>
      </trkpt>
      <trkpt lat="42.12887" lon="2.37167">
        <ele>1328.5</ele>
        <time>2019-01-18T09:03:44Z</time>
      </trkpt>
      <trkpt lat="42.12883" lon="2.3717">
        <ele>1328.3</ele>
        <time>2019-01-18T09:03:47Z</time>
      </trkpt>
      <trkpt lat="42.12879" lon="2.37174">
        <ele>1328</ele>
        <time>2019-01-18T09:03:52Z</time>
      </trkpt>
      <trkpt lat="42.12876" lon="2.3718">
        <ele>1328.3</ele>
        <time>2019-01-18T09:03:56Z</time>
      </trkpt>
      <trkpt lat="42.12877" lon="2.37187">
        <ele>1328.2</ele>
        <time>2019-01-18T09:04:00Z</time>
      </trkpt>
      <trkpt lat="42.12878" lon="2.37193">
        <ele>1329.2</ele>
        <time>2019-01-18T09:04:04Z</time>
      </trkpt>
      <trkpt lat="42.12883" lon="2.37197">
        <ele>1329.4</ele>
        <time>2019-01-18T09:04:09Z</time>
      </trkpt>
      <trkpt lat="42.12889" lon="2.37207">
        <ele>1338.5</ele>
        <time>2019-01-18T10:51:46Z</time>
      </trkpt>
      <trkpt lat="42.12884" lon="2.37196">
        <ele>1337.7</ele>
        <time>2019-01-18T10:51:53Z</time>
      </trkpt>
      <trkpt lat="42.12878" lon="2.37185">
        <ele>1337.2</ele>
        <time>2019-01-18T10:52:01Z</time>
      </trkpt>
      <trkpt lat="42.12872" lon="2.37174">
        <ele>1336.9</ele>
        <time>2019-01-18T10:52:09Z</time>
      </trkpt>
      <trkpt lat="42.12867" lon="2.37162">
        <ele>1337.1</ele>
        <time>2019-01-18T10:52:17Z</time>
      </trkpt>
      <trkpt lat="42.12863" lon="2.3715">
        <ele>1337.6</ele>
        <time>2019-01-18T10:52:25Z</time>
      </trkpt>
      <trkpt lat="42.12858" lon="2.37138">
        <ele>1337.7</ele>
        <time>2019-01-18T10:52:33Z</time>
      </trkpt>
      <trkpt lat="42.12853" lon="2.37128">
        <ele>1338.5</ele>
        <time>2019-01-18T10:52:41Z</time>
      </trkpt>
      <trkpt lat="42.12849" lon="2.37117">
        <ele>1339.7</ele>
        <time>2019-01-18T10:52:48Z</time>
      </trkpt>
      <trkpt lat="42.12843" lon="2.37107">
        <ele>1341</ele>
        <time>2019-01-18T10:52:55Z</time>
      </trkpt>
      <trkpt lat="42.12838" lon="2.37097">
        <ele>1342.5</ele>
        <time>2019-01-18T10:53:03Z</time>
      </trkpt>
      <trkpt lat="42.12834" lon="2.37085">
        <ele>1344.7</ele>
        <time>2019-01-18T10:53:10Z</time>
      </trkpt>
      <trkpt lat="42.12831" lon="2.37073">
        <ele>1346.7</ele>
        <time>2019-01-18T10:53:18Z</time>
      </trkpt>
      <trkpt lat="42.1283" lon="2.3706">
        <ele>1348.8</ele>
        <time>2019-01-18T10:53:26Z</time>
      </trkpt>
      <trkpt lat="42.12826" lon="2.37049">
        <ele>1351.4</ele>
        <time>2019-01-18T10:53:33Z</time>
      </trkpt>
      <trkpt lat="42.12822" lon="2.37037">
        <ele>1354.1</ele>
        <time>2019-01-18T10:53:41Z</time>
      </trkpt>
      <trkpt lat="42.12821" lon="2.37024">
        <ele>1357.6</ele>
        <time>2019-01-18T10:53:48Z</time>
      </trkpt>
      <trkpt lat="42.12815" lon="2.37015">
        <ele>1359.7</ele>
        <time>2019-01-18T10:53:56Z</time>
      </trkpt>
      <trkpt lat="42.1281" lon="2.37004">
        <ele>1362.7</ele>
        <time>2019-01-18T10:54:03Z</time>
      </trkpt>
      <trkpt lat="42.12807" lon="2.36992">
        <ele>1366.6</ele>
        <time>2019-01-18T10:54:10Z</time>
      </trkpt>
      <trkpt lat="42.12806" lon="2.36979">
        <ele>1371.7</ele>
        <time>2019-01-18T10:54:19Z</time>
      </trkpt>
      <trkpt lat="42.12804" lon="2.36966">
        <ele>1377.9</ele>
        <time>2019-01-18T10:54:26Z</time>
      </trkpt>
      <trkpt lat="42.12812" lon="2.3696">
        <ele>1385.2</ele>
        <time>2019-01-18T10:54:34Z</time>
      </trkpt>
      <trkpt lat="42.12821" lon="2.36957">
        <ele>1389.6</ele>
        <time>2019-01-18T10:54:41Z</time>
      </trkpt>
      <trkpt lat="42.1283" lon="2.3696">
        <ele>1389.8</ele>
        <time>2019-01-18T10:54:48Z</time>
      </trkpt>
      <trkpt lat="42.12839" lon="2.36958">
        <ele>1391.9</ele>
        <time>2019-01-18T10:54:55Z</time>
      </trkpt>
      <trkpt lat="42.12848" lon="2.36954">
        <ele>1394.4</ele>
        <time>2019-01-18T10:55:03Z</time>
      </trkpt>
      <trkpt lat="42.12857" lon="2.3695">
        <ele>1395.8</ele>
        <time>2019-01-18T10:55:11Z</time>
      </trkpt>
      <trkpt lat="42.12865" lon="2.36943">
        <ele>1396.9</ele>
        <time>2019-01-18T10:55:18Z</time>
      </trkpt>
      <trkpt lat="42.12872" lon="2.36935">
        <ele>1397.1</ele>
        <time>2019-01-18T10:55:26Z</time>
      </trkpt>
      <trkpt lat="42.1288" lon="2.36928">
        <ele>1396.9</ele>
        <time>2019-01-18T10:55:33Z</time>
      </trkpt>
      <trkpt lat="42.12888" lon="2.36921">
        <ele>1397</ele>
        <time>2019-01-18T10:55:41Z</time>
      </trkpt>
      <trkpt lat="42.12896" lon="2.36912">
        <ele>1397.2</ele>
        <time>2019-01-18T10:55:49Z</time>
      </trkpt>
      <trkpt lat="42.12904" lon="2.36904">
        <ele>1396.7</ele>
        <time>2019-01-18T10:55:58Z</time>
      </trkpt>
      <trkpt lat="42.12912" lon="2.36898">
        <ele>1395.1</ele>
        <time>2019-01-18T10:56:05Z</time>
      </trkpt>
      <trkpt lat="42.12919" lon="2.36889">
        <ele>1395.9</ele>
        <time>2019-01-18T10:56:13Z</time>
      </trkpt>
      <trkpt lat="42.12926" lon="2.36881">
        <ele>1394.7</ele>
        <time>2019-01-18T10:56:20Z</time>
      </trkpt>
      <trkpt lat="42.12934" lon="2.36873">
        <ele>1394.3</ele>
        <time>2019-01-18T10:56:28Z</time>
      </trkpt>
      <trkpt lat="42.12942" lon="2.36868">
        <ele>1393.3</ele>
        <time>2019-01-18T10:56:35Z</time>
      </trkpt>
      <trkpt lat="42.12951" lon="2.36863">
        <ele>1393.8</ele>
        <time>2019-01-18T10:56:43Z</time>
      </trkpt>
      <trkpt lat="42.12959" lon="2.36857">
        <ele>1395.4</ele>
        <time>2019-01-18T10:56:50Z</time>
      </trkpt>
      <trkpt lat="42.12964" lon="2.36845">
        <ele>1400.1</ele>
        <time>2019-01-18T10:56:58Z</time>
      </trkpt>
      <trkpt lat="42.12968" lon="2.36834">
        <ele>1405.3</ele>
        <time>2019-01-18T10:57:06Z</time>
      </trkpt>
      <trkpt lat="42.12972" lon="2.36821">
        <ele>1408.1</ele>
        <time>2019-01-18T10:57:14Z</time>
      </trkpt>
      <trkpt lat="42.12978" lon="2.36811">
        <ele>1411.4</ele>
        <time>2019-01-18T10:57:21Z</time>
      </trkpt>
      <trkpt lat="42.12983" lon="2.36801">
        <ele>1413.9</ele>
        <time>2019-01-18T10:57:29Z</time>
      </trkpt>
      <trkpt lat="42.12988" lon="2.3679">
        <ele>1416</ele>
        <time>2019-01-18T10:57:36Z</time>
      </trkpt>
      <trkpt lat="42.12991" lon="2.36778">
        <ele>1417.8</ele>
        <time>2019-01-18T10:57:44Z</time>
      </trkpt>
      <trkpt lat="42.12996" lon="2.36767">
        <ele>1420.2</ele>
        <time>2019-01-18T10:57:51Z</time>
      </trkpt>
      <trkpt lat="42.13001" lon="2.36756">
        <ele>1422.8</ele>
        <time>2019-01-18T10:57:59Z</time>
      </trkpt>
      <trkpt lat="42.13004" lon="2.36744">
        <ele>1425.6</ele>
        <time>2019-01-18T10:58:07Z</time>
      </trkpt>
      <trkpt lat="42.13009" lon="2.36732">
        <ele>1428.3</ele>
        <time>2019-01-18T10:58:15Z</time>
      </trkpt>
      <trkpt lat="42.1301" lon="2.3672">
        <ele>1430.6</ele>
        <time>2019-01-18T10:58:22Z</time>
      </trkpt>
      <trkpt lat="42.13012" lon="2.36708">
        <ele>1430.5</ele>
        <time>2019-01-18T10:58:30Z</time>
      </trkpt>
      <trkpt lat="42.13011" lon="2.36695">
        <ele>1431</ele>
        <time>2019-01-18T10:58:37Z</time>
      </trkpt>
      <trkpt lat="42.1302" lon="2.36698">
        <ele>1429.3</ele>
        <time>2019-01-18T10:58:44Z</time>
      </trkpt>
      <trkpt lat="42.13029" lon="2.36693">
        <ele>1427</ele>
        <time>2019-01-18T10:58:52Z</time>
      </trkpt>
      <trkpt lat="42.13038" lon="2.36697">
        <ele>1421.4</ele>
        <time>2019-01-18T10:59:00Z</time>
      </trkpt>
      <trkpt lat="42.13046" lon="2.36703">
        <ele>1416.2</ele>
        <time>2019-01-18T10:59:07Z</time>
      </trkpt>
      <trkpt lat="42.13055" lon="2.36705">
        <ele>1410.6</ele>
        <time>2019-01-18T10:59:14Z</time>
      </trkpt>
      <trkpt lat="42.13063" lon="2.36711">
        <ele>1404.2</ele>
        <time>2019-01-18T10:59:22Z</time>
      </trkpt>
      <trkpt lat="42.13067" lon="2.36699">
        <ele>1400.7</ele>
        <time>2019-01-18T10:59:29Z</time>
      </trkpt>
      <trkpt lat="42.13075" lon="2.36706">
        <ele>1395.1</ele>
        <time>2019-01-18T10:59:37Z</time>
      </trkpt>
      <trkpt lat="42.13081" lon="2.36698">
        <ele>1389.6</ele>
        <time>2019-01-18T10:59:44Z</time>
      </trkpt>
      <trkpt lat="42.13087" lon="2.36687">
        <ele>1384.3</ele>
        <time>2019-01-18T10:59:52Z</time>
      </trkpt>
      <trkpt lat="42.13086" lon="2.36675">
        <ele>1382.5</ele>
        <time>2019-01-18T10:59:59Z</time>
      </trkpt>
      <trkpt lat="42.13093" lon="2.36666">
        <ele>1376.1</ele>
        <time>2019-01-18T11:00:07Z</time>
      </trkpt>
      <trkpt lat="42.13092" lon="2.36653">
        <ele>1374.1</ele>
        <time>2019-01-18T11:00:14Z</time>
      </trkpt>
      <trkpt lat="42.13095" lon="2.36641">
        <ele>1369.9</ele>
        <time>2019-01-18T11:00:22Z</time>
      </trkpt>
      <trkpt lat="42.13101" lon="2.36631">
        <ele>1364.2</ele>
        <time>2019-01-18T11:00:29Z</time>
      </trkpt>
      <trkpt lat="42.13101" lon="2.36618">
        <ele>1361.6</ele>
        <time>2019-01-18T11:00:37Z</time>
      </trkpt>
      <trkpt lat="42.131" lon="2.36606">
        <ele>1360.3</ele>
        <time>2019-01-18T11:00:44Z</time>
      </trkpt>
      <trkpt lat="42.13096" lon="2.36594">
        <ele>1360</ele>
        <time>2019-01-18T11:00:52Z</time>
      </trkpt>
      <trkpt lat="42.13093" lon="2.36582">
        <ele>1358.9</ele>
        <time>2019-01-18T11:00:59Z</time>
      </trkpt>
      <trkpt lat="42.13096" lon="2.3657">
        <ele>1353.6</ele>
        <time>2019-01-18T11:01:07Z</time>
      </trkpt>
      <trkpt lat="42.13101" lon="2.36558">
        <ele>1348.1</ele>
        <time>2019-01-18T11:01:15Z</time>
      </trkpt>
      <trkpt lat="42.13107" lon="2.36547">
        <ele>1343.2</ele>
        <time>2019-01-18T11:01:23Z</time>
      </trkpt>
      <trkpt lat="42.1311" lon="2.36534">
        <ele>1338.9</ele>
        <time>2019-01-18T11:01:31Z</time>
      </trkpt>
      <trkpt lat="42.13114" lon="2.36522">
        <ele>1334.5</ele>
        <time>2019-01-18T11:01:39Z</time>
      </trkpt>
      <trkpt lat="42.13119" lon="2.36512">
        <ele>1330</ele>
        <time>2019-01-18T11:01:47Z</time>
      </trkpt>
      <trkpt lat="42.13123" lon="2.365">
        <ele>1325.9</ele>
        <time>2019-01-18T11:01:54Z</time>
      </trkpt>
      <trkpt lat="42.13129" lon="2.3649">
        <ele>1321.4</ele>
        <time>2019-01-18T11:02:02Z</time>
      </trkpt>
      <trkpt lat="42.13133" lon="2.36479">
        <ele>1317.3</ele>
        <time>2019-01-18T11:02:09Z</time>
      </trkpt>
      <trkpt lat="42.13133" lon="2.36466">
        <ele>1314.2</ele>
        <time>2019-01-18T11:02:17Z</time>
      </trkpt>
      <trkpt lat="42.13134" lon="2.36452">
        <ele>1310.7</ele>
        <time>2019-01-18T11:02:25Z</time>
      </trkpt>
      <trkpt lat="42.13141" lon="2.36441">
        <ele>1307</ele>
        <time>2019-01-18T11:02:33Z</time>
      </trkpt>
      <trkpt lat="42.13144" lon="2.3643">
        <ele>1303.6</ele>
        <time>2019-01-18T11:02:41Z</time>
      </trkpt>
      <trkpt lat="42.13149" lon="2.36413">
        <ele>1299.3</ele>
        <time>2019-01-18T11:02:51Z</time>
      </trkpt>
      <trkpt lat="42.13151" lon="2.36397">
        <ele>1297.3</ele>
        <time>2019-01-18T11:03:01Z</time>
      </trkpt>
      <trkpt lat="42.13152" lon="2.36384">
        <ele>1296.2</ele>
        <time>2019-01-18T11:03:09Z</time>
      </trkpt>
      <trkpt lat="42.13155" lon="2.36371">
        <ele>1294.9</ele>
        <time>2019-01-18T11:03:17Z</time>
      </trkpt>
      <trkpt lat="42.13156" lon="2.36359">
        <ele>1294</ele>
        <time>2019-01-18T11:03:24Z</time>
      </trkpt>
      <trkpt lat="42.13157" lon="2.36346">
        <ele>1291.8</ele>
        <time>2019-01-18T11:03:32Z</time>
      </trkpt>
      <trkpt lat="42.13161" lon="2.36334">
        <ele>1290.3</ele>
        <time>2019-01-18T11:03:39Z</time>
      </trkpt>
      <trkpt lat="42.13167" lon="2.36323">
        <ele>1292.7</ele>
        <time>2019-01-18T11:03:47Z</time>
      </trkpt>
      <trkpt lat="42.13175" lon="2.36316">
        <ele>1291.5</ele>
        <time>2019-01-18T11:03:55Z</time>
      </trkpt>
      <trkpt lat="42.13178" lon="2.36304">
        <ele>1293.1</ele>
        <time>2019-01-18T11:04:03Z</time>
      </trkpt>
      <trkpt lat="42.13183" lon="2.36293">
        <ele>1294.4</ele>
        <time>2019-01-18T11:04:10Z</time>
      </trkpt>
      <trkpt lat="42.13189" lon="2.36283">
        <ele>1297.5</ele>
        <time>2019-01-18T11:04:18Z</time>
      </trkpt>
      <trkpt lat="42.13198" lon="2.36278">
        <ele>1299.3</ele>
        <time>2019-01-18T11:04:25Z</time>
      </trkpt>
      <trkpt lat="42.13203" lon="2.36267">
        <ele>1298.5</ele>
        <time>2019-01-18T11:04:33Z</time>
      </trkpt>
      <trkpt lat="42.13209" lon="2.36256">
        <ele>1297.4</ele>
        <time>2019-01-18T11:04:41Z</time>
      </trkpt>
      <trkpt lat="42.13215" lon="2.36246">
        <ele>1296.6</ele>
        <time>2019-01-18T11:04:49Z</time>
      </trkpt>
      <trkpt lat="42.13224" lon="2.36238">
        <ele>1295</ele>
        <time>2019-01-18T11:04:57Z</time>
      </trkpt>
      <trkpt lat="42.13233" lon="2.36232">
        <ele>1291.5</ele>
        <time>2019-01-18T11:05:05Z</time>
      </trkpt>
      <trkpt lat="42.13237" lon="2.36221">
        <ele>1292.4</ele>
        <time>2019-01-18T11:05:12Z</time>
      </trkpt>
      <trkpt lat="42.13236" lon="2.36209">
        <ele>1296.1</ele>
        <time>2019-01-18T11:05:20Z</time>
      </trkpt>
      <trkpt lat="42.13241" lon="2.36196">
        <ele>1298.4</ele>
        <time>2019-01-18T11:05:28Z</time>
      </trkpt>
      <trkpt lat="42.13248" lon="2.36187">
        <ele>1298.2</ele>
        <time>2019-01-18T11:05:36Z</time>
      </trkpt>
      <trkpt lat="42.13255" lon="2.36179">
        <ele>1294.6</ele>
        <time>2019-01-18T11:05:44Z</time>
      </trkpt>
      <trkpt lat="42.13257" lon="2.36167">
        <ele>1293.3</ele>
        <time>2019-01-18T11:05:51Z</time>
      </trkpt>
      <trkpt lat="42.1326" lon="2.36154">
        <ele>1292.6</ele>
        <time>2019-01-18T11:05:59Z</time>
      </trkpt>
      <trkpt lat="42.13263" lon="2.36141">
        <ele>1291.7</ele>
        <time>2019-01-18T11:06:07Z</time>
      </trkpt>
      <trkpt lat="42.13268" lon="2.36127">
        <ele>1289.7</ele>
        <time>2019-01-18T11:06:16Z</time>
      </trkpt>
      <trkpt lat="42.13273" lon="2.36113">
        <ele>1287.8</ele>
        <time>2019-01-18T11:06:25Z</time>
      </trkpt>
      <trkpt lat="42.1328" lon="2.36104">
        <ele>1284.6</ele>
        <time>2019-01-18T11:06:33Z</time>
      </trkpt>
      <trkpt lat="42.13285" lon="2.36092">
        <ele>1282</ele>
        <time>2019-01-18T11:06:41Z</time>
      </trkpt>
      <trkpt lat="42.13285" lon="2.36079">
        <ele>1281.3</ele>
        <time>2019-01-18T11:06:49Z</time>
      </trkpt>
      <trkpt lat="42.13288" lon="2.36066">
        <ele>1279.6</ele>
        <time>2019-01-18T11:06:57Z</time>
      </trkpt>
      <trkpt lat="42.13293" lon="2.36056">
        <ele>1277</ele>
        <time>2019-01-18T11:07:04Z</time>
      </trkpt>
      <trkpt lat="42.133" lon="2.36047">
        <ele>1274.2</ele>
        <time>2019-01-18T11:07:12Z</time>
      </trkpt>
      <trkpt lat="42.13303" lon="2.36024">
        <ele>1273.8</ele>
        <time>2019-01-18T11:07:26Z</time>
      </trkpt>
      <trkpt lat="42.13304" lon="2.36003">
        <ele>1277.8</ele>
        <time>2019-01-18T11:07:38Z</time>
      </trkpt>
      <trkpt lat="42.13306" lon="2.35988">
        <ele>1280.6</ele>
        <time>2019-01-18T11:07:47Z</time>
      </trkpt>
      <trkpt lat="42.13306" lon="2.35974">
        <ele>1283.5</ele>
        <time>2019-01-18T11:07:56Z</time>
      </trkpt>
      <trkpt lat="42.13309" lon="2.3596">
        <ele>1286.6</ele>
        <time>2019-01-18T11:08:04Z</time>
      </trkpt>
      <trkpt lat="42.13318" lon="2.35955">
        <ele>1286.7</ele>
        <time>2019-01-18T11:08:12Z</time>
      </trkpt>
      <trkpt lat="42.13325" lon="2.35947">
        <ele>1288.3</ele>
        <time>2019-01-18T11:08:20Z</time>
      </trkpt>
      <trkpt lat="42.13334" lon="2.35942">
        <ele>1288.4</ele>
        <time>2019-01-18T11:08:28Z</time>
      </trkpt>
      <trkpt lat="42.13341" lon="2.35934">
        <ele>1289.1</ele>
        <time>2019-01-18T11:08:35Z</time>
      </trkpt>
      <trkpt lat="42.13343" lon="2.35921">
        <ele>1290.3</ele>
        <time>2019-01-18T11:08:42Z</time>
      </trkpt>
      <trkpt lat="42.13345" lon="2.3591">
        <ele>1291.9</ele>
        <time>2019-01-18T11:08:50Z</time>
      </trkpt>
      <trkpt lat="42.13347" lon="2.35898">
        <ele>1293.9</ele>
        <time>2019-01-18T11:08:57Z</time>
      </trkpt>
      <trkpt lat="42.13354" lon="2.35888">
        <ele>1293.7</ele>
        <time>2019-01-18T11:09:05Z</time>
      </trkpt>
      <trkpt lat="42.13363" lon="2.35881">
        <ele>1292.9</ele>
        <time>2019-01-18T11:09:13Z</time>
      </trkpt>
      <trkpt lat="42.13372" lon="2.35875">
        <ele>1293.6</ele>
        <time>2019-01-18T11:09:21Z</time>
      </trkpt>
      <trkpt lat="42.13379" lon="2.35867">
        <ele>1294.3</ele>
        <time>2019-01-18T11:09:29Z</time>
      </trkpt>
      <trkpt lat="42.13385" lon="2.35856">
        <ele>1295.4</ele>
        <time>2019-01-18T11:09:37Z</time>
      </trkpt>
      <trkpt lat="42.13392" lon="2.35848">
        <ele>1295.6</ele>
        <time>2019-01-18T11:09:44Z</time>
      </trkpt>
      <trkpt lat="42.13397" lon="2.35836">
        <ele>1296.4</ele>
        <time>2019-01-18T11:09:52Z</time>
      </trkpt>
      <trkpt lat="42.134" lon="2.35823">
        <ele>1296.8</ele>
        <time>2019-01-18T11:10:01Z</time>
      </trkpt>
      <trkpt lat="42.13403" lon="2.3581">
        <ele>1296.9</ele>
        <time>2019-01-18T11:10:09Z</time>
      </trkpt>
      <trkpt lat="42.13405" lon="2.35796">
        <ele>1297</ele>
        <time>2019-01-18T11:10:17Z</time>
      </trkpt>
      <trkpt lat="42.13408" lon="2.35785">
        <ele>1296.6</ele>
        <time>2019-01-18T11:10:24Z</time>
      </trkpt>
      <trkpt lat="42.1341" lon="2.35772">
        <ele>1296.7</ele>
        <time>2019-01-18T11:10:32Z</time>
      </trkpt>
      <trkpt lat="42.13414" lon="2.35758">
        <ele>1296.3</ele>
        <time>2019-01-18T11:10:40Z</time>
      </trkpt>
      <trkpt lat="42.13415" lon="2.35745">
        <ele>1296.4</ele>
        <time>2019-01-18T11:10:48Z</time>
      </trkpt>
      <trkpt lat="42.13416" lon="2.35733">
        <ele>1295.5</ele>
        <time>2019-01-18T11:10:56Z</time>
      </trkpt>
      <trkpt lat="42.1342" lon="2.35721">
        <ele>1294.3</ele>
        <time>2019-01-18T11:11:03Z</time>
      </trkpt>
      <trkpt lat="42.13426" lon="2.35709">
        <ele>1294</ele>
        <time>2019-01-18T11:11:12Z</time>
      </trkpt>
      <trkpt lat="42.13431" lon="2.35699">
        <ele>1294.1</ele>
        <time>2019-01-18T11:11:19Z</time>
      </trkpt>
      <trkpt lat="42.13435" lon="2.35685">
        <ele>1294.9</ele>
        <time>2019-01-18T11:11:28Z</time>
      </trkpt>
      <trkpt lat="42.13441" lon="2.35673">
        <ele>1294.7</ele>
        <time>2019-01-18T11:11:36Z</time>
      </trkpt>
      <trkpt lat="42.13443" lon="2.35661">
        <ele>1294.9</ele>
        <time>2019-01-18T11:11:44Z</time>
      </trkpt>
      <trkpt lat="42.13449" lon="2.35651">
        <ele>1294.6</ele>
        <time>2019-01-18T11:11:52Z</time>
      </trkpt>
      <trkpt lat="42.13457" lon="2.35643">
        <ele>1294.3</ele>
        <time>2019-01-18T11:12:00Z</time>
      </trkpt>
      <trkpt lat="42.13467" lon="2.35639">
        <ele>1293.7</ele>
        <time>2019-01-18T11:12:08Z</time>
      </trkpt>
      <trkpt lat="42.13477" lon="2.35638">
        <ele>1293.5</ele>
        <time>2019-01-18T11:12:16Z</time>
      </trkpt>
      <trkpt lat="42.13486" lon="2.35639">
        <ele>1294.1</ele>
        <time>2019-01-18T11:12:23Z</time>
      </trkpt>
      <trkpt lat="42.13497" lon="2.35639">
        <ele>1294.7</ele>
        <time>2019-01-18T11:12:32Z</time>
      </trkpt>
      <trkpt lat="42.13506" lon="2.35643">
        <ele>1295.6</ele>
        <time>2019-01-18T11:12:40Z</time>
      </trkpt>
      <trkpt lat="42.13516" lon="2.35645">
        <ele>1296.8</ele>
        <time>2019-01-18T11:12:47Z</time>
      </trkpt>
      <trkpt lat="42.13526" lon="2.35648">
        <ele>1297.8</ele>
        <time>2019-01-18T11:12:56Z</time>
      </trkpt>
      <trkpt lat="42.13537" lon="2.35652">
        <ele>1298.4</ele>
        <time>2019-01-18T11:13:04Z</time>
      </trkpt>
      <trkpt lat="42.13547" lon="2.35653">
        <ele>1299.3</ele>
        <time>2019-01-18T11:13:13Z</time>
      </trkpt>
      <trkpt lat="42.13558" lon="2.35654">
        <ele>1300.4</ele>
        <time>2019-01-18T11:13:21Z</time>
      </trkpt>
      <trkpt lat="42.13567" lon="2.35655">
        <ele>1300.1</ele>
        <time>2019-01-18T11:13:29Z</time>
      </trkpt>
      <trkpt lat="42.13577" lon="2.35654">
        <ele>1300.3</ele>
        <time>2019-01-18T11:13:37Z</time>
      </trkpt>
      <trkpt lat="42.13586" lon="2.35656">
        <ele>1299.6</ele>
        <time>2019-01-18T11:13:45Z</time>
      </trkpt>
      <trkpt lat="42.13596" lon="2.35655">
        <ele>1300.5</ele>
        <time>2019-01-18T11:13:52Z</time>
      </trkpt>
      <trkpt lat="42.13606" lon="2.35658">
        <ele>1300</ele>
        <time>2019-01-18T11:14:00Z</time>
      </trkpt>
      <trkpt lat="42.13616" lon="2.35657">
        <ele>1300.9</ele>
        <time>2019-01-18T11:14:09Z</time>
      </trkpt>
      <trkpt lat="42.13627" lon="2.35656">
        <ele>1301.7</ele>
        <time>2019-01-18T11:14:17Z</time>
      </trkpt>
      <trkpt lat="42.13636" lon="2.35654">
        <ele>1302.7</ele>
        <time>2019-01-18T11:14:25Z</time>
      </trkpt>
      <trkpt lat="42.13642" lon="2.35644">
        <ele>1306.1</ele>
        <time>2019-01-18T11:14:32Z</time>
      </trkpt>
      <trkpt lat="42.13649" lon="2.35636">
        <ele>1309.4</ele>
        <time>2019-01-18T11:14:40Z</time>
      </trkpt>
      <trkpt lat="42.13641" lon="2.35627">
        <ele>1311.4</ele>
        <time>2019-01-18T11:14:48Z</time>
      </trkpt>
      <trkpt lat="42.13633" lon="2.35621">
        <ele>1312.5</ele>
        <time>2019-01-18T11:14:56Z</time>
      </trkpt>
      <trkpt lat="42.13629" lon="2.35608">
        <ele>1316</ele>
        <time>2019-01-18T11:15:04Z</time>
      </trkpt>
      <trkpt lat="42.13629" lon="2.35596">
        <ele>1319.4</ele>
        <time>2019-01-18T11:15:11Z</time>
      </trkpt>
      <trkpt lat="42.13629" lon="2.35583">
        <ele>1323.5</ele>
        <time>2019-01-18T11:15:19Z</time>
      </trkpt>
      <trkpt lat="42.13632" lon="2.3557">
        <ele>1327.4</ele>
        <time>2019-01-18T11:15:26Z</time>
      </trkpt>
      <trkpt lat="42.13632" lon="2.35557">
        <ele>1331.1</ele>
        <time>2019-01-18T11:15:34Z</time>
      </trkpt>
      <trkpt lat="42.13635" lon="2.35545">
        <ele>1334.9</ele>
        <time>2019-01-18T11:15:42Z</time>
      </trkpt>
      <trkpt lat="42.13641" lon="2.35534">
        <ele>1338.8</ele>
        <time>2019-01-18T11:15:50Z</time>
      </trkpt>
      <trkpt lat="42.13645" lon="2.35523">
        <ele>1343.1</ele>
        <time>2019-01-18T11:15:57Z</time>
      </trkpt>
      <trkpt lat="42.13654" lon="2.35519">
        <ele>1345.5</ele>
        <time>2019-01-18T11:16:05Z</time>
      </trkpt>
      <trkpt lat="42.13663" lon="2.35512">
        <ele>1348.2</ele>
        <time>2019-01-18T11:16:13Z</time>
      </trkpt>
      <trkpt lat="42.1367" lon="2.35504">
        <ele>1349.5</ele>
        <time>2019-01-18T11:16:21Z</time>
      </trkpt>
      <trkpt lat="42.13678" lon="2.35497">
        <ele>1350.2</ele>
        <time>2019-01-18T11:16:28Z</time>
      </trkpt>
      <trkpt lat="42.13687" lon="2.35491">
        <ele>1350.9</ele>
        <time>2019-01-18T11:16:36Z</time>
      </trkpt>
      <trkpt lat="42.13694" lon="2.35483">
        <ele>1352.1</ele>
        <time>2019-01-18T11:16:44Z</time>
      </trkpt>
      <trkpt lat="42.13701" lon="2.35474">
        <ele>1354.6</ele>
        <time>2019-01-18T11:16:52Z</time>
      </trkpt>
      <trkpt lat="42.13703" lon="2.35461">
        <ele>1359.3</ele>
        <time>2019-01-18T11:16:59Z</time>
      </trkpt>
      <trkpt lat="42.13701" lon="2.35449">
        <ele>1364.6</ele>
        <time>2019-01-18T11:17:06Z</time>
      </trkpt>
      <trkpt lat="42.13694" lon="2.35441">
        <ele>1370.1</ele>
        <time>2019-01-18T11:17:14Z</time>
      </trkpt>
      <trkpt lat="42.13688" lon="2.35431">
        <ele>1377.3</ele>
        <time>2019-01-18T11:17:21Z</time>
      </trkpt>
      <trkpt lat="42.13679" lon="2.35428">
        <ele>1381.6</ele>
        <time>2019-01-18T11:17:29Z</time>
      </trkpt>
      <trkpt lat="42.1367" lon="2.35433">
        <ele>1381.3</ele>
        <time>2019-01-18T11:17:37Z</time>
      </trkpt>
      <trkpt lat="42.13661" lon="2.35431">
        <ele>1384.4</ele>
        <time>2019-01-18T11:17:44Z</time>
      </trkpt>
      <trkpt lat="42.13652" lon="2.35435">
        <ele>1383.4</ele>
        <time>2019-01-18T11:17:52Z</time>
      </trkpt>
      <trkpt lat="42.13643" lon="2.35433">
        <ele>1385.5</ele>
        <time>2019-01-18T11:17:59Z</time>
      </trkpt>
      <trkpt lat="42.13634" lon="2.35436">
        <ele>1384.8</ele>
        <time>2019-01-18T11:18:07Z</time>
      </trkpt>
      <trkpt lat="42.13625" lon="2.35437">
        <ele>1383.6</ele>
        <time>2019-01-18T11:18:14Z</time>
      </trkpt>
      <trkpt lat="42.13634" lon="2.35437">
        <ele>1384.6</ele>
        <time>2019-01-18T11:18:22Z</time>
      </trkpt>
      <trkpt lat="42.13644" lon="2.35434">
        <ele>1385.3</ele>
        <time>2019-01-18T11:18:30Z</time>
      </trkpt>
      <trkpt lat="42.13643" lon="2.35421">
        <ele>1390.5</ele>
        <time>2019-01-18T11:18:38Z</time>
      </trkpt>
      <trkpt lat="42.13646" lon="2.35408">
        <ele>1393.4</ele>
        <time>2019-01-18T11:18:46Z</time>
      </trkpt>
      <trkpt lat="42.13652" lon="2.35399">
        <ele>1396.9</ele>
        <time>2019-01-18T11:18:53Z</time>
      </trkpt>
      <trkpt lat="42.13657" lon="2.35389">
        <ele>1402.3</ele>
        <time>2019-01-18T11:19:00Z</time>
      </trkpt>
      <trkpt lat="42.13662" lon="2.35376">
        <ele>1406.6</ele>
        <time>2019-01-18T11:19:09Z</time>
      </trkpt>
      <trkpt lat="42.13668" lon="2.35364">
        <ele>1411</ele>
        <time>2019-01-18T11:19:17Z</time>
      </trkpt>
      <trkpt lat="42.13676" lon="2.35355">
        <ele>1410.1</ele>
        <time>2019-01-18T11:19:25Z</time>
      </trkpt>
      <trkpt lat="42.13683" lon="2.35347">
        <ele>1410.2</ele>
        <time>2019-01-18T11:19:33Z</time>
      </trkpt>
      <trkpt lat="42.13691" lon="2.35337">
        <ele>1412.7</ele>
        <time>2019-01-18T11:19:41Z</time>
      </trkpt>
      <trkpt lat="42.13698" lon="2.3533">
        <ele>1413.7</ele>
        <time>2019-01-18T11:19:49Z</time>
      </trkpt>
      <trkpt lat="42.13703" lon="2.35319">
        <ele>1415</ele>
        <time>2019-01-18T11:19:56Z</time>
      </trkpt>
      <trkpt lat="42.13708" lon="2.35308">
        <ele>1416.8</ele>
        <time>2019-01-18T11:20:04Z</time>
      </trkpt>
      <trkpt lat="42.13714" lon="2.35298">
        <ele>1419.7</ele>
        <time>2019-01-18T11:20:11Z</time>
      </trkpt>
      <trkpt lat="42.13714" lon="2.35286">
        <ele>1424.4</ele>
        <time>2019-01-18T11:20:19Z</time>
      </trkpt>
      <trkpt lat="42.13706" lon="2.35277">
        <ele>1424.4</ele>
        <time>2019-01-18T11:20:27Z</time>
      </trkpt>
      <trkpt lat="42.13708" lon="2.35264">
        <ele>1428.2</ele>
        <time>2019-01-18T11:20:34Z</time>
      </trkpt>
      <trkpt lat="42.13713" lon="2.35254">
        <ele>1433.5</ele>
        <time>2019-01-18T11:20:42Z</time>
      </trkpt>
      <trkpt lat="42.13719" lon="2.35244">
        <ele>1439.1</ele>
        <time>2019-01-18T11:20:49Z</time>
      </trkpt>
      <trkpt lat="42.13727" lon="2.35239">
        <ele>1441.7</ele>
        <time>2019-01-18T11:20:57Z</time>
      </trkpt>
      <trkpt lat="42.13736" lon="2.35234">
        <ele>1442.9</ele>
        <time>2019-01-18T11:21:04Z</time>
      </trkpt>
      <trkpt lat="42.13742" lon="2.35224">
        <ele>1445.8</ele>
        <time>2019-01-18T11:21:12Z</time>
      </trkpt>
      <trkpt lat="42.13749" lon="2.35214">
        <ele>1448.3</ele>
        <time>2019-01-18T11:21:20Z</time>
      </trkpt>
      <trkpt lat="42.13749" lon="2.35202">
        <ele>1451.9</ele>
        <time>2019-01-18T11:21:27Z</time>
      </trkpt>
      <trkpt lat="42.1375" lon="2.3519">
        <ele>1455.2</ele>
        <time>2019-01-18T11:21:34Z</time>
      </trkpt>
      <trkpt lat="42.1375" lon="2.35177">
        <ele>1458.5</ele>
        <time>2019-01-18T11:21:42Z</time>
      </trkpt>
      <trkpt lat="42.13755" lon="2.35165">
        <ele>1459</ele>
        <time>2019-01-18T11:21:50Z</time>
      </trkpt>
      <trkpt lat="42.13759" lon="2.35154">
        <ele>1460.4</ele>
        <time>2019-01-18T11:21:57Z</time>
      </trkpt>
      <trkpt lat="42.1376" lon="2.35142">
        <ele>1464.8</ele>
        <time>2019-01-18T11:22:05Z</time>
      </trkpt>
      <trkpt lat="42.13763" lon="2.3513">
        <ele>1466.8</ele>
        <time>2019-01-18T11:22:13Z</time>
      </trkpt>
      <trkpt lat="42.13767" lon="2.35117">
        <ele>1469.2</ele>
        <time>2019-01-18T11:22:21Z</time>
      </trkpt>
      <trkpt lat="42.13777" lon="2.35109">
        <ele>1469.6</ele>
        <time>2019-01-18T11:22:30Z</time>
      </trkpt>
      <trkpt lat="42.13785" lon="2.351">
        <ele>1467.1</ele>
        <time>2019-01-18T11:22:38Z</time>
      </trkpt>
      <trkpt lat="42.13796" lon="2.3509">
        <ele>1462.1</ele>
        <time>2019-01-18T11:22:49Z</time>
      </trkpt>
      <trkpt lat="42.13795" lon="2.35078">
        <ele>1464.6</ele>
        <time>2019-01-18T11:22:56Z</time>
      </trkpt>
      <trkpt lat="42.13787" lon="2.35074">
        <ele>1469.5</ele>
        <time>2019-01-18T11:23:04Z</time>
      </trkpt>
      <trkpt lat="42.13777" lon="2.35072">
        <ele>1474.2</ele>
        <time>2019-01-18T11:23:11Z</time>
      </trkpt>
      <trkpt lat="42.13768" lon="2.35074">
        <ele>1472.4</ele>
        <time>2019-01-18T11:23:19Z</time>
      </trkpt>
      <trkpt lat="42.13759" lon="2.35073">
        <ele>1470.2</ele>
        <time>2019-01-18T11:23:26Z</time>
      </trkpt>
      <trkpt lat="42.13751" lon="2.35066">
        <ele>1468</ele>
        <time>2019-01-18T11:23:33Z</time>
      </trkpt>
      <trkpt lat="42.13745" lon="2.35057">
        <ele>1462</ele>
        <time>2019-01-18T11:23:41Z</time>
      </trkpt>
      <trkpt lat="42.13738" lon="2.35048">
        <ele>1454.2</ele>
        <time>2019-01-18T11:23:48Z</time>
      </trkpt>
      <trkpt lat="42.13748" lon="2.35046">
        <ele>1463.6</ele>
        <time>2019-01-18T11:23:56Z</time>
      </trkpt>
      <trkpt lat="42.13757" lon="2.3505">
        <ele>1467.4</ele>
        <time>2019-01-18T11:24:03Z</time>
      </trkpt>
      <trkpt lat="42.13758" lon="2.35062">
        <ele>1469.1</ele>
        <time>2019-01-18T11:24:11Z</time>
      </trkpt>
      <trkpt lat="42.13767" lon="2.35067">
        <ele>1471.5</ele>
        <time>2019-01-18T11:24:18Z</time>
      </trkpt>
      <trkpt lat="42.13775" lon="2.35073">
        <ele>1474</ele>
        <time>2019-01-18T11:24:26Z</time>
      </trkpt>
      <trkpt lat="42.13784" lon="2.35072">
        <ele>1470.5</ele>
        <time>2019-01-18T11:24:33Z</time>
      </trkpt>
      <trkpt lat="42.13795" lon="2.35068">
        <ele>1463.9</ele>
        <time>2019-01-18T11:24:42Z</time>
      </trkpt>
      <trkpt lat="42.13805" lon="2.35067">
        <ele>1458.3</ele>
        <time>2019-01-18T11:24:50Z</time>
      </trkpt>
      <trkpt lat="42.13814" lon="2.35068">
        <ele>1453.1</ele>
        <time>2019-01-18T11:24:57Z</time>
      </trkpt>
      <trkpt lat="42.13817" lon="2.35081">
        <ele>1450.6</ele>
        <time>2019-01-18T11:25:05Z</time>
      </trkpt>
      <trkpt lat="42.13817" lon="2.35093">
        <ele>1447.5</ele>
        <time>2019-01-18T11:25:12Z</time>
      </trkpt>
      <trkpt lat="42.13817" lon="2.35106">
        <ele>1443.8</ele>
        <time>2019-01-18T11:25:20Z</time>
      </trkpt>
      <trkpt lat="42.13812" lon="2.35117">
        <ele>1442.5</ele>
        <time>2019-01-18T11:25:28Z</time>
      </trkpt>
      <trkpt lat="42.13805" lon="2.35128">
        <ele>1442.4</ele>
        <time>2019-01-18T11:25:36Z</time>
      </trkpt>
      <trkpt lat="42.13798" lon="2.35138">
        <ele>1442.6</ele>
        <time>2019-01-18T11:25:44Z</time>
      </trkpt>
      <trkpt lat="42.13801" lon="2.35155">
        <ele>1431.9</ele>
        <time>2019-01-18T11:25:55Z</time>
      </trkpt>
      <trkpt lat="42.13801" lon="2.35168">
        <ele>1426.7</ele>
        <time>2019-01-18T11:26:02Z</time>
      </trkpt>
      <trkpt lat="42.13796" lon="2.35178">
        <ele>1427.5</ele>
        <time>2019-01-18T11:26:10Z</time>
      </trkpt>
      <trkpt lat="42.13789" lon="2.35186">
        <ele>1430.6</ele>
        <time>2019-01-18T11:26:17Z</time>
      </trkpt>
      <trkpt lat="42.13798" lon="2.35186">
        <ele>1422.4</ele>
        <time>2019-01-18T11:26:24Z</time>
      </trkpt>
      <trkpt lat="42.13811" lon="2.3519">
        <ele>1411.9</ele>
        <time>2019-01-18T11:26:35Z</time>
      </trkpt>
      <trkpt lat="42.13824" lon="2.35186">
        <ele>1406</ele>
        <time>2019-01-18T11:26:46Z</time>
      </trkpt>
      <trkpt lat="42.13835" lon="2.3518">
        <ele>1402.7</ele>
        <time>2019-01-18T11:26:55Z</time>
      </trkpt>
      <trkpt lat="42.13843" lon="2.35171">
        <ele>1400.6</ele>
        <time>2019-01-18T11:27:03Z</time>
      </trkpt>
      <trkpt lat="42.13843" lon="2.35159">
        <ele>1404.9</ele>
        <time>2019-01-18T11:27:10Z</time>
      </trkpt>
      <trkpt lat="42.13853" lon="2.35154">
        <ele>1400.4</ele>
        <time>2019-01-18T11:27:18Z</time>
      </trkpt>
      <trkpt lat="42.13864" lon="2.35148">
        <ele>1394.9</ele>
        <time>2019-01-18T11:27:28Z</time>
      </trkpt>
      <trkpt lat="42.13875" lon="2.35151">
        <ele>1387.7</ele>
        <time>2019-01-18T11:27:37Z</time>
      </trkpt>
      <trkpt lat="42.13893" lon="2.35149">
        <ele>1379.4</ele>
        <time>2019-01-18T11:27:51Z</time>
      </trkpt>
      <trkpt lat="42.1391" lon="2.35142">
        <ele>1375.6</ele>
        <time>2019-01-18T11:28:06Z</time>
      </trkpt>
      <trkpt lat="42.13919" lon="2.35138">
        <ele>1373.5</ele>
        <time>2019-01-18T11:28:14Z</time>
      </trkpt>
      <trkpt lat="42.13931" lon="2.35141">
        <ele>1369.2</ele>
        <time>2019-01-18T11:28:23Z</time>
      </trkpt>
      <trkpt lat="42.1394" lon="2.35143">
        <ele>1365.8</ele>
        <time>2019-01-18T11:28:30Z</time>
      </trkpt>
      <trkpt lat="42.13951" lon="2.35144">
        <ele>1362.1</ele>
        <time>2019-01-18T11:28:39Z</time>
      </trkpt>
      <trkpt lat="42.13961" lon="2.35143">
        <ele>1359.3</ele>
        <time>2019-01-18T11:28:47Z</time>
      </trkpt>
      <trkpt lat="42.13968" lon="2.35134">
        <ele>1361.7</ele>
        <time>2019-01-18T11:28:55Z</time>
      </trkpt>
      <trkpt lat="42.13977" lon="2.35128">
        <ele>1362.7</ele>
        <time>2019-01-18T11:29:03Z</time>
      </trkpt>
      <trkpt lat="42.13976" lon="2.35113">
        <ele>1370.8</ele>
        <time>2019-01-18T11:29:12Z</time>
      </trkpt>
      <trkpt lat="42.13984" lon="2.35103">
        <ele>1372.7</ele>
        <time>2019-01-18T11:29:20Z</time>
      </trkpt>
      <trkpt lat="42.1399" lon="2.35093">
        <ele>1375</ele>
        <time>2019-01-18T11:29:28Z</time>
      </trkpt>
      <trkpt lat="42.14" lon="2.35085">
        <ele>1375.7</ele>
        <time>2019-01-18T11:29:37Z</time>
      </trkpt>
      <trkpt lat="42.14006" lon="2.35075">
        <ele>1376.5</ele>
        <time>2019-01-18T11:29:45Z</time>
      </trkpt>
      <trkpt lat="42.14013" lon="2.35067">
        <ele>1376.7</ele>
        <time>2019-01-18T11:29:52Z</time>
      </trkpt>
      <trkpt lat="42.14021" lon="2.3506">
        <ele>1376.4</ele>
        <time>2019-01-18T11:30:00Z</time>
      </trkpt>
      <trkpt lat="42.14028" lon="2.3505">
        <ele>1376.2</ele>
        <time>2019-01-18T11:30:08Z</time>
      </trkpt>
      <trkpt lat="42.14035" lon="2.35041">
        <ele>1373.8</ele>
        <time>2019-01-18T11:30:16Z</time>
      </trkpt>
      <trkpt lat="42.14042" lon="2.35033">
        <ele>1371.8</ele>
        <time>2019-01-18T11:30:23Z</time>
      </trkpt>
      <trkpt lat="42.14047" lon="2.35022">
        <ele>1370.4</ele>
        <time>2019-01-18T11:30:31Z</time>
      </trkpt>
      <trkpt lat="42.14054" lon="2.35013">
        <ele>1368.7</ele>
        <time>2019-01-18T11:30:38Z</time>
      </trkpt>
      <trkpt lat="42.14061" lon="2.35006">
        <ele>1365.6</ele>
        <time>2019-01-18T11:30:46Z</time>
      </trkpt>
      <trkpt lat="42.14069" lon="2.34998">
        <ele>1361.4</ele>
        <time>2019-01-18T11:30:54Z</time>
      </trkpt>
      <trkpt lat="42.14078" lon="2.34996">
        <ele>1356.4</ele>
        <time>2019-01-18T11:31:01Z</time>
      </trkpt>
      <trkpt lat="42.14089" lon="2.35">
        <ele>1352</ele>
        <time>2019-01-18T11:31:10Z</time>
      </trkpt>
      <trkpt lat="42.14099" lon="2.35003">
        <ele>1347.7</ele>
        <time>2019-01-18T11:31:18Z</time>
      </trkpt>
      <trkpt lat="42.14108" lon="2.35004">
        <ele>1344</ele>
        <time>2019-01-18T11:31:25Z</time>
      </trkpt>
      <trkpt lat="42.14118" lon="2.35002">
        <ele>1340.2</ele>
        <time>2019-01-18T11:31:33Z</time>
      </trkpt>
      <trkpt lat="42.14127" lon="2.34999">
        <ele>1337</ele>
        <time>2019-01-18T11:31:41Z</time>
      </trkpt>
      <trkpt lat="42.14136" lon="2.34996">
        <ele>1333.3</ele>
        <time>2019-01-18T11:31:48Z</time>
      </trkpt>
      <trkpt lat="42.14145" lon="2.34995">
        <ele>1330.8</ele>
        <time>2019-01-18T11:31:56Z</time>
      </trkpt>
      <trkpt lat="42.14156" lon="2.34992">
        <ele>1328.4</ele>
        <time>2019-01-18T11:32:05Z</time>
      </trkpt>
      <trkpt lat="42.14166" lon="2.34988">
        <ele>1326.3</ele>
        <time>2019-01-18T11:32:13Z</time>
      </trkpt>
      <trkpt lat="42.14176" lon="2.34982">
        <ele>1325.8</ele>
        <time>2019-01-18T11:32:21Z</time>
      </trkpt>
      <trkpt lat="42.14184" lon="2.34979">
        <ele>1325.7</ele>
        <time>2019-01-18T11:32:29Z</time>
      </trkpt>
      <trkpt lat="42.14194" lon="2.34976">
        <ele>1325.8</ele>
        <time>2019-01-18T11:32:36Z</time>
      </trkpt>
      <trkpt lat="42.14202" lon="2.34968">
        <ele>1325.8</ele>
        <time>2019-01-18T11:32:44Z</time>
      </trkpt>
      <trkpt lat="42.14211" lon="2.34959">
        <ele>1325.5</ele>
        <time>2019-01-18T11:32:54Z</time>
      </trkpt>
      <trkpt lat="42.14219" lon="2.34952">
        <ele>1324.9</ele>
        <time>2019-01-18T11:33:01Z</time>
      </trkpt>
      <trkpt lat="42.14229" lon="2.34945">
        <ele>1321.9</ele>
        <time>2019-01-18T11:33:10Z</time>
      </trkpt>
      <trkpt lat="42.14236" lon="2.34934">
        <ele>1319.6</ele>
        <time>2019-01-18T11:33:18Z</time>
      </trkpt>
      <trkpt lat="42.14241" lon="2.34923">
        <ele>1317.8</ele>
        <time>2019-01-18T11:33:26Z</time>
      </trkpt>
      <trkpt lat="42.14244" lon="2.34911">
        <ele>1317.2</ele>
        <time>2019-01-18T11:33:34Z</time>
      </trkpt>
      <trkpt lat="42.14253" lon="2.34903">
        <ele>1314.8</ele>
        <time>2019-01-18T11:33:42Z</time>
      </trkpt>
      <trkpt lat="42.14263" lon="2.34899">
        <ele>1312.2</ele>
        <time>2019-01-18T11:33:51Z</time>
      </trkpt>
      <trkpt lat="42.14272" lon="2.34898">
        <ele>1310</ele>
        <time>2019-01-18T11:33:58Z</time>
      </trkpt>
      <trkpt lat="42.14283" lon="2.34899">
        <ele>1307.1</ele>
        <time>2019-01-18T11:34:07Z</time>
      </trkpt>
      <trkpt lat="42.14293" lon="2.34901">
        <ele>1305</ele>
        <time>2019-01-18T11:34:15Z</time>
      </trkpt>
      <trkpt lat="42.14302" lon="2.34901">
        <ele>1303</ele>
        <time>2019-01-18T11:34:22Z</time>
      </trkpt>
      <trkpt lat="42.14311" lon="2.34903">
        <ele>1300.6</ele>
        <time>2019-01-18T11:34:30Z</time>
      </trkpt>
      <trkpt lat="42.14321" lon="2.34905">
        <ele>1297.9</ele>
        <time>2019-01-18T11:34:37Z</time>
      </trkpt>
      <trkpt lat="42.14331" lon="2.34903">
        <ele>1295.3</ele>
        <time>2019-01-18T11:34:45Z</time>
      </trkpt>
      <trkpt lat="42.14342" lon="2.34903">
        <ele>1293.1</ele>
        <time>2019-01-18T11:34:54Z</time>
      </trkpt>
      <trkpt lat="42.14351" lon="2.34907">
        <ele>1291.1</ele>
        <time>2019-01-18T11:35:02Z</time>
      </trkpt>
      <trkpt lat="42.14361" lon="2.34905">
        <ele>1289.6</ele>
        <time>2019-01-18T11:35:10Z</time>
      </trkpt>
      <trkpt lat="42.14371" lon="2.34904">
        <ele>1290.2</ele>
        <time>2019-01-18T11:35:18Z</time>
      </trkpt>
      <trkpt lat="42.14378" lon="2.34895">
        <ele>1291.3</ele>
        <time>2019-01-18T11:35:26Z</time>
      </trkpt>
      <trkpt lat="42.14384" lon="2.34884">
        <ele>1292.3</ele>
        <time>2019-01-18T11:35:33Z</time>
      </trkpt>
      <trkpt lat="42.14391" lon="2.34876">
        <ele>1293</ele>
        <time>2019-01-18T11:35:41Z</time>
      </trkpt>
      <trkpt lat="42.14401" lon="2.3487">
        <ele>1295.7</ele>
        <time>2019-01-18T11:35:50Z</time>
      </trkpt>
      <trkpt lat="42.1441" lon="2.34866">
        <ele>1298.2</ele>
        <time>2019-01-18T11:35:57Z</time>
      </trkpt>
      <trkpt lat="42.14419" lon="2.34867">
        <ele>1300.8</ele>
        <time>2019-01-18T11:36:04Z</time>
      </trkpt>
      <trkpt lat="42.14428" lon="2.34868">
        <ele>1304.3</ele>
        <time>2019-01-18T11:36:12Z</time>
      </trkpt>
      <trkpt lat="42.14431" lon="2.34856">
        <ele>1304.1</ele>
        <time>2019-01-18T11:36:19Z</time>
      </trkpt>
      <trkpt lat="42.1444" lon="2.34856">
        <ele>1307.2</ele>
        <time>2019-01-18T11:36:26Z</time>
      </trkpt>
      <trkpt lat="42.14447" lon="2.34865">
        <ele>1311.1</ele>
        <time>2019-01-18T11:36:34Z</time>
      </trkpt>
      <trkpt lat="42.14456" lon="2.34865">
        <ele>1314.5</ele>
        <time>2019-01-18T11:36:41Z</time>
      </trkpt>
      <trkpt lat="42.14465" lon="2.34867">
        <ele>1318.2</ele>
        <time>2019-01-18T11:36:49Z</time>
      </trkpt>
      <trkpt lat="42.14474" lon="2.34863">
        <ele>1321.1</ele>
        <time>2019-01-18T11:36:56Z</time>
      </trkpt>
      <trkpt lat="42.14482" lon="2.34854">
        <ele>1322.6</ele>
        <time>2019-01-18T11:37:05Z</time>
      </trkpt>
      <trkpt lat="42.14492" lon="2.34861">
        <ele>1330.5</ele>
        <time>2019-01-18T11:37:14Z</time>
      </trkpt>
      <trkpt lat="42.14499" lon="2.34868">
        <ele>1336.4</ele>
        <time>2019-01-18T11:37:21Z</time>
      </trkpt>
      <trkpt lat="42.14508" lon="2.3487">
        <ele>1338.1</ele>
        <time>2019-01-18T11:37:28Z</time>
      </trkpt>
      <trkpt lat="42.14518" lon="2.34871">
        <ele>1339.4</ele>
        <time>2019-01-18T11:37:36Z</time>
      </trkpt>
      <trkpt lat="42.14523" lon="2.34881">
        <ele>1344.5</ele>
        <time>2019-01-18T11:37:43Z</time>
      </trkpt>
      <trkpt lat="42.14525" lon="2.34894">
        <ele>1349.1</ele>
        <time>2019-01-18T11:37:51Z</time>
      </trkpt>
      <trkpt lat="42.14531" lon="2.34902">
        <ele>1351</ele>
        <time>2019-01-18T11:37:58Z</time>
      </trkpt>
      <trkpt lat="42.14538" lon="2.34912">
        <ele>1352.8</ele>
        <time>2019-01-18T11:38:06Z</time>
      </trkpt>
      <trkpt lat="42.1454" lon="2.34923">
        <ele>1354.3</ele>
        <time>2019-01-18T11:38:13Z</time>
      </trkpt>
      <trkpt lat="42.14549" lon="2.34928">
        <ele>1354.9</ele>
        <time>2019-01-18T11:38:21Z</time>
      </trkpt>
      <trkpt lat="42.14557" lon="2.34933">
        <ele>1355.9</ele>
        <time>2019-01-18T11:38:28Z</time>
      </trkpt>
      <trkpt lat="42.14567" lon="2.3494">
        <ele>1357.8</ele>
        <time>2019-01-18T11:38:37Z</time>
      </trkpt>
      <trkpt lat="42.14577" lon="2.34939">
        <ele>1358.3</ele>
        <time>2019-01-18T11:38:45Z</time>
      </trkpt>
      <trkpt lat="42.14587" lon="2.3494">
        <ele>1360</ele>
        <time>2019-01-18T11:38:53Z</time>
      </trkpt>
      <trkpt lat="42.14596" lon="2.34943">
        <ele>1362.6</ele>
        <time>2019-01-18T11:39:00Z</time>
      </trkpt>
      <trkpt lat="42.14605" lon="2.34939">
        <ele>1362.8</ele>
        <time>2019-01-18T11:39:08Z</time>
      </trkpt>
      <trkpt lat="42.14615" lon="2.3494">
        <ele>1365.8</ele>
        <time>2019-01-18T11:39:16Z</time>
      </trkpt>
      <trkpt lat="42.14623" lon="2.34946">
        <ele>1371.7</ele>
        <time>2019-01-18T11:39:23Z</time>
      </trkpt>
      <trkpt lat="42.14631" lon="2.34937">
        <ele>1372.3</ele>
        <time>2019-01-18T11:39:31Z</time>
      </trkpt>
      <trkpt lat="42.14638" lon="2.34928">
        <ele>1372.4</ele>
        <time>2019-01-18T11:39:39Z</time>
      </trkpt>
      <trkpt lat="42.14643" lon="2.34917">
        <ele>1371.9</ele>
        <time>2019-01-18T11:39:46Z</time>
      </trkpt>
      <trkpt lat="42.14649" lon="2.34907">
        <ele>1369.6</ele>
        <time>2019-01-18T11:39:54Z</time>
      </trkpt>
      <trkpt lat="42.14658" lon="2.34903">
        <ele>1372.7</ele>
        <time>2019-01-18T11:40:01Z</time>
      </trkpt>
      <trkpt lat="42.14666" lon="2.34898">
        <ele>1374.9</ele>
        <time>2019-01-18T11:40:08Z</time>
      </trkpt>
      <trkpt lat="42.14674" lon="2.34899">
        <ele>1378.4</ele>
        <time>2019-01-18T11:40:16Z</time>
      </trkpt>
      <trkpt lat="42.14683" lon="2.34896">
        <ele>1379.3</ele>
        <time>2019-01-18T11:40:23Z</time>
      </trkpt>
      <trkpt lat="42.14693" lon="2.34896">
        <ele>1381.5</ele>
        <time>2019-01-18T11:40:30Z</time>
      </trkpt>
      <trkpt lat="42.14702" lon="2.34892">
        <ele>1381.6</ele>
        <time>2019-01-18T11:40:38Z</time>
      </trkpt>
      <trkpt lat="42.14718" lon="2.34886">
        <ele>1382</ele>
        <time>2019-01-18T11:40:51Z</time>
      </trkpt>
      <trkpt lat="42.14725" lon="2.34878">
        <ele>1380.6</ele>
        <time>2019-01-18T11:40:59Z</time>
      </trkpt>
      <trkpt lat="42.14734" lon="2.34871">
        <ele>1380.1</ele>
        <time>2019-01-18T11:41:07Z</time>
      </trkpt>
      <trkpt lat="42.14742" lon="2.34862">
        <ele>1381.3</ele>
        <time>2019-01-18T11:41:16Z</time>
      </trkpt>
      <trkpt lat="42.1475" lon="2.34853">
        <ele>1384</ele>
        <time>2019-01-18T11:41:24Z</time>
      </trkpt>
      <trkpt lat="42.14758" lon="2.34844">
        <ele>1385.5</ele>
        <time>2019-01-18T11:41:32Z</time>
      </trkpt>
      <trkpt lat="42.14764" lon="2.34833">
        <ele>1387.6</ele>
        <time>2019-01-18T11:41:40Z</time>
      </trkpt>
      <trkpt lat="42.14767" lon="2.34822">
        <ele>1388.5</ele>
        <time>2019-01-18T11:41:47Z</time>
      </trkpt>
      <trkpt lat="42.14773" lon="2.34812">
        <ele>1389.9</ele>
        <time>2019-01-18T11:41:55Z</time>
      </trkpt>
      <trkpt lat="42.14778" lon="2.348">
        <ele>1390.6</ele>
        <time>2019-01-18T11:42:03Z</time>
      </trkpt>
      <trkpt lat="42.14783" lon="2.34789">
        <ele>1390.3</ele>
        <time>2019-01-18T11:42:10Z</time>
      </trkpt>
      <trkpt lat="42.14787" lon="2.34778">
        <ele>1390.3</ele>
        <time>2019-01-18T11:42:18Z</time>
      </trkpt>
      <trkpt lat="42.14794" lon="2.3477">
        <ele>1390.6</ele>
        <time>2019-01-18T11:42:25Z</time>
      </trkpt>
      <trkpt lat="42.14802" lon="2.34761">
        <ele>1392.4</ele>
        <time>2019-01-18T11:42:34Z</time>
      </trkpt>
      <trkpt lat="42.14809" lon="2.34753">
        <ele>1393.6</ele>
        <time>2019-01-18T11:42:41Z</time>
      </trkpt>
      <trkpt lat="42.14811" lon="2.34739">
        <ele>1393.4</ele>
        <time>2019-01-18T11:42:49Z</time>
      </trkpt>
      <trkpt lat="42.14813" lon="2.34726">
        <ele>1393.1</ele>
        <time>2019-01-18T11:42:57Z</time>
      </trkpt>
      <trkpt lat="42.14816" lon="2.34711">
        <ele>1394.4</ele>
        <time>2019-01-18T11:43:06Z</time>
      </trkpt>
      <trkpt lat="42.14818" lon="2.34699">
        <ele>1395.9</ele>
        <time>2019-01-18T11:43:14Z</time>
      </trkpt>
      <trkpt lat="42.14821" lon="2.34688">
        <ele>1398.8</ele>
        <time>2019-01-18T11:43:21Z</time>
      </trkpt>
      <trkpt lat="42.14826" lon="2.34676">
        <ele>1401.7</ele>
        <time>2019-01-18T11:43:29Z</time>
      </trkpt>
      <trkpt lat="42.14825" lon="2.34663">
        <ele>1404.4</ele>
        <time>2019-01-18T11:43:37Z</time>
      </trkpt>
      <trkpt lat="42.14825" lon="2.3465">
        <ele>1405.5</ele>
        <time>2019-01-18T11:43:44Z</time>
      </trkpt>
      <trkpt lat="42.14824" lon="2.34637">
        <ele>1406.2</ele>
        <time>2019-01-18T11:43:52Z</time>
      </trkpt>
      <trkpt lat="42.14826" lon="2.34625">
        <ele>1408.4</ele>
        <time>2019-01-18T11:43:59Z</time>
      </trkpt>
      <trkpt lat="42.14827" lon="2.34613">
        <ele>1410.5</ele>
        <time>2019-01-18T11:44:07Z</time>
      </trkpt>
      <trkpt lat="42.14828" lon="2.346">
        <ele>1412.6</ele>
        <time>2019-01-18T11:44:14Z</time>
      </trkpt>
      <trkpt lat="42.14829" lon="2.34588">
        <ele>1414.5</ele>
        <time>2019-01-18T11:44:21Z</time>
      </trkpt>
      <trkpt lat="42.14834" lon="2.34576">
        <ele>1417.2</ele>
        <time>2019-01-18T11:44:29Z</time>
      </trkpt>
      <trkpt lat="42.14832" lon="2.34564">
        <ele>1419.2</ele>
        <time>2019-01-18T11:44:37Z</time>
      </trkpt>
      <trkpt lat="42.1483" lon="2.34552">
        <ele>1419.6</ele>
        <time>2019-01-18T11:44:44Z</time>
      </trkpt>
      <trkpt lat="42.14833" lon="2.34539">
        <ele>1421.5</ele>
        <time>2019-01-18T11:44:52Z</time>
      </trkpt>
      <trkpt lat="42.1484" lon="2.3453">
        <ele>1420.6</ele>
        <time>2019-01-18T11:45:00Z</time>
      </trkpt>
      <trkpt lat="42.14847" lon="2.34522">
        <ele>1419.1</ele>
        <time>2019-01-18T11:45:07Z</time>
      </trkpt>
      <trkpt lat="42.14856" lon="2.34515">
        <ele>1418.6</ele>
        <time>2019-01-18T11:45:16Z</time>
      </trkpt>
      <trkpt lat="42.14865" lon="2.34508">
        <ele>1420.1</ele>
        <time>2019-01-18T11:45:24Z</time>
      </trkpt>
      <trkpt lat="42.14874" lon="2.34502">
        <ele>1422.8</ele>
        <time>2019-01-18T11:45:32Z</time>
      </trkpt>
      <trkpt lat="42.14883" lon="2.34499">
        <ele>1425.6</ele>
        <time>2019-01-18T11:45:39Z</time>
      </trkpt>
      <trkpt lat="42.14892" lon="2.34495">
        <ele>1427.6</ele>
        <time>2019-01-18T11:45:47Z</time>
      </trkpt>
      <trkpt lat="42.14898" lon="2.34485">
        <ele>1429.1</ele>
        <time>2019-01-18T11:45:54Z</time>
      </trkpt>
      <trkpt lat="42.14904" lon="2.34475">
        <ele>1431.3</ele>
        <time>2019-01-18T11:46:02Z</time>
      </trkpt>
      <trkpt lat="42.1491" lon="2.34466">
        <ele>1433.7</ele>
        <time>2019-01-18T11:46:09Z</time>
      </trkpt>
      <trkpt lat="42.14912" lon="2.34453">
        <ele>1435.3</ele>
        <time>2019-01-18T11:46:17Z</time>
      </trkpt>
      <trkpt lat="42.14921" lon="2.34452">
        <ele>1437.5</ele>
        <time>2019-01-18T11:46:24Z</time>
      </trkpt>
      <trkpt lat="42.1493" lon="2.34445">
        <ele>1438.8</ele>
        <time>2019-01-18T11:46:32Z</time>
      </trkpt>
      <trkpt lat="42.14938" lon="2.34439">
        <ele>1440.2</ele>
        <time>2019-01-18T11:46:40Z</time>
      </trkpt>
      <trkpt lat="42.14946" lon="2.34432">
        <ele>1442</ele>
        <time>2019-01-18T11:46:48Z</time>
      </trkpt>
      <trkpt lat="42.14956" lon="2.34422">
        <ele>1444.5</ele>
        <time>2019-01-18T11:46:57Z</time>
      </trkpt>
      <trkpt lat="42.14955" lon="2.3441">
        <ele>1443.7</ele>
        <time>2019-01-18T11:47:04Z</time>
      </trkpt>
      <trkpt lat="42.14962" lon="2.34401">
        <ele>1442.8</ele>
        <time>2019-01-18T11:47:12Z</time>
      </trkpt>
      <trkpt lat="42.14968" lon="2.3439">
        <ele>1441.5</ele>
        <time>2019-01-18T11:47:20Z</time>
      </trkpt>
      <trkpt lat="42.14973" lon="2.34379">
        <ele>1438</ele>
        <time>2019-01-18T11:47:27Z</time>
      </trkpt>
      <trkpt lat="42.14979" lon="2.34368">
        <ele>1432.9</ele>
        <time>2019-01-18T11:47:36Z</time>
      </trkpt>
      <trkpt lat="42.14984" lon="2.34357">
        <ele>1428.2</ele>
        <time>2019-01-18T11:47:44Z</time>
      </trkpt>
      <trkpt lat="42.1499" lon="2.34347">
        <ele>1424.8</ele>
        <time>2019-01-18T11:47:51Z</time>
      </trkpt>
      <trkpt lat="42.14991" lon="2.34333">
        <ele>1420.9</ele>
        <time>2019-01-18T11:47:59Z</time>
      </trkpt>
      <trkpt lat="42.14989" lon="2.3432">
        <ele>1416.1</ele>
        <time>2019-01-18T11:48:07Z</time>
      </trkpt>
      <trkpt lat="42.14987" lon="2.34307">
        <ele>1411</ele>
        <time>2019-01-18T11:48:15Z</time>
      </trkpt>
      <trkpt lat="42.14987" lon="2.34295">
        <ele>1406.6</ele>
        <time>2019-01-18T11:48:22Z</time>
      </trkpt>
      <trkpt lat="42.14986" lon="2.34283">
        <ele>1402.4</ele>
        <time>2019-01-18T11:48:29Z</time>
      </trkpt>
      <trkpt lat="42.14982" lon="2.34269">
        <ele>1396.3</ele>
        <time>2019-01-18T11:48:38Z</time>
      </trkpt>
      <trkpt lat="42.14983" lon="2.34253">
        <ele>1392.3</ele>
        <time>2019-01-18T11:48:48Z</time>
      </trkpt>
      <trkpt lat="42.14984" lon="2.34237">
        <ele>1390</ele>
        <time>2019-01-18T11:48:58Z</time>
      </trkpt>
      <trkpt lat="42.14986" lon="2.34222">
        <ele>1388.3</ele>
        <time>2019-01-18T11:49:06Z</time>
      </trkpt>
      <trkpt lat="42.14984" lon="2.34209">
        <ele>1387</ele>
        <time>2019-01-18T11:49:14Z</time>
      </trkpt>
      <trkpt lat="42.14985" lon="2.34197">
        <ele>1386.7</ele>
        <time>2019-01-18T11:49:22Z</time>
      </trkpt>
      <trkpt lat="42.14982" lon="2.34185">
        <ele>1386.5</ele>
        <time>2019-01-18T11:49:29Z</time>
      </trkpt>
      <trkpt lat="42.14982" lon="2.34172">
        <ele>1387.1</ele>
        <time>2019-01-18T11:49:37Z</time>
      </trkpt>
      <trkpt lat="42.1498" lon="2.34159">
        <ele>1386.8</ele>
        <time>2019-01-18T11:49:44Z</time>
      </trkpt>
      <trkpt lat="42.1498" lon="2.34146">
        <ele>1387.1</ele>
        <time>2019-01-18T11:49:52Z</time>
      </trkpt>
      <trkpt lat="42.14976" lon="2.34131">
        <ele>1387.5</ele>
        <time>2019-01-18T11:50:02Z</time>
      </trkpt>
      <trkpt lat="42.14974" lon="2.34117">
        <ele>1389.2</ele>
        <time>2019-01-18T11:50:10Z</time>
      </trkpt>
      <trkpt lat="42.14972" lon="2.34105">
        <ele>1390.1</ele>
        <time>2019-01-18T11:50:18Z</time>
      </trkpt>
      <trkpt lat="42.14974" lon="2.34093">
        <ele>1390.4</ele>
        <time>2019-01-18T11:50:25Z</time>
      </trkpt>
      <trkpt lat="42.14974" lon="2.3408">
        <ele>1390.7</ele>
        <time>2019-01-18T11:50:32Z</time>
      </trkpt>
      <trkpt lat="42.1497" lon="2.34067">
        <ele>1389.9</ele>
        <time>2019-01-18T11:50:40Z</time>
      </trkpt>
      <trkpt lat="42.14963" lon="2.34059">
        <ele>1386.9</ele>
        <time>2019-01-18T11:50:48Z</time>
      </trkpt>
      <trkpt lat="42.14957" lon="2.34049">
        <ele>1386.1</ele>
        <time>2019-01-18T11:50:56Z</time>
      </trkpt>
      <trkpt lat="42.14958" lon="2.34036">
        <ele>1388</ele>
        <time>2019-01-18T11:51:03Z</time>
      </trkpt>
      <trkpt lat="42.14954" lon="2.34025">
        <ele>1389.8</ele>
        <time>2019-01-18T11:51:11Z</time>
      </trkpt>
      <trkpt lat="42.14947" lon="2.34017">
        <ele>1392.1</ele>
        <time>2019-01-18T11:51:18Z</time>
      </trkpt>
      <trkpt lat="42.1494" lon="2.34009">
        <ele>1392.8</ele>
        <time>2019-01-18T11:51:25Z</time>
      </trkpt>
      <trkpt lat="42.1493" lon="2.33999">
        <ele>1393.2</ele>
        <time>2019-01-18T11:51:35Z</time>
      </trkpt>
      <trkpt lat="42.14922" lon="2.33993">
        <ele>1393.6</ele>
        <time>2019-01-18T11:51:42Z</time>
      </trkpt>
      <trkpt lat="42.14914" lon="2.33984">
        <ele>1395.2</ele>
        <time>2019-01-18T11:51:51Z</time>
      </trkpt>
      <trkpt lat="42.14908" lon="2.33973">
        <ele>1397.8</ele>
        <time>2019-01-18T11:51:59Z</time>
      </trkpt>
      <trkpt lat="42.149" lon="2.33965">
        <ele>1398</ele>
        <time>2019-01-18T11:52:07Z</time>
      </trkpt>
      <trkpt lat="42.14891" lon="2.33963">
        <ele>1395.7</ele>
        <time>2019-01-18T11:52:15Z</time>
      </trkpt>
      <trkpt lat="42.14883" lon="2.33957">
        <ele>1394.4</ele>
        <time>2019-01-18T11:52:22Z</time>
      </trkpt>
      <trkpt lat="42.14877" lon="2.33946">
        <ele>1396.6</ele>
        <time>2019-01-18T11:52:30Z</time>
      </trkpt>
      <trkpt lat="42.14875" lon="2.33933">
        <ele>1399.1</ele>
        <time>2019-01-18T11:52:38Z</time>
      </trkpt>
      <trkpt lat="42.14876" lon="2.33919">
        <ele>1403.3</ele>
        <time>2019-01-18T11:52:46Z</time>
      </trkpt>
      <trkpt lat="42.14876" lon="2.33903">
        <ele>1404.6</ele>
        <time>2019-01-18T11:52:56Z</time>
      </trkpt>
      <trkpt lat="42.1487" lon="2.3389">
        <ele>1401.6</ele>
        <time>2019-01-18T11:53:05Z</time>
      </trkpt>
      <trkpt lat="42.14866" lon="2.33878">
        <ele>1401.2</ele>
        <time>2019-01-18T11:53:12Z</time>
      </trkpt>
      <trkpt lat="42.14863" lon="2.33865">
        <ele>1401.9</ele>
        <time>2019-01-18T11:53:21Z</time>
      </trkpt>
      <trkpt lat="42.14854" lon="2.3386">
        <ele>1399.2</ele>
        <time>2019-01-18T11:53:28Z</time>
      </trkpt>
      <trkpt lat="42.14846" lon="2.33853">
        <ele>1397.7</ele>
        <time>2019-01-18T11:53:36Z</time>
      </trkpt>
      <trkpt lat="42.14843" lon="2.33841">
        <ele>1400.1</ele>
        <time>2019-01-18T11:53:43Z</time>
      </trkpt>
      <trkpt lat="42.14841" lon="2.33829">
        <ele>1401.6</ele>
        <time>2019-01-18T11:53:51Z</time>
      </trkpt>
      <trkpt lat="42.14836" lon="2.33818">
        <ele>1401.3</ele>
        <time>2019-01-18T11:53:59Z</time>
      </trkpt>
      <trkpt lat="42.1483" lon="2.33806">
        <ele>1399.8</ele>
        <time>2019-01-18T11:54:07Z</time>
      </trkpt>
      <trkpt lat="42.14826" lon="2.33793">
        <ele>1396.9</ele>
        <time>2019-01-18T11:54:15Z</time>
      </trkpt>
      <trkpt lat="42.14824" lon="2.3378">
        <ele>1395.5</ele>
        <time>2019-01-18T11:54:23Z</time>
      </trkpt>
      <trkpt lat="42.14822" lon="2.33768">
        <ele>1394.3</ele>
        <time>2019-01-18T11:54:31Z</time>
      </trkpt>
      <trkpt lat="42.14817" lon="2.33756">
        <ele>1392.5</ele>
        <time>2019-01-18T11:54:38Z</time>
      </trkpt>
      <trkpt lat="42.14816" lon="2.33743">
        <ele>1393.5</ele>
        <time>2019-01-18T11:54:46Z</time>
      </trkpt>
      <trkpt lat="42.1481" lon="2.33733">
        <ele>1393.7</ele>
        <time>2019-01-18T11:54:54Z</time>
      </trkpt>
      <trkpt lat="42.14805" lon="2.33724">
        <ele>1395.3</ele>
        <time>2019-01-18T11:55:01Z</time>
      </trkpt>
      <trkpt lat="42.14809" lon="2.33712">
        <ele>1396.4</ele>
        <time>2019-01-18T11:55:09Z</time>
      </trkpt>
      <trkpt lat="42.1481" lon="2.33699">
        <ele>1396.7</ele>
        <time>2019-01-18T11:55:16Z</time>
      </trkpt>
      <trkpt lat="42.14809" lon="2.33687">
        <ele>1396.3</ele>
        <time>2019-01-18T11:55:24Z</time>
      </trkpt>
      <trkpt lat="42.14808" lon="2.33674">
        <ele>1395.1</ele>
        <time>2019-01-18T11:55:31Z</time>
      </trkpt>
      <trkpt lat="42.14809" lon="2.33661">
        <ele>1393.7</ele>
        <time>2019-01-18T11:55:39Z</time>
      </trkpt>
      <trkpt lat="42.14806" lon="2.33648">
        <ele>1394.1</ele>
        <time>2019-01-18T11:55:47Z</time>
      </trkpt>
      <trkpt lat="42.14802" lon="2.33637">
        <ele>1392.5</ele>
        <time>2019-01-18T11:55:55Z</time>
      </trkpt>
      <trkpt lat="42.14802" lon="2.33623">
        <ele>1391</ele>
        <time>2019-01-18T11:56:03Z</time>
      </trkpt>
      <trkpt lat="42.14802" lon="2.33611">
        <ele>1389.4</ele>
        <time>2019-01-18T11:56:10Z</time>
      </trkpt>
      <trkpt lat="42.14802" lon="2.33598">
        <ele>1385.4</ele>
        <time>2019-01-18T11:56:18Z</time>
      </trkpt>
      <trkpt lat="42.148" lon="2.33586">
        <ele>1381.4</ele>
        <time>2019-01-18T11:56:25Z</time>
      </trkpt>
      <trkpt lat="42.1479" lon="2.33583">
        <ele>1379.9</ele>
        <time>2019-01-18T11:56:34Z</time>
      </trkpt>
      <trkpt lat="42.1478" lon="2.33586">
        <ele>1380</ele>
        <time>2019-01-18T11:56:42Z</time>
      </trkpt>
      <trkpt lat="42.14769" lon="2.33585">
        <ele>1375.7</ele>
        <time>2019-01-18T11:56:50Z</time>
      </trkpt>
      <trkpt lat="42.14763" lon="2.33594">
        <ele>1374.6</ele>
        <time>2019-01-18T11:56:58Z</time>
      </trkpt>
      <trkpt lat="42.14766" lon="2.33581">
        <ele>1373.2</ele>
        <time>2019-01-18T11:57:06Z</time>
      </trkpt>
      <trkpt lat="42.14772" lon="2.3357">
        <ele>1371.8</ele>
        <time>2019-01-18T11:57:14Z</time>
      </trkpt>
      <trkpt lat="42.14779" lon="2.33562">
        <ele>1371.3</ele>
        <time>2019-01-18T11:57:22Z</time>
      </trkpt>
      <trkpt lat="42.14782" lon="2.3355">
        <ele>1367.8</ele>
        <time>2019-01-18T11:57:29Z</time>
      </trkpt>
      <trkpt lat="42.14782" lon="2.33535">
        <ele>1363.7</ele>
        <time>2019-01-18T11:57:38Z</time>
      </trkpt>
      <trkpt lat="42.14779" lon="2.33522">
        <ele>1361.1</ele>
        <time>2019-01-18T11:57:46Z</time>
      </trkpt>
      <trkpt lat="42.14778" lon="2.33509">
        <ele>1359.3</ele>
        <time>2019-01-18T11:57:54Z</time>
      </trkpt>
      <trkpt lat="42.14775" lon="2.33498">
        <ele>1357.2</ele>
        <time>2019-01-18T11:58:01Z</time>
      </trkpt>
      <trkpt lat="42.14774" lon="2.33484">
        <ele>1357</ele>
        <time>2019-01-18T11:58:10Z</time>
      </trkpt>
      <trkpt lat="42.14772" lon="2.33469">
        <ele>1357.3</ele>
        <time>2019-01-18T11:58:19Z</time>
      </trkpt>
      <trkpt lat="42.14773" lon="2.33455">
        <ele>1357.8</ele>
        <time>2019-01-18T11:58:27Z</time>
      </trkpt>
      <trkpt lat="42.14773" lon="2.33441">
        <ele>1358.1</ele>
        <time>2019-01-18T11:58:35Z</time>
      </trkpt>
      <trkpt lat="42.14772" lon="2.33428">
        <ele>1357.6</ele>
        <time>2019-01-18T11:58:42Z</time>
      </trkpt>
      <trkpt lat="42.14773" lon="2.33414">
        <ele>1357.2</ele>
        <time>2019-01-18T11:58:51Z</time>
      </trkpt>
      <trkpt lat="42.14775" lon="2.33403">
        <ele>1356.1</ele>
        <time>2019-01-18T11:58:58Z</time>
      </trkpt>
      <trkpt lat="42.14775" lon="2.33389">
        <ele>1354.3</ele>
        <time>2019-01-18T11:59:06Z</time>
      </trkpt>
      <trkpt lat="42.14778" lon="2.33376">
        <ele>1354</ele>
        <time>2019-01-18T11:59:14Z</time>
      </trkpt>
      <trkpt lat="42.14783" lon="2.33365">
        <ele>1352.1</ele>
        <time>2019-01-18T11:59:22Z</time>
      </trkpt>
      <trkpt lat="42.14786" lon="2.33352">
        <ele>1353.3</ele>
        <time>2019-01-18T11:59:30Z</time>
      </trkpt>
      <trkpt lat="42.14791" lon="2.33342">
        <ele>1356.3</ele>
        <time>2019-01-18T11:59:37Z</time>
      </trkpt>
      <trkpt lat="42.14799" lon="2.33333">
        <ele>1361.2</ele>
        <time>2019-01-18T11:59:45Z</time>
      </trkpt>
      <trkpt lat="42.14806" lon="2.33325">
        <ele>1360.4</ele>
        <time>2019-01-18T11:59:53Z</time>
      </trkpt>
      <trkpt lat="42.14815" lon="2.33319">
        <ele>1354.8</ele>
        <time>2019-01-18T12:00:01Z</time>
      </trkpt>
      <trkpt lat="42.14822" lon="2.33312">
        <ele>1350.4</ele>
        <time>2019-01-18T12:00:08Z</time>
      </trkpt>
      <trkpt lat="42.14823" lon="2.333">
        <ele>1347.9</ele>
        <time>2019-01-18T12:00:15Z</time>
      </trkpt>
      <trkpt lat="42.14822" lon="2.33287">
        <ele>1344.7</ele>
        <time>2019-01-18T12:00:23Z</time>
      </trkpt>
      <trkpt lat="42.14817" lon="2.33276">
        <ele>1342</ele>
        <time>2019-01-18T12:00:30Z</time>
      </trkpt>
      <trkpt lat="42.14813" lon="2.33265">
        <ele>1337.5</ele>
        <time>2019-01-18T12:00:38Z</time>
      </trkpt>
      <trkpt lat="42.14815" lon="2.33253">
        <ele>1331.5</ele>
        <time>2019-01-18T12:00:45Z</time>
      </trkpt>
      <trkpt lat="42.14815" lon="2.3324">
        <ele>1328.2</ele>
        <time>2019-01-18T12:00:53Z</time>
      </trkpt>
      <trkpt lat="42.14816" lon="2.33225">
        <ele>1324.5</ele>
        <time>2019-01-18T12:01:02Z</time>
      </trkpt>
      <trkpt lat="42.14818" lon="2.33208">
        <ele>1323.3</ele>
        <time>2019-01-18T12:01:12Z</time>
      </trkpt>
      <trkpt lat="42.14819" lon="2.33195">
        <ele>1322.5</ele>
        <time>2019-01-18T12:01:20Z</time>
      </trkpt>
      <trkpt lat="42.14818" lon="2.3318">
        <ele>1320</ele>
        <time>2019-01-18T12:01:29Z</time>
      </trkpt>
      <trkpt lat="42.14817" lon="2.33166">
        <ele>1317.5</ele>
        <time>2019-01-18T12:01:37Z</time>
      </trkpt>
      <trkpt lat="42.14815" lon="2.33154">
        <ele>1316.4</ele>
        <time>2019-01-18T12:01:45Z</time>
      </trkpt>
      <trkpt lat="42.14811" lon="2.33142">
        <ele>1315.7</ele>
        <time>2019-01-18T12:01:52Z</time>
      </trkpt>
      <trkpt lat="42.14807" lon="2.3313">
        <ele>1316.6</ele>
        <time>2019-01-18T12:02:00Z</time>
      </trkpt>
      <trkpt lat="42.14806" lon="2.33115">
        <ele>1317.7</ele>
        <time>2019-01-18T12:02:09Z</time>
      </trkpt>
      <trkpt lat="42.14806" lon="2.33103">
        <ele>1317.7</ele>
        <time>2019-01-18T12:02:16Z</time>
      </trkpt>
      <trkpt lat="42.14805" lon="2.33091">
        <ele>1317.9</ele>
        <time>2019-01-18T12:02:23Z</time>
      </trkpt>
      <trkpt lat="42.14801" lon="2.33079">
        <ele>1315.2</ele>
        <time>2019-01-18T12:02:31Z</time>
      </trkpt>
      <trkpt lat="42.148" lon="2.33066">
        <ele>1313.8</ele>
        <time>2019-01-18T12:02:39Z</time>
      </trkpt>
      <trkpt lat="42.14801" lon="2.33053">
        <ele>1313</ele>
        <time>2019-01-18T12:02:47Z</time>
      </trkpt>
      <trkpt lat="42.14803" lon="2.3304">
        <ele>1311.7</ele>
        <time>2019-01-18T12:02:55Z</time>
      </trkpt>
      <trkpt lat="42.14803" lon="2.33028">
        <ele>1310.3</ele>
        <time>2019-01-18T12:03:02Z</time>
      </trkpt>
      <trkpt lat="42.14799" lon="2.33016">
        <ele>1308.6</ele>
        <time>2019-01-18T12:03:09Z</time>
      </trkpt>
      <trkpt lat="42.14795" lon="2.33005">
        <ele>1307</ele>
        <time>2019-01-18T12:03:17Z</time>
      </trkpt>
      <trkpt lat="42.14792" lon="2.32991">
        <ele>1305</ele>
        <time>2019-01-18T12:03:25Z</time>
      </trkpt>
      <trkpt lat="42.14791" lon="2.32979">
        <ele>1303.1</ele>
        <time>2019-01-18T12:03:33Z</time>
      </trkpt>
      <trkpt lat="42.14789" lon="2.32965">
        <ele>1301.8</ele>
        <time>2019-01-18T12:03:41Z</time>
      </trkpt>
      <trkpt lat="42.14785" lon="2.32953">
        <ele>1301.5</ele>
        <time>2019-01-18T12:03:49Z</time>
      </trkpt>
      <trkpt lat="42.14777" lon="2.32947">
        <ele>1303</ele>
        <time>2019-01-18T12:03:56Z</time>
      </trkpt>
      <trkpt lat="42.14769" lon="2.32955">
        <ele>1300.1</ele>
        <time>2019-01-18T12:04:04Z</time>
      </trkpt>
      <trkpt lat="42.14766" lon="2.32968">
        <ele>1299</ele>
        <time>2019-01-18T12:04:12Z</time>
      </trkpt>
      <trkpt lat="42.14764" lon="2.3298">
        <ele>1298.4</ele>
        <time>2019-01-18T12:04:20Z</time>
      </trkpt>
      <trkpt lat="42.14762" lon="2.32993">
        <ele>1297.8</ele>
        <time>2019-01-18T12:04:27Z</time>
      </trkpt>
      <trkpt lat="42.14758" lon="2.33004">
        <ele>1296.7</ele>
        <time>2019-01-18T12:04:35Z</time>
      </trkpt>
      <trkpt lat="42.14754" lon="2.33017">
        <ele>1296.2</ele>
        <time>2019-01-18T12:04:43Z</time>
      </trkpt>
      <trkpt lat="42.14753" lon="2.3303">
        <ele>1296.4</ele>
        <time>2019-01-18T12:04:51Z</time>
      </trkpt>
      <trkpt lat="42.14748" lon="2.33043">
        <ele>1292.6</ele>
        <time>2019-01-18T12:04:59Z</time>
      </trkpt>
      <trkpt lat="42.14751" lon="2.33056">
        <ele>1293.6</ele>
        <time>2019-01-18T12:05:07Z</time>
      </trkpt>
      <trkpt lat="42.14754" lon="2.33068">
        <ele>1292.1</ele>
        <time>2019-01-18T12:05:15Z</time>
      </trkpt>
      <trkpt lat="42.14753" lon="2.33081">
        <ele>1288.5</ele>
        <time>2019-01-18T12:05:22Z</time>
      </trkpt>
      <trkpt lat="42.14759" lon="2.33092">
        <ele>1288.8</ele>
        <time>2019-01-18T12:05:30Z</time>
      </trkpt>
      <trkpt lat="42.14751" lon="2.33099">
        <ele>1282.3</ele>
        <time>2019-01-18T12:05:38Z</time>
      </trkpt>
      <trkpt lat="42.14745" lon="2.33108">
        <ele>1274.8</ele>
        <time>2019-01-18T12:05:45Z</time>
      </trkpt>
      <trkpt lat="42.14741" lon="2.33121">
        <ele>1269.5</ele>
        <time>2019-01-18T12:05:54Z</time>
      </trkpt>
      <trkpt lat="42.1474" lon="2.33134">
        <ele>1268.2</ele>
        <time>2019-01-18T12:06:01Z</time>
      </trkpt>
      <trkpt lat="42.14736" lon="2.33146">
        <ele>1265.5</ele>
        <time>2019-01-18T12:06:09Z</time>
      </trkpt>
      <trkpt lat="42.14727" lon="2.33153">
        <ele>1261</ele>
        <time>2019-01-18T12:06:17Z</time>
      </trkpt>
      <trkpt lat="42.14717" lon="2.33161">
        <ele>1258</ele>
        <time>2019-01-18T12:06:26Z</time>
      </trkpt>
      <trkpt lat="42.14709" lon="2.33169">
        <ele>1256.8</ele>
        <time>2019-01-18T12:06:34Z</time>
      </trkpt>
      <trkpt lat="42.14699" lon="2.33173">
        <ele>1254.3</ele>
        <time>2019-01-18T12:06:42Z</time>
      </trkpt>
      <trkpt lat="42.14691" lon="2.3318">
        <ele>1253.9</ele>
        <time>2019-01-18T12:06:50Z</time>
      </trkpt>
      <trkpt lat="42.14683" lon="2.33186">
        <ele>1253.2</ele>
        <time>2019-01-18T12:06:58Z</time>
      </trkpt>
      <trkpt lat="42.14673" lon="2.33189">
        <ele>1250.3</ele>
        <time>2019-01-18T12:07:05Z</time>
      </trkpt>
      <trkpt lat="42.14667" lon="2.33199">
        <ele>1250.3</ele>
        <time>2019-01-18T12:07:14Z</time>
      </trkpt>
      <trkpt lat="42.14658" lon="2.33205">
        <ele>1247.8</ele>
        <time>2019-01-18T12:07:21Z</time>
      </trkpt>
      <trkpt lat="42.14649" lon="2.33209">
        <ele>1244.6</ele>
        <time>2019-01-18T12:07:29Z</time>
      </trkpt>
      <trkpt lat="42.14652" lon="2.33197">
        <ele>1243.5</ele>
        <time>2019-01-18T12:07:36Z</time>
      </trkpt>
      <trkpt lat="42.14655" lon="2.33185">
        <ele>1241.9</ele>
        <time>2019-01-18T12:07:44Z</time>
      </trkpt>
      <trkpt lat="42.14659" lon="2.33173">
        <ele>1239.6</ele>
        <time>2019-01-18T12:07:51Z</time>
      </trkpt>
      <trkpt lat="42.1466" lon="2.33159">
        <ele>1235.6</ele>
        <time>2019-01-18T12:08:00Z</time>
      </trkpt>
      <trkpt lat="42.14658" lon="2.33147">
        <ele>1230.6</ele>
        <time>2019-01-18T12:08:07Z</time>
      </trkpt>
      <trkpt lat="42.14647" lon="2.33148">
        <ele>1228</ele>
        <time>2019-01-18T12:08:16Z</time>
      </trkpt>
      <trkpt lat="42.14638" lon="2.33147">
        <ele>1224.8</ele>
        <time>2019-01-18T12:08:23Z</time>
      </trkpt>
      <trkpt lat="42.14628" lon="2.33148">
        <ele>1221.3</ele>
        <time>2019-01-18T12:08:31Z</time>
      </trkpt>
      <trkpt lat="42.14622" lon="2.33158">
        <ele>1221.6</ele>
        <time>2019-01-18T12:08:39Z</time>
      </trkpt>
      <trkpt lat="42.14621" lon="2.33171">
        <ele>1223.2</ele>
        <time>2019-01-18T12:08:47Z</time>
      </trkpt>
      <trkpt lat="42.14616" lon="2.33182">
        <ele>1220.1</ele>
        <time>2019-01-18T12:08:54Z</time>
      </trkpt>
      <trkpt lat="42.1461" lon="2.33191">
        <ele>1216.1</ele>
        <time>2019-01-18T12:09:02Z</time>
      </trkpt>
      <trkpt lat="42.14607" lon="2.33207">
        <ele>1217.9</ele>
        <time>2019-01-18T12:09:11Z</time>
      </trkpt>
      <trkpt lat="42.146" lon="2.33216">
        <ele>1215.5</ele>
        <time>2019-01-18T12:09:19Z</time>
      </trkpt>
      <trkpt lat="42.1459" lon="2.33212">
        <ele>1209</ele>
        <time>2019-01-18T12:09:27Z</time>
      </trkpt>
      <trkpt lat="42.1458" lon="2.33216">
        <ele>1204.6</ele>
        <time>2019-01-18T12:09:35Z</time>
      </trkpt>
      <trkpt lat="42.14571" lon="2.33213">
        <ele>1199</ele>
        <time>2019-01-18T12:09:43Z</time>
      </trkpt>
      <trkpt lat="42.14577" lon="2.33202">
        <ele>1199.2</ele>
        <time>2019-01-18T12:09:50Z</time>
      </trkpt>
      <trkpt lat="42.14584" lon="2.33193">
        <ele>1200.1</ele>
        <time>2019-01-18T12:09:59Z</time>
      </trkpt>
      <trkpt lat="42.14588" lon="2.33179">
        <ele>1200.2</ele>
        <time>2019-01-18T12:10:08Z</time>
      </trkpt>
      <trkpt lat="42.14588" lon="2.33164">
        <ele>1197.8</ele>
        <time>2019-01-18T12:10:16Z</time>
      </trkpt>
      <trkpt lat="42.14587" lon="2.33152">
        <ele>1196.5</ele>
        <time>2019-01-18T12:10:24Z</time>
      </trkpt>
      <trkpt lat="42.14587" lon="2.3314">
        <ele>1195.8</ele>
        <time>2019-01-18T12:10:31Z</time>
      </trkpt>
      <trkpt lat="42.14588" lon="2.33128">
        <ele>1196.2</ele>
        <time>2019-01-18T12:10:38Z</time>
      </trkpt>
      <trkpt lat="42.14592" lon="2.33114">
        <ele>1196.6</ele>
        <time>2019-01-18T12:10:47Z</time>
      </trkpt>
      <trkpt lat="42.14595" lon="2.331">
        <ele>1195.1</ele>
        <time>2019-01-18T12:10:55Z</time>
      </trkpt>
      <trkpt lat="42.14602" lon="2.33092">
        <ele>1195.4</ele>
        <time>2019-01-18T12:11:03Z</time>
      </trkpt>
      <trkpt lat="42.14611" lon="2.33086">
        <ele>1196.9</ele>
        <time>2019-01-18T12:11:11Z</time>
      </trkpt>
      <trkpt lat="42.14616" lon="2.33072">
        <ele>1195.5</ele>
        <time>2019-01-18T12:11:20Z</time>
      </trkpt>
      <trkpt lat="42.14616" lon="2.3306">
        <ele>1193.2</ele>
        <time>2019-01-18T12:11:27Z</time>
      </trkpt>
      <trkpt lat="42.14613" lon="2.33048">
        <ele>1190.9</ele>
        <time>2019-01-18T12:11:35Z</time>
      </trkpt>
      <trkpt lat="42.14612" lon="2.33036">
        <ele>1190.4</ele>
        <time>2019-01-18T12:11:42Z</time>
      </trkpt>
      <trkpt lat="42.14612" lon="2.33023">
        <ele>1190.1</ele>
        <time>2019-01-18T12:11:50Z</time>
      </trkpt>
      <trkpt lat="42.1461" lon="2.3301">
        <ele>1188.6</ele>
        <time>2019-01-18T12:11:58Z</time>
      </trkpt>
      <trkpt lat="42.14609" lon="2.32998">
        <ele>1188.1</ele>
        <time>2019-01-18T12:12:05Z</time>
      </trkpt>
      <trkpt lat="42.14604" lon="2.32984">
        <ele>1187.4</ele>
        <time>2019-01-18T12:12:14Z</time>
      </trkpt>
      <trkpt lat="42.14599" lon="2.32972">
        <ele>1185.8</ele>
        <time>2019-01-18T12:12:22Z</time>
      </trkpt>
      <trkpt lat="42.14592" lon="2.32953">
        <ele>1184.7</ele>
        <time>2019-01-18T12:12:35Z</time>
      </trkpt>
      <trkpt lat="42.14585" lon="2.32942">
        <ele>1183.1</ele>
        <time>2019-01-18T12:12:43Z</time>
      </trkpt>
      <trkpt lat="42.14578" lon="2.32934">
        <ele>1181.1</ele>
        <time>2019-01-18T12:12:51Z</time>
      </trkpt>
      <trkpt lat="42.14569" lon="2.32929">
        <ele>1178.3</ele>
        <time>2019-01-18T12:12:58Z</time>
      </trkpt>
      <trkpt lat="42.14562" lon="2.32922">
        <ele>1177.1</ele>
        <time>2019-01-18T12:13:05Z</time>
      </trkpt>
      <trkpt lat="42.14555" lon="2.32912">
        <ele>1177</ele>
        <time>2019-01-18T12:13:13Z</time>
      </trkpt>
      <trkpt lat="42.14555" lon="2.329">
        <ele>1179.9</ele>
        <time>2019-01-18T12:13:21Z</time>
      </trkpt>
      <trkpt lat="42.1456" lon="2.32888">
        <ele>1184.9</ele>
        <time>2019-01-18T12:13:29Z</time>
      </trkpt>
      <trkpt lat="42.14566" lon="2.32878">
        <ele>1185.6</ele>
        <time>2019-01-18T12:13:36Z</time>
      </trkpt>
      <trkpt lat="42.14573" lon="2.3287">
        <ele>1187.6</ele>
        <time>2019-01-18T12:13:43Z</time>
      </trkpt>
      <trkpt lat="42.14577" lon="2.32859">
        <ele>1187.5</ele>
        <time>2019-01-18T12:13:51Z</time>
      </trkpt>
      <trkpt lat="42.14579" lon="2.32847">
        <ele>1186.8</ele>
        <time>2019-01-18T12:13:59Z</time>
      </trkpt>
      <trkpt lat="42.14582" lon="2.32831">
        <ele>1186.3</ele>
        <time>2019-01-18T12:14:08Z</time>
      </trkpt>
      <trkpt lat="42.14579" lon="2.32817">
        <ele>1184.8</ele>
        <time>2019-01-18T12:14:17Z</time>
      </trkpt>
      <trkpt lat="42.14574" lon="2.32807">
        <ele>1181.9</ele>
        <time>2019-01-18T12:14:24Z</time>
      </trkpt>
      <trkpt lat="42.14571" lon="2.32795">
        <ele>1181.4</ele>
        <time>2019-01-18T12:14:31Z</time>
      </trkpt>
      <trkpt lat="42.14572" lon="2.32781">
        <ele>1182.9</ele>
        <time>2019-01-18T12:14:40Z</time>
      </trkpt>
      <trkpt lat="42.14569" lon="2.32767">
        <ele>1182</ele>
        <time>2019-01-18T12:14:48Z</time>
      </trkpt>
      <trkpt lat="42.14572" lon="2.32752">
        <ele>1182.2</ele>
        <time>2019-01-18T12:14:58Z</time>
      </trkpt>
      <trkpt lat="42.14574" lon="2.3274">
        <ele>1179.9</ele>
        <time>2019-01-18T12:15:05Z</time>
      </trkpt>
      <trkpt lat="42.14582" lon="2.32732">
        <ele>1180.4</ele>
        <time>2019-01-18T12:15:13Z</time>
      </trkpt>
      <trkpt lat="42.14585" lon="2.32718">
        <ele>1179.5</ele>
        <time>2019-01-18T12:15:21Z</time>
      </trkpt>
      <trkpt lat="42.14589" lon="2.32706">
        <ele>1181.1</ele>
        <time>2019-01-18T12:15:30Z</time>
      </trkpt>
      <trkpt lat="42.1459" lon="2.32692">
        <ele>1180.7</ele>
        <time>2019-01-18T12:15:38Z</time>
      </trkpt>
      <trkpt lat="42.14582" lon="2.32681">
        <ele>1177.5</ele>
        <time>2019-01-18T12:15:47Z</time>
      </trkpt>
      <trkpt lat="42.14578" lon="2.32668">
        <ele>1175.9</ele>
        <time>2019-01-18T12:15:56Z</time>
      </trkpt>
      <trkpt lat="42.14574" lon="2.32656">
        <ele>1174.4</ele>
        <time>2019-01-18T12:16:03Z</time>
      </trkpt>
      <trkpt lat="42.14572" lon="2.32643">
        <ele>1173.9</ele>
        <time>2019-01-18T12:16:11Z</time>
      </trkpt>
      <trkpt lat="42.14576" lon="2.32631">
        <ele>1174.8</ele>
        <time>2019-01-18T12:16:19Z</time>
      </trkpt>
      <trkpt lat="42.14579" lon="2.32618">
        <ele>1173.8</ele>
        <time>2019-01-18T12:16:27Z</time>
      </trkpt>
      <trkpt lat="42.14586" lon="2.32608">
        <ele>1174.7</ele>
        <time>2019-01-18T12:16:35Z</time>
      </trkpt>
      <trkpt lat="42.14587" lon="2.32596">
        <ele>1172.8</ele>
        <time>2019-01-18T12:16:42Z</time>
      </trkpt>
      <trkpt lat="42.14585" lon="2.32583">
        <ele>1168.9</ele>
        <time>2019-01-18T12:16:50Z</time>
      </trkpt>
      <trkpt lat="42.14583" lon="2.3257">
        <ele>1165.7</ele>
        <time>2019-01-18T12:16:58Z</time>
      </trkpt>
      <trkpt lat="42.14578" lon="2.32557">
        <ele>1161.1</ele>
        <time>2019-01-18T12:17:06Z</time>
      </trkpt>
      <trkpt lat="42.14572" lon="2.32546">
        <ele>1156.9</ele>
        <time>2019-01-18T12:17:14Z</time>
      </trkpt>
      <trkpt lat="42.14577" lon="2.32532">
        <ele>1158.8</ele>
        <time>2019-01-18T12:17:23Z</time>
      </trkpt>
      <trkpt lat="42.14581" lon="2.32521">
        <ele>1159.7</ele>
        <time>2019-01-18T12:17:31Z</time>
      </trkpt>
      <trkpt lat="42.14584" lon="2.32508">
        <ele>1159.4</ele>
        <time>2019-01-18T12:17:39Z</time>
      </trkpt>
      <trkpt lat="42.14587" lon="2.32496">
        <ele>1158.3</ele>
        <time>2019-01-18T12:17:46Z</time>
      </trkpt>
      <trkpt lat="42.14585" lon="2.32483">
        <ele>1154.1</ele>
        <time>2019-01-18T12:17:54Z</time>
      </trkpt>
      <trkpt lat="42.14582" lon="2.3247">
        <ele>1149.6</ele>
        <time>2019-01-18T12:18:02Z</time>
      </trkpt>
      <trkpt lat="42.14585" lon="2.32458">
        <ele>1151.8</ele>
        <time>2019-01-18T12:18:10Z</time>
      </trkpt>
      <trkpt lat="42.14592" lon="2.32447">
        <ele>1154.8</ele>
        <time>2019-01-18T12:18:18Z</time>
      </trkpt>
      <trkpt lat="42.14598" lon="2.32437">
        <ele>1156.1</ele>
        <time>2019-01-18T12:18:26Z</time>
      </trkpt>
      <trkpt lat="42.14606" lon="2.32429">
        <ele>1157.4</ele>
        <time>2019-01-18T12:18:34Z</time>
      </trkpt>
      <trkpt lat="42.14613" lon="2.3242">
        <ele>1158.1</ele>
        <time>2019-01-18T12:18:42Z</time>
      </trkpt>
      <trkpt lat="42.14615" lon="2.32407">
        <ele>1154.9</ele>
        <time>2019-01-18T12:18:50Z</time>
      </trkpt>
      <trkpt lat="42.14617" lon="2.32392">
        <ele>1151</ele>
        <time>2019-01-18T12:18:59Z</time>
      </trkpt>
      <trkpt lat="42.14616" lon="2.32376">
        <ele>1146.5</ele>
        <time>2019-01-18T12:19:08Z</time>
      </trkpt>
      <trkpt lat="42.14617" lon="2.32363">
        <ele>1144.8</ele>
        <time>2019-01-18T12:19:16Z</time>
      </trkpt>
      <trkpt lat="42.1462" lon="2.3235">
        <ele>1144.9</ele>
        <time>2019-01-18T12:19:24Z</time>
      </trkpt>
      <trkpt lat="42.14622" lon="2.32337">
        <ele>1145</ele>
        <time>2019-01-18T12:19:32Z</time>
      </trkpt>
      <trkpt lat="42.14629" lon="2.32325">
        <ele>1146.2</ele>
        <time>2019-01-18T12:19:41Z</time>
      </trkpt>
      <trkpt lat="42.14634" lon="2.32312">
        <ele>1144.7</ele>
        <time>2019-01-18T12:19:50Z</time>
      </trkpt>
      <trkpt lat="42.14641" lon="2.32302">
        <ele>1144.1</ele>
        <time>2019-01-18T12:19:58Z</time>
      </trkpt>
      <trkpt lat="42.14648" lon="2.32292">
        <ele>1143.9</ele>
        <time>2019-01-18T12:20:06Z</time>
      </trkpt>
      <trkpt lat="42.14656" lon="2.32273">
        <ele>1139.7</ele>
        <time>2019-01-18T12:20:19Z</time>
      </trkpt>
      <trkpt lat="42.14659" lon="2.32261">
        <ele>1136.2</ele>
        <time>2019-01-18T12:20:27Z</time>
      </trkpt>
      <trkpt lat="42.14659" lon="2.32247">
        <ele>1130.4</ele>
        <time>2019-01-18T12:20:35Z</time>
      </trkpt>
      <trkpt lat="42.1466" lon="2.32233">
        <ele>1122.9</ele>
        <time>2019-01-18T12:20:43Z</time>
      </trkpt>
      <trkpt lat="42.14671" lon="2.32214">
        <ele>1118.2</ele>
        <time>2019-01-18T12:20:58Z</time>
      </trkpt>
      <trkpt lat="42.14675" lon="2.32204">
        <ele>1114.2</ele>
        <time>2019-01-18T12:21:05Z</time>
      </trkpt>
      <trkpt lat="42.14683" lon="2.32191">
        <ele>1109.8</ele>
        <time>2019-01-18T12:21:14Z</time>
      </trkpt>
      <trkpt lat="42.1469" lon="2.32183">
        <ele>1106.7</ele>
        <time>2019-01-18T12:21:22Z</time>
      </trkpt>
      <trkpt lat="42.14696" lon="2.32175">
        <ele>1102.8</ele>
        <time>2019-01-18T12:21:29Z</time>
      </trkpt>
      <trkpt lat="42.14705" lon="2.3217">
        <ele>1102.6</ele>
        <time>2019-01-18T12:21:36Z</time>
      </trkpt>
      <trkpt lat="42.14712" lon="2.32162">
        <ele>1098.9</ele>
        <time>2019-01-18T12:21:44Z</time>
      </trkpt>
      <trkpt lat="42.14722" lon="2.3216">
        <ele>1100.5</ele>
        <time>2019-01-18T12:21:52Z</time>
      </trkpt>
      <trkpt lat="42.14723" lon="2.32147">
        <ele>1092.7</ele>
        <time>2019-01-18T12:21:59Z</time>
      </trkpt>
      <trkpt lat="42.14717" lon="2.32139">
        <ele>1084.8</ele>
        <time>2019-01-18T12:22:07Z</time>
      </trkpt>
      <trkpt lat="42.14711" lon="2.32128">
        <ele>1078.3</ele>
        <time>2019-01-18T12:22:14Z</time>
      </trkpt>
      <trkpt lat="42.1471" lon="2.32116">
        <ele>1073</ele>
        <time>2019-01-18T12:22:22Z</time>
      </trkpt>
      <trkpt lat="42.14707" lon="2.32102">
        <ele>1074.5</ele>
        <time>2019-01-18T12:22:30Z</time>
      </trkpt>
      <trkpt lat="42.1471" lon="2.32114">
        <ele>1072.4</ele>
        <time>2019-01-18T12:22:38Z</time>
      </trkpt>
      <trkpt lat="42.14714" lon="2.32125">
        <ele>1077.9</ele>
        <time>2019-01-18T12:22:45Z</time>
      </trkpt>
      <trkpt lat="42.14708" lon="2.32115">
        <ele>1072.5</ele>
        <time>2019-01-18T12:22:53Z</time>
      </trkpt>
      <trkpt lat="42.14714" lon="2.32124">
        <ele>1077.5</ele>
        <time>2019-01-18T12:23:00Z</time>
      </trkpt>
      <trkpt lat="42.1472" lon="2.32139">
        <ele>1085.8</ele>
        <time>2019-01-18T12:23:10Z</time>
      </trkpt>
      <trkpt lat="42.1473" lon="2.32139">
        <ele>1089.8</ele>
        <time>2019-01-18T12:23:18Z</time>
      </trkpt>
      <trkpt lat="42.14739" lon="2.32137">
        <ele>1091.8</ele>
        <time>2019-01-18T12:23:25Z</time>
      </trkpt>
      <trkpt lat="42.14748" lon="2.32133">
        <ele>1092.5</ele>
        <time>2019-01-18T12:23:33Z</time>
      </trkpt>
      <trkpt lat="42.14756" lon="2.32126">
        <ele>1088.6</ele>
        <time>2019-01-18T12:23:41Z</time>
      </trkpt>
      <trkpt lat="42.14765" lon="2.32119">
        <ele>1084.9</ele>
        <time>2019-01-18T12:23:49Z</time>
      </trkpt>
      <trkpt lat="42.14774" lon="2.32121">
        <ele>1086.8</ele>
        <time>2019-01-18T12:23:56Z</time>
      </trkpt>
      <trkpt lat="42.14777" lon="2.32108">
        <ele>1082.2</ele>
        <time>2019-01-18T12:24:04Z</time>
      </trkpt>
      <trkpt lat="42.14772" lon="2.32119">
        <ele>1085.4</ele>
        <time>2019-01-18T12:24:11Z</time>
      </trkpt>
      <trkpt lat="42.14763" lon="2.32119">
        <ele>1084.4</ele>
        <time>2019-01-18T12:24:19Z</time>
      </trkpt>
      <trkpt lat="42.14761" lon="2.32106">
        <ele>1080.6</ele>
        <time>2019-01-18T12:24:27Z</time>
      </trkpt>
      <trkpt lat="42.14761" lon="2.32093">
        <ele>1084</ele>
        <time>2019-01-18T12:24:34Z</time>
      </trkpt>
      <trkpt lat="42.14757" lon="2.32082">
        <ele>1086.4</ele>
        <time>2019-01-18T12:24:42Z</time>
      </trkpt>
      <trkpt lat="42.14747" lon="2.32081">
        <ele>1085.2</ele>
        <time>2019-01-18T12:24:49Z</time>
      </trkpt>
      <trkpt lat="42.1474" lon="2.32074">
        <ele>1090.8</ele>
        <time>2019-01-18T12:24:57Z</time>
      </trkpt>
      <trkpt lat="42.1473" lon="2.32068">
        <ele>1094.5</ele>
        <time>2019-01-18T12:25:06Z</time>
      </trkpt>
      <trkpt lat="42.14721" lon="2.32063">
        <ele>1097.2</ele>
        <time>2019-01-18T12:25:14Z</time>
      </trkpt>
      <trkpt lat="42.14711" lon="2.32055">
        <ele>1101</ele>
        <time>2019-01-18T12:25:22Z</time>
      </trkpt>
      <trkpt lat="42.14706" lon="2.32044">
        <ele>1107.7</ele>
        <time>2019-01-18T12:25:30Z</time>
      </trkpt>
      <trkpt lat="42.14701" lon="2.32033">
        <ele>1113.7</ele>
        <time>2019-01-18T12:25:38Z</time>
      </trkpt>
      <trkpt lat="42.14692" lon="2.32029">
        <ele>1113.2</ele>
        <time>2019-01-18T12:25:45Z</time>
      </trkpt>
      <trkpt lat="42.14682" lon="2.32023">
        <ele>1113.3</ele>
        <time>2019-01-18T12:25:54Z</time>
      </trkpt>
      <trkpt lat="42.14673" lon="2.32015">
        <ele>1114.9</ele>
        <time>2019-01-18T12:26:03Z</time>
      </trkpt>
      <trkpt lat="42.14663" lon="2.32005">
        <ele>1117.5</ele>
        <time>2019-01-18T12:26:12Z</time>
      </trkpt>
      <trkpt lat="42.14654" lon="2.32001">
        <ele>1117</ele>
        <time>2019-01-18T12:26:20Z</time>
      </trkpt>
      <trkpt lat="42.14645" lon="2.31996">
        <ele>1117.1</ele>
        <time>2019-01-18T12:26:28Z</time>
      </trkpt>
      <trkpt lat="42.14636" lon="2.3199">
        <ele>1118.7</ele>
        <time>2019-01-18T12:26:36Z</time>
      </trkpt>
      <trkpt lat="42.14627" lon="2.31984">
        <ele>1121.8</ele>
        <time>2019-01-18T12:26:44Z</time>
      </trkpt>
      <trkpt lat="42.14617" lon="2.31983">
        <ele>1121.5</ele>
        <time>2019-01-18T12:26:52Z</time>
      </trkpt>
      <trkpt lat="42.14607" lon="2.31985">
        <ele>1121.2</ele>
        <time>2019-01-18T12:27:01Z</time>
      </trkpt>
      <trkpt lat="42.14597" lon="2.31982">
        <ele>1123.3</ele>
        <time>2019-01-18T12:27:09Z</time>
      </trkpt>
      <trkpt lat="42.14586" lon="2.31985">
        <ele>1122.5</ele>
        <time>2019-01-18T12:27:17Z</time>
      </trkpt>
      <trkpt lat="42.14577" lon="2.31986">
        <ele>1122.7</ele>
        <time>2019-01-18T12:27:25Z</time>
      </trkpt>
      <trkpt lat="42.14565" lon="2.31987">
        <ele>1124.1</ele>
        <time>2019-01-18T12:27:34Z</time>
      </trkpt>
      <trkpt lat="42.14555" lon="2.31988">
        <ele>1124</ele>
        <time>2019-01-18T12:27:42Z</time>
      </trkpt>
      <trkpt lat="42.14546" lon="2.31988">
        <ele>1127.4</ele>
        <time>2019-01-18T12:27:50Z</time>
      </trkpt>
      <trkpt lat="42.14543" lon="2.32001">
        <ele>1122.2</ele>
        <time>2019-01-18T12:27:58Z</time>
      </trkpt>
      <trkpt lat="42.1454" lon="2.32014">
        <ele>1121.7</ele>
        <time>2019-01-18T12:28:06Z</time>
      </trkpt>
      <trkpt lat="42.14539" lon="2.32027">
        <ele>1120.5</ele>
        <time>2019-01-18T12:28:14Z</time>
      </trkpt>
      <trkpt lat="42.1453" lon="2.32027">
        <ele>1126.6</ele>
        <time>2019-01-18T12:28:21Z</time>
      </trkpt>
      <trkpt lat="42.14518" lon="2.32021">
        <ele>1131.7</ele>
        <time>2019-01-18T12:28:31Z</time>
      </trkpt>
      <trkpt lat="42.14509" lon="2.32023">
        <ele>1133.9</ele>
        <time>2019-01-18T12:28:39Z</time>
      </trkpt>
      <trkpt lat="42.14499" lon="2.3202">
        <ele>1138.1</ele>
        <time>2019-01-18T12:28:46Z</time>
      </trkpt>
      <trkpt lat="42.1449" lon="2.32021">
        <ele>1138.1</ele>
        <time>2019-01-18T12:28:54Z</time>
      </trkpt>
      <trkpt lat="42.14481" lon="2.3202">
        <ele>1139.3</ele>
        <time>2019-01-18T12:29:01Z</time>
      </trkpt>
      <trkpt lat="42.14475" lon="2.32033">
        <ele>1132.8</ele>
        <time>2019-01-18T12:29:11Z</time>
      </trkpt>
      <trkpt lat="42.14473" lon="2.32045">
        <ele>1128</ele>
        <time>2019-01-18T12:29:18Z</time>
      </trkpt>
      <trkpt lat="42.14466" lon="2.32055">
        <ele>1127.2</ele>
        <time>2019-01-18T12:29:26Z</time>
      </trkpt>
      <trkpt lat="42.14457" lon="2.32056">
        <ele>1131.1</ele>
        <time>2019-01-18T12:29:33Z</time>
      </trkpt>
      <trkpt lat="42.14446" lon="2.32053">
        <ele>1137</ele>
        <time>2019-01-18T12:29:42Z</time>
      </trkpt>
      <trkpt lat="42.14442" lon="2.32042">
        <ele>1141.1</ele>
        <time>2019-01-18T12:29:49Z</time>
      </trkpt>
      <trkpt lat="42.14439" lon="2.32029">
        <ele>1144</ele>
        <time>2019-01-18T12:29:57Z</time>
      </trkpt>
      <trkpt lat="42.14435" lon="2.32018">
        <ele>1146</ele>
        <time>2019-01-18T12:30:05Z</time>
      </trkpt>
      <trkpt lat="42.14429" lon="2.32007">
        <ele>1147.5</ele>
        <time>2019-01-18T12:30:13Z</time>
      </trkpt>
      <trkpt lat="42.14422" lon="2.31999">
        <ele>1147.8</ele>
        <time>2019-01-18T12:30:20Z</time>
      </trkpt>
      <trkpt lat="42.14411" lon="2.31994">
        <ele>1146.5</ele>
        <time>2019-01-18T12:30:29Z</time>
      </trkpt>
      <trkpt lat="42.14403" lon="2.31986">
        <ele>1146.5</ele>
        <time>2019-01-18T12:30:37Z</time>
      </trkpt>
      <trkpt lat="42.14396" lon="2.31978">
        <ele>1146.3</ele>
        <time>2019-01-18T12:30:45Z</time>
      </trkpt>
      <trkpt lat="42.14389" lon="2.31968">
        <ele>1146.2</ele>
        <time>2019-01-18T12:30:53Z</time>
      </trkpt>
      <trkpt lat="42.14387" lon="2.31956">
        <ele>1148.1</ele>
        <time>2019-01-18T12:31:00Z</time>
      </trkpt>
      <trkpt lat="42.14381" lon="2.31946">
        <ele>1148.2</ele>
        <time>2019-01-18T12:31:08Z</time>
      </trkpt>
      <trkpt lat="42.14372" lon="2.31946">
        <ele>1145.1</ele>
        <time>2019-01-18T12:31:15Z</time>
      </trkpt>
      <trkpt lat="42.14362" lon="2.31942">
        <ele>1143.4</ele>
        <time>2019-01-18T12:31:23Z</time>
      </trkpt>
      <trkpt lat="42.14352" lon="2.3194">
        <ele>1141.5</ele>
        <time>2019-01-18T12:31:32Z</time>
      </trkpt>
      <trkpt lat="42.14343" lon="2.31942">
        <ele>1138.9</ele>
        <time>2019-01-18T12:31:39Z</time>
      </trkpt>
      <trkpt lat="42.14333" lon="2.31942">
        <ele>1136.8</ele>
        <time>2019-01-18T12:31:47Z</time>
      </trkpt>
      <trkpt lat="42.14323" lon="2.31936">
        <ele>1137.8</ele>
        <time>2019-01-18T12:31:56Z</time>
      </trkpt>
      <trkpt lat="42.14314" lon="2.31934">
        <ele>1137.3</ele>
        <time>2019-01-18T12:32:04Z</time>
      </trkpt>
      <trkpt lat="42.14301" lon="2.31931">
        <ele>1137.1</ele>
        <time>2019-01-18T12:32:14Z</time>
      </trkpt>
      <trkpt lat="42.1429" lon="2.31929">
        <ele>1137.9</ele>
        <time>2019-01-18T12:32:22Z</time>
      </trkpt>
      <trkpt lat="42.14281" lon="2.31932">
        <ele>1137.7</ele>
        <time>2019-01-18T12:32:30Z</time>
      </trkpt>
      <trkpt lat="42.14271" lon="2.31932">
        <ele>1138.3</ele>
        <time>2019-01-18T12:32:38Z</time>
      </trkpt>
      <trkpt lat="42.14262" lon="2.3193">
        <ele>1139.7</ele>
        <time>2019-01-18T12:32:45Z</time>
      </trkpt>
      <trkpt lat="42.14253" lon="2.31927">
        <ele>1141.2</ele>
        <time>2019-01-18T12:32:53Z</time>
      </trkpt>
      <trkpt lat="42.14243" lon="2.3193">
        <ele>1140.3</ele>
        <time>2019-01-18T12:33:01Z</time>
      </trkpt>
      <trkpt lat="42.14235" lon="2.31925">
        <ele>1140.7</ele>
        <time>2019-01-18T12:33:08Z</time>
      </trkpt>
      <trkpt lat="42.14227" lon="2.31917">
        <ele>1140.7</ele>
        <time>2019-01-18T12:33:16Z</time>
      </trkpt>
      <trkpt lat="42.1422" lon="2.31909">
        <ele>1140.6</ele>
        <time>2019-01-18T12:33:24Z</time>
      </trkpt>
      <trkpt lat="42.14211" lon="2.31899">
        <ele>1140.8</ele>
        <time>2019-01-18T12:33:32Z</time>
      </trkpt>
      <trkpt lat="42.14204" lon="2.31891">
        <ele>1140.7</ele>
        <time>2019-01-18T12:33:40Z</time>
      </trkpt>
      <trkpt lat="42.14198" lon="2.31883">
        <ele>1139.8</ele>
        <time>2019-01-18T12:33:47Z</time>
      </trkpt>
      <trkpt lat="42.14188" lon="2.31872">
        <ele>1138.2</ele>
        <time>2019-01-18T12:33:57Z</time>
      </trkpt>
      <trkpt lat="42.14178" lon="2.31862">
        <ele>1136.9</ele>
        <time>2019-01-18T12:34:07Z</time>
      </trkpt>
      <trkpt lat="42.14167" lon="2.31857">
        <ele>1136.2</ele>
        <time>2019-01-18T12:34:16Z</time>
      </trkpt>
      <trkpt lat="42.14158" lon="2.31856">
        <ele>1135.4</ele>
        <time>2019-01-18T12:34:23Z</time>
      </trkpt>
      <trkpt lat="42.14149" lon="2.31854">
        <ele>1134.8</ele>
        <time>2019-01-18T12:34:31Z</time>
      </trkpt>
      <trkpt lat="42.14139" lon="2.31852">
        <ele>1134.1</ele>
        <time>2019-01-18T12:34:39Z</time>
      </trkpt>
      <trkpt lat="42.14129" lon="2.31849">
        <ele>1133.5</ele>
        <time>2019-01-18T12:34:48Z</time>
      </trkpt>
      <trkpt lat="42.1412" lon="2.31843">
        <ele>1132.6</ele>
        <time>2019-01-18T12:34:56Z</time>
      </trkpt>
      <trkpt lat="42.14112" lon="2.31835">
        <ele>1131.3</ele>
        <time>2019-01-18T12:35:03Z</time>
      </trkpt>
      <trkpt lat="42.14106" lon="2.31825">
        <ele>1130</ele>
        <time>2019-01-18T12:35:11Z</time>
      </trkpt>
      <trkpt lat="42.14097" lon="2.31816">
        <ele>1127.7</ele>
        <time>2019-01-18T12:35:19Z</time>
      </trkpt>
      <trkpt lat="42.14095" lon="2.31804">
        <ele>1125.4</ele>
        <time>2019-01-18T12:35:27Z</time>
      </trkpt>
      <trkpt lat="42.14094" lon="2.3179">
        <ele>1125.1</ele>
        <time>2019-01-18T12:35:36Z</time>
      </trkpt>
      <trkpt lat="42.14087" lon="2.31781">
        <ele>1122.9</ele>
        <time>2019-01-18T12:35:43Z</time>
      </trkpt>
      <trkpt lat="42.14077" lon="2.31774">
        <ele>1120.9</ele>
        <time>2019-01-18T12:35:52Z</time>
      </trkpt>
      <trkpt lat="42.1407" lon="2.31764">
        <ele>1120.3</ele>
        <time>2019-01-18T12:36:00Z</time>
      </trkpt>
      <trkpt lat="42.14064" lon="2.31754">
        <ele>1119.8</ele>
        <time>2019-01-18T12:36:08Z</time>
      </trkpt>
      <trkpt lat="42.14059" lon="2.31741">
        <ele>1118.9</ele>
        <time>2019-01-18T12:36:16Z</time>
      </trkpt>
      <trkpt lat="42.14057" lon="2.31729">
        <ele>1118.4</ele>
        <time>2019-01-18T12:36:24Z</time>
      </trkpt>
      <trkpt lat="42.1405" lon="2.3172">
        <ele>1115</ele>
        <time>2019-01-18T12:36:32Z</time>
      </trkpt>
      <trkpt lat="42.14042" lon="2.31728">
        <ele>1111.5</ele>
        <time>2019-01-18T12:36:39Z</time>
      </trkpt>
      <trkpt lat="42.14041" lon="2.31742">
        <ele>1110.4</ele>
        <time>2019-01-18T12:36:48Z</time>
      </trkpt>
      <trkpt lat="42.14038" lon="2.31756">
        <ele>1107.5</ele>
        <time>2019-01-18T12:36:56Z</time>
      </trkpt>
      <trkpt lat="42.14034" lon="2.31766">
        <ele>1103.3</ele>
        <time>2019-01-18T12:37:03Z</time>
      </trkpt>
      <trkpt lat="42.1403" lon="2.31778">
        <ele>1099.2</ele>
        <time>2019-01-18T12:37:11Z</time>
      </trkpt>
      <trkpt lat="42.14026" lon="2.31789">
        <ele>1096.6</ele>
        <time>2019-01-18T12:37:18Z</time>
      </trkpt>
      <trkpt lat="42.14021" lon="2.318">
        <ele>1092.5</ele>
        <time>2019-01-18T12:37:26Z</time>
      </trkpt>
      <trkpt lat="42.14016" lon="2.31814">
        <ele>1091.3</ele>
        <time>2019-01-18T12:37:35Z</time>
      </trkpt>
      <trkpt lat="42.14012" lon="2.31827">
        <ele>1092.3</ele>
        <time>2019-01-18T12:37:43Z</time>
      </trkpt>
      <trkpt lat="42.14014" lon="2.31843">
        <ele>1097.3</ele>
        <time>2019-01-18T12:37:53Z</time>
      </trkpt>
      <trkpt lat="42.14015" lon="2.31856">
        <ele>1099.3</ele>
        <time>2019-01-18T12:38:01Z</time>
      </trkpt>
      <trkpt lat="42.14019" lon="2.3187">
        <ele>1101.4</ele>
        <time>2019-01-18T12:38:09Z</time>
      </trkpt>
      <trkpt lat="42.1402" lon="2.31883">
        <ele>1100.6</ele>
        <time>2019-01-18T12:38:18Z</time>
      </trkpt>
      <trkpt lat="42.14016" lon="2.31895">
        <ele>1096.4</ele>
        <time>2019-01-18T12:38:25Z</time>
      </trkpt>
      <trkpt lat="42.14013" lon="2.31907">
        <ele>1093</ele>
        <time>2019-01-18T12:38:33Z</time>
      </trkpt>
      <trkpt lat="42.14012" lon="2.31919">
        <ele>1092.4</ele>
        <time>2019-01-18T12:38:40Z</time>
      </trkpt>
      <trkpt lat="42.14009" lon="2.31932">
        <ele>1092</ele>
        <time>2019-01-18T12:38:48Z</time>
      </trkpt>
      <trkpt lat="42.14001" lon="2.3194">
        <ele>1087.7</ele>
        <time>2019-01-18T12:38:56Z</time>
      </trkpt>
      <trkpt lat="42.13992" lon="2.31939">
        <ele>1077.3</ele>
        <time>2019-01-18T12:39:03Z</time>
      </trkpt>
      <trkpt lat="42.13985" lon="2.31946">
        <ele>1071</ele>
        <time>2019-01-18T12:39:11Z</time>
      </trkpt>
      <trkpt lat="42.1398" lon="2.31958">
        <ele>1069</ele>
        <time>2019-01-18T12:39:18Z</time>
      </trkpt>
      <trkpt lat="42.1398" lon="2.3197">
        <ele>1072.3</ele>
        <time>2019-01-18T12:39:26Z</time>
      </trkpt>
      <trkpt lat="42.13981" lon="2.31987">
        <ele>1073.8</ele>
        <time>2019-01-18T12:39:36Z</time>
      </trkpt>
      <trkpt lat="42.13979" lon="2.32007">
        <ele>1071.8</ele>
        <time>2019-01-18T12:39:47Z</time>
      </trkpt>
      <trkpt lat="42.13971" lon="2.32016">
        <ele>1064</ele>
        <time>2019-01-18T12:39:56Z</time>
      </trkpt>
      <trkpt lat="42.13973" lon="2.32028">
        <ele>1062.3</ele>
        <time>2019-01-18T12:40:03Z</time>
      </trkpt>
      <trkpt lat="42.13962" lon="2.32029">
        <ele>1056.6</ele>
        <time>2019-01-18T12:40:11Z</time>
      </trkpt>
      <trkpt lat="42.13958" lon="2.32041">
        <ele>1055.2</ele>
        <time>2019-01-18T12:40:19Z</time>
      </trkpt>
      <trkpt lat="42.13948" lon="2.32039">
        <ele>1049.1</ele>
        <time>2019-01-18T12:40:27Z</time>
      </trkpt>
      <trkpt lat="42.13943" lon="2.32028">
        <ele>1045.3</ele>
        <time>2019-01-18T12:40:34Z</time>
      </trkpt>
      <trkpt lat="42.13937" lon="2.32018">
        <ele>1042.6</ele>
        <time>2019-01-18T12:40:42Z</time>
      </trkpt>
      <trkpt lat="42.1393" lon="2.32009">
        <ele>1038.9</ele>
        <time>2019-01-18T12:40:50Z</time>
      </trkpt>
      <trkpt lat="42.13926" lon="2.31997">
        <ele>1037.1</ele>
        <time>2019-01-18T12:40:58Z</time>
      </trkpt>
      <trkpt lat="42.13926" lon="2.31984">
        <ele>1037</ele>
        <time>2019-01-18T12:41:05Z</time>
      </trkpt>
      <trkpt lat="42.13929" lon="2.3197">
        <ele>1037.6</ele>
        <time>2019-01-18T12:41:14Z</time>
      </trkpt>
      <trkpt lat="42.13929" lon="2.31958">
        <ele>1034.9</ele>
        <time>2019-01-18T12:41:21Z</time>
      </trkpt>
      <trkpt lat="42.1393" lon="2.31945">
        <ele>1032.4</ele>
        <time>2019-01-18T12:41:28Z</time>
      </trkpt>
      <trkpt lat="42.13926" lon="2.31934">
        <ele>1027.6</ele>
        <time>2019-01-18T12:41:36Z</time>
      </trkpt>
      <trkpt lat="42.13915" lon="2.31929">
        <ele>1020.4</ele>
        <time>2019-01-18T12:41:45Z</time>
      </trkpt>
      <trkpt lat="42.13904" lon="2.31925">
        <ele>1013.2</ele>
        <time>2019-01-18T12:41:54Z</time>
      </trkpt>
      <trkpt lat="42.13895" lon="2.31926">
        <ele>1008.5</ele>
        <time>2019-01-18T12:42:01Z</time>
      </trkpt>
      <trkpt lat="42.13885" lon="2.3192">
        <ele>1000.9</ele>
        <time>2019-01-18T12:42:10Z</time>
      </trkpt>
      <trkpt lat="42.13875" lon="2.31918">
        <ele>995.8</ele>
        <time>2019-01-18T12:42:18Z</time>
      </trkpt>
      <trkpt lat="42.13865" lon="2.3192">
        <ele>991.5</ele>
        <time>2019-01-18T12:42:26Z</time>
      </trkpt>
      <trkpt lat="42.1386" lon="2.31909">
        <ele>988.6</ele>
        <time>2019-01-18T12:42:34Z</time>
      </trkpt>
      <trkpt lat="42.1386" lon="2.31896">
        <ele>988.1</ele>
        <time>2019-01-18T12:42:42Z</time>
      </trkpt>
      <trkpt lat="42.13858" lon="2.31884">
        <ele>986.9</ele>
        <time>2019-01-18T12:42:49Z</time>
      </trkpt>
      <trkpt lat="42.13855" lon="2.31871">
        <ele>986.1</ele>
        <time>2019-01-18T12:42:57Z</time>
      </trkpt>
      <trkpt lat="42.13854" lon="2.31858">
        <ele>985.1</ele>
        <time>2019-01-18T12:43:05Z</time>
      </trkpt>
      <trkpt lat="42.13856" lon="2.31846">
        <ele>984.2</ele>
        <time>2019-01-18T12:43:12Z</time>
      </trkpt>
      <trkpt lat="42.13859" lon="2.31832">
        <ele>983.4</ele>
        <time>2019-01-18T12:43:21Z</time>
      </trkpt>
      <trkpt lat="42.13856" lon="2.31818">
        <ele>982.7</ele>
        <time>2019-01-18T12:43:29Z</time>
      </trkpt>
      <trkpt lat="42.13852" lon="2.31805">
        <ele>981.5</ele>
        <time>2019-01-18T12:43:38Z</time>
      </trkpt>
      <trkpt lat="42.13845" lon="2.31793">
        <ele>981.4</ele>
        <time>2019-01-18T12:43:46Z</time>
      </trkpt>
      <trkpt lat="42.13837" lon="2.31788">
        <ele>979.7</ele>
        <time>2019-01-18T12:43:54Z</time>
      </trkpt>
      <trkpt lat="42.13828" lon="2.3178">
        <ele>978.5</ele>
        <time>2019-01-18T12:44:02Z</time>
      </trkpt>
      <trkpt lat="42.13821" lon="2.31774">
        <ele>978.2</ele>
        <time>2019-01-18T12:44:09Z</time>
      </trkpt>
      <trkpt lat="42.13813" lon="2.31766">
        <ele>977.9</ele>
        <time>2019-01-18T12:44:17Z</time>
      </trkpt>
      <trkpt lat="42.13807" lon="2.31757">
        <ele>977.4</ele>
        <time>2019-01-18T12:44:24Z</time>
      </trkpt>
      <trkpt lat="42.13802" lon="2.31746">
        <ele>978</ele>
        <time>2019-01-18T12:44:32Z</time>
      </trkpt>
      <trkpt lat="42.13796" lon="2.31737">
        <ele>978</ele>
        <time>2019-01-18T12:44:39Z</time>
      </trkpt>
      <trkpt lat="42.13789" lon="2.31729">
        <ele>977.4</ele>
        <time>2019-01-18T12:44:47Z</time>
      </trkpt>
      <trkpt lat="42.13782" lon="2.31718">
        <ele>977</ele>
        <time>2019-01-18T12:44:55Z</time>
      </trkpt>
      <trkpt lat="42.13776" lon="2.31709">
        <ele>975.6</ele>
        <time>2019-01-18T12:45:02Z</time>
      </trkpt>
      <trkpt lat="42.13769" lon="2.31699">
        <ele>975</ele>
        <time>2019-01-18T12:45:10Z</time>
      </trkpt>
      <trkpt lat="42.13761" lon="2.3169">
        <ele>973.1</ele>
        <time>2019-01-18T12:45:19Z</time>
      </trkpt>
      <trkpt lat="42.13751" lon="2.31687">
        <ele>970.7</ele>
        <time>2019-01-18T12:45:27Z</time>
      </trkpt>
      <trkpt lat="42.13741" lon="2.3169">
        <ele>968.5</ele>
        <time>2019-01-18T12:45:35Z</time>
      </trkpt>
      <trkpt lat="42.13741" lon="2.31678">
        <ele>967.9</ele>
        <time>2019-01-18T12:45:42Z</time>
      </trkpt>
      <trkpt lat="42.13748" lon="2.31668">
        <ele>968.7</ele>
        <time>2019-01-18T12:45:51Z</time>
      </trkpt>
      <trkpt lat="42.13751" lon="2.31655">
        <ele>968.6</ele>
        <time>2019-01-18T12:45:59Z</time>
      </trkpt>
      <trkpt lat="42.13746" lon="2.31645">
        <ele>967.4</ele>
        <time>2019-01-18T12:46:06Z</time>
      </trkpt>
      <trkpt lat="42.13737" lon="2.31644">
        <ele>967.4</ele>
        <time>2019-01-18T12:46:14Z</time>
      </trkpt>
      <trkpt lat="42.13728" lon="2.31642">
        <ele>967.5</ele>
        <time>2019-01-18T12:46:21Z</time>
      </trkpt>
      <trkpt lat="42.13718" lon="2.31641">
        <ele>968.6</ele>
        <time>2019-01-18T12:46:29Z</time>
      </trkpt>
      <trkpt lat="42.13709" lon="2.31638">
        <ele>971.1</ele>
        <time>2019-01-18T12:46:36Z</time>
      </trkpt>
      <trkpt lat="42.137" lon="2.31638">
        <ele>973.3</ele>
        <time>2019-01-18T12:46:43Z</time>
      </trkpt>
      <trkpt lat="42.1369" lon="2.31635">
        <ele>976.2</ele>
        <time>2019-01-18T12:46:51Z</time>
      </trkpt>
      <trkpt lat="42.13678" lon="2.31638">
        <ele>976.1</ele>
        <time>2019-01-18T12:47:01Z</time>
      </trkpt>
      <trkpt lat="42.13669" lon="2.3164">
        <ele>976.5</ele>
        <time>2019-01-18T12:47:08Z</time>
      </trkpt>
      <trkpt lat="42.13661" lon="2.31635">
        <ele>977.6</ele>
        <time>2019-01-18T12:47:16Z</time>
      </trkpt>
      <trkpt lat="42.13653" lon="2.31628">
        <ele>979</ele>
        <time>2019-01-18T12:47:23Z</time>
      </trkpt>
      <trkpt lat="42.13646" lon="2.3162">
        <ele>980.3</ele>
        <time>2019-01-18T12:47:31Z</time>
      </trkpt>
      <trkpt lat="42.13637" lon="2.31614">
        <ele>979.5</ele>
        <time>2019-01-18T12:47:39Z</time>
      </trkpt>
      <trkpt lat="42.13626" lon="2.31611">
        <ele>977.7</ele>
        <time>2019-01-18T12:47:48Z</time>
      </trkpt>
      <trkpt lat="42.13618" lon="2.31604">
        <ele>978.8</ele>
        <time>2019-01-18T12:47:55Z</time>
      </trkpt>
      <trkpt lat="42.1361" lon="2.31598">
        <ele>979.9</ele>
        <time>2019-01-18T12:48:02Z</time>
      </trkpt>
      <trkpt lat="42.136" lon="2.31595">
        <ele>980.1</ele>
        <time>2019-01-18T12:48:11Z</time>
      </trkpt>
      <trkpt lat="42.13591" lon="2.31589">
        <ele>982.9</ele>
        <time>2019-01-18T12:48:19Z</time>
      </trkpt>
      <trkpt lat="42.13581" lon="2.31591">
        <ele>980.8</ele>
        <time>2019-01-18T12:48:27Z</time>
      </trkpt>
      <trkpt lat="42.13572" lon="2.31594">
        <ele>979.2</ele>
        <time>2019-01-18T12:48:34Z</time>
      </trkpt>
      <trkpt lat="42.13562" lon="2.31598">
        <ele>976.8</ele>
        <time>2019-01-18T12:48:43Z</time>
      </trkpt>
      <trkpt lat="42.13553" lon="2.31596">
        <ele>977.1</ele>
        <time>2019-01-18T12:48:50Z</time>
      </trkpt>
      <trkpt lat="42.13548" lon="2.31586">
        <ele>980.5</ele>
        <time>2019-01-18T12:48:57Z</time>
      </trkpt>
      <trkpt lat="42.13539" lon="2.31578">
        <ele>979.4</ele>
        <time>2019-01-18T12:49:06Z</time>
      </trkpt>
      <trkpt lat="42.13532" lon="2.3157">
        <ele>978.1</ele>
        <time>2019-01-18T12:49:13Z</time>
      </trkpt>
      <trkpt lat="42.13525" lon="2.31561">
        <ele>978.3</ele>
        <time>2019-01-18T12:49:21Z</time>
      </trkpt>
      <trkpt lat="42.13518" lon="2.3155">
        <ele>980</ele>
        <time>2019-01-18T12:49:29Z</time>
      </trkpt>
      <trkpt lat="42.1351" lon="2.31559">
        <ele>977.7</ele>
        <time>2019-01-18T12:49:38Z</time>
      </trkpt>
      <trkpt lat="42.13505" lon="2.3157">
        <ele>976.3</ele>
        <time>2019-01-18T12:49:45Z</time>
      </trkpt>
      <trkpt lat="42.13502" lon="2.31583">
        <ele>975.8</ele>
        <time>2019-01-18T12:49:53Z</time>
      </trkpt>
      <trkpt lat="42.13498" lon="2.31595">
        <ele>978.5</ele>
        <time>2019-01-18T12:50:01Z</time>
      </trkpt>
      <trkpt lat="42.13495" lon="2.31607">
        <ele>981.7</ele>
        <time>2019-01-18T12:50:09Z</time>
      </trkpt>
      <trkpt lat="42.1349" lon="2.31619">
        <ele>984.4</ele>
        <time>2019-01-18T12:50:17Z</time>
      </trkpt>
      <trkpt lat="42.13485" lon="2.31629">
        <ele>987.4</ele>
        <time>2019-01-18T12:50:24Z</time>
      </trkpt>
      <trkpt lat="42.13478" lon="2.31639">
        <ele>990.8</ele>
        <time>2019-01-18T12:50:32Z</time>
      </trkpt>
      <trkpt lat="42.13468" lon="2.31641">
        <ele>993</ele>
        <time>2019-01-18T12:50:40Z</time>
      </trkpt>
      <trkpt lat="42.13459" lon="2.31639">
        <ele>992.7</ele>
        <time>2019-01-18T12:50:48Z</time>
      </trkpt>
      <trkpt lat="42.13453" lon="2.31629">
        <ele>993.8</ele>
        <time>2019-01-18T12:50:55Z</time>
      </trkpt>
      <trkpt lat="42.13445" lon="2.31617">
        <ele>994.8</ele>
        <time>2019-01-18T12:51:05Z</time>
      </trkpt>
      <trkpt lat="42.13438" lon="2.31608">
        <ele>994.8</ele>
        <time>2019-01-18T12:51:12Z</time>
      </trkpt>
      <trkpt lat="42.1343" lon="2.316">
        <ele>994.5</ele>
        <time>2019-01-18T12:51:21Z</time>
      </trkpt>
      <trkpt lat="42.13423" lon="2.31592">
        <ele>994.6</ele>
        <time>2019-01-18T12:51:28Z</time>
      </trkpt>
      <trkpt lat="42.13417" lon="2.3158">
        <ele>995.8</ele>
        <time>2019-01-18T12:51:36Z</time>
      </trkpt>
      <trkpt lat="42.13411" lon="2.31569">
        <ele>998.3</ele>
        <time>2019-01-18T12:51:45Z</time>
      </trkpt>
      <trkpt lat="42.13405" lon="2.31558">
        <ele>999.9</ele>
        <time>2019-01-18T12:51:53Z</time>
      </trkpt>
      <trkpt lat="42.13398" lon="2.3155">
        <ele>1000.5</ele>
        <time>2019-01-18T12:52:00Z</time>
      </trkpt>
      <trkpt lat="42.1339" lon="2.31559">
        <ele>998.9</ele>
        <time>2019-01-18T12:52:08Z</time>
      </trkpt>
      <trkpt lat="42.13385" lon="2.31574">
        <ele>998.8</ele>
        <time>2019-01-18T12:52:17Z</time>
      </trkpt>
      <trkpt lat="42.13376" lon="2.31574">
        <ele>999.4</ele>
        <time>2019-01-18T12:52:25Z</time>
      </trkpt>
      <trkpt lat="42.13368" lon="2.31568">
        <ele>1001.7</ele>
        <time>2019-01-18T12:52:33Z</time>
      </trkpt>
      <trkpt lat="42.13359" lon="2.31564">
        <ele>1003.6</ele>
        <time>2019-01-18T12:52:40Z</time>
      </trkpt>
      <trkpt lat="42.1335" lon="2.31556">
        <ele>1005.3</ele>
        <time>2019-01-18T12:52:48Z</time>
      </trkpt>
      <trkpt lat="42.13342" lon="2.31551">
        <ele>1006.2</ele>
        <time>2019-01-18T12:52:56Z</time>
      </trkpt>
      <trkpt lat="42.13334" lon="2.31545">
        <ele>1008.7</ele>
        <time>2019-01-18T12:53:03Z</time>
      </trkpt>
      <trkpt lat="42.13325" lon="2.31539">
        <ele>1011</ele>
        <time>2019-01-18T12:53:11Z</time>
      </trkpt>
      <trkpt lat="42.13316" lon="2.31535">
        <ele>1012</ele>
        <time>2019-01-18T12:53:19Z</time>
      </trkpt>
      <trkpt lat="42.13306" lon="2.31529">
        <ele>1013.6</ele>
        <time>2019-01-18T12:53:27Z</time>
      </trkpt>
      <trkpt lat="42.13297" lon="2.31526">
        <ele>1015.3</ele>
        <time>2019-01-18T12:53:35Z</time>
      </trkpt>
      <trkpt lat="42.13289" lon="2.31523">
        <ele>1017.1</ele>
        <time>2019-01-18T12:53:42Z</time>
      </trkpt>
      <trkpt lat="42.13279" lon="2.31522">
        <ele>1018.2</ele>
        <time>2019-01-18T12:53:49Z</time>
      </trkpt>
      <trkpt lat="42.13268" lon="2.31519">
        <ele>1020.5</ele>
        <time>2019-01-18T12:53:58Z</time>
      </trkpt>
      <trkpt lat="42.13259" lon="2.31518">
        <ele>1021.7</ele>
        <time>2019-01-18T12:54:05Z</time>
      </trkpt>
      <trkpt lat="42.1325" lon="2.31522">
        <ele>1020.9</ele>
        <time>2019-01-18T12:54:13Z</time>
      </trkpt>
      <trkpt lat="42.13242" lon="2.3153">
        <ele>1020.8</ele>
        <time>2019-01-18T12:54:21Z</time>
      </trkpt>
      <trkpt lat="42.13237" lon="2.31542">
        <ele>1019.1</ele>
        <time>2019-01-18T12:54:29Z</time>
      </trkpt>
      <trkpt lat="42.13229" lon="2.31549">
        <ele>1020.4</ele>
        <time>2019-01-18T12:54:37Z</time>
      </trkpt>
      <trkpt lat="42.13221" lon="2.31556">
        <ele>1022.8</ele>
        <time>2019-01-18T12:54:45Z</time>
      </trkpt>
      <trkpt lat="42.13212" lon="2.31566">
        <ele>1023.6</ele>
        <time>2019-01-18T12:54:54Z</time>
      </trkpt>
      <trkpt lat="42.13206" lon="2.31576">
        <ele>1023.4</ele>
        <time>2019-01-18T12:55:02Z</time>
      </trkpt>
      <trkpt lat="42.13196" lon="2.31582">
        <ele>1025.8</ele>
        <time>2019-01-18T12:55:10Z</time>
      </trkpt>
      <trkpt lat="42.13187" lon="2.31583">
        <ele>1027.6</ele>
        <time>2019-01-18T12:55:17Z</time>
      </trkpt>
      <trkpt lat="42.13178" lon="2.3158">
        <ele>1030.6</ele>
        <time>2019-01-18T12:55:25Z</time>
      </trkpt>
      <trkpt lat="42.13168" lon="2.31578">
        <ele>1033.2</ele>
        <time>2019-01-18T12:55:33Z</time>
      </trkpt>
      <trkpt lat="42.1316" lon="2.31571">
        <ele>1034.6</ele>
        <time>2019-01-18T12:55:40Z</time>
      </trkpt>
      <trkpt lat="42.13151" lon="2.31567">
        <ele>1035.6</ele>
        <time>2019-01-18T12:55:48Z</time>
      </trkpt>
      <trkpt lat="42.13142" lon="2.31564">
        <ele>1036.6</ele>
        <time>2019-01-18T12:55:55Z</time>
      </trkpt>
      <trkpt lat="42.13133" lon="2.31561">
        <ele>1037.9</ele>
        <time>2019-01-18T12:56:03Z</time>
      </trkpt>
      <trkpt lat="42.13123" lon="2.31558">
        <ele>1039.6</ele>
        <time>2019-01-18T12:56:11Z</time>
      </trkpt>
      <trkpt lat="42.13113" lon="2.31558">
        <ele>1039.8</ele>
        <time>2019-01-18T12:56:19Z</time>
      </trkpt>
      <trkpt lat="42.13103" lon="2.3156">
        <ele>1039.8</ele>
        <time>2019-01-18T12:56:27Z</time>
      </trkpt>
      <trkpt lat="42.13094" lon="2.31555">
        <ele>1042.5</ele>
        <time>2019-01-18T12:56:35Z</time>
      </trkpt>
      <trkpt lat="42.13085" lon="2.31553">
        <ele>1043.8</ele>
        <time>2019-01-18T12:56:42Z</time>
      </trkpt>
      <trkpt lat="42.13076" lon="2.31554">
        <ele>1044.1</ele>
        <time>2019-01-18T12:56:50Z</time>
      </trkpt>
      <trkpt lat="42.13066" lon="2.31559">
        <ele>1043</ele>
        <time>2019-01-18T12:56:58Z</time>
      </trkpt>
      <trkpt lat="42.13055" lon="2.3156">
        <ele>1043.4</ele>
        <time>2019-01-18T12:57:06Z</time>
      </trkpt>
      <trkpt lat="42.13047" lon="2.31555">
        <ele>1045.3</ele>
        <time>2019-01-18T12:57:14Z</time>
      </trkpt>
      <trkpt lat="42.13037" lon="2.31553">
        <ele>1046.1</ele>
        <time>2019-01-18T12:57:22Z</time>
      </trkpt>
      <trkpt lat="42.13027" lon="2.31548">
        <ele>1047.8</ele>
        <time>2019-01-18T12:57:30Z</time>
      </trkpt>
      <trkpt lat="42.13017" lon="2.31542">
        <ele>1047.7</ele>
        <time>2019-01-18T12:57:39Z</time>
      </trkpt>
      <trkpt lat="42.13009" lon="2.31536">
        <ele>1048.2</ele>
        <time>2019-01-18T12:57:46Z</time>
      </trkpt>
      <trkpt lat="42.12999" lon="2.31532">
        <ele>1047.4</ele>
        <time>2019-01-18T12:57:55Z</time>
      </trkpt>
      <trkpt lat="42.1299" lon="2.31528">
        <ele>1046.5</ele>
        <time>2019-01-18T12:58:02Z</time>
      </trkpt>
      <trkpt lat="42.12977" lon="2.3152">
        <ele>1046.1</ele>
        <time>2019-01-18T12:58:13Z</time>
      </trkpt>
      <trkpt lat="42.12968" lon="2.31514">
        <ele>1045.8</ele>
        <time>2019-01-18T12:58:22Z</time>
      </trkpt>
      <trkpt lat="42.12959" lon="2.31508">
        <ele>1045.1</ele>
        <time>2019-01-18T12:58:30Z</time>
      </trkpt>
      <trkpt lat="42.1295" lon="2.31501">
        <ele>1044.4</ele>
        <time>2019-01-18T12:58:38Z</time>
      </trkpt>
      <trkpt lat="42.12942" lon="2.31492">
        <ele>1044.6</ele>
        <time>2019-01-18T12:58:47Z</time>
      </trkpt>
      <trkpt lat="42.12934" lon="2.31485">
        <ele>1044.4</ele>
        <time>2019-01-18T12:58:54Z</time>
      </trkpt>
      <trkpt lat="42.12926" lon="2.31477">
        <ele>1044.4</ele>
        <time>2019-01-18T12:59:02Z</time>
      </trkpt>
      <trkpt lat="42.12919" lon="2.31469">
        <ele>1044.5</ele>
        <time>2019-01-18T12:59:09Z</time>
      </trkpt>
      <trkpt lat="42.1291" lon="2.31462">
        <ele>1043.6</ele>
        <time>2019-01-18T12:59:18Z</time>
      </trkpt>
      <trkpt lat="42.129" lon="2.31455">
        <ele>1042.3</ele>
        <time>2019-01-18T12:59:27Z</time>
      </trkpt>
      <trkpt lat="42.12894" lon="2.31445">
        <ele>1042.6</ele>
        <time>2019-01-18T12:59:34Z</time>
      </trkpt>
      <trkpt lat="42.12888" lon="2.31432">
        <ele>1043.3</ele>
        <time>2019-01-18T12:59:44Z</time>
      </trkpt>
      <trkpt lat="42.12883" lon="2.31422">
        <ele>1044.2</ele>
        <time>2019-01-18T12:59:51Z</time>
      </trkpt>
      <trkpt lat="42.12875" lon="2.31413">
        <ele>1044.1</ele>
        <time>2019-01-18T12:59:59Z</time>
      </trkpt>
      <trkpt lat="42.12866" lon="2.31405">
        <ele>1043.7</ele>
        <time>2019-01-18T13:00:08Z</time>
      </trkpt>
      <trkpt lat="42.12858" lon="2.31396">
        <ele>1042.9</ele>
        <time>2019-01-18T13:00:16Z</time>
      </trkpt>
      <trkpt lat="42.12851" lon="2.31386">
        <ele>1043.1</ele>
        <time>2019-01-18T13:00:24Z</time>
      </trkpt>
      <trkpt lat="42.12844" lon="2.31376">
        <ele>1042.5</ele>
        <time>2019-01-18T13:00:33Z</time>
      </trkpt>
      <trkpt lat="42.12837" lon="2.31366">
        <ele>1041.9</ele>
        <time>2019-01-18T13:00:40Z</time>
      </trkpt>
      <trkpt lat="42.12831" lon="2.31358">
        <ele>1040.9</ele>
        <time>2019-01-18T13:00:48Z</time>
      </trkpt>
      <trkpt lat="42.12822" lon="2.3135">
        <ele>1039.8</ele>
        <time>2019-01-18T13:00:56Z</time>
      </trkpt>
      <trkpt lat="42.12814" lon="2.31341">
        <ele>1039.1</ele>
        <time>2019-01-18T13:01:04Z</time>
      </trkpt>
      <trkpt lat="42.12805" lon="2.31334">
        <ele>1037.9</ele>
        <time>2019-01-18T13:01:12Z</time>
      </trkpt>
      <trkpt lat="42.12798" lon="2.31326">
        <ele>1038.6</ele>
        <time>2019-01-18T13:01:20Z</time>
      </trkpt>
      <trkpt lat="42.1279" lon="2.31317">
        <ele>1039.4</ele>
        <time>2019-01-18T13:01:28Z</time>
      </trkpt>
      <trkpt lat="42.12781" lon="2.31311">
        <ele>1039.3</ele>
        <time>2019-01-18T13:01:36Z</time>
      </trkpt>
      <trkpt lat="42.12771" lon="2.31306">
        <ele>1038.5</ele>
        <time>2019-01-18T13:01:45Z</time>
      </trkpt>
      <trkpt lat="42.12762" lon="2.31304">
        <ele>1036.8</ele>
        <time>2019-01-18T13:01:52Z</time>
      </trkpt>
      <trkpt lat="42.12751" lon="2.31303">
        <ele>1034</ele>
        <time>2019-01-18T13:02:01Z</time>
      </trkpt>
      <trkpt lat="42.1274" lon="2.31306">
        <ele>1031.8</ele>
        <time>2019-01-18T13:02:10Z</time>
      </trkpt>
      <trkpt lat="42.1273" lon="2.31309">
        <ele>1029.8</ele>
        <time>2019-01-18T13:02:18Z</time>
      </trkpt>
      <trkpt lat="42.12719" lon="2.31314">
        <ele>1027.9</ele>
        <time>2019-01-18T13:02:27Z</time>
      </trkpt>
      <trkpt lat="42.12709" lon="2.31313">
        <ele>1029</ele>
        <time>2019-01-18T13:02:36Z</time>
      </trkpt>
      <trkpt lat="42.127" lon="2.31308">
        <ele>1032.2</ele>
        <time>2019-01-18T13:02:43Z</time>
      </trkpt>
      <trkpt lat="42.1269" lon="2.31302">
        <ele>1034.6</ele>
        <time>2019-01-18T13:02:52Z</time>
      </trkpt>
      <trkpt lat="42.12681" lon="2.313">
        <ele>1033.1</ele>
        <time>2019-01-18T13:03:00Z</time>
      </trkpt>
      <trkpt lat="42.12671" lon="2.31298">
        <ele>1030.8</ele>
        <time>2019-01-18T13:03:07Z</time>
      </trkpt>
      <trkpt lat="42.12663" lon="2.31295">
        <ele>1029.9</ele>
        <time>2019-01-18T13:03:15Z</time>
      </trkpt>
      <trkpt lat="42.12652" lon="2.31293">
        <ele>1027.7</ele>
        <time>2019-01-18T13:03:23Z</time>
      </trkpt>
      <trkpt lat="42.12643" lon="2.31294">
        <ele>1024.6</ele>
        <time>2019-01-18T13:03:30Z</time>
      </trkpt>
      <trkpt lat="42.12632" lon="2.31295">
        <ele>1021.8</ele>
        <time>2019-01-18T13:03:39Z</time>
      </trkpt>
      <trkpt lat="42.12622" lon="2.31299">
        <ele>1018.2</ele>
        <time>2019-01-18T13:03:47Z</time>
      </trkpt>
      <trkpt lat="42.12613" lon="2.31303">
        <ele>1014.5</ele>
        <time>2019-01-18T13:03:55Z</time>
      </trkpt>
      <trkpt lat="42.12604" lon="2.31308">
        <ele>1012.2</ele>
        <time>2019-01-18T13:04:03Z</time>
      </trkpt>
      <trkpt lat="42.12594" lon="2.3131">
        <ele>1011.2</ele>
        <time>2019-01-18T13:04:11Z</time>
      </trkpt>
      <trkpt lat="42.12583" lon="2.3131">
        <ele>1010.7</ele>
        <time>2019-01-18T13:04:19Z</time>
      </trkpt>
      <trkpt lat="42.12574" lon="2.31311">
        <ele>1009.2</ele>
        <time>2019-01-18T13:04:27Z</time>
      </trkpt>
      <trkpt lat="42.12564" lon="2.31314">
        <ele>1006.6</ele>
        <time>2019-01-18T13:04:35Z</time>
      </trkpt>
      <trkpt lat="42.12553" lon="2.31314">
        <ele>1004.9</ele>
        <time>2019-01-18T13:04:44Z</time>
      </trkpt>
      <trkpt lat="42.12544" lon="2.31315">
        <ele>1002.6</ele>
        <time>2019-01-18T13:04:51Z</time>
      </trkpt>
      <trkpt lat="42.12535" lon="2.31319">
        <ele>1000</ele>
        <time>2019-01-18T13:04:59Z</time>
      </trkpt>
      <trkpt lat="42.12529" lon="2.3131">
        <ele>1000.4</ele>
        <time>2019-01-18T13:05:06Z</time>
      </trkpt>
      <trkpt lat="42.12492" lon="2.31242">
        <ele>989.8</ele>
        <time>2019-01-18T15:53:12Z</time>
      </trkpt>
      <trkpt lat="42.1249" lon="2.31237">
        <ele>989.6</ele>
        <time>2019-01-18T15:53:15Z</time>
      </trkpt>
      <trkpt lat="42.12487" lon="2.31233">
        <ele>988.9</ele>
        <time>2019-01-18T15:53:18Z</time>
      </trkpt>
      <trkpt lat="42.12486" lon="2.31228">
        <ele>988.6</ele>
        <time>2019-01-18T15:53:21Z</time>
      </trkpt>
      <trkpt lat="42.12485" lon="2.31223">
        <ele>988.6</ele>
        <time>2019-01-18T15:53:24Z</time>
      </trkpt>
      <trkpt lat="42.12484" lon="2.31218">
        <ele>988.9</ele>
        <time>2019-01-18T15:53:27Z</time>
      </trkpt>
      <trkpt lat="42.12483" lon="2.31213">
        <ele>988.8</ele>
        <time>2019-01-18T15:53:30Z</time>
      </trkpt>
      <trkpt lat="42.12482" lon="2.31208">
        <ele>989</ele>
        <time>2019-01-18T15:53:33Z</time>
      </trkpt>
      <trkpt lat="42.12481" lon="2.31201">
        <ele>989.2</ele>
        <time>2019-01-18T15:53:37Z</time>
      </trkpt>
      <trkpt lat="42.12479" lon="2.31195">
        <ele>989.2</ele>
        <time>2019-01-18T15:53:41Z</time>
      </trkpt>
      <trkpt lat="42.12474" lon="2.31197">
        <ele>987.6</ele>
        <time>2019-01-18T15:53:45Z</time>
      </trkpt>
      <trkpt lat="42.1247" lon="2.31199">
        <ele>986.2</ele>
        <time>2019-01-18T15:53:49Z</time>
      </trkpt>
      <trkpt lat="42.12466" lon="2.31199">
        <ele>985.3</ele>
        <time>2019-01-18T15:53:52Z</time>
      </trkpt>
      <trkpt lat="42.12462" lon="2.312">
        <ele>984.2</ele>
        <time>2019-01-18T15:53:55Z</time>
      </trkpt>
      <trkpt lat="42.12458" lon="2.31201">
        <ele>983.2</ele>
        <time>2019-01-18T15:53:58Z</time>
      </trkpt>
      <trkpt lat="42.12454" lon="2.31201">
        <ele>982.5</ele>
        <time>2019-01-18T15:54:01Z</time>
      </trkpt>
      <trkpt lat="42.1245" lon="2.31199">
        <ele>981.8</ele>
        <time>2019-01-18T15:54:05Z</time>
      </trkpt>
      <trkpt lat="42.12447" lon="2.31197">
        <ele>981.2</ele>
        <time>2019-01-18T15:54:08Z</time>
      </trkpt>
      <trkpt lat="42.12442" lon="2.31196">
        <ele>980.4</ele>
        <time>2019-01-18T15:54:12Z</time>
      </trkpt>
      <trkpt lat="42.12439" lon="2.31201">
        <ele>979.4</ele>
        <time>2019-01-18T15:54:15Z</time>
      </trkpt>
      <trkpt lat="42.12438" lon="2.31206">
        <ele>978.7</ele>
        <time>2019-01-18T15:54:19Z</time>
      </trkpt>
      <trkpt lat="42.12437" lon="2.31211">
        <ele>978</ele>
        <time>2019-01-18T15:54:22Z</time>
      </trkpt>
      <trkpt lat="42.12436" lon="2.31216">
        <ele>977.5</ele>
        <time>2019-01-18T15:54:25Z</time>
      </trkpt>
      <trkpt lat="42.12434" lon="2.31221">
        <ele>976.6</ele>
        <time>2019-01-18T15:54:28Z</time>
      </trkpt>
      <trkpt lat="42.12432" lon="2.31225">
        <ele>976.1</ele>
        <time>2019-01-18T15:54:31Z</time>
      </trkpt>
      <trkpt lat="42.12429" lon="2.31229">
        <ele>975.8</ele>
        <time>2019-01-18T15:54:34Z</time>
      </trkpt>
      <trkpt lat="42.12426" lon="2.31232">
        <ele>975.3</ele>
        <time>2019-01-18T15:54:37Z</time>
      </trkpt>
      <trkpt lat="42.12423" lon="2.31234">
        <ele>974.9</ele>
        <time>2019-01-18T15:54:40Z</time>
      </trkpt>
      <trkpt lat="42.12419" lon="2.31237">
        <ele>974.5</ele>
        <time>2019-01-18T15:54:43Z</time>
      </trkpt>
      <trkpt lat="42.12416" lon="2.31239">
        <ele>973.9</ele>
        <time>2019-01-18T15:54:46Z</time>
      </trkpt>
      <trkpt lat="42.12412" lon="2.31241">
        <ele>973.8</ele>
        <time>2019-01-18T15:54:50Z</time>
      </trkpt>
      <trkpt lat="42.12409" lon="2.31243">
        <ele>973.4</ele>
        <time>2019-01-18T15:54:52Z</time>
      </trkpt>
      <trkpt lat="42.12405" lon="2.31246">
        <ele>973.2</ele>
        <time>2019-01-18T15:54:56Z</time>
      </trkpt>
      <trkpt lat="42.12401" lon="2.31251">
        <ele>972.8</ele>
        <time>2019-01-18T15:55:01Z</time>
      </trkpt>
      <trkpt lat="42.12396" lon="2.31255">
        <ele>972.6</ele>
        <time>2019-01-18T15:55:05Z</time>
      </trkpt>
      <trkpt lat="42.12393" lon="2.31257">
        <ele>972.3</ele>
        <time>2019-01-18T15:55:08Z</time>
      </trkpt>
      <trkpt lat="42.12388" lon="2.3126">
        <ele>971.9</ele>
        <time>2019-01-18T15:55:12Z</time>
      </trkpt>
      <trkpt lat="42.12385" lon="2.31265">
        <ele>971.8</ele>
        <time>2019-01-18T15:55:16Z</time>
      </trkpt>
      <trkpt lat="42.12384" lon="2.31272">
        <ele>971.6</ele>
        <time>2019-01-18T15:55:20Z</time>
      </trkpt>
      <trkpt lat="42.12385" lon="2.31277">
        <ele>971.7</ele>
        <time>2019-01-18T15:55:23Z</time>
      </trkpt>
      <trkpt lat="42.12387" lon="2.31283">
        <ele>971.9</ele>
        <time>2019-01-18T15:55:27Z</time>
      </trkpt>
      <trkpt lat="42.12387" lon="2.31288">
        <ele>972</ele>
        <time>2019-01-18T15:55:30Z</time>
      </trkpt>
      <trkpt lat="42.1239" lon="2.31293">
        <ele>972.2</ele>
        <time>2019-01-18T15:55:33Z</time>
      </trkpt>
      <trkpt lat="42.12392" lon="2.31298">
        <ele>972.2</ele>
        <time>2019-01-18T15:55:37Z</time>
      </trkpt>
      <trkpt lat="42.12392" lon="2.31303">
        <ele>972.2</ele>
        <time>2019-01-18T15:55:39Z</time>
      </trkpt>
      <trkpt lat="42.1239" lon="2.31307">
        <ele>972</ele>
        <time>2019-01-18T15:55:43Z</time>
      </trkpt>
      <trkpt lat="42.12385" lon="2.31309">
        <ele>971.6</ele>
        <time>2019-01-18T15:55:46Z</time>
      </trkpt>
      <trkpt lat="42.12381" lon="2.3131">
        <ele>971.2</ele>
        <time>2019-01-18T15:55:50Z</time>
      </trkpt>
      <trkpt lat="42.12377" lon="2.31311">
        <ele>970.7</ele>
        <time>2019-01-18T15:55:53Z</time>
      </trkpt>
      <trkpt lat="42.12373" lon="2.31312">
        <ele>970.4</ele>
        <time>2019-01-18T15:55:56Z</time>
      </trkpt>
      <trkpt lat="42.1237" lon="2.31312">
        <ele>970</ele>
        <time>2019-01-18T15:55:59Z</time>
      </trkpt>
      <trkpt lat="42.12366" lon="2.31312">
        <ele>969.7</ele>
        <time>2019-01-18T15:56:02Z</time>
      </trkpt>
      <trkpt lat="42.12362" lon="2.31312">
        <ele>969.4</ele>
        <time>2019-01-18T15:56:05Z</time>
      </trkpt>
      <trkpt lat="42.12359" lon="2.31311">
        <ele>969.2</ele>
        <time>2019-01-18T15:56:08Z</time>
      </trkpt>
      <trkpt lat="42.12354" lon="2.3131">
        <ele>969</ele>
        <time>2019-01-18T15:56:12Z</time>
      </trkpt>
      <trkpt lat="42.12348" lon="2.3131">
        <ele>968.6</ele>
        <time>2019-01-18T15:56:16Z</time>
      </trkpt>
      <trkpt lat="42.12344" lon="2.3131">
        <ele>968.5</ele>
        <time>2019-01-18T15:56:19Z</time>
      </trkpt>
      <trkpt lat="42.12341" lon="2.31309">
        <ele>968.2</ele>
        <time>2019-01-18T15:56:22Z</time>
      </trkpt>
      <trkpt lat="42.12337" lon="2.31308">
        <ele>968</ele>
        <time>2019-01-18T15:56:26Z</time>
      </trkpt>
      <trkpt lat="42.12333" lon="2.31307">
        <ele>967.9</ele>
        <time>2019-01-18T15:56:29Z</time>
      </trkpt>
      <trkpt lat="42.1233" lon="2.31305">
        <ele>967.4</ele>
        <time>2019-01-18T15:56:32Z</time>
      </trkpt>
      <trkpt lat="42.12326" lon="2.31303">
        <ele>966.7</ele>
        <time>2019-01-18T15:56:35Z</time>
      </trkpt>
      <trkpt lat="42.12322" lon="2.31302">
        <ele>966.1</ele>
        <time>2019-01-18T15:56:38Z</time>
      </trkpt>
      <trkpt lat="42.12319" lon="2.313">
        <ele>965.6</ele>
        <time>2019-01-18T15:56:41Z</time>
      </trkpt>
      <trkpt lat="42.12315" lon="2.31299">
        <ele>965.1</ele>
        <time>2019-01-18T15:56:44Z</time>
      </trkpt>
      <trkpt lat="42.12311" lon="2.31297">
        <ele>964.5</ele>
        <time>2019-01-18T15:56:47Z</time>
      </trkpt>
      <trkpt lat="42.12308" lon="2.31295">
        <ele>964.2</ele>
        <time>2019-01-18T15:56:50Z</time>
      </trkpt>
      <trkpt lat="42.12304" lon="2.31293">
        <ele>963.7</ele>
        <time>2019-01-18T15:56:53Z</time>
      </trkpt>
      <trkpt lat="42.12301" lon="2.31291">
        <ele>963.4</ele>
        <time>2019-01-18T15:56:56Z</time>
      </trkpt>
      <trkpt lat="42.12297" lon="2.31288">
        <ele>962.8</ele>
        <time>2019-01-18T15:56:59Z</time>
      </trkpt>
      <trkpt lat="42.12294" lon="2.31285">
        <ele>962.3</ele>
        <time>2019-01-18T15:57:02Z</time>
      </trkpt>
      <trkpt lat="42.12292" lon="2.31282">
        <ele>962</ele>
        <time>2019-01-18T15:57:05Z</time>
      </trkpt>
      <trkpt lat="42.1229" lon="2.31277">
        <ele>961.7</ele>
        <time>2019-01-18T15:57:08Z</time>
      </trkpt>
      <trkpt lat="42.12288" lon="2.31272">
        <ele>961.3</ele>
        <time>2019-01-18T15:57:12Z</time>
      </trkpt>
      <trkpt lat="42.1228" lon="2.3128">
        <ele>959.6</ele>
        <time>2019-01-18T15:57:20Z</time>
      </trkpt>
      <trkpt lat="42.12278" lon="2.31294">
        <ele>959.6</ele>
        <time>2019-01-18T15:57:28Z</time>
      </trkpt>
      <trkpt lat="42.12276" lon="2.31308">
        <ele>959.8</ele>
        <time>2019-01-18T15:57:37Z</time>
      </trkpt>
      <trkpt lat="42.12276" lon="2.31322">
        <ele>959.3</ele>
        <time>2019-01-18T15:57:45Z</time>
      </trkpt>
      <trkpt lat="42.12272" lon="2.31335">
        <ele>958.4</ele>
        <time>2019-01-18T15:57:53Z</time>
      </trkpt>
      <trkpt lat="42.12264" lon="2.31343">
        <ele>958</ele>
        <time>2019-01-18T15:58:01Z</time>
      </trkpt>
      <trkpt lat="42.12259" lon="2.31355">
        <ele>957.9</ele>
        <time>2019-01-18T15:58:10Z</time>
      </trkpt>
      <trkpt lat="42.12253" lon="2.31365">
        <ele>958.1</ele>
        <time>2019-01-18T15:58:17Z</time>
      </trkpt>
      <trkpt lat="42.12246" lon="2.31373">
        <ele>958.6</ele>
        <time>2019-01-18T15:58:25Z</time>
      </trkpt>
      <trkpt lat="42.12235" lon="2.31373">
        <ele>957.7</ele>
        <time>2019-01-18T15:58:33Z</time>
      </trkpt>
      <trkpt lat="42.12225" lon="2.3137">
        <ele>956</ele>
        <time>2019-01-18T15:58:41Z</time>
      </trkpt>
      <trkpt lat="42.12216" lon="2.31369">
        <ele>954.9</ele>
        <time>2019-01-18T15:58:49Z</time>
      </trkpt>
      <trkpt lat="42.12206" lon="2.31369">
        <ele>953.9</ele>
        <time>2019-01-18T15:58:57Z</time>
      </trkpt>
      <trkpt lat="42.12196" lon="2.31367">
        <ele>952.7</ele>
        <time>2019-01-18T15:59:05Z</time>
      </trkpt>
      <trkpt lat="42.12187" lon="2.31367">
        <ele>951.7</ele>
        <time>2019-01-18T15:59:12Z</time>
      </trkpt>
      <trkpt lat="42.12177" lon="2.31365">
        <ele>950.6</ele>
        <time>2019-01-18T15:59:20Z</time>
      </trkpt>
      <trkpt lat="42.12168" lon="2.31365">
        <ele>949.9</ele>
        <time>2019-01-18T15:59:27Z</time>
      </trkpt>
      <trkpt lat="42.12159" lon="2.31363">
        <ele>949</ele>
        <time>2019-01-18T15:59:35Z</time>
      </trkpt>
      <trkpt lat="42.12149" lon="2.31358">
        <ele>948</ele>
        <time>2019-01-18T15:59:43Z</time>
      </trkpt>
      <trkpt lat="42.12139" lon="2.31354">
        <ele>947.1</ele>
        <time>2019-01-18T15:59:51Z</time>
      </trkpt>
      <trkpt lat="42.1213" lon="2.31355">
        <ele>946</ele>
        <time>2019-01-18T15:59:59Z</time>
      </trkpt>
      <trkpt lat="42.1212" lon="2.31359">
        <ele>945</ele>
        <time>2019-01-18T16:00:07Z</time>
      </trkpt>
      <trkpt lat="42.1211" lon="2.31362">
        <ele>943.7</ele>
        <time>2019-01-18T16:00:15Z</time>
      </trkpt>
      <trkpt lat="42.121" lon="2.31366">
        <ele>942.1</ele>
        <time>2019-01-18T16:00:23Z</time>
      </trkpt>
      <trkpt lat="42.12096" lon="2.31378">
        <ele>941.5</ele>
        <time>2019-01-18T16:00:31Z</time>
      </trkpt>
      <trkpt lat="42.12095" lon="2.3139">
        <ele>941.4</ele>
        <time>2019-01-18T16:00:39Z</time>
      </trkpt>
      <trkpt lat="42.12093" lon="2.31404">
        <ele>940.1</ele>
        <time>2019-01-18T16:00:47Z</time>
      </trkpt>
      <trkpt lat="42.12085" lon="2.3141">
        <ele>938.4</ele>
        <time>2019-01-18T16:00:55Z</time>
      </trkpt>
      <trkpt lat="42.12074" lon="2.31408">
        <ele>937.4</ele>
        <time>2019-01-18T16:01:03Z</time>
      </trkpt>
      <trkpt lat="42.12063" lon="2.31409">
        <ele>936.5</ele>
        <time>2019-01-18T16:01:12Z</time>
      </trkpt>
      <trkpt lat="42.12053" lon="2.3141">
        <ele>935.7</ele>
        <time>2019-01-18T16:01:20Z</time>
      </trkpt>
      <trkpt lat="42.12043" lon="2.31409">
        <ele>934.9</ele>
        <time>2019-01-18T16:01:28Z</time>
      </trkpt>
      <trkpt lat="42.12033" lon="2.31409">
        <ele>934.3</ele>
        <time>2019-01-18T16:01:36Z</time>
      </trkpt>
      <trkpt lat="42.12024" lon="2.31411">
        <ele>933.7</ele>
        <time>2019-01-18T16:01:43Z</time>
      </trkpt>
      <trkpt lat="42.12015" lon="2.31412">
        <ele>932.5</ele>
        <time>2019-01-18T16:01:51Z</time>
      </trkpt>
      <trkpt lat="42.12005" lon="2.31412">
        <ele>931.1</ele>
        <time>2019-01-18T16:01:59Z</time>
      </trkpt>
      <trkpt lat="42.11996" lon="2.31416">
        <ele>930</ele>
        <time>2019-01-18T16:02:06Z</time>
      </trkpt>
      <trkpt lat="42.11987" lon="2.31422">
        <ele>929.9</ele>
        <time>2019-01-18T16:02:14Z</time>
      </trkpt>
      <trkpt lat="42.11979" lon="2.31427">
        <ele>930.1</ele>
        <time>2019-01-18T16:02:21Z</time>
      </trkpt>
      <trkpt lat="42.1197" lon="2.31432">
        <ele>929.4</ele>
        <time>2019-01-18T16:02:29Z</time>
      </trkpt>
      <trkpt lat="42.11962" lon="2.3144">
        <ele>929</ele>
        <time>2019-01-18T16:02:37Z</time>
      </trkpt>
      <trkpt lat="42.11956" lon="2.31448">
        <ele>928.4</ele>
        <time>2019-01-18T16:02:44Z</time>
      </trkpt>
      <trkpt lat="42.11949" lon="2.31457">
        <ele>928.3</ele>
        <time>2019-01-18T16:02:51Z</time>
      </trkpt>
      <trkpt lat="42.1194" lon="2.31464">
        <ele>927</ele>
        <time>2019-01-18T16:03:00Z</time>
      </trkpt>
      <trkpt lat="42.1193" lon="2.31467">
        <ele>924.3</ele>
        <time>2019-01-18T16:03:08Z</time>
      </trkpt>
      <trkpt lat="42.1192" lon="2.31469">
        <ele>920.9</ele>
        <time>2019-01-18T16:03:16Z</time>
      </trkpt>
      <trkpt lat="42.11912" lon="2.31477">
        <ele>921.8</ele>
        <time>2019-01-18T16:03:24Z</time>
      </trkpt>
      <trkpt lat="42.11912" lon="2.3149">
        <ele>924.7</ele>
        <time>2019-01-18T16:03:32Z</time>
      </trkpt>
      <trkpt lat="42.11908" lon="2.31501">
        <ele>926.1</ele>
        <time>2019-01-18T16:03:39Z</time>
      </trkpt>
      <trkpt lat="42.11899" lon="2.31507">
        <ele>924.3</ele>
        <time>2019-01-18T16:03:47Z</time>
      </trkpt>
      <trkpt lat="42.11889" lon="2.3151">
        <ele>922.4</ele>
        <time>2019-01-18T16:03:55Z</time>
      </trkpt>
      <trkpt lat="42.11881" lon="2.31515">
        <ele>921</ele>
        <time>2019-01-18T16:04:03Z</time>
      </trkpt>
      <trkpt lat="42.11873" lon="2.31524">
        <ele>920.2</ele>
        <time>2019-01-18T16:04:11Z</time>
      </trkpt>
      <trkpt lat="42.11863" lon="2.31527">
        <ele>919.2</ele>
        <time>2019-01-18T16:04:19Z</time>
      </trkpt>
      <trkpt lat="42.11854" lon="2.31527">
        <ele>918.2</ele>
        <time>2019-01-18T16:04:26Z</time>
      </trkpt>
      <trkpt lat="42.11844" lon="2.31528">
        <ele>917.7</ele>
        <time>2019-01-18T16:04:34Z</time>
      </trkpt>
      <trkpt lat="42.11836" lon="2.31535">
        <ele>920</ele>
        <time>2019-01-18T16:04:42Z</time>
      </trkpt>
      <trkpt lat="42.11835" lon="2.31548">
        <ele>924.6</ele>
        <time>2019-01-18T16:04:50Z</time>
      </trkpt>
      <trkpt lat="42.11835" lon="2.31563">
        <ele>928.2</ele>
        <time>2019-01-18T16:04:58Z</time>
      </trkpt>
      <trkpt lat="42.11834" lon="2.31576">
        <ele>929.5</ele>
        <time>2019-01-18T16:05:06Z</time>
      </trkpt>
      <trkpt lat="42.11834" lon="2.31589">
        <ele>929.5</ele>
        <time>2019-01-18T16:05:14Z</time>
      </trkpt>
      <trkpt lat="42.11834" lon="2.31602">
        <ele>927.2</ele>
        <time>2019-01-18T16:05:22Z</time>
      </trkpt>
      <trkpt lat="42.1183" lon="2.31614">
        <ele>923.6</ele>
        <time>2019-01-18T16:05:29Z</time>
      </trkpt>
      <trkpt lat="42.11821" lon="2.31614">
        <ele>919.5</ele>
        <time>2019-01-18T16:05:37Z</time>
      </trkpt>
      <trkpt lat="42.1181" lon="2.31612">
        <ele>915</ele>
        <time>2019-01-18T16:05:45Z</time>
      </trkpt>
      <trkpt lat="42.118" lon="2.3161">
        <ele>912.7</ele>
        <time>2019-01-18T16:05:53Z</time>
      </trkpt>
      <trkpt lat="42.11791" lon="2.31615">
        <ele>913</ele>
        <time>2019-01-18T16:06:02Z</time>
      </trkpt>
      <trkpt lat="42.11782" lon="2.31622">
        <ele>914.7</ele>
        <time>2019-01-18T16:06:10Z</time>
      </trkpt>
      <trkpt lat="42.11776" lon="2.31634">
        <ele>917.6</ele>
        <time>2019-01-18T16:06:18Z</time>
      </trkpt>
      <trkpt lat="42.11766" lon="2.31636">
        <ele>915.4</ele>
        <time>2019-01-18T16:06:26Z</time>
      </trkpt>
      <trkpt lat="42.11756" lon="2.31636">
        <ele>912.5</ele>
        <time>2019-01-18T16:06:34Z</time>
      </trkpt>
      <trkpt lat="42.11748" lon="2.3164">
        <ele>910.7</ele>
        <time>2019-01-18T16:06:41Z</time>
      </trkpt>
      <trkpt lat="42.11738" lon="2.31646">
        <ele>910.6</ele>
        <time>2019-01-18T16:06:50Z</time>
      </trkpt>
      <trkpt lat="42.11729" lon="2.31654">
        <ele>911.8</ele>
        <time>2019-01-18T16:06:58Z</time>
      </trkpt>
      <trkpt lat="42.11722" lon="2.31663">
        <ele>913.8</ele>
        <time>2019-01-18T16:07:06Z</time>
      </trkpt>
      <trkpt lat="42.11715" lon="2.31672">
        <ele>914.6</ele>
        <time>2019-01-18T16:07:13Z</time>
      </trkpt>
      <trkpt lat="42.11706" lon="2.31679">
        <ele>914.1</ele>
        <time>2019-01-18T16:07:22Z</time>
      </trkpt>
      <trkpt lat="42.11697" lon="2.31682">
        <ele>911.9</ele>
        <time>2019-01-18T16:07:30Z</time>
      </trkpt>
      <trkpt lat="42.11688" lon="2.31688">
        <ele>910.5</ele>
        <time>2019-01-18T16:07:38Z</time>
      </trkpt>
      <trkpt lat="42.1168" lon="2.31698">
        <ele>911.2</ele>
        <time>2019-01-18T16:07:46Z</time>
      </trkpt>
      <trkpt lat="42.11676" lon="2.31708">
        <ele>914</ele>
        <time>2019-01-18T16:07:53Z</time>
      </trkpt>
      <trkpt lat="42.11673" lon="2.31721">
        <ele>918.3</ele>
        <time>2019-01-18T16:08:01Z</time>
      </trkpt>
      <trkpt lat="42.11666" lon="2.3173">
        <ele>916.2</ele>
        <time>2019-01-18T16:08:09Z</time>
      </trkpt>
      <trkpt lat="42.11657" lon="2.31735">
        <ele>911.7</ele>
        <time>2019-01-18T16:08:17Z</time>
      </trkpt>
      <trkpt lat="42.11648" lon="2.31738">
        <ele>907.3</ele>
        <time>2019-01-18T16:08:25Z</time>
      </trkpt>
      <trkpt lat="42.11638" lon="2.31743">
        <ele>902.7</ele>
        <time>2019-01-18T16:08:33Z</time>
      </trkpt>
      <trkpt lat="42.11631" lon="2.31753">
        <ele>901.6</ele>
        <time>2019-01-18T16:08:41Z</time>
      </trkpt>
      <trkpt lat="42.11629" lon="2.31767">
        <ele>905.4</ele>
        <time>2019-01-18T16:08:49Z</time>
      </trkpt>
      <trkpt lat="42.11628" lon="2.31779">
        <ele>908.1</ele>
        <time>2019-01-18T16:08:57Z</time>
      </trkpt>
      <trkpt lat="42.11625" lon="2.31792">
        <ele>908.1</ele>
        <time>2019-01-18T16:09:04Z</time>
      </trkpt>
      <trkpt lat="42.11621" lon="2.31804">
        <ele>907.1</ele>
        <time>2019-01-18T16:09:12Z</time>
      </trkpt>
      <trkpt lat="42.11615" lon="2.31813">
        <ele>903.4</ele>
        <time>2019-01-18T16:09:20Z</time>
      </trkpt>
      <trkpt lat="42.11613" lon="2.31826">
        <ele>902</ele>
        <time>2019-01-18T16:09:28Z</time>
      </trkpt>
      <trkpt lat="42.11607" lon="2.31837">
        <ele>898.2</ele>
        <time>2019-01-18T16:09:36Z</time>
      </trkpt>
      <trkpt lat="42.11596" lon="2.31838">
        <ele>893.7</ele>
        <time>2019-01-18T16:09:44Z</time>
      </trkpt>
      <trkpt lat="42.11587" lon="2.31842">
        <ele>889.8</ele>
        <time>2019-01-18T16:09:52Z</time>
      </trkpt>
      <trkpt lat="42.1158" lon="2.3185">
        <ele>887.6</ele>
        <time>2019-01-18T16:09:59Z</time>
      </trkpt>
      <trkpt lat="42.11586" lon="2.31861">
        <ele>889.6</ele>
        <time>2019-01-18T16:10:08Z</time>
      </trkpt>
      <trkpt lat="42.11586" lon="2.31874">
        <ele>886.1</ele>
        <time>2019-01-18T16:10:15Z</time>
      </trkpt>
      <trkpt lat="42.11586" lon="2.31887">
        <ele>882.7</ele>
        <time>2019-01-18T16:10:23Z</time>
      </trkpt>
      <trkpt lat="42.11591" lon="2.31897">
        <ele>878.5</ele>
        <time>2019-01-18T16:10:30Z</time>
      </trkpt>
      <trkpt lat="42.11596" lon="2.31907">
        <ele>873.1</ele>
        <time>2019-01-18T16:10:38Z</time>
      </trkpt>
      <trkpt lat="42.11606" lon="2.31914">
        <ele>869</ele>
        <time>2019-01-18T16:10:46Z</time>
      </trkpt>
      <trkpt lat="42.11612" lon="2.31924">
        <ele>864.7</ele>
        <time>2019-01-18T16:10:54Z</time>
      </trkpt>
      <trkpt lat="42.11608" lon="2.31937">
        <ele>860.3</ele>
        <time>2019-01-18T16:11:03Z</time>
      </trkpt>
      <trkpt lat="42.11602" lon="2.31945">
        <ele>856.7</ele>
        <time>2019-01-18T16:11:10Z</time>
      </trkpt>
      <trkpt lat="42.11594" lon="2.31951">
        <ele>853.2</ele>
        <time>2019-01-18T16:11:17Z</time>
      </trkpt>
      <trkpt lat="42.11584" lon="2.3195">
        <ele>852.8</ele>
        <time>2019-01-18T16:11:25Z</time>
      </trkpt>
      <trkpt lat="42.11575" lon="2.31947">
        <ele>850.7</ele>
        <time>2019-01-18T16:11:33Z</time>
      </trkpt>
      <trkpt lat="42.11566" lon="2.31947">
        <ele>847.4</ele>
        <time>2019-01-18T16:11:40Z</time>
      </trkpt>
      <trkpt lat="42.11556" lon="2.31946">
        <ele>843.3</ele>
        <time>2019-01-18T16:11:48Z</time>
      </trkpt>
      <trkpt lat="42.11547" lon="2.3194">
        <ele>845</ele>
        <time>2019-01-18T16:11:56Z</time>
      </trkpt>
      <trkpt lat="42.11543" lon="2.31928">
        <ele>846.9</ele>
        <time>2019-01-18T16:12:03Z</time>
      </trkpt>
      <trkpt lat="42.11538" lon="2.31917">
        <ele>846.3</ele>
        <time>2019-01-18T16:12:11Z</time>
      </trkpt>
      <trkpt lat="42.11529" lon="2.31913">
        <ele>843.7</ele>
        <time>2019-01-18T16:12:19Z</time>
      </trkpt>
      <trkpt lat="42.11521" lon="2.31922">
        <ele>843</ele>
        <time>2019-01-18T16:12:27Z</time>
      </trkpt>
      <trkpt lat="42.11514" lon="2.3193">
        <ele>844.9</ele>
        <time>2019-01-18T16:12:34Z</time>
      </trkpt>
      <trkpt lat="42.11505" lon="2.3193">
        <ele>845.4</ele>
        <time>2019-01-18T16:12:42Z</time>
      </trkpt>
      <trkpt lat="42.11496" lon="2.31925">
        <ele>844.3</ele>
        <time>2019-01-18T16:12:49Z</time>
      </trkpt>
      <trkpt lat="42.11487" lon="2.31923">
        <ele>844.7</ele>
        <time>2019-01-18T16:12:57Z</time>
      </trkpt>
      <trkpt lat="42.11477" lon="2.31925">
        <ele>846.8</ele>
        <time>2019-01-18T16:13:04Z</time>
      </trkpt>
      <trkpt lat="42.11468" lon="2.31926">
        <ele>849.5</ele>
        <time>2019-01-18T16:13:12Z</time>
      </trkpt>
      <trkpt lat="42.1146" lon="2.31919">
        <ele>846.5</ele>
        <time>2019-01-18T16:13:20Z</time>
      </trkpt>
      <trkpt lat="42.11449" lon="2.31914">
        <ele>846.6</ele>
        <time>2019-01-18T16:13:29Z</time>
      </trkpt>
      <trkpt lat="42.11442" lon="2.31907">
        <ele>846.8</ele>
        <time>2019-01-18T16:13:36Z</time>
      </trkpt>
      <trkpt lat="42.11432" lon="2.31903">
        <ele>849.1</ele>
        <time>2019-01-18T16:13:44Z</time>
      </trkpt>
      <trkpt lat="42.11423" lon="2.319">
        <ele>850.8</ele>
        <time>2019-01-18T16:13:52Z</time>
      </trkpt>
      <trkpt lat="42.11414" lon="2.31899">
        <ele>852.9</ele>
        <time>2019-01-18T16:13:59Z</time>
      </trkpt>
      <trkpt lat="42.11406" lon="2.31905">
        <ele>856.8</ele>
        <time>2019-01-18T16:14:06Z</time>
      </trkpt>
      <trkpt lat="42.11398" lon="2.31912">
        <ele>862.7</ele>
        <time>2019-01-18T16:14:14Z</time>
      </trkpt>
      <trkpt lat="42.11389" lon="2.31916">
        <ele>867.9</ele>
        <time>2019-01-18T16:14:21Z</time>
      </trkpt>
      <trkpt lat="42.1138" lon="2.31924">
        <ele>871.5</ele>
        <time>2019-01-18T16:14:30Z</time>
      </trkpt>
      <trkpt lat="42.11372" lon="2.31931">
        <ele>874.5</ele>
        <time>2019-01-18T16:14:38Z</time>
      </trkpt>
      <trkpt lat="42.11364" lon="2.3194">
        <ele>879</ele>
        <time>2019-01-18T16:14:46Z</time>
      </trkpt>
      <trkpt lat="42.11355" lon="2.31944">
        <ele>880.2</ele>
        <time>2019-01-18T16:14:54Z</time>
      </trkpt>
      <trkpt lat="42.11346" lon="2.31942">
        <ele>878.3</ele>
        <time>2019-01-18T16:15:01Z</time>
      </trkpt>
      <trkpt lat="42.11336" lon="2.31937">
        <ele>875.1</ele>
        <time>2019-01-18T16:15:09Z</time>
      </trkpt>
      <trkpt lat="42.11328" lon="2.31931">
        <ele>874.6</ele>
        <time>2019-01-18T16:15:17Z</time>
      </trkpt>
      <trkpt lat="42.11322" lon="2.3192">
        <ele>872.2</ele>
        <time>2019-01-18T16:15:24Z</time>
      </trkpt>
      <trkpt lat="42.11314" lon="2.31915">
        <ele>874.3</ele>
        <time>2019-01-18T16:15:32Z</time>
      </trkpt>
      <trkpt lat="42.11304" lon="2.31916">
        <ele>879.7</ele>
        <time>2019-01-18T16:15:40Z</time>
      </trkpt>
      <trkpt lat="42.11295" lon="2.31913">
        <ele>879</ele>
        <time>2019-01-18T16:15:47Z</time>
      </trkpt>
      <trkpt lat="42.11284" lon="2.3191">
        <ele>878.3</ele>
        <time>2019-01-18T16:15:56Z</time>
      </trkpt>
      <trkpt lat="42.11275" lon="2.31907">
        <ele>880.6</ele>
        <time>2019-01-18T16:16:04Z</time>
      </trkpt>
      <trkpt lat="42.11271" lon="2.31894">
        <ele>878.7</ele>
        <time>2019-01-18T16:16:12Z</time>
      </trkpt>
      <trkpt lat="42.11267" lon="2.3188">
        <ele>876.5</ele>
        <time>2019-01-18T16:16:21Z</time>
      </trkpt>
      <trkpt lat="42.11263" lon="2.31869">
        <ele>875</ele>
        <time>2019-01-18T16:16:28Z</time>
      </trkpt>
      <trkpt lat="42.11254" lon="2.31863">
        <ele>878.3</ele>
        <time>2019-01-18T16:16:36Z</time>
      </trkpt>
      <trkpt lat="42.11245" lon="2.31861">
        <ele>881.9</ele>
        <time>2019-01-18T16:16:43Z</time>
      </trkpt>
      <trkpt lat="42.11236" lon="2.31856">
        <ele>883.5</ele>
        <time>2019-01-18T16:16:51Z</time>
      </trkpt>
      <trkpt lat="42.11229" lon="2.31846">
        <ele>880.9</ele>
        <time>2019-01-18T16:16:59Z</time>
      </trkpt>
      <trkpt lat="42.11224" lon="2.31834">
        <ele>876.2</ele>
        <time>2019-01-18T16:17:07Z</time>
      </trkpt>
      <trkpt lat="42.11219" lon="2.31825">
        <ele>872.8</ele>
        <time>2019-01-18T16:17:15Z</time>
      </trkpt>
      <trkpt lat="42.11209" lon="2.31826">
        <ele>874.9</ele>
        <time>2019-01-18T16:17:23Z</time>
      </trkpt>
      <trkpt lat="42.112" lon="2.31832">
        <ele>878.1</ele>
        <time>2019-01-18T16:17:30Z</time>
      </trkpt>
      <trkpt lat="42.11194" lon="2.31842">
        <ele>881.5</ele>
        <time>2019-01-18T16:17:38Z</time>
      </trkpt>
      <trkpt lat="42.11185" lon="2.31848">
        <ele>876.8</ele>
        <time>2019-01-18T16:17:47Z</time>
      </trkpt>
      <trkpt lat="42.11176" lon="2.31854">
        <ele>872.9</ele>
        <time>2019-01-18T16:17:54Z</time>
      </trkpt>
      <trkpt lat="42.11169" lon="2.3186">
        <ele>870</ele>
        <time>2019-01-18T16:18:01Z</time>
      </trkpt>
      <trkpt lat="42.11159" lon="2.31866">
        <ele>866.9</ele>
        <time>2019-01-18T16:18:09Z</time>
      </trkpt>
      <trkpt lat="42.11153" lon="2.31874">
        <ele>866.2</ele>
        <time>2019-01-18T16:18:17Z</time>
      </trkpt>
      <trkpt lat="42.11147" lon="2.31884">
        <ele>866.1</ele>
        <time>2019-01-18T16:18:24Z</time>
      </trkpt>
      <trkpt lat="42.11141" lon="2.31894">
        <ele>865.5</ele>
        <time>2019-01-18T16:18:32Z</time>
      </trkpt>
      <trkpt lat="42.11132" lon="2.31897">
        <ele>862.4</ele>
        <time>2019-01-18T16:18:39Z</time>
      </trkpt>
      <trkpt lat="42.11124" lon="2.31902">
        <ele>861.3</ele>
        <time>2019-01-18T16:18:46Z</time>
      </trkpt>
      <trkpt lat="42.11116" lon="2.31911">
        <ele>862.1</ele>
        <time>2019-01-18T16:18:54Z</time>
      </trkpt>
      <trkpt lat="42.11105" lon="2.31925">
        <ele>866.9</ele>
        <time>2019-01-18T16:19:06Z</time>
      </trkpt>
      <trkpt lat="42.11098" lon="2.31935">
        <ele>871.7</ele>
        <time>2019-01-18T16:19:15Z</time>
      </trkpt>
      <trkpt lat="42.1109" lon="2.31941">
        <ele>874.3</ele>
        <time>2019-01-18T16:19:22Z</time>
      </trkpt>
      <trkpt lat="42.11081" lon="2.31943">
        <ele>876</ele>
        <time>2019-01-18T16:19:30Z</time>
      </trkpt>
      <trkpt lat="42.11072" lon="2.31939">
        <ele>876.8</ele>
        <time>2019-01-18T16:19:37Z</time>
      </trkpt>
      <trkpt lat="42.11058" lon="2.31943">
        <ele>882.4</ele>
        <time>2019-01-18T16:19:48Z</time>
      </trkpt>
      <trkpt lat="42.11048" lon="2.31946">
        <ele>886.7</ele>
        <time>2019-01-18T16:19:56Z</time>
      </trkpt>
      <trkpt lat="42.11038" lon="2.31942">
        <ele>888.1</ele>
        <time>2019-01-18T16:20:04Z</time>
      </trkpt>
      <trkpt lat="42.1103" lon="2.31939">
        <ele>889.6</ele>
        <time>2019-01-18T16:20:12Z</time>
      </trkpt>
      <trkpt lat="42.11022" lon="2.31946">
        <ele>892.4</ele>
        <time>2019-01-18T16:20:19Z</time>
      </trkpt>
      <trkpt lat="42.11022" lon="2.31959">
        <ele>895.6</ele>
        <time>2019-01-18T16:20:27Z</time>
      </trkpt>
      <trkpt lat="42.11023" lon="2.31972">
        <ele>898.4</ele>
        <time>2019-01-18T16:20:35Z</time>
      </trkpt>
      <trkpt lat="42.11027" lon="2.31984">
        <ele>899.5</ele>
        <time>2019-01-18T16:20:42Z</time>
      </trkpt>
      <trkpt lat="42.11018" lon="2.31988">
        <ele>901.7</ele>
        <time>2019-01-18T16:20:49Z</time>
      </trkpt>
      <trkpt lat="42.11008" lon="2.31986">
        <ele>903</ele>
        <time>2019-01-18T16:20:57Z</time>
      </trkpt>
      <trkpt lat="42.11" lon="2.31981">
        <ele>903</ele>
        <time>2019-01-18T16:21:05Z</time>
      </trkpt>
      <trkpt lat="42.10991" lon="2.31975">
        <ele>904.6</ele>
        <time>2019-01-18T16:21:12Z</time>
      </trkpt>
      <trkpt lat="42.10982" lon="2.31971">
        <ele>906.5</ele>
        <time>2019-01-18T16:21:21Z</time>
      </trkpt>
      <trkpt lat="42.10972" lon="2.3197">
        <ele>909.2</ele>
        <time>2019-01-18T16:21:29Z</time>
      </trkpt>
      <trkpt lat="42.10979" lon="2.31978">
        <ele>911.3</ele>
        <time>2019-01-18T16:21:36Z</time>
      </trkpt>
      <trkpt lat="42.10986" lon="2.31985">
        <ele>910.6</ele>
        <time>2019-01-18T16:21:44Z</time>
      </trkpt>
      <trkpt lat="42.1099" lon="2.31997">
        <ele>913.5</ele>
        <time>2019-01-18T16:21:51Z</time>
      </trkpt>
      <trkpt lat="42.10997" lon="2.32004">
        <ele>912.4</ele>
        <time>2019-01-18T16:21:58Z</time>
      </trkpt>
      <trkpt lat="42.11002" lon="2.32016">
        <ele>915.2</ele>
        <time>2019-01-18T16:22:06Z</time>
      </trkpt>
      <trkpt lat="42.11009" lon="2.32024">
        <ele>915.5</ele>
        <time>2019-01-18T16:22:14Z</time>
      </trkpt>
      <trkpt lat="42.11017" lon="2.32029">
        <ele>913.3</ele>
        <time>2019-01-18T16:22:21Z</time>
      </trkpt>
      <trkpt lat="42.11027" lon="2.32033">
        <ele>909.8</ele>
        <time>2019-01-18T16:22:30Z</time>
      </trkpt>
      <trkpt lat="42.11039" lon="2.32049">
        <ele>915.3</ele>
        <time>2019-01-18T16:22:43Z</time>
      </trkpt>
      <trkpt lat="42.11044" lon="2.32061">
        <ele>918.8</ele>
        <time>2019-01-18T16:22:51Z</time>
      </trkpt>
      <trkpt lat="42.11051" lon="2.32071">
        <ele>921.9</ele>
        <time>2019-01-18T16:23:00Z</time>
      </trkpt>
      <trkpt lat="42.11057" lon="2.32081">
        <ele>924.9</ele>
        <time>2019-01-18T16:23:07Z</time>
      </trkpt>
      <trkpt lat="42.11063" lon="2.3209">
        <ele>929.4</ele>
        <time>2019-01-18T16:23:15Z</time>
      </trkpt>
      <trkpt lat="42.11059" lon="2.32101">
        <ele>931.5</ele>
        <time>2019-01-18T16:23:22Z</time>
      </trkpt>
      <trkpt lat="42.1105" lon="2.32098">
        <ele>930.7</ele>
        <time>2019-01-18T16:23:29Z</time>
      </trkpt>
      <trkpt lat="42.11042" lon="2.32093">
        <ele>930.3</ele>
        <time>2019-01-18T16:23:37Z</time>
      </trkpt>
      <trkpt lat="42.11032" lon="2.32099">
        <ele>934</ele>
        <time>2019-01-18T16:23:45Z</time>
      </trkpt>
      <trkpt lat="42.11023" lon="2.32099">
        <ele>936.8</ele>
        <time>2019-01-18T16:23:52Z</time>
      </trkpt>
      <trkpt lat="42.11014" lon="2.32098">
        <ele>939.7</ele>
        <time>2019-01-18T16:24:00Z</time>
      </trkpt>
      <trkpt lat="42.11006" lon="2.3209">
        <ele>939.7</ele>
        <time>2019-01-18T16:24:08Z</time>
      </trkpt>
      <trkpt lat="42.10997" lon="2.32083">
        <ele>941.6</ele>
        <time>2019-01-18T16:24:16Z</time>
      </trkpt>
      <trkpt lat="42.10988" lon="2.32081">
        <ele>946.9</ele>
        <time>2019-01-18T16:24:23Z</time>
      </trkpt>
      <trkpt lat="42.10979" lon="2.32076">
        <ele>950.4</ele>
        <time>2019-01-18T16:24:31Z</time>
      </trkpt>
      <trkpt lat="42.10972" lon="2.32068">
        <ele>951.4</ele>
        <time>2019-01-18T16:24:39Z</time>
      </trkpt>
      <trkpt lat="42.10963" lon="2.32065">
        <ele>949.8</ele>
        <time>2019-01-18T16:24:46Z</time>
      </trkpt>
      <trkpt lat="42.10958" lon="2.32076">
        <ele>952.6</ele>
        <time>2019-01-18T16:24:53Z</time>
      </trkpt>
      <trkpt lat="42.10961" lon="2.32088">
        <ele>956.1</ele>
        <time>2019-01-18T16:25:01Z</time>
      </trkpt>
      <trkpt lat="42.10962" lon="2.32101">
        <ele>959.5</ele>
        <time>2019-01-18T16:25:08Z</time>
      </trkpt>
      <trkpt lat="42.1096" lon="2.32113">
        <ele>962.5</ele>
        <time>2019-01-18T16:25:16Z</time>
      </trkpt>
      <trkpt lat="42.10964" lon="2.32125">
        <ele>965.5</ele>
        <time>2019-01-18T16:25:24Z</time>
      </trkpt>
      <trkpt lat="42.1097" lon="2.32134">
        <ele>967.4</ele>
        <time>2019-01-18T16:25:31Z</time>
      </trkpt>
      <trkpt lat="42.10974" lon="2.32145">
        <ele>968.6</ele>
        <time>2019-01-18T16:25:38Z</time>
      </trkpt>
      <trkpt lat="42.10981" lon="2.32154">
        <ele>969.3</ele>
        <time>2019-01-18T16:25:46Z</time>
      </trkpt>
      <trkpt lat="42.10983" lon="2.32166">
        <ele>972.3</ele>
        <time>2019-01-18T16:25:53Z</time>
      </trkpt>
      <trkpt lat="42.10987" lon="2.32178">
        <ele>975.5</ele>
        <time>2019-01-18T16:26:01Z</time>
      </trkpt>
      <trkpt lat="42.10992" lon="2.32189">
        <ele>979.4</ele>
        <time>2019-01-18T16:26:08Z</time>
      </trkpt>
      <trkpt lat="42.10995" lon="2.322">
        <ele>982.7</ele>
        <time>2019-01-18T16:26:16Z</time>
      </trkpt>
      <trkpt lat="42.11002" lon="2.3221">
        <ele>984.4</ele>
        <time>2019-01-18T16:26:23Z</time>
      </trkpt>
      <trkpt lat="42.11006" lon="2.32221">
        <ele>985.8</ele>
        <time>2019-01-18T16:26:31Z</time>
      </trkpt>
      <trkpt lat="42.11009" lon="2.32235">
        <ele>988.9</ele>
        <time>2019-01-18T16:26:40Z</time>
      </trkpt>
      <trkpt lat="42.11018" lon="2.32243">
        <ele>992</ele>
        <time>2019-01-18T16:26:48Z</time>
      </trkpt>
      <trkpt lat="42.11027" lon="2.32249">
        <ele>995.4</ele>
        <time>2019-01-18T16:26:56Z</time>
      </trkpt>
      <trkpt lat="42.11025" lon="2.32261">
        <ele>998.4</ele>
        <time>2019-01-18T16:27:03Z</time>
      </trkpt>
      <trkpt lat="42.11019" lon="2.32271">
        <ele>1000.1</ele>
        <time>2019-01-18T16:27:11Z</time>
      </trkpt>
      <trkpt lat="42.11011" lon="2.32277">
        <ele>1001</ele>
        <time>2019-01-18T16:27:18Z</time>
      </trkpt>
      <trkpt lat="42.11012" lon="2.3229">
        <ele>1005.7</ele>
        <time>2019-01-18T16:27:25Z</time>
      </trkpt>
      <trkpt lat="42.11012" lon="2.32302">
        <ele>1010</ele>
        <time>2019-01-18T16:27:33Z</time>
      </trkpt>
      <trkpt lat="42.11005" lon="2.3231">
        <ele>1012</ele>
        <time>2019-01-18T16:27:40Z</time>
      </trkpt>
      <trkpt lat="42.10998" lon="2.32321">
        <ele>1015.1</ele>
        <time>2019-01-18T16:27:49Z</time>
      </trkpt>
      <trkpt lat="42.10991" lon="2.3233">
        <ele>1018</ele>
        <time>2019-01-18T16:27:56Z</time>
      </trkpt>
      <trkpt lat="42.10983" lon="2.32337">
        <ele>1020.3</ele>
        <time>2019-01-18T16:28:04Z</time>
      </trkpt>
      <trkpt lat="42.10974" lon="2.32333">
        <ele>1018.8</ele>
        <time>2019-01-18T16:28:11Z</time>
      </trkpt>
      <trkpt lat="42.10965" lon="2.32329">
        <ele>1019.5</ele>
        <time>2019-01-18T16:28:19Z</time>
      </trkpt>
      <trkpt lat="42.1096" lon="2.3234">
        <ele>1023.3</ele>
        <time>2019-01-18T16:28:26Z</time>
      </trkpt>
      <trkpt lat="42.10963" lon="2.32351">
        <ele>1025.7</ele>
        <time>2019-01-18T16:28:34Z</time>
      </trkpt>
      <trkpt lat="42.10964" lon="2.32364">
        <ele>1029</ele>
        <time>2019-01-18T16:28:41Z</time>
      </trkpt>
      <trkpt lat="42.10969" lon="2.32375">
        <ele>1032.7</ele>
        <time>2019-01-18T16:28:49Z</time>
      </trkpt>
      <trkpt lat="42.10975" lon="2.32386">
        <ele>1037.4</ele>
        <time>2019-01-18T16:28:57Z</time>
      </trkpt>
      <trkpt lat="42.10982" lon="2.32395">
        <ele>1040.3</ele>
        <time>2019-01-18T16:29:05Z</time>
      </trkpt>
      <trkpt lat="42.10987" lon="2.32405">
        <ele>1042.4</ele>
        <time>2019-01-18T16:29:12Z</time>
      </trkpt>
      <trkpt lat="42.10989" lon="2.32417">
        <ele>1043.7</ele>
        <time>2019-01-18T16:29:19Z</time>
      </trkpt>
      <trkpt lat="42.10991" lon="2.3243">
        <ele>1042.9</ele>
        <time>2019-01-18T16:29:27Z</time>
      </trkpt>
      <trkpt lat="42.10993" lon="2.32442">
        <ele>1042.5</ele>
        <time>2019-01-18T16:29:34Z</time>
      </trkpt>
      <trkpt lat="42.10996" lon="2.32454">
        <ele>1043.5</ele>
        <time>2019-01-18T16:29:42Z</time>
      </trkpt>
      <trkpt lat="42.10991" lon="2.32464">
        <ele>1041.9</ele>
        <time>2019-01-18T16:29:49Z</time>
      </trkpt>
      <trkpt lat="42.10985" lon="2.32502">
        <ele>1044.5</ele>
        <time>2019-01-18T16:30:12Z</time>
      </trkpt>
      <trkpt lat="42.10981" lon="2.32513">
        <ele>1046.3</ele>
        <time>2019-01-18T16:30:19Z</time>
      </trkpt>
      <trkpt lat="42.10981" lon="2.32527">
        <ele>1049.5</ele>
        <time>2019-01-18T16:30:27Z</time>
      </trkpt>
      <trkpt lat="42.10977" lon="2.3254">
        <ele>1050.3</ele>
        <time>2019-01-18T16:30:36Z</time>
      </trkpt>
      <trkpt lat="42.10974" lon="2.32552">
        <ele>1051.3</ele>
        <time>2019-01-18T16:30:43Z</time>
      </trkpt>
      <trkpt lat="42.10972" lon="2.32565">
        <ele>1052.2</ele>
        <time>2019-01-18T16:30:51Z</time>
      </trkpt>
      <trkpt lat="42.10973" lon="2.32577">
        <ele>1053.5</ele>
        <time>2019-01-18T16:30:58Z</time>
      </trkpt>
      <trkpt lat="42.1097" lon="2.3259">
        <ele>1054.8</ele>
        <time>2019-01-18T16:31:06Z</time>
      </trkpt>
      <trkpt lat="42.10971" lon="2.32603">
        <ele>1056.2</ele>
        <time>2019-01-18T16:31:13Z</time>
      </trkpt>
      <trkpt lat="42.10969" lon="2.32615">
        <ele>1057.1</ele>
        <time>2019-01-18T16:31:21Z</time>
      </trkpt>
      <trkpt lat="42.10974" lon="2.32626">
        <ele>1058.4</ele>
        <time>2019-01-18T16:31:29Z</time>
      </trkpt>
      <trkpt lat="42.10969" lon="2.32639">
        <ele>1057.3</ele>
        <time>2019-01-18T16:31:37Z</time>
      </trkpt>
      <trkpt lat="42.10964" lon="2.3265">
        <ele>1059.2</ele>
        <time>2019-01-18T16:31:45Z</time>
      </trkpt>
      <trkpt lat="42.10965" lon="2.32663">
        <ele>1060.5</ele>
        <time>2019-01-18T16:31:53Z</time>
      </trkpt>
      <trkpt lat="42.10971" lon="2.32671">
        <ele>1060.8</ele>
        <time>2019-01-18T16:32:00Z</time>
      </trkpt>
      <trkpt lat="42.10974" lon="2.32683">
        <ele>1063.3</ele>
        <time>2019-01-18T16:32:07Z</time>
      </trkpt>
      <trkpt lat="42.10973" lon="2.32696">
        <ele>1064.8</ele>
        <time>2019-01-18T16:32:15Z</time>
      </trkpt>
      <trkpt lat="42.10968" lon="2.32707">
        <ele>1066.5</ele>
        <time>2019-01-18T16:32:23Z</time>
      </trkpt>
      <trkpt lat="42.10968" lon="2.3272">
        <ele>1068.8</ele>
        <time>2019-01-18T16:32:30Z</time>
      </trkpt>
      <trkpt lat="42.10967" lon="2.32733">
        <ele>1070.7</ele>
        <time>2019-01-18T16:32:38Z</time>
      </trkpt>
      <trkpt lat="42.10968" lon="2.32747">
        <ele>1072.4</ele>
        <time>2019-01-18T16:32:46Z</time>
      </trkpt>
      <trkpt lat="42.1097" lon="2.32759">
        <ele>1074.5</ele>
        <time>2019-01-18T16:32:54Z</time>
      </trkpt>
      <trkpt lat="42.10967" lon="2.32771">
        <ele>1076.2</ele>
        <time>2019-01-18T16:33:01Z</time>
      </trkpt>
      <trkpt lat="42.10962" lon="2.32782">
        <ele>1077.5</ele>
        <time>2019-01-18T16:33:09Z</time>
      </trkpt>
      <trkpt lat="42.10964" lon="2.32794">
        <ele>1079.5</ele>
        <time>2019-01-18T16:33:16Z</time>
      </trkpt>
      <trkpt lat="42.10964" lon="2.32806">
        <ele>1081.3</ele>
        <time>2019-01-18T16:33:23Z</time>
      </trkpt>
      <trkpt lat="42.10964" lon="2.32819">
        <ele>1083.6</ele>
        <time>2019-01-18T16:33:31Z</time>
      </trkpt>
      <trkpt lat="42.10963" lon="2.32832">
        <ele>1085.8</ele>
        <time>2019-01-18T16:33:38Z</time>
      </trkpt>
      <trkpt lat="42.10961" lon="2.32844">
        <ele>1087.5</ele>
        <time>2019-01-18T16:33:46Z</time>
      </trkpt>
      <trkpt lat="42.10958" lon="2.32857">
        <ele>1088.9</ele>
        <time>2019-01-18T16:33:54Z</time>
      </trkpt>
      <trkpt lat="42.10956" lon="2.32872">
        <ele>1090.7</ele>
        <time>2019-01-18T16:34:03Z</time>
      </trkpt>
      <trkpt lat="42.10954" lon="2.32884">
        <ele>1092.2</ele>
        <time>2019-01-18T16:34:10Z</time>
      </trkpt>
      <trkpt lat="42.10955" lon="2.32896">
        <ele>1094.4</ele>
        <time>2019-01-18T16:34:17Z</time>
      </trkpt>
      <trkpt lat="42.10956" lon="2.32908">
        <ele>1096.9</ele>
        <time>2019-01-18T16:34:25Z</time>
      </trkpt>
      <trkpt lat="42.10951" lon="2.3292">
        <ele>1096.8</ele>
        <time>2019-01-18T16:34:33Z</time>
      </trkpt>
      <trkpt lat="42.10949" lon="2.32933">
        <ele>1098.1</ele>
        <time>2019-01-18T16:34:41Z</time>
      </trkpt>
      <trkpt lat="42.1095" lon="2.32946">
        <ele>1100.7</ele>
        <time>2019-01-18T16:34:48Z</time>
      </trkpt>
      <trkpt lat="42.1095" lon="2.32958">
        <ele>1103.9</ele>
        <time>2019-01-18T16:34:55Z</time>
      </trkpt>
      <trkpt lat="42.10948" lon="2.32971">
        <ele>1107</ele>
        <time>2019-01-18T16:35:03Z</time>
      </trkpt>
      <trkpt lat="42.10944" lon="2.32983">
        <ele>1107.6</ele>
        <time>2019-01-18T16:35:11Z</time>
      </trkpt>
      <trkpt lat="42.10942" lon="2.32996">
        <ele>1110.4</ele>
        <time>2019-01-18T16:35:19Z</time>
      </trkpt>
      <trkpt lat="42.10944" lon="2.3301">
        <ele>1112.8</ele>
        <time>2019-01-18T16:35:27Z</time>
      </trkpt>
      <trkpt lat="42.10947" lon="2.33022">
        <ele>1116.9</ele>
        <time>2019-01-18T16:35:35Z</time>
      </trkpt>
      <trkpt lat="42.10945" lon="2.33034">
        <ele>1119.3</ele>
        <time>2019-01-18T16:35:42Z</time>
      </trkpt>
      <trkpt lat="42.10946" lon="2.33047">
        <ele>1123.9</ele>
        <time>2019-01-18T16:35:49Z</time>
      </trkpt>
      <trkpt lat="42.1094" lon="2.33056">
        <ele>1127.7</ele>
        <time>2019-01-18T16:35:57Z</time>
      </trkpt>
      <trkpt lat="42.10949" lon="2.33057">
        <ele>1128.3</ele>
        <time>2019-01-18T16:36:04Z</time>
      </trkpt>
      <trkpt lat="42.10951" lon="2.33068">
        <ele>1132.7</ele>
        <time>2019-01-18T16:36:12Z</time>
      </trkpt>
      <trkpt lat="42.10951" lon="2.33081">
        <ele>1136.5</ele>
        <time>2019-01-18T16:36:19Z</time>
      </trkpt>
      <trkpt lat="42.1095" lon="2.33093">
        <ele>1139.2</ele>
        <time>2019-01-18T16:36:26Z</time>
      </trkpt>
      <trkpt lat="42.10949" lon="2.33105">
        <ele>1141.9</ele>
        <time>2019-01-18T16:36:34Z</time>
      </trkpt>
      <trkpt lat="42.10941" lon="2.33115">
        <ele>1144.2</ele>
        <time>2019-01-18T16:36:42Z</time>
      </trkpt>
      <trkpt lat="42.10936" lon="2.33125">
        <ele>1149.1</ele>
        <time>2019-01-18T16:36:49Z</time>
      </trkpt>
      <trkpt lat="42.10939" lon="2.33137">
        <ele>1151.4</ele>
        <time>2019-01-18T16:36:57Z</time>
      </trkpt>
      <trkpt lat="42.10941" lon="2.33149">
        <ele>1154.3</ele>
        <time>2019-01-18T16:37:04Z</time>
      </trkpt>
      <trkpt lat="42.10934" lon="2.33157">
        <ele>1159.6</ele>
        <time>2019-01-18T16:37:11Z</time>
      </trkpt>
      <trkpt lat="42.10932" lon="2.33169">
        <ele>1164.1</ele>
        <time>2019-01-18T16:37:19Z</time>
      </trkpt>
      <trkpt lat="42.10918" lon="2.33182">
        <ele>1172</ele>
        <time>2019-01-18T16:37:32Z</time>
      </trkpt>
      <trkpt lat="42.10925" lon="2.33191">
        <ele>1173.2</ele>
        <time>2019-01-18T16:37:40Z</time>
      </trkpt>
      <trkpt lat="42.10934" lon="2.33195">
        <ele>1173.3</ele>
        <time>2019-01-18T16:37:47Z</time>
      </trkpt>
      <trkpt lat="42.1094" lon="2.33205">
        <ele>1175.2</ele>
        <time>2019-01-18T16:37:55Z</time>
      </trkpt>
      <trkpt lat="42.10936" lon="2.33216">
        <ele>1180.3</ele>
        <time>2019-01-18T16:38:02Z</time>
      </trkpt>
      <trkpt lat="42.10934" lon="2.33231">
        <ele>1184.3</ele>
        <time>2019-01-18T16:38:12Z</time>
      </trkpt>
      <trkpt lat="42.10938" lon="2.33242">
        <ele>1183.8</ele>
        <time>2019-01-18T16:38:19Z</time>
      </trkpt>
      <trkpt lat="42.10932" lon="2.33254">
        <ele>1186.6</ele>
        <time>2019-01-18T16:38:28Z</time>
      </trkpt>
      <trkpt lat="42.10927" lon="2.33268">
        <ele>1188.9</ele>
        <time>2019-01-18T16:38:37Z</time>
      </trkpt>
      <trkpt lat="42.1092" lon="2.33279">
        <ele>1192.9</ele>
        <time>2019-01-18T16:38:45Z</time>
      </trkpt>
      <trkpt lat="42.10913" lon="2.33289">
        <ele>1196.4</ele>
        <time>2019-01-18T16:38:54Z</time>
      </trkpt>
      <trkpt lat="42.10905" lon="2.33297">
        <ele>1200.8</ele>
        <time>2019-01-18T16:39:01Z</time>
      </trkpt>
      <trkpt lat="42.10903" lon="2.3331">
        <ele>1201.4</ele>
        <time>2019-01-18T16:39:09Z</time>
      </trkpt>
      <trkpt lat="42.10901" lon="2.33322">
        <ele>1201.2</ele>
        <time>2019-01-18T16:39:16Z</time>
      </trkpt>
      <trkpt lat="42.109" lon="2.33334">
        <ele>1200.6</ele>
        <time>2019-01-18T16:39:24Z</time>
      </trkpt>
      <trkpt lat="42.10897" lon="2.3335">
        <ele>1203.9</ele>
        <time>2019-01-18T16:39:33Z</time>
      </trkpt>
      <trkpt lat="42.10901" lon="2.33362">
        <ele>1202.9</ele>
        <time>2019-01-18T16:39:41Z</time>
      </trkpt>
      <trkpt lat="42.10907" lon="2.33371">
        <ele>1197.7</ele>
        <time>2019-01-18T16:39:48Z</time>
      </trkpt>
      <trkpt lat="42.10906" lon="2.33385">
        <ele>1197</ele>
        <time>2019-01-18T16:39:57Z</time>
      </trkpt>
      <trkpt lat="42.10904" lon="2.33398">
        <ele>1197.3</ele>
        <time>2019-01-18T16:40:05Z</time>
      </trkpt>
      <trkpt lat="42.10902" lon="2.33417">
        <ele>1197.8</ele>
        <time>2019-01-18T16:40:16Z</time>
      </trkpt>
      <trkpt lat="42.10904" lon="2.3343">
        <ele>1197.2</ele>
        <time>2019-01-18T16:40:24Z</time>
      </trkpt>
      <trkpt lat="42.10901" lon="2.33442">
        <ele>1200.7</ele>
        <time>2019-01-18T16:40:31Z</time>
      </trkpt>
      <trkpt lat="42.10897" lon="2.33453">
        <ele>1206.2</ele>
        <time>2019-01-18T16:40:38Z</time>
      </trkpt>
      <trkpt lat="42.10892" lon="2.33464">
        <ele>1213.2</ele>
        <time>2019-01-18T16:40:46Z</time>
      </trkpt>
      <trkpt lat="42.10891" lon="2.33477">
        <ele>1217.4</ele>
        <time>2019-01-18T16:40:54Z</time>
      </trkpt>
      <trkpt lat="42.10893" lon="2.3349">
        <ele>1219.2</ele>
        <time>2019-01-18T16:41:01Z</time>
      </trkpt>
      <trkpt lat="42.10893" lon="2.33502">
        <ele>1222.8</ele>
        <time>2019-01-18T16:41:09Z</time>
      </trkpt>
      <trkpt lat="42.10893" lon="2.33515">
        <ele>1228.5</ele>
        <time>2019-01-18T16:41:16Z</time>
      </trkpt>
      <trkpt lat="42.10894" lon="2.33527">
        <ele>1234.3</ele>
        <time>2019-01-18T16:41:24Z</time>
      </trkpt>
      <trkpt lat="42.10894" lon="2.3354">
        <ele>1236</ele>
        <time>2019-01-18T16:41:31Z</time>
      </trkpt>
      <trkpt lat="42.10892" lon="2.33552">
        <ele>1240.1</ele>
        <time>2019-01-18T16:41:39Z</time>
      </trkpt>
      <trkpt lat="42.10888" lon="2.33565">
        <ele>1247.7</ele>
        <time>2019-01-18T16:41:47Z</time>
      </trkpt>
      <trkpt lat="42.10882" lon="2.33575">
        <ele>1254.9</ele>
        <time>2019-01-18T16:41:55Z</time>
      </trkpt>
      <trkpt lat="42.10875" lon="2.33585">
        <ele>1261.7</ele>
        <time>2019-01-18T16:42:03Z</time>
      </trkpt>
      <trkpt lat="42.10869" lon="2.33596">
        <ele>1267.2</ele>
        <time>2019-01-18T16:42:11Z</time>
      </trkpt>
      <trkpt lat="42.10866" lon="2.33608">
        <ele>1270.3</ele>
        <time>2019-01-18T16:42:19Z</time>
      </trkpt>
      <trkpt lat="42.10864" lon="2.33621">
        <ele>1271.7</ele>
        <time>2019-01-18T16:42:26Z</time>
      </trkpt>
      <trkpt lat="42.10862" lon="2.33633">
        <ele>1271.9</ele>
        <time>2019-01-18T16:42:33Z</time>
      </trkpt>
      <trkpt lat="42.10863" lon="2.33646">
        <ele>1270.9</ele>
        <time>2019-01-18T16:42:41Z</time>
      </trkpt>
      <trkpt lat="42.10869" lon="2.33672">
        <ele>1268.6</ele>
        <time>2019-01-18T16:42:58Z</time>
      </trkpt>
      <trkpt lat="42.10874" lon="2.33687">
        <ele>1267.7</ele>
        <time>2019-01-18T16:43:07Z</time>
      </trkpt>
      <trkpt lat="42.10882" lon="2.33694">
        <ele>1267.7</ele>
        <time>2019-01-18T16:43:15Z</time>
      </trkpt>
      <trkpt lat="42.10887" lon="2.33708">
        <ele>1268</ele>
        <time>2019-01-18T16:43:24Z</time>
      </trkpt>
      <trkpt lat="42.10895" lon="2.33717">
        <ele>1264.8</ele>
        <time>2019-01-18T16:43:32Z</time>
      </trkpt>
      <trkpt lat="42.10893" lon="2.3373">
        <ele>1268.5</ele>
        <time>2019-01-18T16:43:40Z</time>
      </trkpt>
      <trkpt lat="42.10902" lon="2.3374">
        <ele>1269.1</ele>
        <time>2019-01-18T16:43:50Z</time>
      </trkpt>
      <trkpt lat="42.1091" lon="2.33736">
        <ele>1264.5</ele>
        <time>2019-01-18T16:43:57Z</time>
      </trkpt>
      <trkpt lat="42.1092" lon="2.33733">
        <ele>1259.6</ele>
        <time>2019-01-18T16:44:05Z</time>
      </trkpt>
      <trkpt lat="42.10926" lon="2.33743">
        <ele>1264</ele>
        <time>2019-01-18T16:44:12Z</time>
      </trkpt>
      <trkpt lat="42.10929" lon="2.33755">
        <ele>1269</ele>
        <time>2019-01-18T16:44:20Z</time>
      </trkpt>
      <trkpt lat="42.1093" lon="2.33768">
        <ele>1271.5</ele>
        <time>2019-01-18T16:44:27Z</time>
      </trkpt>
      <trkpt lat="42.10928" lon="2.3378">
        <ele>1274.1</ele>
        <time>2019-01-18T16:44:35Z</time>
      </trkpt>
      <trkpt lat="42.10931" lon="2.33792">
        <ele>1275</ele>
        <time>2019-01-18T16:44:43Z</time>
      </trkpt>
      <trkpt lat="42.10934" lon="2.33804">
        <ele>1276.4</ele>
        <time>2019-01-18T16:44:50Z</time>
      </trkpt>
      <trkpt lat="42.10935" lon="2.33816">
        <ele>1277.5</ele>
        <time>2019-01-18T16:44:57Z</time>
      </trkpt>
      <trkpt lat="42.10935" lon="2.33829">
        <ele>1278.4</ele>
        <time>2019-01-18T16:45:05Z</time>
      </trkpt>
      <trkpt lat="42.10933" lon="2.33841">
        <ele>1277.5</ele>
        <time>2019-01-18T16:45:12Z</time>
      </trkpt>
      <trkpt lat="42.10926" lon="2.33848">
        <ele>1274.7</ele>
        <time>2019-01-18T16:45:20Z</time>
      </trkpt>
      <trkpt lat="42.10918" lon="2.33857">
        <ele>1272.5</ele>
        <time>2019-01-18T16:45:28Z</time>
      </trkpt>
      <trkpt lat="42.10915" lon="2.33869">
        <ele>1272.4</ele>
        <time>2019-01-18T16:45:35Z</time>
      </trkpt>
      <trkpt lat="42.10908" lon="2.33878">
        <ele>1270.6</ele>
        <time>2019-01-18T16:45:43Z</time>
      </trkpt>
      <trkpt lat="42.10906" lon="2.3389">
        <ele>1272.4</ele>
        <time>2019-01-18T16:45:50Z</time>
      </trkpt>
      <trkpt lat="42.10907" lon="2.33902">
        <ele>1274.6</ele>
        <time>2019-01-18T16:45:57Z</time>
      </trkpt>
      <trkpt lat="42.10905" lon="2.33914">
        <ele>1275.8</ele>
        <time>2019-01-18T16:46:05Z</time>
      </trkpt>
      <trkpt lat="42.10906" lon="2.33927">
        <ele>1277.2</ele>
        <time>2019-01-18T16:46:12Z</time>
      </trkpt>
      <trkpt lat="42.1091" lon="2.3394">
        <ele>1277.2</ele>
        <time>2019-01-18T16:46:21Z</time>
      </trkpt>
      <trkpt lat="42.10912" lon="2.33953">
        <ele>1275.9</ele>
        <time>2019-01-18T16:46:29Z</time>
      </trkpt>
      <trkpt lat="42.10889" lon="2.34039">
        <ele>1276.4</ele>
        <time>2019-01-18T16:47:23Z</time>
      </trkpt>
      <trkpt lat="42.10884" lon="2.3405">
        <ele>1273.4</ele>
        <time>2019-01-18T16:47:31Z</time>
      </trkpt>
      <trkpt lat="42.10893" lon="2.34054">
        <ele>1277.1</ele>
        <time>2019-01-18T16:47:38Z</time>
      </trkpt>
      <trkpt lat="42.10899" lon="2.34063">
        <ele>1274</ele>
        <time>2019-01-18T16:47:45Z</time>
      </trkpt>
      <trkpt lat="42.10902" lon="2.34076">
        <ele>1272.8</ele>
        <time>2019-01-18T16:47:53Z</time>
      </trkpt>
      <trkpt lat="42.10902" lon="2.34089">
        <ele>1271.1</ele>
        <time>2019-01-18T16:48:01Z</time>
      </trkpt>
      <trkpt lat="42.10896" lon="2.34099">
        <ele>1269.6</ele>
        <time>2019-01-18T16:48:08Z</time>
      </trkpt>
      <trkpt lat="42.10895" lon="2.34111">
        <ele>1265.2</ele>
        <time>2019-01-18T16:48:16Z</time>
      </trkpt>
      <trkpt lat="42.10897" lon="2.34124">
        <ele>1261.9</ele>
        <time>2019-01-18T16:48:24Z</time>
      </trkpt>
      <trkpt lat="42.10897" lon="2.34137">
        <ele>1258.8</ele>
        <time>2019-01-18T16:48:31Z</time>
      </trkpt>
      <trkpt lat="42.10892" lon="2.34147">
        <ele>1256</ele>
        <time>2019-01-18T16:48:38Z</time>
      </trkpt>
      <trkpt lat="42.10888" lon="2.34159">
        <ele>1252.3</ele>
        <time>2019-01-18T16:48:46Z</time>
      </trkpt>
      <trkpt lat="42.10885" lon="2.34171">
        <ele>1248.5</ele>
        <time>2019-01-18T16:48:54Z</time>
      </trkpt>
      <trkpt lat="42.10892" lon="2.34178">
        <ele>1251.4</ele>
        <time>2019-01-18T16:49:01Z</time>
      </trkpt>
      <trkpt lat="42.10889" lon="2.3419">
        <ele>1252.6</ele>
        <time>2019-01-18T16:49:09Z</time>
      </trkpt>
      <trkpt lat="42.10888" lon="2.34203">
        <ele>1254.1</ele>
        <time>2019-01-18T16:49:16Z</time>
      </trkpt>
      <trkpt lat="42.10885" lon="2.34214">
        <ele>1254.3</ele>
        <time>2019-01-18T16:49:23Z</time>
      </trkpt>
      <trkpt lat="42.10882" lon="2.34226">
        <ele>1256.1</ele>
        <time>2019-01-18T16:49:31Z</time>
      </trkpt>
      <trkpt lat="42.1088" lon="2.34241">
        <ele>1261</ele>
        <time>2019-01-18T16:49:40Z</time>
      </trkpt>
      <trkpt lat="42.10872" lon="2.34248">
        <ele>1260.1</ele>
        <time>2019-01-18T16:49:47Z</time>
      </trkpt>
      <trkpt lat="42.10872" lon="2.34264">
        <ele>1269.7</ele>
        <time>2019-01-18T16:49:57Z</time>
      </trkpt>
      <trkpt lat="42.10871" lon="2.34276">
        <ele>1277.1</ele>
        <time>2019-01-18T16:50:04Z</time>
      </trkpt>
      <trkpt lat="42.10871" lon="2.34288">
        <ele>1283.2</ele>
        <time>2019-01-18T16:50:11Z</time>
      </trkpt>
      <trkpt lat="42.10869" lon="2.34301">
        <ele>1288.9</ele>
        <time>2019-01-18T16:50:19Z</time>
      </trkpt>
      <trkpt lat="42.10873" lon="2.34311">
        <ele>1293.1</ele>
        <time>2019-01-18T16:50:26Z</time>
      </trkpt>
      <trkpt lat="42.10867" lon="2.34321">
        <ele>1296.3</ele>
        <time>2019-01-18T16:50:33Z</time>
      </trkpt>
      <trkpt lat="42.10866" lon="2.34333">
        <ele>1300.7</ele>
        <time>2019-01-18T16:50:41Z</time>
      </trkpt>
      <trkpt lat="42.10869" lon="2.34344">
        <ele>1297.3</ele>
        <time>2019-01-18T16:50:48Z</time>
      </trkpt>
      <trkpt lat="42.10867" lon="2.34356">
        <ele>1294</ele>
        <time>2019-01-18T16:50:55Z</time>
      </trkpt>
      <trkpt lat="42.10862" lon="2.34367">
        <ele>1289.9</ele>
        <time>2019-01-18T16:51:03Z</time>
      </trkpt>
      <trkpt lat="42.10853" lon="2.34363">
        <ele>1287.5</ele>
        <time>2019-01-18T16:51:10Z</time>
      </trkpt>
      <trkpt lat="42.10844" lon="2.34362">
        <ele>1283.3</ele>
        <time>2019-01-18T16:51:17Z</time>
      </trkpt>
      <trkpt lat="42.10834" lon="2.34364">
        <ele>1277.3</ele>
        <time>2019-01-18T16:51:25Z</time>
      </trkpt>
      <trkpt lat="42.10825" lon="2.34363">
        <ele>1273.1</ele>
        <time>2019-01-18T16:51:33Z</time>
      </trkpt>
      <trkpt lat="42.10815" lon="2.34367">
        <ele>1267.6</ele>
        <time>2019-01-18T16:51:41Z</time>
      </trkpt>
      <trkpt lat="42.1081" lon="2.34377">
        <ele>1263.7</ele>
        <time>2019-01-18T16:51:48Z</time>
      </trkpt>
      <trkpt lat="42.10803" lon="2.34384">
        <ele>1260.4</ele>
        <time>2019-01-18T16:51:55Z</time>
      </trkpt>
      <trkpt lat="42.10794" lon="2.34388">
        <ele>1256.9</ele>
        <time>2019-01-18T16:52:03Z</time>
      </trkpt>
      <trkpt lat="42.10793" lon="2.34401">
        <ele>1255.5</ele>
        <time>2019-01-18T16:52:11Z</time>
      </trkpt>
      <trkpt lat="42.10791" lon="2.34413">
        <ele>1254.3</ele>
        <time>2019-01-18T16:52:18Z</time>
      </trkpt>
      <trkpt lat="42.10791" lon="2.34428">
        <ele>1253.1</ele>
        <time>2019-01-18T16:52:27Z</time>
      </trkpt>
      <trkpt lat="42.10795" lon="2.3444">
        <ele>1250.9</ele>
        <time>2019-01-18T16:52:34Z</time>
      </trkpt>
      <trkpt lat="42.10792" lon="2.34452">
        <ele>1251.4</ele>
        <time>2019-01-18T16:52:42Z</time>
      </trkpt>
      <trkpt lat="42.10794" lon="2.34465">
        <ele>1250.5</ele>
        <time>2019-01-18T16:52:49Z</time>
      </trkpt>
      <trkpt lat="42.10793" lon="2.34477">
        <ele>1251.6</ele>
        <time>2019-01-18T16:52:57Z</time>
      </trkpt>
      <trkpt lat="42.10787" lon="2.34487">
        <ele>1257.1</ele>
        <time>2019-01-18T16:53:04Z</time>
      </trkpt>
      <trkpt lat="42.10789" lon="2.34512">
        <ele>1258.3</ele>
        <time>2019-01-18T16:53:19Z</time>
      </trkpt>
      <trkpt lat="42.1079" lon="2.34524">
        <ele>1257.3</ele>
        <time>2019-01-18T16:53:27Z</time>
      </trkpt>
      <trkpt lat="42.1079" lon="2.34537">
        <ele>1257.3</ele>
        <time>2019-01-18T16:53:34Z</time>
      </trkpt>
      <trkpt lat="42.10788" lon="2.34556">
        <ele>1257.6</ele>
        <time>2019-01-18T16:53:46Z</time>
      </trkpt>
      <trkpt lat="42.10783" lon="2.34568">
        <ele>1256.3</ele>
        <time>2019-01-18T16:53:54Z</time>
      </trkpt>
      <trkpt lat="42.10778" lon="2.34579">
        <ele>1253.7</ele>
        <time>2019-01-18T16:54:01Z</time>
      </trkpt>
      <trkpt lat="42.10772" lon="2.34591">
        <ele>1255.9</ele>
        <time>2019-01-18T16:54:10Z</time>
      </trkpt>
      <trkpt lat="42.10767" lon="2.34602">
        <ele>1259</ele>
        <time>2019-01-18T16:54:18Z</time>
      </trkpt>
      <trkpt lat="42.10763" lon="2.34613">
        <ele>1260.5</ele>
        <time>2019-01-18T16:54:25Z</time>
      </trkpt>
      <trkpt lat="42.10762" lon="2.34625">
        <ele>1256.8</ele>
        <time>2019-01-18T16:54:32Z</time>
      </trkpt>
      <trkpt lat="42.1076" lon="2.34638">
        <ele>1252.6</ele>
        <time>2019-01-18T16:54:40Z</time>
      </trkpt>
      <trkpt lat="42.10757" lon="2.3465">
        <ele>1251.8</ele>
        <time>2019-01-18T16:54:48Z</time>
      </trkpt>
      <trkpt lat="42.10755" lon="2.34662">
        <ele>1251.1</ele>
        <time>2019-01-18T16:54:55Z</time>
      </trkpt>
      <trkpt lat="42.10755" lon="2.34675">
        <ele>1252.7</ele>
        <time>2019-01-18T16:55:03Z</time>
      </trkpt>
      <trkpt lat="42.10756" lon="2.34692">
        <ele>1256</ele>
        <time>2019-01-18T16:55:13Z</time>
      </trkpt>
      <trkpt lat="42.10756" lon="2.34705">
        <ele>1258.6</ele>
        <time>2019-01-18T16:55:20Z</time>
      </trkpt>
      <trkpt lat="42.10753" lon="2.34718">
        <ele>1261.6</ele>
        <time>2019-01-18T16:55:29Z</time>
      </trkpt>
      <trkpt lat="42.1075" lon="2.3473">
        <ele>1262.5</ele>
        <time>2019-01-18T16:55:37Z</time>
      </trkpt>
      <trkpt lat="42.10754" lon="2.34746">
        <ele>1264.3</ele>
        <time>2019-01-18T16:55:46Z</time>
      </trkpt>
      <trkpt lat="42.10757" lon="2.3476">
        <ele>1264.5</ele>
        <time>2019-01-18T16:55:55Z</time>
      </trkpt>
      <trkpt lat="42.10759" lon="2.34772">
        <ele>1264.1</ele>
        <time>2019-01-18T16:56:02Z</time>
      </trkpt>
      <trkpt lat="42.10758" lon="2.34784">
        <ele>1263.3</ele>
        <time>2019-01-18T16:56:10Z</time>
      </trkpt>
      <trkpt lat="42.1076" lon="2.34797">
        <ele>1263.2</ele>
        <time>2019-01-18T16:56:18Z</time>
      </trkpt>
      <trkpt lat="42.10761" lon="2.3481">
        <ele>1264</ele>
        <time>2019-01-18T16:56:25Z</time>
      </trkpt>
      <trkpt lat="42.1076" lon="2.34823">
        <ele>1266.4</ele>
        <time>2019-01-18T16:56:33Z</time>
      </trkpt>
      <trkpt lat="42.10763" lon="2.34835">
        <ele>1270</ele>
        <time>2019-01-18T16:56:40Z</time>
      </trkpt>
      <trkpt lat="42.10765" lon="2.34847">
        <ele>1273.2</ele>
        <time>2019-01-18T16:56:48Z</time>
      </trkpt>
      <trkpt lat="42.10774" lon="2.34848">
        <ele>1277.3</ele>
        <time>2019-01-18T16:56:55Z</time>
      </trkpt>
      <trkpt lat="42.10783" lon="2.34849">
        <ele>1279.2</ele>
        <time>2019-01-18T16:57:02Z</time>
      </trkpt>
      <trkpt lat="42.10787" lon="2.3486">
        <ele>1281.1</ele>
        <time>2019-01-18T16:57:10Z</time>
      </trkpt>
      <trkpt lat="42.10792" lon="2.3487">
        <ele>1281.3</ele>
        <time>2019-01-18T16:57:17Z</time>
      </trkpt>
      <trkpt lat="42.10798" lon="2.3488">
        <ele>1281.8</ele>
        <time>2019-01-18T16:57:25Z</time>
      </trkpt>
      <trkpt lat="42.10801" lon="2.34892">
        <ele>1282</ele>
        <time>2019-01-18T16:57:32Z</time>
      </trkpt>
      <trkpt lat="42.1081" lon="2.34898">
        <ele>1281.3</ele>
        <time>2019-01-18T16:57:40Z</time>
      </trkpt>
      <trkpt lat="42.10819" lon="2.34902">
        <ele>1281.3</ele>
        <time>2019-01-18T16:57:47Z</time>
      </trkpt>
      <trkpt lat="42.10828" lon="2.34905">
        <ele>1282.1</ele>
        <time>2019-01-18T16:57:55Z</time>
      </trkpt>
      <trkpt lat="42.10837" lon="2.34909">
        <ele>1285.1</ele>
        <time>2019-01-18T16:58:02Z</time>
      </trkpt>
      <trkpt lat="42.10845" lon="2.34914">
        <ele>1291.3</ele>
        <time>2019-01-18T16:58:10Z</time>
      </trkpt>
      <trkpt lat="42.10852" lon="2.34923">
        <ele>1294.5</ele>
        <time>2019-01-18T16:58:17Z</time>
      </trkpt>
      <trkpt lat="42.10861" lon="2.34926">
        <ele>1300.4</ele>
        <time>2019-01-18T16:58:25Z</time>
      </trkpt>
      <trkpt lat="42.10869" lon="2.34933">
        <ele>1306.6</ele>
        <time>2019-01-18T16:58:33Z</time>
      </trkpt>
      <trkpt lat="42.10873" lon="2.34944">
        <ele>1309.6</ele>
        <time>2019-01-18T16:58:40Z</time>
      </trkpt>
      <trkpt lat="42.10875" lon="2.34956">
        <ele>1305.6</ele>
        <time>2019-01-18T16:58:47Z</time>
      </trkpt>
      <trkpt lat="42.10882" lon="2.34965">
        <ele>1306.9</ele>
        <time>2019-01-18T16:58:55Z</time>
      </trkpt>
      <trkpt lat="42.10889" lon="2.34956">
        <ele>1319.5</ele>
        <time>2019-01-18T16:59:02Z</time>
      </trkpt>
      <trkpt lat="42.10898" lon="2.34953">
        <ele>1322.2</ele>
        <time>2019-01-18T16:59:09Z</time>
      </trkpt>
      <trkpt lat="42.10901" lon="2.34942">
        <ele>1325.8</ele>
        <time>2019-01-18T16:59:17Z</time>
      </trkpt>
      <trkpt lat="42.10896" lon="2.34953">
        <ele>1322.4</ele>
        <time>2019-01-18T16:59:24Z</time>
      </trkpt>
      <trkpt lat="42.10889" lon="2.34945">
        <ele>1327.3</ele>
        <time>2019-01-18T16:59:31Z</time>
      </trkpt>
      <trkpt lat="42.1088" lon="2.34943">
        <ele>1318</ele>
        <time>2019-01-18T16:59:39Z</time>
      </trkpt>
      <trkpt lat="42.1088" lon="2.34931">
        <ele>1316.6</ele>
        <time>2019-01-18T16:59:46Z</time>
      </trkpt>
      <trkpt lat="42.10872" lon="2.34924">
        <ele>1309.5</ele>
        <time>2019-01-18T16:59:53Z</time>
      </trkpt>
      <trkpt lat="42.10864" lon="2.34917">
        <ele>1304.2</ele>
        <time>2019-01-18T17:00:00Z</time>
      </trkpt>
      <trkpt lat="42.10856" lon="2.34913">
        <ele>1297.6</ele>
        <time>2019-01-18T17:00:08Z</time>
      </trkpt>
      <trkpt lat="42.10847" lon="2.34914">
        <ele>1292</ele>
        <time>2019-01-18T17:00:15Z</time>
      </trkpt>
      <trkpt lat="42.10837" lon="2.34913">
        <ele>1285.8</ele>
        <time>2019-01-18T17:00:23Z</time>
      </trkpt>
      <trkpt lat="42.10828" lon="2.3491">
        <ele>1282.3</ele>
        <time>2019-01-18T17:00:30Z</time>
      </trkpt>
      <trkpt lat="42.10819" lon="2.34907">
        <ele>1281</ele>
        <time>2019-01-18T17:00:37Z</time>
      </trkpt>
      <trkpt lat="42.10811" lon="2.34902">
        <ele>1280.7</ele>
        <time>2019-01-18T17:00:45Z</time>
      </trkpt>
      <trkpt lat="42.10802" lon="2.34894">
        <ele>1281.6</ele>
        <time>2019-01-18T17:00:53Z</time>
      </trkpt>
      <trkpt lat="42.10793" lon="2.34891">
        <ele>1281.4</ele>
        <time>2019-01-18T17:01:00Z</time>
      </trkpt>
      <trkpt lat="42.10784" lon="2.34894">
        <ele>1279.6</ele>
        <time>2019-01-18T17:01:08Z</time>
      </trkpt>
      <trkpt lat="42.10777" lon="2.34886">
        <ele>1280.7</ele>
        <time>2019-01-18T17:01:16Z</time>
      </trkpt>
      <trkpt lat="42.10774" lon="2.34874">
        <ele>1280.1</ele>
        <time>2019-01-18T17:01:23Z</time>
      </trkpt>
      <trkpt lat="42.10773" lon="2.3486">
        <ele>1279.9</ele>
        <time>2019-01-18T17:01:32Z</time>
      </trkpt>
      <trkpt lat="42.10771" lon="2.34847">
        <ele>1276</ele>
        <time>2019-01-18T17:01:39Z</time>
      </trkpt>
      <trkpt lat="42.10769" lon="2.34835">
        <ele>1272.5</ele>
        <time>2019-01-18T17:01:47Z</time>
      </trkpt>
      <trkpt lat="42.1077" lon="2.34823">
        <ele>1270</ele>
        <time>2019-01-18T17:01:54Z</time>
      </trkpt>
      <trkpt lat="42.10772" lon="2.3481">
        <ele>1267.5</ele>
        <time>2019-01-18T17:02:02Z</time>
      </trkpt>
      <trkpt lat="42.1077" lon="2.34798">
        <ele>1265.4</ele>
        <time>2019-01-18T17:02:09Z</time>
      </trkpt>
      <trkpt lat="42.10765" lon="2.34786">
        <ele>1264.2</ele>
        <time>2019-01-18T17:02:17Z</time>
      </trkpt>
      <trkpt lat="42.10764" lon="2.34774">
        <ele>1264.2</ele>
        <time>2019-01-18T17:02:24Z</time>
      </trkpt>
      <trkpt lat="42.10755" lon="2.34775">
        <ele>1263.5</ele>
        <time>2019-01-18T17:02:32Z</time>
      </trkpt>
      <trkpt lat="42.10749" lon="2.34785">
        <ele>1261.5</ele>
        <time>2019-01-18T17:02:39Z</time>
      </trkpt>
      <trkpt lat="42.10742" lon="2.34794">
        <ele>1256.2</ele>
        <time>2019-01-18T17:02:47Z</time>
      </trkpt>
      <trkpt lat="42.10741" lon="2.34807">
        <ele>1253.8</ele>
        <time>2019-01-18T17:02:55Z</time>
      </trkpt>
      <trkpt lat="42.10731" lon="2.34817">
        <ele>1248</ele>
        <time>2019-01-18T17:03:04Z</time>
      </trkpt>
      <trkpt lat="42.10722" lon="2.34821">
        <ele>1241.6</ele>
        <time>2019-01-18T17:03:12Z</time>
      </trkpt>
      <trkpt lat="42.10715" lon="2.34831">
        <ele>1237.3</ele>
        <time>2019-01-18T17:03:20Z</time>
      </trkpt>
      <trkpt lat="42.10711" lon="2.34843">
        <ele>1236.8</ele>
        <time>2019-01-18T17:03:28Z</time>
      </trkpt>
      <trkpt lat="42.10706" lon="2.34854">
        <ele>1235.2</ele>
        <time>2019-01-18T17:03:36Z</time>
      </trkpt>
      <trkpt lat="42.10702" lon="2.34866">
        <ele>1234.3</ele>
        <time>2019-01-18T17:03:44Z</time>
      </trkpt>
      <trkpt lat="42.10701" lon="2.34879">
        <ele>1236</ele>
        <time>2019-01-18T17:03:51Z</time>
      </trkpt>
      <trkpt lat="42.10698" lon="2.34891">
        <ele>1234.9</ele>
        <time>2019-01-18T17:03:59Z</time>
      </trkpt>
      <trkpt lat="42.10692" lon="2.34901">
        <ele>1231.8</ele>
        <time>2019-01-18T17:04:07Z</time>
      </trkpt>
      <trkpt lat="42.10684" lon="2.34908">
        <ele>1228.6</ele>
        <time>2019-01-18T17:04:15Z</time>
      </trkpt>
      <trkpt lat="42.10683" lon="2.3492">
        <ele>1230.1</ele>
        <time>2019-01-18T17:04:22Z</time>
      </trkpt>
      <trkpt lat="42.10686" lon="2.34932">
        <ele>1232.2</ele>
        <time>2019-01-18T17:04:29Z</time>
      </trkpt>
      <trkpt lat="42.10693" lon="2.34941">
        <ele>1234.5</ele>
        <time>2019-01-18T17:04:37Z</time>
      </trkpt>
      <trkpt lat="42.10674" lon="2.34962">
        <ele>1231.6</ele>
        <time>2019-01-18T18:53:40Z</time>
      </trkpt>
      <trkpt lat="42.10662" lon="2.34969">
        <ele>1230.7</ele>
        <time>2019-01-18T18:53:50Z</time>
      </trkpt>
      <trkpt lat="42.10659" lon="2.3497">
        <ele>1228.2</ele>
        <time>2019-01-18T18:53:53Z</time>
      </trkpt>
      <trkpt lat="42.10652" lon="2.3497">
        <ele>1225.3</ele>
        <time>2019-01-18T18:53:59Z</time>
      </trkpt>
      <trkpt lat="42.10651" lon="2.3497">
        <ele>1225.3</ele>
        <time>2019-01-18T18:53:59Z</time>
      </trkpt>
      <trkpt lat="42.10648" lon="2.34972">
        <ele>1224.9</ele>
        <time>2019-01-18T18:54:02Z</time>
      </trkpt>
      <trkpt lat="42.10647" lon="2.34972">
        <ele>1222.9</ele>
        <time>2019-01-18T18:54:03Z</time>
      </trkpt>
      <trkpt lat="42.10642" lon="2.34974">
        <ele>1223.4</ele>
        <time>2019-01-18T18:54:06Z</time>
      </trkpt>
      <trkpt lat="42.10634" lon="2.34975">
        <ele>1222</ele>
        <time>2019-01-18T18:54:13Z</time>
      </trkpt>
      <trkpt lat="42.10632" lon="2.34977">
        <ele>1221.1</ele>
        <time>2019-01-18T18:54:15Z</time>
      </trkpt>
      <trkpt lat="42.10633" lon="2.3498">
        <ele>1221.6</ele>
        <time>2019-01-18T18:54:17Z</time>
      </trkpt>
      <trkpt lat="42.10643" lon="2.34993">
        <ele>1220.5</ele>
        <time>2019-01-18T18:54:28Z</time>
      </trkpt>
      <trkpt lat="42.10657" lon="2.34995">
        <ele>1218.7</ele>
        <time>2019-01-18T18:54:40Z</time>
      </trkpt>
      <trkpt lat="42.10667" lon="2.34996">
        <ele>1216.3</ele>
        <time>2019-01-18T18:54:48Z</time>
      </trkpt>
      <trkpt lat="42.1068" lon="2.34993">
        <ele>1210.9</ele>
        <time>2019-01-18T18:54:58Z</time>
      </trkpt>
      <trkpt lat="42.1069" lon="2.34989">
        <ele>1208.6</ele>
        <time>2019-01-18T18:55:07Z</time>
      </trkpt>
      <trkpt lat="42.10701" lon="2.34994">
        <ele>1209</ele>
        <time>2019-01-18T18:55:16Z</time>
      </trkpt>
      <trkpt lat="42.1071" lon="2.35004">
        <ele>1209</ele>
        <time>2019-01-18T18:55:25Z</time>
      </trkpt>
      <trkpt lat="42.10715" lon="2.35009">
        <ele>1207.6</ele>
        <time>2019-01-18T18:55:30Z</time>
      </trkpt>
      <trkpt lat="42.10722" lon="2.35015">
        <ele>1207.2</ele>
        <time>2019-01-18T18:55:37Z</time>
      </trkpt>
      <trkpt lat="42.10733" lon="2.35022">
        <ele>1205.7</ele>
        <time>2019-01-18T18:55:47Z</time>
      </trkpt>
      <trkpt lat="42.10746" lon="2.35031">
        <ele>1205.2</ele>
        <time>2019-01-18T18:55:58Z</time>
      </trkpt>
      <trkpt lat="42.1076" lon="2.35039">
        <ele>1202.8</ele>
        <time>2019-01-18T18:56:11Z</time>
      </trkpt>
      <trkpt lat="42.10769" lon="2.35042">
        <ele>1202.3</ele>
        <time>2019-01-18T18:56:18Z</time>
      </trkpt>
      <trkpt lat="42.10782" lon="2.35055">
        <ele>1204.7</ele>
        <time>2019-01-18T18:56:31Z</time>
      </trkpt>
      <trkpt lat="42.10792" lon="2.35078">
        <ele>1202.9</ele>
        <time>2019-01-18T18:56:47Z</time>
      </trkpt>
      <trkpt lat="42.10799" lon="2.35097">
        <ele>1200.3</ele>
        <time>2019-01-18T18:56:59Z</time>
      </trkpt>
      <trkpt lat="42.10801" lon="2.351">
        <ele>1200</ele>
        <time>2019-01-18T18:57:02Z</time>
      </trkpt>
      <trkpt lat="42.10806" lon="2.35112">
        <ele>1198.9</ele>
        <time>2019-01-18T18:57:10Z</time>
      </trkpt>
      <trkpt lat="42.10805" lon="2.35129">
        <ele>1198.4</ele>
        <time>2019-01-18T18:57:20Z</time>
      </trkpt>
      <trkpt lat="42.10805" lon="2.35133">
        <ele>1198.4</ele>
        <time>2019-01-18T18:57:23Z</time>
      </trkpt>
      <trkpt lat="42.10807" lon="2.35151">
        <ele>1200</ele>
        <time>2019-01-18T18:57:33Z</time>
      </trkpt>
      <trkpt lat="42.1081" lon="2.35163">
        <ele>1202.4</ele>
        <time>2019-01-18T18:57:41Z</time>
      </trkpt>
      <trkpt lat="42.10813" lon="2.3517">
        <ele>1201.9</ele>
        <time>2019-01-18T18:57:46Z</time>
      </trkpt>
      <trkpt lat="42.10816" lon="2.35186">
        <ele>1200.4</ele>
        <time>2019-01-18T18:57:55Z</time>
      </trkpt>
      <trkpt lat="42.10818" lon="2.35196">
        <ele>1196.1</ele>
        <time>2019-01-18T18:58:01Z</time>
      </trkpt>
      <trkpt lat="42.10823" lon="2.35215">
        <ele>1195.2</ele>
        <time>2019-01-18T18:58:14Z</time>
      </trkpt>
      <trkpt lat="42.10827" lon="2.35226">
        <ele>1194.2</ele>
        <time>2019-01-18T18:58:21Z</time>
      </trkpt>
      <trkpt lat="42.1083" lon="2.3524">
        <ele>1192.2</ele>
        <time>2019-01-18T18:58:30Z</time>
      </trkpt>
      <trkpt lat="42.10832" lon="2.35253">
        <ele>1186.9</ele>
        <time>2019-01-18T18:58:37Z</time>
      </trkpt>
      <trkpt lat="42.10836" lon="2.35266">
        <ele>1184.5</ele>
        <time>2019-01-18T18:58:46Z</time>
      </trkpt>
      <trkpt lat="42.10838" lon="2.35284">
        <ele>1183</ele>
        <time>2019-01-18T18:58:57Z</time>
      </trkpt>
      <trkpt lat="42.10836" lon="2.35299">
        <ele>1180.2</ele>
        <time>2019-01-18T18:59:06Z</time>
      </trkpt>
      <trkpt lat="42.10836" lon="2.35315">
        <ele>1183</ele>
        <time>2019-01-18T18:59:15Z</time>
      </trkpt>
      <trkpt lat="42.10836" lon="2.35336">
        <ele>1184.6</ele>
        <time>2019-01-18T18:59:27Z</time>
      </trkpt>
      <trkpt lat="42.10833" lon="2.35349">
        <ele>1186</ele>
        <time>2019-01-18T18:59:36Z</time>
      </trkpt>
      <trkpt lat="42.10837" lon="2.35367">
        <ele>1187</ele>
        <time>2019-01-18T18:59:46Z</time>
      </trkpt>
      <trkpt lat="42.10837" lon="2.35373">
        <ele>1190.8</ele>
        <time>2019-01-18T18:59:50Z</time>
      </trkpt>
      <trkpt lat="42.10839" lon="2.35379">
        <ele>1196</ele>
        <time>2019-01-18T18:59:54Z</time>
      </trkpt>
      <trkpt lat="42.10839" lon="2.3538">
        <ele>1201.9</ele>
        <time>2019-01-18T18:59:55Z</time>
      </trkpt>
      <trkpt lat="42.1084" lon="2.35375">
        <ele>1197.1</ele>
        <time>2019-01-18T18:59:58Z</time>
      </trkpt>
      <trkpt lat="42.10844" lon="2.35374">
        <ele>1196.1</ele>
        <time>2019-01-18T19:00:02Z</time>
      </trkpt>
      <trkpt lat="42.10846" lon="2.35377">
        <ele>1188.3</ele>
        <time>2019-01-18T19:00:04Z</time>
      </trkpt>
      <trkpt lat="42.1085" lon="2.35381">
        <ele>1177.8</ele>
        <time>2019-01-18T19:00:08Z</time>
      </trkpt>
      <trkpt lat="42.10845" lon="2.35387">
        <ele>1171</ele>
        <time>2019-01-18T19:00:13Z</time>
      </trkpt>
      <trkpt lat="42.10839" lon="2.35396">
        <ele>1165.8</ele>
        <time>2019-01-18T19:00:20Z</time>
      </trkpt>
      <trkpt lat="42.10835" lon="2.35402">
        <ele>1163.9</ele>
        <time>2019-01-18T19:00:25Z</time>
      </trkpt>
      <trkpt lat="42.10828" lon="2.35403">
        <ele>1163.9</ele>
        <time>2019-01-18T19:00:31Z</time>
      </trkpt>
      <trkpt lat="42.10821" lon="2.35411">
        <ele>1161.5</ele>
        <time>2019-01-18T19:00:38Z</time>
      </trkpt>
      <trkpt lat="42.10816" lon="2.35411">
        <ele>1162.5</ele>
        <time>2019-01-18T19:00:42Z</time>
      </trkpt>
      <trkpt lat="42.10808" lon="2.35416">
        <ele>1164.3</ele>
        <time>2019-01-18T19:00:50Z</time>
      </trkpt>
      <trkpt lat="42.10799" lon="2.35427">
        <ele>1162.9</ele>
        <time>2019-01-18T19:00:59Z</time>
      </trkpt>
      <trkpt lat="42.10794" lon="2.35436">
        <ele>1162.4</ele>
        <time>2019-01-18T19:01:06Z</time>
      </trkpt>
      <trkpt lat="42.10787" lon="2.35445">
        <ele>1162</ele>
        <time>2019-01-18T19:01:14Z</time>
      </trkpt>
      <trkpt lat="42.10778" lon="2.35453">
        <ele>1162</ele>
        <time>2019-01-18T19:01:22Z</time>
      </trkpt>
      <trkpt lat="42.10772" lon="2.35461">
        <ele>1162.9</ele>
        <time>2019-01-18T19:01:29Z</time>
      </trkpt>
      <trkpt lat="42.1077" lon="2.35465">
        <ele>1163.3</ele>
        <time>2019-01-18T19:01:32Z</time>
      </trkpt>
      <trkpt lat="42.1077" lon="2.35468">
        <ele>1163.3</ele>
        <time>2019-01-18T19:01:34Z</time>
      </trkpt>
      <trkpt lat="42.10771" lon="2.35482">
        <ele>1162</ele>
        <time>2019-01-18T19:01:42Z</time>
      </trkpt>
      <trkpt lat="42.10777" lon="2.35493">
        <ele>1160.6</ele>
        <time>2019-01-18T19:01:50Z</time>
      </trkpt>
      <trkpt lat="42.10781" lon="2.35506">
        <ele>1161</ele>
        <time>2019-01-18T19:01:58Z</time>
      </trkpt>
      <trkpt lat="42.10786" lon="2.35515">
        <ele>1164.8</ele>
        <time>2019-01-18T19:02:05Z</time>
      </trkpt>
      <trkpt lat="42.108" lon="2.35541">
        <ele>1157.7</ele>
        <time>2019-01-18T19:02:24Z</time>
      </trkpt>
      <trkpt lat="42.10803" lon="2.35556">
        <ele>1153.3</ele>
        <time>2019-01-18T19:02:33Z</time>
      </trkpt>
      <trkpt lat="42.10808" lon="2.35567">
        <ele>1151.4</ele>
        <time>2019-01-18T19:02:41Z</time>
      </trkpt>
      <trkpt lat="42.10803" lon="2.3558">
        <ele>1147.6</ele>
        <time>2019-01-18T19:02:50Z</time>
      </trkpt>
      <trkpt lat="42.10795" lon="2.35589">
        <ele>1147.1</ele>
        <time>2019-01-18T19:02:58Z</time>
      </trkpt>
      <trkpt lat="42.10789" lon="2.35594">
        <ele>1147</ele>
        <time>2019-01-18T19:03:04Z</time>
      </trkpt>
      <trkpt lat="42.10775" lon="2.35608">
        <ele>1148.9</ele>
        <time>2019-01-18T19:03:17Z</time>
      </trkpt>
      <trkpt lat="42.10768" lon="2.35614">
        <ele>1150.5</ele>
        <time>2019-01-18T19:03:24Z</time>
      </trkpt>
      <trkpt lat="42.10763" lon="2.35628">
        <ele>1150.8</ele>
        <time>2019-01-18T19:03:33Z</time>
      </trkpt>
      <trkpt lat="42.10755" lon="2.35643">
        <ele>1150.9</ele>
        <time>2019-01-18T19:03:44Z</time>
      </trkpt>
      <trkpt lat="42.10761" lon="2.35661">
        <ele>1150</ele>
        <time>2019-01-18T19:03:56Z</time>
      </trkpt>
      <trkpt lat="42.10764" lon="2.35676">
        <ele>1149.9</ele>
        <time>2019-01-18T19:04:05Z</time>
      </trkpt>
      <trkpt lat="42.10761" lon="2.35691">
        <ele>1148</ele>
        <time>2019-01-18T19:04:15Z</time>
      </trkpt>
      <trkpt lat="42.10758" lon="2.35705">
        <ele>1144.1</ele>
        <time>2019-01-18T19:04:23Z</time>
      </trkpt>
      <trkpt lat="42.10753" lon="2.35721">
        <ele>1142.7</ele>
        <time>2019-01-18T19:04:34Z</time>
      </trkpt>
      <trkpt lat="42.10749" lon="2.35736">
        <ele>1137.5</ele>
        <time>2019-01-18T19:04:43Z</time>
      </trkpt>
      <trkpt lat="42.10734" lon="2.35745">
        <ele>1135.9</ele>
        <time>2019-01-18T19:04:56Z</time>
      </trkpt>
      <trkpt lat="42.10724" lon="2.35752">
        <ele>1137.4</ele>
        <time>2019-01-18T19:05:05Z</time>
      </trkpt>
      <trkpt lat="42.10713" lon="2.35763">
        <ele>1138.8</ele>
        <time>2019-01-18T19:05:16Z</time>
      </trkpt>
      <trkpt lat="42.10704" lon="2.3577">
        <ele>1137.5</ele>
        <time>2019-01-18T19:05:24Z</time>
      </trkpt>
      <trkpt lat="42.10696" lon="2.35785">
        <ele>1138.9</ele>
        <time>2019-01-18T19:05:35Z</time>
      </trkpt>
      <trkpt lat="42.10696" lon="2.35792">
        <ele>1138.8</ele>
        <time>2019-01-18T19:05:39Z</time>
      </trkpt>
      <trkpt lat="42.10689" lon="2.35806">
        <ele>1142.2</ele>
        <time>2019-01-18T19:05:49Z</time>
      </trkpt>
      <trkpt lat="42.10684" lon="2.35814">
        <ele>1146.5</ele>
        <time>2019-01-18T19:05:56Z</time>
      </trkpt>
      <trkpt lat="42.10684" lon="2.35815">
        <ele>1147.5</ele>
        <time>2019-01-18T19:05:57Z</time>
      </trkpt>
      <trkpt lat="42.10686" lon="2.35823">
        <ele>1143.6</ele>
        <time>2019-01-18T19:06:02Z</time>
      </trkpt>
      <trkpt lat="42.10692" lon="2.35832">
        <ele>1143.7</ele>
        <time>2019-01-18T19:06:09Z</time>
      </trkpt>
      <trkpt lat="42.10699" lon="2.35841">
        <ele>1143.2</ele>
        <time>2019-01-18T19:06:17Z</time>
      </trkpt>
      <trkpt lat="42.10711" lon="2.35848">
        <ele>1140.8</ele>
        <time>2019-01-18T19:06:27Z</time>
      </trkpt>
      <trkpt lat="42.10721" lon="2.35857">
        <ele>1138.8</ele>
        <time>2019-01-18T19:06:37Z</time>
      </trkpt>
      <trkpt lat="42.10723" lon="2.35863">
        <ele>1137.9</ele>
        <time>2019-01-18T19:06:41Z</time>
      </trkpt>
      <trkpt lat="42.1073" lon="2.35872">
        <ele>1136</ele>
        <time>2019-01-18T19:06:48Z</time>
      </trkpt>
      <trkpt lat="42.10739" lon="2.35876">
        <ele>1133.6</ele>
        <time>2019-01-18T19:06:56Z</time>
      </trkpt>
      <trkpt lat="42.10746" lon="2.35882">
        <ele>1131.2</ele>
        <time>2019-01-18T19:07:02Z</time>
      </trkpt>
      <trkpt lat="42.10754" lon="2.35891">
        <ele>1130.8</ele>
        <time>2019-01-18T19:07:11Z</time>
      </trkpt>
      <trkpt lat="42.10754" lon="2.35893">
        <ele>1129.8</ele>
        <time>2019-01-18T19:07:12Z</time>
      </trkpt>
      <trkpt lat="42.10756" lon="2.35896">
        <ele>1127.9</ele>
        <time>2019-01-18T19:07:15Z</time>
      </trkpt>
      <trkpt lat="42.10762" lon="2.35907">
        <ele>1123.4</ele>
        <time>2019-01-18T19:07:23Z</time>
      </trkpt>
      <trkpt lat="42.10763" lon="2.35914">
        <ele>1117.2</ele>
        <time>2019-01-18T19:07:27Z</time>
      </trkpt>
      <trkpt lat="42.1077" lon="2.35919">
        <ele>1110.6</ele>
        <time>2019-01-18T19:07:33Z</time>
      </trkpt>
      <trkpt lat="42.10773" lon="2.35925">
        <ele>1104.2</ele>
        <time>2019-01-18T19:07:38Z</time>
      </trkpt>
      <trkpt lat="42.10776" lon="2.35934">
        <ele>1101.3</ele>
        <time>2019-01-18T19:07:44Z</time>
      </trkpt>
      <trkpt lat="42.10786" lon="2.3594">
        <ele>1101.8</ele>
        <time>2019-01-18T19:07:52Z</time>
      </trkpt>
      <trkpt lat="42.10793" lon="2.35946">
        <ele>1102.8</ele>
        <time>2019-01-18T19:07:59Z</time>
      </trkpt>
      <trkpt lat="42.10798" lon="2.35947">
        <ele>1102.9</ele>
        <time>2019-01-18T19:08:03Z</time>
      </trkpt>
      <trkpt lat="42.10803" lon="2.35951">
        <ele>1102.4</ele>
        <time>2019-01-18T19:08:07Z</time>
      </trkpt>
      <trkpt lat="42.1081" lon="2.35955">
        <ele>1100</ele>
        <time>2019-01-18T19:08:13Z</time>
      </trkpt>
      <trkpt lat="42.10822" lon="2.35959">
        <ele>1097.6</ele>
        <time>2019-01-18T19:08:23Z</time>
      </trkpt>
      <trkpt lat="42.10829" lon="2.35968">
        <ele>1097.5</ele>
        <time>2019-01-18T19:08:31Z</time>
      </trkpt>
      <trkpt lat="42.10832" lon="2.35981">
        <ele>1099</ele>
        <time>2019-01-18T19:08:39Z</time>
      </trkpt>
      <trkpt lat="42.10831" lon="2.35988">
        <ele>1098.1</ele>
        <time>2019-01-18T19:08:43Z</time>
      </trkpt>
      <trkpt lat="42.10833" lon="2.35993">
        <ele>1096.6</ele>
        <time>2019-01-18T19:08:47Z</time>
      </trkpt>
      <trkpt lat="42.10836" lon="2.36">
        <ele>1096.6</ele>
        <time>2019-01-18T19:08:51Z</time>
      </trkpt>
      <trkpt lat="42.10836" lon="2.36002">
        <ele>1096.5</ele>
        <time>2019-01-18T19:08:53Z</time>
      </trkpt>
      <trkpt lat="42.10836" lon="2.36012">
        <ele>1095.6</ele>
        <time>2019-01-18T19:08:59Z</time>
      </trkpt>
      <trkpt lat="42.10837" lon="2.36017">
        <ele>1095.2</ele>
        <time>2019-01-18T19:09:02Z</time>
      </trkpt>
      <trkpt lat="42.1084" lon="2.36028">
        <ele>1094.7</ele>
        <time>2019-01-18T19:09:09Z</time>
      </trkpt>
      <trkpt lat="42.10841" lon="2.36037">
        <ele>1094.2</ele>
        <time>2019-01-18T19:09:14Z</time>
      </trkpt>
      <trkpt lat="42.10842" lon="2.3605">
        <ele>1094.1</ele>
        <time>2019-01-18T19:09:22Z</time>
      </trkpt>
      <trkpt lat="42.10845" lon="2.3606">
        <ele>1091.3</ele>
        <time>2019-01-18T19:09:28Z</time>
      </trkpt>
      <trkpt lat="42.10846" lon="2.36069">
        <ele>1088</ele>
        <time>2019-01-18T19:09:34Z</time>
      </trkpt>
      <trkpt lat="42.10844" lon="2.36075">
        <ele>1085.1</ele>
        <time>2019-01-18T19:09:38Z</time>
      </trkpt>
      <trkpt lat="42.10843" lon="2.36079">
        <ele>1081.1</ele>
        <time>2019-01-18T19:09:41Z</time>
      </trkpt>
      <trkpt lat="42.10844" lon="2.36085">
        <ele>1075.9</ele>
        <time>2019-01-18T19:09:44Z</time>
      </trkpt>
      <trkpt lat="42.1085" lon="2.36077">
        <ele>1073.5</ele>
        <time>2019-01-18T19:09:51Z</time>
      </trkpt>
      <trkpt lat="42.10865" lon="2.3607">
        <ele>1072.5</ele>
        <time>2019-01-18T19:10:04Z</time>
      </trkpt>
      <trkpt lat="42.10868" lon="2.36069">
        <ele>1071.1</ele>
        <time>2019-01-18T19:10:06Z</time>
      </trkpt>
      <trkpt lat="42.10882" lon="2.36067">
        <ele>1071.1</ele>
        <time>2019-01-18T19:10:17Z</time>
      </trkpt>
      <trkpt lat="42.10893" lon="2.36063">
        <ele>1066.2</ele>
        <time>2019-01-18T19:10:27Z</time>
      </trkpt>
      <trkpt lat="42.10887" lon="2.36057">
        <ele>1063.4</ele>
        <time>2019-01-18T19:10:32Z</time>
      </trkpt>
      <trkpt lat="42.10901" lon="2.36056">
        <ele>1062.5</ele>
        <time>2019-01-18T19:10:44Z</time>
      </trkpt>
      <trkpt lat="42.10912" lon="2.36055">
        <ele>1063.4</ele>
        <time>2019-01-18T19:10:52Z</time>
      </trkpt>
      <trkpt lat="42.10926" lon="2.36059">
        <ele>1062</ele>
        <time>2019-01-18T19:11:03Z</time>
      </trkpt>
      <trkpt lat="42.10931" lon="2.36072">
        <ele>1059.6</ele>
        <time>2019-01-18T19:11:12Z</time>
      </trkpt>
      <trkpt lat="42.10922" lon="2.36083">
        <ele>1058.2</ele>
        <time>2019-01-18T19:11:21Z</time>
      </trkpt>
      <trkpt lat="42.10924" lon="2.36098">
        <ele>1058.7</ele>
        <time>2019-01-18T19:11:30Z</time>
      </trkpt>
      <trkpt lat="42.10923" lon="2.36103">
        <ele>1058.1</ele>
        <time>2019-01-18T19:11:33Z</time>
      </trkpt>
      <trkpt lat="42.10923" lon="2.36106">
        <ele>1056.6</ele>
        <time>2019-01-18T19:11:35Z</time>
      </trkpt>
      <trkpt lat="42.10916" lon="2.36102">
        <ele>1050.9</ele>
        <time>2019-01-18T19:11:41Z</time>
      </trkpt>
      <trkpt lat="42.10914" lon="2.36102">
        <ele>1049.5</ele>
        <time>2019-01-18T19:11:43Z</time>
      </trkpt>
      <trkpt lat="42.10908" lon="2.3611">
        <ele>1048.1</ele>
        <time>2019-01-18T19:11:49Z</time>
      </trkpt>
      <trkpt lat="42.10911" lon="2.3612">
        <ele>1048</ele>
        <time>2019-01-18T19:11:56Z</time>
      </trkpt>
      <trkpt lat="42.10907" lon="2.36136">
        <ele>1045.6</ele>
        <time>2019-01-18T19:12:06Z</time>
      </trkpt>
      <trkpt lat="42.10904" lon="2.3615">
        <ele>1042.8</ele>
        <time>2019-01-18T19:12:15Z</time>
      </trkpt>
      <trkpt lat="42.10901" lon="2.36165">
        <ele>1041.8</ele>
        <time>2019-01-18T19:12:24Z</time>
      </trkpt>
      <trkpt lat="42.10897" lon="2.3618">
        <ele>1040.9</ele>
        <time>2019-01-18T19:12:33Z</time>
      </trkpt>
      <trkpt lat="42.10896" lon="2.36198">
        <ele>1041.8</ele>
        <time>2019-01-18T19:12:44Z</time>
      </trkpt>
      <trkpt lat="42.10896" lon="2.36211">
        <ele>1042.3</ele>
        <time>2019-01-18T19:12:52Z</time>
      </trkpt>
      <trkpt lat="42.10897" lon="2.36225">
        <ele>1040.3</ele>
        <time>2019-01-18T19:13:00Z</time>
      </trkpt>
      <trkpt lat="42.10899" lon="2.36242">
        <ele>1038.8</ele>
        <time>2019-01-18T19:13:10Z</time>
      </trkpt>
      <trkpt lat="42.10899" lon="2.36259">
        <ele>1037.9</ele>
        <time>2019-01-18T19:13:20Z</time>
      </trkpt>
      <trkpt lat="42.10902" lon="2.36266">
        <ele>1037.9</ele>
        <time>2019-01-18T19:13:25Z</time>
      </trkpt>
      <trkpt lat="42.10908" lon="2.36274">
        <ele>1037</ele>
        <time>2019-01-18T19:13:32Z</time>
      </trkpt>
      <trkpt lat="42.10911" lon="2.36288">
        <ele>1036.4</ele>
        <time>2019-01-18T19:13:40Z</time>
      </trkpt>
      <trkpt lat="42.10911" lon="2.36289">
        <ele>1036.4</ele>
        <time>2019-01-18T19:13:41Z</time>
      </trkpt>
      <trkpt lat="42.10909" lon="2.36308">
        <ele>1031.7</ele>
        <time>2019-01-18T19:13:52Z</time>
      </trkpt>
      <trkpt lat="42.10908" lon="2.3631">
        <ele>1031.7</ele>
        <time>2019-01-18T19:13:53Z</time>
      </trkpt>
      <trkpt lat="42.109" lon="2.36321">
        <ele>1032.1</ele>
        <time>2019-01-18T19:14:03Z</time>
      </trkpt>
      <trkpt lat="42.10889" lon="2.36326">
        <ele>1029.3</ele>
        <time>2019-01-18T19:14:12Z</time>
      </trkpt>
      <trkpt lat="42.10885" lon="2.36317">
        <ele>1026.4</ele>
        <time>2019-01-18T19:14:18Z</time>
      </trkpt>
      <trkpt lat="42.10885" lon="2.36302">
        <ele>1023.9</ele>
        <time>2019-01-18T19:14:27Z</time>
      </trkpt>
      <trkpt lat="42.10884" lon="2.3629">
        <ele>1023</ele>
        <time>2019-01-18T19:14:35Z</time>
      </trkpt>
      <trkpt lat="42.10881" lon="2.36286">
        <ele>1023</ele>
        <time>2019-01-18T19:14:38Z</time>
      </trkpt>
      <trkpt lat="42.10877" lon="2.36272">
        <ele>1023</ele>
        <time>2019-01-18T19:14:47Z</time>
      </trkpt>
      <trkpt lat="42.10871" lon="2.36261">
        <ele>1023.6</ele>
        <time>2019-01-18T19:14:55Z</time>
      </trkpt>
      <trkpt lat="42.10871" lon="2.36261">
        <ele>1023.5</ele>
        <time>2019-01-18T19:14:55Z</time>
      </trkpt>
      <trkpt lat="42.10861" lon="2.36266">
        <ele>1021.5</ele>
        <time>2019-01-18T19:15:04Z</time>
      </trkpt>
      <trkpt lat="42.10856" lon="2.36281">
        <ele>1020.6</ele>
        <time>2019-01-18T19:15:14Z</time>
      </trkpt>
      <trkpt lat="42.10853" lon="2.36289">
        <ele>1021.1</ele>
        <time>2019-01-18T19:15:19Z</time>
      </trkpt>
      <trkpt lat="42.1085" lon="2.36295">
        <ele>1023.1</ele>
        <time>2019-01-18T19:15:23Z</time>
      </trkpt>
      <trkpt lat="42.10836" lon="2.36299">
        <ele>1031.2</ele>
        <time>2019-01-18T19:15:35Z</time>
      </trkpt>
      <trkpt lat="42.10829" lon="2.36302">
        <ele>1034.1</ele>
        <time>2019-01-18T19:15:40Z</time>
      </trkpt>
      <trkpt lat="42.10827" lon="2.36315">
        <ele>1033.7</ele>
        <time>2019-01-18T19:15:49Z</time>
      </trkpt>
      <trkpt lat="42.10823" lon="2.36326">
        <ele>1029.7</ele>
        <time>2019-01-18T19:15:56Z</time>
      </trkpt>
      <trkpt lat="42.10812" lon="2.36336">
        <ele>1029.2</ele>
        <time>2019-01-18T19:16:06Z</time>
      </trkpt>
      <trkpt lat="42.10804" lon="2.36345">
        <ele>1028.3</ele>
        <time>2019-01-18T19:16:14Z</time>
      </trkpt>
      <trkpt lat="42.10807" lon="2.36352">
        <ele>1026.4</ele>
        <time>2019-01-18T19:16:19Z</time>
      </trkpt>
      <trkpt lat="42.10812" lon="2.36351">
        <ele>1018.8</ele>
        <time>2019-01-18T19:16:23Z</time>
      </trkpt>
      <trkpt lat="42.10807" lon="2.3636">
        <ele>1007.7</ele>
        <time>2019-01-18T19:16:29Z</time>
      </trkpt>
      <trkpt lat="42.10806" lon="2.36364">
        <ele>1004.2</ele>
        <time>2019-01-18T19:16:32Z</time>
      </trkpt>
      <trkpt lat="42.10799" lon="2.36374">
        <ele>1001.9</ele>
        <time>2019-01-18T19:16:40Z</time>
      </trkpt>
      <trkpt lat="42.10797" lon="2.36379">
        <ele>1000.4</ele>
        <time>2019-01-18T19:16:43Z</time>
      </trkpt>
      <trkpt lat="42.10787" lon="2.3639">
        <ele>999.1</ele>
        <time>2019-01-18T19:16:54Z</time>
      </trkpt>
      <trkpt lat="42.10784" lon="2.36395">
        <ele>999</ele>
        <time>2019-01-18T19:16:58Z</time>
      </trkpt>
      <trkpt lat="42.10782" lon="2.36397">
        <ele>998.6</ele>
        <time>2019-01-18T19:17:00Z</time>
      </trkpt>
      <trkpt lat="42.10777" lon="2.364">
        <ele>998</ele>
        <time>2019-01-18T19:17:04Z</time>
      </trkpt>
      <trkpt lat="42.10766" lon="2.364">
        <ele>994.6</ele>
        <time>2019-01-18T19:17:13Z</time>
      </trkpt>
      <trkpt lat="42.10758" lon="2.36402">
        <ele>992.7</ele>
        <time>2019-01-18T19:17:20Z</time>
      </trkpt>
      <trkpt lat="42.10757" lon="2.36403">
        <ele>992.8</ele>
        <time>2019-01-18T19:17:21Z</time>
      </trkpt>
      <trkpt lat="42.10746" lon="2.36416">
        <ele>991.4</ele>
        <time>2019-01-18T19:17:32Z</time>
      </trkpt>
      <trkpt lat="42.10738" lon="2.3643">
        <ele>990.8</ele>
        <time>2019-01-18T19:17:43Z</time>
      </trkpt>
      <trkpt lat="42.10733" lon="2.36432">
        <ele>990.3</ele>
        <time>2019-01-18T19:17:47Z</time>
      </trkpt>
      <trkpt lat="42.10726" lon="2.36448">
        <ele>989.9</ele>
        <time>2019-01-18T19:17:57Z</time>
      </trkpt>
      <trkpt lat="42.10719" lon="2.36459">
        <ele>987.4</ele>
        <time>2019-01-18T19:18:07Z</time>
      </trkpt>
      <trkpt lat="42.10714" lon="2.36474">
        <ele>985.1</ele>
        <time>2019-01-18T19:18:16Z</time>
      </trkpt>
      <trkpt lat="42.1071" lon="2.36483">
        <ele>984.6</ele>
        <time>2019-01-18T19:18:22Z</time>
      </trkpt>
      <trkpt lat="42.10706" lon="2.36488">
        <ele>982.7</ele>
        <time>2019-01-18T19:18:27Z</time>
      </trkpt>
      <trkpt lat="42.10702" lon="2.36497">
        <ele>981.2</ele>
        <time>2019-01-18T19:18:33Z</time>
      </trkpt>
      <trkpt lat="42.10701" lon="2.365">
        <ele>980.7</ele>
        <time>2019-01-18T19:18:35Z</time>
      </trkpt>
      <trkpt lat="42.10696" lon="2.36513">
        <ele>979.2</ele>
        <time>2019-01-18T19:18:44Z</time>
      </trkpt>
      <trkpt lat="42.10687" lon="2.36525">
        <ele>977.9</ele>
        <time>2019-01-18T19:18:54Z</time>
      </trkpt>
      <trkpt lat="42.10681" lon="2.36537">
        <ele>975.9</ele>
        <time>2019-01-18T19:19:02Z</time>
      </trkpt>
      <trkpt lat="42.10673" lon="2.36544">
        <ele>976</ele>
        <time>2019-01-18T19:19:10Z</time>
      </trkpt>
      <trkpt lat="42.1067" lon="2.36548">
        <ele>975.4</ele>
        <time>2019-01-18T19:19:14Z</time>
      </trkpt>
      <trkpt lat="42.10669" lon="2.36554">
        <ele>976</ele>
        <time>2019-01-18T19:19:17Z</time>
      </trkpt>
      <trkpt lat="42.10666" lon="2.36567">
        <ele>973.6</ele>
        <time>2019-01-18T19:19:25Z</time>
      </trkpt>
      <trkpt lat="42.10665" lon="2.36576">
        <ele>973.5</ele>
        <time>2019-01-18T19:19:31Z</time>
      </trkpt>
      <trkpt lat="42.10659" lon="2.36599">
        <ele>973</ele>
        <time>2019-01-18T19:19:45Z</time>
      </trkpt>
      <trkpt lat="42.10658" lon="2.36609">
        <ele>974.5</ele>
        <time>2019-01-18T19:19:51Z</time>
      </trkpt>
      <trkpt lat="42.10654" lon="2.36628">
        <ele>973</ele>
        <time>2019-01-18T19:20:03Z</time>
      </trkpt>
      <trkpt lat="42.1065" lon="2.36644">
        <ele>970.1</ele>
        <time>2019-01-18T19:20:13Z</time>
      </trkpt>
      <trkpt lat="42.1065" lon="2.36649">
        <ele>968.3</ele>
        <time>2019-01-18T19:20:16Z</time>
      </trkpt>
      <trkpt lat="42.10645" lon="2.3666">
        <ele>964.4</ele>
        <time>2019-01-18T19:20:23Z</time>
      </trkpt>
      <trkpt lat="42.10644" lon="2.3667">
        <ele>964.9</ele>
        <time>2019-01-18T19:20:29Z</time>
      </trkpt>
      <trkpt lat="42.10644" lon="2.36671">
        <ele>965.4</ele>
        <time>2019-01-18T19:20:30Z</time>
      </trkpt>
      <trkpt lat="42.10644" lon="2.36684">
        <ele>968.8</ele>
        <time>2019-01-18T19:20:38Z</time>
      </trkpt>
      <trkpt lat="42.10642" lon="2.36703">
        <ele>970.6</ele>
        <time>2019-01-18T19:20:49Z</time>
      </trkpt>
      <trkpt lat="42.10639" lon="2.36707">
        <ele>970.2</ele>
        <time>2019-01-18T19:20:53Z</time>
      </trkpt>
      <trkpt lat="42.10636" lon="2.36704">
        <ele>970.1</ele>
        <time>2019-01-18T19:20:56Z</time>
      </trkpt>
      <trkpt lat="42.1063" lon="2.36698">
        <ele>971.1</ele>
        <time>2019-01-18T19:21:02Z</time>
      </trkpt>
      <trkpt lat="42.10618" lon="2.36682">
        <ele>974.1</ele>
        <time>2019-01-18T19:21:15Z</time>
      </trkpt>
      <trkpt lat="42.10609" lon="2.36675">
        <ele>974.4</ele>
        <time>2019-01-18T19:21:23Z</time>
      </trkpt>
      <trkpt lat="42.10592" lon="2.36671">
        <ele>974</ele>
        <time>2019-01-18T19:21:37Z</time>
      </trkpt>
      <trkpt lat="42.10575" lon="2.36677">
        <ele>972</ele>
        <time>2019-01-18T19:21:51Z</time>
      </trkpt>
      <trkpt lat="42.10559" lon="2.36683">
        <ele>969.7</ele>
        <time>2019-01-18T19:22:04Z</time>
      </trkpt>
      <trkpt lat="42.10545" lon="2.36687">
        <ele>968.8</ele>
        <time>2019-01-18T19:22:16Z</time>
      </trkpt>
      <trkpt lat="42.10535" lon="2.36699">
        <ele>964.8</ele>
        <time>2019-01-18T19:22:27Z</time>
      </trkpt>
      <trkpt lat="42.10517" lon="2.36701">
        <ele>963.4</ele>
        <time>2019-01-18T19:22:41Z</time>
      </trkpt>
      <trkpt lat="42.105" lon="2.36703">
        <ele>965.4</ele>
        <time>2019-01-18T19:22:55Z</time>
      </trkpt>
      <trkpt lat="42.10491" lon="2.36714">
        <ele>965.3</ele>
        <time>2019-01-18T19:23:04Z</time>
      </trkpt>
      <trkpt lat="42.1048" lon="2.36724">
        <ele>964.3</ele>
        <time>2019-01-18T19:23:15Z</time>
      </trkpt>
      <trkpt lat="42.1047" lon="2.36731">
        <ele>965.4</ele>
        <time>2019-01-18T19:23:24Z</time>
      </trkpt>
      <trkpt lat="42.10463" lon="2.36734">
        <ele>963.9</ele>
        <time>2019-01-18T19:23:30Z</time>
      </trkpt>
      <trkpt lat="42.10447" lon="2.36733">
        <ele>967.2</ele>
        <time>2019-01-18T19:23:42Z</time>
      </trkpt>
      <trkpt lat="42.10424" lon="2.36737">
        <ele>972</ele>
        <time>2019-01-18T19:24:01Z</time>
      </trkpt>
      <trkpt lat="42.10404" lon="2.36735">
        <ele>972.5</ele>
        <time>2019-01-18T19:24:17Z</time>
      </trkpt>
      <trkpt lat="42.10387" lon="2.36734">
        <ele>969.7</ele>
        <time>2019-01-18T19:24:31Z</time>
      </trkpt>
      <trkpt lat="42.10376" lon="2.36736">
        <ele>965.4</ele>
        <time>2019-01-18T19:24:40Z</time>
      </trkpt>
      <trkpt lat="42.10364" lon="2.36737">
        <ele>962.4</ele>
        <time>2019-01-18T19:24:49Z</time>
      </trkpt>
      <trkpt lat="42.10347" lon="2.36739">
        <ele>963.4</ele>
        <time>2019-01-18T19:25:03Z</time>
      </trkpt>
      <trkpt lat="42.10339" lon="2.36738">
        <ele>964</ele>
        <time>2019-01-18T19:25:09Z</time>
      </trkpt>
      <trkpt lat="42.10327" lon="2.36739">
        <ele>962.5</ele>
        <time>2019-01-18T19:25:19Z</time>
      </trkpt>
      <trkpt lat="42.10326" lon="2.3674">
        <ele>962.4</ele>
        <time>2019-01-18T19:25:20Z</time>
      </trkpt>
      <trkpt lat="42.1032" lon="2.3675">
        <ele>961</ele>
        <time>2019-01-18T19:25:27Z</time>
      </trkpt>
      <trkpt lat="42.10322" lon="2.36757">
        <ele>958.7</ele>
        <time>2019-01-18T19:25:32Z</time>
      </trkpt>
      <trkpt lat="42.10309" lon="2.36774">
        <ele>952.8</ele>
        <time>2019-01-18T19:25:46Z</time>
      </trkpt>
      <trkpt lat="42.10286" lon="2.36777">
        <ele>950.4</ele>
        <time>2019-01-18T19:26:05Z</time>
      </trkpt>
      <trkpt lat="42.10279" lon="2.36769">
        <ele>952.8</ele>
        <time>2019-01-18T19:26:12Z</time>
      </trkpt>
      <trkpt lat="42.10269" lon="2.36762">
        <ele>957.6</ele>
        <time>2019-01-18T19:26:22Z</time>
      </trkpt>
      <trkpt lat="42.10266" lon="2.36763">
        <ele>957.7</ele>
        <time>2019-01-18T19:26:24Z</time>
      </trkpt>
      <trkpt lat="42.10253" lon="2.36769">
        <ele>957.7</ele>
        <time>2019-01-18T19:26:34Z</time>
      </trkpt>
      <trkpt lat="42.10242" lon="2.36771">
        <ele>959.2</ele>
        <time>2019-01-18T19:26:43Z</time>
      </trkpt>
      <trkpt lat="42.10231" lon="2.36777">
        <ele>958.6</ele>
        <time>2019-01-18T19:26:53Z</time>
      </trkpt>
      <trkpt lat="42.10223" lon="2.36787">
        <ele>959.1</ele>
        <time>2019-01-18T19:27:02Z</time>
      </trkpt>
      <trkpt lat="42.10211" lon="2.368">
        <ele>957.2</ele>
        <time>2019-01-18T19:27:14Z</time>
      </trkpt>
      <trkpt lat="42.10204" lon="2.36804">
        <ele>957.7</ele>
        <time>2019-01-18T19:27:20Z</time>
      </trkpt>
      <trkpt lat="42.102" lon="2.36813">
        <ele>956.2</ele>
        <time>2019-01-18T19:27:26Z</time>
      </trkpt>
      <trkpt lat="42.10182" lon="2.3682">
        <ele>953.3</ele>
        <time>2019-01-18T19:27:42Z</time>
      </trkpt>
      <trkpt lat="42.10175" lon="2.36818">
        <ele>957.1</ele>
        <time>2019-01-18T19:27:47Z</time>
      </trkpt>
      <trkpt lat="42.10165" lon="2.3682">
        <ele>961</ele>
        <time>2019-01-18T19:27:55Z</time>
      </trkpt>
      <trkpt lat="42.10152" lon="2.36829">
        <ele>961.6</ele>
        <time>2019-01-18T19:28:06Z</time>
      </trkpt>
      <trkpt lat="42.10141" lon="2.36831">
        <ele>963.4</ele>
        <time>2019-01-18T19:28:16Z</time>
      </trkpt>
      <trkpt lat="42.10131" lon="2.36825">
        <ele>966.3</ele>
        <time>2019-01-18T19:28:24Z</time>
      </trkpt>
      <trkpt lat="42.10126" lon="2.36815">
        <ele>969.2</ele>
        <time>2019-01-18T19:28:32Z</time>
      </trkpt>
      <trkpt lat="42.1012" lon="2.36808">
        <ele>970.7</ele>
        <time>2019-01-18T19:28:38Z</time>
      </trkpt>
      <trkpt lat="42.10118" lon="2.36806">
        <ele>971.1</ele>
        <time>2019-01-18T19:28:40Z</time>
      </trkpt>
      <trkpt lat="42.10115" lon="2.36805">
        <ele>973</ele>
        <time>2019-01-18T19:28:42Z</time>
      </trkpt>
      <trkpt lat="42.10106" lon="2.368">
        <ele>973</ele>
        <time>2019-01-18T19:28:50Z</time>
      </trkpt>
      <trkpt lat="42.10102" lon="2.368">
        <ele>967.2</ele>
        <time>2019-01-18T19:28:53Z</time>
      </trkpt>
      <trkpt lat="42.10091" lon="2.36808">
        <ele>965.3</ele>
        <time>2019-01-18T19:29:03Z</time>
      </trkpt>
      <trkpt lat="42.10081" lon="2.36817">
        <ele>963.4</ele>
        <time>2019-01-18T19:29:13Z</time>
      </trkpt>
      <trkpt lat="42.10068" lon="2.36824">
        <ele>962.4</ele>
        <time>2019-01-18T19:29:24Z</time>
      </trkpt>
      <trkpt lat="42.10064" lon="2.36826">
        <ele>963.5</ele>
        <time>2019-01-18T19:29:27Z</time>
      </trkpt>
      <trkpt lat="42.10056" lon="2.36838">
        <ele>963</ele>
        <time>2019-01-18T19:29:37Z</time>
      </trkpt>
      <trkpt lat="42.10048" lon="2.36849">
        <ele>961</ele>
        <time>2019-01-18T19:29:46Z</time>
      </trkpt>
      <trkpt lat="42.10038" lon="2.3686">
        <ele>961.1</ele>
        <time>2019-01-18T19:29:56Z</time>
      </trkpt>
      <trkpt lat="42.10028" lon="2.36871">
        <ele>961.9</ele>
        <time>2019-01-18T19:30:06Z</time>
      </trkpt>
      <trkpt lat="42.10024" lon="2.36875">
        <ele>961.1</ele>
        <time>2019-01-18T19:30:11Z</time>
      </trkpt>
      <trkpt lat="42.10022" lon="2.36876">
        <ele>960.6</ele>
        <time>2019-01-18T19:30:12Z</time>
      </trkpt>
      <trkpt lat="42.10009" lon="2.36881">
        <ele>960.5</ele>
        <time>2019-01-18T19:30:24Z</time>
      </trkpt>
      <trkpt lat="42.09994" lon="2.36886">
        <ele>958.2</ele>
        <time>2019-01-18T19:30:36Z</time>
      </trkpt>
      <trkpt lat="42.0998" lon="2.36893">
        <ele>954.3</ele>
        <time>2019-01-18T19:30:47Z</time>
      </trkpt>
      <trkpt lat="42.09969" lon="2.36899">
        <ele>952.3</ele>
        <time>2019-01-18T19:30:57Z</time>
      </trkpt>
      <trkpt lat="42.09967" lon="2.369">
        <ele>951.9</ele>
        <time>2019-01-18T19:30:59Z</time>
      </trkpt>
      <trkpt lat="42.0996" lon="2.3691">
        <ele>948</ele>
        <time>2019-01-18T19:31:07Z</time>
      </trkpt>
      <trkpt lat="42.09954" lon="2.36917">
        <ele>945.2</ele>
        <time>2019-01-18T19:31:13Z</time>
      </trkpt>
      <trkpt lat="42.09946" lon="2.3693">
        <ele>945.7</ele>
        <time>2019-01-18T19:31:24Z</time>
      </trkpt>
      <trkpt lat="42.09941" lon="2.36944">
        <ele>945.6</ele>
        <time>2019-01-18T19:31:33Z</time>
      </trkpt>
      <trkpt lat="42.09936" lon="2.36954">
        <ele>944.2</ele>
        <time>2019-01-18T19:31:40Z</time>
      </trkpt>
      <trkpt lat="42.09931" lon="2.3697">
        <ele>944.3</ele>
        <time>2019-01-18T19:31:50Z</time>
      </trkpt>
      <trkpt lat="42.09931" lon="2.36989">
        <ele>943.8</ele>
        <time>2019-01-18T19:32:02Z</time>
      </trkpt>
      <trkpt lat="42.09928" lon="2.36998">
        <ele>945.2</ele>
        <time>2019-01-18T19:32:07Z</time>
      </trkpt>
      <trkpt lat="42.09919" lon="2.37017">
        <ele>949.1</ele>
        <time>2019-01-18T19:32:21Z</time>
      </trkpt>
      <trkpt lat="42.09921" lon="2.37028">
        <ele>950.9</ele>
        <time>2019-01-18T19:32:27Z</time>
      </trkpt>
      <trkpt lat="42.09922" lon="2.37031">
        <ele>951.4</ele>
        <time>2019-01-18T19:32:30Z</time>
      </trkpt>
      <trkpt lat="42.09922" lon="2.37033">
        <ele>951.8</ele>
        <time>2019-01-18T19:32:31Z</time>
      </trkpt>
      <trkpt lat="42.09932" lon="2.37044">
        <ele>952.3</ele>
        <time>2019-01-18T19:32:41Z</time>
      </trkpt>
      <trkpt lat="42.09943" lon="2.37049">
        <ele>953.8</ele>
        <time>2019-01-18T19:32:50Z</time>
      </trkpt>
      <trkpt lat="42.09951" lon="2.37064">
        <ele>955.8</ele>
        <time>2019-01-18T19:33:01Z</time>
      </trkpt>
      <trkpt lat="42.09952" lon="2.37067">
        <ele>955.7</ele>
        <time>2019-01-18T19:33:03Z</time>
      </trkpt>
      <trkpt lat="42.09957" lon="2.37082">
        <ele>958.7</ele>
        <time>2019-01-18T19:33:13Z</time>
      </trkpt>
      <trkpt lat="42.0996" lon="2.37092">
        <ele>961.1</ele>
        <time>2019-01-18T19:33:19Z</time>
      </trkpt>
      <trkpt lat="42.0996" lon="2.3711">
        <ele>961.5</ele>
        <time>2019-01-18T19:33:30Z</time>
      </trkpt>
      <trkpt lat="42.09959" lon="2.3712">
        <ele>963</ele>
        <time>2019-01-18T19:33:36Z</time>
      </trkpt>
      <trkpt lat="42.09961" lon="2.37131">
        <ele>962.5</ele>
        <time>2019-01-18T19:33:43Z</time>
      </trkpt>
      <trkpt lat="42.09951" lon="2.37142">
        <ele>961.9</ele>
        <time>2019-01-18T19:33:53Z</time>
      </trkpt>
      <trkpt lat="42.09943" lon="2.37156">
        <ele>963.9</ele>
        <time>2019-01-18T19:34:04Z</time>
      </trkpt>
      <trkpt lat="42.0994" lon="2.37167">
        <ele>963.9</ele>
        <time>2019-01-18T19:34:10Z</time>
      </trkpt>
      <trkpt lat="42.09936" lon="2.37183">
        <ele>963.4</ele>
        <time>2019-01-18T19:34:21Z</time>
      </trkpt>
      <trkpt lat="42.09936" lon="2.37188">
        <ele>963</ele>
        <time>2019-01-18T19:34:24Z</time>
      </trkpt>
      <trkpt lat="42.09935" lon="2.37212">
        <ele>966.4</ele>
        <time>2019-01-18T19:34:38Z</time>
      </trkpt>
      <trkpt lat="42.09936" lon="2.37214">
        <ele>965.4</ele>
        <time>2019-01-18T19:34:39Z</time>
      </trkpt>
      <trkpt lat="42.09934" lon="2.37221">
        <ele>968.2</ele>
        <time>2019-01-18T19:34:43Z</time>
      </trkpt>
      <trkpt lat="42.09929" lon="2.37229">
        <ele>968.8</ele>
        <time>2019-01-18T19:34:49Z</time>
      </trkpt>
      <trkpt lat="42.09929" lon="2.37229">
        <ele>969.3</ele>
        <time>2019-01-18T19:34:50Z</time>
      </trkpt>
      <trkpt lat="42.09923" lon="2.37233">
        <ele>971.1</ele>
        <time>2019-01-18T19:34:55Z</time>
      </trkpt>
      <trkpt lat="42.09914" lon="2.37242">
        <ele>968.8</ele>
        <time>2019-01-18T19:35:04Z</time>
      </trkpt>
      <trkpt lat="42.09908" lon="2.37243">
        <ele>967.2</ele>
        <time>2019-01-18T19:35:09Z</time>
      </trkpt>
      <trkpt lat="42.09898" lon="2.37242">
        <ele>966.3</ele>
        <time>2019-01-18T19:35:17Z</time>
      </trkpt>
      <trkpt lat="42.09894" lon="2.3725">
        <ele>965.4</ele>
        <time>2019-01-18T19:35:23Z</time>
      </trkpt>
      <trkpt lat="42.09906" lon="2.37253">
        <ele>967.8</ele>
        <time>2019-01-18T19:35:33Z</time>
      </trkpt>
      <trkpt lat="42.09909" lon="2.37262">
        <ele>969.7</ele>
        <time>2019-01-18T19:35:39Z</time>
      </trkpt>
      <trkpt lat="42.09914" lon="2.37266">
        <ele>971.6</ele>
        <time>2019-01-18T19:35:44Z</time>
      </trkpt>
      <trkpt lat="42.09921" lon="2.37268">
        <ele>975.4</ele>
        <time>2019-01-18T19:35:49Z</time>
      </trkpt>
      <trkpt lat="42.09931" lon="2.37271">
        <ele>978.4</ele>
        <time>2019-01-18T19:35:58Z</time>
      </trkpt>
      <trkpt lat="42.09939" lon="2.37277">
        <ele>982.1</ele>
        <time>2019-01-18T19:36:05Z</time>
      </trkpt>
      <trkpt lat="42.09943" lon="2.37275">
        <ele>983.7</ele>
        <time>2019-01-18T19:36:09Z</time>
      </trkpt>
      <trkpt lat="42.09944" lon="2.37275">
        <ele>984.1</ele>
        <time>2019-01-18T19:36:09Z</time>
      </trkpt>
      <trkpt lat="42.09944" lon="2.37274">
        <ele>983.7</ele>
        <time>2019-01-18T19:36:10Z</time>
      </trkpt>
      <trkpt lat="42.09944" lon="2.37274">
        <ele>981.6</ele>
        <time>2019-01-18T19:36:10Z</time>
      </trkpt>
      <trkpt lat="42.09936" lon="2.37274">
        <ele>979.2</ele>
        <time>2019-01-18T19:36:16Z</time>
      </trkpt>
      <trkpt lat="42.09934" lon="2.3727">
        <ele>978.4</ele>
        <time>2019-01-18T19:36:19Z</time>
      </trkpt>
      <trkpt lat="42.09926" lon="2.37268">
        <ele>976</ele>
        <time>2019-01-18T19:36:25Z</time>
      </trkpt>
      <trkpt lat="42.09921" lon="2.37266">
        <ele>974.9</ele>
        <time>2019-01-18T19:36:30Z</time>
      </trkpt>
      <trkpt lat="42.09914" lon="2.37265">
        <ele>971.6</ele>
        <time>2019-01-18T19:36:35Z</time>
      </trkpt>
      <trkpt lat="42.09908" lon="2.37264">
        <ele>969.7</ele>
        <time>2019-01-18T19:36:40Z</time>
      </trkpt>
      <trkpt lat="42.09904" lon="2.3726">
        <ele>967.8</ele>
        <time>2019-01-18T19:36:44Z</time>
      </trkpt>
      <trkpt lat="42.09904" lon="2.37254">
        <ele>966.4</ele>
        <time>2019-01-18T19:36:48Z</time>
      </trkpt>
      <trkpt lat="42.099" lon="2.3725">
        <ele>965.3</ele>
        <time>2019-01-18T19:36:52Z</time>
      </trkpt>
      <trkpt lat="42.09898" lon="2.37249">
        <ele>965.4</ele>
        <time>2019-01-18T19:36:53Z</time>
      </trkpt>
      <trkpt lat="42.09891" lon="2.37244">
        <ele>964.9</ele>
        <time>2019-01-18T19:37:00Z</time>
      </trkpt>
      <trkpt lat="42.09882" lon="2.37247">
        <ele>962.9</ele>
        <time>2019-01-18T19:37:07Z</time>
      </trkpt>
      <trkpt lat="42.09875" lon="2.37254">
        <ele>960</ele>
        <time>2019-01-18T19:37:14Z</time>
      </trkpt>
      <trkpt lat="42.09872" lon="2.37261">
        <ele>958.7</ele>
        <time>2019-01-18T19:37:19Z</time>
      </trkpt>
      <trkpt lat="42.09871" lon="2.37271">
        <ele>957.1</ele>
        <time>2019-01-18T19:37:25Z</time>
      </trkpt>
      <trkpt lat="42.09876" lon="2.37272">
        <ele>957.2</ele>
        <time>2019-01-18T19:37:29Z</time>
      </trkpt>
      <trkpt lat="42.09885" lon="2.37276">
        <ele>957.6</ele>
        <time>2019-01-18T19:37:36Z</time>
      </trkpt>
      <trkpt lat="42.09888" lon="2.37285">
        <ele>957.6</ele>
        <time>2019-01-18T19:37:42Z</time>
      </trkpt>
      <trkpt lat="42.09889" lon="2.37292">
        <ele>957.1</ele>
        <time>2019-01-18T19:37:46Z</time>
      </trkpt>
      <trkpt lat="42.09887" lon="2.37305">
        <ele>953.4</ele>
        <time>2019-01-18T19:37:54Z</time>
      </trkpt>
      <trkpt lat="42.09889" lon="2.37316">
        <ele>951.8</ele>
        <time>2019-01-18T19:38:01Z</time>
      </trkpt>
      <trkpt lat="42.09889" lon="2.37319">
        <ele>951.9</ele>
        <time>2019-01-18T19:38:03Z</time>
      </trkpt>
      <trkpt lat="42.09889" lon="2.37329">
        <ele>951.5</ele>
        <time>2019-01-18T19:38:09Z</time>
      </trkpt>
      <trkpt lat="42.09886" lon="2.3734">
        <ele>949.4</ele>
        <time>2019-01-18T19:38:16Z</time>
      </trkpt>
      <trkpt lat="42.09883" lon="2.37348">
        <ele>949</ele>
        <time>2019-01-18T19:38:21Z</time>
      </trkpt>
      <trkpt lat="42.09883" lon="2.37351">
        <ele>949.1</ele>
        <time>2019-01-18T19:38:23Z</time>
      </trkpt>
      <trkpt lat="42.0988" lon="2.37362">
        <ele>948.6</ele>
        <time>2019-01-18T19:38:30Z</time>
      </trkpt>
      <trkpt lat="42.0988" lon="2.37365">
        <ele>946.2</ele>
        <time>2019-01-18T19:38:32Z</time>
      </trkpt>
      <trkpt lat="42.09875" lon="2.37373">
        <ele>945.7</ele>
        <time>2019-01-18T19:38:38Z</time>
      </trkpt>
      <trkpt lat="42.09867" lon="2.37382">
        <ele>945.1</ele>
        <time>2019-01-18T19:38:46Z</time>
      </trkpt>
      <trkpt lat="42.09859" lon="2.37388">
        <ele>942.8</ele>
        <time>2019-01-18T19:38:54Z</time>
      </trkpt>
      <trkpt lat="42.09854" lon="2.37392">
        <ele>941.3</ele>
        <time>2019-01-18T19:38:58Z</time>
      </trkpt>
      <trkpt lat="42.09854" lon="2.37393">
        <ele>940.3</ele>
        <time>2019-01-18T19:38:59Z</time>
      </trkpt>
      <trkpt lat="42.0985" lon="2.37397">
        <ele>939.5</ele>
        <time>2019-01-18T19:39:03Z</time>
      </trkpt>
      <trkpt lat="42.09852" lon="2.37397">
        <ele>940.3</ele>
        <time>2019-01-18T19:39:04Z</time>
      </trkpt>
      <trkpt lat="42.09853" lon="2.37396">
        <ele>941.3</ele>
        <time>2019-01-18T19:39:05Z</time>
      </trkpt>
      <trkpt lat="42.09849" lon="2.374">
        <ele>940.8</ele>
        <time>2019-01-18T19:39:09Z</time>
      </trkpt>
      <trkpt lat="42.09841" lon="2.37407">
        <ele>939</ele>
        <time>2019-01-18T19:39:17Z</time>
      </trkpt>
      <trkpt lat="42.09834" lon="2.37395">
        <ele>939.8</ele>
        <time>2019-01-18T19:39:26Z</time>
      </trkpt>
      <trkpt lat="42.09831" lon="2.37389">
        <ele>941.3</ele>
        <time>2019-01-18T19:39:31Z</time>
      </trkpt>
      <trkpt lat="42.09824" lon="2.37379">
        <ele>940.9</ele>
        <time>2019-01-18T19:39:39Z</time>
      </trkpt>
      <trkpt lat="42.09811" lon="2.37376">
        <ele>938</ele>
        <time>2019-01-18T19:39:49Z</time>
      </trkpt>
      <trkpt lat="42.0981" lon="2.37376">
        <ele>937.9</ele>
        <time>2019-01-18T19:39:50Z</time>
      </trkpt>
      <trkpt lat="42.09807" lon="2.3738">
        <ele>939.4</ele>
        <time>2019-01-18T19:39:53Z</time>
      </trkpt>
      <trkpt lat="42.09815" lon="2.37375">
        <ele>937.9</ele>
        <time>2019-01-18T19:40:00Z</time>
      </trkpt>
      <trkpt lat="42.09816" lon="2.3737">
        <ele>937.4</ele>
        <time>2019-01-18T19:40:03Z</time>
      </trkpt>
      <trkpt lat="42.09814" lon="2.37368">
        <ele>935</ele>
        <time>2019-01-18T19:40:05Z</time>
      </trkpt>
      <trkpt lat="42.09816" lon="2.37369">
        <ele>933.1</ele>
        <time>2019-01-18T19:40:06Z</time>
      </trkpt>
      <trkpt lat="42.09816" lon="2.37372">
        <ele>931.2</ele>
        <time>2019-01-18T19:40:08Z</time>
      </trkpt>
      <trkpt lat="42.09813" lon="2.37381">
        <ele>930.7</ele>
        <time>2019-01-18T19:40:14Z</time>
      </trkpt>
      <trkpt lat="42.09806" lon="2.37391">
        <ele>933.7</ele>
        <time>2019-01-18T19:40:22Z</time>
      </trkpt>
      <trkpt lat="42.09806" lon="2.37391">
        <ele>934.2</ele>
        <time>2019-01-18T19:40:22Z</time>
      </trkpt>
      <trkpt lat="42.09805" lon="2.37396">
        <ele>935.1</ele>
        <time>2019-01-18T19:40:25Z</time>
      </trkpt>
      <trkpt lat="42.09803" lon="2.374">
        <ele>931.7</ele>
        <time>2019-01-18T19:40:28Z</time>
      </trkpt>
      <trkpt lat="42.09804" lon="2.37399">
        <ele>935.5</ele>
        <time>2019-01-18T19:40:30Z</time>
      </trkpt>
      <trkpt lat="42.09806" lon="2.37398">
        <ele>934.5</ele>
        <time>2019-01-18T19:40:31Z</time>
      </trkpt>
      <trkpt lat="42.09807" lon="2.37398">
        <ele>935.1</ele>
        <time>2019-01-18T19:40:32Z</time>
      </trkpt>
      <trkpt lat="42.09806" lon="2.37399">
        <ele>937.5</ele>
        <time>2019-01-18T19:40:33Z</time>
      </trkpt>
      <trkpt lat="42.09801" lon="2.37404">
        <ele>938.5</ele>
        <time>2019-01-18T19:40:37Z</time>
      </trkpt>
      <trkpt lat="42.09801" lon="2.37403">
        <ele>937.9</ele>
        <time>2019-01-18T19:40:38Z</time>
      </trkpt>
      <trkpt lat="42.09803" lon="2.37406">
        <ele>936</ele>
        <time>2019-01-18T19:40:40Z</time>
      </trkpt>
      <trkpt lat="42.09802" lon="2.37405">
        <ele>936.5</ele>
        <time>2019-01-18T19:40:40Z</time>
      </trkpt>
      <trkpt lat="42.09803" lon="2.37404">
        <ele>934.5</ele>
        <time>2019-01-18T19:40:41Z</time>
      </trkpt>
      <trkpt lat="42.09802" lon="2.37404">
        <ele>935.1</ele>
        <time>2019-01-18T19:40:42Z</time>
      </trkpt>
      <trkpt lat="42.09803" lon="2.37403">
        <ele>932.2</ele>
        <time>2019-01-18T19:40:43Z</time>
      </trkpt>
      <trkpt lat="42.09804" lon="2.37405">
        <ele>927.8</ele>
        <time>2019-01-18T19:40:44Z</time>
      </trkpt>
      <trkpt lat="42.09804" lon="2.37404">
        <ele>928.3</ele>
        <time>2019-01-18T19:40:45Z</time>
      </trkpt>
      <trkpt lat="42.09806" lon="2.37405">
        <ele>928.3</ele>
        <time>2019-01-18T19:40:47Z</time>
      </trkpt>
      <trkpt lat="42.09814" lon="2.37414">
        <ele>929.7</ele>
        <time>2019-01-18T19:40:55Z</time>
      </trkpt>
      <trkpt lat="42.09825" lon="2.37415">
        <ele>929.3</ele>
        <time>2019-01-18T19:41:05Z</time>
      </trkpt>
      <trkpt lat="42.0983" lon="2.37417">
        <ele>929.3</ele>
        <time>2019-01-18T19:41:08Z</time>
      </trkpt>
      <trkpt lat="42.09831" lon="2.37421">
        <ele>929.7</ele>
        <time>2019-01-18T19:41:11Z</time>
      </trkpt>
      <trkpt lat="42.09835" lon="2.37428">
        <ele>931.7</ele>
        <time>2019-01-18T19:41:16Z</time>
      </trkpt>
      <trkpt lat="42.09842" lon="2.37439">
        <ele>937.5</ele>
        <time>2019-01-18T19:41:25Z</time>
      </trkpt>
      <trkpt lat="42.09842" lon="2.37441">
        <ele>938</ele>
        <time>2019-01-18T19:41:26Z</time>
      </trkpt>
      <trkpt lat="42.09829" lon="2.37449">
        <ele>939.5</ele>
        <time>2019-01-18T19:41:37Z</time>
      </trkpt>
      <trkpt lat="42.09823" lon="2.37457">
        <ele>939.4</ele>
        <time>2019-01-18T19:41:44Z</time>
      </trkpt>
      <trkpt lat="42.09822" lon="2.37468">
        <ele>941.8</ele>
        <time>2019-01-18T19:41:51Z</time>
      </trkpt>
      <trkpt lat="42.09823" lon="2.37471">
        <ele>943.3</ele>
        <time>2019-01-18T19:41:53Z</time>
      </trkpt>
      <trkpt lat="42.09832" lon="2.37481">
        <ele>945.2</ele>
        <time>2019-01-18T19:42:02Z</time>
      </trkpt>
      <trkpt lat="42.09839" lon="2.3748">
        <ele>946.1</ele>
        <time>2019-01-18T19:42:07Z</time>
      </trkpt>
      <trkpt lat="42.09845" lon="2.37481">
        <ele>948.6</ele>
        <time>2019-01-18T19:42:12Z</time>
      </trkpt>
      <trkpt lat="42.09857" lon="2.37482">
        <ele>950.5</ele>
        <time>2019-01-18T19:42:22Z</time>
      </trkpt>
      <trkpt lat="42.09861" lon="2.37483">
        <ele>950.9</ele>
        <time>2019-01-18T19:42:25Z</time>
      </trkpt>
      <trkpt lat="42.09869" lon="2.37483">
        <ele>950.4</ele>
        <time>2019-01-18T19:42:32Z</time>
      </trkpt>
      <trkpt lat="42.0988" lon="2.37488">
        <ele>955.3</ele>
        <time>2019-01-18T19:42:41Z</time>
      </trkpt>
      <trkpt lat="42.0989" lon="2.37495">
        <ele>960.6</ele>
        <time>2019-01-18T19:42:50Z</time>
      </trkpt>
      <trkpt lat="42.09892" lon="2.37495">
        <ele>961.9</ele>
        <time>2019-01-18T19:42:51Z</time>
      </trkpt>
      <trkpt lat="42.09904" lon="2.3749">
        <ele>965.9</ele>
        <time>2019-01-18T19:43:02Z</time>
      </trkpt>
      <trkpt lat="42.09909" lon="2.37485">
        <ele>969.7</ele>
        <time>2019-01-18T19:43:07Z</time>
      </trkpt>
      <trkpt lat="42.09915" lon="2.37483">
        <ele>971.7</ele>
        <time>2019-01-18T19:43:12Z</time>
      </trkpt>
      <trkpt lat="42.0992" lon="2.37482">
        <ele>972.6</ele>
        <time>2019-01-18T19:43:16Z</time>
      </trkpt>
      <trkpt lat="42.09924" lon="2.37483">
        <ele>972.5</ele>
        <time>2019-01-18T19:43:19Z</time>
      </trkpt>
      <trkpt lat="42.09929" lon="2.37484">
        <ele>970.7</ele>
        <time>2019-01-18T19:43:23Z</time>
      </trkpt>
      <trkpt lat="42.09934" lon="2.37481">
        <ele>969.2</ele>
        <time>2019-01-18T19:43:27Z</time>
      </trkpt>
      <trkpt lat="42.09937" lon="2.37482">
        <ele>969.2</ele>
        <time>2019-01-18T19:43:30Z</time>
      </trkpt>
      <trkpt lat="42.0994" lon="2.37485">
        <ele>969.6</ele>
        <time>2019-01-18T19:43:32Z</time>
      </trkpt>
      <trkpt lat="42.09942" lon="2.37492">
        <ele>969.6</ele>
        <time>2019-01-18T19:43:37Z</time>
      </trkpt>
      <trkpt lat="42.09946" lon="2.37494">
        <ele>970.2</ele>
        <time>2019-01-18T19:43:41Z</time>
      </trkpt>
      <trkpt lat="42.09948" lon="2.37491">
        <ele>974.1</ele>
        <time>2019-01-18T19:43:42Z</time>
      </trkpt>
      <trkpt lat="42.09953" lon="2.37492">
        <ele>979.3</ele>
        <time>2019-01-18T19:43:47Z</time>
      </trkpt>
      <trkpt lat="42.09959" lon="2.37491">
        <ele>983.1</ele>
        <time>2019-01-18T19:43:51Z</time>
      </trkpt>
      <trkpt lat="42.09967" lon="2.37487">
        <ele>985.5</ele>
        <time>2019-01-18T19:43:58Z</time>
      </trkpt>
      <trkpt lat="42.09972" lon="2.37482">
        <ele>987.5</ele>
        <time>2019-01-18T19:44:03Z</time>
      </trkpt>
      <trkpt lat="42.09978" lon="2.37477">
        <ele>987.4</ele>
        <time>2019-01-18T19:44:09Z</time>
      </trkpt>
      <trkpt lat="42.09985" lon="2.37478">
        <ele>989.3</ele>
        <time>2019-01-18T19:44:14Z</time>
      </trkpt>
      <trkpt lat="42.09992" lon="2.37474">
        <ele>990.9</ele>
        <time>2019-01-18T19:44:21Z</time>
      </trkpt>
      <trkpt lat="42.09994" lon="2.37474">
        <ele>993.2</ele>
        <time>2019-01-18T19:44:22Z</time>
      </trkpt>
      <trkpt lat="42.09996" lon="2.37472">
        <ele>994.6</ele>
        <time>2019-01-18T19:44:24Z</time>
      </trkpt>
      <trkpt lat="42.09995" lon="2.37469">
        <ele>994.6</ele>
        <time>2019-01-18T19:44:26Z</time>
      </trkpt>
      <trkpt lat="42.1" lon="2.37465">
        <ele>996.2</ele>
        <time>2019-01-18T19:44:31Z</time>
      </trkpt>
      <trkpt lat="42.10005" lon="2.37465">
        <ele>1000</ele>
        <time>2019-01-18T19:44:34Z</time>
      </trkpt>
      <trkpt lat="42.10011" lon="2.37463">
        <ele>1001</ele>
        <time>2019-01-18T19:44:40Z</time>
      </trkpt>
      <trkpt lat="42.10012" lon="2.37461">
        <ele>1000.9</ele>
        <time>2019-01-18T19:44:41Z</time>
      </trkpt>
      <trkpt lat="42.10013" lon="2.37461">
        <ele>1002.3</ele>
        <time>2019-01-18T19:44:42Z</time>
      </trkpt>
      <trkpt lat="42.10012" lon="2.37459">
        <ele>1005.3</ele>
        <time>2019-01-18T19:44:43Z</time>
      </trkpt>
      <trkpt lat="42.10017" lon="2.37457">
        <ele>1008.2</ele>
        <time>2019-01-18T19:44:48Z</time>
      </trkpt>
      <trkpt lat="42.10023" lon="2.37456">
        <ele>1011.1</ele>
        <time>2019-01-18T19:44:52Z</time>
      </trkpt>
      <trkpt lat="42.10026" lon="2.37451">
        <ele>1011.9</ele>
        <time>2019-01-18T19:44:57Z</time>
      </trkpt>
      <trkpt lat="42.10029" lon="2.37445">
        <ele>1011.9</ele>
        <time>2019-01-18T19:45:00Z</time>
      </trkpt>
      <trkpt lat="42.1003" lon="2.37442">
        <ele>1012.4</ele>
        <time>2019-01-18T19:45:03Z</time>
      </trkpt>
      <trkpt lat="42.10031" lon="2.37442">
        <ele>1012.5</ele>
        <time>2019-01-18T19:45:03Z</time>
      </trkpt>
      <trkpt lat="42.10037" lon="2.37449">
        <ele>1012.4</ele>
        <time>2019-01-18T19:45:10Z</time>
      </trkpt>
      <trkpt lat="42.10044" lon="2.37453">
        <ele>1012</ele>
        <time>2019-01-18T19:45:16Z</time>
      </trkpt>
      <trkpt lat="42.10044" lon="2.37459">
        <ele>1011.4</ele>
        <time>2019-01-18T19:45:20Z</time>
      </trkpt>
      <trkpt lat="42.10049" lon="2.37472">
        <ele>1009</ele>
        <time>2019-01-18T19:45:28Z</time>
      </trkpt>
      <trkpt lat="42.10053" lon="2.37479">
        <ele>1011.1</ele>
        <time>2019-01-18T19:45:34Z</time>
      </trkpt>
      <trkpt lat="42.10063" lon="2.37475">
        <ele>1014.4</ele>
        <time>2019-01-18T19:45:42Z</time>
      </trkpt>
      <trkpt lat="42.10072" lon="2.37487">
        <ele>1023.9</ele>
        <time>2019-01-18T19:45:52Z</time>
      </trkpt>
      <trkpt lat="42.10085" lon="2.3749">
        <ele>1025.5</ele>
        <time>2019-01-18T19:46:02Z</time>
      </trkpt>
      <trkpt lat="42.10088" lon="2.37487">
        <ele>1026.8</ele>
        <time>2019-01-18T19:46:05Z</time>
      </trkpt>
      <trkpt lat="42.1009" lon="2.37483">
        <ele>1024.4</ele>
        <time>2019-01-18T19:46:09Z</time>
      </trkpt>
      <trkpt lat="42.10094" lon="2.37481">
        <ele>1024.9</ele>
        <time>2019-01-18T19:46:11Z</time>
      </trkpt>
      <trkpt lat="42.10094" lon="2.37488">
        <ele>1027.3</ele>
        <time>2019-01-18T19:46:16Z</time>
      </trkpt>
      <trkpt lat="42.10096" lon="2.37487">
        <ele>1027.9</ele>
        <time>2019-01-18T19:46:18Z</time>
      </trkpt>
      <trkpt lat="42.10099" lon="2.37484">
        <ele>1030.2</ele>
        <time>2019-01-18T19:46:21Z</time>
      </trkpt>
      <trkpt lat="42.10102" lon="2.37485">
        <ele>1032.6</ele>
        <time>2019-01-18T19:46:24Z</time>
      </trkpt>
      <trkpt lat="42.101" lon="2.37486">
        <ele>1039.9</ele>
        <time>2019-01-18T19:46:26Z</time>
      </trkpt>
      <trkpt lat="42.10104" lon="2.3748">
        <ele>1041.8</ele>
        <time>2019-01-18T19:46:30Z</time>
      </trkpt>
      <trkpt lat="42.10102" lon="2.37475">
        <ele>1046.5</ele>
        <time>2019-01-18T19:46:34Z</time>
      </trkpt>
      <trkpt lat="42.10112" lon="2.37476">
        <ele>1046.5</ele>
        <time>2019-01-18T19:46:42Z</time>
      </trkpt>
      <trkpt lat="42.10122" lon="2.37478">
        <ele>1046.1</ele>
        <time>2019-01-18T19:46:50Z</time>
      </trkpt>
      <trkpt lat="42.10134" lon="2.37479">
        <ele>1045.7</ele>
        <time>2019-01-18T19:47:00Z</time>
      </trkpt>
      <trkpt lat="42.1014" lon="2.37483">
        <ele>1044.6</ele>
        <time>2019-01-18T19:47:05Z</time>
      </trkpt>
      <trkpt lat="42.10137" lon="2.37484">
        <ele>1044.1</ele>
        <time>2019-01-18T19:47:07Z</time>
      </trkpt>
      <trkpt lat="42.10133" lon="2.37484">
        <ele>1047.5</ele>
        <time>2019-01-18T19:47:10Z</time>
      </trkpt>
      <trkpt lat="42.10144" lon="2.37481">
        <ele>1050.5</ele>
        <time>2019-01-18T19:47:19Z</time>
      </trkpt>
      <trkpt lat="42.10155" lon="2.37478">
        <ele>1051.4</ele>
        <time>2019-01-18T19:47:28Z</time>
      </trkpt>
      <trkpt lat="42.10156" lon="2.37478">
        <ele>1051.3</ele>
        <time>2019-01-18T19:47:29Z</time>
      </trkpt>
      <trkpt lat="42.10164" lon="2.37483">
        <ele>1051.4</ele>
        <time>2019-01-18T19:47:36Z</time>
      </trkpt>
      <trkpt lat="42.10169" lon="2.3749">
        <ele>1051.4</ele>
        <time>2019-01-18T19:47:42Z</time>
      </trkpt>
      <trkpt lat="42.10178" lon="2.37495">
        <ele>1051.8</ele>
        <time>2019-01-18T19:47:49Z</time>
      </trkpt>
      <trkpt lat="42.10179" lon="2.37478">
        <ele>1056.3</ele>
        <time>2019-01-18T19:47:59Z</time>
      </trkpt>
      <trkpt lat="42.10191" lon="2.37481">
        <ele>1058.2</ele>
        <time>2019-01-18T19:48:09Z</time>
      </trkpt>
      <trkpt lat="42.10205" lon="2.37481">
        <ele>1059.1</ele>
        <time>2019-01-18T19:48:20Z</time>
      </trkpt>
      <trkpt lat="42.10212" lon="2.37492">
        <ele>1059.5</ele>
        <time>2019-01-18T19:48:29Z</time>
      </trkpt>
      <trkpt lat="42.10202" lon="2.37504">
        <ele>1059.5</ele>
        <time>2019-01-18T19:48:40Z</time>
      </trkpt>
      <trkpt lat="42.10193" lon="2.37514">
        <ele>1058.1</ele>
        <time>2019-01-18T19:48:49Z</time>
      </trkpt>
      <trkpt lat="42.10195" lon="2.37511">
        <ele>1058.7</ele>
        <time>2019-01-18T19:48:51Z</time>
      </trkpt>
      <trkpt lat="42.10202" lon="2.37498">
        <ele>1058.2</ele>
        <time>2019-01-18T19:49:01Z</time>
      </trkpt>
      <trkpt lat="42.10203" lon="2.37497">
        <ele>1056.7</ele>
        <time>2019-01-18T19:49:02Z</time>
      </trkpt>
      <trkpt lat="42.10206" lon="2.37502">
        <ele>1054.8</ele>
        <time>2019-01-18T19:49:05Z</time>
      </trkpt>
      <trkpt lat="42.10209" lon="2.375">
        <ele>1053.3</ele>
        <time>2019-01-18T19:49:08Z</time>
      </trkpt>
      <trkpt lat="42.10208" lon="2.37491">
        <ele>1052.9</ele>
        <time>2019-01-18T19:49:14Z</time>
      </trkpt>
      <trkpt lat="42.10197" lon="2.37484">
        <ele>1050.9</ele>
        <time>2019-01-18T19:49:24Z</time>
      </trkpt>
      <trkpt lat="42.10194" lon="2.37484">
        <ele>1051.9</ele>
        <time>2019-01-18T19:49:26Z</time>
      </trkpt>
      <trkpt lat="42.10198" lon="2.37488">
        <ele>1051.3</ele>
        <time>2019-01-18T19:49:31Z</time>
      </trkpt>
      <trkpt lat="42.10205" lon="2.37486">
        <ele>1048</ele>
        <time>2019-01-18T19:49:36Z</time>
      </trkpt>
      <trkpt lat="42.10213" lon="2.3749">
        <ele>1048.5</ele>
        <time>2019-01-18T19:49:43Z</time>
      </trkpt>
      <trkpt lat="42.10221" lon="2.37489">
        <ele>1051</ele>
        <time>2019-01-18T19:49:50Z</time>
      </trkpt>
      <trkpt lat="42.10218" lon="2.37487">
        <ele>1048.1</ele>
        <time>2019-01-18T19:49:53Z</time>
      </trkpt>
      <trkpt lat="42.10224" lon="2.37486">
        <ele>1045.2</ele>
        <time>2019-01-18T19:49:59Z</time>
      </trkpt>
      <trkpt lat="42.10229" lon="2.37482">
        <ele>1041.3</ele>
        <time>2019-01-18T19:50:03Z</time>
      </trkpt>
      <trkpt lat="42.10238" lon="2.37484">
        <ele>1041.3</ele>
        <time>2019-01-18T19:50:10Z</time>
      </trkpt>
      <trkpt lat="42.1024" lon="2.37478">
        <ele>1044.2</ele>
        <time>2019-01-18T19:50:14Z</time>
      </trkpt>
      <trkpt lat="42.10246" lon="2.37483">
        <ele>1049</ele>
        <time>2019-01-18T19:50:20Z</time>
      </trkpt>
      <trkpt lat="42.10254" lon="2.37488">
        <ele>1050.5</ele>
        <time>2019-01-18T19:50:27Z</time>
      </trkpt>
      <trkpt lat="42.10257" lon="2.37486">
        <ele>1051.4</ele>
        <time>2019-01-18T19:50:29Z</time>
      </trkpt>
      <trkpt lat="42.10261" lon="2.37479">
        <ele>1055.2</ele>
        <time>2019-01-18T19:50:35Z</time>
      </trkpt>
      <trkpt lat="42.10268" lon="2.37476">
        <ele>1057.6</ele>
        <time>2019-01-18T19:50:41Z</time>
      </trkpt>
      <trkpt lat="42.1027" lon="2.37472">
        <ele>1057.6</ele>
        <time>2019-01-18T19:50:44Z</time>
      </trkpt>
      <trkpt lat="42.10272" lon="2.37466">
        <ele>1054.2</ele>
        <time>2019-01-18T19:50:48Z</time>
      </trkpt>
      <trkpt lat="42.10274" lon="2.37458">
        <ele>1054.8</ele>
        <time>2019-01-18T19:50:52Z</time>
      </trkpt>
      <trkpt lat="42.10274" lon="2.37455">
        <ele>1055.7</ele>
        <time>2019-01-18T19:50:55Z</time>
      </trkpt>
      <trkpt lat="42.10277" lon="2.37451">
        <ele>1055.7</ele>
        <time>2019-01-18T19:50:58Z</time>
      </trkpt>
      <trkpt lat="42.10277" lon="2.37448">
        <ele>1059.6</ele>
        <time>2019-01-18T19:51:00Z</time>
      </trkpt>
      <trkpt lat="42.1028" lon="2.37443">
        <ele>1062.5</ele>
        <time>2019-01-18T19:51:03Z</time>
      </trkpt>
      <trkpt lat="42.10288" lon="2.37446">
        <ele>1068.3</ele>
        <time>2019-01-18T19:51:11Z</time>
      </trkpt>
      <trkpt lat="42.10289" lon="2.37448">
        <ele>1069.7</ele>
        <time>2019-01-18T19:51:12Z</time>
      </trkpt>
      <trkpt lat="42.10292" lon="2.37462">
        <ele>1071.2</ele>
        <time>2019-01-18T19:51:20Z</time>
      </trkpt>
      <trkpt lat="42.10296" lon="2.3747">
        <ele>1071.6</ele>
        <time>2019-01-18T19:51:26Z</time>
      </trkpt>
      <trkpt lat="42.10309" lon="2.37474">
        <ele>1073</ele>
        <time>2019-01-18T19:51:37Z</time>
      </trkpt>
      <trkpt lat="42.10311" lon="2.37478">
        <ele>1072.5</ele>
        <time>2019-01-18T19:51:40Z</time>
      </trkpt>
      <trkpt lat="42.10311" lon="2.37492">
        <ele>1075</ele>
        <time>2019-01-18T19:51:48Z</time>
      </trkpt>
      <trkpt lat="42.10315" lon="2.37492">
        <ele>1076.3</ele>
        <time>2019-01-18T19:51:51Z</time>
      </trkpt>
      <trkpt lat="42.10321" lon="2.37486">
        <ele>1076.4</ele>
        <time>2019-01-18T19:51:57Z</time>
      </trkpt>
      <trkpt lat="42.10325" lon="2.37482">
        <ele>1078.8</ele>
        <time>2019-01-18T19:52:01Z</time>
      </trkpt>
      <trkpt lat="42.10327" lon="2.37476">
        <ele>1080.3</ele>
        <time>2019-01-18T19:52:05Z</time>
      </trkpt>
      <trkpt lat="42.1033" lon="2.37468">
        <ele>1080.7</ele>
        <time>2019-01-18T19:52:10Z</time>
      </trkpt>
      <trkpt lat="42.10329" lon="2.37456">
        <ele>1080.7</ele>
        <time>2019-01-18T19:52:17Z</time>
      </trkpt>
      <trkpt lat="42.10328" lon="2.3745">
        <ele>1081.2</ele>
        <time>2019-01-18T19:52:21Z</time>
      </trkpt>
      <trkpt lat="42.10329" lon="2.37446">
        <ele>1082.2</ele>
        <time>2019-01-18T19:52:23Z</time>
      </trkpt>
      <trkpt lat="42.10335" lon="2.37451">
        <ele>1085.1</ele>
        <time>2019-01-18T19:52:29Z</time>
      </trkpt>
      <trkpt lat="42.10338" lon="2.37457">
        <ele>1088.4</ele>
        <time>2019-01-18T19:52:34Z</time>
      </trkpt>
      <trkpt lat="42.10346" lon="2.37456">
        <ele>1091.7</ele>
        <time>2019-01-18T19:52:40Z</time>
      </trkpt>
      <trkpt lat="42.1035" lon="2.37451">
        <ele>1096</ele>
        <time>2019-01-18T19:52:44Z</time>
      </trkpt>
      <trkpt lat="42.10357" lon="2.37452">
        <ele>1102.4</ele>
        <time>2019-01-18T19:52:50Z</time>
      </trkpt>
      <trkpt lat="42.10358" lon="2.37444">
        <ele>1105.2</ele>
        <time>2019-01-18T19:52:55Z</time>
      </trkpt>
      <trkpt lat="42.10362" lon="2.37436">
        <ele>1105.8</ele>
        <time>2019-01-18T19:53:01Z</time>
      </trkpt>
      <trkpt lat="42.10366" lon="2.37442">
        <ele>1108.6</ele>
        <time>2019-01-18T19:53:06Z</time>
      </trkpt>
      <trkpt lat="42.10369" lon="2.37453">
        <ele>1112</ele>
        <time>2019-01-18T19:53:13Z</time>
      </trkpt>
      <trkpt lat="42.10373" lon="2.37465">
        <ele>1114.3</ele>
        <time>2019-01-18T19:53:20Z</time>
      </trkpt>
      <trkpt lat="42.10376" lon="2.37466">
        <ele>1115.4</ele>
        <time>2019-01-18T19:53:23Z</time>
      </trkpt>
      <trkpt lat="42.10377" lon="2.37458">
        <ele>1118.7</ele>
        <time>2019-01-18T19:53:27Z</time>
      </trkpt>
      <trkpt lat="42.10378" lon="2.37453">
        <ele>1121.5</ele>
        <time>2019-01-18T19:53:31Z</time>
      </trkpt>
      <trkpt lat="42.10377" lon="2.37455">
        <ele>1119.1</ele>
        <time>2019-01-18T19:53:32Z</time>
      </trkpt>
      <trkpt lat="42.10379" lon="2.37448">
        <ele>1122</ele>
        <time>2019-01-18T19:53:37Z</time>
      </trkpt>
      <trkpt lat="42.10388" lon="2.37448">
        <ele>1127.3</ele>
        <time>2019-01-18T19:53:44Z</time>
      </trkpt>
      <trkpt lat="42.10394" lon="2.37453">
        <ele>1131.2</ele>
        <time>2019-01-18T19:53:49Z</time>
      </trkpt>
      <trkpt lat="42.10403" lon="2.37436">
        <ele>1133.6</ele>
        <time>2019-01-18T19:54:02Z</time>
      </trkpt>
      <trkpt lat="42.10416" lon="2.37427">
        <ele>1134</ele>
        <time>2019-01-18T19:54:13Z</time>
      </trkpt>
      <trkpt lat="42.10426" lon="2.37415">
        <ele>1131.2</ele>
        <time>2019-01-18T19:54:24Z</time>
      </trkpt>
      <trkpt lat="42.10427" lon="2.37412">
        <ele>1131.6</ele>
        <time>2019-01-18T19:54:26Z</time>
      </trkpt>
      <trkpt lat="42.10436" lon="2.37402">
        <ele>1127.9</ele>
        <time>2019-01-18T19:54:35Z</time>
      </trkpt>
      <trkpt lat="42.10443" lon="2.37388">
        <ele>1123</ele>
        <time>2019-01-18T19:54:45Z</time>
      </trkpt>
      <trkpt lat="42.10444" lon="2.37387">
        <ele>1123</ele>
        <time>2019-01-18T19:54:46Z</time>
      </trkpt>
      <trkpt lat="42.10458" lon="2.37379">
        <ele>1120.2</ele>
        <time>2019-01-18T19:54:58Z</time>
      </trkpt>
      <trkpt lat="42.10462" lon="2.37365">
        <ele>1122</ele>
        <time>2019-01-18T19:55:07Z</time>
      </trkpt>
      <trkpt lat="42.10469" lon="2.37361">
        <ele>1125.8</ele>
        <time>2019-01-18T19:55:13Z</time>
      </trkpt>
      <trkpt lat="42.10476" lon="2.37361">
        <ele>1128.3</ele>
        <time>2019-01-18T19:55:19Z</time>
      </trkpt>
      <trkpt lat="42.10484" lon="2.37362">
        <ele>1129.3</ele>
        <time>2019-01-18T19:55:25Z</time>
      </trkpt>
      <trkpt lat="42.10495" lon="2.37371">
        <ele>1133.1</ele>
        <time>2019-01-18T19:55:36Z</time>
      </trkpt>
      <trkpt lat="42.10504" lon="2.37382">
        <ele>1134.6</ele>
        <time>2019-01-18T19:55:46Z</time>
      </trkpt>
      <trkpt lat="42.10512" lon="2.37395">
        <ele>1137.5</ele>
        <time>2019-01-18T19:55:55Z</time>
      </trkpt>
      <trkpt lat="42.10516" lon="2.37407">
        <ele>1138.4</ele>
        <time>2019-01-18T19:56:03Z</time>
      </trkpt>
      <trkpt lat="42.10519" lon="2.37411">
        <ele>1138.3</ele>
        <time>2019-01-18T19:56:07Z</time>
      </trkpt>
      <trkpt lat="42.10519" lon="2.37419">
        <ele>1138.8</ele>
        <time>2019-01-18T19:56:11Z</time>
      </trkpt>
      <trkpt lat="42.10528" lon="2.37436">
        <ele>1138.9</ele>
        <time>2019-01-18T19:56:24Z</time>
      </trkpt>
      <trkpt lat="42.10531" lon="2.37442">
        <ele>1139.9</ele>
        <time>2019-01-18T19:56:28Z</time>
      </trkpt>
      <trkpt lat="42.10533" lon="2.37457">
        <ele>1139.8</ele>
        <time>2019-01-18T19:56:37Z</time>
      </trkpt>
      <trkpt lat="42.10538" lon="2.37471">
        <ele>1139.3</ele>
        <time>2019-01-18T19:56:46Z</time>
      </trkpt>
      <trkpt lat="42.10538" lon="2.37475">
        <ele>1138.9</ele>
        <time>2019-01-18T19:56:48Z</time>
      </trkpt>
      <trkpt lat="42.10542" lon="2.37482">
        <ele>1138</ele>
        <time>2019-01-18T19:56:54Z</time>
      </trkpt>
      <trkpt lat="42.10548" lon="2.37493">
        <ele>1135.5</ele>
        <time>2019-01-18T19:57:02Z</time>
      </trkpt>
      <trkpt lat="42.10554" lon="2.3752">
        <ele>1127.4</ele>
        <time>2019-01-18T19:57:19Z</time>
      </trkpt>
      <trkpt lat="42.10558" lon="2.37528">
        <ele>1126.4</ele>
        <time>2019-01-18T19:57:25Z</time>
      </trkpt>
      <trkpt lat="42.10562" lon="2.37534">
        <ele>1126.4</ele>
        <time>2019-01-18T19:57:29Z</time>
      </trkpt>
      <trkpt lat="42.10564" lon="2.37536">
        <ele>1126.8</ele>
        <time>2019-01-18T19:57:31Z</time>
      </trkpt>
      <trkpt lat="42.10579" lon="2.37548">
        <ele>1125.4</ele>
        <time>2019-01-18T19:57:45Z</time>
      </trkpt>
      <trkpt lat="42.10589" lon="2.37557">
        <ele>1125</ele>
        <time>2019-01-18T19:57:54Z</time>
      </trkpt>
      <trkpt lat="42.10599" lon="2.37559">
        <ele>1129.2</ele>
        <time>2019-01-18T19:58:03Z</time>
      </trkpt>
      <trkpt lat="42.10615" lon="2.37567">
        <ele>1135.5</ele>
        <time>2019-01-18T19:58:17Z</time>
      </trkpt>
      <trkpt lat="42.10633" lon="2.37568">
        <ele>1135.9</ele>
        <time>2019-01-18T19:58:31Z</time>
      </trkpt>
      <trkpt lat="42.10651" lon="2.37567">
        <ele>1133.5</ele>
        <time>2019-01-18T19:58:45Z</time>
      </trkpt>
      <trkpt lat="42.10655" lon="2.37569">
        <ele>1133.6</ele>
        <time>2019-01-18T19:58:49Z</time>
      </trkpt>
      <trkpt lat="42.10671" lon="2.37576">
        <ele>1137.4</ele>
        <time>2019-01-18T19:59:02Z</time>
      </trkpt>
      <trkpt lat="42.10684" lon="2.37587">
        <ele>1138.8</ele>
        <time>2019-01-18T19:59:14Z</time>
      </trkpt>
      <trkpt lat="42.10693" lon="2.37594">
        <ele>1143.2</ele>
        <time>2019-01-18T19:59:23Z</time>
      </trkpt>
      <trkpt lat="42.10712" lon="2.37601">
        <ele>1147.1</ele>
        <time>2019-01-18T19:59:39Z</time>
      </trkpt>
      <trkpt lat="42.10728" lon="2.37613">
        <ele>1145.2</ele>
        <time>2019-01-18T19:59:53Z</time>
      </trkpt>
      <trkpt lat="42.10738" lon="2.37623">
        <ele>1143.1</ele>
        <time>2019-01-18T20:00:03Z</time>
      </trkpt>
      <trkpt lat="42.10745" lon="2.37628">
        <ele>1141.3</ele>
        <time>2019-01-18T20:00:09Z</time>
      </trkpt>
      <trkpt lat="42.10752" lon="2.37625">
        <ele>1138.9</ele>
        <time>2019-01-18T20:00:15Z</time>
      </trkpt>
      <trkpt lat="42.10761" lon="2.37612">
        <ele>1135</ele>
        <time>2019-01-18T20:00:26Z</time>
      </trkpt>
      <trkpt lat="42.10773" lon="2.376">
        <ele>1128.2</ele>
        <time>2019-01-18T20:00:38Z</time>
      </trkpt>
      <trkpt lat="42.10775" lon="2.37599">
        <ele>1127.4</ele>
        <time>2019-01-18T20:00:40Z</time>
      </trkpt>
      <trkpt lat="42.10787" lon="2.37607">
        <ele>1126.8</ele>
        <time>2019-01-18T20:00:50Z</time>
      </trkpt>
      <trkpt lat="42.10799" lon="2.37622">
        <ele>1131.7</ele>
        <time>2019-01-18T20:01:03Z</time>
      </trkpt>
      <trkpt lat="42.10804" lon="2.37625">
        <ele>1132.1</ele>
        <time>2019-01-18T20:01:07Z</time>
      </trkpt>
      <trkpt lat="42.10818" lon="2.3763">
        <ele>1132.7</ele>
        <time>2019-01-18T20:01:19Z</time>
      </trkpt>
      <trkpt lat="42.10821" lon="2.37623">
        <ele>1129.2</ele>
        <time>2019-01-18T20:01:24Z</time>
      </trkpt>
      <trkpt lat="42.10826" lon="2.37629">
        <ele>1129.8</ele>
        <time>2019-01-18T20:01:29Z</time>
      </trkpt>
      <trkpt lat="42.10825" lon="2.37628">
        <ele>1128.3</ele>
        <time>2019-01-18T20:01:30Z</time>
      </trkpt>
      <trkpt lat="42.10829" lon="2.37636">
        <ele>1127.4</ele>
        <time>2019-01-18T20:01:36Z</time>
      </trkpt>
      <trkpt lat="42.10831" lon="2.37645">
        <ele>1127.4</ele>
        <time>2019-01-18T20:01:41Z</time>
      </trkpt>
      <trkpt lat="42.10834" lon="2.37655">
        <ele>1127.8</ele>
        <time>2019-01-18T20:01:48Z</time>
      </trkpt>
      <trkpt lat="42.10834" lon="2.37658">
        <ele>1127.3</ele>
        <time>2019-01-18T20:01:49Z</time>
      </trkpt>
      <trkpt lat="42.10836" lon="2.3766">
        <ele>1125.9</ele>
        <time>2019-01-18T20:01:51Z</time>
      </trkpt>
      <trkpt lat="42.10835" lon="2.37658">
        <ele>1126.3</ele>
        <time>2019-01-18T20:01:52Z</time>
      </trkpt>
      <trkpt lat="42.10835" lon="2.37658">
        <ele>1125.8</ele>
        <time>2019-01-18T20:01:52Z</time>
      </trkpt>
      <trkpt lat="42.10834" lon="2.37652">
        <ele>1123.5</ele>
        <time>2019-01-18T20:01:56Z</time>
      </trkpt>
      <trkpt lat="42.10835" lon="2.37634">
        <ele>1122.1</ele>
        <time>2019-01-18T20:02:07Z</time>
      </trkpt>
      <trkpt lat="42.10843" lon="2.37624">
        <ele>1121.5</ele>
        <time>2019-01-18T20:02:16Z</time>
      </trkpt>
      <trkpt lat="42.10848" lon="2.37625">
        <ele>1122.1</ele>
        <time>2019-01-18T20:02:20Z</time>
      </trkpt>
    </trkseg>
  </trk>
</gpx>